<?xml version='1.0' encoding='UTF-8'?><gpx version="1.1" creator="JPX - https://github.com/jenetics/jpx" xmlns="http://www.topografix.com/GPX/1/1"><trk><trkseg><trkpt lat="43.6892141" lon="13.096153"><ele>192.99999999999997</ele><time>2026-04-09T07:30:40.694Z</time></trkpt><trkpt lat="43.6893105" lon="13.0962476"><ele>193.0</ele><time>2026-04-09T07:30:42.694Z</time></trkpt><trkpt lat="43.6893551" lon="13.0963134"><ele>193.0</ele><time>2026-04-09T07:30:45.694Z</time></trkpt><trkpt lat="43.6894181" lon="13.0962931"><ele>193.0</ele><time>2026-04-09T07:30:48.695Z</time></trkpt><trkpt lat="43.6894741" lon="13.0962156"><ele>192.99999999999997</ele><time>2026-04-09T07:30:49.695Z</time></trkpt><trkpt lat="43.6895215" lon="13.0961336"><ele>193.0</ele><time>2026-04-09T07:30:50.695Z</time></trkpt><trkpt lat="43.6895728" lon="13.0960196"><ele>193.2</ele><time>2026-04-09T07:30:51.694Z</time></trkpt><trkpt lat="43.6896275" lon="13.0959018"><ele>193.4</ele><time>2026-04-09T07:30:52.695Z</time></trkpt><trkpt lat="43.689681" lon="13.0957929"><ele>193.6</ele><time>2026-04-09T07:30:53.694Z</time></trkpt><trkpt lat="43.6897344" lon="13.0956864"><ele>193.79999999999998</ele><time>2026-04-09T07:30:54.694Z</time></trkpt><trkpt lat="43.6897876" lon="13.095577"><ele>194.0</ele><time>2026-04-09T07:30:55.694Z</time></trkpt><trkpt lat="43.6898497" lon="13.095449"><ele>194.0</ele><time>2026-04-09T07:30:56.695Z</time></trkpt><trkpt lat="43.689916" lon="13.0953034"><ele>194.0</ele><time>2026-04-09T07:30:57.695Z</time></trkpt><trkpt lat="43.6899821" lon="13.0951652"><ele>194.0</ele><time>2026-04-09T07:30:58.694Z</time></trkpt><trkpt lat="43.6900493" lon="13.0950258"><ele>194.0</ele><time>2026-04-09T07:30:59.694Z</time></trkpt><trkpt lat="43.6901157" lon="13.0948784"><ele>195.0</ele><time>2026-04-09T07:31:00.694Z</time></trkpt><trkpt lat="43.6901809" lon="13.0947323"><ele>196.0</ele><time>2026-04-09T07:31:01.694Z</time></trkpt><trkpt lat="43.690247" lon="13.094589"><ele>197.0</ele><time>2026-04-09T07:31:02.694Z</time></trkpt><trkpt lat="43.690315" lon="13.0944486"><ele>198.0</ele><time>2026-04-09T07:31:03.695Z</time></trkpt><trkpt lat="43.6903809" lon="13.0943027"><ele>195.5</ele><time>2026-04-09T07:31:04.695Z</time></trkpt><trkpt lat="43.6904518" lon="13.0941619"><ele>193.0</ele><time>2026-04-09T07:31:05.695Z</time></trkpt><trkpt lat="43.6905306" lon="13.0940045"><ele>190.5</ele><time>2026-04-09T07:31:06.694Z</time></trkpt><trkpt lat="43.6906189" lon="13.0938459"><ele>188.0</ele><time>2026-04-09T07:31:07.695Z</time></trkpt><trkpt lat="43.6907194" lon="13.0936993"><ele>188.0</ele><time>2026-04-09T07:31:08.695Z</time></trkpt><trkpt lat="43.6908201" lon="13.0935468"><ele>188.0</ele><time>2026-04-09T07:31:09.695Z</time></trkpt><trkpt lat="43.690928" lon="13.0934031"><ele>188.0</ele><time>2026-04-09T07:31:10.695Z</time></trkpt><trkpt lat="43.6910494" lon="13.0932749"><ele>187.25</ele><time>2026-04-09T07:31:11.694Z</time></trkpt><trkpt lat="43.6911662" lon="13.0931481"><ele>186.5</ele><time>2026-04-09T07:31:12.695Z</time></trkpt><trkpt lat="43.6912892" lon="13.0930325"><ele>185.75</ele><time>2026-04-09T07:31:13.694Z</time></trkpt><trkpt lat="43.6914145" lon="13.0929209"><ele>185.0</ele><time>2026-04-09T07:31:14.695Z</time></trkpt><trkpt lat="43.691541" lon="13.0928248"><ele>185.0</ele><time>2026-04-09T07:31:15.694Z</time></trkpt><trkpt lat="43.691685" lon="13.0927392"><ele>185.0</ele><time>2026-04-09T07:31:16.694Z</time></trkpt><trkpt lat="43.6918325" lon="13.0926629"><ele>185.0</ele><time>2026-04-09T07:31:17.695Z</time></trkpt><trkpt lat="43.6919918" lon="13.0925974"><ele>179.66666666666666</ele><time>2026-04-09T07:31:18.695Z</time></trkpt><trkpt lat="43.6921612" lon="13.0925442"><ele>174.33333333333334</ele><time>2026-04-09T07:31:19.694Z</time></trkpt><trkpt lat="43.6923347" lon="13.0925159"><ele>169.0</ele><time>2026-04-09T07:31:20.694Z</time></trkpt><trkpt lat="43.6925084" lon="13.0925015"><ele>169.0</ele><time>2026-04-09T07:31:21.694Z</time></trkpt><trkpt lat="43.6926829" lon="13.0924961"><ele>169.0</ele><time>2026-04-09T07:31:22.694Z</time></trkpt><trkpt lat="43.6928635" lon="13.0924902"><ele>169.0</ele><time>2026-04-09T07:31:23.695Z</time></trkpt><trkpt lat="43.6930441" lon="13.0924804"><ele>166.66666666666669</ele><time>2026-04-09T07:31:24.695Z</time></trkpt><trkpt lat="43.6932284" lon="13.092465"><ele>164.33333333333334</ele><time>2026-04-09T07:31:25.695Z</time></trkpt><trkpt lat="43.6934109" lon="13.0924537"><ele>162.0</ele><time>2026-04-09T07:31:26.694Z</time></trkpt><trkpt lat="43.6935986" lon="13.0924448"><ele>161.0</ele><time>2026-04-09T07:31:27.694Z</time></trkpt><trkpt lat="43.693788" lon="13.092435"><ele>160.0</ele><time>2026-04-09T07:31:28.694Z</time></trkpt><trkpt lat="43.6939683" lon="13.0924238"><ele>159.0</ele><time>2026-04-09T07:31:29.695Z</time></trkpt><trkpt lat="43.6941441" lon="13.0924187"><ele>159.0</ele><time>2026-04-09T07:31:30.694Z</time></trkpt><trkpt lat="43.6943101" lon="13.0924058"><ele>159.0</ele><time>2026-04-09T07:31:31.695Z</time></trkpt><trkpt lat="43.6944664" lon="13.092403"><ele>159.0</ele><time>2026-04-09T07:31:32.694Z</time></trkpt><trkpt lat="43.6946187" lon="13.0923976"><ele>159.0</ele><time>2026-04-09T07:31:33.695Z</time></trkpt><trkpt lat="43.6947578" lon="13.0923841"><ele>159.0</ele><time>2026-04-09T07:31:34.695Z</time></trkpt><trkpt lat="43.6949007" lon="13.0923731"><ele>159.0</ele><time>2026-04-09T07:31:35.695Z</time></trkpt><trkpt lat="43.6950289" lon="13.0923692"><ele>159.0</ele><time>2026-04-09T07:31:36.694Z</time></trkpt><trkpt lat="43.6951544" lon="13.0923673"><ele>159.8</ele><time>2026-04-09T07:31:37.695Z</time></trkpt><trkpt lat="43.6952685" lon="13.0923646"><ele>160.60000000000002</ele><time>2026-04-09T07:31:38.694Z</time></trkpt><trkpt lat="43.6953796" lon="13.0923622"><ele>161.4</ele><time>2026-04-09T07:31:39.694Z</time></trkpt><trkpt lat="43.6954911" lon="13.0923376"><ele>162.20000000000002</ele><time>2026-04-09T07:31:40.694Z</time></trkpt><trkpt lat="43.6955997" lon="13.092312"><ele>163.0</ele><time>2026-04-09T07:31:41.695Z</time></trkpt><trkpt lat="43.6957192" lon="13.0922823"><ele>163.0</ele><time>2026-04-09T07:31:42.695Z</time></trkpt><trkpt lat="43.6958467" lon="13.0922521"><ele>163.0</ele><time>2026-04-09T07:31:43.694Z</time></trkpt><trkpt lat="43.6959774" lon="13.0922243"><ele>163.0</ele><time>2026-04-09T07:31:44.694Z</time></trkpt><trkpt lat="43.6961144" lon="13.0921977"><ele>163.0</ele><time>2026-04-09T07:31:45.694Z</time></trkpt><trkpt lat="43.6962495" lon="13.0921732"><ele>162.25</ele><time>2026-04-09T07:31:46.695Z</time></trkpt><trkpt lat="43.6963805" lon="13.0921519"><ele>161.5</ele><time>2026-04-09T07:31:47.695Z</time></trkpt><trkpt lat="43.6965104" lon="13.0921228"><ele>160.75</ele><time>2026-04-09T07:31:48.694Z</time></trkpt><trkpt lat="43.6966424" lon="13.0921032"><ele>160.0</ele><time>2026-04-09T07:31:49.694Z</time></trkpt><trkpt lat="43.6967639" lon="13.092074"><ele>160.0</ele><time>2026-04-09T07:31:50.694Z</time></trkpt><trkpt lat="43.6968815" lon="13.0920505"><ele>160.0</ele><time>2026-04-09T07:31:51.695Z</time></trkpt><trkpt lat="43.6969933" lon="13.092028"><ele>160.0</ele><time>2026-04-09T07:31:52.694Z</time></trkpt><trkpt lat="43.6971008" lon="13.0920052"><ele>160.0</ele><time>2026-04-09T07:31:53.694Z</time></trkpt><trkpt lat="43.6971977" lon="13.0919944"><ele>160.0</ele><time>2026-04-09T07:31:54.695Z</time></trkpt><trkpt lat="43.6972853" lon="13.0919752"><ele>159.33333333333334</ele><time>2026-04-09T07:31:55.695Z</time></trkpt><trkpt lat="43.6973561" lon="13.0919515"><ele>158.66666666666669</ele><time>2026-04-09T07:31:56.694Z</time></trkpt><trkpt lat="43.6974181" lon="13.0919151"><ele>158.0</ele><time>2026-04-09T07:31:57.694Z</time></trkpt><trkpt lat="43.697439" lon="13.0918152"><ele>157.33333333333334</ele><time>2026-04-09T07:31:58.695Z</time></trkpt><trkpt lat="43.6974218" lon="13.0917273"><ele>156.66666666666666</ele><time>2026-04-09T07:31:59.694Z</time></trkpt><trkpt lat="43.6973746" lon="13.0916299"><ele>156.0</ele><time>2026-04-09T07:32:00.694Z</time></trkpt><trkpt lat="43.6973169" lon="13.0915232"><ele>155.5</ele><time>2026-04-09T07:32:01.695Z</time></trkpt><trkpt lat="43.697251" lon="13.0914107"><ele>155.0</ele><time>2026-04-09T07:32:02.695Z</time></trkpt><trkpt lat="43.6971669" lon="13.0912813"><ele>154.5</ele><time>2026-04-09T07:32:03.695Z</time></trkpt><trkpt lat="43.6970829" lon="13.0911536"><ele>154.0</ele><time>2026-04-09T07:32:04.695Z</time></trkpt><trkpt lat="43.6969953" lon="13.0910178"><ele>153.5</ele><time>2026-04-09T07:32:05.694Z</time></trkpt><trkpt lat="43.6969063" lon="13.0908711"><ele>153.0</ele><time>2026-04-09T07:32:06.694Z</time></trkpt><trkpt lat="43.696808" lon="13.0907104"><ele>152.5</ele><time>2026-04-09T07:32:07.695Z</time></trkpt><trkpt lat="43.6967142" lon="13.0905539"><ele>152.0</ele><time>2026-04-09T07:32:08.694Z</time></trkpt><trkpt lat="43.6966219" lon="13.0904007"><ele>148.66666666666666</ele><time>2026-04-09T07:32:09.694Z</time></trkpt><trkpt lat="43.6965237" lon="13.0902419"><ele>145.33333333333334</ele><time>2026-04-09T07:32:10.694Z</time></trkpt><trkpt lat="43.6964251" lon="13.0900836"><ele>142.0</ele><time>2026-04-09T07:32:11.695Z</time></trkpt><trkpt lat="43.6963126" lon="13.0899327"><ele>142.33333333333334</ele><time>2026-04-09T07:32:12.694Z</time></trkpt><trkpt lat="43.6961858" lon="13.0897972"><ele>142.66666666666666</ele><time>2026-04-09T07:32:13.695Z</time></trkpt><trkpt lat="43.6960654" lon="13.0896763"><ele>143.0</ele><time>2026-04-09T07:32:14.695Z</time></trkpt><trkpt lat="43.6959551" lon="13.0895318"><ele>143.0</ele><time>2026-04-09T07:32:15.695Z</time></trkpt><trkpt lat="43.6958909" lon="13.0893427"><ele>143.0</ele><time>2026-04-09T07:32:16.695Z</time></trkpt><trkpt lat="43.695845" lon="13.0891374"><ele>143.0</ele><time>2026-04-09T07:32:17.694Z</time></trkpt><trkpt lat="43.6958254" lon="13.0889187"><ele>140.33333333333331</ele><time>2026-04-09T07:32:18.694Z</time></trkpt><trkpt lat="43.6958328" lon="13.0886923"><ele>137.66666666666666</ele><time>2026-04-09T07:32:19.694Z</time></trkpt><trkpt lat="43.6958492" lon="13.0884592"><ele>135.0</ele><time>2026-04-09T07:32:20.695Z</time></trkpt><trkpt lat="43.6958641" lon="13.0882164"><ele>134.66666666666666</ele><time>2026-04-09T07:32:21.694Z</time></trkpt><trkpt lat="43.6958837" lon="13.0879775"><ele>134.33333333333331</ele><time>2026-04-09T07:32:22.694Z</time></trkpt><trkpt lat="43.6959046" lon="13.0877402"><ele>134.0</ele><time>2026-04-09T07:32:23.695Z</time></trkpt><trkpt lat="43.6959166" lon="13.0875063"><ele>132.66666666666666</ele><time>2026-04-09T07:32:24.695Z</time></trkpt><trkpt lat="43.6959423" lon="13.08727"><ele>131.33333333333334</ele><time>2026-04-09T07:32:25.694Z</time></trkpt><trkpt lat="43.6959619" lon="13.0870346"><ele>130.0</ele><time>2026-04-09T07:32:26.695Z</time></trkpt><trkpt lat="43.6959758" lon="13.0867907"><ele>128.33333333333334</ele><time>2026-04-09T07:32:27.694Z</time></trkpt><trkpt lat="43.6959902" lon="13.0865683"><ele>126.66666666666666</ele><time>2026-04-09T07:32:28.695Z</time></trkpt><trkpt lat="43.6959921" lon="13.0863476"><ele>125.0</ele><time>2026-04-09T07:32:29.695Z</time></trkpt><trkpt lat="43.696001" lon="13.0861385"><ele>125.0</ele><time>2026-04-09T07:32:30.694Z</time></trkpt><trkpt lat="43.6959952" lon="13.0859242"><ele>125.0</ele><time>2026-04-09T07:32:31.694Z</time></trkpt><trkpt lat="43.6959633" lon="13.085712"><ele>125.0</ele><time>2026-04-09T07:32:32.695Z</time></trkpt><trkpt lat="43.6958845" lon="13.0854869"><ele>121.0</ele><time>2026-04-09T07:32:33.694Z</time></trkpt><trkpt lat="43.6958199" lon="13.0852629"><ele>117.0</ele><time>2026-04-09T07:32:34.694Z</time></trkpt><trkpt lat="43.6957491" lon="13.0850538"><ele>113.0</ele><time>2026-04-09T07:32:35.694Z</time></trkpt><trkpt lat="43.6956841" lon="13.0848516"><ele>111.75</ele><time>2026-04-09T07:32:36.694Z</time></trkpt><trkpt lat="43.6956039" lon="13.0846788"><ele>110.5</ele><time>2026-04-09T07:32:37.694Z</time></trkpt><trkpt lat="43.6954915" lon="13.084556"><ele>109.25</ele><time>2026-04-09T07:32:38.695Z</time></trkpt><trkpt lat="43.6953593" lon="13.0844796"><ele>108.0</ele><time>2026-04-09T07:32:39.694Z</time></trkpt><trkpt lat="43.6952148" lon="13.0844502"><ele>108.0</ele><time>2026-04-09T07:32:40.694Z</time></trkpt><trkpt lat="43.6950796" lon="13.0844544"><ele>108.0</ele><time>2026-04-09T07:32:41.694Z</time></trkpt><trkpt lat="43.6949507" lon="13.0844846"><ele>108.0</ele><time>2026-04-09T07:32:42.694Z</time></trkpt><trkpt lat="43.6948392" lon="13.0845248"><ele>108.0</ele><time>2026-04-09T07:32:43.694Z</time></trkpt><trkpt lat="43.6947406" lon="13.0845643"><ele>108.0</ele><time>2026-04-09T07:32:44.694Z</time></trkpt><trkpt lat="43.6946509" lon="13.084575"><ele>108.0</ele><time>2026-04-09T07:32:45.695Z</time></trkpt><trkpt lat="43.6945929" lon="13.0845152"><ele>108.0</ele><time>2026-04-09T07:32:46.694Z</time></trkpt><trkpt lat="43.6945713" lon="13.0844283"><ele>108.0</ele><time>2026-04-09T07:32:47.695Z</time></trkpt><trkpt lat="43.6945478" lon="13.0843387"><ele>108.0</ele><time>2026-04-09T07:32:48.694Z</time></trkpt><trkpt lat="43.694672" lon="13.0842767"><ele>108.0</ele><time>2026-04-09T07:32:49.695Z</time></trkpt><trkpt lat="43.6947488" lon="13.0842217"><ele>108.0</ele><time>2026-04-09T07:32:50.695Z</time></trkpt><trkpt lat="43.6948847" lon="13.0841786"><ele>108.0</ele><time>2026-04-09T07:32:51.694Z</time></trkpt><trkpt lat="43.6950052" lon="13.0841261"><ele>108.0</ele><time>2026-04-09T07:32:52.694Z</time></trkpt><trkpt lat="43.6951405" lon="13.0840693"><ele>108.0</ele><time>2026-04-09T07:32:53.695Z</time></trkpt><trkpt lat="43.6952818" lon="13.0840235"><ele>106.0</ele><time>2026-04-09T07:32:54.694Z</time></trkpt><trkpt lat="43.6954161" lon="13.0840289"><ele>104.0</ele><time>2026-04-09T07:32:55.695Z</time></trkpt><trkpt lat="43.6955589" lon="13.0840555"><ele>102.0</ele><time>2026-04-09T07:32:56.695Z</time></trkpt><trkpt lat="43.6956295" lon="13.0841983"><ele>100.0</ele><time>2026-04-09T07:32:57.694Z</time></trkpt><trkpt lat="43.6957376" lon="13.0843256"><ele>100.0</ele><time>2026-04-09T07:32:58.695Z</time></trkpt><trkpt lat="43.6958061" lon="13.0844668"><ele>100.0</ele><time>2026-04-09T07:32:59.694Z</time></trkpt><trkpt lat="43.6958809" lon="13.0845705"><ele>100.0</ele><time>2026-04-09T07:33:00.695Z</time></trkpt><trkpt lat="43.6959493" lon="13.0846256"><ele>100.0</ele><time>2026-04-09T07:33:01.694Z</time></trkpt><trkpt lat="43.6960188" lon="13.0846303"><ele>100.0</ele><time>2026-04-09T07:33:02.695Z</time></trkpt><trkpt lat="43.6960725" lon="13.0845628"><ele>100.0</ele><time>2026-04-09T07:33:03.694Z</time></trkpt><trkpt lat="43.6960665" lon="13.0844388"><ele>100.0</ele><time>2026-04-09T07:33:04.695Z</time></trkpt><trkpt lat="43.6960254" lon="13.0843153"><ele>100.0</ele><time>2026-04-09T07:33:05.694Z</time></trkpt><trkpt lat="43.6959552" lon="13.0841761"><ele>100.0</ele><time>2026-04-09T07:33:06.694Z</time></trkpt><trkpt lat="43.6958696" lon="13.0840304"><ele>100.0</ele><time>2026-04-09T07:33:07.694Z</time></trkpt><trkpt lat="43.6957735" lon="13.0838831"><ele>95.0</ele><time>2026-04-09T07:33:08.695Z</time></trkpt><trkpt lat="43.6956659" lon="13.0837371"><ele>90.0</ele><time>2026-04-09T07:33:09.695Z</time></trkpt><trkpt lat="43.6955427" lon="13.0836004"><ele>85.0</ele><time>2026-04-09T07:33:10.695Z</time></trkpt><trkpt lat="43.6954139" lon="13.0834782"><ele>85.0</ele><time>2026-04-09T07:33:11.694Z</time></trkpt><trkpt lat="43.6952974" lon="13.0833829"><ele>85.0</ele><time>2026-04-09T07:33:12.694Z</time></trkpt><trkpt lat="43.6951825" lon="13.0832967"><ele>85.0</ele><time>2026-04-09T07:33:13.695Z</time></trkpt><trkpt lat="43.6950801" lon="13.0832135"><ele>85.0</ele><time>2026-04-09T07:33:14.694Z</time></trkpt><trkpt lat="43.6949969" lon="13.0831326"><ele>85.0</ele><time>2026-04-09T07:33:15.694Z</time></trkpt><trkpt lat="43.6949459" lon="13.083032"><ele>85.0</ele><time>2026-04-09T07:33:16.695Z</time></trkpt><trkpt lat="43.6949219" lon="13.082919"><ele>85.0</ele><time>2026-04-09T07:33:17.694Z</time></trkpt><trkpt lat="43.6949127" lon="13.0828008"><ele>85.0</ele><time>2026-04-09T07:33:18.695Z</time></trkpt><trkpt lat="43.6949403" lon="13.0826852"><ele>85.0</ele><time>2026-04-09T07:33:19.695Z</time></trkpt><trkpt lat="43.6950907" lon="13.0827417"><ele>85.0</ele><time>2026-04-09T07:33:20.694Z</time></trkpt><trkpt lat="43.6952087" lon="13.0828209"><ele>85.0</ele><time>2026-04-09T07:33:21.695Z</time></trkpt><trkpt lat="43.695339" lon="13.0829328"><ele>85.0</ele><time>2026-04-09T07:33:22.694Z</time></trkpt><trkpt lat="43.6954724" lon="13.0830418"><ele>85.0</ele><time>2026-04-09T07:33:23.695Z</time></trkpt><trkpt lat="43.6956151" lon="13.0831481"><ele>85.0</ele><time>2026-04-09T07:33:24.694Z</time></trkpt><trkpt lat="43.6957663" lon="13.0832574"><ele>85.0</ele><time>2026-04-09T07:33:25.695Z</time></trkpt><trkpt lat="43.6959274" lon="13.0833802"><ele>85.0</ele><time>2026-04-09T07:33:26.694Z</time></trkpt><trkpt lat="43.6960897" lon="13.0835068"><ele>81.0</ele><time>2026-04-09T07:33:27.694Z</time></trkpt><trkpt lat="43.6962522" lon="13.083638"><ele>77.0</ele><time>2026-04-09T07:33:28.695Z</time></trkpt><trkpt lat="43.6964201" lon="13.0837765"><ele>73.0</ele><time>2026-04-09T07:33:29.694Z</time></trkpt><trkpt lat="43.6965804" lon="13.0839324"><ele>76.0</ele><time>2026-04-09T07:33:30.694Z</time></trkpt><trkpt lat="43.6967055" lon="13.0841091"><ele>79.0</ele><time>2026-04-09T07:33:31.694Z</time></trkpt><trkpt lat="43.6968228" lon="13.0842924"><ele>82.0</ele><time>2026-04-09T07:33:32.694Z</time></trkpt><trkpt lat="43.6969377" lon="13.0844823"><ele>78.0</ele><time>2026-04-09T07:33:33.695Z</time></trkpt><trkpt lat="43.6970384" lon="13.0846764"><ele>74.0</ele><time>2026-04-09T07:33:34.694Z</time></trkpt><trkpt lat="43.6971326" lon="13.0848735"><ele>70.0</ele><time>2026-04-09T07:33:35.694Z</time></trkpt><trkpt lat="43.6972163" lon="13.0850799"><ele>70.0</ele><time>2026-04-09T07:33:36.695Z</time></trkpt><trkpt lat="43.6972804" lon="13.0852903"><ele>70.0</ele><time>2026-04-09T07:33:37.694Z</time></trkpt><trkpt lat="43.6973503" lon="13.0854982"><ele>70.0</ele><time>2026-04-09T07:33:38.694Z</time></trkpt><trkpt lat="43.6974304" lon="13.085691"><ele>69.0</ele><time>2026-04-09T07:33:39.694Z</time></trkpt><trkpt lat="43.697529" lon="13.0858634"><ele>68.0</ele><time>2026-04-09T07:33:40.695Z</time></trkpt><trkpt lat="43.697639" lon="13.0860326"><ele>67.0</ele><time>2026-04-09T07:33:41.694Z</time></trkpt><trkpt lat="43.6977574" lon="13.0861959"><ele>67.0</ele><time>2026-04-09T07:33:42.695Z</time></trkpt><trkpt lat="43.6978938" lon="13.0863317"><ele>67.0</ele><time>2026-04-09T07:33:43.694Z</time></trkpt><trkpt lat="43.6980529" lon="13.0864249"><ele>67.0</ele><time>2026-04-09T07:33:44.694Z</time></trkpt><trkpt lat="43.6982309" lon="13.0864779"><ele>67.0</ele><time>2026-04-09T07:33:45.695Z</time></trkpt><trkpt lat="43.6984306" lon="13.0865067"><ele>67.0</ele><time>2026-04-09T07:33:46.694Z</time></trkpt><trkpt lat="43.6986314" lon="13.0865252"><ele>67.0</ele><time>2026-04-09T07:33:47.695Z</time></trkpt><trkpt lat="43.6988273" lon="13.0865501"><ele>65.66666666666666</ele><time>2026-04-09T07:33:48.695Z</time></trkpt><trkpt lat="43.6990323" lon="13.0865766"><ele>64.33333333333333</ele><time>2026-04-09T07:33:49.694Z</time></trkpt><trkpt lat="43.6992286" lon="13.0866057"><ele>63.0</ele><time>2026-04-09T07:33:50.694Z</time></trkpt><trkpt lat="43.6994199" lon="13.0866338"><ele>61.66666666666667</ele><time>2026-04-09T07:33:51.695Z</time></trkpt><trkpt lat="43.6996056" lon="13.0866573"><ele>60.333333333333336</ele><time>2026-04-09T07:33:52.695Z</time></trkpt><trkpt lat="43.6997778" lon="13.0866784"><ele>59.0</ele><time>2026-04-09T07:33:53.694Z</time></trkpt><trkpt lat="43.6999368" lon="13.08669"><ele>59.0</ele><time>2026-04-09T07:33:54.694Z</time></trkpt><trkpt lat="43.7000804" lon="13.0866892"><ele>59.0</ele><time>2026-04-09T07:33:55.695Z</time></trkpt><trkpt lat="43.7002057" lon="13.0866764"><ele>59.0</ele><time>2026-04-09T07:33:56.694Z</time></trkpt><trkpt lat="43.7003172" lon="13.0866687"><ele>59.0</ele><time>2026-04-09T07:33:57.694Z</time></trkpt><trkpt lat="43.7004113" lon="13.0866897"><ele>58.333333333333336</ele><time>2026-04-09T07:33:58.695Z</time></trkpt><trkpt lat="43.7005008" lon="13.0867134"><ele>57.66666666666667</ele><time>2026-04-09T07:33:59.694Z</time></trkpt><trkpt lat="43.7005748" lon="13.0867048"><ele>57.0</ele><time>2026-04-09T07:34:00.695Z</time></trkpt><trkpt lat="43.7006286" lon="13.08665"><ele>56.33333333333333</ele><time>2026-04-09T07:34:01.694Z</time></trkpt><trkpt lat="43.700647" lon="13.0865463"><ele>55.666666666666664</ele><time>2026-04-09T07:34:02.694Z</time></trkpt><trkpt lat="43.7006537" lon="13.0864217"><ele>55.0</ele><time>2026-04-09T07:34:03.695Z</time></trkpt><trkpt lat="43.7006734" lon="13.0862825"><ele>54.25</ele><time>2026-04-09T07:34:04.695Z</time></trkpt><trkpt lat="43.7007194" lon="13.0861315"><ele>53.5</ele><time>2026-04-09T07:34:05.695Z</time></trkpt><trkpt lat="43.7007964" lon="13.0859755"><ele>52.75</ele><time>2026-04-09T07:34:06.695Z</time></trkpt><trkpt lat="43.700903" lon="13.0858085"><ele>52.0</ele><time>2026-04-09T07:34:07.695Z</time></trkpt><trkpt lat="43.7010219" lon="13.0856649"><ele>51.33333333333333</ele><time>2026-04-09T07:34:08.694Z</time></trkpt><trkpt lat="43.7011618" lon="13.0855421"><ele>50.66666666666667</ele><time>2026-04-09T07:34:09.694Z</time></trkpt><trkpt lat="43.701321" lon="13.0854391"><ele>50.0</ele><time>2026-04-09T07:34:10.695Z</time></trkpt><trkpt lat="43.7014928" lon="13.0853292"><ele>50.0</ele><time>2026-04-09T07:34:11.695Z</time></trkpt><trkpt lat="43.7016654" lon="13.0852241"><ele>50.0</ele><time>2026-04-09T07:34:12.694Z</time></trkpt><trkpt lat="43.7018407" lon="13.0851205"><ele>50.0</ele><time>2026-04-09T07:34:13.695Z</time></trkpt><trkpt lat="43.7020186" lon="13.0850108"><ele>50.0</ele><time>2026-04-09T07:34:14.695Z</time></trkpt><trkpt lat="43.7021981" lon="13.0849005"><ele>50.0</ele><time>2026-04-09T07:34:15.695Z</time></trkpt><trkpt lat="43.7023786" lon="13.0847905"><ele>50.0</ele><time>2026-04-09T07:34:16.695Z</time></trkpt><trkpt lat="43.7025605" lon="13.0846866"><ele>50.0</ele><time>2026-04-09T07:34:17.694Z</time></trkpt><trkpt lat="43.7027413" lon="13.0845814"><ele>50.0</ele><time>2026-04-09T07:34:18.695Z</time></trkpt><trkpt lat="43.7029205" lon="13.0844814"><ele>50.0</ele><time>2026-04-09T07:34:19.695Z</time></trkpt><trkpt lat="43.7031047" lon="13.0843752"><ele>50.0</ele><time>2026-04-09T07:34:20.694Z</time></trkpt><trkpt lat="43.7032883" lon="13.0842714"><ele>50.0</ele><time>2026-04-09T07:34:21.695Z</time></trkpt><trkpt lat="43.7034729" lon="13.0841699"><ele>50.0</ele><time>2026-04-09T07:34:22.694Z</time></trkpt><trkpt lat="43.7036564" lon="13.0840649"><ele>50.0</ele><time>2026-04-09T07:34:23.694Z</time></trkpt><trkpt lat="43.7038404" lon="13.0839624"><ele>50.0</ele><time>2026-04-09T07:34:24.695Z</time></trkpt><trkpt lat="43.7040303" lon="13.0838614"><ele>50.0</ele><time>2026-04-09T07:34:25.694Z</time></trkpt><trkpt lat="43.7042102" lon="13.0837525"><ele>50.0</ele><time>2026-04-09T07:34:26.694Z</time></trkpt><trkpt lat="43.704385" lon="13.0836248"><ele>50.0</ele><time>2026-04-09T07:34:27.694Z</time></trkpt><trkpt lat="43.7045508" lon="13.0834608"><ele>50.0</ele><time>2026-04-09T07:34:28.695Z</time></trkpt><trkpt lat="43.704712" lon="13.0832722"><ele>49.333333333333336</ele><time>2026-04-09T07:34:29.695Z</time></trkpt><trkpt lat="43.704858" lon="13.0830628"><ele>48.66666666666667</ele><time>2026-04-09T07:34:30.694Z</time></trkpt><trkpt lat="43.7050041" lon="13.082838"><ele>48.0</ele><time>2026-04-09T07:34:31.694Z</time></trkpt><trkpt lat="43.7051494" lon="13.0826128"><ele>46.666666666666664</ele><time>2026-04-09T07:34:32.695Z</time></trkpt><trkpt lat="43.7052851" lon="13.082399"><ele>45.33333333333333</ele><time>2026-04-09T07:34:33.694Z</time></trkpt><trkpt lat="43.7054218" lon="13.0821924"><ele>44.0</ele><time>2026-04-09T07:34:34.694Z</time></trkpt><trkpt lat="43.7055557" lon="13.0819893"><ele>44.0</ele><time>2026-04-09T07:34:35.694Z</time></trkpt><trkpt lat="43.7056904" lon="13.0817864"><ele>44.0</ele><time>2026-04-09T07:34:36.694Z</time></trkpt><trkpt lat="43.705822" lon="13.0815847"><ele>44.0</ele><time>2026-04-09T07:34:37.694Z</time></trkpt><trkpt lat="43.7059547" lon="13.0813803"><ele>44.0</ele><time>2026-04-09T07:34:38.694Z</time></trkpt><trkpt lat="43.7060822" lon="13.0811815"><ele>44.0</ele><time>2026-04-09T07:34:39.694Z</time></trkpt><trkpt lat="43.7062115" lon="13.0809794"><ele>44.0</ele><time>2026-04-09T07:34:40.694Z</time></trkpt><trkpt lat="43.7063427" lon="13.0807714"><ele>44.33333333333333</ele><time>2026-04-09T07:34:41.695Z</time></trkpt><trkpt lat="43.7064714" lon="13.0805707"><ele>44.666666666666664</ele><time>2026-04-09T07:34:42.695Z</time></trkpt><trkpt lat="43.7066024" lon="13.08037"><ele>45.0</ele><time>2026-04-09T07:34:43.694Z</time></trkpt><trkpt lat="43.7067312" lon="13.0801717"><ele>45.0</ele><time>2026-04-09T07:34:44.695Z</time></trkpt><trkpt lat="43.7068612" lon="13.0799746"><ele>45.0</ele><time>2026-04-09T07:34:45.694Z</time></trkpt><trkpt lat="43.706992" lon="13.0797795"><ele>45.0</ele><time>2026-04-09T07:34:46.694Z</time></trkpt><trkpt lat="43.7071228" lon="13.0795811"><ele>45.333333333333336</ele><time>2026-04-09T07:34:47.694Z</time></trkpt><trkpt lat="43.7072508" lon="13.0793851"><ele>45.66666666666667</ele><time>2026-04-09T07:34:48.694Z</time></trkpt><trkpt lat="43.7073842" lon="13.0791839"><ele>46.0</ele><time>2026-04-09T07:34:49.695Z</time></trkpt><trkpt lat="43.7075213" lon="13.0789764"><ele>46.333333333333336</ele><time>2026-04-09T07:34:50.694Z</time></trkpt><trkpt lat="43.7076557" lon="13.0787672"><ele>46.666666666666664</ele><time>2026-04-09T07:34:51.695Z</time></trkpt><trkpt lat="43.7077927" lon="13.07856"><ele>47.0</ele><time>2026-04-09T07:34:52.695Z</time></trkpt><trkpt lat="43.7079397" lon="13.0783293"><ele>48.0</ele><time>2026-04-09T07:34:53.695Z</time></trkpt><trkpt lat="43.7080814" lon="13.0781074"><ele>49.0</ele><time>2026-04-09T07:34:54.695Z</time></trkpt><trkpt lat="43.7082249" lon="13.0778941"><ele>50.0</ele><time>2026-04-09T07:34:55.694Z</time></trkpt><trkpt lat="43.7083663" lon="13.0776807"><ele>50.0</ele><time>2026-04-09T07:34:56.694Z</time></trkpt><trkpt lat="43.7085072" lon="13.07746"><ele>50.0</ele><time>2026-04-09T07:34:57.694Z</time></trkpt><trkpt lat="43.7086474" lon="13.077242"><ele>50.0</ele><time>2026-04-09T07:34:58.695Z</time></trkpt><trkpt lat="43.7087823" lon="13.077038"><ele>51.0</ele><time>2026-04-09T07:34:59.695Z</time></trkpt><trkpt lat="43.7089067" lon="13.0768481"><ele>52.0</ele><time>2026-04-09T07:35:00.694Z</time></trkpt><trkpt lat="43.7090311" lon="13.0766606"><ele>53.0</ele><time>2026-04-09T07:35:01.695Z</time></trkpt><trkpt lat="43.7091469" lon="13.0764722"><ele>53.0</ele><time>2026-04-09T07:35:02.694Z</time></trkpt><trkpt lat="43.70926" lon="13.076287"><ele>53.0</ele><time>2026-04-09T07:35:03.695Z</time></trkpt><trkpt lat="43.7093787" lon="13.0761162"><ele>53.0</ele><time>2026-04-09T07:35:04.694Z</time></trkpt><trkpt lat="43.7094919" lon="13.0759428"><ele>53.333333333333336</ele><time>2026-04-09T07:35:05.695Z</time></trkpt><trkpt lat="43.7096037" lon="13.0757754"><ele>53.66666666666667</ele><time>2026-04-09T07:35:06.695Z</time></trkpt><trkpt lat="43.7097033" lon="13.0756101"><ele>54.0</ele><time>2026-04-09T07:35:07.695Z</time></trkpt><trkpt lat="43.7097965" lon="13.0754601"><ele>54.0</ele><time>2026-04-09T07:35:08.695Z</time></trkpt><trkpt lat="43.7098828" lon="13.0753289"><ele>54.0</ele><time>2026-04-09T07:35:09.695Z</time></trkpt><trkpt lat="43.7099588" lon="13.0752257"><ele>54.0</ele><time>2026-04-09T07:35:10.695Z</time></trkpt><trkpt lat="43.710018" lon="13.0751648"><ele>54.0</ele><time>2026-04-09T07:35:11.695Z</time></trkpt><trkpt lat="43.7100692" lon="13.0751106"><ele>54.0</ele><time>2026-04-09T07:35:12.694Z</time></trkpt><trkpt lat="43.7101336" lon="13.0750861"><ele>54.0</ele><time>2026-04-09T07:35:13.694Z</time></trkpt><trkpt lat="43.7102104" lon="13.0750712"><ele>54.0</ele><time>2026-04-09T07:35:14.695Z</time></trkpt><trkpt lat="43.7103002" lon="13.0750722"><ele>54.00000000000001</ele><time>2026-04-09T07:35:15.695Z</time></trkpt><trkpt lat="43.7103937" lon="13.075102"><ele>54.00000000000001</ele><time>2026-04-09T07:35:16.694Z</time></trkpt><trkpt lat="43.7104857" lon="13.0751661"><ele>54.0</ele><time>2026-04-09T07:35:17.695Z</time></trkpt><trkpt lat="43.7105757" lon="13.0752562"><ele>54.0</ele><time>2026-04-09T07:35:18.694Z</time></trkpt><trkpt lat="43.7106673" lon="13.0753629"><ele>54.0</ele><time>2026-04-09T07:35:19.694Z</time></trkpt><trkpt lat="43.7107584" lon="13.0754715"><ele>54.0</ele><time>2026-04-09T07:35:20.694Z</time></trkpt><trkpt lat="43.7108536" lon="13.0755827"><ele>54.0</ele><time>2026-04-09T07:35:21.695Z</time></trkpt><trkpt lat="43.71095" lon="13.075698"><ele>54.0</ele><time>2026-04-09T07:35:22.694Z</time></trkpt><trkpt lat="43.7110495" lon="13.0758087"><ele>54.5</ele><time>2026-04-09T07:35:23.695Z</time></trkpt><trkpt lat="43.7111469" lon="13.0759292"><ele>55.0</ele><time>2026-04-09T07:35:24.694Z</time></trkpt><trkpt lat="43.7112443" lon="13.0760466"><ele>55.5</ele><time>2026-04-09T07:35:25.695Z</time></trkpt><trkpt lat="43.7113431" lon="13.0761659"><ele>56.0</ele><time>2026-04-09T07:35:26.694Z</time></trkpt><trkpt lat="43.7114514" lon="13.0762832"><ele>56.0</ele><time>2026-04-09T07:35:27.694Z</time></trkpt><trkpt lat="43.7115597" lon="13.0764079"><ele>56.0</ele><time>2026-04-09T07:35:28.694Z</time></trkpt><trkpt lat="43.7116663" lon="13.0765429"><ele>56.0</ele><time>2026-04-09T07:35:29.695Z</time></trkpt><trkpt lat="43.711772" lon="13.0766815"><ele>56.0</ele><time>2026-04-09T07:35:30.694Z</time></trkpt><trkpt lat="43.7118775" lon="13.0768223"><ele>56.5</ele><time>2026-04-09T07:35:31.694Z</time></trkpt><trkpt lat="43.7119821" lon="13.0769602"><ele>57.0</ele><time>2026-04-09T07:35:32.694Z</time></trkpt><trkpt lat="43.7120877" lon="13.0770918"><ele>57.5</ele><time>2026-04-09T07:35:33.694Z</time></trkpt><trkpt lat="43.7121934" lon="13.0772199"><ele>58.0</ele><time>2026-04-09T07:35:34.694Z</time></trkpt><trkpt lat="43.7123006" lon="13.0773485"><ele>57.5</ele><time>2026-04-09T07:35:35.695Z</time></trkpt><trkpt lat="43.7124088" lon="13.07748"><ele>57.0</ele><time>2026-04-09T07:35:36.695Z</time></trkpt><trkpt lat="43.71252" lon="13.0776164"><ele>56.5</ele><time>2026-04-09T07:35:37.694Z</time></trkpt><trkpt lat="43.7126303" lon="13.0777508"><ele>56.0</ele><time>2026-04-09T07:35:38.694Z</time></trkpt><trkpt lat="43.7127484" lon="13.0778821"><ele>55.66666666666667</ele><time>2026-04-09T07:35:39.695Z</time></trkpt><trkpt lat="43.7128704" lon="13.0780185"><ele>55.33333333333333</ele><time>2026-04-09T07:35:40.695Z</time></trkpt><trkpt lat="43.7129959" lon="13.0781639"><ele>55.0</ele><time>2026-04-09T07:35:41.695Z</time></trkpt><trkpt lat="43.7131282" lon="13.0783187"><ele>54.666666666666664</ele><time>2026-04-09T07:35:42.695Z</time></trkpt><trkpt lat="43.7132594" lon="13.0784734"><ele>54.33333333333333</ele><time>2026-04-09T07:35:43.694Z</time></trkpt><trkpt lat="43.7133839" lon="13.0786226"><ele>54.0</ele><time>2026-04-09T07:35:44.694Z</time></trkpt><trkpt lat="43.7135057" lon="13.0787713"><ele>53.66666666666667</ele><time>2026-04-09T07:35:45.694Z</time></trkpt><trkpt lat="43.7136304" lon="13.0789195"><ele>53.333333333333336</ele><time>2026-04-09T07:35:46.694Z</time></trkpt><trkpt lat="43.713755" lon="13.0790641"><ele>53.0</ele><time>2026-04-09T07:35:47.694Z</time></trkpt><trkpt lat="43.7138755" lon="13.0792096"><ele>52.66666666666667</ele><time>2026-04-09T07:35:48.695Z</time></trkpt><trkpt lat="43.7140005" lon="13.079356"><ele>52.33333333333333</ele><time>2026-04-09T07:35:49.695Z</time></trkpt><trkpt lat="43.7141277" lon="13.079505"><ele>52.0</ele><time>2026-04-09T07:35:50.694Z</time></trkpt><trkpt lat="43.7142483" lon="13.0796484"><ele>52.0</ele><time>2026-04-09T07:35:51.694Z</time></trkpt><trkpt lat="43.7143643" lon="13.0797874"><ele>52.0</ele><time>2026-04-09T07:35:52.695Z</time></trkpt><trkpt lat="43.7144809" lon="13.0799296"><ele>52.0</ele><time>2026-04-09T07:35:53.694Z</time></trkpt><trkpt lat="43.7146015" lon="13.0800765"><ele>52.33333333333333</ele><time>2026-04-09T07:35:54.694Z</time></trkpt><trkpt lat="43.71472" lon="13.0802239"><ele>52.66666666666667</ele><time>2026-04-09T07:35:55.694Z</time></trkpt><trkpt lat="43.7148373" lon="13.0803627"><ele>53.0</ele><time>2026-04-09T07:35:56.695Z</time></trkpt><trkpt lat="43.714959" lon="13.0805059"><ele>53.0</ele><time>2026-04-09T07:35:57.695Z</time></trkpt><trkpt lat="43.7150825" lon="13.0806502"><ele>53.0</ele><time>2026-04-09T07:35:58.694Z</time></trkpt><trkpt lat="43.715198" lon="13.0807948"><ele>53.0</ele><time>2026-04-09T07:35:59.694Z</time></trkpt><trkpt lat="43.7153172" lon="13.0809335"><ele>53.25</ele><time>2026-04-09T07:36:00.694Z</time></trkpt><trkpt lat="43.7154351" lon="13.0810722"><ele>53.5</ele><time>2026-04-09T07:36:01.694Z</time></trkpt><trkpt lat="43.7155415" lon="13.0812086"><ele>53.75</ele><time>2026-04-09T07:36:02.695Z</time></trkpt><trkpt lat="43.7156508" lon="13.0813381"><ele>54.0</ele><time>2026-04-09T07:36:03.695Z</time></trkpt><trkpt lat="43.7157748" lon="13.0814778"><ele>53.5</ele><time>2026-04-09T07:36:04.694Z</time></trkpt><trkpt lat="43.715879" lon="13.0816062"><ele>53.0</ele><time>2026-04-09T07:36:05.694Z</time></trkpt><trkpt lat="43.7159703" lon="13.0817108"><ele>52.5</ele><time>2026-04-09T07:36:06.695Z</time></trkpt><trkpt lat="43.7160369" lon="13.0817936"><ele>52.0</ele><time>2026-04-09T07:36:07.695Z</time></trkpt><trkpt lat="43.7161177" lon="13.0818943"><ele>52.0</ele><time>2026-04-09T07:36:09.694Z</time></trkpt><trkpt lat="43.7162162" lon="13.0818776"><ele>52.0</ele><time>2026-04-09T07:36:15.695Z</time></trkpt><trkpt lat="43.7162757" lon="13.0817365"><ele>52.0</ele><time>2026-04-09T07:36:17.694Z</time></trkpt><trkpt lat="43.7162903" lon="13.0816345"><ele>52.0</ele><time>2026-04-09T07:36:19.694Z</time></trkpt><trkpt lat="43.7163411" lon="13.0815712"><ele>52.0</ele><time>2026-04-09T07:37:44.695Z</time></trkpt><trkpt lat="43.7164468" lon="13.0815012"><ele>52.6</ele><time>2026-04-09T07:37:46.694Z</time></trkpt><trkpt lat="43.7165067" lon="13.0814155"><ele>53.2</ele><time>2026-04-09T07:37:47.694Z</time></trkpt><trkpt lat="43.7165727" lon="13.0813157"><ele>53.8</ele><time>2026-04-09T07:37:48.695Z</time></trkpt><trkpt lat="43.716645" lon="13.0812116"><ele>54.4</ele><time>2026-04-09T07:37:49.695Z</time></trkpt><trkpt lat="43.7167254" lon="13.0811032"><ele>55.0</ele><time>2026-04-09T07:37:50.694Z</time></trkpt><trkpt lat="43.7168112" lon="13.0809709"><ele>55.0</ele><time>2026-04-09T07:37:51.695Z</time></trkpt><trkpt lat="43.7168981" lon="13.0808413"><ele>55.0</ele><time>2026-04-09T07:37:52.695Z</time></trkpt><trkpt lat="43.7169889" lon="13.080707"><ele>55.0</ele><time>2026-04-09T07:37:53.694Z</time></trkpt><trkpt lat="43.7170858" lon="13.0805691"><ele>55.0</ele><time>2026-04-09T07:37:54.694Z</time></trkpt><trkpt lat="43.7171839" lon="13.0804195"><ele>56.666666666666664</ele><time>2026-04-09T07:37:55.695Z</time></trkpt><trkpt lat="43.7172888" lon="13.080257"><ele>58.33333333333333</ele><time>2026-04-09T07:37:56.694Z</time></trkpt><trkpt lat="43.7173952" lon="13.0800959"><ele>60.0</ele><time>2026-04-09T07:37:57.694Z</time></trkpt><trkpt lat="43.7175083" lon="13.0799278"><ele>61.66666666666667</ele><time>2026-04-09T07:37:58.694Z</time></trkpt><trkpt lat="43.7176327" lon="13.0797582"><ele>63.333333333333336</ele><time>2026-04-09T07:37:59.695Z</time></trkpt><trkpt lat="43.7177486" lon="13.0795868"><ele>65.0</ele><time>2026-04-09T07:38:00.694Z</time></trkpt><trkpt lat="43.7178531" lon="13.0794256"><ele>67.33333333333334</ele><time>2026-04-09T07:38:01.695Z</time></trkpt><trkpt lat="43.7179533" lon="13.079258"><ele>69.66666666666667</ele><time>2026-04-09T07:38:02.694Z</time></trkpt><trkpt lat="43.7180611" lon="13.079087"><ele>72.0</ele><time>2026-04-09T07:38:03.695Z</time></trkpt><trkpt lat="43.7181576" lon="13.0789227"><ele>73.25</ele><time>2026-04-09T07:38:04.694Z</time></trkpt><trkpt lat="43.7182583" lon="13.0787671"><ele>74.5</ele><time>2026-04-09T07:38:05.694Z</time></trkpt><trkpt lat="43.7183462" lon="13.0786163"><ele>75.75</ele><time>2026-04-09T07:38:06.694Z</time></trkpt><trkpt lat="43.7184503" lon="13.078477"><ele>77.0</ele><time>2026-04-09T07:38:07.695Z</time></trkpt><trkpt lat="43.7185437" lon="13.0783281"><ele>77.0</ele><time>2026-04-09T07:38:08.694Z</time></trkpt><trkpt lat="43.7186477" lon="13.0781869"><ele>77.0</ele><time>2026-04-09T07:38:09.695Z</time></trkpt><trkpt lat="43.7187525" lon="13.0780353"><ele>77.0</ele><time>2026-04-09T07:38:10.694Z</time></trkpt><trkpt lat="43.718861" lon="13.0778784"><ele>77.0</ele><time>2026-04-09T07:38:11.695Z</time></trkpt><trkpt lat="43.7189693" lon="13.0777226"><ele>77.0</ele><time>2026-04-09T07:38:12.694Z</time></trkpt><trkpt lat="43.7190846" lon="13.0775645"><ele>77.0</ele><time>2026-04-09T07:38:13.695Z</time></trkpt><trkpt lat="43.7191857" lon="13.0774053"><ele>77.66666666666667</ele><time>2026-04-09T07:38:14.694Z</time></trkpt><trkpt lat="43.7193045" lon="13.0772542"><ele>78.33333333333333</ele><time>2026-04-09T07:38:15.694Z</time></trkpt><trkpt lat="43.7194311" lon="13.0770996"><ele>79.0</ele><time>2026-04-09T07:38:16.694Z</time></trkpt><trkpt lat="43.7195601" lon="13.076949"><ele>79.66666666666666</ele><time>2026-04-09T07:38:17.695Z</time></trkpt><trkpt lat="43.7196875" lon="13.0767935"><ele>80.33333333333333</ele><time>2026-04-09T07:38:18.695Z</time></trkpt><trkpt lat="43.7198162" lon="13.0766417"><ele>81.0</ele><time>2026-04-09T07:38:19.694Z</time></trkpt><trkpt lat="43.7199413" lon="13.0764952"><ele>81.33333333333333</ele><time>2026-04-09T07:38:20.694Z</time></trkpt><trkpt lat="43.720064" lon="13.0763555"><ele>81.66666666666666</ele><time>2026-04-09T07:38:21.695Z</time></trkpt><trkpt lat="43.7201924" lon="13.07624"><ele>82.0</ele><time>2026-04-09T07:38:22.694Z</time></trkpt><trkpt lat="43.7203344" lon="13.0761519"><ele>82.0</ele><time>2026-04-09T07:38:23.694Z</time></trkpt><trkpt lat="43.7204776" lon="13.0760644"><ele>82.0</ele><time>2026-04-09T07:38:24.694Z</time></trkpt><trkpt lat="43.7206394" lon="13.0759819"><ele>82.0</ele><time>2026-04-09T07:38:25.695Z</time></trkpt><trkpt lat="43.7208005" lon="13.0759008"><ele>82.0</ele><time>2026-04-09T07:38:26.695Z</time></trkpt><trkpt lat="43.720962" lon="13.0758061"><ele>82.0</ele><time>2026-04-09T07:38:27.695Z</time></trkpt><trkpt lat="43.7211156" lon="13.0757116"><ele>82.0</ele><time>2026-04-09T07:38:28.694Z</time></trkpt><trkpt lat="43.7212525" lon="13.075623"><ele>82.75</ele><time>2026-04-09T07:38:29.694Z</time></trkpt><trkpt lat="43.7213784" lon="13.0755461"><ele>83.5</ele><time>2026-04-09T07:38:30.695Z</time></trkpt><trkpt lat="43.7214952" lon="13.0754713"><ele>84.25</ele><time>2026-04-09T07:38:31.694Z</time></trkpt><trkpt lat="43.7215998" lon="13.0754097"><ele>85.0</ele><time>2026-04-09T07:38:32.694Z</time></trkpt><trkpt lat="43.7216884" lon="13.0753403"><ele>85.0</ele><time>2026-04-09T07:38:33.694Z</time></trkpt><trkpt lat="43.721764" lon="13.0752402"><ele>85.0</ele><time>2026-04-09T07:38:34.695Z</time></trkpt><trkpt lat="43.7218199" lon="13.0751007"><ele>85.0</ele><time>2026-04-09T07:38:35.694Z</time></trkpt><trkpt lat="43.7218427" lon="13.074925"><ele>85.0</ele><time>2026-04-09T07:38:36.695Z</time></trkpt><trkpt lat="43.7218447" lon="13.0747205"><ele>86.33333333333333</ele><time>2026-04-09T07:38:37.695Z</time></trkpt><trkpt lat="43.7218278" lon="13.07449"><ele>87.66666666666667</ele><time>2026-04-09T07:38:38.695Z</time></trkpt><trkpt lat="43.7217992" lon="13.0742664"><ele>89.0</ele><time>2026-04-09T07:38:39.694Z</time></trkpt><trkpt lat="43.721768" lon="13.0740567"><ele>90.5</ele><time>2026-04-09T07:38:40.694Z</time></trkpt><trkpt lat="43.7217406" lon="13.0738447"><ele>92.0</ele><time>2026-04-09T07:38:41.694Z</time></trkpt><trkpt lat="43.7217102" lon="13.0736436"><ele>93.5</ele><time>2026-04-09T07:38:42.694Z</time></trkpt><trkpt lat="43.7216549" lon="13.0734603"><ele>95.0</ele><time>2026-04-09T07:38:43.694Z</time></trkpt><trkpt lat="43.7215612" lon="13.0733003"><ele>96.66666666666667</ele><time>2026-04-09T07:38:44.695Z</time></trkpt><trkpt lat="43.721437" lon="13.0731543"><ele>98.33333333333334</ele><time>2026-04-09T07:38:45.694Z</time></trkpt><trkpt lat="43.7213062" lon="13.0730046"><ele>100.0</ele><time>2026-04-09T07:38:46.695Z</time></trkpt><trkpt lat="43.7211816" lon="13.0728479"><ele>100.0</ele><time>2026-04-09T07:38:47.694Z</time></trkpt><trkpt lat="43.7210589" lon="13.0726813"><ele>100.0</ele><time>2026-04-09T07:38:48.695Z</time></trkpt><trkpt lat="43.7209363" lon="13.0725053"><ele>100.0</ele><time>2026-04-09T07:38:49.694Z</time></trkpt><trkpt lat="43.720826" lon="13.0723274"><ele>100.0</ele><time>2026-04-09T07:38:50.695Z</time></trkpt><trkpt lat="43.7207177" lon="13.0721492"><ele>100.0</ele><time>2026-04-09T07:38:51.694Z</time></trkpt><trkpt lat="43.72061" lon="13.0719815"><ele>100.0</ele><time>2026-04-09T07:38:52.695Z</time></trkpt><trkpt lat="43.7205169" lon="13.0718301"><ele>100.0</ele><time>2026-04-09T07:38:53.695Z</time></trkpt><trkpt lat="43.7204347" lon="13.0716886"><ele>100.0</ele><time>2026-04-09T07:38:54.695Z</time></trkpt><trkpt lat="43.7203731" lon="13.0715594"><ele>100.0</ele><time>2026-04-09T07:38:55.695Z</time></trkpt><trkpt lat="43.720332" lon="13.0714382"><ele>100.0</ele><time>2026-04-09T07:38:56.695Z</time></trkpt><trkpt lat="43.7203042" lon="13.0713072"><ele>100.0</ele><time>2026-04-09T07:38:57.694Z</time></trkpt><trkpt lat="43.7202981" lon="13.0711653"><ele>101.5</ele><time>2026-04-09T07:38:58.695Z</time></trkpt><trkpt lat="43.7203317" lon="13.0710194"><ele>103.0</ele><time>2026-04-09T07:38:59.694Z</time></trkpt><trkpt lat="43.7203995" lon="13.0708849"><ele>104.5</ele><time>2026-04-09T07:39:00.694Z</time></trkpt><trkpt lat="43.7204795" lon="13.070762"><ele>106.0</ele><time>2026-04-09T07:39:01.695Z</time></trkpt><trkpt lat="43.7205625" lon="13.0706336"><ele>109.0</ele><time>2026-04-09T07:39:02.695Z</time></trkpt><trkpt lat="43.7206409" lon="13.070494"><ele>112.0</ele><time>2026-04-09T07:39:03.695Z</time></trkpt><trkpt lat="43.7207159" lon="13.0703418"><ele>115.0</ele><time>2026-04-09T07:39:04.694Z</time></trkpt><trkpt lat="43.7207931" lon="13.0701907"><ele>118.0</ele><time>2026-04-09T07:39:05.695Z</time></trkpt><trkpt lat="43.7208661" lon="13.070045"><ele>119.0</ele><time>2026-04-09T07:39:06.694Z</time></trkpt><trkpt lat="43.7209374" lon="13.0698966"><ele>120.0</ele><time>2026-04-09T07:39:07.694Z</time></trkpt><trkpt lat="43.7210103" lon="13.0697631"><ele>121.0</ele><time>2026-04-09T07:39:08.694Z</time></trkpt><trkpt lat="43.7210941" lon="13.0696328"><ele>122.0</ele><time>2026-04-09T07:39:09.694Z</time></trkpt><trkpt lat="43.7211814" lon="13.0694979"><ele>124.75</ele><time>2026-04-09T07:39:10.694Z</time></trkpt><trkpt lat="43.7212667" lon="13.0693583"><ele>127.5</ele><time>2026-04-09T07:39:11.694Z</time></trkpt><trkpt lat="43.7213494" lon="13.0692191"><ele>130.25</ele><time>2026-04-09T07:39:12.694Z</time></trkpt><trkpt lat="43.7214389" lon="13.0690774"><ele>133.0</ele><time>2026-04-09T07:39:13.694Z</time></trkpt><trkpt lat="43.7215302" lon="13.0689361"><ele>134.0</ele><time>2026-04-09T07:39:14.695Z</time></trkpt><trkpt lat="43.7216256" lon="13.0688024"><ele>135.0</ele><time>2026-04-09T07:39:15.694Z</time></trkpt><trkpt lat="43.7217298" lon="13.0686876"><ele>136.0</ele><time>2026-04-09T07:39:16.695Z</time></trkpt><trkpt lat="43.7218384" lon="13.0685918"><ele>137.0</ele><time>2026-04-09T07:39:17.694Z</time></trkpt><trkpt lat="43.7219505" lon="13.0685083"><ele>139.5</ele><time>2026-04-09T07:39:18.695Z</time></trkpt><trkpt lat="43.7220645" lon="13.0684346"><ele>142.0</ele><time>2026-04-09T07:39:19.694Z</time></trkpt><trkpt lat="43.7221722" lon="13.068363"><ele>144.5</ele><time>2026-04-09T07:39:20.695Z</time></trkpt><trkpt lat="43.7222765" lon="13.0682967"><ele>147.0</ele><time>2026-04-09T07:39:21.694Z</time></trkpt><trkpt lat="43.7223614" lon="13.0682179"><ele>147.6</ele><time>2026-04-09T07:39:22.694Z</time></trkpt><trkpt lat="43.7224151" lon="13.0681035"><ele>148.2</ele><time>2026-04-09T07:39:23.695Z</time></trkpt><trkpt lat="43.7224489" lon="13.06797"><ele>148.8</ele><time>2026-04-09T07:39:24.694Z</time></trkpt><trkpt lat="43.7224925" lon="13.0678641"><ele>149.4</ele><time>2026-04-09T07:39:25.695Z</time></trkpt><trkpt lat="43.7225636" lon="13.0677952"><ele>150.0</ele><time>2026-04-09T07:39:26.695Z</time></trkpt><trkpt lat="43.7226625" lon="13.0677743"><ele>151.0</ele><time>2026-04-09T07:39:27.694Z</time></trkpt><trkpt lat="43.7227718" lon="13.0677685"><ele>152.0</ele><time>2026-04-09T07:39:28.695Z</time></trkpt><trkpt lat="43.7228823" lon="13.0677572"><ele>153.0</ele><time>2026-04-09T07:39:29.695Z</time></trkpt><trkpt lat="43.7229938" lon="13.0677361"><ele>154.0</ele><time>2026-04-09T07:39:30.695Z</time></trkpt><trkpt lat="43.7231085" lon="13.0677166"><ele>155.0</ele><time>2026-04-09T07:39:31.695Z</time></trkpt><trkpt lat="43.7232203" lon="13.0677004"><ele>155.0</ele><time>2026-04-09T07:39:32.694Z</time></trkpt><trkpt lat="43.7233293" lon="13.0676812"><ele>155.0</ele><time>2026-04-09T07:39:33.695Z</time></trkpt><trkpt lat="43.7234409" lon="13.0676614"><ele>155.0</ele><time>2026-04-09T07:39:34.694Z</time></trkpt><trkpt lat="43.7235516" lon="13.0676433"><ele>155.0</ele><time>2026-04-09T07:39:35.695Z</time></trkpt><trkpt lat="43.7236589" lon="13.0676174"><ele>155.0</ele><time>2026-04-09T07:39:36.694Z</time></trkpt><trkpt lat="43.7237534" lon="13.0675947"><ele>154.66666666666666</ele><time>2026-04-09T07:39:37.695Z</time></trkpt><trkpt lat="43.7238363" lon="13.0675773"><ele>154.33333333333331</ele><time>2026-04-09T07:39:38.694Z</time></trkpt><trkpt lat="43.7239131" lon="13.0675607"><ele>154.0</ele><time>2026-04-09T07:39:39.694Z</time></trkpt><trkpt lat="43.7239797" lon="13.0675164"><ele>153.66666666666666</ele><time>2026-04-09T07:39:40.694Z</time></trkpt><trkpt lat="43.7240237" lon="13.0674347"><ele>153.33333333333334</ele><time>2026-04-09T07:39:41.695Z</time></trkpt><trkpt lat="43.7240422" lon="13.0673308"><ele>153.0</ele><time>2026-04-09T07:39:42.694Z</time></trkpt><trkpt lat="43.7240367" lon="13.0672151"><ele>153.0</ele><time>2026-04-09T07:39:43.695Z</time></trkpt><trkpt lat="43.7240283" lon="13.0670958"><ele>153.0</ele><time>2026-04-09T07:39:44.694Z</time></trkpt><trkpt lat="43.7240259" lon="13.0669763"><ele>153.0</ele><time>2026-04-09T07:39:45.694Z</time></trkpt><trkpt lat="43.7240234" lon="13.0668531"><ele>153.0</ele><time>2026-04-09T07:39:46.695Z</time></trkpt><trkpt lat="43.7240171" lon="13.0667216"><ele>153.0</ele><time>2026-04-09T07:39:47.694Z</time></trkpt><trkpt lat="43.7240105" lon="13.0665675"><ele>153.0</ele><time>2026-04-09T07:39:48.695Z</time></trkpt><trkpt lat="43.7240015" lon="13.0664039"><ele>153.0</ele><time>2026-04-09T07:39:49.694Z</time></trkpt><trkpt lat="43.7239867" lon="13.0662333"><ele>153.0</ele><time>2026-04-09T07:39:50.695Z</time></trkpt><trkpt lat="43.7239769" lon="13.0660628"><ele>153.0</ele><time>2026-04-09T07:39:51.694Z</time></trkpt><trkpt lat="43.723965" lon="13.065894"><ele>153.0</ele><time>2026-04-09T07:39:52.694Z</time></trkpt><trkpt lat="43.723947" lon="13.065728"><ele>153.0</ele><time>2026-04-09T07:39:53.694Z</time></trkpt><trkpt lat="43.7239225" lon="13.0655608"><ele>153.0</ele><time>2026-04-09T07:39:54.694Z</time></trkpt><trkpt lat="43.7239072" lon="13.065386"><ele>153.0</ele><time>2026-04-09T07:39:55.694Z</time></trkpt><trkpt lat="43.7238944" lon="13.0652051"><ele>153.0</ele><time>2026-04-09T07:39:56.694Z</time></trkpt><trkpt lat="43.7238747" lon="13.0650236"><ele>153.0</ele><time>2026-04-09T07:39:57.694Z</time></trkpt><trkpt lat="43.7238522" lon="13.0648517"><ele>153.0</ele><time>2026-04-09T07:39:58.694Z</time></trkpt><trkpt lat="43.7238277" lon="13.0646927"><ele>153.0</ele><time>2026-04-09T07:39:59.695Z</time></trkpt><trkpt lat="43.7237971" lon="13.0645294"><ele>152.5</ele><time>2026-04-09T07:40:00.695Z</time></trkpt><trkpt lat="43.7237703" lon="13.0643642"><ele>152.0</ele><time>2026-04-09T07:40:01.694Z</time></trkpt><trkpt lat="43.7237452" lon="13.064201"><ele>151.5</ele><time>2026-04-09T07:40:02.694Z</time></trkpt><trkpt lat="43.7237209" lon="13.0640469"><ele>151.0</ele><time>2026-04-09T07:40:03.694Z</time></trkpt><trkpt lat="43.7236984" lon="13.0638963"><ele>150.25</ele><time>2026-04-09T07:40:04.694Z</time></trkpt><trkpt lat="43.723683" lon="13.0637394"><ele>149.5</ele><time>2026-04-09T07:40:05.695Z</time></trkpt><trkpt lat="43.7236672" lon="13.0635865"><ele>148.75</ele><time>2026-04-09T07:40:06.695Z</time></trkpt><trkpt lat="43.7236503" lon="13.0634318"><ele>148.0</ele><time>2026-04-09T07:40:07.695Z</time></trkpt><trkpt lat="43.7236444" lon="13.0632776"><ele>147.4</ele><time>2026-04-09T07:40:08.695Z</time></trkpt><trkpt lat="43.7236449" lon="13.0631216"><ele>146.8</ele><time>2026-04-09T07:40:09.694Z</time></trkpt><trkpt lat="43.7236521" lon="13.0629718"><ele>146.2</ele><time>2026-04-09T07:40:10.694Z</time></trkpt><trkpt lat="43.7236537" lon="13.0628191"><ele>145.6</ele><time>2026-04-09T07:40:11.694Z</time></trkpt><trkpt lat="43.7236513" lon="13.0626574"><ele>145.0</ele><time>2026-04-09T07:40:12.695Z</time></trkpt><trkpt lat="43.7236433" lon="13.0625039"><ele>144.83333333333334</ele><time>2026-04-09T07:40:13.694Z</time></trkpt><trkpt lat="43.7236304" lon="13.0623715"><ele>144.66666666666669</ele><time>2026-04-09T07:40:14.694Z</time></trkpt><trkpt lat="43.7236187" lon="13.0622546"><ele>144.5</ele><time>2026-04-09T07:40:15.694Z</time></trkpt><trkpt lat="43.7236089" lon="13.0621469"><ele>144.33333333333334</ele><time>2026-04-09T07:40:16.694Z</time></trkpt><trkpt lat="43.7235982" lon="13.0620446"><ele>144.16666666666666</ele><time>2026-04-09T07:40:17.694Z</time></trkpt><trkpt lat="43.7235852" lon="13.0619388"><ele>144.0</ele><time>2026-04-09T07:40:18.695Z</time></trkpt><trkpt lat="43.7235685" lon="13.0618101"><ele>146.5</ele><time>2026-04-09T07:40:19.695Z</time></trkpt><trkpt lat="43.7235486" lon="13.0616539"><ele>149.0</ele><time>2026-04-09T07:40:20.694Z</time></trkpt><trkpt lat="43.7235262" lon="13.0614914"><ele>151.5</ele><time>2026-04-09T07:40:21.694Z</time></trkpt><trkpt lat="43.7235015" lon="13.061322"><ele>154.0</ele><time>2026-04-09T07:40:22.695Z</time></trkpt><trkpt lat="43.7234659" lon="13.0611451"><ele>154.25</ele><time>2026-04-09T07:40:23.694Z</time></trkpt><trkpt lat="43.7234138" lon="13.0609623"><ele>154.5</ele><time>2026-04-09T07:40:24.694Z</time></trkpt><trkpt lat="43.7233454" lon="13.0607783"><ele>154.75</ele><time>2026-04-09T07:40:25.695Z</time></trkpt><trkpt lat="43.7232756" lon="13.0605935"><ele>155.0</ele><time>2026-04-09T07:40:26.694Z</time></trkpt><trkpt lat="43.7232098" lon="13.0604083"><ele>155.0</ele><time>2026-04-09T07:40:27.695Z</time></trkpt><trkpt lat="43.7231458" lon="13.0602224"><ele>155.0</ele><time>2026-04-09T07:40:28.694Z</time></trkpt><trkpt lat="43.7230802" lon="13.0600452"><ele>155.0</ele><time>2026-04-09T07:40:29.695Z</time></trkpt><trkpt lat="43.723012" lon="13.0598803"><ele>155.0</ele><time>2026-04-09T07:40:30.694Z</time></trkpt><trkpt lat="43.7229343" lon="13.0597267"><ele>153.75</ele><time>2026-04-09T07:40:31.695Z</time></trkpt><trkpt lat="43.7228491" lon="13.0595853"><ele>152.5</ele><time>2026-04-09T07:40:32.695Z</time></trkpt><trkpt lat="43.7227617" lon="13.0594459"><ele>151.25</ele><time>2026-04-09T07:40:33.694Z</time></trkpt><trkpt lat="43.7226789" lon="13.0593012"><ele>150.0</ele><time>2026-04-09T07:40:34.695Z</time></trkpt><trkpt lat="43.7225922" lon="13.0591591"><ele>153.25</ele><time>2026-04-09T07:40:35.695Z</time></trkpt><trkpt lat="43.7225084" lon="13.0590206"><ele>156.5</ele><time>2026-04-09T07:40:36.694Z</time></trkpt><trkpt lat="43.7224391" lon="13.0588841"><ele>159.75</ele><time>2026-04-09T07:40:37.695Z</time></trkpt><trkpt lat="43.7223917" lon="13.0587335"><ele>163.0</ele><time>2026-04-09T07:40:38.694Z</time></trkpt><trkpt lat="43.7223555" lon="13.0585575"><ele>163.0</ele><time>2026-04-09T07:40:39.694Z</time></trkpt><trkpt lat="43.7223226" lon="13.0583779"><ele>163.0</ele><time>2026-04-09T07:40:40.694Z</time></trkpt><trkpt lat="43.722289" lon="13.0581802"><ele>163.0</ele><time>2026-04-09T07:40:41.695Z</time></trkpt><trkpt lat="43.722261" lon="13.0579767"><ele>163.0</ele><time>2026-04-09T07:40:42.694Z</time></trkpt><trkpt lat="43.7222315" lon="13.0577855"><ele>162.66666666666669</ele><time>2026-04-09T07:40:43.694Z</time></trkpt><trkpt lat="43.722196" lon="13.0575904"><ele>162.33333333333334</ele><time>2026-04-09T07:40:44.694Z</time></trkpt><trkpt lat="43.7221576" lon="13.0573866"><ele>162.0</ele><time>2026-04-09T07:40:45.694Z</time></trkpt><trkpt lat="43.7221163" lon="13.0571744"><ele>162.0</ele><time>2026-04-09T07:40:46.695Z</time></trkpt><trkpt lat="43.722077" lon="13.0569598"><ele>162.0</ele><time>2026-04-09T07:40:47.694Z</time></trkpt><trkpt lat="43.7220388" lon="13.0567487"><ele>162.0</ele><time>2026-04-09T07:40:48.694Z</time></trkpt><trkpt lat="43.7220059" lon="13.0565331"><ele>162.0</ele><time>2026-04-09T07:40:49.695Z</time></trkpt><trkpt lat="43.7219807" lon="13.0563188"><ele>162.0</ele><time>2026-04-09T07:40:50.695Z</time></trkpt><trkpt lat="43.7219641" lon="13.0561107"><ele>162.0</ele><time>2026-04-09T07:40:51.695Z</time></trkpt><trkpt lat="43.721947" lon="13.0559051"><ele>161.33333333333334</ele><time>2026-04-09T07:40:52.695Z</time></trkpt><trkpt lat="43.7219212" lon="13.0556991"><ele>160.66666666666669</ele><time>2026-04-09T07:40:53.695Z</time></trkpt><trkpt lat="43.7218857" lon="13.0554888"><ele>160.0</ele><time>2026-04-09T07:40:54.695Z</time></trkpt><trkpt lat="43.7218466" lon="13.0552893"><ele>163.25</ele><time>2026-04-09T07:40:55.694Z</time></trkpt><trkpt lat="43.7218038" lon="13.0550982"><ele>166.5</ele><time>2026-04-09T07:40:56.694Z</time></trkpt><trkpt lat="43.721769" lon="13.0549122"><ele>169.75</ele><time>2026-04-09T07:40:57.694Z</time></trkpt><trkpt lat="43.7217513" lon="13.0547234"><ele>173.0</ele><time>2026-04-09T07:40:58.695Z</time></trkpt><trkpt lat="43.7217495" lon="13.0545319"><ele>173.0</ele><time>2026-04-09T07:40:59.694Z</time></trkpt><trkpt lat="43.7217591" lon="13.0543356"><ele>173.0</ele><time>2026-04-09T07:41:00.695Z</time></trkpt><trkpt lat="43.7217734" lon="13.0541341"><ele>173.0</ele><time>2026-04-09T07:41:01.695Z</time></trkpt><trkpt lat="43.7217828" lon="13.0539323"><ele>173.0</ele><time>2026-04-09T07:41:02.694Z</time></trkpt><trkpt lat="43.7217999" lon="13.053725"><ele>172.33333333333331</ele><time>2026-04-09T07:41:03.695Z</time></trkpt><trkpt lat="43.7218193" lon="13.0535171"><ele>171.66666666666666</ele><time>2026-04-09T07:41:04.695Z</time></trkpt><trkpt lat="43.7218379" lon="13.0533087"><ele>171.0</ele><time>2026-04-09T07:41:05.694Z</time></trkpt><trkpt lat="43.7218572" lon="13.053096"><ele>169.0</ele><time>2026-04-09T07:41:06.695Z</time></trkpt><trkpt lat="43.7218837" lon="13.0528901"><ele>167.0</ele><time>2026-04-09T07:41:07.694Z</time></trkpt><trkpt lat="43.7219194" lon="13.0526813"><ele>165.0</ele><time>2026-04-09T07:41:08.694Z</time></trkpt><trkpt lat="43.7219626" lon="13.0524741"><ele>164.66666666666666</ele><time>2026-04-09T07:41:09.694Z</time></trkpt><trkpt lat="43.7219966" lon="13.0522655"><ele>164.33333333333331</ele><time>2026-04-09T07:41:10.694Z</time></trkpt><trkpt lat="43.7220036" lon="13.0520563"><ele>164.0</ele><time>2026-04-09T07:41:11.694Z</time></trkpt><trkpt lat="43.7219868" lon="13.0518471"><ele>165.66666666666666</ele><time>2026-04-09T07:41:12.694Z</time></trkpt><trkpt lat="43.721961" lon="13.0516224"><ele>167.33333333333334</ele><time>2026-04-09T07:41:13.695Z</time></trkpt><trkpt lat="43.7219314" lon="13.0513891"><ele>169.0</ele><time>2026-04-09T07:41:14.694Z</time></trkpt><trkpt lat="43.7219007" lon="13.0511613"><ele>169.0</ele><time>2026-04-09T07:41:15.695Z</time></trkpt><trkpt lat="43.7218694" lon="13.0509339"><ele>169.0</ele><time>2026-04-09T07:41:16.694Z</time></trkpt><trkpt lat="43.7218382" lon="13.0507051"><ele>169.0</ele><time>2026-04-09T07:41:17.695Z</time></trkpt><trkpt lat="43.7218002" lon="13.0504726"><ele>170.66666666666669</ele><time>2026-04-09T07:41:18.695Z</time></trkpt><trkpt lat="43.72175" lon="13.0502333"><ele>172.33333333333334</ele><time>2026-04-09T07:41:19.695Z</time></trkpt><trkpt lat="43.7216855" lon="13.0499989"><ele>174.0</ele><time>2026-04-09T07:41:20.694Z</time></trkpt><trkpt lat="43.7216338" lon="13.0497866"><ele>173.75</ele><time>2026-04-09T07:41:21.694Z</time></trkpt><trkpt lat="43.7216008" lon="13.0495927"><ele>173.5</ele><time>2026-04-09T07:41:22.694Z</time></trkpt><trkpt lat="43.7215766" lon="13.0494002"><ele>173.25</ele><time>2026-04-09T07:41:23.694Z</time></trkpt><trkpt lat="43.7215518" lon="13.0492067"><ele>173.0</ele><time>2026-04-09T07:41:24.694Z</time></trkpt><trkpt lat="43.7215148" lon="13.0490148"><ele>173.0</ele><time>2026-04-09T07:41:25.694Z</time></trkpt><trkpt lat="43.721459" lon="13.04882"><ele>173.0</ele><time>2026-04-09T07:41:26.694Z</time></trkpt><trkpt lat="43.7213914" lon="13.0486232"><ele>173.0</ele><time>2026-04-09T07:41:27.695Z</time></trkpt><trkpt lat="43.7213121" lon="13.0484213"><ele>170.66666666666666</ele><time>2026-04-09T07:41:28.694Z</time></trkpt><trkpt lat="43.7212286" lon="13.0482182"><ele>168.33333333333334</ele><time>2026-04-09T07:41:29.695Z</time></trkpt><trkpt lat="43.7211515" lon="13.0480156"><ele>166.0</ele><time>2026-04-09T07:41:30.695Z</time></trkpt><trkpt lat="43.7210877" lon="13.0478039"><ele>167.33333333333334</ele><time>2026-04-09T07:41:31.694Z</time></trkpt><trkpt lat="43.7210459" lon="13.0475801"><ele>168.66666666666666</ele><time>2026-04-09T07:41:32.694Z</time></trkpt><trkpt lat="43.7210155" lon="13.0473516"><ele>170.0</ele><time>2026-04-09T07:41:33.695Z</time></trkpt><trkpt lat="43.720992" lon="13.0471236"><ele>170.0</ele><time>2026-04-09T07:41:34.695Z</time></trkpt><trkpt lat="43.7209686" lon="13.0468951"><ele>170.0</ele><time>2026-04-09T07:41:35.694Z</time></trkpt><trkpt lat="43.7209417" lon="13.0466653"><ele>170.0</ele><time>2026-04-09T07:41:36.694Z</time></trkpt><trkpt lat="43.7209113" lon="13.0464374"><ele>169.66666666666666</ele><time>2026-04-09T07:41:37.694Z</time></trkpt><trkpt lat="43.7208828" lon="13.0462109"><ele>169.33333333333334</ele><time>2026-04-09T07:41:38.694Z</time></trkpt><trkpt lat="43.7208495" lon="13.0459831"><ele>169.0</ele><time>2026-04-09T07:41:39.695Z</time></trkpt><trkpt lat="43.7208182" lon="13.0457553"><ele>170.0</ele><time>2026-04-09T07:41:40.695Z</time></trkpt><trkpt lat="43.7207944" lon="13.0455269"><ele>171.0</ele><time>2026-04-09T07:41:41.694Z</time></trkpt><trkpt lat="43.7207775" lon="13.0453016"><ele>172.0</ele><time>2026-04-09T07:41:42.694Z</time></trkpt><trkpt lat="43.7207788" lon="13.0450779"><ele>171.33333333333334</ele><time>2026-04-09T07:41:43.694Z</time></trkpt><trkpt lat="43.7207922" lon="13.0448547"><ele>170.66666666666666</ele><time>2026-04-09T07:41:44.695Z</time></trkpt><trkpt lat="43.720805" lon="13.0446198"><ele>170.0</ele><time>2026-04-09T07:41:45.694Z</time></trkpt><trkpt lat="43.7208084" lon="13.0443777"><ele>169.66666666666666</ele><time>2026-04-09T07:41:46.694Z</time></trkpt><trkpt lat="43.7207963" lon="13.0441238"><ele>169.33333333333334</ele><time>2026-04-09T07:41:47.694Z</time></trkpt><trkpt lat="43.7207839" lon="13.043854"><ele>169.0</ele><time>2026-04-09T07:41:48.694Z</time></trkpt><trkpt lat="43.7207711" lon="13.0435949"><ele>169.0</ele><time>2026-04-09T07:41:49.694Z</time></trkpt><trkpt lat="43.7207637" lon="13.043341"><ele>169.0</ele><time>2026-04-09T07:41:50.694Z</time></trkpt><trkpt lat="43.7207587" lon="13.0430909"><ele>169.0</ele><time>2026-04-09T07:41:51.695Z</time></trkpt><trkpt lat="43.7207628" lon="13.0428445"><ele>169.0</ele><time>2026-04-09T07:41:52.694Z</time></trkpt><trkpt lat="43.7207811" lon="13.0426049"><ele>169.0</ele><time>2026-04-09T07:41:53.694Z</time></trkpt><trkpt lat="43.7208061" lon="13.0423727"><ele>169.0</ele><time>2026-04-09T07:41:54.695Z</time></trkpt><trkpt lat="43.7208362" lon="13.0421456"><ele>169.33333333333334</ele><time>2026-04-09T07:41:55.694Z</time></trkpt><trkpt lat="43.7208547" lon="13.0419232"><ele>169.66666666666666</ele><time>2026-04-09T07:41:56.695Z</time></trkpt><trkpt lat="43.7208543" lon="13.0417159"><ele>170.0</ele><time>2026-04-09T07:41:57.695Z</time></trkpt><trkpt lat="43.7208254" lon="13.0415267"><ele>172.0</ele><time>2026-04-09T07:41:58.694Z</time></trkpt><trkpt lat="43.7207752" lon="13.0413281"><ele>174.0</ele><time>2026-04-09T07:41:59.694Z</time></trkpt><trkpt lat="43.7206951" lon="13.0411164"><ele>176.0</ele><time>2026-04-09T07:42:00.694Z</time></trkpt><trkpt lat="43.7206037" lon="13.0408865"><ele>178.0</ele><time>2026-04-09T07:42:01.695Z</time></trkpt><trkpt lat="43.7205185" lon="13.0406532"><ele>180.0</ele><time>2026-04-09T07:42:02.695Z</time></trkpt><trkpt lat="43.720447" lon="13.0404216"><ele>182.0</ele><time>2026-04-09T07:42:03.695Z</time></trkpt><trkpt lat="43.7203916" lon="13.0401892"><ele>184.0</ele><time>2026-04-09T07:42:04.694Z</time></trkpt><trkpt lat="43.7203541" lon="13.0399513"><ele>186.0</ele><time>2026-04-09T07:42:05.694Z</time></trkpt><trkpt lat="43.7203245" lon="13.0397157"><ele>188.0</ele><time>2026-04-09T07:42:06.694Z</time></trkpt><trkpt lat="43.7202946" lon="13.0394876"><ele>188.0</ele><time>2026-04-09T07:42:07.695Z</time></trkpt><trkpt lat="43.7202572" lon="13.0392675"><ele>188.0</ele><time>2026-04-09T07:42:08.694Z</time></trkpt><trkpt lat="43.7202181" lon="13.0390531"><ele>188.0</ele><time>2026-04-09T07:42:09.694Z</time></trkpt><trkpt lat="43.7201946" lon="13.0388415"><ele>190.66666666666666</ele><time>2026-04-09T07:42:10.694Z</time></trkpt><trkpt lat="43.7201941" lon="13.0386281"><ele>193.33333333333331</ele><time>2026-04-09T07:42:11.694Z</time></trkpt><trkpt lat="43.720202" lon="13.0384164"><ele>196.0</ele><time>2026-04-09T07:42:12.695Z</time></trkpt><trkpt lat="43.7202167" lon="13.0382133"><ele>195.75</ele><time>2026-04-09T07:42:13.695Z</time></trkpt><trkpt lat="43.7202444" lon="13.0380279"><ele>195.5</ele><time>2026-04-09T07:42:14.694Z</time></trkpt><trkpt lat="43.7202803" lon="13.0378448"><ele>195.25</ele><time>2026-04-09T07:42:15.694Z</time></trkpt><trkpt lat="43.7203053" lon="13.0376532"><ele>195.0</ele><time>2026-04-09T07:42:16.695Z</time></trkpt><trkpt lat="43.7203138" lon="13.0374491"><ele>195.0</ele><time>2026-04-09T07:42:17.694Z</time></trkpt><trkpt lat="43.7203111" lon="13.0372328"><ele>195.0</ele><time>2026-04-09T07:42:18.694Z</time></trkpt><trkpt lat="43.7203044" lon="13.0370249"><ele>195.0</ele><time>2026-04-09T07:42:19.694Z</time></trkpt><trkpt lat="43.7202837" lon="13.0368277"><ele>195.0</ele><time>2026-04-09T07:42:20.694Z</time></trkpt><trkpt lat="43.7202537" lon="13.0366391"><ele>195.0</ele><time>2026-04-09T07:42:21.695Z</time></trkpt><trkpt lat="43.720223" lon="13.0364662"><ele>195.0</ele><time>2026-04-09T07:42:22.694Z</time></trkpt><trkpt lat="43.7201911" lon="13.0363067"><ele>195.0</ele><time>2026-04-09T07:42:23.694Z</time></trkpt><trkpt lat="43.7201575" lon="13.0361498"><ele>195.2</ele><time>2026-04-09T07:42:24.695Z</time></trkpt><trkpt lat="43.7201273" lon="13.0359935"><ele>195.4</ele><time>2026-04-09T07:42:25.694Z</time></trkpt><trkpt lat="43.7200928" lon="13.0358597"><ele>195.60000000000002</ele><time>2026-04-09T07:42:26.695Z</time></trkpt><trkpt lat="43.7200634" lon="13.0357454"><ele>195.8</ele><time>2026-04-09T07:42:27.694Z</time></trkpt><trkpt lat="43.7200326" lon="13.0356262"><ele>196.0</ele><time>2026-04-09T07:42:28.694Z</time></trkpt><trkpt lat="43.7199986" lon="13.0355196"><ele>196.0</ele><time>2026-04-09T07:42:29.694Z</time></trkpt><trkpt lat="43.7199584" lon="13.0354172"><ele>196.0</ele><time>2026-04-09T07:42:30.694Z</time></trkpt><trkpt lat="43.7199125" lon="13.0353012"><ele>196.0</ele><time>2026-04-09T07:42:31.694Z</time></trkpt><trkpt lat="43.7198533" lon="13.0351887"><ele>196.0</ele><time>2026-04-09T07:42:32.694Z</time></trkpt><trkpt lat="43.7197873" lon="13.0350773"><ele>196.0</ele><time>2026-04-09T07:42:33.695Z</time></trkpt><trkpt lat="43.7197229" lon="13.0349761"><ele>195.20000000000002</ele><time>2026-04-09T07:42:34.694Z</time></trkpt><trkpt lat="43.7196616" lon="13.0348777"><ele>194.4</ele><time>2026-04-09T07:42:35.695Z</time></trkpt><trkpt lat="43.7195979" lon="13.0347833"><ele>193.6</ele><time>2026-04-09T07:42:36.694Z</time></trkpt><trkpt lat="43.7195321" lon="13.0346854"><ele>192.8</ele><time>2026-04-09T07:42:37.694Z</time></trkpt><trkpt lat="43.7194594" lon="13.0345703"><ele>192.0</ele><time>2026-04-09T07:42:38.694Z</time></trkpt><trkpt lat="43.7193853" lon="13.0344331"><ele>194.5</ele><time>2026-04-09T07:42:39.695Z</time></trkpt><trkpt lat="43.7193055" lon="13.0342835"><ele>197.0</ele><time>2026-04-09T07:42:40.694Z</time></trkpt><trkpt lat="43.7192197" lon="13.0341256"><ele>199.5</ele><time>2026-04-09T07:42:41.694Z</time></trkpt><trkpt lat="43.7191265" lon="13.0339691"><ele>202.0</ele><time>2026-04-09T07:42:42.694Z</time></trkpt><trkpt lat="43.7190278" lon="13.0338116"><ele>202.33333333333331</ele><time>2026-04-09T07:42:43.694Z</time></trkpt><trkpt lat="43.7189226" lon="13.0336632"><ele>202.66666666666669</ele><time>2026-04-09T07:42:44.694Z</time></trkpt><trkpt lat="43.7188126" lon="13.0335291"><ele>203.0</ele><time>2026-04-09T07:42:45.694Z</time></trkpt><trkpt lat="43.7186915" lon="13.0333955"><ele>203.66666666666669</ele><time>2026-04-09T07:42:46.694Z</time></trkpt><trkpt lat="43.7185605" lon="13.0332558"><ele>204.33333333333331</ele><time>2026-04-09T07:42:47.694Z</time></trkpt><trkpt lat="43.7184261" lon="13.033111"><ele>205.0</ele><time>2026-04-09T07:42:48.695Z</time></trkpt><trkpt lat="43.7182931" lon="13.0329697"><ele>205.0</ele><time>2026-04-09T07:42:49.694Z</time></trkpt><trkpt lat="43.7181513" lon="13.0328423"><ele>205.0</ele><time>2026-04-09T07:42:50.695Z</time></trkpt><trkpt lat="43.7180036" lon="13.032731"><ele>205.0</ele><time>2026-04-09T07:42:51.695Z</time></trkpt><trkpt lat="43.7178613" lon="13.0326383"><ele>205.5</ele><time>2026-04-09T07:42:52.695Z</time></trkpt><trkpt lat="43.7177253" lon="13.0325518"><ele>206.0</ele><time>2026-04-09T07:42:53.695Z</time></trkpt><trkpt lat="43.7175925" lon="13.0324671"><ele>206.5</ele><time>2026-04-09T07:42:54.695Z</time></trkpt><trkpt lat="43.7174518" lon="13.032398"><ele>207.0</ele><time>2026-04-09T07:42:55.695Z</time></trkpt><trkpt lat="43.7173072" lon="13.0323482"><ele>207.5</ele><time>2026-04-09T07:42:56.694Z</time></trkpt><trkpt lat="43.7171611" lon="13.0323235"><ele>208.0</ele><time>2026-04-09T07:42:57.695Z</time></trkpt><trkpt lat="43.7170153" lon="13.0323017"><ele>208.5</ele><time>2026-04-09T07:42:58.695Z</time></trkpt><trkpt lat="43.7168772" lon="13.0322814"><ele>209.0</ele><time>2026-04-09T07:42:59.695Z</time></trkpt><trkpt lat="43.7167439" lon="13.0322544"><ele>211.0</ele><time>2026-04-09T07:43:00.694Z</time></trkpt><trkpt lat="43.7166206" lon="13.0322033"><ele>213.0</ele><time>2026-04-09T07:43:01.694Z</time></trkpt><trkpt lat="43.7165118" lon="13.0321477"><ele>215.0</ele><time>2026-04-09T07:43:02.695Z</time></trkpt><trkpt lat="43.7164117" lon="13.0320998"><ele>217.0</ele><time>2026-04-09T07:43:03.694Z</time></trkpt><trkpt lat="43.7163138" lon="13.0320645"><ele>217.0</ele><time>2026-04-09T07:43:04.694Z</time></trkpt><trkpt lat="43.7162152" lon="13.0320308"><ele>217.0</ele><time>2026-04-09T07:43:05.694Z</time></trkpt><trkpt lat="43.716115" lon="13.0319887"><ele>217.0</ele><time>2026-04-09T07:43:06.695Z</time></trkpt><trkpt lat="43.7160141" lon="13.0319502"><ele>217.0</ele><time>2026-04-09T07:43:07.695Z</time></trkpt><trkpt lat="43.7159118" lon="13.0318934"><ele>217.0</ele><time>2026-04-09T07:43:08.695Z</time></trkpt><trkpt lat="43.7158106" lon="13.0318209"><ele>217.8</ele><time>2026-04-09T07:43:09.694Z</time></trkpt><trkpt lat="43.7157217" lon="13.0317294"><ele>218.6</ele><time>2026-04-09T07:43:10.695Z</time></trkpt><trkpt lat="43.7156388" lon="13.0316263"><ele>219.40000000000003</ele><time>2026-04-09T07:43:11.695Z</time></trkpt><trkpt lat="43.7155514" lon="13.0315357"><ele>220.20000000000002</ele><time>2026-04-09T07:43:12.695Z</time></trkpt><trkpt lat="43.7154714" lon="13.0314455"><ele>221.0</ele><time>2026-04-09T07:43:13.694Z</time></trkpt><trkpt lat="43.7153996" lon="13.0313627"><ele>221.4</ele><time>2026-04-09T07:43:14.694Z</time></trkpt><trkpt lat="43.7153278" lon="13.0312805"><ele>221.8</ele><time>2026-04-09T07:43:15.694Z</time></trkpt><trkpt lat="43.715254" lon="13.0311991"><ele>222.20000000000002</ele><time>2026-04-09T07:43:16.694Z</time></trkpt><trkpt lat="43.7151815" lon="13.0311169"><ele>222.60000000000002</ele><time>2026-04-09T07:43:17.694Z</time></trkpt><trkpt lat="43.7151029" lon="13.0310371"><ele>223.0</ele><time>2026-04-09T07:43:18.694Z</time></trkpt><trkpt lat="43.7150273" lon="13.0309528"><ele>223.60000000000002</ele><time>2026-04-09T07:43:19.694Z</time></trkpt><trkpt lat="43.714954" lon="13.0308552"><ele>224.20000000000002</ele><time>2026-04-09T07:43:20.695Z</time></trkpt><trkpt lat="43.7148861" lon="13.0307638"><ele>224.8</ele><time>2026-04-09T07:43:21.694Z</time></trkpt><trkpt lat="43.7148167" lon="13.030666"><ele>225.4</ele><time>2026-04-09T07:43:22.695Z</time></trkpt><trkpt lat="43.7147482" lon="13.0305634"><ele>226.0</ele><time>2026-04-09T07:43:23.695Z</time></trkpt><trkpt lat="43.7146761" lon="13.030457"><ele>226.0</ele><time>2026-04-09T07:43:24.695Z</time></trkpt><trkpt lat="43.7146024" lon="13.030348"><ele>226.00000000000003</ele><time>2026-04-09T07:43:25.695Z</time></trkpt><trkpt lat="43.7145306" lon="13.0302428"><ele>226.00000000000003</ele><time>2026-04-09T07:43:26.695Z</time></trkpt><trkpt lat="43.7144532" lon="13.0301341"><ele>226.0</ele><time>2026-04-09T07:43:27.695Z</time></trkpt><trkpt lat="43.7143767" lon="13.0300228"><ele>226.0</ele><time>2026-04-09T07:43:28.695Z</time></trkpt><trkpt lat="43.7142937" lon="13.0299089"><ele>225.0</ele><time>2026-04-09T07:43:29.695Z</time></trkpt><trkpt lat="43.7142053" lon="13.0297961"><ele>224.0</ele><time>2026-04-09T07:43:30.694Z</time></trkpt><trkpt lat="43.7141236" lon="13.0296813"><ele>223.0</ele><time>2026-04-09T07:43:31.694Z</time></trkpt><trkpt lat="43.7140352" lon="13.0295635"><ele>222.0</ele><time>2026-04-09T07:43:32.694Z</time></trkpt><trkpt lat="43.7139503" lon="13.0294491"><ele>222.0</ele><time>2026-04-09T07:43:33.695Z</time></trkpt><trkpt lat="43.7138705" lon="13.0293415"><ele>222.0</ele><time>2026-04-09T07:43:34.694Z</time></trkpt><trkpt lat="43.7137858" lon="13.0292361"><ele>222.0</ele><time>2026-04-09T07:43:35.694Z</time></trkpt><trkpt lat="43.7136995" lon="13.029129"><ele>222.0</ele><time>2026-04-09T07:43:36.694Z</time></trkpt><trkpt lat="43.7136186" lon="13.0290272"><ele>221.2</ele><time>2026-04-09T07:43:37.695Z</time></trkpt><trkpt lat="43.7135417" lon="13.0289123"><ele>220.39999999999998</ele><time>2026-04-09T07:43:38.695Z</time></trkpt><trkpt lat="43.7134782" lon="13.0287947"><ele>219.60000000000002</ele><time>2026-04-09T07:43:39.695Z</time></trkpt><trkpt lat="43.7134158" lon="13.0286788"><ele>218.8</ele><time>2026-04-09T07:43:40.694Z</time></trkpt><trkpt lat="43.7133588" lon="13.0285533"><ele>218.0</ele><time>2026-04-09T07:43:41.694Z</time></trkpt><trkpt lat="43.7133051" lon="13.028426"><ele>217.8</ele><time>2026-04-09T07:43:42.694Z</time></trkpt><trkpt lat="43.7132531" lon="13.0282898"><ele>217.60000000000002</ele><time>2026-04-09T07:43:43.694Z</time></trkpt><trkpt lat="43.7131924" lon="13.02816"><ele>217.39999999999998</ele><time>2026-04-09T07:43:44.694Z</time></trkpt><trkpt lat="43.7131364" lon="13.0280365"><ele>217.2</ele><time>2026-04-09T07:43:45.694Z</time></trkpt><trkpt lat="43.7130794" lon="13.0279148"><ele>217.0</ele><time>2026-04-09T07:43:46.695Z</time></trkpt><trkpt lat="43.7130152" lon="13.0277954"><ele>217.0</ele><time>2026-04-09T07:43:47.695Z</time></trkpt><trkpt lat="43.7129536" lon="13.0276769"><ele>217.0</ele><time>2026-04-09T07:43:48.695Z</time></trkpt><trkpt lat="43.7128824" lon="13.0275638"><ele>217.0</ele><time>2026-04-09T07:43:49.694Z</time></trkpt><trkpt lat="43.712814" lon="13.0274491"><ele>217.0</ele><time>2026-04-09T07:43:50.695Z</time></trkpt><trkpt lat="43.7127456" lon="13.0273318"><ele>217.0</ele><time>2026-04-09T07:43:51.694Z</time></trkpt><trkpt lat="43.7126698" lon="13.0272134"><ele>215.75</ele><time>2026-04-09T07:43:52.694Z</time></trkpt><trkpt lat="43.712595" lon="13.0270944"><ele>214.5</ele><time>2026-04-09T07:43:53.694Z</time></trkpt><trkpt lat="43.7125201" lon="13.026972"><ele>213.25</ele><time>2026-04-09T07:43:54.695Z</time></trkpt><trkpt lat="43.7124441" lon="13.0268482"><ele>212.0</ele><time>2026-04-09T07:43:55.695Z</time></trkpt><trkpt lat="43.7123634" lon="13.0267169"><ele>211.0</ele><time>2026-04-09T07:43:56.694Z</time></trkpt><trkpt lat="43.7122826" lon="13.0265771"><ele>210.0</ele><time>2026-04-09T07:43:57.695Z</time></trkpt><trkpt lat="43.7121999" lon="13.026435"><ele>209.0</ele><time>2026-04-09T07:43:58.694Z</time></trkpt><trkpt lat="43.7121195" lon="13.0262871"><ele>208.0</ele><time>2026-04-09T07:43:59.694Z</time></trkpt><trkpt lat="43.7120352" lon="13.0261435"><ele>208.0</ele><time>2026-04-09T07:44:00.694Z</time></trkpt><trkpt lat="43.7119446" lon="13.0259956"><ele>208.0</ele><time>2026-04-09T07:44:01.695Z</time></trkpt><trkpt lat="43.7118574" lon="13.025849"><ele>208.0</ele><time>2026-04-09T07:44:02.694Z</time></trkpt><trkpt lat="43.7117675" lon="13.0257059"><ele>208.0</ele><time>2026-04-09T07:44:03.695Z</time></trkpt><trkpt lat="43.7116744" lon="13.0255665"><ele>207.25</ele><time>2026-04-09T07:44:04.694Z</time></trkpt><trkpt lat="43.7115831" lon="13.0254233"><ele>206.5</ele><time>2026-04-09T07:44:05.695Z</time></trkpt><trkpt lat="43.7114902" lon="13.0252887"><ele>205.75</ele><time>2026-04-09T07:44:06.694Z</time></trkpt><trkpt lat="43.711398" lon="13.0251497"><ele>205.0</ele><time>2026-04-09T07:44:07.695Z</time></trkpt><trkpt lat="43.7113075" lon="13.0250033"><ele>204.0</ele><time>2026-04-09T07:44:08.695Z</time></trkpt><trkpt lat="43.7112158" lon="13.0248639"><ele>203.0</ele><time>2026-04-09T07:44:09.694Z</time></trkpt><trkpt lat="43.7111283" lon="13.0247181"><ele>202.0</ele><time>2026-04-09T07:44:10.695Z</time></trkpt><trkpt lat="43.7110359" lon="13.0245789"><ele>201.0</ele><time>2026-04-09T07:44:11.695Z</time></trkpt><trkpt lat="43.7109488" lon="13.0244287"><ele>201.75</ele><time>2026-04-09T07:44:12.694Z</time></trkpt><trkpt lat="43.7108522" lon="13.0242836"><ele>202.5</ele><time>2026-04-09T07:44:13.695Z</time></trkpt><trkpt lat="43.7107585" lon="13.0241314"><ele>203.25</ele><time>2026-04-09T07:44:14.694Z</time></trkpt><trkpt lat="43.7106738" lon="13.0239832"><ele>204.0</ele><time>2026-04-09T07:44:15.695Z</time></trkpt><trkpt lat="43.7105873" lon="13.0238294"><ele>204.0</ele><time>2026-04-09T07:44:16.695Z</time></trkpt><trkpt lat="43.7104966" lon="13.0236755"><ele>204.0</ele><time>2026-04-09T07:44:17.694Z</time></trkpt><trkpt lat="43.7104203" lon="13.0235105"><ele>204.0</ele><time>2026-04-09T07:44:18.695Z</time></trkpt><trkpt lat="43.7103414" lon="13.0233459"><ele>204.0</ele><time>2026-04-09T07:44:19.694Z</time></trkpt><trkpt lat="43.7102633" lon="13.0231853"><ele>205.5</ele><time>2026-04-09T07:44:20.695Z</time></trkpt><trkpt lat="43.7101936" lon="13.023014"><ele>207.0</ele><time>2026-04-09T07:44:21.695Z</time></trkpt><trkpt lat="43.7101232" lon="13.0228447"><ele>208.5</ele><time>2026-04-09T07:44:22.694Z</time></trkpt><trkpt lat="43.7100516" lon="13.0226707"><ele>210.0</ele><time>2026-04-09T07:44:23.695Z</time></trkpt><trkpt lat="43.7099713" lon="13.0225096"><ele>209.0</ele><time>2026-04-09T07:44:24.695Z</time></trkpt><trkpt lat="43.7098884" lon="13.0223504"><ele>208.0</ele><time>2026-04-09T07:44:25.694Z</time></trkpt><trkpt lat="43.7098067" lon="13.0221811"><ele>207.0</ele><time>2026-04-09T07:44:26.695Z</time></trkpt><trkpt lat="43.7097241" lon="13.0220231"><ele>206.0</ele><time>2026-04-09T07:44:27.694Z</time></trkpt><trkpt lat="43.709638" lon="13.0218604"><ele>206.0</ele><time>2026-04-09T07:44:28.694Z</time></trkpt><trkpt lat="43.7095517" lon="13.0216982"><ele>206.0</ele><time>2026-04-09T07:44:29.694Z</time></trkpt><trkpt lat="43.7094699" lon="13.0215346"><ele>206.0</ele><time>2026-04-09T07:44:30.695Z</time></trkpt><trkpt lat="43.7093869" lon="13.0213714"><ele>206.0</ele><time>2026-04-09T07:44:31.695Z</time></trkpt><trkpt lat="43.7093058" lon="13.0212154"><ele>208.0</ele><time>2026-04-09T07:44:32.694Z</time></trkpt><trkpt lat="43.7092283" lon="13.0210595"><ele>210.0</ele><time>2026-04-09T07:44:33.695Z</time></trkpt><trkpt lat="43.7091461" lon="13.0209068"><ele>212.0</ele><time>2026-04-09T07:44:34.694Z</time></trkpt><trkpt lat="43.7090687" lon="13.0207571"><ele>214.0</ele><time>2026-04-09T07:44:35.695Z</time></trkpt><trkpt lat="43.7089888" lon="13.0206069"><ele>214.75</ele><time>2026-04-09T07:44:36.695Z</time></trkpt><trkpt lat="43.7089119" lon="13.020459"><ele>215.5</ele><time>2026-04-09T07:44:37.695Z</time></trkpt><trkpt lat="43.7088343" lon="13.0203102"><ele>216.25</ele><time>2026-04-09T07:44:38.694Z</time></trkpt><trkpt lat="43.7087562" lon="13.0201689"><ele>217.0</ele><time>2026-04-09T07:44:39.695Z</time></trkpt><trkpt lat="43.7086815" lon="13.0200202"><ele>217.25</ele><time>2026-04-09T07:44:40.695Z</time></trkpt><trkpt lat="43.708605" lon="13.0198738"><ele>217.5</ele><time>2026-04-09T07:44:41.695Z</time></trkpt><trkpt lat="43.7085279" lon="13.0197247"><ele>217.75</ele><time>2026-04-09T07:44:42.694Z</time></trkpt><trkpt lat="43.7084536" lon="13.0195769"><ele>218.0</ele><time>2026-04-09T07:44:43.695Z</time></trkpt><trkpt lat="43.7083808" lon="13.0194269"><ele>220.75</ele><time>2026-04-09T07:44:44.695Z</time></trkpt><trkpt lat="43.7083128" lon="13.0192724"><ele>223.5</ele><time>2026-04-09T07:44:45.694Z</time></trkpt><trkpt lat="43.7082332" lon="13.0191212"><ele>226.25</ele><time>2026-04-09T07:44:46.695Z</time></trkpt><trkpt lat="43.7081564" lon="13.018973"><ele>229.0</ele><time>2026-04-09T07:44:47.695Z</time></trkpt><trkpt lat="43.7080678" lon="13.0188254"><ele>229.75</ele><time>2026-04-09T07:44:48.694Z</time></trkpt><trkpt lat="43.7079912" lon="13.018678"><ele>230.5</ele><time>2026-04-09T07:44:49.694Z</time></trkpt><trkpt lat="43.7079131" lon="13.018533"><ele>231.25</ele><time>2026-04-09T07:44:50.695Z</time></trkpt><trkpt lat="43.7078329" lon="13.0183824"><ele>232.0</ele><time>2026-04-09T07:44:51.694Z</time></trkpt><trkpt lat="43.7077508" lon="13.0182354"><ele>234.0</ele><time>2026-04-09T07:44:52.694Z</time></trkpt><trkpt lat="43.707669" lon="13.0180933"><ele>236.0</ele><time>2026-04-09T07:44:53.695Z</time></trkpt><trkpt lat="43.7075888" lon="13.0179507"><ele>238.0</ele><time>2026-04-09T07:44:54.694Z</time></trkpt><trkpt lat="43.7075068" lon="13.0178114"><ele>240.0</ele><time>2026-04-09T07:44:55.695Z</time></trkpt><trkpt lat="43.707423" lon="13.0176756"><ele>240.0</ele><time>2026-04-09T07:44:56.694Z</time></trkpt><trkpt lat="43.7073325" lon="13.0175457"><ele>240.0</ele><time>2026-04-09T07:44:57.694Z</time></trkpt><trkpt lat="43.7072387" lon="13.0174219"><ele>240.0</ele><time>2026-04-09T07:44:58.695Z</time></trkpt><trkpt lat="43.7071415" lon="13.0173031"><ele>240.0</ele><time>2026-04-09T07:44:59.695Z</time></trkpt><trkpt lat="43.7070371" lon="13.0171823"><ele>240.75</ele><time>2026-04-09T07:45:00.695Z</time></trkpt><trkpt lat="43.706936" lon="13.0170622"><ele>241.5</ele><time>2026-04-09T07:45:01.694Z</time></trkpt><trkpt lat="43.7068333" lon="13.016944"><ele>242.25</ele><time>2026-04-09T07:45:02.694Z</time></trkpt><trkpt lat="43.7067294" lon="13.0168244"><ele>243.0</ele><time>2026-04-09T07:45:03.694Z</time></trkpt><trkpt lat="43.7066229" lon="13.0167111"><ele>245.5</ele><time>2026-04-09T07:45:04.694Z</time></trkpt><trkpt lat="43.7065177" lon="13.0165986"><ele>248.0</ele><time>2026-04-09T07:45:05.695Z</time></trkpt><trkpt lat="43.7064102" lon="13.0164842"><ele>250.5</ele><time>2026-04-09T07:45:06.694Z</time></trkpt><trkpt lat="43.7063054" lon="13.0163688"><ele>253.0</ele><time>2026-04-09T07:45:07.694Z</time></trkpt><trkpt lat="43.7062053" lon="13.0162481"><ele>253.0</ele><time>2026-04-09T07:45:08.694Z</time></trkpt><trkpt lat="43.7061043" lon="13.0161183"><ele>253.0</ele><time>2026-04-09T07:45:09.694Z</time></trkpt><trkpt lat="43.7060099" lon="13.0159872"><ele>253.0</ele><time>2026-04-09T07:45:10.694Z</time></trkpt><trkpt lat="43.7059191" lon="13.0158644"><ele>253.0</ele><time>2026-04-09T07:45:11.695Z</time></trkpt><trkpt lat="43.7058476" lon="13.0157538"><ele>252.99999999999997</ele><time>2026-04-09T07:45:12.694Z</time></trkpt><trkpt lat="43.7057931" lon="13.0156597"><ele>253.0</ele><time>2026-04-09T07:45:13.694Z</time></trkpt><trkpt lat="43.7057496" lon="13.0155743"><ele>253.0</ele><time>2026-04-09T07:45:14.695Z</time></trkpt><trkpt lat="43.7057124" lon="13.0154921"><ele>253.0</ele><time>2026-04-09T07:45:15.694Z</time></trkpt><trkpt lat="43.7056796" lon="13.0154056"><ele>252.99999999999997</ele><time>2026-04-09T07:45:16.694Z</time></trkpt><trkpt lat="43.7056494" lon="13.0153242"><ele>253.0</ele><time>2026-04-09T07:45:17.694Z</time></trkpt><trkpt lat="43.7056023" lon="13.0151839"><ele>252.99999999999997</ele><time>2026-04-09T07:45:19.694Z</time></trkpt><trkpt lat="43.7055566" lon="13.0150536"><ele>253.0</ele><time>2026-04-09T07:45:21.695Z</time></trkpt><trkpt lat="43.7055159" lon="13.0149327"><ele>253.0</ele><time>2026-04-09T07:45:23.694Z</time></trkpt><trkpt lat="43.705472" lon="13.014829"><ele>253.0</ele><time>2026-04-09T07:45:25.694Z</time></trkpt><trkpt lat="43.7054435" lon="13.0147312"><ele>252.99999999999997</ele><time>2026-04-09T07:45:27.694Z</time></trkpt><trkpt lat="43.7054193" lon="13.0146494"><ele>253.0</ele><time>2026-04-09T07:49:11.694Z</time></trkpt><trkpt lat="43.7054617" lon="13.0144761"><ele>252.8</ele><time>2026-04-09T07:49:13.694Z</time></trkpt><trkpt lat="43.7055041" lon="13.014373"><ele>252.60000000000002</ele><time>2026-04-09T07:49:14.695Z</time></trkpt><trkpt lat="43.7055525" lon="13.0142673"><ele>252.39999999999998</ele><time>2026-04-09T07:49:15.695Z</time></trkpt><trkpt lat="43.7056047" lon="13.0141682"><ele>252.2</ele><time>2026-04-09T07:49:16.695Z</time></trkpt><trkpt lat="43.7056686" lon="13.0140629"><ele>252.0</ele><time>2026-04-09T07:49:17.694Z</time></trkpt><trkpt lat="43.7057467" lon="13.0139625"><ele>250.2</ele><time>2026-04-09T07:49:18.694Z</time></trkpt><trkpt lat="43.7058326" lon="13.0138805"><ele>248.39999999999998</ele><time>2026-04-09T07:49:19.694Z</time></trkpt><trkpt lat="43.7059192" lon="13.0138098"><ele>246.60000000000002</ele><time>2026-04-09T07:49:20.694Z</time></trkpt><trkpt lat="43.7060273" lon="13.0137598"><ele>244.8</ele><time>2026-04-09T07:49:21.695Z</time></trkpt><trkpt lat="43.7061423" lon="13.0137075"><ele>243.0</ele><time>2026-04-09T07:49:22.695Z</time></trkpt><trkpt lat="43.7062609" lon="13.0136575"><ele>241.25</ele><time>2026-04-09T07:49:23.694Z</time></trkpt><trkpt lat="43.7063813" lon="13.0136087"><ele>239.5</ele><time>2026-04-09T07:49:24.695Z</time></trkpt><trkpt lat="43.7064953" lon="13.0135626"><ele>237.75</ele><time>2026-04-09T07:49:25.694Z</time></trkpt><trkpt lat="43.7066114" lon="13.0135063"><ele>236.0</ele><time>2026-04-09T07:49:26.694Z</time></trkpt><trkpt lat="43.7067206" lon="13.0134585"><ele>236.0</ele><time>2026-04-09T07:49:27.694Z</time></trkpt><trkpt lat="43.706833" lon="13.0134125"><ele>236.00000000000003</ele><time>2026-04-09T07:49:28.695Z</time></trkpt><trkpt lat="43.7069426" lon="13.0133652"><ele>236.00000000000003</ele><time>2026-04-09T07:49:29.695Z</time></trkpt><trkpt lat="43.7070478" lon="13.0133247"><ele>236.0</ele><time>2026-04-09T07:49:30.694Z</time></trkpt><trkpt lat="43.7071484" lon="13.0132861"><ele>236.0</ele><time>2026-04-09T07:49:31.695Z</time></trkpt><trkpt lat="43.7072497" lon="13.0132444"><ele>232.8</ele><time>2026-04-09T07:49:32.695Z</time></trkpt><trkpt lat="43.707352" lon="13.0132038"><ele>229.60000000000002</ele><time>2026-04-09T07:49:33.695Z</time></trkpt><trkpt lat="43.7074506" lon="13.0131686"><ele>226.4</ele><time>2026-04-09T07:49:34.694Z</time></trkpt><trkpt lat="43.7075512" lon="13.0131321"><ele>223.2</ele><time>2026-04-09T07:49:35.695Z</time></trkpt><trkpt lat="43.7076505" lon="13.0130902"><ele>220.0</ele><time>2026-04-09T07:49:36.694Z</time></trkpt><trkpt lat="43.7077496" lon="13.013049"><ele>220.0</ele><time>2026-04-09T07:49:37.694Z</time></trkpt><trkpt lat="43.7078521" lon="13.0130036"><ele>220.0</ele><time>2026-04-09T07:49:38.694Z</time></trkpt><trkpt lat="43.7079608" lon="13.0129624"><ele>220.0</ele><time>2026-04-09T07:49:39.695Z</time></trkpt><trkpt lat="43.7080741" lon="13.0129213"><ele>220.0</ele><time>2026-04-09T07:49:40.695Z</time></trkpt><trkpt lat="43.7081966" lon="13.0128714"><ele>220.0</ele><time>2026-04-09T07:49:41.694Z</time></trkpt><trkpt lat="43.7083242" lon="13.0128214"><ele>220.0</ele><time>2026-04-09T07:49:42.694Z</time></trkpt><trkpt lat="43.7084574" lon="13.0127641"><ele>220.0</ele><time>2026-04-09T07:49:43.694Z</time></trkpt><trkpt lat="43.7085959" lon="13.0127003"><ele>220.0</ele><time>2026-04-09T07:49:44.695Z</time></trkpt><trkpt lat="43.7087289" lon="13.0126272"><ele>219.25</ele><time>2026-04-09T07:49:45.694Z</time></trkpt><trkpt lat="43.7088555" lon="13.0125387"><ele>218.5</ele><time>2026-04-09T07:49:46.695Z</time></trkpt><trkpt lat="43.7089907" lon="13.0124444"><ele>217.75</ele><time>2026-04-09T07:49:47.695Z</time></trkpt><trkpt lat="43.7091189" lon="13.0123568"><ele>217.0</ele><time>2026-04-09T07:49:48.695Z</time></trkpt><trkpt lat="43.7092391" lon="13.0122628"><ele>215.0</ele><time>2026-04-09T07:49:49.694Z</time></trkpt><trkpt lat="43.7093533" lon="13.0121585"><ele>213.0</ele><time>2026-04-09T07:49:50.694Z</time></trkpt><trkpt lat="43.7094526" lon="13.0120393"><ele>211.0</ele><time>2026-04-09T07:49:51.694Z</time></trkpt><trkpt lat="43.7095499" lon="13.011912"><ele>209.0</ele><time>2026-04-09T07:49:52.694Z</time></trkpt><trkpt lat="43.7096283" lon="13.0117651"><ele>207.25</ele><time>2026-04-09T07:49:53.694Z</time></trkpt><trkpt lat="43.7096972" lon="13.0115999"><ele>205.5</ele><time>2026-04-09T07:49:54.695Z</time></trkpt><trkpt lat="43.7097449" lon="13.0114171"><ele>203.75</ele><time>2026-04-09T07:49:55.695Z</time></trkpt><trkpt lat="43.7097793" lon="13.0112289"><ele>202.0</ele><time>2026-04-09T07:49:56.694Z</time></trkpt><trkpt lat="43.7098077" lon="13.0110402"><ele>202.0</ele><time>2026-04-09T07:49:57.694Z</time></trkpt><trkpt lat="43.7098188" lon="13.0108477"><ele>202.0</ele><time>2026-04-09T07:49:58.695Z</time></trkpt><trkpt lat="43.7098382" lon="13.0106512"><ele>202.0</ele><time>2026-04-09T07:49:59.695Z</time></trkpt><trkpt lat="43.7098558" lon="13.010452"><ele>202.0</ele><time>2026-04-09T07:50:00.694Z</time></trkpt><trkpt lat="43.7098683" lon="13.010257"><ele>202.25</ele><time>2026-04-09T07:50:01.694Z</time></trkpt><trkpt lat="43.7098862" lon="13.010057"><ele>202.5</ele><time>2026-04-09T07:50:02.694Z</time></trkpt><trkpt lat="43.7098973" lon="13.009862"><ele>202.75</ele><time>2026-04-09T07:50:03.694Z</time></trkpt><trkpt lat="43.7099102" lon="13.0096608"><ele>203.0</ele><time>2026-04-09T07:50:04.694Z</time></trkpt><trkpt lat="43.7099308" lon="13.0094572"><ele>203.0</ele><time>2026-04-09T07:50:05.694Z</time></trkpt><trkpt lat="43.7099478" lon="13.0092514"><ele>203.0</ele><time>2026-04-09T07:50:06.694Z</time></trkpt><trkpt lat="43.709959" lon="13.0090359"><ele>203.0</ele><time>2026-04-09T07:50:07.694Z</time></trkpt><trkpt lat="43.7099696" lon="13.0088141"><ele>203.0</ele><time>2026-04-09T07:50:08.694Z</time></trkpt><trkpt lat="43.7099848" lon="13.0085843"><ele>203.0</ele><time>2026-04-09T07:50:09.694Z</time></trkpt><trkpt lat="43.7099978" lon="13.0083589"><ele>203.0</ele><time>2026-04-09T07:50:10.694Z</time></trkpt><trkpt lat="43.7100104" lon="13.0081331"><ele>203.33333333333334</ele><time>2026-04-09T07:50:11.694Z</time></trkpt><trkpt lat="43.7100271" lon="13.007908"><ele>203.66666666666669</ele><time>2026-04-09T07:50:12.695Z</time></trkpt><trkpt lat="43.7100432" lon="13.0076828"><ele>204.0</ele><time>2026-04-09T07:50:13.694Z</time></trkpt><trkpt lat="43.7100553" lon="13.0074606"><ele>205.33333333333331</ele><time>2026-04-09T07:50:14.694Z</time></trkpt><trkpt lat="43.7100701" lon="13.0072448"><ele>206.66666666666666</ele><time>2026-04-09T07:50:15.694Z</time></trkpt><trkpt lat="43.7100825" lon="13.0070259"><ele>208.0</ele><time>2026-04-09T07:50:16.695Z</time></trkpt><trkpt lat="43.710097" lon="13.0068127"><ele>208.0</ele><time>2026-04-09T07:50:17.694Z</time></trkpt><trkpt lat="43.7101091" lon="13.0066045"><ele>208.0</ele><time>2026-04-09T07:50:18.695Z</time></trkpt><trkpt lat="43.7101269" lon="13.0063942"><ele>208.0</ele><time>2026-04-09T07:50:19.695Z</time></trkpt><trkpt lat="43.7101435" lon="13.0061918"><ele>208.0</ele><time>2026-04-09T07:50:20.694Z</time></trkpt><trkpt lat="43.7101589" lon="13.0059913"><ele>208.0</ele><time>2026-04-09T07:50:21.695Z</time></trkpt><trkpt lat="43.7101737" lon="13.0057958"><ele>208.0</ele><time>2026-04-09T07:50:22.695Z</time></trkpt><trkpt lat="43.7101821" lon="13.0055977"><ele>208.0</ele><time>2026-04-09T07:50:23.694Z</time></trkpt><trkpt lat="43.7101928" lon="13.0054024"><ele>209.0</ele><time>2026-04-09T07:50:24.694Z</time></trkpt><trkpt lat="43.7102022" lon="13.0052076"><ele>210.0</ele><time>2026-04-09T07:50:25.694Z</time></trkpt><trkpt lat="43.7102043" lon="13.0050196"><ele>211.0</ele><time>2026-04-09T07:50:26.695Z</time></trkpt><trkpt lat="43.710199" lon="13.0048361"><ele>212.0</ele><time>2026-04-09T07:50:27.694Z</time></trkpt><trkpt lat="43.7101876" lon="13.0046561"><ele>213.75</ele><time>2026-04-09T07:50:28.694Z</time></trkpt><trkpt lat="43.7101699" lon="13.0044741"><ele>215.5</ele><time>2026-04-09T07:50:29.694Z</time></trkpt><trkpt lat="43.7101607" lon="13.0042923"><ele>217.25</ele><time>2026-04-09T07:50:30.694Z</time></trkpt><trkpt lat="43.7101369" lon="13.004109"><ele>219.0</ele><time>2026-04-09T07:50:31.695Z</time></trkpt><trkpt lat="43.7101176" lon="13.0039225"><ele>219.0</ele><time>2026-04-09T07:50:32.694Z</time></trkpt><trkpt lat="43.7101083" lon="13.0037386"><ele>219.0</ele><time>2026-04-09T07:50:33.695Z</time></trkpt><trkpt lat="43.7101087" lon="13.0035466"><ele>219.0</ele><time>2026-04-09T07:50:34.694Z</time></trkpt><trkpt lat="43.7101326" lon="13.0033658"><ele>219.0</ele><time>2026-04-09T07:50:35.695Z</time></trkpt><trkpt lat="43.7101703" lon="13.0031855"><ele>219.0</ele><time>2026-04-09T07:50:36.694Z</time></trkpt><trkpt lat="43.7102053" lon="13.0030107"><ele>219.0</ele><time>2026-04-09T07:50:37.695Z</time></trkpt><trkpt lat="43.7102552" lon="13.00283"><ele>219.0</ele><time>2026-04-09T07:50:38.694Z</time></trkpt><trkpt lat="43.7102999" lon="13.0026657"><ele>219.0</ele><time>2026-04-09T07:50:39.694Z</time></trkpt><trkpt lat="43.7103382" lon="13.0025188"><ele>218.0</ele><time>2026-04-09T07:50:40.695Z</time></trkpt><trkpt lat="43.7103758" lon="13.0023801"><ele>217.0</ele><time>2026-04-09T07:50:41.694Z</time></trkpt><trkpt lat="43.7104036" lon="13.0022702"><ele>216.0</ele><time>2026-04-09T07:50:42.694Z</time></trkpt><trkpt lat="43.7104414" lon="13.0021746"><ele>215.0</ele><time>2026-04-09T07:50:43.695Z</time></trkpt><trkpt lat="43.7104831" lon="13.0021089"><ele>214.0</ele><time>2026-04-09T07:50:44.695Z</time></trkpt><trkpt lat="43.7105421" lon="13.0020717"><ele>213.0</ele><time>2026-04-09T07:50:45.694Z</time></trkpt><trkpt lat="43.7106136" lon="13.0020638"><ele>213.0</ele><time>2026-04-09T07:50:46.695Z</time></trkpt><trkpt lat="43.7106924" lon="13.00208"><ele>213.0</ele><time>2026-04-09T07:50:47.695Z</time></trkpt><trkpt lat="43.7107722" lon="13.0021635"><ele>213.0</ele><time>2026-04-09T07:50:48.694Z</time></trkpt><trkpt lat="43.7108448" lon="13.0022816"><ele>213.0</ele><time>2026-04-09T07:50:49.695Z</time></trkpt><trkpt lat="43.7109128" lon="13.0024016"><ele>213.0</ele><time>2026-04-09T07:50:50.694Z</time></trkpt><trkpt lat="43.7109866" lon="13.0025253"><ele>211.5</ele><time>2026-04-09T07:50:51.694Z</time></trkpt><trkpt lat="43.7110637" lon="13.0026553"><ele>210.0</ele><time>2026-04-09T07:50:52.695Z</time></trkpt><trkpt lat="43.7111474" lon="13.0027843"><ele>208.5</ele><time>2026-04-09T07:50:53.694Z</time></trkpt><trkpt lat="43.7112323" lon="13.0029096"><ele>207.0</ele><time>2026-04-09T07:50:54.695Z</time></trkpt><trkpt lat="43.7113187" lon="13.0030381"><ele>207.0</ele><time>2026-04-09T07:50:55.695Z</time></trkpt><trkpt lat="43.711406" lon="13.0031757"><ele>207.0</ele><time>2026-04-09T07:50:56.694Z</time></trkpt><trkpt lat="43.7114987" lon="13.0033124"><ele>207.0</ele><time>2026-04-09T07:50:57.695Z</time></trkpt><trkpt lat="43.7116002" lon="13.0034471"><ele>207.0</ele><time>2026-04-09T07:50:58.694Z</time></trkpt><trkpt lat="43.7117104" lon="13.0035686"><ele>208.25</ele><time>2026-04-09T07:50:59.694Z</time></trkpt><trkpt lat="43.7118227" lon="13.0036765"><ele>209.5</ele><time>2026-04-09T07:51:00.694Z</time></trkpt><trkpt lat="43.7119406" lon="13.0037754"><ele>210.75</ele><time>2026-04-09T07:51:01.695Z</time></trkpt><trkpt lat="43.712064" lon="13.0038648"><ele>212.0</ele><time>2026-04-09T07:51:02.695Z</time></trkpt><trkpt lat="43.7121884" lon="13.0039516"><ele>209.25</ele><time>2026-04-09T07:51:03.694Z</time></trkpt><trkpt lat="43.7123091" lon="13.0040373"><ele>206.5</ele><time>2026-04-09T07:51:04.695Z</time></trkpt><trkpt lat="43.7124353" lon="13.0041244"><ele>203.75</ele><time>2026-04-09T07:51:05.694Z</time></trkpt><trkpt lat="43.7125688" lon="13.0042111"><ele>201.0</ele><time>2026-04-09T07:51:06.695Z</time></trkpt><trkpt lat="43.7127076" lon="13.0042814"><ele>198.0</ele><time>2026-04-09T07:51:07.694Z</time></trkpt><trkpt lat="43.7128501" lon="13.0043394"><ele>195.0</ele><time>2026-04-09T07:51:08.694Z</time></trkpt><trkpt lat="43.7129945" lon="13.004376"><ele>192.0</ele><time>2026-04-09T07:51:09.694Z</time></trkpt><trkpt lat="43.7131437" lon="13.0043912"><ele>189.0</ele><time>2026-04-09T07:51:10.695Z</time></trkpt><trkpt lat="43.7132944" lon="13.0043841"><ele>189.0</ele><time>2026-04-09T07:51:11.694Z</time></trkpt><trkpt lat="43.7134493" lon="13.004368"><ele>189.0</ele><time>2026-04-09T07:51:12.694Z</time></trkpt><trkpt lat="43.713611" lon="13.0043535"><ele>189.0</ele><time>2026-04-09T07:51:13.694Z</time></trkpt><trkpt lat="43.7137713" lon="13.0043388"><ele>186.0</ele><time>2026-04-09T07:51:14.695Z</time></trkpt><trkpt lat="43.71393" lon="13.0043299"><ele>183.0</ele><time>2026-04-09T07:51:15.694Z</time></trkpt><trkpt lat="43.7140945" lon="13.0043272"><ele>180.0</ele><time>2026-04-09T07:51:16.695Z</time></trkpt><trkpt lat="43.7142521" lon="13.0043359"><ele>177.66666666666666</ele><time>2026-04-09T07:51:17.694Z</time></trkpt><trkpt lat="43.7144082" lon="13.0043532"><ele>175.33333333333331</ele><time>2026-04-09T07:51:18.694Z</time></trkpt><trkpt lat="43.7145704" lon="13.0043831"><ele>173.0</ele><time>2026-04-09T07:51:19.694Z</time></trkpt><trkpt lat="43.7147394" lon="13.0044174"><ele>173.0</ele><time>2026-04-09T07:51:20.695Z</time></trkpt><trkpt lat="43.7149115" lon="13.0044546"><ele>173.0</ele><time>2026-04-09T07:51:21.695Z</time></trkpt><trkpt lat="43.7150893" lon="13.0044994"><ele>173.0</ele><time>2026-04-09T07:51:22.695Z</time></trkpt><trkpt lat="43.7152675" lon="13.0045472"><ele>170.0</ele><time>2026-04-09T07:51:23.695Z</time></trkpt><trkpt lat="43.7154465" lon="13.0045923"><ele>167.0</ele><time>2026-04-09T07:51:24.694Z</time></trkpt><trkpt lat="43.7156244" lon="13.004635"><ele>164.0</ele><time>2026-04-09T07:51:25.694Z</time></trkpt><trkpt lat="43.7157992" lon="13.0046824"><ele>164.0</ele><time>2026-04-09T07:51:26.695Z</time></trkpt><trkpt lat="43.7159724" lon="13.0047239"><ele>164.0</ele><time>2026-04-09T07:51:27.695Z</time></trkpt><trkpt lat="43.7161359" lon="13.004761"><ele>164.0</ele><time>2026-04-09T07:51:28.695Z</time></trkpt><trkpt lat="43.7163005" lon="13.0048037"><ele>162.33333333333331</ele><time>2026-04-09T07:51:29.694Z</time></trkpt><trkpt lat="43.7164664" lon="13.0048475"><ele>160.66666666666666</ele><time>2026-04-09T07:51:30.695Z</time></trkpt><trkpt lat="43.7166272" lon="13.0048923"><ele>159.0</ele><time>2026-04-09T07:51:31.695Z</time></trkpt><trkpt lat="43.7167806" lon="13.0049459"><ele>160.0</ele><time>2026-04-09T07:51:32.695Z</time></trkpt><trkpt lat="43.7169279" lon="13.0050148"><ele>161.0</ele><time>2026-04-09T07:51:33.694Z</time></trkpt><trkpt lat="43.7170711" lon="13.0050959"><ele>162.0</ele><time>2026-04-09T07:51:34.694Z</time></trkpt><trkpt lat="43.7172183" lon="13.0051791"><ele>162.0</ele><time>2026-04-09T07:51:35.695Z</time></trkpt><trkpt lat="43.7173704" lon="13.0052626"><ele>162.0</ele><time>2026-04-09T07:51:36.694Z</time></trkpt><trkpt lat="43.7175236" lon="13.0053481"><ele>162.0</ele><time>2026-04-09T07:51:37.695Z</time></trkpt><trkpt lat="43.7176799" lon="13.0054347"><ele>160.33333333333334</ele><time>2026-04-09T07:51:38.694Z</time></trkpt><trkpt lat="43.717836" lon="13.0055187"><ele>158.66666666666669</ele><time>2026-04-09T07:51:39.695Z</time></trkpt><trkpt lat="43.7179955" lon="13.0055996"><ele>157.0</ele><time>2026-04-09T07:51:40.695Z</time></trkpt><trkpt lat="43.7181523" lon="13.0056845"><ele>157.0</ele><time>2026-04-09T07:51:41.694Z</time></trkpt><trkpt lat="43.718306" lon="13.0057728"><ele>157.0</ele><time>2026-04-09T07:51:42.694Z</time></trkpt><trkpt lat="43.7184596" lon="13.0058572"><ele>157.0</ele><time>2026-04-09T07:51:43.694Z</time></trkpt><trkpt lat="43.7186153" lon="13.0059428"><ele>159.0</ele><time>2026-04-09T07:51:44.694Z</time></trkpt><trkpt lat="43.7187731" lon="13.0060291"><ele>161.0</ele><time>2026-04-09T07:51:45.695Z</time></trkpt><trkpt lat="43.7189318" lon="13.0061103"><ele>163.0</ele><time>2026-04-09T07:51:46.694Z</time></trkpt><trkpt lat="43.71909" lon="13.0061898"><ele>163.0</ele><time>2026-04-09T07:51:47.694Z</time></trkpt><trkpt lat="43.71925" lon="13.0062714"><ele>163.0</ele><time>2026-04-09T07:51:48.694Z</time></trkpt><trkpt lat="43.7194088" lon="13.0063561"><ele>163.0</ele><time>2026-04-09T07:51:49.695Z</time></trkpt><trkpt lat="43.719569" lon="13.0064366"><ele>164.33333333333334</ele><time>2026-04-09T07:51:50.694Z</time></trkpt><trkpt lat="43.7197251" lon="13.00652"><ele>165.66666666666666</ele><time>2026-04-09T07:51:51.694Z</time></trkpt><trkpt lat="43.7198826" lon="13.0066044"><ele>167.0</ele><time>2026-04-09T07:51:52.695Z</time></trkpt><trkpt lat="43.7200394" lon="13.0066853"><ele>169.0</ele><time>2026-04-09T07:51:53.695Z</time></trkpt><trkpt lat="43.7201966" lon="13.0067706"><ele>171.0</ele><time>2026-04-09T07:51:54.695Z</time></trkpt><trkpt lat="43.7203549" lon="13.006856"><ele>173.0</ele><time>2026-04-09T07:51:55.695Z</time></trkpt><trkpt lat="43.7205127" lon="13.0069332"><ele>173.66666666666666</ele><time>2026-04-09T07:51:56.694Z</time></trkpt><trkpt lat="43.7206711" lon="13.007011"><ele>174.33333333333334</ele><time>2026-04-09T07:51:57.695Z</time></trkpt><trkpt lat="43.7208252" lon="13.0070909"><ele>175.0</ele><time>2026-04-09T07:51:58.694Z</time></trkpt><trkpt lat="43.7209798" lon="13.007177"><ele>174.33333333333334</ele><time>2026-04-09T07:51:59.695Z</time></trkpt><trkpt lat="43.7211332" lon="13.0072636"><ele>173.66666666666666</ele><time>2026-04-09T07:52:00.694Z</time></trkpt><trkpt lat="43.721288" lon="13.0073524"><ele>173.0</ele><time>2026-04-09T07:52:01.694Z</time></trkpt><trkpt lat="43.7214471" lon="13.0074411"><ele>176.33333333333331</ele><time>2026-04-09T07:52:02.694Z</time></trkpt><trkpt lat="43.7216038" lon="13.0075318"><ele>179.66666666666666</ele><time>2026-04-09T07:52:03.695Z</time></trkpt><trkpt lat="43.7217648" lon="13.0076154"><ele>183.0</ele><time>2026-04-09T07:52:04.694Z</time></trkpt><trkpt lat="43.7219244" lon="13.0076961"><ele>183.33333333333334</ele><time>2026-04-09T07:52:05.694Z</time></trkpt><trkpt lat="43.7220753" lon="13.0077747"><ele>183.66666666666669</ele><time>2026-04-09T07:52:06.694Z</time></trkpt><trkpt lat="43.7222196" lon="13.0078525"><ele>184.0</ele><time>2026-04-09T07:52:07.694Z</time></trkpt><trkpt lat="43.7223537" lon="13.0079243"><ele>184.0</ele><time>2026-04-09T07:52:08.695Z</time></trkpt><trkpt lat="43.722481" lon="13.0079951"><ele>184.0</ele><time>2026-04-09T07:52:09.695Z</time></trkpt><trkpt lat="43.7226101" lon="13.0080547"><ele>184.0</ele><time>2026-04-09T07:52:10.694Z</time></trkpt><trkpt lat="43.7227366" lon="13.0081015"><ele>184.0</ele><time>2026-04-09T07:52:11.694Z</time></trkpt><trkpt lat="43.7228597" lon="13.00814"><ele>182.75</ele><time>2026-04-09T07:52:12.694Z</time></trkpt><trkpt lat="43.722987" lon="13.0081644"><ele>181.5</ele><time>2026-04-09T07:52:13.695Z</time></trkpt><trkpt lat="43.723112" lon="13.0081778"><ele>180.25</ele><time>2026-04-09T07:52:14.695Z</time></trkpt><trkpt lat="43.7232327" lon="13.0081871"><ele>179.0</ele><time>2026-04-09T07:52:15.695Z</time></trkpt><trkpt lat="43.7233496" lon="13.0081975"><ele>179.0</ele><time>2026-04-09T07:52:16.694Z</time></trkpt><trkpt lat="43.7234611" lon="13.0082039"><ele>179.0</ele><time>2026-04-09T07:52:17.694Z</time></trkpt><trkpt lat="43.7235605" lon="13.0082108"><ele>179.0</ele><time>2026-04-09T07:52:18.694Z</time></trkpt><trkpt lat="43.7236353" lon="13.0082205"><ele>179.0</ele><time>2026-04-09T07:52:19.695Z</time></trkpt><trkpt lat="43.7237154" lon="13.0082274"><ele>179.0</ele><time>2026-04-09T07:52:21.694Z</time></trkpt><trkpt lat="43.7237745" lon="13.0081506"><ele>179.0</ele><time>2026-04-09T07:52:23.694Z</time></trkpt><trkpt lat="43.7237858" lon="13.0079847"><ele>177.6</ele><time>2026-04-09T07:52:25.694Z</time></trkpt><trkpt lat="43.7237844" lon="13.007872"><ele>176.2</ele><time>2026-04-09T07:52:26.694Z</time></trkpt><trkpt lat="43.7237803" lon="13.0077531"><ele>174.79999999999998</ele><time>2026-04-09T07:52:27.694Z</time></trkpt><trkpt lat="43.7237709" lon="13.0076176"><ele>173.39999999999998</ele><time>2026-04-09T07:52:28.694Z</time></trkpt><trkpt lat="43.7237604" lon="13.0074698"><ele>172.0</ele><time>2026-04-09T07:52:29.694Z</time></trkpt><trkpt lat="43.7237396" lon="13.0073258"><ele>169.6</ele><time>2026-04-09T07:52:30.695Z</time></trkpt><trkpt lat="43.7237151" lon="13.0071734"><ele>167.2</ele><time>2026-04-09T07:52:31.695Z</time></trkpt><trkpt lat="43.7236861" lon="13.0070209"><ele>164.8</ele><time>2026-04-09T07:52:32.695Z</time></trkpt><trkpt lat="43.7236443" lon="13.006877"><ele>162.4</ele><time>2026-04-09T07:52:33.694Z</time></trkpt><trkpt lat="43.7236" lon="13.0067388"><ele>160.0</ele><time>2026-04-09T07:52:34.695Z</time></trkpt><trkpt lat="43.7235578" lon="13.0065874"><ele>159.8</ele><time>2026-04-09T07:52:35.695Z</time></trkpt><trkpt lat="43.7234984" lon="13.0064504"><ele>159.6</ele><time>2026-04-09T07:52:36.694Z</time></trkpt><trkpt lat="43.7234469" lon="13.0063308"><ele>159.4</ele><time>2026-04-09T07:52:37.695Z</time></trkpt><trkpt lat="43.7234014" lon="13.0062182"><ele>159.2</ele><time>2026-04-09T07:52:38.694Z</time></trkpt><trkpt lat="43.7233614" lon="13.0061248"><ele>159.0</ele><time>2026-04-09T07:52:39.694Z</time></trkpt><trkpt lat="43.7233127" lon="13.0060136"><ele>159.0</ele><time>2026-04-09T07:52:41.695Z</time></trkpt><trkpt lat="43.7232735" lon="13.0058972"><ele>159.0</ele><time>2026-04-09T07:52:58.694Z</time></trkpt><trkpt lat="43.7232313" lon="13.0058288"><ele>159.0</ele><time>2026-04-09T07:52:59.694Z</time></trkpt><trkpt lat="43.7231745" lon="13.0057297"><ele>159.0</ele><time>2026-04-09T07:53:00.695Z</time></trkpt><trkpt lat="43.7231173" lon="13.0056222"><ele>159.0</ele><time>2026-04-09T07:53:01.695Z</time></trkpt><trkpt lat="43.723054" lon="13.0055109"><ele>159.0</ele><time>2026-04-09T07:53:02.694Z</time></trkpt><trkpt lat="43.7229932" lon="13.0053971"><ele>157.2</ele><time>2026-04-09T07:53:03.695Z</time></trkpt><trkpt lat="43.7229199" lon="13.0052909"><ele>155.4</ele><time>2026-04-09T07:53:04.694Z</time></trkpt><trkpt lat="43.7228415" lon="13.0051979"><ele>153.6</ele><time>2026-04-09T07:53:05.694Z</time></trkpt><trkpt lat="43.7227655" lon="13.0050825"><ele>151.8</ele><time>2026-04-09T07:53:06.694Z</time></trkpt><trkpt lat="43.7226875" lon="13.0049732"><ele>150.0</ele><time>2026-04-09T07:53:07.694Z</time></trkpt><trkpt lat="43.7226138" lon="13.004854"><ele>149.2</ele><time>2026-04-09T07:53:08.695Z</time></trkpt><trkpt lat="43.7225502" lon="13.0047332"><ele>148.4</ele><time>2026-04-09T07:53:09.694Z</time></trkpt><trkpt lat="43.7225005" lon="13.0045958"><ele>147.6</ele><time>2026-04-09T07:53:10.695Z</time></trkpt><trkpt lat="43.7224691" lon="13.0044567"><ele>146.8</ele><time>2026-04-09T07:53:11.695Z</time></trkpt><trkpt lat="43.7224495" lon="13.0043099"><ele>146.0</ele><time>2026-04-09T07:53:12.694Z</time></trkpt><trkpt lat="43.7224306" lon="13.0041663"><ele>144.6</ele><time>2026-04-09T07:53:13.694Z</time></trkpt><trkpt lat="43.7224133" lon="13.0040155"><ele>143.2</ele><time>2026-04-09T07:53:14.694Z</time></trkpt><trkpt lat="43.7224027" lon="13.0038722"><ele>141.8</ele><time>2026-04-09T07:53:15.695Z</time></trkpt><trkpt lat="43.7223951" lon="13.0037282"><ele>140.4</ele><time>2026-04-09T07:53:16.694Z</time></trkpt><trkpt lat="43.7223831" lon="13.0035832"><ele>139.0</ele><time>2026-04-09T07:53:17.694Z</time></trkpt><trkpt lat="43.7223742" lon="13.0034376"><ele>137.0</ele><time>2026-04-09T07:53:18.695Z</time></trkpt><trkpt lat="43.7223634" lon="13.0032821"><ele>135.0</ele><time>2026-04-09T07:53:19.694Z</time></trkpt><trkpt lat="43.7223561" lon="13.0031301"><ele>133.0</ele><time>2026-04-09T07:53:20.695Z</time></trkpt><trkpt lat="43.7223472" lon="13.0029695"><ele>131.0</ele><time>2026-04-09T07:53:21.694Z</time></trkpt><trkpt lat="43.7223387" lon="13.0028036"><ele>131.0</ele><time>2026-04-09T07:53:22.694Z</time></trkpt><trkpt lat="43.7223233" lon="13.0026397"><ele>131.0</ele><time>2026-04-09T07:53:23.695Z</time></trkpt><trkpt lat="43.7223043" lon="13.0024731"><ele>131.0</ele><time>2026-04-09T07:53:24.695Z</time></trkpt><trkpt lat="43.722284" lon="13.002308"><ele>131.0</ele><time>2026-04-09T07:53:25.694Z</time></trkpt><trkpt lat="43.7222615" lon="13.002159"><ele>129.5</ele><time>2026-04-09T07:53:26.694Z</time></trkpt><trkpt lat="43.7222387" lon="13.0019931"><ele>128.0</ele><time>2026-04-09T07:53:27.695Z</time></trkpt><trkpt lat="43.7222102" lon="13.001826"><ele>126.5</ele><time>2026-04-09T07:53:28.695Z</time></trkpt><trkpt lat="43.7221822" lon="13.0016462"><ele>125.0</ele><time>2026-04-09T07:53:29.695Z</time></trkpt><trkpt lat="43.7221549" lon="13.001467"><ele>123.0</ele><time>2026-04-09T07:53:30.694Z</time></trkpt><trkpt lat="43.7221298" lon="13.0012867"><ele>121.0</ele><time>2026-04-09T07:53:31.694Z</time></trkpt><trkpt lat="43.7221078" lon="13.0010846"><ele>119.0</ele><time>2026-04-09T07:53:32.695Z</time></trkpt><trkpt lat="43.7220902" lon="13.0008877"><ele>117.0</ele><time>2026-04-09T07:53:33.695Z</time></trkpt><trkpt lat="43.7220667" lon="13.0006983"><ele>115.75</ele><time>2026-04-09T07:53:34.694Z</time></trkpt><trkpt lat="43.7220521" lon="13.0005204"><ele>114.5</ele><time>2026-04-09T07:53:35.695Z</time></trkpt><trkpt lat="43.7220431" lon="13.0003522"><ele>113.25</ele><time>2026-04-09T07:53:36.695Z</time></trkpt><trkpt lat="43.722021" lon="13.0001926"><ele>112.0</ele><time>2026-04-09T07:53:37.694Z</time></trkpt><trkpt lat="43.7220014" lon="13.0000365"><ele>112.0</ele><time>2026-04-09T07:53:38.694Z</time></trkpt><trkpt lat="43.7219885" lon="12.9998841"><ele>111.99999999999999</ele><time>2026-04-09T07:53:39.694Z</time></trkpt><trkpt lat="43.7219852" lon="12.9997323"><ele>111.99999999999999</ele><time>2026-04-09T07:53:40.694Z</time></trkpt><trkpt lat="43.7219891" lon="12.9995764"><ele>112.0</ele><time>2026-04-09T07:53:41.695Z</time></trkpt><trkpt lat="43.7220116" lon="12.9994211"><ele>112.0</ele><time>2026-04-09T07:53:42.695Z</time></trkpt><trkpt lat="43.7220458" lon="12.9992698"><ele>109.75</ele><time>2026-04-09T07:53:43.694Z</time></trkpt><trkpt lat="43.7220855" lon="12.9991208"><ele>107.5</ele><time>2026-04-09T07:53:44.694Z</time></trkpt><trkpt lat="43.7221231" lon="12.9989713"><ele>105.25</ele><time>2026-04-09T07:53:45.694Z</time></trkpt><trkpt lat="43.7221509" lon="12.9988163"><ele>103.0</ele><time>2026-04-09T07:53:46.694Z</time></trkpt><trkpt lat="43.7221534" lon="12.9986516"><ele>103.0</ele><time>2026-04-09T07:53:47.695Z</time></trkpt><trkpt lat="43.722147" lon="12.9984933"><ele>103.0</ele><time>2026-04-09T07:53:48.695Z</time></trkpt><trkpt lat="43.7221248" lon="12.9983267"><ele>103.0</ele><time>2026-04-09T07:53:49.694Z</time></trkpt><trkpt lat="43.7220938" lon="12.9981595"><ele>103.0</ele><time>2026-04-09T07:53:50.694Z</time></trkpt><trkpt lat="43.7220585" lon="12.9979902"><ele>102.25</ele><time>2026-04-09T07:53:51.694Z</time></trkpt><trkpt lat="43.722029" lon="12.9978214"><ele>101.5</ele><time>2026-04-09T07:53:52.694Z</time></trkpt><trkpt lat="43.722006" lon="12.9976552"><ele>100.75</ele><time>2026-04-09T07:53:53.694Z</time></trkpt><trkpt lat="43.7219832" lon="12.9974945"><ele>100.0</ele><time>2026-04-09T07:53:54.694Z</time></trkpt><trkpt lat="43.7219702" lon="12.9973322"><ele>98.25</ele><time>2026-04-09T07:53:55.695Z</time></trkpt><trkpt lat="43.7219628" lon="12.9971736"><ele>96.5</ele><time>2026-04-09T07:53:56.694Z</time></trkpt><trkpt lat="43.7219707" lon="12.9970132"><ele>94.75</ele><time>2026-04-09T07:53:57.695Z</time></trkpt><trkpt lat="43.7219863" lon="12.9968515"><ele>93.0</ele><time>2026-04-09T07:53:58.695Z</time></trkpt><trkpt lat="43.7220108" lon="12.9966881"><ele>92.0</ele><time>2026-04-09T07:53:59.695Z</time></trkpt><trkpt lat="43.7220427" lon="12.9965227"><ele>91.0</ele><time>2026-04-09T07:54:00.695Z</time></trkpt><trkpt lat="43.7220648" lon="12.9963572"><ele>90.0</ele><time>2026-04-09T07:54:01.695Z</time></trkpt><trkpt lat="43.722064" lon="12.9961937"><ele>89.0</ele><time>2026-04-09T07:54:02.694Z</time></trkpt><trkpt lat="43.7220457" lon="12.9960297"><ele>89.0</ele><time>2026-04-09T07:54:03.695Z</time></trkpt><trkpt lat="43.7220203" lon="12.9958673"><ele>89.0</ele><time>2026-04-09T07:54:04.694Z</time></trkpt><trkpt lat="43.7219879" lon="12.9957118"><ele>89.0</ele><time>2026-04-09T07:54:05.694Z</time></trkpt><trkpt lat="43.7219381" lon="12.9955718"><ele>89.0</ele><time>2026-04-09T07:54:06.694Z</time></trkpt><trkpt lat="43.7218703" lon="12.9954418"><ele>89.0</ele><time>2026-04-09T07:54:07.695Z</time></trkpt><trkpt lat="43.7217969" lon="12.9953135"><ele>89.0</ele><time>2026-04-09T07:54:08.694Z</time></trkpt><trkpt lat="43.7217325" lon="12.995176"><ele>89.0</ele><time>2026-04-09T07:54:09.695Z</time></trkpt><trkpt lat="43.7216819" lon="12.9950309"><ele>89.0</ele><time>2026-04-09T07:54:10.695Z</time></trkpt><trkpt lat="43.7216445" lon="12.9948757"><ele>89.0</ele><time>2026-04-09T07:54:11.695Z</time></trkpt><trkpt lat="43.7216191" lon="12.9947061"><ele>89.0</ele><time>2026-04-09T07:54:12.694Z</time></trkpt><trkpt lat="43.7216084" lon="12.9945314"><ele>89.0</ele><time>2026-04-09T07:54:13.695Z</time></trkpt><trkpt lat="43.7216195" lon="12.9943502"><ele>89.0</ele><time>2026-04-09T07:54:14.695Z</time></trkpt><trkpt lat="43.7216497" lon="12.9941668"><ele>89.0</ele><time>2026-04-09T07:54:15.695Z</time></trkpt><trkpt lat="43.721694" lon="12.9939876"><ele>89.0</ele><time>2026-04-09T07:54:16.695Z</time></trkpt><trkpt lat="43.7217299" lon="12.9937973"><ele>89.0</ele><time>2026-04-09T07:54:17.694Z</time></trkpt><trkpt lat="43.7217554" lon="12.9935894"><ele>89.0</ele><time>2026-04-09T07:54:18.695Z</time></trkpt><trkpt lat="43.7217769" lon="12.9933686"><ele>90.0</ele><time>2026-04-09T07:54:19.695Z</time></trkpt><trkpt lat="43.7217904" lon="12.9931386"><ele>91.0</ele><time>2026-04-09T07:54:20.694Z</time></trkpt><trkpt lat="43.7217963" lon="12.9929057"><ele>92.0</ele><time>2026-04-09T07:54:21.694Z</time></trkpt><trkpt lat="43.7217859" lon="12.9926685"><ele>93.66666666666667</ele><time>2026-04-09T07:54:22.695Z</time></trkpt><trkpt lat="43.721765" lon="12.9924303"><ele>95.33333333333334</ele><time>2026-04-09T07:54:23.694Z</time></trkpt><trkpt lat="43.7217452" lon="12.9921948"><ele>97.0</ele><time>2026-04-09T07:54:24.694Z</time></trkpt><trkpt lat="43.7217272" lon="12.9919632"><ele>97.0</ele><time>2026-04-09T07:54:25.695Z</time></trkpt><trkpt lat="43.7217113" lon="12.9917266"><ele>97.0</ele><time>2026-04-09T07:54:26.694Z</time></trkpt><trkpt lat="43.7217063" lon="12.991502"><ele>97.0</ele><time>2026-04-09T07:54:27.695Z</time></trkpt><trkpt lat="43.7217109" lon="12.9912718"><ele>99.0</ele><time>2026-04-09T07:54:28.694Z</time></trkpt><trkpt lat="43.7217216" lon="12.9910335"><ele>101.0</ele><time>2026-04-09T07:54:29.694Z</time></trkpt><trkpt lat="43.7217361" lon="12.9908028"><ele>103.0</ele><time>2026-04-09T07:54:30.695Z</time></trkpt><trkpt lat="43.7217358" lon="12.99058"><ele>106.0</ele><time>2026-04-09T07:54:31.694Z</time></trkpt><trkpt lat="43.7217171" lon="12.990363"><ele>109.0</ele><time>2026-04-09T07:54:32.695Z</time></trkpt><trkpt lat="43.7216798" lon="12.9901339"><ele>112.0</ele><time>2026-04-09T07:54:33.695Z</time></trkpt><trkpt lat="43.7216282" lon="12.9898987"><ele>114.5</ele><time>2026-04-09T07:54:34.694Z</time></trkpt><trkpt lat="43.7215745" lon="12.9896764"><ele>117.0</ele><time>2026-04-09T07:54:35.694Z</time></trkpt><trkpt lat="43.7215231" lon="12.9894899"><ele>119.5</ele><time>2026-04-09T07:54:36.694Z</time></trkpt><trkpt lat="43.721476" lon="12.9893214"><ele>122.0</ele><time>2026-04-09T07:54:37.695Z</time></trkpt><trkpt lat="43.721439" lon="12.9891434"><ele>124.5</ele><time>2026-04-09T07:54:38.694Z</time></trkpt><trkpt lat="43.7214198" lon="12.9889482"><ele>127.0</ele><time>2026-04-09T07:54:39.694Z</time></trkpt><trkpt lat="43.7214128" lon="12.9887341"><ele>129.5</ele><time>2026-04-09T07:54:40.695Z</time></trkpt><trkpt lat="43.7214133" lon="12.9885248"><ele>132.0</ele><time>2026-04-09T07:54:41.694Z</time></trkpt><trkpt lat="43.7214122" lon="12.9883403"><ele>134.0</ele><time>2026-04-09T07:54:42.694Z</time></trkpt><trkpt lat="43.7214056" lon="12.988182"><ele>136.0</ele><time>2026-04-09T07:54:43.695Z</time></trkpt><trkpt lat="43.7213876" lon="12.9880399"><ele>138.0</ele><time>2026-04-09T07:54:44.694Z</time></trkpt><trkpt lat="43.721342" lon="12.9879191"><ele>140.0</ele><time>2026-04-09T07:54:45.694Z</time></trkpt><trkpt lat="43.7212822" lon="12.987827"><ele>142.0</ele><time>2026-04-09T07:54:46.694Z</time></trkpt><trkpt lat="43.721228" lon="12.9877548"><ele>142.0</ele><time>2026-04-09T07:54:47.694Z</time></trkpt><trkpt lat="43.7211819" lon="12.9876344"><ele>142.0</ele><time>2026-04-09T07:54:49.695Z</time></trkpt><trkpt lat="43.7211127" lon="12.9874726"><ele>142.0</ele><time>2026-04-09T07:54:51.695Z</time></trkpt><trkpt lat="43.7210559" lon="12.9873513"><ele>142.0</ele><time>2026-04-09T07:54:52.694Z</time></trkpt><trkpt lat="43.7209875" lon="12.9872"><ele>141.5</ele><time>2026-04-09T07:54:53.694Z</time></trkpt><trkpt lat="43.7209234" lon="12.9870365"><ele>141.0</ele><time>2026-04-09T07:54:54.694Z</time></trkpt><trkpt lat="43.7208674" lon="12.9868665"><ele>140.5</ele><time>2026-04-09T07:54:55.694Z</time></trkpt><trkpt lat="43.720828" lon="12.9866873"><ele>140.0</ele><time>2026-04-09T07:54:56.694Z</time></trkpt><trkpt lat="43.7208004" lon="12.9864846"><ele>144.0</ele><time>2026-04-09T07:54:57.694Z</time></trkpt><trkpt lat="43.7207662" lon="12.9862681"><ele>148.0</ele><time>2026-04-09T07:54:58.694Z</time></trkpt><trkpt lat="43.7207333" lon="12.9860445"><ele>152.0</ele><time>2026-04-09T07:54:59.695Z</time></trkpt><trkpt lat="43.7206897" lon="12.9858254"><ele>155.33333333333331</ele><time>2026-04-09T07:55:00.695Z</time></trkpt><trkpt lat="43.7206481" lon="12.9855973"><ele>158.66666666666666</ele><time>2026-04-09T07:55:01.694Z</time></trkpt><trkpt lat="43.7206037" lon="12.9853783"><ele>162.0</ele><time>2026-04-09T07:55:02.694Z</time></trkpt><trkpt lat="43.7205602" lon="12.9851601"><ele>162.66666666666666</ele><time>2026-04-09T07:55:03.694Z</time></trkpt><trkpt lat="43.7205219" lon="12.9849434"><ele>163.33333333333331</ele><time>2026-04-09T07:55:04.694Z</time></trkpt><trkpt lat="43.7204846" lon="12.9847318"><ele>164.0</ele><time>2026-04-09T07:55:05.694Z</time></trkpt><trkpt lat="43.7204461" lon="12.9845284"><ele>164.0</ele><time>2026-04-09T07:55:06.694Z</time></trkpt><trkpt lat="43.7203972" lon="12.984338"><ele>164.0</ele><time>2026-04-09T07:55:07.695Z</time></trkpt><trkpt lat="43.7203402" lon="12.984152"><ele>164.0</ele><time>2026-04-09T07:55:08.694Z</time></trkpt><trkpt lat="43.7202619" lon="12.9839644"><ele>164.0</ele><time>2026-04-09T07:55:09.694Z</time></trkpt><trkpt lat="43.720179" lon="12.9837819"><ele>168.0</ele><time>2026-04-09T07:55:10.695Z</time></trkpt><trkpt lat="43.7200864" lon="12.9836058"><ele>172.0</ele><time>2026-04-09T07:55:11.694Z</time></trkpt><trkpt lat="43.7199714" lon="12.9834094"><ele>176.0</ele><time>2026-04-09T07:55:12.695Z</time></trkpt><trkpt lat="43.7198453" lon="12.9832103"><ele>178.0</ele><time>2026-04-09T07:55:13.694Z</time></trkpt><trkpt lat="43.7197221" lon="12.9830182"><ele>180.0</ele><time>2026-04-09T07:55:14.695Z</time></trkpt><trkpt lat="43.7196073" lon="12.9828402"><ele>182.0</ele><time>2026-04-09T07:55:15.695Z</time></trkpt><trkpt lat="43.719488" lon="12.9826602"><ele>185.0</ele><time>2026-04-09T07:55:16.694Z</time></trkpt><trkpt lat="43.7193721" lon="12.9824766"><ele>188.0</ele><time>2026-04-09T07:55:17.695Z</time></trkpt><trkpt lat="43.7192541" lon="12.9822885"><ele>191.0</ele><time>2026-04-09T07:55:18.694Z</time></trkpt><trkpt lat="43.7191353" lon="12.9821057"><ele>191.0</ele><time>2026-04-09T07:55:19.695Z</time></trkpt><trkpt lat="43.7190313" lon="12.981934"><ele>191.0</ele><time>2026-04-09T07:55:20.694Z</time></trkpt><trkpt lat="43.718948" lon="12.9817712"><ele>191.0</ele><time>2026-04-09T07:55:21.695Z</time></trkpt><trkpt lat="43.7188897" lon="12.9816043"><ele>191.0</ele><time>2026-04-09T07:55:22.694Z</time></trkpt><trkpt lat="43.7188494" lon="12.9814477"><ele>192.8</ele><time>2026-04-09T07:55:23.695Z</time></trkpt><trkpt lat="43.7188155" lon="12.981317"><ele>194.60000000000002</ele><time>2026-04-09T07:55:24.695Z</time></trkpt><trkpt lat="43.7187891" lon="12.9812133"><ele>196.4</ele><time>2026-04-09T07:55:25.694Z</time></trkpt><trkpt lat="43.7187557" lon="12.9810711"><ele>198.2</ele><time>2026-04-09T07:55:27.694Z</time></trkpt><trkpt lat="43.7187266" lon="12.9809707"><ele>200.0</ele><time>2026-04-09T07:55:38.694Z</time></trkpt><trkpt lat="43.7186714" lon="12.9808414"><ele>201.0</ele><time>2026-04-09T07:55:40.695Z</time></trkpt><trkpt lat="43.7185981" lon="12.9807388"><ele>202.0</ele><time>2026-04-09T07:55:41.694Z</time></trkpt><trkpt lat="43.7185264" lon="12.9806457"><ele>203.0</ele><time>2026-04-09T07:55:42.695Z</time></trkpt><trkpt lat="43.7184565" lon="12.9805502"><ele>204.0</ele><time>2026-04-09T07:55:43.695Z</time></trkpt><trkpt lat="43.7183621" lon="12.9804377"><ele>205.0</ele><time>2026-04-09T07:55:44.694Z</time></trkpt><trkpt lat="43.7182834" lon="12.980331"><ele>206.0</ele><time>2026-04-09T07:55:45.694Z</time></trkpt><trkpt lat="43.7182029" lon="12.9802207"><ele>207.0</ele><time>2026-04-09T07:55:46.695Z</time></trkpt><trkpt lat="43.7181195" lon="12.9801099"><ele>208.0</ele><time>2026-04-09T07:55:47.694Z</time></trkpt><trkpt lat="43.7180373" lon="12.9800065"><ele>209.0</ele><time>2026-04-09T07:55:48.694Z</time></trkpt><trkpt lat="43.7179658" lon="12.9799059"><ele>210.0</ele><time>2026-04-09T07:55:49.694Z</time></trkpt><trkpt lat="43.7179006" lon="12.979801"><ele>210.0</ele><time>2026-04-09T07:55:50.694Z</time></trkpt><trkpt lat="43.717845" lon="12.9796995"><ele>210.0</ele><time>2026-04-09T07:55:51.695Z</time></trkpt><trkpt lat="43.7177962" lon="12.9795941"><ele>210.0</ele><time>2026-04-09T07:55:52.694Z</time></trkpt><trkpt lat="43.7177545" lon="12.9794918"><ele>210.0</ele><time>2026-04-09T07:55:53.694Z</time></trkpt><trkpt lat="43.7177182" lon="12.9793915"><ele>210.0</ele><time>2026-04-09T07:55:54.694Z</time></trkpt><trkpt lat="43.7176857" lon="12.979282"><ele>210.0</ele><time>2026-04-09T07:55:55.695Z</time></trkpt><trkpt lat="43.7176561" lon="12.9791794"><ele>210.33333333333334</ele><time>2026-04-09T07:55:56.694Z</time></trkpt><trkpt lat="43.7176256" lon="12.9790671"><ele>210.66666666666669</ele><time>2026-04-09T07:55:57.694Z</time></trkpt><trkpt lat="43.7176057" lon="12.9789645"><ele>211.0</ele><time>2026-04-09T07:55:58.694Z</time></trkpt><trkpt lat="43.7175802" lon="12.9788701"><ele>211.33333333333334</ele><time>2026-04-09T07:55:59.694Z</time></trkpt><trkpt lat="43.7175556" lon="12.9787897"><ele>211.66666666666669</ele><time>2026-04-09T07:56:00.694Z</time></trkpt><trkpt lat="43.7175237" lon="12.9786596"><ele>212.0</ele><time>2026-04-09T07:56:02.694Z</time></trkpt><trkpt lat="43.7174829" lon="12.9785158"><ele>212.00000000000003</ele><time>2026-04-09T07:56:04.695Z</time></trkpt><trkpt lat="43.7174663" lon="12.978422"><ele>212.0</ele><time>2026-04-09T07:56:05.695Z</time></trkpt><trkpt lat="43.7174471" lon="12.9783273"><ele>212.0</ele><time>2026-04-09T07:56:06.695Z</time></trkpt><trkpt lat="43.7174275" lon="12.9782299"><ele>212.0</ele><time>2026-04-09T07:56:07.694Z</time></trkpt><trkpt lat="43.7174173" lon="12.9781223"><ele>212.00000000000003</ele><time>2026-04-09T07:56:08.694Z</time></trkpt><trkpt lat="43.7174126" lon="12.9780133"><ele>212.0</ele><time>2026-04-09T07:56:09.694Z</time></trkpt><trkpt lat="43.717399" lon="12.9779022"><ele>211.85714285714286</ele><time>2026-04-09T07:56:10.694Z</time></trkpt><trkpt lat="43.7173892" lon="12.9777907"><ele>211.7142857142857</ele><time>2026-04-09T07:56:11.695Z</time></trkpt><trkpt lat="43.7173769" lon="12.977688"><ele>211.57142857142856</ele><time>2026-04-09T07:56:12.695Z</time></trkpt><trkpt lat="43.7173604" lon="12.9775841"><ele>211.42857142857144</ele><time>2026-04-09T07:56:13.695Z</time></trkpt><trkpt lat="43.7173587" lon="12.9774788"><ele>211.28571428571428</ele><time>2026-04-09T07:56:14.694Z</time></trkpt><trkpt lat="43.7173502" lon="12.9773763"><ele>211.14285714285714</ele><time>2026-04-09T07:56:15.695Z</time></trkpt><trkpt lat="43.7173481" lon="12.9772885"><ele>211.0</ele><time>2026-04-09T07:56:16.695Z</time></trkpt><trkpt lat="43.7173406" lon="12.9771061"><ele>210.16666666666666</ele><time>2026-04-09T07:56:18.694Z</time></trkpt><trkpt lat="43.7173361" lon="12.9770121"><ele>209.33333333333331</ele><time>2026-04-09T07:56:19.695Z</time></trkpt><trkpt lat="43.7173255" lon="12.9769114"><ele>208.5</ele><time>2026-04-09T07:56:20.695Z</time></trkpt><trkpt lat="43.7173091" lon="12.9768096"><ele>207.66666666666669</ele><time>2026-04-09T07:56:21.694Z</time></trkpt><trkpt lat="43.717294" lon="12.9767092"><ele>206.83333333333334</ele><time>2026-04-09T07:56:22.695Z</time></trkpt><trkpt lat="43.717266" lon="12.9766113"><ele>206.0</ele><time>2026-04-09T07:56:23.695Z</time></trkpt><trkpt lat="43.717225" lon="12.9764808"><ele>205.50000000000003</ele><time>2026-04-09T07:56:25.694Z</time></trkpt><trkpt lat="43.7171947" lon="12.9763908"><ele>205.0</ele><time>2026-04-09T07:56:27.695Z</time></trkpt><trkpt lat="43.7171714" lon="12.9762955"><ele>204.5</ele><time>2026-04-09T07:56:31.694Z</time></trkpt><trkpt lat="43.717136" lon="12.9761555"><ele>204.0</ele><time>2026-04-09T07:56:36.695Z</time></trkpt><trkpt lat="43.7171031" lon="12.9760709"><ele>203.50000000000003</ele><time>2026-04-09T07:56:37.694Z</time></trkpt><trkpt lat="43.7170594" lon="12.9759464"><ele>203.0</ele><time>2026-04-09T07:56:39.695Z</time></trkpt><trkpt lat="43.7170396" lon="12.9758601"><ele>203.0</ele><time>2026-04-09T07:56:41.694Z</time></trkpt><trkpt lat="43.7170219" lon="12.9757732"><ele>203.0</ele><time>2026-04-09T07:56:43.694Z</time></trkpt><trkpt lat="43.7169966" lon="12.9756887"><ele>203.0</ele><time>2026-04-09T07:56:45.695Z</time></trkpt><trkpt lat="43.7169698" lon="12.9755903"><ele>203.0</ele><time>2026-04-09T07:56:48.694Z</time></trkpt><trkpt lat="43.7169433" lon="12.9754745"><ele>203.0</ele><time>2026-04-09T07:56:51.694Z</time></trkpt><trkpt lat="43.7169251" lon="12.9753821"><ele>203.0</ele><time>2026-04-09T07:56:53.608Z</time></trkpt><trkpt lat="43.7169139" lon="12.9752752"><ele>203.0</ele><time>2026-04-09T07:56:55.703Z</time></trkpt><trkpt lat="43.7168967" lon="12.9751857"><ele>203.0</ele><time>2026-04-09T07:56:57.713Z</time></trkpt><trkpt lat="43.7168703" lon="12.9751029"><ele>203.0</ele><time>2026-04-09T07:57:00.723Z</time></trkpt><trkpt lat="43.7168544" lon="12.9749905"><ele>203.0</ele><time>2026-04-09T07:57:04.695Z</time></trkpt><trkpt lat="43.7168561" lon="12.9748934"><ele>203.0</ele><time>2026-04-09T07:57:06.694Z</time></trkpt><trkpt lat="43.7169793" lon="12.9748518"><ele>203.0</ele><time>2026-04-09T07:57:08.695Z</time></trkpt><trkpt lat="43.7170861" lon="12.97481"><ele>202.60000000000002</ele><time>2026-04-09T07:57:10.695Z</time></trkpt><trkpt lat="43.717182" lon="12.97474"><ele>202.20000000000002</ele><time>2026-04-09T07:57:12.695Z</time></trkpt><trkpt lat="43.7172759" lon="12.9746741"><ele>201.8</ele><time>2026-04-09T07:57:14.694Z</time></trkpt><trkpt lat="43.7173622" lon="12.9746163"><ele>201.4</ele><time>2026-04-09T07:57:16.694Z</time></trkpt><trkpt lat="43.717425" lon="12.9745364"><ele>201.0</ele><time>2026-04-09T07:57:18.695Z</time></trkpt><trkpt lat="43.7174329" lon="12.9744007"><ele>201.0</ele><time>2026-04-09T07:57:20.694Z</time></trkpt><trkpt lat="43.7174209" lon="12.9742558"><ele>201.0</ele><time>2026-04-09T07:57:22.694Z</time></trkpt><trkpt lat="43.7174088" lon="12.9741019"><ele>201.0</ele><time>2026-04-09T07:57:24.694Z</time></trkpt><trkpt lat="43.7173967" lon="12.9739526"><ele>201.0</ele><time>2026-04-09T07:57:26.694Z</time></trkpt><trkpt lat="43.7173827" lon="12.9738195"><ele>201.0</ele><time>2026-04-09T07:57:28.694Z</time></trkpt><trkpt lat="43.7173623" lon="12.9736861"><ele>199.8</ele><time>2026-04-09T07:57:30.694Z</time></trkpt><trkpt lat="43.717337" lon="12.9735528"><ele>198.60000000000002</ele><time>2026-04-09T07:57:32.694Z</time></trkpt><trkpt lat="43.7173102" lon="12.9734236"><ele>197.4</ele><time>2026-04-09T07:57:34.695Z</time></trkpt><trkpt lat="43.7172818" lon="12.9732913"><ele>196.2</ele><time>2026-04-09T07:57:36.695Z</time></trkpt><trkpt lat="43.7172621" lon="12.973159"><ele>195.0</ele><time>2026-04-09T07:57:38.694Z</time></trkpt><trkpt lat="43.7172442" lon="12.9730674"><ele>193.85714285714286</ele><time>2026-04-09T07:57:39.694Z</time></trkpt><trkpt lat="43.7172276" lon="12.9729766"><ele>192.71428571428572</ele><time>2026-04-09T07:57:40.695Z</time></trkpt><trkpt lat="43.7172075" lon="12.9728846"><ele>191.57142857142856</ele><time>2026-04-09T07:57:41.695Z</time></trkpt><trkpt lat="43.7171962" lon="12.9727954"><ele>190.42857142857144</ele><time>2026-04-09T07:57:42.694Z</time></trkpt><trkpt lat="43.7171861" lon="12.9726924"><ele>189.2857142857143</ele><time>2026-04-09T07:57:43.694Z</time></trkpt><trkpt lat="43.717181" lon="12.9725877"><ele>188.14285714285714</ele><time>2026-04-09T07:57:44.694Z</time></trkpt><trkpt lat="43.7171808" lon="12.9724834"><ele>187.0</ele><time>2026-04-09T07:57:45.694Z</time></trkpt><trkpt lat="43.7171807" lon="12.9723806"><ele>185.5</ele><time>2026-04-09T07:57:46.694Z</time></trkpt><trkpt lat="43.7171757" lon="12.9722714"><ele>184.0</ele><time>2026-04-09T07:57:47.695Z</time></trkpt><trkpt lat="43.7171754" lon="12.9721615"><ele>182.5</ele><time>2026-04-09T07:57:48.695Z</time></trkpt><trkpt lat="43.717172" lon="12.9720507"><ele>181.0</ele><time>2026-04-09T07:57:49.695Z</time></trkpt><trkpt lat="43.7171771" lon="12.9719405"><ele>179.5</ele><time>2026-04-09T07:57:50.694Z</time></trkpt><trkpt lat="43.7171806" lon="12.9718331"><ele>178.0</ele><time>2026-04-09T07:57:51.694Z</time></trkpt><trkpt lat="43.7171836" lon="12.9717283"><ele>175.83333333333334</ele><time>2026-04-09T07:57:52.694Z</time></trkpt><trkpt lat="43.7171946" lon="12.9716237"><ele>173.66666666666669</ele><time>2026-04-09T07:57:53.695Z</time></trkpt><trkpt lat="43.7172106" lon="12.9715211"><ele>171.5</ele><time>2026-04-09T07:57:54.695Z</time></trkpt><trkpt lat="43.717235" lon="12.9714178"><ele>169.33333333333334</ele><time>2026-04-09T07:57:55.694Z</time></trkpt><trkpt lat="43.7172638" lon="12.9713062"><ele>167.16666666666666</ele><time>2026-04-09T07:57:56.694Z</time></trkpt><trkpt lat="43.7172931" lon="12.9711996"><ele>165.0</ele><time>2026-04-09T07:57:57.695Z</time></trkpt><trkpt lat="43.7173248" lon="12.9711053"><ele>165.0</ele><time>2026-04-09T07:57:58.694Z</time></trkpt><trkpt lat="43.717369" lon="12.9710222"><ele>165.0</ele><time>2026-04-09T07:57:59.694Z</time></trkpt><trkpt lat="43.7174216" lon="12.970944"><ele>165.0</ele><time>2026-04-09T07:58:00.695Z</time></trkpt><trkpt lat="43.7174743" lon="12.9708683"><ele>165.0</ele><time>2026-04-09T07:58:01.695Z</time></trkpt><trkpt lat="43.7175278" lon="12.9707959"><ele>165.0</ele><time>2026-04-09T07:58:02.695Z</time></trkpt><trkpt lat="43.7175861" lon="12.9707251"><ele>165.0</ele><time>2026-04-09T07:58:03.694Z</time></trkpt><trkpt lat="43.7176444" lon="12.9706566"><ele>163.0</ele><time>2026-04-09T07:58:04.695Z</time></trkpt><trkpt lat="43.7177003" lon="12.9705893"><ele>161.0</ele><time>2026-04-09T07:58:05.695Z</time></trkpt><trkpt lat="43.7177513" lon="12.9705295"><ele>159.0</ele><time>2026-04-09T07:58:06.695Z</time></trkpt><trkpt lat="43.7178237" lon="12.9704048"><ele>157.0</ele><time>2026-04-09T07:58:08.695Z</time></trkpt><trkpt lat="43.7178724" lon="12.9702669"><ele>155.0</ele><time>2026-04-09T07:58:10.694Z</time></trkpt><trkpt lat="43.7178711" lon="12.9701035"><ele>152.83333333333331</ele><time>2026-04-09T07:58:12.695Z</time></trkpt><trkpt lat="43.7178446" lon="12.9699288"><ele>150.66666666666666</ele><time>2026-04-09T07:58:14.695Z</time></trkpt><trkpt lat="43.7178245" lon="12.9698373"><ele>148.5</ele><time>2026-04-09T07:58:15.694Z</time></trkpt><trkpt lat="43.7178019" lon="12.9697442"><ele>146.33333333333334</ele><time>2026-04-09T07:58:16.694Z</time></trkpt><trkpt lat="43.7177799" lon="12.9696515"><ele>144.16666666666669</ele><time>2026-04-09T07:58:17.695Z</time></trkpt><trkpt lat="43.7177609" lon="12.9695655"><ele>142.0</ele><time>2026-04-09T07:58:18.694Z</time></trkpt><trkpt lat="43.717739" lon="12.9694805"><ele>142.66666666666669</ele><time>2026-04-09T07:58:19.694Z</time></trkpt><trkpt lat="43.7177132" lon="12.9693962"><ele>143.33333333333334</ele><time>2026-04-09T07:58:20.695Z</time></trkpt><trkpt lat="43.7176824" lon="12.9693119"><ele>144.0</ele><time>2026-04-09T07:58:21.694Z</time></trkpt><trkpt lat="43.7176583" lon="12.9692311"><ele>144.66666666666666</ele><time>2026-04-09T07:58:22.694Z</time></trkpt><trkpt lat="43.7176032" lon="12.9690798"><ele>145.33333333333331</ele><time>2026-04-09T07:58:24.695Z</time></trkpt><trkpt lat="43.717578" lon="12.9689978"><ele>146.0</ele><time>2026-04-09T07:58:25.694Z</time></trkpt><trkpt lat="43.7175501" lon="12.9689139"><ele>144.28571428571428</ele><time>2026-04-09T07:58:26.694Z</time></trkpt><trkpt lat="43.7175223" lon="12.9688306"><ele>142.57142857142858</ele><time>2026-04-09T07:58:27.695Z</time></trkpt><trkpt lat="43.7175033" lon="12.9687473"><ele>140.85714285714286</ele><time>2026-04-09T07:58:28.694Z</time></trkpt><trkpt lat="43.717496" lon="12.9686564"><ele>139.14285714285714</ele><time>2026-04-09T07:58:29.695Z</time></trkpt><trkpt lat="43.7174905" lon="12.9685583"><ele>137.42857142857142</ele><time>2026-04-09T07:58:30.694Z</time></trkpt><trkpt lat="43.7174817" lon="12.9684552"><ele>135.71428571428572</ele><time>2026-04-09T07:58:31.695Z</time></trkpt><trkpt lat="43.7174814" lon="12.9683516"><ele>134.0</ele><time>2026-04-09T07:58:32.695Z</time></trkpt><trkpt lat="43.7174863" lon="12.968246"><ele>131.5</ele><time>2026-04-09T07:58:33.694Z</time></trkpt><trkpt lat="43.7174974" lon="12.9681379"><ele>129.0</ele><time>2026-04-09T07:58:34.695Z</time></trkpt><trkpt lat="43.7175145" lon="12.9680314"><ele>126.5</ele><time>2026-04-09T07:58:35.694Z</time></trkpt><trkpt lat="43.7175335" lon="12.9679224"><ele>124.0</ele><time>2026-04-09T07:58:36.694Z</time></trkpt><trkpt lat="43.7175516" lon="12.9678126"><ele>121.49999999999999</ele><time>2026-04-09T07:58:37.695Z</time></trkpt><trkpt lat="43.7175718" lon="12.9676979"><ele>119.0</ele><time>2026-04-09T07:58:38.694Z</time></trkpt><trkpt lat="43.7175903" lon="12.9675849"><ele>117.33333333333333</ele><time>2026-04-09T07:58:39.694Z</time></trkpt><trkpt lat="43.7176061" lon="12.9674798"><ele>115.66666666666666</ele><time>2026-04-09T07:58:40.694Z</time></trkpt><trkpt lat="43.7176162" lon="12.9673821"><ele>114.0</ele><time>2026-04-09T07:58:41.694Z</time></trkpt><trkpt lat="43.7176167" lon="12.9672804"><ele>112.33333333333334</ele><time>2026-04-09T07:58:42.694Z</time></trkpt><trkpt lat="43.7176008" lon="12.9671716"><ele>110.66666666666667</ele><time>2026-04-09T07:58:43.695Z</time></trkpt><trkpt lat="43.7175676" lon="12.9670593"><ele>109.0</ele><time>2026-04-09T07:58:44.695Z</time></trkpt><trkpt lat="43.7175206" lon="12.9669262"><ele>109.0</ele><time>2026-04-09T07:58:45.694Z</time></trkpt><trkpt lat="43.7174646" lon="12.9667606"><ele>109.0</ele><time>2026-04-09T07:58:46.695Z</time></trkpt><trkpt lat="43.7174081" lon="12.9665908"><ele>109.0</ele><time>2026-04-09T07:58:47.695Z</time></trkpt><trkpt lat="43.7173555" lon="12.9664231"><ele>109.0</ele><time>2026-04-09T07:58:48.695Z</time></trkpt><trkpt lat="43.717306" lon="12.9662626"><ele>109.6</ele><time>2026-04-09T07:58:49.695Z</time></trkpt><trkpt lat="43.7172689" lon="12.9661134"><ele>110.2</ele><time>2026-04-09T07:58:50.694Z</time></trkpt><trkpt lat="43.7172387" lon="12.9659724"><ele>110.79999999999998</ele><time>2026-04-09T07:58:51.694Z</time></trkpt><trkpt lat="43.7172047" lon="12.9658409"><ele>111.39999999999999</ele><time>2026-04-09T07:58:52.694Z</time></trkpt><trkpt lat="43.7171755" lon="12.965722"><ele>112.0</ele><time>2026-04-09T07:58:53.694Z</time></trkpt><trkpt lat="43.7171546" lon="12.9655978"><ele>112.6</ele><time>2026-04-09T07:58:54.694Z</time></trkpt><trkpt lat="43.7171539" lon="12.9654695"><ele>113.19999999999999</ele><time>2026-04-09T07:58:55.694Z</time></trkpt><trkpt lat="43.7171651" lon="12.9653343"><ele>113.8</ele><time>2026-04-09T07:58:56.694Z</time></trkpt><trkpt lat="43.7171822" lon="12.9652053"><ele>114.4</ele><time>2026-04-09T07:58:57.694Z</time></trkpt><trkpt lat="43.717198" lon="12.9650861"><ele>115.0</ele><time>2026-04-09T07:58:58.695Z</time></trkpt><trkpt lat="43.7172162" lon="12.9649714"><ele>116.00000000000001</ele><time>2026-04-09T07:58:59.695Z</time></trkpt><trkpt lat="43.7172309" lon="12.9648642"><ele>117.0</ele><time>2026-04-09T07:59:00.694Z</time></trkpt><trkpt lat="43.7172436" lon="12.9647596"><ele>118.0</ele><time>2026-04-09T07:59:01.695Z</time></trkpt><trkpt lat="43.7172548" lon="12.9646553"><ele>119.0</ele><time>2026-04-09T07:59:02.695Z</time></trkpt><trkpt lat="43.7172766" lon="12.9645494"><ele>120.00000000000001</ele><time>2026-04-09T07:59:03.695Z</time></trkpt><trkpt lat="43.7173059" lon="12.9644426"><ele>121.0</ele><time>2026-04-09T07:59:04.695Z</time></trkpt><trkpt lat="43.717341" lon="12.9643364"><ele>121.00000000000001</ele><time>2026-04-09T07:59:05.695Z</time></trkpt><trkpt lat="43.717383" lon="12.964236"><ele>121.0</ele><time>2026-04-09T07:59:06.695Z</time></trkpt><trkpt lat="43.7174226" lon="12.9641345"><ele>121.0</ele><time>2026-04-09T07:59:07.694Z</time></trkpt><trkpt lat="43.7174615" lon="12.9640258"><ele>121.0</ele><time>2026-04-09T07:59:08.694Z</time></trkpt><trkpt lat="43.7174989" lon="12.9639125"><ele>121.00000000000001</ele><time>2026-04-09T07:59:09.694Z</time></trkpt><trkpt lat="43.7175319" lon="12.9638014"><ele>121.0</ele><time>2026-04-09T07:59:10.695Z</time></trkpt><trkpt lat="43.7175586" lon="12.9636779"><ele>122.16666666666667</ele><time>2026-04-09T07:59:11.695Z</time></trkpt><trkpt lat="43.7175834" lon="12.9635478"><ele>123.33333333333334</ele><time>2026-04-09T07:59:12.694Z</time></trkpt><trkpt lat="43.7176066" lon="12.9634182"><ele>124.5</ele><time>2026-04-09T07:59:13.694Z</time></trkpt><trkpt lat="43.7176282" lon="12.9632922"><ele>125.66666666666666</ele><time>2026-04-09T07:59:14.694Z</time></trkpt><trkpt lat="43.7176454" lon="12.9631837"><ele>126.83333333333333</ele><time>2026-04-09T07:59:15.695Z</time></trkpt><trkpt lat="43.717666" lon="12.963086"><ele>128.0</ele><time>2026-04-09T07:59:16.694Z</time></trkpt><trkpt lat="43.7177011" lon="12.9629757"><ele>127.83333333333333</ele><time>2026-04-09T07:59:17.694Z</time></trkpt><trkpt lat="43.7177344" lon="12.9628566"><ele>127.66666666666666</ele><time>2026-04-09T07:59:18.694Z</time></trkpt><trkpt lat="43.7177658" lon="12.9627391"><ele>127.5</ele><time>2026-04-09T07:59:19.694Z</time></trkpt><trkpt lat="43.7178001" lon="12.9626246"><ele>127.33333333333334</ele><time>2026-04-09T07:59:20.694Z</time></trkpt><trkpt lat="43.7178335" lon="12.9625121"><ele>127.16666666666667</ele><time>2026-04-09T07:59:21.695Z</time></trkpt><trkpt lat="43.7178665" lon="12.9624045"><ele>127.0</ele><time>2026-04-09T07:59:22.694Z</time></trkpt><trkpt lat="43.7179004" lon="12.9622811"><ele>129.0</ele><time>2026-04-09T07:59:23.694Z</time></trkpt><trkpt lat="43.7179374" lon="12.9621521"><ele>131.0</ele><time>2026-04-09T07:59:24.695Z</time></trkpt><trkpt lat="43.7179693" lon="12.962033"><ele>133.0</ele><time>2026-04-09T07:59:25.694Z</time></trkpt><trkpt lat="43.7180028" lon="12.9619149"><ele>135.0</ele><time>2026-04-09T07:59:26.694Z</time></trkpt><trkpt lat="43.7180383" lon="12.9617961"><ele>137.0</ele><time>2026-04-09T07:59:27.694Z</time></trkpt><trkpt lat="43.7180776" lon="12.9616799"><ele>138.5</ele><time>2026-04-09T07:59:28.694Z</time></trkpt><trkpt lat="43.7181218" lon="12.9615734"><ele>140.0</ele><time>2026-04-09T07:59:29.694Z</time></trkpt><trkpt lat="43.71817" lon="12.9614683"><ele>141.5</ele><time>2026-04-09T07:59:30.694Z</time></trkpt><trkpt lat="43.7182199" lon="12.9613694"><ele>143.0</ele><time>2026-04-09T07:59:31.694Z</time></trkpt><trkpt lat="43.7182697" lon="12.9612877"><ele>144.5</ele><time>2026-04-09T07:59:32.694Z</time></trkpt><trkpt lat="43.7183197" lon="12.9612078"><ele>146.0</ele><time>2026-04-09T07:59:33.695Z</time></trkpt><trkpt lat="43.718371" lon="12.9611169"><ele>146.0</ele><time>2026-04-09T07:59:34.694Z</time></trkpt><trkpt lat="43.7184225" lon="12.9610241"><ele>146.0</ele><time>2026-04-09T07:59:35.694Z</time></trkpt><trkpt lat="43.718472" lon="12.9609337"><ele>146.0</ele><time>2026-04-09T07:59:36.694Z</time></trkpt><trkpt lat="43.7185192" lon="12.9608381"><ele>146.0</ele><time>2026-04-09T07:59:37.695Z</time></trkpt><trkpt lat="43.7185664" lon="12.9607442"><ele>146.0</ele><time>2026-04-09T07:59:38.695Z</time></trkpt><trkpt lat="43.7186173" lon="12.9606556"><ele>146.0</ele><time>2026-04-09T07:59:39.694Z</time></trkpt><trkpt lat="43.7186637" lon="12.9605653"><ele>147.0</ele><time>2026-04-09T07:59:40.694Z</time></trkpt><trkpt lat="43.7187046" lon="12.9604804"><ele>148.0</ele><time>2026-04-09T07:59:41.695Z</time></trkpt><trkpt lat="43.7187493" lon="12.9603965"><ele>149.0</ele><time>2026-04-09T07:59:42.694Z</time></trkpt><trkpt lat="43.7187929" lon="12.9603174"><ele>150.0</ele><time>2026-04-09T07:59:43.695Z</time></trkpt><trkpt lat="43.7188367" lon="12.9602433"><ele>151.0</ele><time>2026-04-09T07:59:44.695Z</time></trkpt><trkpt lat="43.7188851" lon="12.9601447"><ele>152.0</ele><time>2026-04-09T07:59:45.694Z</time></trkpt><trkpt lat="43.7189359" lon="12.9600279"><ele>153.5</ele><time>2026-04-09T07:59:46.694Z</time></trkpt><trkpt lat="43.7189827" lon="12.959914"><ele>155.0</ele><time>2026-04-09T07:59:47.694Z</time></trkpt><trkpt lat="43.7190242" lon="12.9598079"><ele>156.5</ele><time>2026-04-09T07:59:48.694Z</time></trkpt><trkpt lat="43.7190632" lon="12.9597088"><ele>158.0</ele><time>2026-04-09T07:59:49.694Z</time></trkpt><trkpt lat="43.7191065" lon="12.9596023"><ele>159.5</ele><time>2026-04-09T07:59:50.694Z</time></trkpt><trkpt lat="43.7191541" lon="12.959494"><ele>161.0</ele><time>2026-04-09T07:59:51.695Z</time></trkpt><trkpt lat="43.7192027" lon="12.9593836"><ele>161.0</ele><time>2026-04-09T07:59:52.694Z</time></trkpt><trkpt lat="43.7192538" lon="12.9592751"><ele>161.0</ele><time>2026-04-09T07:59:53.694Z</time></trkpt><trkpt lat="43.7193082" lon="12.9591658"><ele>161.0</ele><time>2026-04-09T07:59:54.695Z</time></trkpt><trkpt lat="43.7193619" lon="12.95905"><ele>161.0</ele><time>2026-04-09T07:59:55.694Z</time></trkpt><trkpt lat="43.7194144" lon="12.9589331"><ele>161.0</ele><time>2026-04-09T07:59:56.694Z</time></trkpt><trkpt lat="43.7194631" lon="12.9588173"><ele>161.8</ele><time>2026-04-09T07:59:57.694Z</time></trkpt><trkpt lat="43.7195063" lon="12.9586991"><ele>162.60000000000002</ele><time>2026-04-09T07:59:58.694Z</time></trkpt><trkpt lat="43.7195498" lon="12.9585798"><ele>163.4</ele><time>2026-04-09T07:59:59.694Z</time></trkpt><trkpt lat="43.7195979" lon="12.9584599"><ele>164.2</ele><time>2026-04-09T08:00:00.694Z</time></trkpt><trkpt lat="43.7196437" lon="12.9583429"><ele>165.0</ele><time>2026-04-09T08:00:01.694Z</time></trkpt><trkpt lat="43.7196896" lon="12.9582268"><ele>166.4</ele><time>2026-04-09T08:00:02.695Z</time></trkpt><trkpt lat="43.7197359" lon="12.958112"><ele>167.8</ele><time>2026-04-09T08:00:03.695Z</time></trkpt><trkpt lat="43.7197832" lon="12.9580084"><ele>169.2</ele><time>2026-04-09T08:00:04.695Z</time></trkpt><trkpt lat="43.7198354" lon="12.9579031"><ele>170.6</ele><time>2026-04-09T08:00:05.694Z</time></trkpt><trkpt lat="43.7198858" lon="12.9577891"><ele>172.0</ele><time>2026-04-09T08:00:06.694Z</time></trkpt><trkpt lat="43.7199304" lon="12.9576699"><ele>172.0</ele><time>2026-04-09T08:00:07.694Z</time></trkpt><trkpt lat="43.7199734" lon="12.9575492"><ele>172.0</ele><time>2026-04-09T08:00:08.694Z</time></trkpt><trkpt lat="43.7200135" lon="12.9574216"><ele>172.0</ele><time>2026-04-09T08:00:09.694Z</time></trkpt><trkpt lat="43.7200486" lon="12.9572885"><ele>172.0</ele><time>2026-04-09T08:00:10.695Z</time></trkpt><trkpt lat="43.7200764" lon="12.9571495"><ele>172.0</ele><time>2026-04-09T08:00:11.695Z</time></trkpt><trkpt lat="43.7201012" lon="12.957006"><ele>173.8</ele><time>2026-04-09T08:00:12.694Z</time></trkpt><trkpt lat="43.7201263" lon="12.9568588"><ele>175.6</ele><time>2026-04-09T08:00:13.694Z</time></trkpt><trkpt lat="43.7201539" lon="12.9567174"><ele>177.4</ele><time>2026-04-09T08:00:14.695Z</time></trkpt><trkpt lat="43.7201806" lon="12.9565812"><ele>179.20000000000002</ele><time>2026-04-09T08:00:15.694Z</time></trkpt><trkpt lat="43.7201994" lon="12.9564481"><ele>181.0</ele><time>2026-04-09T08:00:16.694Z</time></trkpt><trkpt lat="43.7202168" lon="12.9563153"><ele>180.75</ele><time>2026-04-09T08:00:17.694Z</time></trkpt><trkpt lat="43.7202382" lon="12.9561823"><ele>180.5</ele><time>2026-04-09T08:00:18.694Z</time></trkpt><trkpt lat="43.7202675" lon="12.9560213"><ele>180.25</ele><time>2026-04-09T08:00:19.695Z</time></trkpt><trkpt lat="43.7203029" lon="12.9558408"><ele>180.0</ele><time>2026-04-09T08:00:20.694Z</time></trkpt><trkpt lat="43.7203321" lon="12.9556697"><ele>182.5</ele><time>2026-04-09T08:00:21.695Z</time></trkpt><trkpt lat="43.7203533" lon="12.9555023"><ele>185.0</ele><time>2026-04-09T08:00:22.694Z</time></trkpt><trkpt lat="43.7203679" lon="12.955325"><ele>187.5</ele><time>2026-04-09T08:00:23.694Z</time></trkpt><trkpt lat="43.7203831" lon="12.955134"><ele>190.0</ele><time>2026-04-09T08:00:24.695Z</time></trkpt><trkpt lat="43.7204012" lon="12.9549519"><ele>192.5</ele><time>2026-04-09T08:00:25.695Z</time></trkpt><trkpt lat="43.7204181" lon="12.954788"><ele>195.0</ele><time>2026-04-09T08:00:26.694Z</time></trkpt><trkpt lat="43.7204438" lon="12.9546377"><ele>197.5</ele><time>2026-04-09T08:00:27.695Z</time></trkpt><trkpt lat="43.7204743" lon="12.9544917"><ele>200.0</ele><time>2026-04-09T08:00:28.695Z</time></trkpt><trkpt lat="43.7205018" lon="12.9543464"><ele>201.75</ele><time>2026-04-09T08:00:29.695Z</time></trkpt><trkpt lat="43.7205281" lon="12.9541966"><ele>203.5</ele><time>2026-04-09T08:00:30.694Z</time></trkpt><trkpt lat="43.7205607" lon="12.9540328"><ele>205.25</ele><time>2026-04-09T08:00:31.694Z</time></trkpt><trkpt lat="43.7205968" lon="12.9538688"><ele>207.0</ele><time>2026-04-09T08:00:32.695Z</time></trkpt><trkpt lat="43.720626" lon="12.9537369"><ele>207.0</ele><time>2026-04-09T08:00:33.695Z</time></trkpt><trkpt lat="43.7206473" lon="12.9536335"><ele>207.0</ele><time>2026-04-09T08:00:34.695Z</time></trkpt><trkpt lat="43.720668" lon="12.9535393"><ele>207.0</ele><time>2026-04-09T08:00:35.695Z</time></trkpt><trkpt lat="43.7206876" lon="12.9534484"><ele>207.0</ele><time>2026-04-09T08:00:36.695Z</time></trkpt><trkpt lat="43.7207309" lon="12.9533126"><ele>207.0</ele><time>2026-04-09T08:00:38.694Z</time></trkpt><trkpt lat="43.7208018" lon="12.9532416"><ele>207.0</ele><time>2026-04-09T08:00:41.695Z</time></trkpt><trkpt lat="43.720951" lon="12.9532749"><ele>208.8</ele><time>2026-04-09T08:00:43.694Z</time></trkpt><trkpt lat="43.7210482" lon="12.9533009"><ele>210.6</ele><time>2026-04-09T08:00:44.694Z</time></trkpt><trkpt lat="43.7211405" lon="12.9533147"><ele>212.40000000000003</ele><time>2026-04-09T08:00:45.694Z</time></trkpt><trkpt lat="43.7212355" lon="12.9533423"><ele>214.20000000000002</ele><time>2026-04-09T08:00:46.694Z</time></trkpt><trkpt lat="43.7213323" lon="12.9533733"><ele>216.0</ele><time>2026-04-09T08:00:47.694Z</time></trkpt><trkpt lat="43.7214287" lon="12.9534108"><ele>216.0</ele><time>2026-04-09T08:00:48.694Z</time></trkpt><trkpt lat="43.721535" lon="12.9534606"><ele>216.0</ele><time>2026-04-09T08:00:49.694Z</time></trkpt><trkpt lat="43.7216533" lon="12.953527"><ele>216.0</ele><time>2026-04-09T08:00:50.694Z</time></trkpt><trkpt lat="43.7217715" lon="12.9536019"><ele>216.0</ele><time>2026-04-09T08:00:51.694Z</time></trkpt><trkpt lat="43.7218812" lon="12.9536761"><ele>217.8</ele><time>2026-04-09T08:00:52.695Z</time></trkpt><trkpt lat="43.7219818" lon="12.9537443"><ele>219.60000000000002</ele><time>2026-04-09T08:00:53.694Z</time></trkpt><trkpt lat="43.7220791" lon="12.953811"><ele>221.4</ele><time>2026-04-09T08:00:54.695Z</time></trkpt><trkpt lat="43.7221788" lon="12.9538689"><ele>223.2</ele><time>2026-04-09T08:00:55.694Z</time></trkpt><trkpt lat="43.7222809" lon="12.9539218"><ele>225.0</ele><time>2026-04-09T08:00:56.694Z</time></trkpt><trkpt lat="43.722383" lon="12.9539816"><ele>225.0</ele><time>2026-04-09T08:00:57.695Z</time></trkpt><trkpt lat="43.7224832" lon="12.9540466"><ele>225.0</ele><time>2026-04-09T08:00:58.695Z</time></trkpt><trkpt lat="43.7225803" lon="12.9541312"><ele>225.0</ele><time>2026-04-09T08:00:59.695Z</time></trkpt><trkpt lat="43.7226652" lon="12.9542289"><ele>225.0</ele><time>2026-04-09T08:01:00.694Z</time></trkpt><trkpt lat="43.7227407" lon="12.9543378"><ele>225.0</ele><time>2026-04-09T08:01:01.695Z</time></trkpt><trkpt lat="43.7228121" lon="12.9544448"><ele>226.2</ele><time>2026-04-09T08:01:02.694Z</time></trkpt><trkpt lat="43.7228857" lon="12.9545437"><ele>227.4</ele><time>2026-04-09T08:01:03.694Z</time></trkpt><trkpt lat="43.7229638" lon="12.9546425"><ele>228.60000000000002</ele><time>2026-04-09T08:01:04.694Z</time></trkpt><trkpt lat="43.7230418" lon="12.954742"><ele>229.8</ele><time>2026-04-09T08:01:05.694Z</time></trkpt><trkpt lat="43.7231223" lon="12.9548425"><ele>231.0</ele><time>2026-04-09T08:01:06.695Z</time></trkpt><trkpt lat="43.7232024" lon="12.9549474"><ele>230.16666666666666</ele><time>2026-04-09T08:01:07.694Z</time></trkpt><trkpt lat="43.7232697" lon="12.9550462"><ele>229.33333333333331</ele><time>2026-04-09T08:01:08.695Z</time></trkpt><trkpt lat="43.7233234" lon="12.9551412"><ele>228.5</ele><time>2026-04-09T08:01:09.694Z</time></trkpt><trkpt lat="43.7233809" lon="12.955218"><ele>227.66666666666666</ele><time>2026-04-09T08:01:10.694Z</time></trkpt><trkpt lat="43.723435" lon="12.9552821"><ele>226.83333333333331</ele><time>2026-04-09T08:01:11.695Z</time></trkpt><trkpt lat="43.7235028" lon="12.9553647"><ele>226.0</ele><time>2026-04-09T08:01:13.694Z</time></trkpt><trkpt lat="43.7235542" lon="12.9552633"><ele>225.60000000000002</ele><time>2026-04-09T08:01:16.695Z</time></trkpt><trkpt lat="43.7235649" lon="12.9550835"><ele>225.20000000000002</ele><time>2026-04-09T08:01:18.694Z</time></trkpt><trkpt lat="43.7235742" lon="12.9549819"><ele>224.79999999999998</ele><time>2026-04-09T08:01:19.694Z</time></trkpt><trkpt lat="43.7235788" lon="12.9548713"><ele>224.39999999999998</ele><time>2026-04-09T08:01:20.694Z</time></trkpt><trkpt lat="43.7235764" lon="12.9547712"><ele>224.0</ele><time>2026-04-09T08:01:21.694Z</time></trkpt><trkpt lat="43.7235716" lon="12.9546149"><ele>224.00000000000003</ele><time>2026-04-09T08:01:23.694Z</time></trkpt><trkpt lat="43.7235658" lon="12.9544393"><ele>224.0</ele><time>2026-04-09T08:01:25.695Z</time></trkpt><trkpt lat="43.7235656" lon="12.9543413"><ele>224.0</ele><time>2026-04-09T08:01:26.694Z</time></trkpt><trkpt lat="43.7235659" lon="12.9542403"><ele>224.0</ele><time>2026-04-09T08:01:27.695Z</time></trkpt><trkpt lat="43.7235612" lon="12.9541477"><ele>224.00000000000003</ele><time>2026-04-09T08:01:28.694Z</time></trkpt><trkpt lat="43.7235624" lon="12.9540504"><ele>224.0</ele><time>2026-04-09T08:01:29.695Z</time></trkpt><trkpt lat="43.7235691" lon="12.9539555"><ele>222.85714285714286</ele><time>2026-04-09T08:01:30.695Z</time></trkpt><trkpt lat="43.7235556" lon="12.9538564"><ele>221.71428571428572</ele><time>2026-04-09T08:01:31.695Z</time></trkpt><trkpt lat="43.7235543" lon="12.9537661"><ele>220.57142857142856</ele><time>2026-04-09T08:01:32.694Z</time></trkpt><trkpt lat="43.7235464" lon="12.9536761"><ele>219.42857142857144</ele><time>2026-04-09T08:01:33.695Z</time></trkpt><trkpt lat="43.7235458" lon="12.9535869"><ele>218.28571428571428</ele><time>2026-04-09T08:01:34.694Z</time></trkpt><trkpt lat="43.7235553" lon="12.9534999"><ele>217.14285714285714</ele><time>2026-04-09T08:01:35.694Z</time></trkpt><trkpt lat="43.7235656" lon="12.9534086"><ele>216.0</ele><time>2026-04-09T08:01:36.694Z</time></trkpt><trkpt lat="43.7236005" lon="12.9533169"><ele>215.16666666666666</ele><time>2026-04-09T08:01:37.694Z</time></trkpt><trkpt lat="43.7236199" lon="12.9532182"><ele>214.33333333333331</ele><time>2026-04-09T08:01:38.695Z</time></trkpt><trkpt lat="43.7236402" lon="12.9531187"><ele>213.5</ele><time>2026-04-09T08:01:39.694Z</time></trkpt><trkpt lat="43.7236523" lon="12.9530217"><ele>212.66666666666666</ele><time>2026-04-09T08:01:40.694Z</time></trkpt><trkpt lat="43.7236713" lon="12.9529165"><ele>211.83333333333331</ele><time>2026-04-09T08:01:41.694Z</time></trkpt><trkpt lat="43.7236742" lon="12.9528033"><ele>211.0</ele><time>2026-04-09T08:01:42.695Z</time></trkpt><trkpt lat="43.7236819" lon="12.9526865"><ele>210.99999999999997</ele><time>2026-04-09T08:01:43.694Z</time></trkpt><trkpt lat="43.7236843" lon="12.9525748"><ele>211.0</ele><time>2026-04-09T08:01:44.695Z</time></trkpt><trkpt lat="43.723686" lon="12.9524616"><ele>211.0</ele><time>2026-04-09T08:01:45.694Z</time></trkpt><trkpt lat="43.7236787" lon="12.9523522"><ele>211.0</ele><time>2026-04-09T08:01:46.694Z</time></trkpt><trkpt lat="43.7236779" lon="12.9522457"><ele>210.99999999999997</ele><time>2026-04-09T08:01:47.694Z</time></trkpt><trkpt lat="43.7236726" lon="12.9521303"><ele>211.0</ele><time>2026-04-09T08:01:48.694Z</time></trkpt><trkpt lat="43.7236734" lon="12.9520146"><ele>210.16666666666666</ele><time>2026-04-09T08:01:49.695Z</time></trkpt><trkpt lat="43.7236821" lon="12.9519035"><ele>209.33333333333331</ele><time>2026-04-09T08:01:50.694Z</time></trkpt><trkpt lat="43.7236885" lon="12.951794"><ele>208.5</ele><time>2026-04-09T08:01:51.694Z</time></trkpt><trkpt lat="43.7236901" lon="12.9516793"><ele>207.66666666666669</ele><time>2026-04-09T08:01:52.695Z</time></trkpt><trkpt lat="43.7236963" lon="12.9515649"><ele>206.83333333333334</ele><time>2026-04-09T08:01:53.694Z</time></trkpt><trkpt lat="43.7236962" lon="12.9514516"><ele>206.0</ele><time>2026-04-09T08:01:54.694Z</time></trkpt><trkpt lat="43.7236989" lon="12.9513411"><ele>205.50000000000003</ele><time>2026-04-09T08:01:55.695Z</time></trkpt><trkpt lat="43.7236956" lon="12.9512273"><ele>205.0</ele><time>2026-04-09T08:01:56.694Z</time></trkpt><trkpt lat="43.7236967" lon="12.9511082"><ele>204.5</ele><time>2026-04-09T08:01:57.694Z</time></trkpt><trkpt lat="43.7236898" lon="12.9509873"><ele>204.0</ele><time>2026-04-09T08:01:58.694Z</time></trkpt><trkpt lat="43.7236849" lon="12.9508684"><ele>203.50000000000003</ele><time>2026-04-09T08:01:59.695Z</time></trkpt><trkpt lat="43.7236791" lon="12.9507485"><ele>203.0</ele><time>2026-04-09T08:02:00.694Z</time></trkpt><trkpt lat="43.7236743" lon="12.9506259"><ele>203.00000000000003</ele><time>2026-04-09T08:02:01.695Z</time></trkpt><trkpt lat="43.7236715" lon="12.9504979"><ele>203.0</ele><time>2026-04-09T08:02:02.694Z</time></trkpt><trkpt lat="43.723665" lon="12.9503796"><ele>203.0</ele><time>2026-04-09T08:02:03.694Z</time></trkpt><trkpt lat="43.7236635" lon="12.9502736"><ele>203.0</ele><time>2026-04-09T08:02:04.694Z</time></trkpt><trkpt lat="43.7236589" lon="12.9501724"><ele>203.00000000000003</ele><time>2026-04-09T08:02:05.694Z</time></trkpt><trkpt lat="43.7236553" lon="12.9500695"><ele>203.0</ele><time>2026-04-09T08:02:06.695Z</time></trkpt><trkpt lat="43.7236578" lon="12.9499674"><ele>202.57142857142858</ele><time>2026-04-09T08:02:07.695Z</time></trkpt><trkpt lat="43.7236599" lon="12.949872"><ele>202.14285714285714</ele><time>2026-04-09T08:02:08.695Z</time></trkpt><trkpt lat="43.7236564" lon="12.949783"><ele>201.71428571428572</ele><time>2026-04-09T08:02:09.694Z</time></trkpt><trkpt lat="43.7236598" lon="12.9496869"><ele>201.28571428571428</ele><time>2026-04-09T08:02:10.695Z</time></trkpt><trkpt lat="43.7236644" lon="12.9495942"><ele>200.85714285714286</ele><time>2026-04-09T08:02:11.694Z</time></trkpt><trkpt lat="43.7236735" lon="12.9495023"><ele>200.42857142857144</ele><time>2026-04-09T08:02:12.695Z</time></trkpt><trkpt lat="43.7236757" lon="12.9494031"><ele>200.0</ele><time>2026-04-09T08:02:13.694Z</time></trkpt><trkpt lat="43.7236832" lon="12.9493095"><ele>198.83333333333334</ele><time>2026-04-09T08:02:14.694Z</time></trkpt><trkpt lat="43.7236846" lon="12.9492062"><ele>197.66666666666669</ele><time>2026-04-09T08:02:15.695Z</time></trkpt><trkpt lat="43.7236945" lon="12.9491114"><ele>196.5</ele><time>2026-04-09T08:02:16.694Z</time></trkpt><trkpt lat="43.7236977" lon="12.9490083"><ele>195.33333333333331</ele><time>2026-04-09T08:02:17.694Z</time></trkpt><trkpt lat="43.7236989" lon="12.9489065"><ele>194.16666666666666</ele><time>2026-04-09T08:02:18.695Z</time></trkpt><trkpt lat="43.7236961" lon="12.9487992"><ele>193.0</ele><time>2026-04-09T08:02:19.695Z</time></trkpt><trkpt lat="43.7236894" lon="12.9486887"><ele>193.00000000000003</ele><time>2026-04-09T08:02:20.695Z</time></trkpt><trkpt lat="43.7236751" lon="12.9485815"><ele>193.0</ele><time>2026-04-09T08:02:21.694Z</time></trkpt><trkpt lat="43.7236612" lon="12.9484783"><ele>193.0</ele><time>2026-04-09T08:02:22.694Z</time></trkpt><trkpt lat="43.7236434" lon="12.9483815"><ele>193.0</ele><time>2026-04-09T08:02:23.694Z</time></trkpt><trkpt lat="43.7236231" lon="12.9482886"><ele>193.0</ele><time>2026-04-09T08:02:24.694Z</time></trkpt><trkpt lat="43.7236085" lon="12.9481965"><ele>193.00000000000003</ele><time>2026-04-09T08:02:25.694Z</time></trkpt><trkpt lat="43.7236074" lon="12.9481017"><ele>193.0</ele><time>2026-04-09T08:02:26.695Z</time></trkpt><trkpt lat="43.7236295" lon="12.9480083"><ele>191.00000000000003</ele><time>2026-04-09T08:02:27.694Z</time></trkpt><trkpt lat="43.7236708" lon="12.9479269"><ele>189.0</ele><time>2026-04-09T08:02:28.694Z</time></trkpt><trkpt lat="43.7237192" lon="12.9478543"><ele>187.0</ele><time>2026-04-09T08:02:29.694Z</time></trkpt><trkpt lat="43.7237771" lon="12.9477943"><ele>185.0</ele><time>2026-04-09T08:02:30.694Z</time></trkpt><trkpt lat="43.7238334" lon="12.9477423"><ele>183.0</ele><time>2026-04-09T08:02:31.694Z</time></trkpt><trkpt lat="43.7238817" lon="12.9476676"><ele>181.00000000000003</ele><time>2026-04-09T08:02:32.694Z</time></trkpt><trkpt lat="43.723921" lon="12.9475711"><ele>179.0</ele><time>2026-04-09T08:02:33.694Z</time></trkpt><trkpt lat="43.7239524" lon="12.9474689"><ele>178.2857142857143</ele><time>2026-04-09T08:02:34.694Z</time></trkpt><trkpt lat="43.7239771" lon="12.9473674"><ele>177.57142857142858</ele><time>2026-04-09T08:02:35.695Z</time></trkpt><trkpt lat="43.7239977" lon="12.9472645"><ele>176.85714285714286</ele><time>2026-04-09T08:02:36.694Z</time></trkpt><trkpt lat="43.7240124" lon="12.9471595"><ele>176.14285714285717</ele><time>2026-04-09T08:02:37.695Z</time></trkpt><trkpt lat="43.7240253" lon="12.947063"><ele>175.42857142857144</ele><time>2026-04-09T08:02:38.694Z</time></trkpt><trkpt lat="43.7240335" lon="12.9469648"><ele>174.71428571428572</ele><time>2026-04-09T08:02:39.694Z</time></trkpt><trkpt lat="43.7240392" lon="12.9468742"><ele>174.0</ele><time>2026-04-09T08:02:40.695Z</time></trkpt><trkpt lat="43.7240482" lon="12.9467817"><ele>173.66666666666666</ele><time>2026-04-09T08:02:41.694Z</time></trkpt><trkpt lat="43.7240744" lon="12.9466878"><ele>173.33333333333334</ele><time>2026-04-09T08:02:42.694Z</time></trkpt><trkpt lat="43.7241138" lon="12.9465987"><ele>173.0</ele><time>2026-04-09T08:02:43.695Z</time></trkpt><trkpt lat="43.724158" lon="12.9465116"><ele>172.66666666666669</ele><time>2026-04-09T08:02:44.695Z</time></trkpt><trkpt lat="43.7241986" lon="12.9464164"><ele>172.33333333333334</ele><time>2026-04-09T08:02:45.694Z</time></trkpt><trkpt lat="43.724233" lon="12.9463065"><ele>172.0</ele><time>2026-04-09T08:02:46.695Z</time></trkpt><trkpt lat="43.7242604" lon="12.9461812"><ele>172.0</ele><time>2026-04-09T08:02:47.694Z</time></trkpt><trkpt lat="43.7242773" lon="12.9460602"><ele>172.0</ele><time>2026-04-09T08:02:48.695Z</time></trkpt><trkpt lat="43.7242905" lon="12.9459497"><ele>172.0</ele><time>2026-04-09T08:02:49.694Z</time></trkpt><trkpt lat="43.7242971" lon="12.9458407"><ele>172.0</ele><time>2026-04-09T08:02:50.695Z</time></trkpt><trkpt lat="43.7242943" lon="12.94572"><ele>172.0</ele><time>2026-04-09T08:02:51.695Z</time></trkpt><trkpt lat="43.7242878" lon="12.9456017"><ele>172.0</ele><time>2026-04-09T08:02:52.695Z</time></trkpt><trkpt lat="43.7242777" lon="12.945485"><ele>171.0</ele><time>2026-04-09T08:02:53.695Z</time></trkpt><trkpt lat="43.7242753" lon="12.9453745"><ele>170.0</ele><time>2026-04-09T08:02:54.694Z</time></trkpt><trkpt lat="43.7242804" lon="12.9452646"><ele>169.0</ele><time>2026-04-09T08:02:55.694Z</time></trkpt><trkpt lat="43.7243004" lon="12.945157"><ele>168.0</ele><time>2026-04-09T08:02:56.694Z</time></trkpt><trkpt lat="43.7243304" lon="12.9450402"><ele>167.0</ele><time>2026-04-09T08:02:57.695Z</time></trkpt><trkpt lat="43.7243894" lon="12.9449368"><ele>166.0</ele><time>2026-04-09T08:02:58.695Z</time></trkpt><trkpt lat="43.7244508" lon="12.9448505"><ele>164.0</ele><time>2026-04-09T08:02:59.694Z</time></trkpt><trkpt lat="43.724507" lon="12.9447604"><ele>162.0</ele><time>2026-04-09T08:03:00.694Z</time></trkpt><trkpt lat="43.7245564" lon="12.9446647"><ele>160.0</ele><time>2026-04-09T08:03:01.695Z</time></trkpt><trkpt lat="43.7246037" lon="12.9445759"><ele>158.0</ele><time>2026-04-09T08:03:02.694Z</time></trkpt><trkpt lat="43.7246432" lon="12.9444859"><ele>156.0</ele><time>2026-04-09T08:03:03.694Z</time></trkpt><trkpt lat="43.7246794" lon="12.9443924"><ele>154.0</ele><time>2026-04-09T08:03:04.694Z</time></trkpt><trkpt lat="43.7247086" lon="12.9443015"><ele>154.0</ele><time>2026-04-09T08:03:05.694Z</time></trkpt><trkpt lat="43.7247278" lon="12.9442172"><ele>154.0</ele><time>2026-04-09T08:03:06.695Z</time></trkpt><trkpt lat="43.7247542" lon="12.9440707"><ele>154.0</ele><time>2026-04-09T08:03:08.695Z</time></trkpt><trkpt lat="43.7247793" lon="12.9438908"><ele>154.0</ele><time>2026-04-09T08:03:10.694Z</time></trkpt><trkpt lat="43.7247834" lon="12.9437713"><ele>154.0</ele><time>2026-04-09T08:03:11.694Z</time></trkpt><trkpt lat="43.7247922" lon="12.9436148"><ele>154.5</ele><time>2026-04-09T08:03:12.695Z</time></trkpt><trkpt lat="43.7248145" lon="12.9434522"><ele>155.0</ele><time>2026-04-09T08:03:13.694Z</time></trkpt><trkpt lat="43.7248355" lon="12.9432995"><ele>155.5</ele><time>2026-04-09T08:03:14.694Z</time></trkpt><trkpt lat="43.7248489" lon="12.9431328"><ele>156.0</ele><time>2026-04-09T08:03:15.694Z</time></trkpt><trkpt lat="43.7248569" lon="12.942968"><ele>156.75</ele><time>2026-04-09T08:03:16.694Z</time></trkpt><trkpt lat="43.7248499" lon="12.9428176"><ele>157.5</ele><time>2026-04-09T08:03:17.694Z</time></trkpt><trkpt lat="43.7248382" lon="12.9426632"><ele>158.25</ele><time>2026-04-09T08:03:18.694Z</time></trkpt><trkpt lat="43.7248179" lon="12.9424993"><ele>159.0</ele><time>2026-04-09T08:03:19.695Z</time></trkpt><trkpt lat="43.7247979" lon="12.9423363"><ele>159.0</ele><time>2026-04-09T08:03:20.694Z</time></trkpt><trkpt lat="43.7247773" lon="12.9421722"><ele>159.0</ele><time>2026-04-09T08:03:21.694Z</time></trkpt><trkpt lat="43.7247769" lon="12.9420294"><ele>159.0</ele><time>2026-04-09T08:03:22.695Z</time></trkpt><trkpt lat="43.7248102" lon="12.9419153"><ele>159.0</ele><time>2026-04-09T08:03:23.694Z</time></trkpt><trkpt lat="43.7248658" lon="12.9418056"><ele>159.0</ele><time>2026-04-09T08:03:24.695Z</time></trkpt><trkpt lat="43.7249284" lon="12.9416646"><ele>159.6</ele><time>2026-04-09T08:03:25.694Z</time></trkpt><trkpt lat="43.724984" lon="12.9414992"><ele>160.2</ele><time>2026-04-09T08:03:26.694Z</time></trkpt><trkpt lat="43.7250279" lon="12.9413457"><ele>160.79999999999998</ele><time>2026-04-09T08:03:27.694Z</time></trkpt><trkpt lat="43.7250714" lon="12.9412199"><ele>161.4</ele><time>2026-04-09T08:03:28.695Z</time></trkpt><trkpt lat="43.725111" lon="12.9411004"><ele>162.0</ele><time>2026-04-09T08:03:29.695Z</time></trkpt><trkpt lat="43.7251426" lon="12.9409825"><ele>163.0</ele><time>2026-04-09T08:03:30.694Z</time></trkpt><trkpt lat="43.7251611" lon="12.9408604"><ele>164.0</ele><time>2026-04-09T08:03:31.694Z</time></trkpt><trkpt lat="43.725165" lon="12.940735"><ele>165.0</ele><time>2026-04-09T08:03:32.694Z</time></trkpt><trkpt lat="43.7251507" lon="12.9406053"><ele>166.0</ele><time>2026-04-09T08:03:33.694Z</time></trkpt><trkpt lat="43.7251212" lon="12.940472"><ele>167.0</ele><time>2026-04-09T08:03:34.694Z</time></trkpt><trkpt lat="43.7250804" lon="12.9403286"><ele>167.0</ele><time>2026-04-09T08:03:35.694Z</time></trkpt><trkpt lat="43.7250416" lon="12.9401855"><ele>167.0</ele><time>2026-04-09T08:03:36.694Z</time></trkpt><trkpt lat="43.7250031" lon="12.9400479"><ele>167.0</ele><time>2026-04-09T08:03:37.695Z</time></trkpt><trkpt lat="43.7249666" lon="12.9399109"><ele>167.0</ele><time>2026-04-09T08:03:38.694Z</time></trkpt><trkpt lat="43.7249444" lon="12.9397699"><ele>167.0</ele><time>2026-04-09T08:03:39.694Z</time></trkpt><trkpt lat="43.7249369" lon="12.9396183"><ele>167.8</ele><time>2026-04-09T08:03:40.694Z</time></trkpt><trkpt lat="43.7249342" lon="12.939462"><ele>168.6</ele><time>2026-04-09T08:03:41.694Z</time></trkpt><trkpt lat="43.7249319" lon="12.9393085"><ele>169.4</ele><time>2026-04-09T08:03:42.695Z</time></trkpt><trkpt lat="43.7249406" lon="12.9391635"><ele>170.20000000000002</ele><time>2026-04-09T08:03:43.695Z</time></trkpt><trkpt lat="43.7249569" lon="12.939042"><ele>171.0</ele><time>2026-04-09T08:03:44.694Z</time></trkpt><trkpt lat="43.7249631" lon="12.9389331"><ele>171.0</ele><time>2026-04-09T08:03:45.694Z</time></trkpt><trkpt lat="43.7249661" lon="12.9388238"><ele>171.0</ele><time>2026-04-09T08:03:46.694Z</time></trkpt><trkpt lat="43.7249592" lon="12.9387194"><ele>171.0</ele><time>2026-04-09T08:03:47.695Z</time></trkpt><trkpt lat="43.7249392" lon="12.9386217"><ele>171.0</ele><time>2026-04-09T08:03:48.694Z</time></trkpt><trkpt lat="43.72491" lon="12.9385333"><ele>171.0</ele><time>2026-04-09T08:03:49.695Z</time></trkpt><trkpt lat="43.7248687" lon="12.9384476"><ele>171.0</ele><time>2026-04-09T08:03:50.694Z</time></trkpt><trkpt lat="43.7248138" lon="12.9383518"><ele>171.0</ele><time>2026-04-09T08:03:51.694Z</time></trkpt><trkpt lat="43.7247534" lon="12.9382482"><ele>171.0</ele><time>2026-04-09T08:03:52.695Z</time></trkpt><trkpt lat="43.7247038" lon="12.9381286"><ele>171.0</ele><time>2026-04-09T08:03:53.694Z</time></trkpt><trkpt lat="43.7246732" lon="12.9379935"><ele>171.0</ele><time>2026-04-09T08:03:54.695Z</time></trkpt><trkpt lat="43.724662" lon="12.9378468"><ele>171.0</ele><time>2026-04-09T08:03:55.695Z</time></trkpt><trkpt lat="43.7246886" lon="12.9377158"><ele>171.0</ele><time>2026-04-09T08:03:56.695Z</time></trkpt><trkpt lat="43.724716" lon="12.9375809"><ele>171.0</ele><time>2026-04-09T08:03:57.694Z</time></trkpt><trkpt lat="43.7247296" lon="12.937442"><ele>171.0</ele><time>2026-04-09T08:03:58.694Z</time></trkpt><trkpt lat="43.7247419" lon="12.9373044"><ele>171.0</ele><time>2026-04-09T08:03:59.694Z</time></trkpt><trkpt lat="43.724752" lon="12.9371597"><ele>171.0</ele><time>2026-04-09T08:04:00.695Z</time></trkpt><trkpt lat="43.7247653" lon="12.9370028"><ele>170.75</ele><time>2026-04-09T08:04:01.695Z</time></trkpt><trkpt lat="43.7247834" lon="12.9368338"><ele>170.5</ele><time>2026-04-09T08:04:02.694Z</time></trkpt><trkpt lat="43.7248083" lon="12.9366601"><ele>170.25</ele><time>2026-04-09T08:04:03.695Z</time></trkpt><trkpt lat="43.7248361" lon="12.9364818"><ele>170.0</ele><time>2026-04-09T08:04:04.694Z</time></trkpt><trkpt lat="43.724871" lon="12.9362993"><ele>169.25</ele><time>2026-04-09T08:04:05.694Z</time></trkpt><trkpt lat="43.7249075" lon="12.936116"><ele>168.5</ele><time>2026-04-09T08:04:06.694Z</time></trkpt><trkpt lat="43.7249387" lon="12.9359391"><ele>167.75</ele><time>2026-04-09T08:04:07.695Z</time></trkpt><trkpt lat="43.7249706" lon="12.9357671"><ele>167.0</ele><time>2026-04-09T08:04:08.694Z</time></trkpt><trkpt lat="43.7250015" lon="12.9355906"><ele>166.5</ele><time>2026-04-09T08:04:09.695Z</time></trkpt><trkpt lat="43.7250276" lon="12.9354121"><ele>166.0</ele><time>2026-04-09T08:04:10.694Z</time></trkpt><trkpt lat="43.7250557" lon="12.9352499"><ele>165.5</ele><time>2026-04-09T08:04:11.694Z</time></trkpt><trkpt lat="43.7250777" lon="12.9351058"><ele>165.0</ele><time>2026-04-09T08:04:12.694Z</time></trkpt><trkpt lat="43.7251024" lon="12.934983"><ele>165.0</ele><time>2026-04-09T08:04:13.695Z</time></trkpt><trkpt lat="43.7251161" lon="12.9348646"><ele>165.0</ele><time>2026-04-09T08:04:14.694Z</time></trkpt><trkpt lat="43.7251085" lon="12.9347304"><ele>165.0</ele><time>2026-04-09T08:04:15.695Z</time></trkpt><trkpt lat="43.7250841" lon="12.9346017"><ele>165.0</ele><time>2026-04-09T08:04:16.694Z</time></trkpt><trkpt lat="43.7250471" lon="12.9344819"><ele>165.0</ele><time>2026-04-09T08:04:17.694Z</time></trkpt><trkpt lat="43.7250053" lon="12.9343817"><ele>165.0</ele><time>2026-04-09T08:04:18.694Z</time></trkpt><trkpt lat="43.7249625" lon="12.9342948"><ele>165.0</ele><time>2026-04-09T08:04:19.694Z</time></trkpt><trkpt lat="43.7249145" lon="12.9342142"><ele>165.0</ele><time>2026-04-09T08:04:20.695Z</time></trkpt><trkpt lat="43.7248475" lon="12.9341404"><ele>165.0</ele><time>2026-04-09T08:04:21.694Z</time></trkpt><trkpt lat="43.7247618" lon="12.9340841"><ele>165.0</ele><time>2026-04-09T08:04:22.694Z</time></trkpt><trkpt lat="43.7246614" lon="12.9340427"><ele>165.0</ele><time>2026-04-09T08:04:23.694Z</time></trkpt><trkpt lat="43.7245487" lon="12.9340015"><ele>166.25</ele><time>2026-04-09T08:04:24.695Z</time></trkpt><trkpt lat="43.7244419" lon="12.9339579"><ele>167.5</ele><time>2026-04-09T08:04:25.694Z</time></trkpt><trkpt lat="43.7243334" lon="12.933912"><ele>168.75</ele><time>2026-04-09T08:04:26.694Z</time></trkpt><trkpt lat="43.7242237" lon="12.9338617"><ele>170.0</ele><time>2026-04-09T08:04:27.694Z</time></trkpt><trkpt lat="43.7241162" lon="12.9338062"><ele>170.0</ele><time>2026-04-09T08:04:28.695Z</time></trkpt><trkpt lat="43.7240104" lon="12.9337422"><ele>170.0</ele><time>2026-04-09T08:04:29.695Z</time></trkpt><trkpt lat="43.723903" lon="12.9336763"><ele>170.0</ele><time>2026-04-09T08:04:30.694Z</time></trkpt><trkpt lat="43.7237952" lon="12.9336151"><ele>170.0</ele><time>2026-04-09T08:04:31.695Z</time></trkpt><trkpt lat="43.7236935" lon="12.933556"><ele>170.0</ele><time>2026-04-09T08:04:32.695Z</time></trkpt><trkpt lat="43.7236013" lon="12.9334971"><ele>170.0</ele><time>2026-04-09T08:04:33.695Z</time></trkpt><trkpt lat="43.7235194" lon="12.933424"><ele>170.0</ele><time>2026-04-09T08:04:34.695Z</time></trkpt><trkpt lat="43.7234431" lon="12.9333292"><ele>170.0</ele><time>2026-04-09T08:04:35.695Z</time></trkpt><trkpt lat="43.7233668" lon="12.9332191"><ele>170.0</ele><time>2026-04-09T08:04:36.694Z</time></trkpt><trkpt lat="43.7232935" lon="12.9331146"><ele>171.33333333333331</ele><time>2026-04-09T08:04:37.694Z</time></trkpt><trkpt lat="43.7232305" lon="12.933012"><ele>172.66666666666666</ele><time>2026-04-09T08:04:38.694Z</time></trkpt><trkpt lat="43.7231771" lon="12.932933"><ele>174.0</ele><time>2026-04-09T08:04:39.695Z</time></trkpt><trkpt lat="43.7231411" lon="12.9328216"><ele>175.33333333333334</ele><time>2026-04-09T08:04:41.695Z</time></trkpt><trkpt lat="43.7231805" lon="12.9327112"><ele>176.66666666666669</ele><time>2026-04-09T08:04:43.694Z</time></trkpt><trkpt lat="43.7232315" lon="12.9326432"><ele>178.0</ele><time>2026-04-09T08:04:44.694Z</time></trkpt><trkpt lat="43.7232941" lon="12.9325573"><ele>180.25</ele><time>2026-04-09T08:04:45.694Z</time></trkpt><trkpt lat="43.7233709" lon="12.9324413"><ele>182.5</ele><time>2026-04-09T08:04:46.694Z</time></trkpt><trkpt lat="43.7234607" lon="12.932303"><ele>184.75</ele><time>2026-04-09T08:04:47.694Z</time></trkpt><trkpt lat="43.7235569" lon="12.932164"><ele>187.0</ele><time>2026-04-09T08:04:48.694Z</time></trkpt><trkpt lat="43.7236432" lon="12.9320351"><ele>188.2</ele><time>2026-04-09T08:04:49.695Z</time></trkpt><trkpt lat="43.7237194" lon="12.9319226"><ele>189.39999999999998</ele><time>2026-04-09T08:04:50.694Z</time></trkpt><trkpt lat="43.72379" lon="12.9318197"><ele>190.60000000000002</ele><time>2026-04-09T08:04:51.695Z</time></trkpt><trkpt lat="43.7238527" lon="12.9317244"><ele>191.8</ele><time>2026-04-09T08:04:52.695Z</time></trkpt><trkpt lat="43.7239095" lon="12.9316321"><ele>193.0</ele><time>2026-04-09T08:04:53.695Z</time></trkpt><trkpt lat="43.7239669" lon="12.9315508"><ele>193.33333333333331</ele><time>2026-04-09T08:04:54.694Z</time></trkpt><trkpt lat="43.7240259" lon="12.9314828"><ele>193.66666666666666</ele><time>2026-04-09T08:04:55.695Z</time></trkpt><trkpt lat="43.7240887" lon="12.9314277"><ele>194.0</ele><time>2026-04-09T08:04:56.695Z</time></trkpt><trkpt lat="43.7241613" lon="12.9313728"><ele>194.33333333333331</ele><time>2026-04-09T08:04:57.694Z</time></trkpt><trkpt lat="43.7242438" lon="12.9313229"><ele>194.66666666666666</ele><time>2026-04-09T08:04:58.695Z</time></trkpt><trkpt lat="43.7243315" lon="12.931281"><ele>195.0</ele><time>2026-04-09T08:04:59.694Z</time></trkpt><trkpt lat="43.7244272" lon="12.9312399"><ele>194.2</ele><time>2026-04-09T08:05:00.694Z</time></trkpt><trkpt lat="43.7245198" lon="12.9311832"><ele>193.4</ele><time>2026-04-09T08:05:01.694Z</time></trkpt><trkpt lat="43.7246045" lon="12.9311039"><ele>192.60000000000002</ele><time>2026-04-09T08:05:02.695Z</time></trkpt><trkpt lat="43.7246752" lon="12.9309903"><ele>191.8</ele><time>2026-04-09T08:05:03.694Z</time></trkpt><trkpt lat="43.7247332" lon="12.9308571"><ele>191.0</ele><time>2026-04-09T08:05:04.694Z</time></trkpt><trkpt lat="43.7247882" lon="12.9307173"><ele>191.0</ele><time>2026-04-09T08:05:05.695Z</time></trkpt><trkpt lat="43.7248399" lon="12.930577"><ele>191.0</ele><time>2026-04-09T08:05:06.695Z</time></trkpt><trkpt lat="43.7248917" lon="12.9304382"><ele>191.0</ele><time>2026-04-09T08:05:07.695Z</time></trkpt><trkpt lat="43.7249483" lon="12.9302972"><ele>191.0</ele><time>2026-04-09T08:05:08.694Z</time></trkpt><trkpt lat="43.7250033" lon="12.9301592"><ele>190.8</ele><time>2026-04-09T08:05:09.695Z</time></trkpt><trkpt lat="43.7250535" lon="12.9300213"><ele>190.60000000000002</ele><time>2026-04-09T08:05:10.695Z</time></trkpt><trkpt lat="43.7250996" lon="12.92988"><ele>190.4</ele><time>2026-04-09T08:05:11.694Z</time></trkpt><trkpt lat="43.7251488" lon="12.9297401"><ele>190.2</ele><time>2026-04-09T08:05:12.694Z</time></trkpt><trkpt lat="43.7252" lon="12.9296073"><ele>190.0</ele><time>2026-04-09T08:05:13.695Z</time></trkpt><trkpt lat="43.7252516" lon="12.9294746"><ele>190.0</ele><time>2026-04-09T08:05:14.695Z</time></trkpt><trkpt lat="43.7253037" lon="12.9293499"><ele>190.0</ele><time>2026-04-09T08:05:15.695Z</time></trkpt><trkpt lat="43.7253508" lon="12.9292302"><ele>190.0</ele><time>2026-04-09T08:05:16.694Z</time></trkpt><trkpt lat="43.725392" lon="12.9291137"><ele>190.0</ele><time>2026-04-09T08:05:17.695Z</time></trkpt><trkpt lat="43.7254359" lon="12.9289961"><ele>190.0</ele><time>2026-04-09T08:05:18.694Z</time></trkpt><trkpt lat="43.7254812" lon="12.9288727"><ele>192.0</ele><time>2026-04-09T08:05:19.695Z</time></trkpt><trkpt lat="43.7255315" lon="12.928741"><ele>194.0</ele><time>2026-04-09T08:05:20.695Z</time></trkpt><trkpt lat="43.7255787" lon="12.9286068"><ele>196.0</ele><time>2026-04-09T08:05:21.695Z</time></trkpt><trkpt lat="43.7256208" lon="12.9284841"><ele>198.0</ele><time>2026-04-09T08:05:22.694Z</time></trkpt><trkpt lat="43.7256614" lon="12.9283729"><ele>200.0</ele><time>2026-04-09T08:05:23.695Z</time></trkpt><trkpt lat="43.7256973" lon="12.9282676"><ele>200.83333333333334</ele><time>2026-04-09T08:05:24.695Z</time></trkpt><trkpt lat="43.7257283" lon="12.9281761"><ele>201.66666666666669</ele><time>2026-04-09T08:05:25.695Z</time></trkpt><trkpt lat="43.7257861" lon="12.9280342"><ele>202.5</ele><time>2026-04-09T08:05:27.694Z</time></trkpt><trkpt lat="43.7258272" lon="12.9279413"><ele>203.33333333333331</ele><time>2026-04-09T08:05:29.695Z</time></trkpt><trkpt lat="43.7258203" lon="12.9278048"><ele>204.16666666666666</ele><time>2026-04-09T08:05:31.695Z</time></trkpt><trkpt lat="43.725795" lon="12.9277183"><ele>205.0</ele><time>2026-04-09T08:05:32.694Z</time></trkpt><trkpt lat="43.7257573" lon="12.9276245"><ele>203.66666666666666</ele><time>2026-04-09T08:05:33.695Z</time></trkpt><trkpt lat="43.7257167" lon="12.9275302"><ele>202.33333333333331</ele><time>2026-04-09T08:05:34.695Z</time></trkpt><trkpt lat="43.7256749" lon="12.9274407"><ele>201.0</ele><time>2026-04-09T08:05:35.695Z</time></trkpt><trkpt lat="43.7256363" lon="12.9273523"><ele>199.66666666666669</ele><time>2026-04-09T08:05:36.695Z</time></trkpt><trkpt lat="43.7255933" lon="12.9272646"><ele>198.33333333333334</ele><time>2026-04-09T08:05:37.694Z</time></trkpt><trkpt lat="43.7255518" lon="12.9271786"><ele>197.0</ele><time>2026-04-09T08:05:38.695Z</time></trkpt><trkpt lat="43.7255096" lon="12.9270982"><ele>197.0</ele><time>2026-04-09T08:05:39.695Z</time></trkpt><trkpt lat="43.7254668" lon="12.9270266"><ele>197.0</ele><time>2026-04-09T08:05:40.694Z</time></trkpt><trkpt lat="43.7254245" lon="12.9269563"><ele>197.0</ele><time>2026-04-09T08:05:41.694Z</time></trkpt><trkpt lat="43.7253848" lon="12.9268809"><ele>197.0</ele><time>2026-04-09T08:05:42.695Z</time></trkpt><trkpt lat="43.7253418" lon="12.9268059"><ele>197.0</ele><time>2026-04-09T08:05:43.694Z</time></trkpt><trkpt lat="43.7252957" lon="12.9267401"><ele>197.0</ele><time>2026-04-09T08:05:44.694Z</time></trkpt><trkpt lat="43.7252474" lon="12.9266745"><ele>197.0</ele><time>2026-04-09T08:05:45.695Z</time></trkpt><trkpt lat="43.7251994" lon="12.9266049"><ele>194.71428571428572</ele><time>2026-04-09T08:05:46.695Z</time></trkpt><trkpt lat="43.7251521" lon="12.9265283"><ele>192.42857142857144</ele><time>2026-04-09T08:05:47.694Z</time></trkpt><trkpt lat="43.7251044" lon="12.9264548"><ele>190.14285714285714</ele><time>2026-04-09T08:05:48.695Z</time></trkpt><trkpt lat="43.7250472" lon="12.9263809"><ele>187.85714285714286</ele><time>2026-04-09T08:05:49.695Z</time></trkpt><trkpt lat="43.7249938" lon="12.9263057"><ele>185.57142857142856</ele><time>2026-04-09T08:05:50.694Z</time></trkpt><trkpt lat="43.7249445" lon="12.9262328"><ele>183.28571428571428</ele><time>2026-04-09T08:05:51.694Z</time></trkpt><trkpt lat="43.7248947" lon="12.9261621"><ele>181.0</ele><time>2026-04-09T08:05:52.694Z</time></trkpt><trkpt lat="43.7248398" lon="12.926094"><ele>181.0</ele><time>2026-04-09T08:05:53.695Z</time></trkpt><trkpt lat="43.7247886" lon="12.9260203"><ele>181.0</ele><time>2026-04-09T08:05:54.695Z</time></trkpt><trkpt lat="43.7247387" lon="12.9259609"><ele>181.0</ele><time>2026-04-09T08:05:55.694Z</time></trkpt><trkpt lat="43.7246842" lon="12.9259118"><ele>181.0</ele><time>2026-04-09T08:05:56.694Z</time></trkpt><trkpt lat="43.7245863" lon="12.9258533"><ele>181.0</ele><time>2026-04-09T08:05:58.695Z</time></trkpt><trkpt lat="43.7245248" lon="12.9258288"><ele>181.0</ele><time>2026-04-09T08:06:00.694Z</time></trkpt><trkpt lat="43.7244896" lon="12.9257319"><ele>179.66666666666669</ele><time>2026-04-09T08:06:03.694Z</time></trkpt><trkpt lat="43.7245493" lon="12.925673"><ele>178.33333333333334</ele><time>2026-04-09T08:06:05.695Z</time></trkpt><trkpt lat="43.72465" lon="12.9256078"><ele>177.0</ele><time>2026-04-09T08:06:07.694Z</time></trkpt><trkpt lat="43.7246956" lon="12.9255437"><ele>175.66666666666666</ele><time>2026-04-09T08:06:08.695Z</time></trkpt><trkpt lat="43.7247421" lon="12.9254617"><ele>174.33333333333331</ele><time>2026-04-09T08:06:09.694Z</time></trkpt><trkpt lat="43.7247875" lon="12.9253759"><ele>173.0</ele><time>2026-04-09T08:06:10.695Z</time></trkpt><trkpt lat="43.7248252" lon="12.9252838"><ele>173.0</ele><time>2026-04-09T08:06:11.695Z</time></trkpt><trkpt lat="43.7248604" lon="12.925199"><ele>173.0</ele><time>2026-04-09T08:06:12.694Z</time></trkpt><trkpt lat="43.7248934" lon="12.9251234"><ele>173.0</ele><time>2026-04-09T08:06:13.694Z</time></trkpt><trkpt lat="43.7249628" lon="12.9250019"><ele>173.0</ele><time>2026-04-09T08:06:15.694Z</time></trkpt><trkpt lat="43.7250182" lon="12.9249441"><ele>173.0</ele><time>2026-04-09T08:06:16.694Z</time></trkpt><trkpt lat="43.7250836" lon="12.9248926"><ele>173.0</ele><time>2026-04-09T08:06:17.695Z</time></trkpt><trkpt lat="43.7251416" lon="12.9248456"><ele>171.0</ele><time>2026-04-09T08:06:18.694Z</time></trkpt><trkpt lat="43.7251932" lon="12.9247768"><ele>169.0</ele><time>2026-04-09T08:06:19.695Z</time></trkpt><trkpt lat="43.7252415" lon="12.9246987"><ele>167.0</ele><time>2026-04-09T08:06:20.695Z</time></trkpt><trkpt lat="43.7252908" lon="12.9246257"><ele>165.0</ele><time>2026-04-09T08:06:21.695Z</time></trkpt><trkpt lat="43.7253416" lon="12.9245567"><ele>163.0</ele><time>2026-04-09T08:06:22.694Z</time></trkpt><trkpt lat="43.7253894" lon="12.924485"><ele>161.0</ele><time>2026-04-09T08:06:23.694Z</time></trkpt><trkpt lat="43.7254363" lon="12.9244062"><ele>159.0</ele><time>2026-04-09T08:06:24.695Z</time></trkpt><trkpt lat="43.7254883" lon="12.9243341"><ele>159.0</ele><time>2026-04-09T08:06:25.695Z</time></trkpt><trkpt lat="43.7255392" lon="12.9242657"><ele>159.0</ele><time>2026-04-09T08:06:26.695Z</time></trkpt><trkpt lat="43.7255885" lon="12.9241898"><ele>159.0</ele><time>2026-04-09T08:06:27.694Z</time></trkpt><trkpt lat="43.7256388" lon="12.9241137"><ele>159.0</ele><time>2026-04-09T08:06:28.694Z</time></trkpt><trkpt lat="43.7256955" lon="12.9240424"><ele>159.0</ele><time>2026-04-09T08:06:29.694Z</time></trkpt><trkpt lat="43.7257547" lon="12.9239798"><ele>159.0</ele><time>2026-04-09T08:06:30.695Z</time></trkpt><trkpt lat="43.7258184" lon="12.9239278"><ele>159.0</ele><time>2026-04-09T08:06:31.695Z</time></trkpt><trkpt lat="43.7258775" lon="12.9238739"><ele>156.7142857142857</ele><time>2026-04-09T08:06:32.694Z</time></trkpt><trkpt lat="43.7259369" lon="12.9238211"><ele>154.42857142857144</ele><time>2026-04-09T08:06:33.695Z</time></trkpt><trkpt lat="43.726005" lon="12.9237724"><ele>152.14285714285714</ele><time>2026-04-09T08:06:34.695Z</time></trkpt><trkpt lat="43.7260739" lon="12.9237289"><ele>149.85714285714283</ele><time>2026-04-09T08:06:35.695Z</time></trkpt><trkpt lat="43.7261364" lon="12.9236803"><ele>147.57142857142856</ele><time>2026-04-09T08:06:36.694Z</time></trkpt><trkpt lat="43.7261943" lon="12.9236304"><ele>145.28571428571428</ele><time>2026-04-09T08:06:37.694Z</time></trkpt><trkpt lat="43.7262503" lon="12.9235831"><ele>143.0</ele><time>2026-04-09T08:06:38.694Z</time></trkpt><trkpt lat="43.7263519" lon="12.9234832"><ele>141.83333333333331</ele><time>2026-04-09T08:06:40.694Z</time></trkpt><trkpt lat="43.7263962" lon="12.923421"><ele>140.66666666666666</ele><time>2026-04-09T08:06:41.694Z</time></trkpt><trkpt lat="43.7264559" lon="12.9233677"><ele>139.5</ele><time>2026-04-09T08:06:42.695Z</time></trkpt><trkpt lat="43.7265355" lon="12.9233426"><ele>138.33333333333334</ele><time>2026-04-09T08:06:43.695Z</time></trkpt><trkpt lat="43.7266202" lon="12.9233449"><ele>137.16666666666669</ele><time>2026-04-09T08:06:44.694Z</time></trkpt><trkpt lat="43.7267007" lon="12.923364"><ele>136.0</ele><time>2026-04-09T08:06:45.694Z</time></trkpt><trkpt lat="43.7267814" lon="12.9233896"><ele>136.0</ele><time>2026-04-09T08:06:46.695Z</time></trkpt><trkpt lat="43.726868" lon="12.9234079"><ele>136.0</ele><time>2026-04-09T08:06:47.694Z</time></trkpt><trkpt lat="43.7269574" lon="12.9234229"><ele>136.0</ele><time>2026-04-09T08:06:48.694Z</time></trkpt><trkpt lat="43.7270473" lon="12.9234399"><ele>136.0</ele><time>2026-04-09T08:06:49.695Z</time></trkpt><trkpt lat="43.7271428" lon="12.9234658"><ele>136.0</ele><time>2026-04-09T08:06:50.695Z</time></trkpt><trkpt lat="43.7272322" lon="12.9235138"><ele>133.0</ele><time>2026-04-09T08:06:51.694Z</time></trkpt><trkpt lat="43.7273029" lon="12.9235681"><ele>130.0</ele><time>2026-04-09T08:06:52.695Z</time></trkpt><trkpt lat="43.7273627" lon="12.9236316"><ele>127.0</ele><time>2026-04-09T08:06:53.694Z</time></trkpt><trkpt lat="43.727415" lon="12.9236962"><ele>124.0</ele><time>2026-04-09T08:06:54.695Z</time></trkpt><trkpt lat="43.7274767" lon="12.9237463"><ele>121.00000000000001</ele><time>2026-04-09T08:06:55.694Z</time></trkpt><trkpt lat="43.7275523" lon="12.9237605"><ele>118.0</ele><time>2026-04-09T08:06:56.694Z</time></trkpt><trkpt lat="43.727626" lon="12.9237261"><ele>118.00000000000001</ele><time>2026-04-09T08:06:57.695Z</time></trkpt><trkpt lat="43.7276912" lon="12.9236685"><ele>118.0</ele><time>2026-04-09T08:06:58.694Z</time></trkpt><trkpt lat="43.7277596" lon="12.9236196"><ele>118.0</ele><time>2026-04-09T08:06:59.695Z</time></trkpt><trkpt lat="43.727838" lon="12.9235973"><ele>118.0</ele><time>2026-04-09T08:07:00.694Z</time></trkpt><trkpt lat="43.727925" lon="12.9235973"><ele>118.00000000000001</ele><time>2026-04-09T08:07:01.695Z</time></trkpt><trkpt lat="43.7280118" lon="12.9236109"><ele>118.0</ele><time>2026-04-09T08:07:02.695Z</time></trkpt><trkpt lat="43.7280834" lon="12.923608"><ele>117.0</ele><time>2026-04-09T08:07:03.695Z</time></trkpt><trkpt lat="43.7281607" lon="12.9235817"><ele>116.00000000000001</ele><time>2026-04-09T08:07:04.694Z</time></trkpt><trkpt lat="43.7282433" lon="12.9235383"><ele>115.00000000000001</ele><time>2026-04-09T08:07:05.695Z</time></trkpt><trkpt lat="43.728326" lon="12.9234923"><ele>114.0</ele><time>2026-04-09T08:07:06.694Z</time></trkpt><trkpt lat="43.7283954" lon="12.9234044"><ele>113.0</ele><time>2026-04-09T08:07:07.695Z</time></trkpt><trkpt lat="43.7284669" lon="12.923309"><ele>111.0</ele><time>2026-04-09T08:07:08.694Z</time></trkpt><trkpt lat="43.7285464" lon="12.9232187"><ele>109.00000000000001</ele><time>2026-04-09T08:07:09.694Z</time></trkpt><trkpt lat="43.7286299" lon="12.9231331"><ele>107.0</ele><time>2026-04-09T08:07:10.694Z</time></trkpt><trkpt lat="43.7287162" lon="12.9230602"><ele>105.0</ele><time>2026-04-09T08:07:11.695Z</time></trkpt><trkpt lat="43.7287947" lon="12.9229887"><ele>103.0</ele><time>2026-04-09T08:07:12.694Z</time></trkpt><trkpt lat="43.7288726" lon="12.9229148"><ele>103.0</ele><time>2026-04-09T08:07:13.694Z</time></trkpt><trkpt lat="43.7289594" lon="12.9228337"><ele>103.0</ele><time>2026-04-09T08:07:14.694Z</time></trkpt><trkpt lat="43.7290587" lon="12.9227454"><ele>103.0</ele><time>2026-04-09T08:07:15.695Z</time></trkpt><trkpt lat="43.7291583" lon="12.9226487"><ele>103.0</ele><time>2026-04-09T08:07:16.694Z</time></trkpt><trkpt lat="43.7292621" lon="12.9225632"><ele>100.2</ele><time>2026-04-09T08:07:17.694Z</time></trkpt><trkpt lat="43.729364" lon="12.9224826"><ele>97.4</ele><time>2026-04-09T08:07:18.695Z</time></trkpt><trkpt lat="43.7294621" lon="12.922404"><ele>94.60000000000001</ele><time>2026-04-09T08:07:19.695Z</time></trkpt><trkpt lat="43.7295512" lon="12.9223282"><ele>91.80000000000001</ele><time>2026-04-09T08:07:20.695Z</time></trkpt><trkpt lat="43.729635" lon="12.9222618"><ele>89.0</ele><time>2026-04-09T08:07:21.695Z</time></trkpt><trkpt lat="43.7297134" lon="12.9222088"><ele>88.16666666666667</ele><time>2026-04-09T08:07:22.695Z</time></trkpt><trkpt lat="43.7297821" lon="12.9221589"><ele>87.33333333333334</ele><time>2026-04-09T08:07:23.695Z</time></trkpt><trkpt lat="43.7298416" lon="12.9221069"><ele>86.5</ele><time>2026-04-09T08:07:24.694Z</time></trkpt><trkpt lat="43.7299338" lon="12.9220243"><ele>85.66666666666667</ele><time>2026-04-09T08:07:26.695Z</time></trkpt><trkpt lat="43.7299966" lon="12.9219871"><ele>84.83333333333333</ele><time>2026-04-09T08:07:28.694Z</time></trkpt><trkpt lat="43.7299562" lon="12.9218808"><ele>84.0</ele><time>2026-04-09T08:09:44.708Z</time></trkpt><trkpt lat="43.7298728" lon="12.9218442"><ele>84.0</ele><time>2026-04-09T08:09:45.7Z</time></trkpt><trkpt lat="43.7297821" lon="12.9217931"><ele>84.0</ele><time>2026-04-09T08:09:46.702Z</time></trkpt><trkpt lat="43.7296873" lon="12.9217379"><ele>84.0</ele><time>2026-04-09T08:09:47.701Z</time></trkpt><trkpt lat="43.7296007" lon="12.9216868"><ele>84.0</ele><time>2026-04-09T08:09:48.7Z</time></trkpt><trkpt lat="43.7295158" lon="12.9216482"><ele>84.0</ele><time>2026-04-09T08:09:49.7Z</time></trkpt><trkpt lat="43.7294134" lon="12.9216097"><ele>84.5</ele><time>2026-04-09T08:09:50.7Z</time></trkpt><trkpt lat="43.7293017" lon="12.9215573"><ele>85.0</ele><time>2026-04-09T08:09:51.7Z</time></trkpt><trkpt lat="43.7291797" lon="12.921508"><ele>85.5</ele><time>2026-04-09T08:09:52.7Z</time></trkpt><trkpt lat="43.7290589" lon="12.921447"><ele>86.0</ele><time>2026-04-09T08:09:53.7Z</time></trkpt><trkpt lat="43.728931" lon="12.9213836"><ele>86.0</ele><time>2026-04-09T08:09:54.7Z</time></trkpt><trkpt lat="43.7287914" lon="12.9213172"><ele>86.0</ele><time>2026-04-09T08:09:55.7Z</time></trkpt><trkpt lat="43.7286352" lon="12.9212547"><ele>86.0</ele><time>2026-04-09T08:09:56.7Z</time></trkpt><trkpt lat="43.7284788" lon="12.921201"><ele>86.0</ele><time>2026-04-09T08:09:57.699Z</time></trkpt><trkpt lat="43.7283132" lon="12.9211507"><ele>86.0</ele><time>2026-04-09T08:09:58.699Z</time></trkpt><trkpt lat="43.7281399" lon="12.9211124"><ele>86.0</ele><time>2026-04-09T08:09:59.7Z</time></trkpt><trkpt lat="43.7279656" lon="12.9210734"><ele>86.0</ele><time>2026-04-09T08:10:00.7Z</time></trkpt><trkpt lat="43.7278004" lon="12.9210418"><ele>86.0</ele><time>2026-04-09T08:10:01.701Z</time></trkpt><trkpt lat="43.7276405" lon="12.9210062"><ele>86.0</ele><time>2026-04-09T08:10:02.7Z</time></trkpt><trkpt lat="43.727478" lon="12.9209668"><ele>86.0</ele><time>2026-04-09T08:10:03.701Z</time></trkpt><trkpt lat="43.7273187" lon="12.9209294"><ele>86.0</ele><time>2026-04-09T08:10:04.701Z</time></trkpt><trkpt lat="43.7271634" lon="12.9208766"><ele>86.0</ele><time>2026-04-09T08:10:05.7Z</time></trkpt><trkpt lat="43.7270119" lon="12.9208106"><ele>87.33333333333334</ele><time>2026-04-09T08:10:06.705Z</time></trkpt><trkpt lat="43.7268617" lon="12.9207221"><ele>88.66666666666667</ele><time>2026-04-09T08:10:07.701Z</time></trkpt><trkpt lat="43.726715" lon="12.9206084"><ele>90.0</ele><time>2026-04-09T08:10:08.7Z</time></trkpt><trkpt lat="43.7265591" lon="12.9204907"><ele>90.0</ele><time>2026-04-09T08:10:09.7Z</time></trkpt><trkpt lat="43.7263967" lon="12.9203636"><ele>90.0</ele><time>2026-04-09T08:10:10.701Z</time></trkpt><trkpt lat="43.726228" lon="12.9202303"><ele>90.0</ele><time>2026-04-09T08:10:11.7Z</time></trkpt><trkpt lat="43.7260555" lon="12.9200941"><ele>89.66666666666667</ele><time>2026-04-09T08:10:12.699Z</time></trkpt><trkpt lat="43.725876" lon="12.9199581"><ele>89.33333333333334</ele><time>2026-04-09T08:10:13.701Z</time></trkpt><trkpt lat="43.7257179" lon="12.9198274"><ele>89.0</ele><time>2026-04-09T08:10:14.701Z</time></trkpt><trkpt lat="43.7255557" lon="12.9196993"><ele>89.0</ele><time>2026-04-09T08:10:15.7Z</time></trkpt><trkpt lat="43.7254113" lon="12.9195901"><ele>89.0</ele><time>2026-04-09T08:10:16.699Z</time></trkpt><trkpt lat="43.7252705" lon="12.9194782"><ele>89.0</ele><time>2026-04-09T08:10:17.7Z</time></trkpt><trkpt lat="43.7251265" lon="12.9193599"><ele>88.33333333333334</ele><time>2026-04-09T08:10:18.699Z</time></trkpt><trkpt lat="43.7249791" lon="12.9192435"><ele>87.66666666666667</ele><time>2026-04-09T08:10:19.701Z</time></trkpt><trkpt lat="43.7248361" lon="12.919129"><ele>87.0</ele><time>2026-04-09T08:10:20.701Z</time></trkpt><trkpt lat="43.724693" lon="12.9190143"><ele>87.0</ele><time>2026-04-09T08:10:21.7Z</time></trkpt><trkpt lat="43.7245502" lon="12.9188913"><ele>87.0</ele><time>2026-04-09T08:10:22.7Z</time></trkpt><trkpt lat="43.7244107" lon="12.9187622"><ele>87.0</ele><time>2026-04-09T08:10:23.7Z</time></trkpt><trkpt lat="43.7242765" lon="12.9186239"><ele>86.0</ele><time>2026-04-09T08:10:24.7Z</time></trkpt><trkpt lat="43.7241451" lon="12.9184738"><ele>85.0</ele><time>2026-04-09T08:10:25.701Z</time></trkpt><trkpt lat="43.7240187" lon="12.9183239"><ele>84.0</ele><time>2026-04-09T08:10:26.699Z</time></trkpt><trkpt lat="43.7238914" lon="12.9181764"><ele>84.0</ele><time>2026-04-09T08:10:27.699Z</time></trkpt><trkpt lat="43.7237668" lon="12.9180334"><ele>84.0</ele><time>2026-04-09T08:10:28.7Z</time></trkpt><trkpt lat="43.7236439" lon="12.9178938"><ele>84.0</ele><time>2026-04-09T08:10:29.7Z</time></trkpt><trkpt lat="43.7235264" lon="12.9177589"><ele>84.25</ele><time>2026-04-09T08:10:30.7Z</time></trkpt><trkpt lat="43.7234141" lon="12.9176324"><ele>84.5</ele><time>2026-04-09T08:10:31.701Z</time></trkpt><trkpt lat="43.7233092" lon="12.9175122"><ele>84.75</ele><time>2026-04-09T08:10:32.7Z</time></trkpt><trkpt lat="43.7232167" lon="12.9174108"><ele>85.0</ele><time>2026-04-09T08:10:33.699Z</time></trkpt><trkpt lat="43.7231403" lon="12.9173256"><ele>85.0</ele><time>2026-04-09T08:10:34.7Z</time></trkpt><trkpt lat="43.7230951" lon="12.9172418"><ele>85.0</ele><time>2026-04-09T08:10:35.699Z</time></trkpt><trkpt lat="43.723083" lon="12.9171475"><ele>85.0</ele><time>2026-04-09T08:10:36.701Z</time></trkpt><trkpt lat="43.7231068" lon="12.9170485"><ele>85.0</ele><time>2026-04-09T08:10:37.7Z</time></trkpt><trkpt lat="43.7231548" lon="12.9169395"><ele>85.0</ele><time>2026-04-09T08:10:38.7Z</time></trkpt><trkpt lat="43.7232135" lon="12.9168273"><ele>85.0</ele><time>2026-04-09T08:10:39.7Z</time></trkpt><trkpt lat="43.7232561" lon="12.9166961"><ele>83.75</ele><time>2026-04-09T08:10:40.699Z</time></trkpt><trkpt lat="43.7232672" lon="12.9165461"><ele>82.5</ele><time>2026-04-09T08:10:41.7Z</time></trkpt><trkpt lat="43.7232273" lon="12.9163983"><ele>81.25</ele><time>2026-04-09T08:10:42.701Z</time></trkpt><trkpt lat="43.7231479" lon="12.9162643"><ele>80.0</ele><time>2026-04-09T08:10:43.699Z</time></trkpt><trkpt lat="43.7230398" lon="12.9161427"><ele>80.0</ele><time>2026-04-09T08:10:44.7Z</time></trkpt><trkpt lat="43.7228543" lon="12.9159452"><ele>80.0</ele><time>2026-04-09T08:10:46.623Z</time></trkpt><trkpt lat="43.7226554" lon="12.9157386"><ele>80.66666666666667</ele><time>2026-04-09T08:10:47.703Z</time></trkpt><trkpt lat="43.7224988" lon="12.9155836"><ele>81.33333333333333</ele><time>2026-04-09T08:10:48.7Z</time></trkpt><trkpt lat="43.7223477" lon="12.9154307"><ele>82.0</ele><time>2026-04-09T08:10:49.7Z</time></trkpt><trkpt lat="43.7221922" lon="12.9152754"><ele>82.0</ele><time>2026-04-09T08:10:50.7Z</time></trkpt><trkpt lat="43.7220438" lon="12.9151243"><ele>82.0</ele><time>2026-04-09T08:10:51.7Z</time></trkpt><trkpt lat="43.7219017" lon="12.9149794"><ele>82.0</ele><time>2026-04-09T08:10:52.7Z</time></trkpt><trkpt lat="43.7217633" lon="12.9148422"><ele>79.33333333333333</ele><time>2026-04-09T08:10:53.701Z</time></trkpt><trkpt lat="43.7216339" lon="12.9147118"><ele>76.66666666666667</ele><time>2026-04-09T08:10:54.701Z</time></trkpt><trkpt lat="43.7215096" lon="12.9145864"><ele>74.0</ele><time>2026-04-09T08:10:55.7Z</time></trkpt><trkpt lat="43.7213886" lon="12.9144681"><ele>74.0</ele><time>2026-04-09T08:10:56.7Z</time></trkpt><trkpt lat="43.7212752" lon="12.9143508"><ele>74.0</ele><time>2026-04-09T08:10:57.703Z</time></trkpt><trkpt lat="43.7211603" lon="12.914231"><ele>74.0</ele><time>2026-04-09T08:10:58.7Z</time></trkpt><trkpt lat="43.7210416" lon="12.9141105"><ele>74.0</ele><time>2026-04-09T08:10:59.7Z</time></trkpt><trkpt lat="43.7209205" lon="12.9139899"><ele>70.33333333333334</ele><time>2026-04-09T08:11:00.699Z</time></trkpt><trkpt lat="43.7208006" lon="12.9138638"><ele>66.66666666666667</ele><time>2026-04-09T08:11:01.7Z</time></trkpt><trkpt lat="43.7206736" lon="12.9137337"><ele>63.0</ele><time>2026-04-09T08:11:02.701Z</time></trkpt><trkpt lat="43.7205439" lon="12.9136006"><ele>63.0</ele><time>2026-04-09T08:11:03.7Z</time></trkpt><trkpt lat="43.7204157" lon="12.9134689"><ele>63.0</ele><time>2026-04-09T08:11:04.699Z</time></trkpt><trkpt lat="43.7202966" lon="12.9133471"><ele>63.0</ele><time>2026-04-09T08:11:05.7Z</time></trkpt><trkpt lat="43.720196" lon="12.9132295"><ele>63.0</ele><time>2026-04-09T08:11:06.701Z</time></trkpt><trkpt lat="43.7201136" lon="12.9131002"><ele>67.5</ele><time>2026-04-09T08:11:07.7Z</time></trkpt><trkpt lat="43.7200507" lon="12.9129572"><ele>72.0</ele><time>2026-04-09T08:11:08.7Z</time></trkpt><trkpt lat="43.7200209" lon="12.9128041"><ele>76.5</ele><time>2026-04-09T08:11:09.701Z</time></trkpt><trkpt lat="43.720025" lon="12.9126425"><ele>81.0</ele><time>2026-04-09T08:11:10.699Z</time></trkpt><trkpt lat="43.7200435" lon="12.9124879"><ele>81.4</ele><time>2026-04-09T08:11:11.7Z</time></trkpt><trkpt lat="43.7200704" lon="12.9123413"><ele>81.8</ele><time>2026-04-09T08:11:12.7Z</time></trkpt><trkpt lat="43.7201099" lon="12.9122026"><ele>82.2</ele><time>2026-04-09T08:11:13.699Z</time></trkpt><trkpt lat="43.720149" lon="12.9120635"><ele>82.60000000000001</ele><time>2026-04-09T08:11:14.701Z</time></trkpt><trkpt lat="43.7201859" lon="12.9119201"><ele>83.0</ele><time>2026-04-09T08:11:15.701Z</time></trkpt><trkpt lat="43.7202221" lon="12.9117735"><ele>83.0</ele><time>2026-04-09T08:11:16.7Z</time></trkpt><trkpt lat="43.7202601" lon="12.9116355"><ele>83.0</ele><time>2026-04-09T08:11:17.701Z</time></trkpt><trkpt lat="43.7203017" lon="12.9115106"><ele>83.0</ele><time>2026-04-09T08:11:18.7Z</time></trkpt><trkpt lat="43.7203357" lon="12.9113898"><ele>83.0</ele><time>2026-04-09T08:11:19.7Z</time></trkpt><trkpt lat="43.7203694" lon="12.9112723"><ele>83.0</ele><time>2026-04-09T08:11:20.701Z</time></trkpt><trkpt lat="43.720394" lon="12.9111631"><ele>83.0</ele><time>2026-04-09T08:11:21.701Z</time></trkpt><trkpt lat="43.7204147" lon="12.9110643"><ele>83.0</ele><time>2026-04-09T08:11:22.7Z</time></trkpt><trkpt lat="43.7204379" lon="12.9109718"><ele>83.0</ele><time>2026-04-09T08:11:23.701Z</time></trkpt><trkpt lat="43.7204687" lon="12.9108746"><ele>83.0</ele><time>2026-04-09T08:11:24.7Z</time></trkpt><trkpt lat="43.7205026" lon="12.9107668"><ele>83.0</ele><time>2026-04-09T08:11:25.7Z</time></trkpt><trkpt lat="43.7205304" lon="12.9106432"><ele>83.0</ele><time>2026-04-09T08:11:26.701Z</time></trkpt><trkpt lat="43.7205525" lon="12.91051"><ele>83.0</ele><time>2026-04-09T08:11:27.7Z</time></trkpt><trkpt lat="43.7205845" lon="12.9103781"><ele>83.0</ele><time>2026-04-09T08:11:28.701Z</time></trkpt><trkpt lat="43.7206267" lon="12.9102546"><ele>83.0</ele><time>2026-04-09T08:11:29.7Z</time></trkpt><trkpt lat="43.7206749" lon="12.9101373"><ele>83.0</ele><time>2026-04-09T08:11:30.7Z</time></trkpt><trkpt lat="43.7207279" lon="12.910019"><ele>83.0</ele><time>2026-04-09T08:11:31.701Z</time></trkpt><trkpt lat="43.7207839" lon="12.909892"><ele>82.60000000000001</ele><time>2026-04-09T08:11:32.701Z</time></trkpt><trkpt lat="43.7208468" lon="12.9097669"><ele>82.2</ele><time>2026-04-09T08:11:33.701Z</time></trkpt><trkpt lat="43.7209109" lon="12.9096474"><ele>81.8</ele><time>2026-04-09T08:11:34.699Z</time></trkpt><trkpt lat="43.7209759" lon="12.9095326"><ele>81.4</ele><time>2026-04-09T08:11:35.7Z</time></trkpt><trkpt lat="43.7210458" lon="12.9094258"><ele>81.0</ele><time>2026-04-09T08:11:36.701Z</time></trkpt><trkpt lat="43.7211218" lon="12.9093195"><ele>80.2</ele><time>2026-04-09T08:11:37.7Z</time></trkpt><trkpt lat="43.7211943" lon="12.909202"><ele>79.39999999999999</ele><time>2026-04-09T08:11:38.7Z</time></trkpt><trkpt lat="43.7212604" lon="12.909093"><ele>78.6</ele><time>2026-04-09T08:11:39.7Z</time></trkpt><trkpt lat="43.7213223" lon="12.9089965"><ele>77.8</ele><time>2026-04-09T08:11:40.702Z</time></trkpt><trkpt lat="43.7213837" lon="12.9089069"><ele>77.0</ele><time>2026-04-09T08:11:41.7Z</time></trkpt><trkpt lat="43.7214407" lon="12.9088167"><ele>77.0</ele><time>2026-04-09T08:11:42.701Z</time></trkpt><trkpt lat="43.7214893" lon="12.9087279"><ele>77.0</ele><time>2026-04-09T08:11:43.7Z</time></trkpt><trkpt lat="43.7215264" lon="12.9086368"><ele>77.0</ele><time>2026-04-09T08:11:44.7Z</time></trkpt><trkpt lat="43.721554" lon="12.9085404"><ele>77.0</ele><time>2026-04-09T08:11:45.701Z</time></trkpt><trkpt lat="43.7215698" lon="12.9084407"><ele>77.0</ele><time>2026-04-09T08:11:46.699Z</time></trkpt><trkpt lat="43.7215721" lon="12.9083264"><ele>77.0</ele><time>2026-04-09T08:11:47.701Z</time></trkpt><trkpt lat="43.7215641" lon="12.9082121"><ele>77.33333333333334</ele><time>2026-04-09T08:11:48.7Z</time></trkpt><trkpt lat="43.7215439" lon="12.9081025"><ele>77.66666666666667</ele><time>2026-04-09T08:11:49.7Z</time></trkpt><trkpt lat="43.7215081" lon="12.9080016"><ele>78.0</ele><time>2026-04-09T08:11:50.7Z</time></trkpt><trkpt lat="43.7214732" lon="12.9079039"><ele>78.33333333333333</ele><time>2026-04-09T08:11:51.7Z</time></trkpt><trkpt lat="43.721422" lon="12.9078075"><ele>78.66666666666666</ele><time>2026-04-09T08:11:52.701Z</time></trkpt><trkpt lat="43.721377" lon="12.9077096"><ele>79.0</ele><time>2026-04-09T08:11:53.704Z</time></trkpt><trkpt lat="43.7213247" lon="12.9076122"><ele>79.4</ele><time>2026-04-09T08:11:54.701Z</time></trkpt><trkpt lat="43.7212593" lon="12.9075231"><ele>79.80000000000001</ele><time>2026-04-09T08:11:55.704Z</time></trkpt><trkpt lat="43.7211904" lon="12.9074388"><ele>80.19999999999999</ele><time>2026-04-09T08:11:56.699Z</time></trkpt><trkpt lat="43.721121" lon="12.9073603"><ele>80.6</ele><time>2026-04-09T08:11:57.7Z</time></trkpt><trkpt lat="43.7210463" lon="12.9072861"><ele>81.0</ele><time>2026-04-09T08:11:58.701Z</time></trkpt><trkpt lat="43.7209693" lon="12.9072145"><ele>81.0</ele><time>2026-04-09T08:11:59.702Z</time></trkpt><trkpt lat="43.7208944" lon="12.9071413"><ele>81.0</ele><time>2026-04-09T08:12:00.7Z</time></trkpt><trkpt lat="43.7208214" lon="12.907066"><ele>81.0</ele><time>2026-04-09T08:12:01.702Z</time></trkpt><trkpt lat="43.7207538" lon="12.906987"><ele>81.0</ele><time>2026-04-09T08:12:02.7Z</time></trkpt><trkpt lat="43.7206877" lon="12.9069025"><ele>81.0</ele><time>2026-04-09T08:12:03.7Z</time></trkpt><trkpt lat="43.7206127" lon="12.9068145"><ele>81.5</ele><time>2026-04-09T08:12:04.701Z</time></trkpt><trkpt lat="43.7205363" lon="12.9067296"><ele>82.0</ele><time>2026-04-09T08:12:05.7Z</time></trkpt><trkpt lat="43.7204533" lon="12.9066504"><ele>82.5</ele><time>2026-04-09T08:12:06.7Z</time></trkpt><trkpt lat="43.7203467" lon="12.9065618"><ele>83.0</ele><time>2026-04-09T08:12:07.701Z</time></trkpt><trkpt lat="43.7202168" lon="12.9064898"><ele>83.0</ele><time>2026-04-09T08:12:08.699Z</time></trkpt><trkpt lat="43.7200647" lon="12.9064196"><ele>83.0</ele><time>2026-04-09T08:12:09.7Z</time></trkpt><trkpt lat="43.719902" lon="12.9063362"><ele>83.0</ele><time>2026-04-09T08:12:10.701Z</time></trkpt><trkpt lat="43.7197064" lon="12.9062078"><ele>83.0</ele><time>2026-04-09T08:12:11.699Z</time></trkpt><trkpt lat="43.7195257" lon="12.9060924"><ele>83.0</ele><time>2026-04-09T08:12:12.7Z</time></trkpt><trkpt lat="43.7193526" lon="12.9059991"><ele>83.0</ele><time>2026-04-09T08:12:13.7Z</time></trkpt><trkpt lat="43.7191915" lon="12.9059183"><ele>83.66666666666667</ele><time>2026-04-09T08:12:14.7Z</time></trkpt><trkpt lat="43.7190407" lon="12.9058401"><ele>84.33333333333333</ele><time>2026-04-09T08:12:15.7Z</time></trkpt><trkpt lat="43.7188997" lon="12.9057661"><ele>85.0</ele><time>2026-04-09T08:12:16.7Z</time></trkpt><trkpt lat="43.7187679" lon="12.9056937"><ele>85.0</ele><time>2026-04-09T08:12:17.7Z</time></trkpt><trkpt lat="43.7186392" lon="12.9056111"><ele>85.0</ele><time>2026-04-09T08:12:18.7Z</time></trkpt><trkpt lat="43.7185184" lon="12.9055237"><ele>85.0</ele><time>2026-04-09T08:12:19.7Z</time></trkpt><trkpt lat="43.7184015" lon="12.9054294"><ele>85.0</ele><time>2026-04-09T08:12:20.7Z</time></trkpt><trkpt lat="43.7182913" lon="12.9053301"><ele>85.0</ele><time>2026-04-09T08:12:21.702Z</time></trkpt><trkpt lat="43.7181848" lon="12.9052168"><ele>85.0</ele><time>2026-04-09T08:12:22.7Z</time></trkpt><trkpt lat="43.7180816" lon="12.90509"><ele>85.0</ele><time>2026-04-09T08:12:23.7Z</time></trkpt><trkpt lat="43.7179923" lon="12.9049623"><ele>85.0</ele><time>2026-04-09T08:12:24.7Z</time></trkpt><trkpt lat="43.7179181" lon="12.9048455"><ele>85.0</ele><time>2026-04-09T08:12:25.703Z</time></trkpt><trkpt lat="43.7178519" lon="12.904756"><ele>85.0</ele><time>2026-04-09T08:12:26.7Z</time></trkpt><trkpt lat="43.7178108" lon="12.9046674"><ele>85.0</ele><time>2026-04-09T08:12:27.7Z</time></trkpt><trkpt lat="43.7178233" lon="12.9045109"><ele>85.0</ele><time>2026-04-09T08:12:29.7Z</time></trkpt><trkpt lat="43.7178923" lon="12.9043793"><ele>85.0</ele><time>2026-04-09T08:12:31.7Z</time></trkpt><trkpt lat="43.7179733" lon="12.9043008"><ele>85.0</ele><time>2026-04-09T08:12:33.701Z</time></trkpt><trkpt lat="43.7178823" lon="12.9043152"><ele>85.0</ele><time>2026-04-09T08:12:36.701Z</time></trkpt><trkpt lat="43.7178042" lon="12.9044142"><ele>85.0</ele><time>2026-04-09T08:12:38.707Z</time></trkpt><trkpt lat="43.7177497" lon="12.9044601"><ele>85.0</ele><time>2026-04-09T08:12:40.7Z</time></trkpt><trkpt lat="43.7176438" lon="12.9044114"><ele>85.0</ele><time>2026-04-09T08:12:42.702Z</time></trkpt><trkpt lat="43.7175772" lon="12.9043283"><ele>85.8</ele><time>2026-04-09T08:12:43.7Z</time></trkpt><trkpt lat="43.7175159" lon="12.904224"><ele>86.6</ele><time>2026-04-09T08:12:44.703Z</time></trkpt><trkpt lat="43.7174468" lon="12.9041239"><ele>87.4</ele><time>2026-04-09T08:12:45.7Z</time></trkpt><trkpt lat="43.7174017" lon="12.9040472"><ele>88.2</ele><time>2026-04-09T08:12:46.7Z</time></trkpt><trkpt lat="43.7173431" lon="12.9039107"><ele>89.0</ele><time>2026-04-09T08:12:48.7Z</time></trkpt><trkpt lat="43.7173245" lon="12.9037539"><ele>89.0</ele><time>2026-04-09T08:12:50.7Z</time></trkpt><trkpt lat="43.7173423" lon="12.9036436"><ele>89.0</ele><time>2026-04-09T08:12:51.702Z</time></trkpt><trkpt lat="43.7174316" lon="12.9035314"><ele>89.0</ele><time>2026-04-09T08:12:52.701Z</time></trkpt><trkpt lat="43.7175235" lon="12.9034228"><ele>89.0</ele><time>2026-04-09T08:12:53.7Z</time></trkpt><trkpt lat="43.7176062" lon="12.903324"><ele>89.0</ele><time>2026-04-09T08:12:54.7Z</time></trkpt><trkpt lat="43.7176993" lon="12.903217"><ele>88.0</ele><time>2026-04-09T08:12:55.7Z</time></trkpt><trkpt lat="43.7177909" lon="12.9031076"><ele>87.0</ele><time>2026-04-09T08:12:56.701Z</time></trkpt><trkpt lat="43.7178683" lon="12.9029994"><ele>86.0</ele><time>2026-04-09T08:12:57.699Z</time></trkpt><trkpt lat="43.717923" lon="12.9028676"><ele>85.0</ele><time>2026-04-09T08:12:58.699Z</time></trkpt><trkpt lat="43.7179488" lon="12.9027135"><ele>85.5</ele><time>2026-04-09T08:12:59.701Z</time></trkpt><trkpt lat="43.717946" lon="12.9025627"><ele>86.0</ele><time>2026-04-09T08:13:00.7Z</time></trkpt><trkpt lat="43.717916" lon="12.9024162"><ele>86.5</ele><time>2026-04-09T08:13:01.7Z</time></trkpt><trkpt lat="43.7178297" lon="12.9022836"><ele>87.0</ele><time>2026-04-09T08:13:02.701Z</time></trkpt><trkpt lat="43.7177212" lon="12.9021529"><ele>87.0</ele><time>2026-04-09T08:13:03.699Z</time></trkpt><trkpt lat="43.7176176" lon="12.9020222"><ele>87.0</ele><time>2026-04-09T08:13:04.701Z</time></trkpt><trkpt lat="43.7175132" lon="12.9019035"><ele>87.0</ele><time>2026-04-09T08:13:05.703Z</time></trkpt><trkpt lat="43.7173965" lon="12.9017928"><ele>87.0</ele><time>2026-04-09T08:13:06.7Z</time></trkpt><trkpt lat="43.7172627" lon="12.9016981"><ele>86.25</ele><time>2026-04-09T08:13:07.7Z</time></trkpt><trkpt lat="43.7171347" lon="12.9016272"><ele>85.5</ele><time>2026-04-09T08:13:08.699Z</time></trkpt><trkpt lat="43.7170095" lon="12.9015678"><ele>84.75</ele><time>2026-04-09T08:13:09.699Z</time></trkpt><trkpt lat="43.7168909" lon="12.9014983"><ele>84.0</ele><time>2026-04-09T08:13:10.701Z</time></trkpt><trkpt lat="43.7167763" lon="12.9014384"><ele>84.0</ele><time>2026-04-09T08:13:11.701Z</time></trkpt><trkpt lat="43.7166661" lon="12.9013962"><ele>84.0</ele><time>2026-04-09T08:13:12.702Z</time></trkpt><trkpt lat="43.7165683" lon="12.9013674"><ele>84.0</ele><time>2026-04-09T08:13:13.7Z</time></trkpt><trkpt lat="43.716492" lon="12.9013351"><ele>84.0</ele><time>2026-04-09T08:13:14.701Z</time></trkpt><trkpt lat="43.7164314" lon="12.9012804"><ele>84.0</ele><time>2026-04-09T08:13:15.7Z</time></trkpt><trkpt lat="43.7164053" lon="12.9011238"><ele>84.0</ele><time>2026-04-09T08:13:17.702Z</time></trkpt><trkpt lat="43.7164399" lon="12.9010138"><ele>84.0</ele><time>2026-04-09T08:13:18.701Z</time></trkpt><trkpt lat="43.7165159" lon="12.9009026"><ele>84.0</ele><time>2026-04-09T08:13:19.7Z</time></trkpt><trkpt lat="43.716594" lon="12.9007893"><ele>84.0</ele><time>2026-04-09T08:13:20.7Z</time></trkpt><trkpt lat="43.716674" lon="12.9006826"><ele>84.0</ele><time>2026-04-09T08:13:21.699Z</time></trkpt><trkpt lat="43.7167496" lon="12.9005661"><ele>81.8</ele><time>2026-04-09T08:13:22.7Z</time></trkpt><trkpt lat="43.7168197" lon="12.9004619"><ele>79.60000000000001</ele><time>2026-04-09T08:13:23.701Z</time></trkpt><trkpt lat="43.7168793" lon="12.900356"><ele>77.4</ele><time>2026-04-09T08:13:24.7Z</time></trkpt><trkpt lat="43.7169081" lon="12.9002345"><ele>75.2</ele><time>2026-04-09T08:13:25.7Z</time></trkpt><trkpt lat="43.7168996" lon="12.9001151"><ele>73.0</ele><time>2026-04-09T08:13:26.701Z</time></trkpt><trkpt lat="43.7168337" lon="12.9000151"><ele>73.0</ele><time>2026-04-09T08:13:27.701Z</time></trkpt><trkpt lat="43.7167493" lon="12.8999077"><ele>73.0</ele><time>2026-04-09T08:13:28.7Z</time></trkpt><trkpt lat="43.7166331" lon="12.8998008"><ele>73.0</ele><time>2026-04-09T08:13:29.701Z</time></trkpt><trkpt lat="43.7165149" lon="12.8996943"><ele>73.0</ele><time>2026-04-09T08:13:30.699Z</time></trkpt><trkpt lat="43.7163865" lon="12.8995813"><ele>73.0</ele><time>2026-04-09T08:13:31.701Z</time></trkpt><trkpt lat="43.7162566" lon="12.899476"><ele>73.0</ele><time>2026-04-09T08:13:32.701Z</time></trkpt><trkpt lat="43.7161303" lon="12.8993842"><ele>73.0</ele><time>2026-04-09T08:13:33.7Z</time></trkpt><trkpt lat="43.7159924" lon="12.8993032"><ele>73.0</ele><time>2026-04-09T08:13:34.699Z</time></trkpt><trkpt lat="43.7158531" lon="12.8992471"><ele>73.75</ele><time>2026-04-09T08:13:35.7Z</time></trkpt><trkpt lat="43.7157031" lon="12.8992157"><ele>74.5</ele><time>2026-04-09T08:13:36.7Z</time></trkpt><trkpt lat="43.7155561" lon="12.8992222"><ele>75.25</ele><time>2026-04-09T08:13:37.7Z</time></trkpt><trkpt lat="43.7154129" lon="12.899253"><ele>76.0</ele><time>2026-04-09T08:13:38.702Z</time></trkpt><trkpt lat="43.71527" lon="12.8992424"><ele>78.5</ele><time>2026-04-09T08:13:39.7Z</time></trkpt><trkpt lat="43.7151293" lon="12.8991952"><ele>81.0</ele><time>2026-04-09T08:13:40.7Z</time></trkpt><trkpt lat="43.71501" lon="12.8991337"><ele>83.5</ele><time>2026-04-09T08:13:41.7Z</time></trkpt><trkpt lat="43.7149063" lon="12.8990466"><ele>86.0</ele><time>2026-04-09T08:13:42.7Z</time></trkpt><trkpt lat="43.7148022" lon="12.8989646"><ele>86.0</ele><time>2026-04-09T08:13:43.7Z</time></trkpt><trkpt lat="43.7146893" lon="12.8988661"><ele>86.0</ele><time>2026-04-09T08:13:44.7Z</time></trkpt><trkpt lat="43.7145765" lon="12.8987736"><ele>86.0</ele><time>2026-04-09T08:13:45.7Z</time></trkpt><trkpt lat="43.7144612" lon="12.8986718"><ele>86.0</ele><time>2026-04-09T08:13:46.7Z</time></trkpt><trkpt lat="43.7143675" lon="12.8985857"><ele>86.33333333333334</ele><time>2026-04-09T08:13:47.712Z</time></trkpt><trkpt lat="43.7142873" lon="12.8985219"><ele>86.66666666666667</ele><time>2026-04-09T08:13:48.703Z</time></trkpt><trkpt lat="43.7142359" lon="12.8984514"><ele>87.0</ele><time>2026-04-09T08:13:49.7Z</time></trkpt><trkpt lat="43.7142286" lon="12.8983514"><ele>87.33333333333333</ele><time>2026-04-09T08:13:51.699Z</time></trkpt><trkpt lat="43.7142841" lon="12.8982972"><ele>87.66666666666666</ele><time>2026-04-09T08:13:53.702Z</time></trkpt><trkpt lat="43.714347" lon="12.8983191"><ele>88.0</ele><time>2026-04-09T08:13:54.704Z</time></trkpt><trkpt lat="43.7144352" lon="12.898372"><ele>87.5</ele><time>2026-04-09T08:13:55.699Z</time></trkpt><trkpt lat="43.7145533" lon="12.8984463"><ele>87.0</ele><time>2026-04-09T08:13:56.701Z</time></trkpt><trkpt lat="43.7146724" lon="12.8985058"><ele>86.5</ele><time>2026-04-09T08:13:57.701Z</time></trkpt><trkpt lat="43.7148152" lon="12.898576"><ele>86.0</ele><time>2026-04-09T08:13:58.699Z</time></trkpt><trkpt lat="43.7149546" lon="12.898656"><ele>86.0</ele><time>2026-04-09T08:13:59.7Z</time></trkpt><trkpt lat="43.7151083" lon="12.8987399"><ele>86.0</ele><time>2026-04-09T08:14:00.701Z</time></trkpt><trkpt lat="43.7152609" lon="12.8988251"><ele>86.0</ele><time>2026-04-09T08:14:01.7Z</time></trkpt><trkpt lat="43.7154088" lon="12.8988975"><ele>85.33333333333334</ele><time>2026-04-09T08:14:02.701Z</time></trkpt><trkpt lat="43.7155652" lon="12.8989586"><ele>84.66666666666667</ele><time>2026-04-09T08:14:03.701Z</time></trkpt><trkpt lat="43.7157219" lon="12.899003"><ele>84.0</ele><time>2026-04-09T08:14:04.701Z</time></trkpt><trkpt lat="43.7158885" lon="12.8990348"><ele>84.0</ele><time>2026-04-09T08:14:05.701Z</time></trkpt><trkpt lat="43.7160667" lon="12.8990547"><ele>84.0</ele><time>2026-04-09T08:14:06.699Z</time></trkpt><trkpt lat="43.7162596" lon="12.8990681"><ele>84.0</ele><time>2026-04-09T08:14:07.704Z</time></trkpt><trkpt lat="43.7164565" lon="12.8990797"><ele>84.66666666666667</ele><time>2026-04-09T08:14:08.7Z</time></trkpt><trkpt lat="43.7166439" lon="12.8990872"><ele>85.33333333333334</ele><time>2026-04-09T08:14:09.701Z</time></trkpt><trkpt lat="43.7168167" lon="12.8990977"><ele>86.0</ele><time>2026-04-09T08:14:10.7Z</time></trkpt><trkpt lat="43.7169825" lon="12.899115"><ele>86.0</ele><time>2026-04-09T08:14:11.7Z</time></trkpt><trkpt lat="43.7171309" lon="12.899121"><ele>86.0</ele><time>2026-04-09T08:14:12.701Z</time></trkpt><trkpt lat="43.7172701" lon="12.8991153"><ele>86.0</ele><time>2026-04-09T08:14:13.699Z</time></trkpt><trkpt lat="43.7174073" lon="12.8990844"><ele>86.0</ele><time>2026-04-09T08:14:14.7Z</time></trkpt><trkpt lat="43.7175377" lon="12.8990346"><ele>86.0</ele><time>2026-04-09T08:14:15.7Z</time></trkpt><trkpt lat="43.7176608" lon="12.8989815"><ele>86.0</ele><time>2026-04-09T08:14:16.7Z</time></trkpt><trkpt lat="43.7177773" lon="12.8989244"><ele>86.0</ele><time>2026-04-09T08:14:17.701Z</time></trkpt><trkpt lat="43.7178953" lon="12.8988657"><ele>86.0</ele><time>2026-04-09T08:14:18.701Z</time></trkpt><trkpt lat="43.7180017" lon="12.8988127"><ele>86.19999999999999</ele><time>2026-04-09T08:14:19.7Z</time></trkpt><trkpt lat="43.7181015" lon="12.8987584"><ele>86.39999999999999</ele><time>2026-04-09T08:14:20.7Z</time></trkpt><trkpt lat="43.7181928" lon="12.898708"><ele>86.6</ele><time>2026-04-09T08:14:21.701Z</time></trkpt><trkpt lat="43.7182889" lon="12.8986617"><ele>86.8</ele><time>2026-04-09T08:14:22.705Z</time></trkpt><trkpt lat="43.7183783" lon="12.8986307"><ele>87.0</ele><time>2026-04-09T08:14:23.7Z</time></trkpt><trkpt lat="43.7184552" lon="12.8986144"><ele>87.0</ele><time>2026-04-09T08:14:24.699Z</time></trkpt><trkpt lat="43.7185306" lon="12.8986264"><ele>87.0</ele><time>2026-04-09T08:14:25.701Z</time></trkpt><trkpt lat="43.7186086" lon="12.8986318"><ele>87.0</ele><time>2026-04-09T08:14:26.7Z</time></trkpt><trkpt lat="43.7186889" lon="12.8985952"><ele>87.0</ele><time>2026-04-09T08:14:27.699Z</time></trkpt><trkpt lat="43.7187613" lon="12.8985121"><ele>87.0</ele><time>2026-04-09T08:14:28.701Z</time></trkpt><trkpt lat="43.7188423" lon="12.8984125"><ele>87.0</ele><time>2026-04-09T08:14:29.699Z</time></trkpt><trkpt lat="43.718955" lon="12.8983257"><ele>86.5</ele><time>2026-04-09T08:14:30.702Z</time></trkpt><trkpt lat="43.7190912" lon="12.8982519"><ele>86.0</ele><time>2026-04-09T08:14:31.701Z</time></trkpt><trkpt lat="43.7192289" lon="12.8981772"><ele>85.5</ele><time>2026-04-09T08:14:32.701Z</time></trkpt><trkpt lat="43.7193675" lon="12.8981035"><ele>85.0</ele><time>2026-04-09T08:14:33.702Z</time></trkpt><trkpt lat="43.7195076" lon="12.8980321"><ele>84.25</ele><time>2026-04-09T08:14:34.701Z</time></trkpt><trkpt lat="43.7196409" lon="12.8979601"><ele>83.5</ele><time>2026-04-09T08:14:35.702Z</time></trkpt><trkpt lat="43.7197804" lon="12.8978814"><ele>82.75</ele><time>2026-04-09T08:14:36.702Z</time></trkpt><trkpt lat="43.7199216" lon="12.8978071"><ele>82.0</ele><time>2026-04-09T08:14:37.7Z</time></trkpt><trkpt lat="43.7200577" lon="12.8977383"><ele>82.0</ele><time>2026-04-09T08:14:38.701Z</time></trkpt><trkpt lat="43.7201831" lon="12.8976816"><ele>82.0</ele><time>2026-04-09T08:14:39.701Z</time></trkpt><trkpt lat="43.7202938" lon="12.8976022"><ele>82.0</ele><time>2026-04-09T08:14:40.702Z</time></trkpt><trkpt lat="43.7203966" lon="12.8974814"><ele>82.0</ele><time>2026-04-09T08:14:41.701Z</time></trkpt><trkpt lat="43.7204734" lon="12.8973071"><ele>79.66666666666666</ele><time>2026-04-09T08:14:42.701Z</time></trkpt><trkpt lat="43.7205429" lon="12.8971015"><ele>77.33333333333333</ele><time>2026-04-09T08:14:43.702Z</time></trkpt><trkpt lat="43.720611" lon="12.8968746"><ele>75.0</ele><time>2026-04-09T08:14:44.701Z</time></trkpt><trkpt lat="43.7206977" lon="12.8966606"><ele>74.33333333333333</ele><time>2026-04-09T08:14:45.702Z</time></trkpt><trkpt lat="43.7208094" lon="12.8964463"><ele>73.66666666666666</ele><time>2026-04-09T08:14:46.701Z</time></trkpt><trkpt lat="43.7209293" lon="12.8962434"><ele>73.0</ele><time>2026-04-09T08:14:47.701Z</time></trkpt><trkpt lat="43.7210591" lon="12.896028"><ele>70.66666666666666</ele><time>2026-04-09T08:14:48.703Z</time></trkpt><trkpt lat="43.7211914" lon="12.8958146"><ele>68.33333333333333</ele><time>2026-04-09T08:14:49.703Z</time></trkpt><trkpt lat="43.7213217" lon="12.8956107"><ele>66.0</ele><time>2026-04-09T08:14:50.706Z</time></trkpt><trkpt lat="43.7214499" lon="12.8954057"><ele>66.0</ele><time>2026-04-09T08:14:51.702Z</time></trkpt><trkpt lat="43.721575" lon="12.8952406"><ele>66.0</ele><time>2026-04-09T08:14:52.703Z</time></trkpt><trkpt lat="43.7217079" lon="12.8950836"><ele>66.0</ele><time>2026-04-09T08:14:53.703Z</time></trkpt><trkpt lat="43.7218569" lon="12.8949488"><ele>66.0</ele><time>2026-04-09T08:14:54.7Z</time></trkpt><trkpt lat="43.7220006" lon="12.8948257"><ele>66.0</ele><time>2026-04-09T08:14:55.701Z</time></trkpt><trkpt lat="43.722135" lon="12.8947157"><ele>66.0</ele><time>2026-04-09T08:14:56.701Z</time></trkpt><trkpt lat="43.7222651" lon="12.894591"><ele>66.0</ele><time>2026-04-09T08:14:57.7Z</time></trkpt><trkpt lat="43.7223836" lon="12.8944333"><ele>66.0</ele><time>2026-04-09T08:14:58.702Z</time></trkpt><trkpt lat="43.72248" lon="12.8942314"><ele>66.0</ele><time>2026-04-09T08:14:59.701Z</time></trkpt><trkpt lat="43.7225604" lon="12.8940024"><ele>65.66666666666667</ele><time>2026-04-09T08:15:00.702Z</time></trkpt><trkpt lat="43.7226377" lon="12.8937878"><ele>65.33333333333334</ele><time>2026-04-09T08:15:01.702Z</time></trkpt><trkpt lat="43.7227164" lon="12.8935885"><ele>65.0</ele><time>2026-04-09T08:15:02.701Z</time></trkpt><trkpt lat="43.7228023" lon="12.8934081"><ele>63.66666666666667</ele><time>2026-04-09T08:15:03.702Z</time></trkpt><trkpt lat="43.7228978" lon="12.8932498"><ele>62.33333333333333</ele><time>2026-04-09T08:15:04.701Z</time></trkpt><trkpt lat="43.7230183" lon="12.8931099"><ele>61.0</ele><time>2026-04-09T08:15:05.701Z</time></trkpt><trkpt lat="43.7231561" lon="12.8929965"><ele>61.0</ele><time>2026-04-09T08:15:06.702Z</time></trkpt><trkpt lat="43.7233001" lon="12.8929226"><ele>61.0</ele><time>2026-04-09T08:15:07.7Z</time></trkpt><trkpt lat="43.7234343" lon="12.8928869"><ele>61.0</ele><time>2026-04-09T08:15:08.7Z</time></trkpt><trkpt lat="43.7235675" lon="12.8928861"><ele>61.0</ele><time>2026-04-09T08:15:09.703Z</time></trkpt><trkpt lat="43.7237127" lon="12.8929055"><ele>61.33333333333333</ele><time>2026-04-09T08:15:10.701Z</time></trkpt><trkpt lat="43.723859" lon="12.8929369"><ele>61.66666666666667</ele><time>2026-04-09T08:15:11.7Z</time></trkpt><trkpt lat="43.724011" lon="12.8929754"><ele>62.0</ele><time>2026-04-09T08:15:12.701Z</time></trkpt><trkpt lat="43.7241764" lon="12.8930191"><ele>62.0</ele><time>2026-04-09T08:15:13.702Z</time></trkpt><trkpt lat="43.7243382" lon="12.8930595"><ele>62.0</ele><time>2026-04-09T08:15:14.703Z</time></trkpt><trkpt lat="43.7245053" lon="12.8930868"><ele>62.0</ele><time>2026-04-09T08:15:15.702Z</time></trkpt><trkpt lat="43.7246813" lon="12.8931009"><ele>62.66666666666667</ele><time>2026-04-09T08:15:16.701Z</time></trkpt><trkpt lat="43.72486" lon="12.8931018"><ele>63.33333333333333</ele><time>2026-04-09T08:15:17.701Z</time></trkpt><trkpt lat="43.7250422" lon="12.8930978"><ele>64.0</ele><time>2026-04-09T08:15:18.701Z</time></trkpt><trkpt lat="43.7252144" lon="12.8930979"><ele>64.0</ele><time>2026-04-09T08:15:19.702Z</time></trkpt><trkpt lat="43.7253733" lon="12.893095"><ele>64.0</ele><time>2026-04-09T08:15:20.702Z</time></trkpt><trkpt lat="43.7255316" lon="12.8930854"><ele>64.0</ele><time>2026-04-09T08:15:21.701Z</time></trkpt><trkpt lat="43.7256753" lon="12.8930621"><ele>64.0</ele><time>2026-04-09T08:15:22.701Z</time></trkpt><trkpt lat="43.7258041" lon="12.8930084"><ele>64.0</ele><time>2026-04-09T08:15:23.702Z</time></trkpt><trkpt lat="43.7259179" lon="12.892923"><ele>64.0</ele><time>2026-04-09T08:15:24.702Z</time></trkpt><trkpt lat="43.7260179" lon="12.8927921"><ele>64.0</ele><time>2026-04-09T08:15:25.701Z</time></trkpt><trkpt lat="43.7261033" lon="12.8926333"><ele>63.33333333333333</ele><time>2026-04-09T08:15:26.701Z</time></trkpt><trkpt lat="43.7261946" lon="12.8924665"><ele>62.66666666666667</ele><time>2026-04-09T08:15:27.701Z</time></trkpt><trkpt lat="43.7262875" lon="12.8922565"><ele>62.0</ele><time>2026-04-09T08:15:28.7Z</time></trkpt><trkpt lat="43.7263879" lon="12.8920529"><ele>62.0</ele><time>2026-04-09T08:15:29.701Z</time></trkpt><trkpt lat="43.7264914" lon="12.8918206"><ele>62.0</ele><time>2026-04-09T08:15:30.705Z</time></trkpt><trkpt lat="43.7266122" lon="12.8915885"><ele>62.0</ele><time>2026-04-09T08:15:31.702Z</time></trkpt><trkpt lat="43.7267211" lon="12.8913495"><ele>61.66666666666667</ele><time>2026-04-09T08:15:32.701Z</time></trkpt><trkpt lat="43.726835" lon="12.8911113"><ele>61.33333333333333</ele><time>2026-04-09T08:15:33.702Z</time></trkpt><trkpt lat="43.7269428" lon="12.8908743"><ele>61.0</ele><time>2026-04-09T08:15:34.702Z</time></trkpt><trkpt lat="43.7270504" lon="12.8906375"><ele>61.0</ele><time>2026-04-09T08:15:35.701Z</time></trkpt><trkpt lat="43.7271635" lon="12.8904026"><ele>61.0</ele><time>2026-04-09T08:15:36.701Z</time></trkpt><trkpt lat="43.7272707" lon="12.8901685"><ele>61.0</ele><time>2026-04-09T08:15:37.703Z</time></trkpt><trkpt lat="43.7273787" lon="12.889936"><ele>61.33333333333333</ele><time>2026-04-09T08:15:38.702Z</time></trkpt><trkpt lat="43.7274888" lon="12.8896978"><ele>61.66666666666667</ele><time>2026-04-09T08:15:39.701Z</time></trkpt><trkpt lat="43.7275935" lon="12.8894694"><ele>62.0</ele><time>2026-04-09T08:15:40.701Z</time></trkpt><trkpt lat="43.7276936" lon="12.8892444"><ele>62.333333333333336</ele><time>2026-04-09T08:15:41.7Z</time></trkpt><trkpt lat="43.7277893" lon="12.8890224"><ele>62.66666666666667</ele><time>2026-04-09T08:15:42.701Z</time></trkpt><trkpt lat="43.727881" lon="12.888817"><ele>63.0</ele><time>2026-04-09T08:15:43.701Z</time></trkpt><trkpt lat="43.7279714" lon="12.8886271"><ele>63.0</ele><time>2026-04-09T08:15:44.702Z</time></trkpt><trkpt lat="43.7280573" lon="12.8884489"><ele>63.0</ele><time>2026-04-09T08:15:45.702Z</time></trkpt><trkpt lat="43.728139" lon="12.8882819"><ele>63.0</ele><time>2026-04-09T08:15:46.701Z</time></trkpt><trkpt lat="43.7282318" lon="12.8881187"><ele>63.0</ele><time>2026-04-09T08:15:47.702Z</time></trkpt><trkpt lat="43.728338" lon="12.8879724"><ele>63.0</ele><time>2026-04-09T08:15:48.702Z</time></trkpt><trkpt lat="43.7284495" lon="12.887845"><ele>63.0</ele><time>2026-04-09T08:15:49.702Z</time></trkpt><trkpt lat="43.7285753" lon="12.8877349"><ele>63.0</ele><time>2026-04-09T08:15:50.7Z</time></trkpt><trkpt lat="43.7287072" lon="12.8876363"><ele>61.66666666666667</ele><time>2026-04-09T08:15:51.702Z</time></trkpt><trkpt lat="43.7288538" lon="12.8875614"><ele>60.333333333333336</ele><time>2026-04-09T08:15:52.701Z</time></trkpt><trkpt lat="43.729003" lon="12.8874966"><ele>59.0</ele><time>2026-04-09T08:15:53.7Z</time></trkpt><trkpt lat="43.7291561" lon="12.8874433"><ele>59.0</ele><time>2026-04-09T08:15:54.701Z</time></trkpt><trkpt lat="43.7293135" lon="12.8873926"><ele>59.0</ele><time>2026-04-09T08:15:55.701Z</time></trkpt><trkpt lat="43.7294675" lon="12.8873468"><ele>59.0</ele><time>2026-04-09T08:15:56.702Z</time></trkpt><trkpt lat="43.7296246" lon="12.8873359"><ele>59.5</ele><time>2026-04-09T08:15:57.701Z</time></trkpt><trkpt lat="43.7297666" lon="12.8873331"><ele>60.0</ele><time>2026-04-09T08:15:58.702Z</time></trkpt><trkpt lat="43.7298979" lon="12.8873428"><ele>60.5</ele><time>2026-04-09T08:15:59.701Z</time></trkpt><trkpt lat="43.7300236" lon="12.8873628"><ele>61.0</ele><time>2026-04-09T08:16:00.702Z</time></trkpt><trkpt lat="43.7301291" lon="12.8874095"><ele>61.0</ele><time>2026-04-09T08:16:01.701Z</time></trkpt><trkpt lat="43.7302336" lon="12.8874511"><ele>60.99999999999999</ele><time>2026-04-09T08:16:02.701Z</time></trkpt><trkpt lat="43.7303316" lon="12.8874947"><ele>60.99999999999999</ele><time>2026-04-09T08:16:03.702Z</time></trkpt><trkpt lat="43.7304302" lon="12.8875363"><ele>61.0</ele><time>2026-04-09T08:16:04.702Z</time></trkpt><trkpt lat="43.7305255" lon="12.8875752"><ele>61.0</ele><time>2026-04-09T08:16:05.7Z</time></trkpt><trkpt lat="43.7306255" lon="12.8876177"><ele>61.0</ele><time>2026-04-09T08:16:06.703Z</time></trkpt><trkpt lat="43.7307216" lon="12.8876561"><ele>61.0</ele><time>2026-04-09T08:16:07.702Z</time></trkpt><trkpt lat="43.7308298" lon="12.887697"><ele>61.0</ele><time>2026-04-09T08:16:08.702Z</time></trkpt><trkpt lat="43.7309532" lon="12.8877374"><ele>61.0</ele><time>2026-04-09T08:16:09.701Z</time></trkpt><trkpt lat="43.731079" lon="12.8877536"><ele>61.0</ele><time>2026-04-09T08:16:10.707Z</time></trkpt><trkpt lat="43.731188" lon="12.8877549"><ele>60.99999999999999</ele><time>2026-04-09T08:16:11.701Z</time></trkpt><trkpt lat="43.7312893" lon="12.8877351"><ele>60.99999999999999</ele><time>2026-04-09T08:16:12.702Z</time></trkpt><trkpt lat="43.7314016" lon="12.8876957"><ele>61.0</ele><time>2026-04-09T08:16:13.701Z</time></trkpt><trkpt lat="43.7315147" lon="12.8876414"><ele>61.0</ele><time>2026-04-09T08:16:14.701Z</time></trkpt><trkpt lat="43.7316261" lon="12.8875691"><ele>62.5</ele><time>2026-04-09T08:16:15.701Z</time></trkpt><trkpt lat="43.7317383" lon="12.8874906"><ele>64.0</ele><time>2026-04-09T08:16:16.701Z</time></trkpt><trkpt lat="43.73186" lon="12.8873922"><ele>65.5</ele><time>2026-04-09T08:16:17.701Z</time></trkpt><trkpt lat="43.7319627" lon="12.8872826"><ele>67.0</ele><time>2026-04-09T08:16:18.702Z</time></trkpt><trkpt lat="43.7320632" lon="12.8871616"><ele>69.75</ele><time>2026-04-09T08:16:19.702Z</time></trkpt><trkpt lat="43.7321521" lon="12.8870282"><ele>72.5</ele><time>2026-04-09T08:16:20.701Z</time></trkpt><trkpt lat="43.732257" lon="12.8868973"><ele>75.25</ele><time>2026-04-09T08:16:21.701Z</time></trkpt><trkpt lat="43.7323716" lon="12.8867651"><ele>78.0</ele><time>2026-04-09T08:16:22.702Z</time></trkpt><trkpt lat="43.7324839" lon="12.886634"><ele>79.0</ele><time>2026-04-09T08:16:23.703Z</time></trkpt><trkpt lat="43.7325973" lon="12.8865082"><ele>80.0</ele><time>2026-04-09T08:16:24.701Z</time></trkpt><trkpt lat="43.7327218" lon="12.8863865"><ele>81.0</ele><time>2026-04-09T08:16:25.704Z</time></trkpt><trkpt lat="43.7328463" lon="12.8862872"><ele>82.0</ele><time>2026-04-09T08:16:26.702Z</time></trkpt><trkpt lat="43.7329573" lon="12.8861987"><ele>82.19999999999999</ele><time>2026-04-09T08:16:27.702Z</time></trkpt><trkpt lat="43.7330556" lon="12.8861174"><ele>82.4</ele><time>2026-04-09T08:16:28.702Z</time></trkpt><trkpt lat="43.7331459" lon="12.8860337"><ele>82.6</ele><time>2026-04-09T08:16:29.701Z</time></trkpt><trkpt lat="43.733231" lon="12.8859505"><ele>82.80000000000001</ele><time>2026-04-09T08:16:30.702Z</time></trkpt><trkpt lat="43.7333013" lon="12.8858834"><ele>83.0</ele><time>2026-04-09T08:16:31.706Z</time></trkpt><trkpt lat="43.7333668" lon="12.8858344"><ele>83.66666666666667</ele><time>2026-04-09T08:16:32.701Z</time></trkpt><trkpt lat="43.733454" lon="12.8857718"><ele>84.33333333333334</ele><time>2026-04-09T08:16:34.702Z</time></trkpt><trkpt lat="43.7335063" lon="12.8857175"><ele>85.0</ele><time>2026-04-09T08:17:20.701Z</time></trkpt><trkpt lat="43.7335795" lon="12.8856896"><ele>85.66666666666667</ele><time>2026-04-09T08:17:23.701Z</time></trkpt><trkpt lat="43.7336569" lon="12.8856577"><ele>86.33333333333333</ele><time>2026-04-09T08:17:26.701Z</time></trkpt><trkpt lat="43.7337302" lon="12.885651"><ele>87.0</ele><time>2026-04-09T08:17:32.701Z</time></trkpt><trkpt lat="43.7338098" lon="12.8856579"><ele>87.39999999999999</ele><time>2026-04-09T08:17:37.704Z</time></trkpt><trkpt lat="43.7338725" lon="12.8856729"><ele>87.8</ele><time>2026-04-09T08:17:39.702Z</time></trkpt><trkpt lat="43.7339401" lon="12.8856929"><ele>88.2</ele><time>2026-04-09T08:17:41.701Z</time></trkpt><trkpt lat="43.7340468" lon="12.8857323"><ele>88.6</ele><time>2026-04-09T08:17:43.702Z</time></trkpt><trkpt lat="43.7341749" lon="12.8857823"><ele>89.0</ele><time>2026-04-09T08:17:45.701Z</time></trkpt><trkpt lat="43.7342513" lon="12.8858099"><ele>89.0</ele><time>2026-04-09T08:17:46.702Z</time></trkpt><trkpt lat="43.7343196" lon="12.8858289"><ele>89.0</ele><time>2026-04-09T08:17:47.701Z</time></trkpt><trkpt lat="43.7343998" lon="12.885856"><ele>89.0</ele><time>2026-04-09T08:17:48.701Z</time></trkpt><trkpt lat="43.7344782" lon="12.8858865"><ele>89.0</ele><time>2026-04-09T08:17:49.702Z</time></trkpt><trkpt lat="43.7345725" lon="12.8859243"><ele>89.0</ele><time>2026-04-09T08:17:50.704Z</time></trkpt><trkpt lat="43.7346709" lon="12.8859624"><ele>89.0</ele><time>2026-04-09T08:17:51.702Z</time></trkpt><trkpt lat="43.7347668" lon="12.885988"><ele>87.83333333333334</ele><time>2026-04-09T08:17:52.702Z</time></trkpt><trkpt lat="43.7348517" lon="12.88602"><ele>86.66666666666667</ele><time>2026-04-09T08:17:53.702Z</time></trkpt><trkpt lat="43.7349301" lon="12.8860582"><ele>85.5</ele><time>2026-04-09T08:17:54.701Z</time></trkpt><trkpt lat="43.7349982" lon="12.8861242"><ele>84.33333333333333</ele><time>2026-04-09T08:17:55.701Z</time></trkpt><trkpt lat="43.7350574" lon="12.886219"><ele>83.16666666666666</ele><time>2026-04-09T08:17:56.702Z</time></trkpt><trkpt lat="43.7350985" lon="12.8863167"><ele>82.0</ele><time>2026-04-09T08:17:57.701Z</time></trkpt><trkpt lat="43.7351349" lon="12.8864217"><ele>82.0</ele><time>2026-04-09T08:17:58.701Z</time></trkpt><trkpt lat="43.7351743" lon="12.886522"><ele>82.0</ele><time>2026-04-09T08:17:59.703Z</time></trkpt><trkpt lat="43.7352161" lon="12.8866264"><ele>82.0</ele><time>2026-04-09T08:18:00.705Z</time></trkpt><trkpt lat="43.7352512" lon="12.8867373"><ele>82.0</ele><time>2026-04-09T08:18:01.705Z</time></trkpt><trkpt lat="43.7352828" lon="12.8868546"><ele>82.0</ele><time>2026-04-09T08:18:02.701Z</time></trkpt><trkpt lat="43.7353078" lon="12.8869739"><ele>82.0</ele><time>2026-04-09T08:18:03.701Z</time></trkpt><trkpt lat="43.7353339" lon="12.8871013"><ele>84.6</ele><time>2026-04-09T08:18:04.702Z</time></trkpt><trkpt lat="43.7353612" lon="12.8872341"><ele>87.19999999999999</ele><time>2026-04-09T08:18:05.703Z</time></trkpt><trkpt lat="43.7353891" lon="12.8873683"><ele>89.8</ele><time>2026-04-09T08:18:06.701Z</time></trkpt><trkpt lat="43.7354128" lon="12.8875033"><ele>92.4</ele><time>2026-04-09T08:18:07.701Z</time></trkpt><trkpt lat="43.7354435" lon="12.8876571"><ele>95.0</ele><time>2026-04-09T08:18:08.702Z</time></trkpt><trkpt lat="43.7354696" lon="12.8878243"><ele>95.0</ele><time>2026-04-09T08:18:09.701Z</time></trkpt><trkpt lat="43.7354908" lon="12.887979"><ele>95.0</ele><time>2026-04-09T08:18:10.701Z</time></trkpt><trkpt lat="43.7355199" lon="12.8881468"><ele>95.0</ele><time>2026-04-09T08:18:11.702Z</time></trkpt><trkpt lat="43.73555" lon="12.8883065"><ele>95.0</ele><time>2026-04-09T08:18:12.703Z</time></trkpt><trkpt lat="43.7355844" lon="12.8884679"><ele>93.75</ele><time>2026-04-09T08:18:13.703Z</time></trkpt><trkpt lat="43.7356142" lon="12.8886106"><ele>92.5</ele><time>2026-04-09T08:18:14.701Z</time></trkpt><trkpt lat="43.7356601" lon="12.8887551"><ele>91.25</ele><time>2026-04-09T08:18:15.703Z</time></trkpt><trkpt lat="43.7357203" lon="12.8889064"><ele>90.0</ele><time>2026-04-09T08:18:16.701Z</time></trkpt><trkpt lat="43.7357786" lon="12.8890627"><ele>90.0</ele><time>2026-04-09T08:18:17.7Z</time></trkpt><trkpt lat="43.7358413" lon="12.8892251"><ele>90.0</ele><time>2026-04-09T08:18:18.703Z</time></trkpt><trkpt lat="43.7359031" lon="12.8893883"><ele>90.0</ele><time>2026-04-09T08:18:19.705Z</time></trkpt><trkpt lat="43.7359745" lon="12.8895489"><ele>90.0</ele><time>2026-04-09T08:18:20.702Z</time></trkpt><trkpt lat="43.7360434" lon="12.8897093"><ele>89.5</ele><time>2026-04-09T08:18:21.701Z</time></trkpt><trkpt lat="43.7361116" lon="12.8898638"><ele>89.0</ele><time>2026-04-09T08:18:22.701Z</time></trkpt><trkpt lat="43.7361857" lon="12.8900092"><ele>88.5</ele><time>2026-04-09T08:18:23.701Z</time></trkpt><trkpt lat="43.736273" lon="12.8901407"><ele>88.0</ele><time>2026-04-09T08:18:24.703Z</time></trkpt><trkpt lat="43.7363674" lon="12.8902434"><ele>88.0</ele><time>2026-04-09T08:18:25.703Z</time></trkpt><trkpt lat="43.7364718" lon="12.8903294"><ele>88.0</ele><time>2026-04-09T08:18:26.701Z</time></trkpt><trkpt lat="43.7365638" lon="12.8903995"><ele>88.0</ele><time>2026-04-09T08:18:27.702Z</time></trkpt><trkpt lat="43.7366753" lon="12.8904463"><ele>88.0</ele><time>2026-04-09T08:18:28.701Z</time></trkpt><trkpt lat="43.7367897" lon="12.8904893"><ele>90.25</ele><time>2026-04-09T08:18:29.701Z</time></trkpt><trkpt lat="43.7368975" lon="12.8905438"><ele>92.5</ele><time>2026-04-09T08:18:30.703Z</time></trkpt><trkpt lat="43.7369971" lon="12.8906238"><ele>94.75</ele><time>2026-04-09T08:18:31.701Z</time></trkpt><trkpt lat="43.7370721" lon="12.8907455"><ele>97.0</ele><time>2026-04-09T08:18:32.701Z</time></trkpt><trkpt lat="43.7371274" lon="12.8908894"><ele>99.0</ele><time>2026-04-09T08:18:33.702Z</time></trkpt><trkpt lat="43.7371649" lon="12.891067"><ele>101.0</ele><time>2026-04-09T08:18:34.701Z</time></trkpt><trkpt lat="43.7371709" lon="12.8912499"><ele>103.0</ele><time>2026-04-09T08:18:35.702Z</time></trkpt><trkpt lat="43.7371336" lon="12.891422"><ele>105.0</ele><time>2026-04-09T08:18:36.703Z</time></trkpt><trkpt lat="43.7370777" lon="12.8915742"><ele>105.0</ele><time>2026-04-09T08:18:37.701Z</time></trkpt><trkpt lat="43.73703" lon="12.8917201"><ele>105.0</ele><time>2026-04-09T08:18:38.702Z</time></trkpt><trkpt lat="43.7369787" lon="12.8918771"><ele>105.0</ele><time>2026-04-09T08:18:39.702Z</time></trkpt><trkpt lat="43.7369312" lon="12.8920331"><ele>105.0</ele><time>2026-04-09T08:18:40.702Z</time></trkpt><trkpt lat="43.7368921" lon="12.8922016"><ele>100.0</ele><time>2026-04-09T08:18:41.701Z</time></trkpt><trkpt lat="43.7368585" lon="12.8923869"><ele>95.0</ele><time>2026-04-09T08:18:42.702Z</time></trkpt><trkpt lat="43.7368294" lon="12.8925752"><ele>90.0</ele><time>2026-04-09T08:18:43.701Z</time></trkpt><trkpt lat="43.7367996" lon="12.892763"><ele>85.0</ele><time>2026-04-09T08:18:44.7Z</time></trkpt><trkpt lat="43.7367761" lon="12.8929471"><ele>84.25</ele><time>2026-04-09T08:18:45.702Z</time></trkpt><trkpt lat="43.7367665" lon="12.8931318"><ele>83.5</ele><time>2026-04-09T08:18:46.701Z</time></trkpt><trkpt lat="43.7367704" lon="12.8933083"><ele>82.75</ele><time>2026-04-09T08:18:47.711Z</time></trkpt><trkpt lat="43.7367827" lon="12.8934922"><ele>82.0</ele><time>2026-04-09T08:18:48.704Z</time></trkpt><trkpt lat="43.7368354" lon="12.8936761"><ele>81.5</ele><time>2026-04-09T08:18:49.701Z</time></trkpt><trkpt lat="43.7368877" lon="12.8938578"><ele>81.0</ele><time>2026-04-09T08:18:50.702Z</time></trkpt><trkpt lat="43.736953" lon="12.8940356"><ele>80.5</ele><time>2026-04-09T08:18:51.701Z</time></trkpt><trkpt lat="43.7370199" lon="12.8942128"><ele>80.0</ele><time>2026-04-09T08:18:52.702Z</time></trkpt><trkpt lat="43.7370852" lon="12.8943944"><ele>79.5</ele><time>2026-04-09T08:18:53.702Z</time></trkpt><trkpt lat="43.7371478" lon="12.8945679"><ele>79.0</ele><time>2026-04-09T08:18:54.701Z</time></trkpt><trkpt lat="43.7372084" lon="12.8947331"><ele>78.5</ele><time>2026-04-09T08:18:55.701Z</time></trkpt><trkpt lat="43.7372726" lon="12.8949001"><ele>78.0</ele><time>2026-04-09T08:18:56.701Z</time></trkpt><trkpt lat="43.7373381" lon="12.8950699"><ele>77.75</ele><time>2026-04-09T08:18:57.701Z</time></trkpt><trkpt lat="43.7374035" lon="12.8952411"><ele>77.5</ele><time>2026-04-09T08:18:58.705Z</time></trkpt><trkpt lat="43.7374678" lon="12.8954128"><ele>77.25</ele><time>2026-04-09T08:18:59.701Z</time></trkpt><trkpt lat="43.7375299" lon="12.8955839"><ele>77.0</ele><time>2026-04-09T08:19:00.702Z</time></trkpt><trkpt lat="43.7375923" lon="12.8957502"><ele>77.0</ele><time>2026-04-09T08:19:01.702Z</time></trkpt><trkpt lat="43.7376545" lon="12.8959132"><ele>77.0</ele><time>2026-04-09T08:19:02.701Z</time></trkpt><trkpt lat="43.7377152" lon="12.896079"><ele>77.0</ele><time>2026-04-09T08:19:03.703Z</time></trkpt><trkpt lat="43.7377739" lon="12.8962361"><ele>77.0</ele><time>2026-04-09T08:19:04.701Z</time></trkpt><trkpt lat="43.7378309" lon="12.8963863"><ele>77.0</ele><time>2026-04-09T08:19:05.701Z</time></trkpt><trkpt lat="43.737882" lon="12.8965243"><ele>77.0</ele><time>2026-04-09T08:19:06.702Z</time></trkpt><trkpt lat="43.7379318" lon="12.8966583"><ele>77.0</ele><time>2026-04-09T08:19:07.702Z</time></trkpt><trkpt lat="43.7379786" lon="12.8967794"><ele>77.0</ele><time>2026-04-09T08:19:08.702Z</time></trkpt><trkpt lat="43.738017" lon="12.8968805"><ele>77.0</ele><time>2026-04-09T08:19:09.702Z</time></trkpt><trkpt lat="43.7380592" lon="12.8969762"><ele>77.16666666666667</ele><time>2026-04-09T08:19:10.701Z</time></trkpt><trkpt lat="43.7380878" lon="12.8970625"><ele>77.33333333333334</ele><time>2026-04-09T08:19:11.701Z</time></trkpt><trkpt lat="43.7380745" lon="12.8971545"><ele>77.5</ele><time>2026-04-09T08:19:13.703Z</time></trkpt><trkpt lat="43.7380561" lon="12.897242"><ele>77.66666666666667</ele><time>2026-04-09T08:19:18.702Z</time></trkpt><trkpt lat="43.7380664" lon="12.8973316"><ele>77.83333333333333</ele><time>2026-04-09T08:26:49.702Z</time></trkpt><trkpt lat="43.738122" lon="12.8974434"><ele>78.0</ele><time>2026-04-09T08:26:52.703Z</time></trkpt><trkpt lat="43.7382035" lon="12.8974717"><ele>78.0</ele><time>2026-04-09T08:26:55.702Z</time></trkpt><trkpt lat="43.7382233" lon="12.8973364"><ele>78.0</ele><time>2026-04-09T08:27:03.702Z</time></trkpt><trkpt lat="43.7381956" lon="12.8972572"><ele>78.0</ele><time>2026-04-09T08:27:04.702Z</time></trkpt><trkpt lat="43.7381648" lon="12.8971772"><ele>78.0</ele><time>2026-04-09T08:27:05.702Z</time></trkpt><trkpt lat="43.738129" lon="12.897087"><ele>78.0</ele><time>2026-04-09T08:27:06.703Z</time></trkpt><trkpt lat="43.7380895" lon="12.896987"><ele>78.0</ele><time>2026-04-09T08:27:07.702Z</time></trkpt><trkpt lat="43.7380499" lon="12.8968831"><ele>78.0</ele><time>2026-04-09T08:27:08.702Z</time></trkpt><trkpt lat="43.7380018" lon="12.8967714"><ele>78.0</ele><time>2026-04-09T08:27:09.702Z</time></trkpt><trkpt lat="43.737957" lon="12.8966561"><ele>78.0</ele><time>2026-04-09T08:27:10.702Z</time></trkpt><trkpt lat="43.7379136" lon="12.8965341"><ele>78.0</ele><time>2026-04-09T08:27:11.703Z</time></trkpt><trkpt lat="43.7378688" lon="12.8964133"><ele>78.0</ele><time>2026-04-09T08:27:12.703Z</time></trkpt><trkpt lat="43.7378205" lon="12.8962891"><ele>77.8</ele><time>2026-04-09T08:27:13.702Z</time></trkpt><trkpt lat="43.7377739" lon="12.896158"><ele>77.6</ele><time>2026-04-09T08:27:14.703Z</time></trkpt><trkpt lat="43.7377269" lon="12.8960235"><ele>77.4</ele><time>2026-04-09T08:27:15.702Z</time></trkpt><trkpt lat="43.7376751" lon="12.8958876"><ele>77.2</ele><time>2026-04-09T08:27:16.702Z</time></trkpt><trkpt lat="43.7376218" lon="12.8957446"><ele>77.0</ele><time>2026-04-09T08:27:17.703Z</time></trkpt><trkpt lat="43.737569" lon="12.8956125"><ele>77.0</ele><time>2026-04-09T08:27:18.702Z</time></trkpt><trkpt lat="43.7375279" lon="12.8955004"><ele>77.0</ele><time>2026-04-09T08:27:19.703Z</time></trkpt><trkpt lat="43.737494" lon="12.8954144"><ele>77.0</ele><time>2026-04-09T08:27:20.702Z</time></trkpt><trkpt lat="43.7374737" lon="12.8953035"><ele>77.0</ele><time>2026-04-09T08:27:22.703Z</time></trkpt><trkpt lat="43.7374538" lon="12.8952117"><ele>77.0</ele><time>2026-04-09T08:27:25.702Z</time></trkpt><trkpt lat="43.7373725" lon="12.8951155"><ele>77.0</ele><time>2026-04-09T08:27:53.702Z</time></trkpt><trkpt lat="43.7373389" lon="12.8950292"><ele>77.2</ele><time>2026-04-09T08:27:54.702Z</time></trkpt><trkpt lat="43.7373008" lon="12.8949117"><ele>77.4</ele><time>2026-04-09T08:27:55.703Z</time></trkpt><trkpt lat="43.7372616" lon="12.8947905"><ele>77.6</ele><time>2026-04-09T08:27:56.702Z</time></trkpt><trkpt lat="43.7372162" lon="12.8946596"><ele>77.8</ele><time>2026-04-09T08:27:57.702Z</time></trkpt><trkpt lat="43.7371677" lon="12.8945223"><ele>78.0</ele><time>2026-04-09T08:27:58.702Z</time></trkpt><trkpt lat="43.7371104" lon="12.8943753"><ele>78.5</ele><time>2026-04-09T08:27:59.702Z</time></trkpt><trkpt lat="43.7370517" lon="12.8942276"><ele>79.0</ele><time>2026-04-09T08:28:00.702Z</time></trkpt><trkpt lat="43.7369969" lon="12.8940708"><ele>79.5</ele><time>2026-04-09T08:28:01.702Z</time></trkpt><trkpt lat="43.7369392" lon="12.8939122"><ele>80.0</ele><time>2026-04-09T08:28:02.702Z</time></trkpt><trkpt lat="43.7368886" lon="12.893753"><ele>79.75</ele><time>2026-04-09T08:28:03.702Z</time></trkpt><trkpt lat="43.7368372" lon="12.8935827"><ele>79.5</ele><time>2026-04-09T08:28:04.702Z</time></trkpt><trkpt lat="43.7368094" lon="12.8934018"><ele>79.25</ele><time>2026-04-09T08:28:05.703Z</time></trkpt><trkpt lat="43.7367986" lon="12.8932114"><ele>79.0</ele><time>2026-04-09T08:28:06.703Z</time></trkpt><trkpt lat="43.7368072" lon="12.8930258"><ele>79.75</ele><time>2026-04-09T08:28:07.703Z</time></trkpt><trkpt lat="43.736828" lon="12.8928462"><ele>80.5</ele><time>2026-04-09T08:28:08.702Z</time></trkpt><trkpt lat="43.7368534" lon="12.8926619"><ele>81.25</ele><time>2026-04-09T08:28:09.703Z</time></trkpt><trkpt lat="43.7368878" lon="12.89248"><ele>82.0</ele><time>2026-04-09T08:28:10.703Z</time></trkpt><trkpt lat="43.736926" lon="12.8923014"><ele>87.0</ele><time>2026-04-09T08:28:11.702Z</time></trkpt><trkpt lat="43.7369699" lon="12.892131"><ele>92.0</ele><time>2026-04-09T08:28:12.702Z</time></trkpt><trkpt lat="43.7370185" lon="12.8919774"><ele>97.0</ele><time>2026-04-09T08:28:13.702Z</time></trkpt><trkpt lat="43.7370707" lon="12.8918289"><ele>102.0</ele><time>2026-04-09T08:28:14.702Z</time></trkpt><trkpt lat="43.7371224" lon="12.8916848"><ele>102.6</ele><time>2026-04-09T08:28:15.702Z</time></trkpt><trkpt lat="43.7371696" lon="12.891555"><ele>103.19999999999999</ele><time>2026-04-09T08:28:16.703Z</time></trkpt><trkpt lat="43.7372088" lon="12.8914255"><ele>103.8</ele><time>2026-04-09T08:28:17.702Z</time></trkpt><trkpt lat="43.7372357" lon="12.8912842"><ele>104.4</ele><time>2026-04-09T08:28:18.702Z</time></trkpt><trkpt lat="43.7372319" lon="12.8911394"><ele>105.0</ele><time>2026-04-09T08:28:19.702Z</time></trkpt><trkpt lat="43.7372122" lon="12.8910035"><ele>103.66666666666667</ele><time>2026-04-09T08:28:20.702Z</time></trkpt><trkpt lat="43.7371819" lon="12.8908811"><ele>102.33333333333334</ele><time>2026-04-09T08:28:21.702Z</time></trkpt><trkpt lat="43.7371491" lon="12.8907733"><ele>101.0</ele><time>2026-04-09T08:28:22.702Z</time></trkpt><trkpt lat="43.7371118" lon="12.8906856"><ele>99.66666666666667</ele><time>2026-04-09T08:28:23.703Z</time></trkpt><trkpt lat="43.7370661" lon="12.8906248"><ele>98.33333333333334</ele><time>2026-04-09T08:28:24.703Z</time></trkpt><trkpt lat="43.7369925" lon="12.8905418"><ele>97.0</ele><time>2026-04-09T08:28:26.702Z</time></trkpt><trkpt lat="43.7370241" lon="12.8904202"><ele>97.00000000000001</ele><time>2026-04-09T08:28:28.702Z</time></trkpt><trkpt lat="43.7370742" lon="12.8903573"><ele>97.0</ele><time>2026-04-09T08:28:29.702Z</time></trkpt><trkpt lat="43.7371361" lon="12.8902941"><ele>97.0</ele><time>2026-04-09T08:28:30.703Z</time></trkpt><trkpt lat="43.7372115" lon="12.8902401"><ele>97.0</ele><time>2026-04-09T08:28:31.702Z</time></trkpt><trkpt lat="43.7373073" lon="12.8902096"><ele>97.00000000000001</ele><time>2026-04-09T08:28:32.702Z</time></trkpt><trkpt lat="43.7373987" lon="12.8902012"><ele>97.0</ele><time>2026-04-09T08:28:33.702Z</time></trkpt><trkpt lat="43.7374846" lon="12.8902031"><ele>97.0</ele><time>2026-04-09T08:28:34.703Z</time></trkpt><trkpt lat="43.7375728" lon="12.8902183"><ele>97.0</ele><time>2026-04-09T08:28:35.703Z</time></trkpt><trkpt lat="43.7376736" lon="12.8902357"><ele>97.0</ele><time>2026-04-09T08:28:36.703Z</time></trkpt><trkpt lat="43.7377809" lon="12.8902438"><ele>97.0</ele><time>2026-04-09T08:28:37.702Z</time></trkpt><trkpt lat="43.7378807" lon="12.8902506"><ele>97.0</ele><time>2026-04-09T08:28:38.702Z</time></trkpt><trkpt lat="43.7379717" lon="12.8902666"><ele>98.19999999999999</ele><time>2026-04-09T08:28:39.703Z</time></trkpt><trkpt lat="43.7380616" lon="12.8903132"><ele>99.4</ele><time>2026-04-09T08:28:40.702Z</time></trkpt><trkpt lat="43.7381504" lon="12.8904002"><ele>100.6</ele><time>2026-04-09T08:28:41.702Z</time></trkpt><trkpt lat="43.7382259" lon="12.890504"><ele>101.80000000000001</ele><time>2026-04-09T08:28:42.702Z</time></trkpt><trkpt lat="43.738298" lon="12.8905915"><ele>103.0</ele><time>2026-04-09T08:28:43.703Z</time></trkpt><trkpt lat="43.7383717" lon="12.890633"><ele>103.0</ele><time>2026-04-09T08:28:44.702Z</time></trkpt><trkpt lat="43.738459" lon="12.8906339"><ele>103.0</ele><time>2026-04-09T08:28:45.703Z</time></trkpt><trkpt lat="43.7385665" lon="12.8906013"><ele>103.0</ele><time>2026-04-09T08:28:46.703Z</time></trkpt><trkpt lat="43.7386964" lon="12.890544"><ele>103.0</ele><time>2026-04-09T08:28:47.702Z</time></trkpt><trkpt lat="43.7388284" lon="12.890478"><ele>105.75</ele><time>2026-04-09T08:28:48.703Z</time></trkpt><trkpt lat="43.7389439" lon="12.8904015"><ele>108.5</ele><time>2026-04-09T08:28:49.702Z</time></trkpt><trkpt lat="43.7390605" lon="12.8903257"><ele>111.25</ele><time>2026-04-09T08:28:50.703Z</time></trkpt><trkpt lat="43.7391762" lon="12.8902681"><ele>114.0</ele><time>2026-04-09T08:28:51.703Z</time></trkpt><trkpt lat="43.7392905" lon="12.890221"><ele>115.5</ele><time>2026-04-09T08:28:52.703Z</time></trkpt><trkpt lat="43.7394102" lon="12.890175"><ele>117.0</ele><time>2026-04-09T08:28:53.702Z</time></trkpt><trkpt lat="43.7395296" lon="12.8901414"><ele>118.5</ele><time>2026-04-09T08:28:54.702Z</time></trkpt><trkpt lat="43.739646" lon="12.8901171"><ele>120.0</ele><time>2026-04-09T08:28:55.703Z</time></trkpt><trkpt lat="43.7397706" lon="12.8901004"><ele>120.0</ele><time>2026-04-09T08:28:56.702Z</time></trkpt><trkpt lat="43.7398919" lon="12.8901077"><ele>120.0</ele><time>2026-04-09T08:28:57.702Z</time></trkpt><trkpt lat="43.740021" lon="12.890157"><ele>120.0</ele><time>2026-04-09T08:28:58.702Z</time></trkpt><trkpt lat="43.7401466" lon="12.8902192"><ele>120.0</ele><time>2026-04-09T08:28:59.702Z</time></trkpt><trkpt lat="43.7402529" lon="12.8903066"><ele>121.0</ele><time>2026-04-09T08:29:00.703Z</time></trkpt><trkpt lat="43.7403613" lon="12.8904102"><ele>122.0</ele><time>2026-04-09T08:29:01.702Z</time></trkpt><trkpt lat="43.7404591" lon="12.8905091"><ele>123.0</ele><time>2026-04-09T08:29:02.702Z</time></trkpt><trkpt lat="43.7405677" lon="12.8906138"><ele>124.0</ele><time>2026-04-09T08:29:03.702Z</time></trkpt><trkpt lat="43.7406805" lon="12.8906989"><ele>124.0</ele><time>2026-04-09T08:29:04.702Z</time></trkpt><trkpt lat="43.7407994" lon="12.8907711"><ele>124.0</ele><time>2026-04-09T08:29:05.702Z</time></trkpt><trkpt lat="43.740933" lon="12.8908293"><ele>124.0</ele><time>2026-04-09T08:29:06.702Z</time></trkpt><trkpt lat="43.7410452" lon="12.8909027"><ele>124.0</ele><time>2026-04-09T08:29:07.703Z</time></trkpt><trkpt lat="43.7411305" lon="12.8909948"><ele>125.80000000000001</ele><time>2026-04-09T08:29:08.702Z</time></trkpt><trkpt lat="43.7411915" lon="12.8910857"><ele>127.60000000000001</ele><time>2026-04-09T08:29:09.702Z</time></trkpt><trkpt lat="43.7412397" lon="12.8911903"><ele>129.4</ele><time>2026-04-09T08:29:10.702Z</time></trkpt><trkpt lat="43.7412753" lon="12.8912974"><ele>131.20000000000002</ele><time>2026-04-09T08:29:11.703Z</time></trkpt><trkpt lat="43.7413213" lon="12.8914022"><ele>133.0</ele><time>2026-04-09T08:29:12.702Z</time></trkpt><trkpt lat="43.741389" lon="12.891525"><ele>133.0</ele><time>2026-04-09T08:29:13.703Z</time></trkpt><trkpt lat="43.7414719" lon="12.8916305"><ele>133.0</ele><time>2026-04-09T08:29:14.702Z</time></trkpt><trkpt lat="43.7415735" lon="12.8917048"><ele>133.0</ele><time>2026-04-09T08:29:15.702Z</time></trkpt><trkpt lat="43.7416854" lon="12.8917551"><ele>133.0</ele><time>2026-04-09T08:29:16.702Z</time></trkpt><trkpt lat="43.7418078" lon="12.8917936"><ele>132.0</ele><time>2026-04-09T08:29:17.703Z</time></trkpt><trkpt lat="43.7419253" lon="12.8918302"><ele>131.0</ele><time>2026-04-09T08:29:18.703Z</time></trkpt><trkpt lat="43.7420258" lon="12.8918628"><ele>130.0</ele><time>2026-04-09T08:29:19.703Z</time></trkpt><trkpt lat="43.7421199" lon="12.8918989"><ele>129.0</ele><time>2026-04-09T08:29:20.703Z</time></trkpt><trkpt lat="43.7422069" lon="12.8919304"><ele>128.0</ele><time>2026-04-09T08:29:21.703Z</time></trkpt><trkpt lat="43.7422861" lon="12.8919713"><ele>128.0</ele><time>2026-04-09T08:29:22.702Z</time></trkpt><trkpt lat="43.742345" lon="12.8920161"><ele>128.0</ele><time>2026-04-09T08:29:23.702Z</time></trkpt><trkpt lat="43.7424164" lon="12.8920934"><ele>128.0</ele><time>2026-04-09T08:29:25.703Z</time></trkpt><trkpt lat="43.7424826" lon="12.8922291"><ele>128.0</ele><time>2026-04-09T08:29:27.702Z</time></trkpt><trkpt lat="43.7425152" lon="12.8923278"><ele>128.0</ele><time>2026-04-09T08:29:28.703Z</time></trkpt><trkpt lat="43.7425454" lon="12.8924544"><ele>127.60000000000001</ele><time>2026-04-09T08:29:29.702Z</time></trkpt><trkpt lat="43.7425723" lon="12.8926179"><ele>127.20000000000002</ele><time>2026-04-09T08:29:30.703Z</time></trkpt><trkpt lat="43.7425782" lon="12.8927569"><ele>126.8</ele><time>2026-04-09T08:29:31.702Z</time></trkpt><trkpt lat="43.7425729" lon="12.8928836"><ele>126.4</ele><time>2026-04-09T08:29:32.702Z</time></trkpt><trkpt lat="43.7425449" lon="12.8929952"><ele>126.0</ele><time>2026-04-09T08:29:33.703Z</time></trkpt><trkpt lat="43.7425308" lon="12.8930874"><ele>126.0</ele><time>2026-04-09T08:29:34.703Z</time></trkpt><trkpt lat="43.7425009" lon="12.8932239"><ele>126.0</ele><time>2026-04-09T08:29:36.702Z</time></trkpt><trkpt lat="43.7424925" lon="12.893313"><ele>126.0</ele><time>2026-04-09T08:29:38.702Z</time></trkpt><trkpt lat="43.7425289" lon="12.8932149"><ele>126.0</ele><time>2026-04-09T08:29:42.703Z</time></trkpt><trkpt lat="43.7425622" lon="12.8930124"><ele>126.0</ele><time>2026-04-09T08:29:44.703Z</time></trkpt><trkpt lat="43.7425797" lon="12.8928971"><ele>126.0</ele><time>2026-04-09T08:29:45.703Z</time></trkpt><trkpt lat="43.7425871" lon="12.8927705"><ele>126.0</ele><time>2026-04-09T08:29:46.703Z</time></trkpt><trkpt lat="43.7425724" lon="12.8926448"><ele>126.0</ele><time>2026-04-09T08:29:47.702Z</time></trkpt><trkpt lat="43.7425562" lon="12.8925385"><ele>126.0</ele><time>2026-04-09T08:29:48.702Z</time></trkpt><trkpt lat="43.7425412" lon="12.8924451"><ele>126.0</ele><time>2026-04-09T08:29:49.703Z</time></trkpt><trkpt lat="43.7425289" lon="12.8923517"><ele>126.0</ele><time>2026-04-09T08:29:50.703Z</time></trkpt><trkpt lat="43.7425212" lon="12.8922161"><ele>126.33333333333333</ele><time>2026-04-09T08:29:52.703Z</time></trkpt><trkpt lat="43.7425335" lon="12.8921221"><ele>126.66666666666666</ele><time>2026-04-09T08:30:01.703Z</time></trkpt><trkpt lat="43.7425978" lon="12.8919881"><ele>127.0</ele><time>2026-04-09T08:30:03.702Z</time></trkpt><trkpt lat="43.742646" lon="12.8918922"><ele>127.33333333333333</ele><time>2026-04-09T08:30:04.702Z</time></trkpt><trkpt lat="43.7426883" lon="12.8918156"><ele>127.66666666666666</ele><time>2026-04-09T08:30:05.702Z</time></trkpt><trkpt lat="43.7427303" lon="12.8917236"><ele>128.0</ele><time>2026-04-09T08:30:06.702Z</time></trkpt><trkpt lat="43.742774" lon="12.8916148"><ele>128.20000000000002</ele><time>2026-04-09T08:30:07.702Z</time></trkpt><trkpt lat="43.7428246" lon="12.8915012"><ele>128.4</ele><time>2026-04-09T08:30:08.702Z</time></trkpt><trkpt lat="43.7428679" lon="12.891372"><ele>128.60000000000002</ele><time>2026-04-09T08:30:09.702Z</time></trkpt><trkpt lat="43.7429067" lon="12.8912369"><ele>128.8</ele><time>2026-04-09T08:30:10.702Z</time></trkpt><trkpt lat="43.742945" lon="12.8911011"><ele>129.0</ele><time>2026-04-09T08:30:11.703Z</time></trkpt><trkpt lat="43.7429862" lon="12.8909717"><ele>131.0</ele><time>2026-04-09T08:30:12.703Z</time></trkpt><trkpt lat="43.7430188" lon="12.8908558"><ele>133.0</ele><time>2026-04-09T08:30:13.702Z</time></trkpt><trkpt lat="43.7430515" lon="12.8907459"><ele>135.0</ele><time>2026-04-09T08:30:14.702Z</time></trkpt><trkpt lat="43.7430829" lon="12.8906495"><ele>137.0</ele><time>2026-04-09T08:30:15.702Z</time></trkpt><trkpt lat="43.7431093" lon="12.8905474"><ele>139.0</ele><time>2026-04-09T08:30:16.703Z</time></trkpt><trkpt lat="43.7431428" lon="12.8904456"><ele>141.0</ele><time>2026-04-09T08:30:17.703Z</time></trkpt><trkpt lat="43.7431761" lon="12.8903412"><ele>141.0</ele><time>2026-04-09T08:30:18.702Z</time></trkpt><trkpt lat="43.7432131" lon="12.8902307"><ele>141.0</ele><time>2026-04-09T08:30:19.702Z</time></trkpt><trkpt lat="43.7432521" lon="12.8901059"><ele>141.0</ele><time>2026-04-09T08:30:20.703Z</time></trkpt><trkpt lat="43.7432969" lon="12.8899785"><ele>141.0</ele><time>2026-04-09T08:30:21.703Z</time></trkpt><trkpt lat="43.7433437" lon="12.889844"><ele>141.0</ele><time>2026-04-09T08:30:22.703Z</time></trkpt><trkpt lat="43.7433917" lon="12.8896958"><ele>142.2</ele><time>2026-04-09T08:30:23.702Z</time></trkpt><trkpt lat="43.7434471" lon="12.8895468"><ele>143.39999999999998</ele><time>2026-04-09T08:30:24.702Z</time></trkpt><trkpt lat="43.743485" lon="12.8894116"><ele>144.6</ele><time>2026-04-09T08:30:25.703Z</time></trkpt><trkpt lat="43.7435192" lon="12.8892876"><ele>145.79999999999998</ele><time>2026-04-09T08:30:26.703Z</time></trkpt><trkpt lat="43.7435483" lon="12.8891841"><ele>147.0</ele><time>2026-04-09T08:30:27.703Z</time></trkpt><trkpt lat="43.7435715" lon="12.8891019"><ele>148.0</ele><time>2026-04-09T08:30:28.703Z</time></trkpt><trkpt lat="43.7435778" lon="12.8890145"><ele>149.0</ele><time>2026-04-09T08:30:29.702Z</time></trkpt><trkpt lat="43.7435659" lon="12.8889216"><ele>150.0</ele><time>2026-04-09T08:30:34.702Z</time></trkpt><trkpt lat="43.7435381" lon="12.8888175"><ele>151.0</ele><time>2026-04-09T08:30:36.702Z</time></trkpt><trkpt lat="43.7435148" lon="12.8887263"><ele>152.0</ele><time>2026-04-09T08:30:37.703Z</time></trkpt><trkpt lat="43.7434895" lon="12.888595"><ele>153.0</ele><time>2026-04-09T08:30:38.703Z</time></trkpt><trkpt lat="43.7434619" lon="12.888477"><ele>154.0</ele><time>2026-04-09T08:30:39.703Z</time></trkpt><trkpt lat="43.7434369" lon="12.888354"><ele>155.0</ele><time>2026-04-09T08:30:40.703Z</time></trkpt><trkpt lat="43.7434064" lon="12.8882321"><ele>156.0</ele><time>2026-04-09T08:30:41.703Z</time></trkpt><trkpt lat="43.7433869" lon="12.8881477"><ele>157.0</ele><time>2026-04-09T08:30:42.703Z</time></trkpt><trkpt lat="43.7433475" lon="12.888004"><ele>158.0</ele><time>2026-04-09T08:30:44.703Z</time></trkpt><trkpt lat="43.7433414" lon="12.8879"><ele>159.0</ele><time>2026-04-09T08:30:48.703Z</time></trkpt><trkpt lat="43.7433521" lon="12.8880132"><ele>159.0</ele><time>2026-04-09T08:31:03.702Z</time></trkpt><trkpt lat="43.743375" lon="12.8881207"><ele>159.0</ele><time>2026-04-09T08:31:04.702Z</time></trkpt><trkpt lat="43.7434055" lon="12.888228"><ele>159.0</ele><time>2026-04-09T08:31:05.703Z</time></trkpt><trkpt lat="43.7434359" lon="12.8883342"><ele>159.0</ele><time>2026-04-09T08:31:06.702Z</time></trkpt><trkpt lat="43.7434561" lon="12.8884252"><ele>159.0</ele><time>2026-04-09T08:31:07.702Z</time></trkpt><trkpt lat="43.7434893" lon="12.8885791"><ele>159.0</ele><time>2026-04-09T08:31:09.702Z</time></trkpt><trkpt lat="43.7435112" lon="12.8886654"><ele>158.83333333333334</ele><time>2026-04-09T08:31:10.702Z</time></trkpt><trkpt lat="43.7435484" lon="12.8888111"><ele>158.66666666666666</ele><time>2026-04-09T08:31:12.703Z</time></trkpt><trkpt lat="43.7435756" lon="12.8889102"><ele>158.5</ele><time>2026-04-09T08:31:14.702Z</time></trkpt><trkpt lat="43.7436459" lon="12.8889685"><ele>158.33333333333331</ele><time>2026-04-09T08:31:18.702Z</time></trkpt><trkpt lat="43.7437334" lon="12.8889251"><ele>158.16666666666666</ele><time>2026-04-09T08:31:20.702Z</time></trkpt><trkpt lat="43.7437838" lon="12.8888576"><ele>158.0</ele><time>2026-04-09T08:31:21.702Z</time></trkpt><trkpt lat="43.7438301" lon="12.8887788"><ele>158.0</ele><time>2026-04-09T08:31:22.702Z</time></trkpt><trkpt lat="43.7438813" lon="12.8887057"><ele>158.0</ele><time>2026-04-09T08:31:23.703Z</time></trkpt><trkpt lat="43.7439479" lon="12.8886372"><ele>158.0</ele><time>2026-04-09T08:31:24.702Z</time></trkpt><trkpt lat="43.7440156" lon="12.888564"><ele>158.0</ele><time>2026-04-09T08:31:25.702Z</time></trkpt><trkpt lat="43.7440841" lon="12.8884878"><ele>158.0</ele><time>2026-04-09T08:31:26.703Z</time></trkpt><trkpt lat="43.7441555" lon="12.8884122"><ele>158.0</ele><time>2026-04-09T08:31:27.703Z</time></trkpt><trkpt lat="43.7442278" lon="12.8883376"><ele>160.0</ele><time>2026-04-09T08:31:28.702Z</time></trkpt><trkpt lat="43.7443041" lon="12.8882748"><ele>162.0</ele><time>2026-04-09T08:31:29.702Z</time></trkpt><trkpt lat="43.7443916" lon="12.8882267"><ele>164.0</ele><time>2026-04-09T08:31:30.702Z</time></trkpt><trkpt lat="43.7444841" lon="12.8881954"><ele>166.0</ele><time>2026-04-09T08:31:31.703Z</time></trkpt><trkpt lat="43.7445792" lon="12.8881661"><ele>168.0</ele><time>2026-04-09T08:31:32.702Z</time></trkpt><trkpt lat="43.7446776" lon="12.8881429"><ele>170.25</ele><time>2026-04-09T08:31:33.703Z</time></trkpt><trkpt lat="43.7447968" lon="12.8881099"><ele>172.5</ele><time>2026-04-09T08:31:34.702Z</time></trkpt><trkpt lat="43.7449421" lon="12.8880635"><ele>174.75</ele><time>2026-04-09T08:31:35.702Z</time></trkpt><trkpt lat="43.7450816" lon="12.8880239"><ele>177.0</ele><time>2026-04-09T08:31:36.702Z</time></trkpt><trkpt lat="43.7451944" lon="12.8879852"><ele>177.2</ele><time>2026-04-09T08:31:37.702Z</time></trkpt><trkpt lat="43.7452991" lon="12.8879462"><ele>177.39999999999998</ele><time>2026-04-09T08:31:38.702Z</time></trkpt><trkpt lat="43.7453954" lon="12.8879193"><ele>177.60000000000002</ele><time>2026-04-09T08:31:39.702Z</time></trkpt><trkpt lat="43.7454939" lon="12.8878982"><ele>177.8</ele><time>2026-04-09T08:31:40.703Z</time></trkpt><trkpt lat="43.7456006" lon="12.887888"><ele>178.0</ele><time>2026-04-09T08:31:41.703Z</time></trkpt><trkpt lat="43.7457009" lon="12.8878879"><ele>178.0</ele><time>2026-04-09T08:31:42.703Z</time></trkpt><trkpt lat="43.7457997" lon="12.8878632"><ele>178.0</ele><time>2026-04-09T08:31:43.702Z</time></trkpt><trkpt lat="43.7459062" lon="12.8878172"><ele>178.0</ele><time>2026-04-09T08:31:44.702Z</time></trkpt><trkpt lat="43.7460248" lon="12.8877688"><ele>178.0</ele><time>2026-04-09T08:31:45.702Z</time></trkpt><trkpt lat="43.7461621" lon="12.8877073"><ele>176.5</ele><time>2026-04-09T08:31:46.703Z</time></trkpt><trkpt lat="43.7462943" lon="12.8876426"><ele>175.0</ele><time>2026-04-09T08:31:47.702Z</time></trkpt><trkpt lat="43.7463972" lon="12.8875955"><ele>173.5</ele><time>2026-04-09T08:31:48.702Z</time></trkpt><trkpt lat="43.7464944" lon="12.8875439"><ele>172.0</ele><time>2026-04-09T08:31:49.703Z</time></trkpt><trkpt lat="43.7465939" lon="12.8874904"><ele>172.39999999999998</ele><time>2026-04-09T08:31:50.703Z</time></trkpt><trkpt lat="43.7466697" lon="12.8874235"><ele>172.79999999999998</ele><time>2026-04-09T08:31:51.702Z</time></trkpt><trkpt lat="43.7467403" lon="12.887341"><ele>173.2</ele><time>2026-04-09T08:31:52.703Z</time></trkpt><trkpt lat="43.7468017" lon="12.8872404"><ele>173.6</ele><time>2026-04-09T08:31:53.703Z</time></trkpt><trkpt lat="43.7468511" lon="12.8871278"><ele>174.0</ele><time>2026-04-09T08:31:54.703Z</time></trkpt><trkpt lat="43.7469004" lon="12.8870036"><ele>174.0</ele><time>2026-04-09T08:31:55.703Z</time></trkpt><trkpt lat="43.746953" lon="12.8868578"><ele>174.0</ele><time>2026-04-09T08:31:56.703Z</time></trkpt><trkpt lat="43.7470005" lon="12.8867154"><ele>174.0</ele><time>2026-04-09T08:31:57.703Z</time></trkpt><trkpt lat="43.7470577" lon="12.886595"><ele>174.0</ele><time>2026-04-09T08:31:58.702Z</time></trkpt><trkpt lat="43.7471307" lon="12.8864827"><ele>174.0</ele><time>2026-04-09T08:31:59.702Z</time></trkpt><trkpt lat="43.7471983" lon="12.8863855"><ele>179.0</ele><time>2026-04-09T08:32:00.703Z</time></trkpt><trkpt lat="43.7472661" lon="12.8862836"><ele>184.0</ele><time>2026-04-09T08:32:01.703Z</time></trkpt><trkpt lat="43.7473392" lon="12.8861568"><ele>189.0</ele><time>2026-04-09T08:32:02.702Z</time></trkpt><trkpt lat="43.7474186" lon="12.8860262"><ele>194.0</ele><time>2026-04-09T08:32:03.702Z</time></trkpt><trkpt lat="43.7475037" lon="12.8859099"><ele>193.25</ele><time>2026-04-09T08:32:04.702Z</time></trkpt><trkpt lat="43.7475883" lon="12.8858055"><ele>192.5</ele><time>2026-04-09T08:32:05.702Z</time></trkpt><trkpt lat="43.74768" lon="12.8857068"><ele>191.75</ele><time>2026-04-09T08:32:06.703Z</time></trkpt><trkpt lat="43.7477704" lon="12.8856092"><ele>191.0</ele><time>2026-04-09T08:32:07.702Z</time></trkpt><trkpt lat="43.7478619" lon="12.8855167"><ele>191.0</ele><time>2026-04-09T08:32:08.702Z</time></trkpt><trkpt lat="43.7479521" lon="12.8854254"><ele>191.0</ele><time>2026-04-09T08:32:09.703Z</time></trkpt><trkpt lat="43.748035" lon="12.8853412"><ele>191.0</ele><time>2026-04-09T08:32:10.703Z</time></trkpt><trkpt lat="43.7481097" lon="12.8852724"><ele>191.0</ele><time>2026-04-09T08:32:11.702Z</time></trkpt><trkpt lat="43.7481803" lon="12.8852078"><ele>191.0</ele><time>2026-04-09T08:32:12.702Z</time></trkpt><trkpt lat="43.7482622" lon="12.885152"><ele>191.0</ele><time>2026-04-09T08:32:13.702Z</time></trkpt><trkpt lat="43.7483519" lon="12.8850981"><ele>191.0</ele><time>2026-04-09T08:32:14.703Z</time></trkpt><trkpt lat="43.7484439" lon="12.8850501"><ele>191.0</ele><time>2026-04-09T08:32:15.702Z</time></trkpt><trkpt lat="43.7485346" lon="12.8849995"><ele>191.0</ele><time>2026-04-09T08:32:16.702Z</time></trkpt><trkpt lat="43.7486249" lon="12.8849397"><ele>191.0</ele><time>2026-04-09T08:32:17.703Z</time></trkpt><trkpt lat="43.748714" lon="12.8848759"><ele>191.60000000000002</ele><time>2026-04-09T08:32:18.702Z</time></trkpt><trkpt lat="43.7488039" lon="12.8848135"><ele>192.2</ele><time>2026-04-09T08:32:19.702Z</time></trkpt><trkpt lat="43.748888" lon="12.8847382"><ele>192.8</ele><time>2026-04-09T08:32:20.703Z</time></trkpt><trkpt lat="43.7489698" lon="12.8846595"><ele>193.39999999999998</ele><time>2026-04-09T08:32:21.703Z</time></trkpt><trkpt lat="43.7490513" lon="12.8845829"><ele>194.0</ele><time>2026-04-09T08:32:22.702Z</time></trkpt><trkpt lat="43.749136" lon="12.8845056"><ele>194.0</ele><time>2026-04-09T08:32:23.703Z</time></trkpt><trkpt lat="43.7492231" lon="12.8844303"><ele>194.0</ele><time>2026-04-09T08:32:24.703Z</time></trkpt><trkpt lat="43.7493087" lon="12.8843533"><ele>194.0</ele><time>2026-04-09T08:32:25.702Z</time></trkpt><trkpt lat="43.7493912" lon="12.8842813"><ele>194.0</ele><time>2026-04-09T08:32:26.703Z</time></trkpt><trkpt lat="43.7494569" lon="12.8842078"><ele>194.0</ele><time>2026-04-09T08:32:27.702Z</time></trkpt><trkpt lat="43.7494986" lon="12.8841354"><ele>194.50000000000003</ele><time>2026-04-09T08:32:28.703Z</time></trkpt><trkpt lat="43.749558" lon="12.884018"><ele>195.0</ele><time>2026-04-09T08:32:30.702Z</time></trkpt><trkpt lat="43.7495977" lon="12.8839467"><ele>195.5</ele><time>2026-04-09T08:32:31.703Z</time></trkpt><trkpt lat="43.7496396" lon="12.8838639"><ele>196.0</ele><time>2026-04-09T08:32:32.702Z</time></trkpt><trkpt lat="43.7496844" lon="12.8837763"><ele>196.50000000000003</ele><time>2026-04-09T08:32:33.702Z</time></trkpt><trkpt lat="43.7497357" lon="12.883677"><ele>197.0</ele><time>2026-04-09T08:32:34.702Z</time></trkpt><trkpt lat="43.7497925" lon="12.8835734"><ele>197.0</ele><time>2026-04-09T08:32:35.702Z</time></trkpt><trkpt lat="43.7498322" lon="12.8834612"><ele>197.0</ele><time>2026-04-09T08:32:36.702Z</time></trkpt><trkpt lat="43.7498663" lon="12.8833482"><ele>197.0</ele><time>2026-04-09T08:32:37.702Z</time></trkpt><trkpt lat="43.7499058" lon="12.883236"><ele>197.0</ele><time>2026-04-09T08:32:38.703Z</time></trkpt><trkpt lat="43.7499534" lon="12.88313"><ele>197.0</ele><time>2026-04-09T08:32:39.702Z</time></trkpt><trkpt lat="43.7500174" lon="12.883028"><ele>197.2</ele><time>2026-04-09T08:32:40.702Z</time></trkpt><trkpt lat="43.750101" lon="12.8829412"><ele>197.39999999999998</ele><time>2026-04-09T08:32:41.702Z</time></trkpt><trkpt lat="43.7501918" lon="12.8828723"><ele>197.60000000000002</ele><time>2026-04-09T08:32:42.703Z</time></trkpt><trkpt lat="43.7502832" lon="12.8828166"><ele>197.8</ele><time>2026-04-09T08:32:43.703Z</time></trkpt><trkpt lat="43.7503773" lon="12.8827716"><ele>198.0</ele><time>2026-04-09T08:32:44.703Z</time></trkpt><trkpt lat="43.7504709" lon="12.8827267"><ele>198.0</ele><time>2026-04-09T08:32:45.703Z</time></trkpt><trkpt lat="43.7505617" lon="12.8826759"><ele>198.0</ele><time>2026-04-09T08:32:46.702Z</time></trkpt><trkpt lat="43.7506523" lon="12.8826142"><ele>198.0</ele><time>2026-04-09T08:32:47.703Z</time></trkpt><trkpt lat="43.750739" lon="12.8825394"><ele>198.0</ele><time>2026-04-09T08:32:48.703Z</time></trkpt><trkpt lat="43.7508221" lon="12.8824584"><ele>198.0</ele><time>2026-04-09T08:32:49.702Z</time></trkpt><trkpt lat="43.7508983" lon="12.8823666"><ele>198.8</ele><time>2026-04-09T08:32:50.702Z</time></trkpt><trkpt lat="43.7509698" lon="12.8822662"><ele>199.60000000000002</ele><time>2026-04-09T08:32:51.702Z</time></trkpt><trkpt lat="43.7510286" lon="12.8821435"><ele>200.39999999999998</ele><time>2026-04-09T08:32:52.703Z</time></trkpt><trkpt lat="43.7510834" lon="12.8820152"><ele>201.2</ele><time>2026-04-09T08:32:53.702Z</time></trkpt><trkpt lat="43.7511344" lon="12.8818839"><ele>202.0</ele><time>2026-04-09T08:32:54.702Z</time></trkpt><trkpt lat="43.7511888" lon="12.8817527"><ele>203.8</ele><time>2026-04-09T08:32:55.702Z</time></trkpt><trkpt lat="43.7512478" lon="12.8816247"><ele>205.6</ele><time>2026-04-09T08:32:56.702Z</time></trkpt><trkpt lat="43.7512983" lon="12.881497"><ele>207.4</ele><time>2026-04-09T08:32:57.702Z</time></trkpt><trkpt lat="43.7513463" lon="12.8813639"><ele>209.20000000000002</ele><time>2026-04-09T08:32:58.702Z</time></trkpt><trkpt lat="43.7513871" lon="12.8812264"><ele>211.0</ele><time>2026-04-09T08:32:59.702Z</time></trkpt><trkpt lat="43.7514194" lon="12.8810961"><ele>211.0</ele><time>2026-04-09T08:33:00.703Z</time></trkpt><trkpt lat="43.7514305" lon="12.8809689"><ele>211.0</ele><time>2026-04-09T08:33:01.702Z</time></trkpt><trkpt lat="43.7514225" lon="12.8808196"><ele>211.0</ele><time>2026-04-09T08:33:02.703Z</time></trkpt><trkpt lat="43.7514118" lon="12.880658"><ele>211.0</ele><time>2026-04-09T08:33:03.702Z</time></trkpt><trkpt lat="43.7514109" lon="12.8804925"><ele>211.0</ele><time>2026-04-09T08:33:04.702Z</time></trkpt><trkpt lat="43.7514064" lon="12.8803167"><ele>212.4</ele><time>2026-04-09T08:33:05.702Z</time></trkpt><trkpt lat="43.7514034" lon="12.8801572"><ele>213.8</ele><time>2026-04-09T08:33:06.702Z</time></trkpt><trkpt lat="43.7513903" lon="12.8800137"><ele>215.20000000000002</ele><time>2026-04-09T08:33:07.702Z</time></trkpt><trkpt lat="43.7513771" lon="12.8798748"><ele>216.60000000000002</ele><time>2026-04-09T08:33:08.703Z</time></trkpt><trkpt lat="43.7513668" lon="12.8797397"><ele>218.0</ele><time>2026-04-09T08:33:09.702Z</time></trkpt><trkpt lat="43.7513576" lon="12.8796045"><ele>218.60000000000002</ele><time>2026-04-09T08:33:10.702Z</time></trkpt><trkpt lat="43.7513532" lon="12.8794815"><ele>219.20000000000002</ele><time>2026-04-09T08:33:11.703Z</time></trkpt><trkpt lat="43.7513481" lon="12.879378"><ele>219.8</ele><time>2026-04-09T08:33:12.703Z</time></trkpt><trkpt lat="43.7513492" lon="12.8792402"><ele>220.4</ele><time>2026-04-09T08:33:14.703Z</time></trkpt><trkpt lat="43.7514327" lon="12.879209"><ele>221.0</ele><time>2026-04-09T08:33:18.703Z</time></trkpt><trkpt lat="43.7515204" lon="12.8793822"><ele>221.00000000000003</ele><time>2026-04-09T08:33:20.702Z</time></trkpt><trkpt lat="43.751583" lon="12.8795202"><ele>221.0</ele><time>2026-04-09T08:33:21.702Z</time></trkpt><trkpt lat="43.751642" lon="12.8796369"><ele>221.0</ele><time>2026-04-09T08:33:22.703Z</time></trkpt><trkpt lat="43.7516913" lon="12.8797302"><ele>221.0</ele><time>2026-04-09T08:33:23.702Z</time></trkpt><trkpt lat="43.7517386" lon="12.8798084"><ele>221.00000000000003</ele><time>2026-04-09T08:33:24.702Z</time></trkpt><trkpt lat="43.751793" lon="12.8798668"><ele>221.0</ele><time>2026-04-09T08:33:25.703Z</time></trkpt><trkpt lat="43.7518568" lon="12.8798946"><ele>220.8</ele><time>2026-04-09T08:33:26.703Z</time></trkpt><trkpt lat="43.7519275" lon="12.8798803"><ele>220.60000000000002</ele><time>2026-04-09T08:33:27.702Z</time></trkpt><trkpt lat="43.7520029" lon="12.8798317"><ele>220.4</ele><time>2026-04-09T08:33:28.702Z</time></trkpt><trkpt lat="43.7520894" lon="12.8797554"><ele>220.2</ele><time>2026-04-09T08:33:29.703Z</time></trkpt><trkpt lat="43.752185" lon="12.8796582"><ele>220.0</ele><time>2026-04-09T08:33:30.703Z</time></trkpt><trkpt lat="43.7522762" lon="12.8795686"><ele>220.0</ele><time>2026-04-09T08:33:31.702Z</time></trkpt><trkpt lat="43.7523572" lon="12.8794937"><ele>220.0</ele><time>2026-04-09T08:33:32.703Z</time></trkpt><trkpt lat="43.7524292" lon="12.8794226"><ele>220.0</ele><time>2026-04-09T08:33:33.703Z</time></trkpt><trkpt lat="43.7525084" lon="12.8793547"><ele>220.0</ele><time>2026-04-09T08:33:34.702Z</time></trkpt><trkpt lat="43.7525962" lon="12.8792806"><ele>220.0</ele><time>2026-04-09T08:33:35.703Z</time></trkpt><trkpt lat="43.7526901" lon="12.8792042"><ele>220.6</ele><time>2026-04-09T08:33:36.703Z</time></trkpt><trkpt lat="43.7527852" lon="12.879136"><ele>221.2</ele><time>2026-04-09T08:33:37.702Z</time></trkpt><trkpt lat="43.7528811" lon="12.8790651"><ele>221.8</ele><time>2026-04-09T08:33:38.703Z</time></trkpt><trkpt lat="43.7529756" lon="12.8789857"><ele>222.4</ele><time>2026-04-09T08:33:39.703Z</time></trkpt><trkpt lat="43.7530653" lon="12.878905"><ele>223.0</ele><time>2026-04-09T08:33:40.702Z</time></trkpt><trkpt lat="43.753151" lon="12.8788171"><ele>223.0</ele><time>2026-04-09T08:33:41.702Z</time></trkpt><trkpt lat="43.7532324" lon="12.8787269"><ele>223.0</ele><time>2026-04-09T08:33:42.703Z</time></trkpt><trkpt lat="43.7533101" lon="12.8786435"><ele>223.0</ele><time>2026-04-09T08:33:43.703Z</time></trkpt><trkpt lat="43.7533848" lon="12.8785714"><ele>223.0</ele><time>2026-04-09T08:33:44.703Z</time></trkpt><trkpt lat="43.7534506" lon="12.8785014"><ele>223.0</ele><time>2026-04-09T08:33:45.703Z</time></trkpt><trkpt lat="43.7535129" lon="12.8784271"><ele>222.16666666666666</ele><time>2026-04-09T08:33:46.703Z</time></trkpt><trkpt lat="43.7535744" lon="12.8783571"><ele>221.33333333333331</ele><time>2026-04-09T08:33:47.703Z</time></trkpt><trkpt lat="43.7536367" lon="12.8782877"><ele>220.5</ele><time>2026-04-09T08:33:48.702Z</time></trkpt><trkpt lat="43.7537049" lon="12.8782172"><ele>219.66666666666669</ele><time>2026-04-09T08:33:49.702Z</time></trkpt><trkpt lat="43.7537769" lon="12.8781452"><ele>218.83333333333334</ele><time>2026-04-09T08:33:50.702Z</time></trkpt><trkpt lat="43.7538421" lon="12.8780695"><ele>218.0</ele><time>2026-04-09T08:33:51.703Z</time></trkpt><trkpt lat="43.7539072" lon="12.8779895"><ele>218.00000000000003</ele><time>2026-04-09T08:33:52.702Z</time></trkpt><trkpt lat="43.7539735" lon="12.8779127"><ele>218.0</ele><time>2026-04-09T08:33:53.702Z</time></trkpt><trkpt lat="43.7540418" lon="12.8778372"><ele>218.0</ele><time>2026-04-09T08:33:54.703Z</time></trkpt><trkpt lat="43.7541088" lon="12.8777647"><ele>218.0</ele><time>2026-04-09T08:33:55.702Z</time></trkpt><trkpt lat="43.754176" lon="12.8776826"><ele>218.00000000000003</ele><time>2026-04-09T08:33:56.702Z</time></trkpt><trkpt lat="43.7542421" lon="12.8775993"><ele>218.0</ele><time>2026-04-09T08:33:57.702Z</time></trkpt><trkpt lat="43.7542992" lon="12.8775103"><ele>217.66666666666669</ele><time>2026-04-09T08:33:58.703Z</time></trkpt><trkpt lat="43.7543551" lon="12.877418"><ele>217.33333333333334</ele><time>2026-04-09T08:33:59.702Z</time></trkpt><trkpt lat="43.7544068" lon="12.8773357"><ele>217.0</ele><time>2026-04-09T08:34:00.702Z</time></trkpt><trkpt lat="43.7544634" lon="12.8772635"><ele>216.66666666666669</ele><time>2026-04-09T08:34:01.702Z</time></trkpt><trkpt lat="43.7545305" lon="12.8771946"><ele>216.33333333333334</ele><time>2026-04-09T08:34:02.702Z</time></trkpt><trkpt lat="43.7546019" lon="12.8771293"><ele>216.0</ele><time>2026-04-09T08:34:03.702Z</time></trkpt><trkpt lat="43.7546717" lon="12.877055"><ele>216.0</ele><time>2026-04-09T08:34:04.702Z</time></trkpt><trkpt lat="43.7547373" lon="12.8769764"><ele>216.00000000000003</ele><time>2026-04-09T08:34:05.702Z</time></trkpt><trkpt lat="43.7547962" lon="12.8768674"><ele>216.00000000000003</ele><time>2026-04-09T08:34:06.702Z</time></trkpt><trkpt lat="43.7548567" lon="12.8767594"><ele>216.0</ele><time>2026-04-09T08:34:07.702Z</time></trkpt><trkpt lat="43.754914" lon="12.8766468"><ele>216.0</ele><time>2026-04-09T08:34:08.702Z</time></trkpt><trkpt lat="43.7549699" lon="12.8765305"><ele>215.0</ele><time>2026-04-09T08:34:09.703Z</time></trkpt><trkpt lat="43.7550208" lon="12.8764123"><ele>214.00000000000003</ele><time>2026-04-09T08:34:10.702Z</time></trkpt><trkpt lat="43.7550728" lon="12.8763014"><ele>213.0</ele><time>2026-04-09T08:34:11.703Z</time></trkpt><trkpt lat="43.7551292" lon="12.8761981"><ele>212.0</ele><time>2026-04-09T08:34:12.703Z</time></trkpt><trkpt lat="43.7551862" lon="12.876099"><ele>211.0</ele><time>2026-04-09T08:34:13.703Z</time></trkpt><trkpt lat="43.755251" lon="12.8760108"><ele>212.83333333333331</ele><time>2026-04-09T08:34:14.702Z</time></trkpt><trkpt lat="43.755304" lon="12.875911"><ele>214.66666666666666</ele><time>2026-04-09T08:34:15.703Z</time></trkpt><trkpt lat="43.7553493" lon="12.8758064"><ele>216.5</ele><time>2026-04-09T08:34:16.702Z</time></trkpt><trkpt lat="43.7554038" lon="12.8757115"><ele>218.33333333333331</ele><time>2026-04-09T08:34:17.703Z</time></trkpt><trkpt lat="43.7554456" lon="12.8756093"><ele>220.16666666666666</ele><time>2026-04-09T08:34:18.702Z</time></trkpt><trkpt lat="43.7554754" lon="12.8754806"><ele>222.0</ele><time>2026-04-09T08:34:19.703Z</time></trkpt><trkpt lat="43.7555253" lon="12.8753647"><ele>222.0</ele><time>2026-04-09T08:34:20.703Z</time></trkpt><trkpt lat="43.7555767" lon="12.8752351"><ele>222.0</ele><time>2026-04-09T08:34:21.703Z</time></trkpt><trkpt lat="43.7556349" lon="12.8750941"><ele>222.0</ele><time>2026-04-09T08:34:22.702Z</time></trkpt><trkpt lat="43.7557112" lon="12.8749356"><ele>222.0</ele><time>2026-04-09T08:34:23.702Z</time></trkpt><trkpt lat="43.7557728" lon="12.8747831"><ele>224.39999999999998</ele><time>2026-04-09T08:34:24.702Z</time></trkpt><trkpt lat="43.7558293" lon="12.8746343"><ele>226.79999999999998</ele><time>2026-04-09T08:34:25.703Z</time></trkpt><trkpt lat="43.755873" lon="12.8745097"><ele>229.2</ele><time>2026-04-09T08:34:26.703Z</time></trkpt><trkpt lat="43.7559166" lon="12.8743645"><ele>231.6</ele><time>2026-04-09T08:34:27.702Z</time></trkpt><trkpt lat="43.7559581" lon="12.8742194"><ele>234.0</ele><time>2026-04-09T08:34:28.703Z</time></trkpt><trkpt lat="43.7560175" lon="12.8740887"><ele>232.75</ele><time>2026-04-09T08:34:29.702Z</time></trkpt><trkpt lat="43.7560782" lon="12.8739489"><ele>231.5</ele><time>2026-04-09T08:34:30.702Z</time></trkpt><trkpt lat="43.7561401" lon="12.8738008"><ele>230.25</ele><time>2026-04-09T08:34:31.703Z</time></trkpt><trkpt lat="43.7561968" lon="12.8736518"><ele>229.0</ele><time>2026-04-09T08:34:32.702Z</time></trkpt><trkpt lat="43.756264" lon="12.8734969"><ele>234.5</ele><time>2026-04-09T08:34:33.702Z</time></trkpt><trkpt lat="43.7563263" lon="12.8733508"><ele>240.0</ele><time>2026-04-09T08:34:34.703Z</time></trkpt><trkpt lat="43.7563835" lon="12.8732061"><ele>245.5</ele><time>2026-04-09T08:34:35.702Z</time></trkpt><trkpt lat="43.7564463" lon="12.8730786"><ele>251.0</ele><time>2026-04-09T08:34:36.702Z</time></trkpt><trkpt lat="43.7565069" lon="12.872973"><ele>251.00000000000003</ele><time>2026-04-09T08:34:37.702Z</time></trkpt><trkpt lat="43.7565583" lon="12.8729015"><ele>251.0</ele><time>2026-04-09T08:34:38.703Z</time></trkpt><trkpt lat="43.7566168" lon="12.8728242"><ele>251.0</ele><time>2026-04-09T08:34:39.702Z</time></trkpt><trkpt lat="43.7566677" lon="12.872749"><ele>251.0</ele><time>2026-04-09T08:34:40.703Z</time></trkpt><trkpt lat="43.7567083" lon="12.872657"><ele>251.00000000000003</ele><time>2026-04-09T08:34:41.702Z</time></trkpt><trkpt lat="43.7567392" lon="12.8725476"><ele>251.0</ele><time>2026-04-09T08:34:42.702Z</time></trkpt><trkpt lat="43.7567553" lon="12.8724154"><ele>251.4</ele><time>2026-04-09T08:34:43.702Z</time></trkpt><trkpt lat="43.7567832" lon="12.8722789"><ele>251.8</ele><time>2026-04-09T08:34:44.702Z</time></trkpt><trkpt lat="43.7568019" lon="12.8721349"><ele>252.20000000000002</ele><time>2026-04-09T08:34:45.702Z</time></trkpt><trkpt lat="43.7568298" lon="12.8720098"><ele>252.60000000000002</ele><time>2026-04-09T08:34:46.702Z</time></trkpt><trkpt lat="43.7568626" lon="12.8718892"><ele>253.0</ele><time>2026-04-09T08:34:47.702Z</time></trkpt><trkpt lat="43.7569059" lon="12.871765"><ele>253.0</ele><time>2026-04-09T08:34:48.703Z</time></trkpt><trkpt lat="43.7569536" lon="12.8716504"><ele>253.0</ele><time>2026-04-09T08:34:49.703Z</time></trkpt><trkpt lat="43.7570052" lon="12.8715456"><ele>253.0</ele><time>2026-04-09T08:34:50.703Z</time></trkpt><trkpt lat="43.7570518" lon="12.8714437"><ele>253.0</ele><time>2026-04-09T08:34:51.703Z</time></trkpt><trkpt lat="43.7570916" lon="12.8713365"><ele>253.0</ele><time>2026-04-09T08:34:52.702Z</time></trkpt><trkpt lat="43.7571337" lon="12.8712282"><ele>252.99999999999997</ele><time>2026-04-09T08:34:53.703Z</time></trkpt><trkpt lat="43.7571745" lon="12.8711228"><ele>253.0</ele><time>2026-04-09T08:34:54.702Z</time></trkpt><trkpt lat="43.7572056" lon="12.8710104"><ele>253.0</ele><time>2026-04-09T08:34:55.702Z</time></trkpt><trkpt lat="43.7572291" lon="12.8708935"><ele>253.0</ele><time>2026-04-09T08:34:56.703Z</time></trkpt><trkpt lat="43.7572393" lon="12.870777"><ele>252.99999999999997</ele><time>2026-04-09T08:34:57.702Z</time></trkpt><trkpt lat="43.7572385" lon="12.8706574"><ele>253.0</ele><time>2026-04-09T08:34:58.702Z</time></trkpt><trkpt lat="43.7572336" lon="12.8705418"><ele>255.2</ele><time>2026-04-09T08:34:59.702Z</time></trkpt><trkpt lat="43.7572342" lon="12.8704204"><ele>257.4</ele><time>2026-04-09T08:35:00.703Z</time></trkpt><trkpt lat="43.7572381" lon="12.8703049"><ele>259.59999999999997</ele><time>2026-04-09T08:35:01.703Z</time></trkpt><trkpt lat="43.7572446" lon="12.8701683"><ele>261.8</ele><time>2026-04-09T08:35:02.702Z</time></trkpt><trkpt lat="43.7572493" lon="12.8700363"><ele>264.0</ele><time>2026-04-09T08:35:03.702Z</time></trkpt><trkpt lat="43.7572516" lon="12.8699132"><ele>265.8</ele><time>2026-04-09T08:35:04.702Z</time></trkpt><trkpt lat="43.7572603" lon="12.8697892"><ele>267.59999999999997</ele><time>2026-04-09T08:35:05.703Z</time></trkpt><trkpt lat="43.7572814" lon="12.8696558"><ele>269.4</ele><time>2026-04-09T08:35:06.702Z</time></trkpt><trkpt lat="43.7573125" lon="12.8695109"><ele>271.2</ele><time>2026-04-09T08:35:07.703Z</time></trkpt><trkpt lat="43.7573397" lon="12.8693499"><ele>273.0</ele><time>2026-04-09T08:35:08.703Z</time></trkpt><trkpt lat="43.7573742" lon="12.8691889"><ele>276.0</ele><time>2026-04-09T08:35:09.702Z</time></trkpt><trkpt lat="43.7574089" lon="12.8690312"><ele>279.0</ele><time>2026-04-09T08:35:10.702Z</time></trkpt><trkpt lat="43.7574426" lon="12.8688806"><ele>282.0</ele><time>2026-04-09T08:35:11.702Z</time></trkpt><trkpt lat="43.7574713" lon="12.8687456"><ele>285.0</ele><time>2026-04-09T08:35:12.703Z</time></trkpt><trkpt lat="43.7574876" lon="12.8686196"><ele>288.0</ele><time>2026-04-09T08:35:13.703Z</time></trkpt><trkpt lat="43.757496" lon="12.8684944"><ele>290.0</ele><time>2026-04-09T08:35:14.703Z</time></trkpt><trkpt lat="43.757501" lon="12.8683746"><ele>292.0</ele><time>2026-04-09T08:35:15.702Z</time></trkpt><trkpt lat="43.7575021" lon="12.8682515"><ele>294.0</ele><time>2026-04-09T08:35:16.702Z</time></trkpt><trkpt lat="43.7574927" lon="12.8681142"><ele>296.0</ele><time>2026-04-09T08:35:17.703Z</time></trkpt><trkpt lat="43.7574694" lon="12.8679589"><ele>298.0</ele><time>2026-04-09T08:35:18.702Z</time></trkpt><trkpt lat="43.757447" lon="12.8677945"><ele>298.0</ele><time>2026-04-09T08:35:19.703Z</time></trkpt><trkpt lat="43.7574244" lon="12.8676382"><ele>298.0</ele><time>2026-04-09T08:35:20.702Z</time></trkpt><trkpt lat="43.7574027" lon="12.8674924"><ele>298.0</ele><time>2026-04-09T08:35:21.703Z</time></trkpt><trkpt lat="43.7573798" lon="12.8673503"><ele>298.0</ele><time>2026-04-09T08:35:22.702Z</time></trkpt><trkpt lat="43.7573584" lon="12.8672041"><ele>298.0</ele><time>2026-04-09T08:35:23.702Z</time></trkpt><trkpt lat="43.7573403" lon="12.8670606"><ele>299.0</ele><time>2026-04-09T08:35:24.703Z</time></trkpt><trkpt lat="43.7573295" lon="12.8669199"><ele>300.0</ele><time>2026-04-09T08:35:25.702Z</time></trkpt><trkpt lat="43.7573233" lon="12.8667749"><ele>301.0</ele><time>2026-04-09T08:35:26.703Z</time></trkpt><trkpt lat="43.7573276" lon="12.8666373"><ele>302.0</ele><time>2026-04-09T08:35:27.702Z</time></trkpt><trkpt lat="43.7573431" lon="12.8665033"><ele>303.0</ele><time>2026-04-09T08:35:28.702Z</time></trkpt><trkpt lat="43.7573596" lon="12.8663574"><ele>303.0</ele><time>2026-04-09T08:35:29.703Z</time></trkpt><trkpt lat="43.757383" lon="12.8662091"><ele>303.0</ele><time>2026-04-09T08:35:30.703Z</time></trkpt><trkpt lat="43.7574197" lon="12.8660619"><ele>303.0</ele><time>2026-04-09T08:35:31.703Z</time></trkpt><trkpt lat="43.7574605" lon="12.8659192"><ele>303.0</ele><time>2026-04-09T08:35:32.702Z</time></trkpt><trkpt lat="43.7575052" lon="12.8657749"><ele>303.0</ele><time>2026-04-09T08:35:33.703Z</time></trkpt><trkpt lat="43.7575313" lon="12.8656256"><ele>303.0</ele><time>2026-04-09T08:35:34.702Z</time></trkpt><trkpt lat="43.7575392" lon="12.8654563"><ele>303.0</ele><time>2026-04-09T08:35:35.703Z</time></trkpt><trkpt lat="43.7575505" lon="12.865265"><ele>303.0</ele><time>2026-04-09T08:35:36.703Z</time></trkpt><trkpt lat="43.7575698" lon="12.8650862"><ele>303.0</ele><time>2026-04-09T08:35:37.702Z</time></trkpt><trkpt lat="43.7575961" lon="12.864909"><ele>304.6666666666667</ele><time>2026-04-09T08:35:38.702Z</time></trkpt><trkpt lat="43.7576184" lon="12.8647172"><ele>306.33333333333337</ele><time>2026-04-09T08:35:39.703Z</time></trkpt><trkpt lat="43.7576312" lon="12.8645033"><ele>308.0</ele><time>2026-04-09T08:35:40.702Z</time></trkpt><trkpt lat="43.7576373" lon="12.8642858"><ele>309.4</ele><time>2026-04-09T08:35:41.703Z</time></trkpt><trkpt lat="43.7576395" lon="12.8641106"><ele>310.8</ele><time>2026-04-09T08:35:42.703Z</time></trkpt><trkpt lat="43.7576394" lon="12.8639715"><ele>312.2</ele><time>2026-04-09T08:35:43.702Z</time></trkpt><trkpt lat="43.7576332" lon="12.8638472"><ele>313.6</ele><time>2026-04-09T08:35:44.702Z</time></trkpt><trkpt lat="43.7576192" lon="12.8637324"><ele>315.0</ele><time>2026-04-09T08:35:45.702Z</time></trkpt><trkpt lat="43.757603" lon="12.863613"><ele>315.0</ele><time>2026-04-09T08:35:46.702Z</time></trkpt><trkpt lat="43.7575771" lon="12.8634987"><ele>315.0</ele><time>2026-04-09T08:35:47.702Z</time></trkpt><trkpt lat="43.7575538" lon="12.8633723"><ele>315.0</ele><time>2026-04-09T08:35:48.703Z</time></trkpt><trkpt lat="43.757525" lon="12.8632323"><ele>315.0</ele><time>2026-04-09T08:35:49.702Z</time></trkpt><trkpt lat="43.7574942" lon="12.8630854"><ele>315.0</ele><time>2026-04-09T08:35:50.702Z</time></trkpt><trkpt lat="43.7574616" lon="12.8629417"><ele>316.4</ele><time>2026-04-09T08:35:51.703Z</time></trkpt><trkpt lat="43.7574381" lon="12.8628046"><ele>317.8</ele><time>2026-04-09T08:35:52.703Z</time></trkpt><trkpt lat="43.7574101" lon="12.8626722"><ele>319.20000000000005</ele><time>2026-04-09T08:35:53.702Z</time></trkpt><trkpt lat="43.7573843" lon="12.8625534"><ele>320.6</ele><time>2026-04-09T08:35:54.702Z</time></trkpt><trkpt lat="43.7573556" lon="12.8624343"><ele>322.0</ele><time>2026-04-09T08:35:55.702Z</time></trkpt><trkpt lat="43.7573223" lon="12.8623048"><ele>323.8333333333333</ele><time>2026-04-09T08:35:56.702Z</time></trkpt><trkpt lat="43.7573029" lon="12.8621935"><ele>325.66666666666663</ele><time>2026-04-09T08:35:57.703Z</time></trkpt><trkpt lat="43.7572787" lon="12.8621061"><ele>327.5</ele><time>2026-04-09T08:35:58.703Z</time></trkpt><trkpt lat="43.7572371" lon="12.86198"><ele>329.3333333333333</ele><time>2026-04-09T08:36:00.703Z</time></trkpt><trkpt lat="43.7572129" lon="12.8618756"><ele>331.1666666666667</ele><time>2026-04-09T08:36:02.703Z</time></trkpt><trkpt lat="43.7572468" lon="12.8617799"><ele>333.0</ele><time>2026-04-09T08:36:20.703Z</time></trkpt><trkpt lat="43.757309" lon="12.8617347"><ele>333.79999999999995</ele><time>2026-04-09T08:36:21.702Z</time></trkpt><trkpt lat="43.7573958" lon="12.8617046"><ele>334.6</ele><time>2026-04-09T08:36:22.702Z</time></trkpt><trkpt lat="43.75749" lon="12.8616827"><ele>335.4</ele><time>2026-04-09T08:36:23.702Z</time></trkpt><trkpt lat="43.7575806" lon="12.8616443"><ele>336.20000000000005</ele><time>2026-04-09T08:36:24.702Z</time></trkpt><trkpt lat="43.7576672" lon="12.8615945"><ele>337.0</ele><time>2026-04-09T08:36:25.703Z</time></trkpt><trkpt lat="43.7577601" lon="12.8615267"><ele>337.0</ele><time>2026-04-09T08:36:26.702Z</time></trkpt><trkpt lat="43.7578567" lon="12.861469"><ele>337.0</ele><time>2026-04-09T08:36:27.702Z</time></trkpt><trkpt lat="43.7579484" lon="12.861422"><ele>337.0</ele><time>2026-04-09T08:36:28.702Z</time></trkpt><trkpt lat="43.7580589" lon="12.8614185"><ele>337.0</ele><time>2026-04-09T08:36:29.703Z</time></trkpt><trkpt lat="43.7581588" lon="12.8614269"><ele>337.0</ele><time>2026-04-09T08:36:30.702Z</time></trkpt><trkpt lat="43.758264" lon="12.8614318"><ele>337.0</ele><time>2026-04-09T08:36:31.702Z</time></trkpt><trkpt lat="43.7583658" lon="12.8614435"><ele>337.0</ele><time>2026-04-09T08:36:32.702Z</time></trkpt><trkpt lat="43.7584648" lon="12.8614428"><ele>337.0</ele><time>2026-04-09T08:36:33.702Z</time></trkpt><trkpt lat="43.7585633" lon="12.8614158"><ele>337.0</ele><time>2026-04-09T08:36:34.702Z</time></trkpt><trkpt lat="43.7586529" lon="12.8613833"><ele>337.0</ele><time>2026-04-09T08:36:35.702Z</time></trkpt><trkpt lat="43.7587433" lon="12.8613637"><ele>337.0</ele><time>2026-04-09T08:36:36.703Z</time></trkpt><trkpt lat="43.7588481" lon="12.8613616"><ele>337.0</ele><time>2026-04-09T08:36:37.703Z</time></trkpt><trkpt lat="43.7589551" lon="12.8613898"><ele>337.0</ele><time>2026-04-09T08:36:38.702Z</time></trkpt><trkpt lat="43.7590626" lon="12.8614329"><ele>337.0</ele><time>2026-04-09T08:36:39.702Z</time></trkpt><trkpt lat="43.7591733" lon="12.8614908"><ele>337.0</ele><time>2026-04-09T08:36:40.702Z</time></trkpt><trkpt lat="43.7592816" lon="12.8615404"><ele>338.0</ele><time>2026-04-09T08:36:41.703Z</time></trkpt><trkpt lat="43.7593923" lon="12.8615861"><ele>339.0</ele><time>2026-04-09T08:36:42.702Z</time></trkpt><trkpt lat="43.7595118" lon="12.8616224"><ele>340.0</ele><time>2026-04-09T08:36:43.702Z</time></trkpt><trkpt lat="43.7596317" lon="12.8616662"><ele>341.0</ele><time>2026-04-09T08:36:44.702Z</time></trkpt><trkpt lat="43.7597478" lon="12.8617115"><ele>341.0</ele><time>2026-04-09T08:36:45.702Z</time></trkpt><trkpt lat="43.7598668" lon="12.8617543"><ele>341.0</ele><time>2026-04-09T08:36:46.702Z</time></trkpt><trkpt lat="43.7599821" lon="12.8618038"><ele>341.0</ele><time>2026-04-09T08:36:47.703Z</time></trkpt><trkpt lat="43.7600918" lon="12.8618567"><ele>341.0</ele><time>2026-04-09T08:36:48.702Z</time></trkpt><trkpt lat="43.7602006" lon="12.8619171"><ele>339.5</ele><time>2026-04-09T08:36:49.702Z</time></trkpt><trkpt lat="43.7603045" lon="12.8619985"><ele>338.0</ele><time>2026-04-09T08:36:50.702Z</time></trkpt><trkpt lat="43.7604012" lon="12.8620756"><ele>336.5</ele><time>2026-04-09T08:36:51.702Z</time></trkpt><trkpt lat="43.7604993" lon="12.862159"><ele>335.0</ele><time>2026-04-09T08:36:52.702Z</time></trkpt><trkpt lat="43.7606017" lon="12.862242"><ele>335.0</ele><time>2026-04-09T08:36:53.702Z</time></trkpt><trkpt lat="43.7607021" lon="12.8623237"><ele>335.0</ele><time>2026-04-09T08:36:54.703Z</time></trkpt><trkpt lat="43.7607945" lon="12.8624064"><ele>335.0</ele><time>2026-04-09T08:36:55.702Z</time></trkpt><trkpt lat="43.7608935" lon="12.8624974"><ele>335.0</ele><time>2026-04-09T08:36:56.702Z</time></trkpt><trkpt lat="43.7609851" lon="12.8625891"><ele>334.0</ele><time>2026-04-09T08:36:57.702Z</time></trkpt><trkpt lat="43.7610697" lon="12.862696"><ele>333.0</ele><time>2026-04-09T08:36:58.703Z</time></trkpt><trkpt lat="43.761155" lon="12.8628094"><ele>332.0</ele><time>2026-04-09T08:36:59.702Z</time></trkpt><trkpt lat="43.7612363" lon="12.8629141"><ele>331.0</ele><time>2026-04-09T08:37:00.702Z</time></trkpt><trkpt lat="43.761313" lon="12.8630218"><ele>331.0</ele><time>2026-04-09T08:37:01.702Z</time></trkpt><trkpt lat="43.7613869" lon="12.8631379"><ele>331.0</ele><time>2026-04-09T08:37:02.702Z</time></trkpt><trkpt lat="43.7614549" lon="12.8632639"><ele>331.0</ele><time>2026-04-09T08:37:03.703Z</time></trkpt><trkpt lat="43.7615155" lon="12.8634109"><ele>331.0</ele><time>2026-04-09T08:37:04.702Z</time></trkpt><trkpt lat="43.7615558" lon="12.8635817"><ele>328.25</ele><time>2026-04-09T08:37:05.702Z</time></trkpt><trkpt lat="43.7615809" lon="12.8637497"><ele>325.5</ele><time>2026-04-09T08:37:06.702Z</time></trkpt><trkpt lat="43.761598" lon="12.8639071"><ele>322.75</ele><time>2026-04-09T08:37:07.702Z</time></trkpt><trkpt lat="43.7616111" lon="12.8640596"><ele>320.0</ele><time>2026-04-09T08:37:08.702Z</time></trkpt><trkpt lat="43.7616359" lon="12.864201"><ele>318.2</ele><time>2026-04-09T08:37:09.702Z</time></trkpt><trkpt lat="43.7616846" lon="12.8643262"><ele>316.4</ele><time>2026-04-09T08:37:10.702Z</time></trkpt><trkpt lat="43.761757" lon="12.8644124"><ele>314.6</ele><time>2026-04-09T08:37:11.702Z</time></trkpt><trkpt lat="43.7618455" lon="12.8644435"><ele>312.8</ele><time>2026-04-09T08:37:12.702Z</time></trkpt><trkpt lat="43.7619442" lon="12.8644339"><ele>311.0</ele><time>2026-04-09T08:37:13.702Z</time></trkpt><trkpt lat="43.7620524" lon="12.8644153"><ele>311.0</ele><time>2026-04-09T08:37:14.702Z</time></trkpt><trkpt lat="43.7621653" lon="12.8644239"><ele>311.0</ele><time>2026-04-09T08:37:15.702Z</time></trkpt><trkpt lat="43.7622718" lon="12.8644672"><ele>311.0</ele><time>2026-04-09T08:37:16.702Z</time></trkpt><trkpt lat="43.7623706" lon="12.8645386"><ele>311.0</ele><time>2026-04-09T08:37:17.703Z</time></trkpt><trkpt lat="43.7624683" lon="12.8646122"><ele>311.0</ele><time>2026-04-09T08:37:18.702Z</time></trkpt><trkpt lat="43.7625621" lon="12.8646751"><ele>311.0</ele><time>2026-04-09T08:37:19.702Z</time></trkpt><trkpt lat="43.7626507" lon="12.8647317"><ele>311.0</ele><time>2026-04-09T08:37:20.702Z</time></trkpt><trkpt lat="43.7627305" lon="12.8647837"><ele>311.0</ele><time>2026-04-09T08:37:21.702Z</time></trkpt><trkpt lat="43.7628001" lon="12.8648267"><ele>311.0</ele><time>2026-04-09T08:37:22.702Z</time></trkpt><trkpt lat="43.7628987" lon="12.8648949"><ele>311.0</ele><time>2026-04-09T08:37:24.703Z</time></trkpt><trkpt lat="43.7629167" lon="12.8649876"><ele>311.0</ele><time>2026-04-09T08:37:27.703Z</time></trkpt><trkpt lat="43.7628512" lon="12.8649829"><ele>311.1666666666667</ele><time>2026-04-09T08:37:30.702Z</time></trkpt><trkpt lat="43.7629321" lon="12.8649952"><ele>311.33333333333337</ele><time>2026-04-09T08:37:49.703Z</time></trkpt><trkpt lat="43.7630213" lon="12.8650157"><ele>311.5</ele><time>2026-04-09T08:37:52.702Z</time></trkpt><trkpt lat="43.7630801" lon="12.8650852"><ele>311.6666666666667</ele><time>2026-04-09T08:37:53.703Z</time></trkpt><trkpt lat="43.7631456" lon="12.8651645"><ele>311.8333333333333</ele><time>2026-04-09T08:37:54.702Z</time></trkpt><trkpt lat="43.7632169" lon="12.8652563"><ele>312.0</ele><time>2026-04-09T08:37:55.703Z</time></trkpt><trkpt lat="43.7632992" lon="12.8653561"><ele>311.0</ele><time>2026-04-09T08:37:56.703Z</time></trkpt><trkpt lat="43.7633831" lon="12.8654536"><ele>310.0</ele><time>2026-04-09T08:37:57.703Z</time></trkpt><trkpt lat="43.7634702" lon="12.8655577"><ele>309.0</ele><time>2026-04-09T08:37:58.702Z</time></trkpt><trkpt lat="43.7635602" lon="12.8656579"><ele>308.0</ele><time>2026-04-09T08:37:59.702Z</time></trkpt><trkpt lat="43.763654" lon="12.8657609"><ele>308.0</ele><time>2026-04-09T08:38:00.702Z</time></trkpt><trkpt lat="43.7637443" lon="12.8658653"><ele>308.0</ele><time>2026-04-09T08:38:01.702Z</time></trkpt><trkpt lat="43.7638309" lon="12.8659799"><ele>308.0</ele><time>2026-04-09T08:38:02.703Z</time></trkpt><trkpt lat="43.7638965" lon="12.8661115"><ele>308.0</ele><time>2026-04-09T08:38:03.702Z</time></trkpt><trkpt lat="43.7639558" lon="12.8662562"><ele>308.75</ele><time>2026-04-09T08:38:04.703Z</time></trkpt><trkpt lat="43.7640042" lon="12.8664119"><ele>309.5</ele><time>2026-04-09T08:38:05.703Z</time></trkpt><trkpt lat="43.7640543" lon="12.8665784"><ele>310.25</ele><time>2026-04-09T08:38:06.702Z</time></trkpt><trkpt lat="43.7641017" lon="12.8667576"><ele>311.0</ele><time>2026-04-09T08:38:07.703Z</time></trkpt><trkpt lat="43.7641499" lon="12.8669509"><ele>311.25</ele><time>2026-04-09T08:38:08.703Z</time></trkpt><trkpt lat="43.7641982" lon="12.8671445"><ele>311.5</ele><time>2026-04-09T08:38:09.703Z</time></trkpt><trkpt lat="43.7642488" lon="12.8673397"><ele>311.75</ele><time>2026-04-09T08:38:10.702Z</time></trkpt><trkpt lat="43.7643057" lon="12.867516"><ele>312.0</ele><time>2026-04-09T08:38:11.702Z</time></trkpt><trkpt lat="43.7643655" lon="12.8676738"><ele>312.8</ele><time>2026-04-09T08:38:12.702Z</time></trkpt><trkpt lat="43.7644238" lon="12.8678149"><ele>313.6</ele><time>2026-04-09T08:38:13.702Z</time></trkpt><trkpt lat="43.7644751" lon="12.8679425"><ele>314.40000000000003</ele><time>2026-04-09T08:38:14.703Z</time></trkpt><trkpt lat="43.7645204" lon="12.8680629"><ele>315.2</ele><time>2026-04-09T08:38:15.702Z</time></trkpt><trkpt lat="43.7645687" lon="12.8681756"><ele>316.0</ele><time>2026-04-09T08:38:16.702Z</time></trkpt><trkpt lat="43.7646285" lon="12.8682893"><ele>316.0</ele><time>2026-04-09T08:38:17.702Z</time></trkpt><trkpt lat="43.7646966" lon="12.8684026"><ele>316.0</ele><time>2026-04-09T08:38:18.703Z</time></trkpt><trkpt lat="43.7647726" lon="12.86852"><ele>316.0</ele><time>2026-04-09T08:38:19.703Z</time></trkpt><trkpt lat="43.7648535" lon="12.8686503"><ele>316.0</ele><time>2026-04-09T08:38:20.702Z</time></trkpt><trkpt lat="43.7649329" lon="12.8687798"><ele>315.0</ele><time>2026-04-09T08:38:21.702Z</time></trkpt><trkpt lat="43.7650097" lon="12.8689089"><ele>314.0</ele><time>2026-04-09T08:38:22.703Z</time></trkpt><trkpt lat="43.7650835" lon="12.8690312"><ele>313.0</ele><time>2026-04-09T08:38:23.703Z</time></trkpt><trkpt lat="43.7651565" lon="12.8691467"><ele>312.0</ele><time>2026-04-09T08:38:24.703Z</time></trkpt><trkpt lat="43.7652272" lon="12.8692496"><ele>311.0</ele><time>2026-04-09T08:38:25.703Z</time></trkpt><trkpt lat="43.7653077" lon="12.8693465"><ele>310.0</ele><time>2026-04-09T08:38:26.702Z</time></trkpt><trkpt lat="43.7653969" lon="12.8694389"><ele>309.0</ele><time>2026-04-09T08:38:27.703Z</time></trkpt><trkpt lat="43.7654821" lon="12.8695212"><ele>308.0</ele><time>2026-04-09T08:38:28.702Z</time></trkpt><trkpt lat="43.765558" lon="12.8696053"><ele>307.0</ele><time>2026-04-09T08:38:29.702Z</time></trkpt><trkpt lat="43.7656259" lon="12.8696915"><ele>306.0</ele><time>2026-04-09T08:38:30.703Z</time></trkpt><trkpt lat="43.7656884" lon="12.8697756"><ele>306.0</ele><time>2026-04-09T08:38:31.702Z</time></trkpt><trkpt lat="43.7657437" lon="12.8698597"><ele>306.0</ele><time>2026-04-09T08:38:32.702Z</time></trkpt><trkpt lat="43.7657865" lon="12.8699333"><ele>306.0</ele><time>2026-04-09T08:38:33.703Z</time></trkpt><trkpt lat="43.7658614" lon="12.870014"><ele>306.0</ele><time>2026-04-09T08:38:35.703Z</time></trkpt><trkpt lat="43.7659454" lon="12.8699701"><ele>306.0</ele><time>2026-04-09T08:38:42.702Z</time></trkpt><trkpt lat="43.766016" lon="12.8698105"><ele>304.0</ele><time>2026-04-09T08:38:44.703Z</time></trkpt><trkpt lat="43.7660421" lon="12.8696994"><ele>302.0</ele><time>2026-04-09T08:38:45.702Z</time></trkpt><trkpt lat="43.7660644" lon="12.8695796"><ele>300.0</ele><time>2026-04-09T08:38:46.702Z</time></trkpt><trkpt lat="43.7660791" lon="12.8694523"><ele>298.0</ele><time>2026-04-09T08:38:47.703Z</time></trkpt><trkpt lat="43.7660913" lon="12.8693143"><ele>296.0</ele><time>2026-04-09T08:38:48.702Z</time></trkpt><trkpt lat="43.7661114" lon="12.8691828"><ele>296.0</ele><time>2026-04-09T08:38:49.702Z</time></trkpt><trkpt lat="43.766145" lon="12.8690324"><ele>296.0</ele><time>2026-04-09T08:38:50.703Z</time></trkpt><trkpt lat="43.766192" lon="12.8689054"><ele>296.0</ele><time>2026-04-09T08:38:51.702Z</time></trkpt><trkpt lat="43.7662541" lon="12.8687792"><ele>296.0</ele><time>2026-04-09T08:38:52.703Z</time></trkpt><trkpt lat="43.7663302" lon="12.868648"><ele>296.0</ele><time>2026-04-09T08:38:53.703Z</time></trkpt><trkpt lat="43.7664096" lon="12.868587"><ele>297.75</ele><time>2026-04-09T08:38:54.703Z</time></trkpt><trkpt lat="43.7664954" lon="12.8684194"><ele>299.5</ele><time>2026-04-09T08:38:55.703Z</time></trkpt><trkpt lat="43.7665876" lon="12.8682803"><ele>301.25</ele><time>2026-04-09T08:38:56.703Z</time></trkpt><trkpt lat="43.7666815" lon="12.8681511"><ele>303.0</ele><time>2026-04-09T08:38:57.703Z</time></trkpt><trkpt lat="43.7667759" lon="12.8680288"><ele>302.0</ele><time>2026-04-09T08:38:58.702Z</time></trkpt><trkpt lat="43.7668757" lon="12.8679185"><ele>301.0</ele><time>2026-04-09T08:38:59.703Z</time></trkpt><trkpt lat="43.7669889" lon="12.8678307"><ele>300.0</ele><time>2026-04-09T08:39:00.702Z</time></trkpt><trkpt lat="43.7671159" lon="12.8677665"><ele>299.0</ele><time>2026-04-09T08:39:01.702Z</time></trkpt><trkpt lat="43.7672558" lon="12.867711"><ele>299.0</ele><time>2026-04-09T08:39:02.702Z</time></trkpt><trkpt lat="43.7673874" lon="12.8676509"><ele>299.0</ele><time>2026-04-09T08:39:03.702Z</time></trkpt><trkpt lat="43.7675248" lon="12.8675831"><ele>299.0</ele><time>2026-04-09T08:39:04.702Z</time></trkpt><trkpt lat="43.7676736" lon="12.8675116"><ele>299.0</ele><time>2026-04-09T08:39:05.703Z</time></trkpt><trkpt lat="43.7678233" lon="12.867437"><ele>300.6666666666667</ele><time>2026-04-09T08:39:06.703Z</time></trkpt><trkpt lat="43.7679685" lon="12.8673652"><ele>302.3333333333333</ele><time>2026-04-09T08:39:07.702Z</time></trkpt><trkpt lat="43.7681114" lon="12.8672831"><ele>304.0</ele><time>2026-04-09T08:39:08.702Z</time></trkpt><trkpt lat="43.7682439" lon="12.8671705"><ele>304.0</ele><time>2026-04-09T08:39:09.703Z</time></trkpt><trkpt lat="43.7683658" lon="12.867034"><ele>304.0</ele><time>2026-04-09T08:39:10.703Z</time></trkpt><trkpt lat="43.768479" lon="12.8668842"><ele>304.0</ele><time>2026-04-09T08:39:11.703Z</time></trkpt><trkpt lat="43.7685694" lon="12.866708"><ele>308.25</ele><time>2026-04-09T08:39:12.702Z</time></trkpt><trkpt lat="43.7686345" lon="12.8665204"><ele>312.5</ele><time>2026-04-09T08:39:13.702Z</time></trkpt><trkpt lat="43.7686706" lon="12.8663338"><ele>316.75</ele><time>2026-04-09T08:39:14.702Z</time></trkpt><trkpt lat="43.7686713" lon="12.8661578"><ele>321.0</ele><time>2026-04-09T08:39:15.702Z</time></trkpt><trkpt lat="43.7686227" lon="12.8659949"><ele>320.25</ele><time>2026-04-09T08:39:16.702Z</time></trkpt><trkpt lat="43.7685504" lon="12.8658393"><ele>319.5</ele><time>2026-04-09T08:39:17.702Z</time></trkpt><trkpt lat="43.76849" lon="12.8656675"><ele>318.75</ele><time>2026-04-09T08:39:18.702Z</time></trkpt><trkpt lat="43.7684654" lon="12.8654737"><ele>318.0</ele><time>2026-04-09T08:39:19.702Z</time></trkpt><trkpt lat="43.7684696" lon="12.8652579"><ele>319.6666666666667</ele><time>2026-04-09T08:39:20.702Z</time></trkpt><trkpt lat="43.768486" lon="12.8650265"><ele>321.33333333333337</ele><time>2026-04-09T08:39:21.703Z</time></trkpt><trkpt lat="43.7684962" lon="12.8648093"><ele>323.0</ele><time>2026-04-09T08:39:22.702Z</time></trkpt><trkpt lat="43.7685082" lon="12.8646281"><ele>325.4</ele><time>2026-04-09T08:39:23.702Z</time></trkpt><trkpt lat="43.7685408" lon="12.8644906"><ele>327.79999999999995</ele><time>2026-04-09T08:39:24.702Z</time></trkpt><trkpt lat="43.7685972" lon="12.864399"><ele>330.2</ele><time>2026-04-09T08:39:25.702Z</time></trkpt><trkpt lat="43.7686821" lon="12.8643435"><ele>332.6</ele><time>2026-04-09T08:39:26.702Z</time></trkpt><trkpt lat="43.768804" lon="12.8643297"><ele>335.0</ele><time>2026-04-09T08:39:27.702Z</time></trkpt><trkpt lat="43.7689498" lon="12.8643493"><ele>335.0</ele><time>2026-04-09T08:39:28.702Z</time></trkpt><trkpt lat="43.7690973" lon="12.8643709"><ele>335.0</ele><time>2026-04-09T08:39:29.702Z</time></trkpt><trkpt lat="43.7692447" lon="12.8643726"><ele>335.0</ele><time>2026-04-09T08:39:30.702Z</time></trkpt><trkpt lat="43.7693992" lon="12.8643424"><ele>337.25</ele><time>2026-04-09T08:39:31.703Z</time></trkpt><trkpt lat="43.7695442" lon="12.8642892"><ele>339.5</ele><time>2026-04-09T08:39:32.703Z</time></trkpt><trkpt lat="43.7696782" lon="12.8642248"><ele>341.75</ele><time>2026-04-09T08:39:33.702Z</time></trkpt><trkpt lat="43.769805" lon="12.8641458"><ele>344.0</ele><time>2026-04-09T08:39:34.702Z</time></trkpt><trkpt lat="43.769917" lon="12.8640438"><ele>344.0</ele><time>2026-04-09T08:39:35.702Z</time></trkpt><trkpt lat="43.7700174" lon="12.863915"><ele>344.0</ele><time>2026-04-09T08:39:36.702Z</time></trkpt><trkpt lat="43.7700979" lon="12.8637575"><ele>344.0</ele><time>2026-04-09T08:39:37.702Z</time></trkpt><trkpt lat="43.7701694" lon="12.863588"><ele>344.0</ele><time>2026-04-09T08:39:38.702Z</time></trkpt><trkpt lat="43.7702378" lon="12.8634207"><ele>345.75</ele><time>2026-04-09T08:39:39.702Z</time></trkpt><trkpt lat="43.7703177" lon="12.8632736"><ele>347.5</ele><time>2026-04-09T08:39:40.702Z</time></trkpt><trkpt lat="43.7704082" lon="12.8631419"><ele>349.25</ele><time>2026-04-09T08:39:41.702Z</time></trkpt><trkpt lat="43.7705128" lon="12.8630249"><ele>351.0</ele><time>2026-04-09T08:39:42.702Z</time></trkpt><trkpt lat="43.7706252" lon="12.8629319"><ele>351.0</ele><time>2026-04-09T08:39:43.702Z</time></trkpt><trkpt lat="43.7707533" lon="12.8628678"><ele>351.0</ele><time>2026-04-09T08:39:44.703Z</time></trkpt><trkpt lat="43.7708848" lon="12.8628374"><ele>351.0</ele><time>2026-04-09T08:39:45.703Z</time></trkpt><trkpt lat="43.7710182" lon="12.8628302"><ele>351.0</ele><time>2026-04-09T08:39:46.702Z</time></trkpt><trkpt lat="43.7711503" lon="12.8628132"><ele>350.75</ele><time>2026-04-09T08:39:47.702Z</time></trkpt><trkpt lat="43.7712771" lon="12.8627539"><ele>350.5</ele><time>2026-04-09T08:39:48.702Z</time></trkpt><trkpt lat="43.7713966" lon="12.8626525"><ele>350.25</ele><time>2026-04-09T08:39:49.703Z</time></trkpt><trkpt lat="43.7715096" lon="12.8625275"><ele>350.0</ele><time>2026-04-09T08:39:50.702Z</time></trkpt><trkpt lat="43.7716203" lon="12.8623888"><ele>350.0</ele><time>2026-04-09T08:39:51.702Z</time></trkpt><trkpt lat="43.7717225" lon="12.8622339"><ele>350.0</ele><time>2026-04-09T08:39:52.702Z</time></trkpt><trkpt lat="43.7718225" lon="12.862065"><ele>350.0</ele><time>2026-04-09T08:39:53.702Z</time></trkpt><trkpt lat="43.7719281" lon="12.8618945"><ele>350.33333333333337</ele><time>2026-04-09T08:39:54.702Z</time></trkpt><trkpt lat="43.7720411" lon="12.8617307"><ele>350.6666666666667</ele><time>2026-04-09T08:39:55.703Z</time></trkpt><trkpt lat="43.7721548" lon="12.8615656"><ele>351.0</ele><time>2026-04-09T08:39:56.702Z</time></trkpt><trkpt lat="43.7722687" lon="12.8614002"><ele>351.0</ele><time>2026-04-09T08:39:57.702Z</time></trkpt><trkpt lat="43.7723777" lon="12.8612345"><ele>351.0</ele><time>2026-04-09T08:39:58.703Z</time></trkpt><trkpt lat="43.7724757" lon="12.8610633"><ele>351.0</ele><time>2026-04-09T08:39:59.703Z</time></trkpt><trkpt lat="43.7725638" lon="12.8608894"><ele>349.25</ele><time>2026-04-09T08:40:00.703Z</time></trkpt><trkpt lat="43.7726423" lon="12.8607157"><ele>347.5</ele><time>2026-04-09T08:40:01.703Z</time></trkpt><trkpt lat="43.7727206" lon="12.8605492"><ele>345.75</ele><time>2026-04-09T08:40:02.702Z</time></trkpt><trkpt lat="43.7727974" lon="12.8603824"><ele>344.0</ele><time>2026-04-09T08:40:03.702Z</time></trkpt><trkpt lat="43.7728672" lon="12.8602127"><ele>343.75</ele><time>2026-04-09T08:40:04.702Z</time></trkpt><trkpt lat="43.7729166" lon="12.8600339"><ele>343.5</ele><time>2026-04-09T08:40:05.702Z</time></trkpt><trkpt lat="43.7729435" lon="12.8598457"><ele>343.25</ele><time>2026-04-09T08:40:06.703Z</time></trkpt><trkpt lat="43.7729553" lon="12.8596545"><ele>343.0</ele><time>2026-04-09T08:40:07.702Z</time></trkpt><trkpt lat="43.7729639" lon="12.8594622"><ele>343.0</ele><time>2026-04-09T08:40:08.702Z</time></trkpt><trkpt lat="43.7729721" lon="12.8592669"><ele>343.0</ele><time>2026-04-09T08:40:09.702Z</time></trkpt><trkpt lat="43.7729817" lon="12.8590669"><ele>343.0</ele><time>2026-04-09T08:40:10.703Z</time></trkpt><trkpt lat="43.7729913" lon="12.8588631"><ele>343.0</ele><time>2026-04-09T08:40:11.703Z</time></trkpt><trkpt lat="43.7729989" lon="12.8586539"><ele>343.0</ele><time>2026-04-09T08:40:12.702Z</time></trkpt><trkpt lat="43.773007" lon="12.8584428"><ele>343.0</ele><time>2026-04-09T08:40:13.703Z</time></trkpt><trkpt lat="43.7730183" lon="12.8582305"><ele>343.0</ele><time>2026-04-09T08:40:14.702Z</time></trkpt><trkpt lat="43.7730341" lon="12.8580205"><ele>343.0</ele><time>2026-04-09T08:40:15.702Z</time></trkpt><trkpt lat="43.7730457" lon="12.8578086"><ele>343.0</ele><time>2026-04-09T08:40:16.702Z</time></trkpt><trkpt lat="43.7730605" lon="12.8575948"><ele>343.0</ele><time>2026-04-09T08:40:17.703Z</time></trkpt><trkpt lat="43.7730861" lon="12.8573864"><ele>343.0</ele><time>2026-04-09T08:40:18.703Z</time></trkpt><trkpt lat="43.7731298" lon="12.8571784"><ele>343.0</ele><time>2026-04-09T08:40:19.703Z</time></trkpt><trkpt lat="43.7731829" lon="12.8569699"><ele>343.0</ele><time>2026-04-09T08:40:20.702Z</time></trkpt><trkpt lat="43.773243" lon="12.8567731"><ele>345.3333333333333</ele><time>2026-04-09T08:40:21.702Z</time></trkpt><trkpt lat="43.773314" lon="12.8565873"><ele>347.6666666666667</ele><time>2026-04-09T08:40:22.702Z</time></trkpt><trkpt lat="43.7733943" lon="12.8564044"><ele>350.0</ele><time>2026-04-09T08:40:23.702Z</time></trkpt><trkpt lat="43.7734965" lon="12.8562437"><ele>348.33333333333337</ele><time>2026-04-09T08:40:24.703Z</time></trkpt><trkpt lat="43.7736167" lon="12.8561047"><ele>346.6666666666667</ele><time>2026-04-09T08:40:25.702Z</time></trkpt><trkpt lat="43.7737407" lon="12.8559723"><ele>345.0</ele><time>2026-04-09T08:40:26.703Z</time></trkpt><trkpt lat="43.7738672" lon="12.8558436"><ele>345.0</ele><time>2026-04-09T08:40:27.702Z</time></trkpt><trkpt lat="43.7739935" lon="12.8557161"><ele>345.0</ele><time>2026-04-09T08:40:28.702Z</time></trkpt><trkpt lat="43.7741152" lon="12.855591"><ele>345.0</ele><time>2026-04-09T08:40:29.702Z</time></trkpt><trkpt lat="43.7742422" lon="12.8554763"><ele>343.3333333333333</ele><time>2026-04-09T08:40:30.702Z</time></trkpt><trkpt lat="43.774385" lon="12.8553886"><ele>341.66666666666663</ele><time>2026-04-09T08:40:31.702Z</time></trkpt><trkpt lat="43.7745339" lon="12.8553301"><ele>340.0</ele><time>2026-04-09T08:40:32.702Z</time></trkpt><trkpt lat="43.7746908" lon="12.8552853"><ele>340.0</ele><time>2026-04-09T08:40:33.703Z</time></trkpt><trkpt lat="43.7748524" lon="12.8552525"><ele>340.0</ele><time>2026-04-09T08:40:34.703Z</time></trkpt><trkpt lat="43.7750173" lon="12.8552204"><ele>340.0</ele><time>2026-04-09T08:40:35.703Z</time></trkpt><trkpt lat="43.7751835" lon="12.8551819"><ele>339.66666666666663</ele><time>2026-04-09T08:40:36.702Z</time></trkpt><trkpt lat="43.7753427" lon="12.8551279"><ele>339.3333333333333</ele><time>2026-04-09T08:40:37.702Z</time></trkpt><trkpt lat="43.7754955" lon="12.8550537"><ele>339.0</ele><time>2026-04-09T08:40:38.702Z</time></trkpt><trkpt lat="43.7756408" lon="12.8549614"><ele>338.3333333333333</ele><time>2026-04-09T08:40:39.702Z</time></trkpt><trkpt lat="43.7757847" lon="12.8548557"><ele>337.66666666666663</ele><time>2026-04-09T08:40:40.703Z</time></trkpt><trkpt lat="43.7759306" lon="12.8547443"><ele>337.0</ele><time>2026-04-09T08:40:41.702Z</time></trkpt><trkpt lat="43.7760702" lon="12.8546235"><ele>337.0</ele><time>2026-04-09T08:40:42.702Z</time></trkpt><trkpt lat="43.7762096" lon="12.8544995"><ele>337.0</ele><time>2026-04-09T08:40:43.703Z</time></trkpt><trkpt lat="43.7763511" lon="12.8543755"><ele>337.0</ele><time>2026-04-09T08:40:44.703Z</time></trkpt><trkpt lat="43.7764931" lon="12.8542456"><ele>338.3333333333333</ele><time>2026-04-09T08:40:45.702Z</time></trkpt><trkpt lat="43.7766392" lon="12.8541185"><ele>339.6666666666667</ele><time>2026-04-09T08:40:46.703Z</time></trkpt><trkpt lat="43.7767905" lon="12.8539924"><ele>341.0</ele><time>2026-04-09T08:40:47.702Z</time></trkpt><trkpt lat="43.7769415" lon="12.8538578"><ele>341.0</ele><time>2026-04-09T08:40:48.702Z</time></trkpt><trkpt lat="43.7770999" lon="12.8537184"><ele>341.0</ele><time>2026-04-09T08:40:49.702Z</time></trkpt><trkpt lat="43.7772599" lon="12.8535745"><ele>341.0</ele><time>2026-04-09T08:40:50.702Z</time></trkpt><trkpt lat="43.777425" lon="12.8534292"><ele>343.33333333333337</ele><time>2026-04-09T08:40:51.702Z</time></trkpt><trkpt lat="43.7775819" lon="12.8532955"><ele>345.6666666666667</ele><time>2026-04-09T08:40:52.703Z</time></trkpt><trkpt lat="43.7777235" lon="12.8531748"><ele>348.0</ele><time>2026-04-09T08:40:53.702Z</time></trkpt><trkpt lat="43.777847" lon="12.8530536"><ele>349.5</ele><time>2026-04-09T08:40:54.703Z</time></trkpt><trkpt lat="43.7779425" lon="12.8529235"><ele>351.0</ele><time>2026-04-09T08:40:55.702Z</time></trkpt><trkpt lat="43.7780059" lon="12.8527599"><ele>352.5</ele><time>2026-04-09T08:40:56.702Z</time></trkpt><trkpt lat="43.7780479" lon="12.8525642"><ele>354.0</ele><time>2026-04-09T08:40:57.703Z</time></trkpt><trkpt lat="43.7780783" lon="12.8523597"><ele>356.25</ele><time>2026-04-09T08:40:58.702Z</time></trkpt><trkpt lat="43.7781141" lon="12.8521597"><ele>358.5</ele><time>2026-04-09T08:40:59.702Z</time></trkpt><trkpt lat="43.7781553" lon="12.8519743"><ele>360.75</ele><time>2026-04-09T08:41:00.702Z</time></trkpt><trkpt lat="43.7781977" lon="12.8518023"><ele>363.0</ele><time>2026-04-09T08:41:01.702Z</time></trkpt><trkpt lat="43.7782367" lon="12.8516369"><ele>363.2</ele><time>2026-04-09T08:41:02.702Z</time></trkpt><trkpt lat="43.7782799" lon="12.8515001"><ele>363.4</ele><time>2026-04-09T08:41:03.702Z</time></trkpt><trkpt lat="43.7783381" lon="12.8514142"><ele>363.59999999999997</ele><time>2026-04-09T08:41:04.703Z</time></trkpt><trkpt lat="43.7784551" lon="12.8514262"><ele>363.79999999999995</ele><time>2026-04-09T08:41:06.703Z</time></trkpt><trkpt lat="43.7784986" lon="12.8515239"><ele>364.0</ele><time>2026-04-09T08:41:07.702Z</time></trkpt><trkpt lat="43.7785033" lon="12.8516592"><ele>363.79999999999995</ele><time>2026-04-09T08:41:08.702Z</time></trkpt><trkpt lat="43.7784781" lon="12.8517994"><ele>363.59999999999997</ele><time>2026-04-09T08:41:09.702Z</time></trkpt><trkpt lat="43.778468" lon="12.8519459"><ele>363.4</ele><time>2026-04-09T08:41:10.702Z</time></trkpt><trkpt lat="43.7784931" lon="12.8521066"><ele>363.2</ele><time>2026-04-09T08:41:11.703Z</time></trkpt><trkpt lat="43.7785475" lon="12.8522519"><ele>363.0</ele><time>2026-04-09T08:41:12.702Z</time></trkpt><trkpt lat="43.7786316" lon="12.85236"><ele>364.75</ele><time>2026-04-09T08:41:13.702Z</time></trkpt><trkpt lat="43.778755" lon="12.8524403"><ele>366.5</ele><time>2026-04-09T08:41:14.703Z</time></trkpt><trkpt lat="43.7788988" lon="12.8525196"><ele>368.25</ele><time>2026-04-09T08:41:15.702Z</time></trkpt><trkpt lat="43.7790318" lon="12.8526018"><ele>370.0</ele><time>2026-04-09T08:41:16.703Z</time></trkpt><trkpt lat="43.7791521" lon="12.8527002"><ele>370.0</ele><time>2026-04-09T08:41:17.702Z</time></trkpt><trkpt lat="43.7792609" lon="12.852812"><ele>370.0</ele><time>2026-04-09T08:41:18.702Z</time></trkpt><trkpt lat="43.7793656" lon="12.8529317"><ele>370.0</ele><time>2026-04-09T08:41:19.702Z</time></trkpt><trkpt lat="43.7794637" lon="12.8530556"><ele>370.0</ele><time>2026-04-09T08:41:20.702Z</time></trkpt><trkpt lat="43.779557" lon="12.8531776"><ele>372.75</ele><time>2026-04-09T08:41:21.703Z</time></trkpt><trkpt lat="43.7796566" lon="12.8532989"><ele>375.5</ele><time>2026-04-09T08:41:22.703Z</time></trkpt><trkpt lat="43.7797618" lon="12.853411"><ele>378.25</ele><time>2026-04-09T08:41:23.703Z</time></trkpt><trkpt lat="43.7798769" lon="12.8535098"><ele>381.0</ele><time>2026-04-09T08:41:24.702Z</time></trkpt><trkpt lat="43.7799871" lon="12.8536211"><ele>381.0</ele><time>2026-04-09T08:41:25.703Z</time></trkpt><trkpt lat="43.7800873" lon="12.8537531"><ele>381.0</ele><time>2026-04-09T08:41:26.703Z</time></trkpt><trkpt lat="43.7801778" lon="12.8538962"><ele>381.0</ele><time>2026-04-09T08:41:27.703Z</time></trkpt><trkpt lat="43.7802613" lon="12.8540468"><ele>381.0</ele><time>2026-04-09T08:41:28.703Z</time></trkpt><trkpt lat="43.780345" lon="12.8541965"><ele>384.0</ele><time>2026-04-09T08:41:29.702Z</time></trkpt><trkpt lat="43.7804272" lon="12.8543411"><ele>387.0</ele><time>2026-04-09T08:41:30.702Z</time></trkpt><trkpt lat="43.7805101" lon="12.8544793"><ele>390.0</ele><time>2026-04-09T08:41:31.703Z</time></trkpt><trkpt lat="43.7805986" lon="12.854599"><ele>393.0</ele><time>2026-04-09T08:41:32.703Z</time></trkpt><trkpt lat="43.7807065" lon="12.8546792"><ele>393.0</ele><time>2026-04-09T08:41:33.702Z</time></trkpt><trkpt lat="43.7808256" lon="12.8547253"><ele>393.0</ele><time>2026-04-09T08:41:34.702Z</time></trkpt><trkpt lat="43.7809373" lon="12.854785"><ele>393.0</ele><time>2026-04-09T08:41:35.702Z</time></trkpt><trkpt lat="43.7810429" lon="12.8548658"><ele>393.0</ele><time>2026-04-09T08:41:36.702Z</time></trkpt><trkpt lat="43.7811404" lon="12.8549579"><ele>395.2</ele><time>2026-04-09T08:41:37.703Z</time></trkpt><trkpt lat="43.7812366" lon="12.8550452"><ele>397.4</ele><time>2026-04-09T08:41:38.702Z</time></trkpt><trkpt lat="43.7813429" lon="12.8551111"><ele>399.59999999999997</ele><time>2026-04-09T08:41:39.702Z</time></trkpt><trkpt lat="43.7814471" lon="12.8551362"><ele>401.79999999999995</ele><time>2026-04-09T08:41:40.703Z</time></trkpt><trkpt lat="43.7815468" lon="12.8551302"><ele>404.0</ele><time>2026-04-09T08:41:41.702Z</time></trkpt><trkpt lat="43.7816405" lon="12.8550882"><ele>404.0</ele><time>2026-04-09T08:41:42.702Z</time></trkpt><trkpt lat="43.7817357" lon="12.8550113"><ele>404.0</ele><time>2026-04-09T08:41:43.703Z</time></trkpt><trkpt lat="43.7818171" lon="12.8549129"><ele>404.0</ele><time>2026-04-09T08:41:44.702Z</time></trkpt><trkpt lat="43.7818899" lon="12.8547826"><ele>404.0</ele><time>2026-04-09T08:41:45.702Z</time></trkpt><trkpt lat="43.78195" lon="12.8546354"><ele>402.25</ele><time>2026-04-09T08:41:46.703Z</time></trkpt><trkpt lat="43.7820139" lon="12.8544965"><ele>400.5</ele><time>2026-04-09T08:41:47.702Z</time></trkpt><trkpt lat="43.7820852" lon="12.8543691"><ele>398.75</ele><time>2026-04-09T08:41:48.702Z</time></trkpt><trkpt lat="43.7821611" lon="12.8542534"><ele>397.0</ele><time>2026-04-09T08:41:49.703Z</time></trkpt><trkpt lat="43.7822584" lon="12.8541722"><ele>401.75</ele><time>2026-04-09T08:41:50.703Z</time></trkpt><trkpt lat="43.7823724" lon="12.854128"><ele>406.5</ele><time>2026-04-09T08:41:51.702Z</time></trkpt><trkpt lat="43.7824993" lon="12.8541232"><ele>411.25</ele><time>2026-04-09T08:41:52.703Z</time></trkpt><trkpt lat="43.7826348" lon="12.8541611"><ele>416.0</ele><time>2026-04-09T08:41:53.702Z</time></trkpt><trkpt lat="43.7827672" lon="12.8542404"><ele>415.25</ele><time>2026-04-09T08:41:54.703Z</time></trkpt><trkpt lat="43.7828975" lon="12.8543369"><ele>414.5</ele><time>2026-04-09T08:41:55.702Z</time></trkpt><trkpt lat="43.7830266" lon="12.8544262"><ele>413.75</ele><time>2026-04-09T08:41:56.702Z</time></trkpt><trkpt lat="43.7831547" lon="12.8545144"><ele>413.0</ele><time>2026-04-09T08:41:57.702Z</time></trkpt><trkpt lat="43.7832683" lon="12.8546028"><ele>413.0</ele><time>2026-04-09T08:41:58.702Z</time></trkpt><trkpt lat="43.783358" lon="12.8547024"><ele>413.0</ele><time>2026-04-09T08:41:59.703Z</time></trkpt><trkpt lat="43.7834265" lon="12.8548135"><ele>413.0</ele><time>2026-04-09T08:42:00.702Z</time></trkpt><trkpt lat="43.7834841" lon="12.85493"><ele>413.0</ele><time>2026-04-09T08:42:01.702Z</time></trkpt><trkpt lat="43.7835348" lon="12.855046"><ele>413.0</ele><time>2026-04-09T08:42:02.703Z</time></trkpt><trkpt lat="43.7835869" lon="12.8551639"><ele>413.0</ele><time>2026-04-09T08:42:03.703Z</time></trkpt><trkpt lat="43.7836336" lon="12.8552824"><ele>413.0</ele><time>2026-04-09T08:42:04.703Z</time></trkpt><trkpt lat="43.7836745" lon="12.8554026"><ele>413.0</ele><time>2026-04-09T08:42:05.703Z</time></trkpt><trkpt lat="43.7837157" lon="12.8555194"><ele>413.0</ele><time>2026-04-09T08:42:06.702Z</time></trkpt><trkpt lat="43.7837658" lon="12.8556234"><ele>413.0</ele><time>2026-04-09T08:42:07.702Z</time></trkpt><trkpt lat="43.783833" lon="12.855718"><ele>413.0</ele><time>2026-04-09T08:42:08.703Z</time></trkpt><trkpt lat="43.7839197" lon="12.8557852"><ele>413.0</ele><time>2026-04-09T08:42:09.702Z</time></trkpt><trkpt lat="43.7840289" lon="12.8558194"><ele>413.0</ele><time>2026-04-09T08:42:10.703Z</time></trkpt><trkpt lat="43.7841412" lon="12.8558177"><ele>413.0</ele><time>2026-04-09T08:42:11.702Z</time></trkpt><trkpt lat="43.7842439" lon="12.8557822"><ele>413.0</ele><time>2026-04-09T08:42:12.702Z</time></trkpt><trkpt lat="43.7843466" lon="12.8557367"><ele>413.2</ele><time>2026-04-09T08:42:13.702Z</time></trkpt><trkpt lat="43.7844492" lon="12.8556985"><ele>413.4</ele><time>2026-04-09T08:42:14.703Z</time></trkpt><trkpt lat="43.7845533" lon="12.8556718"><ele>413.59999999999997</ele><time>2026-04-09T08:42:15.702Z</time></trkpt><trkpt lat="43.7846623" lon="12.8556903"><ele>413.79999999999995</ele><time>2026-04-09T08:42:16.702Z</time></trkpt><trkpt lat="43.7847695" lon="12.855762"><ele>414.0</ele><time>2026-04-09T08:42:17.702Z</time></trkpt><trkpt lat="43.7848722" lon="12.8558762"><ele>408.25</ele><time>2026-04-09T08:42:18.702Z</time></trkpt><trkpt lat="43.7849564" lon="12.8560032"><ele>402.5</ele><time>2026-04-09T08:42:19.703Z</time></trkpt><trkpt lat="43.7850265" lon="12.8561391"><ele>396.75</ele><time>2026-04-09T08:42:20.703Z</time></trkpt><trkpt lat="43.7850889" lon="12.8562793"><ele>391.0</ele><time>2026-04-09T08:42:21.702Z</time></trkpt><trkpt lat="43.7851568" lon="12.8564121"><ele>392.8</ele><time>2026-04-09T08:42:22.702Z</time></trkpt><trkpt lat="43.7852367" lon="12.8565244"><ele>394.6</ele><time>2026-04-09T08:42:23.702Z</time></trkpt><trkpt lat="43.7853229" lon="12.8566211"><ele>396.4</ele><time>2026-04-09T08:42:24.703Z</time></trkpt><trkpt lat="43.7854087" lon="12.8567171"><ele>398.2</ele><time>2026-04-09T08:42:25.703Z</time></trkpt><trkpt lat="43.7854965" lon="12.8568091"><ele>400.0</ele><time>2026-04-09T08:42:26.703Z</time></trkpt><trkpt lat="43.7855962" lon="12.8568767"><ele>395.25</ele><time>2026-04-09T08:42:27.703Z</time></trkpt><trkpt lat="43.7857073" lon="12.856937"><ele>390.5</ele><time>2026-04-09T08:42:28.702Z</time></trkpt><trkpt lat="43.7858234" lon="12.8569924"><ele>385.75</ele><time>2026-04-09T08:42:29.703Z</time></trkpt><trkpt lat="43.7859372" lon="12.857044"><ele>381.0</ele><time>2026-04-09T08:42:30.702Z</time></trkpt><trkpt lat="43.7860486" lon="12.8571003"><ele>381.0</ele><time>2026-04-09T08:42:31.702Z</time></trkpt><trkpt lat="43.7861582" lon="12.8571587"><ele>381.0</ele><time>2026-04-09T08:42:32.702Z</time></trkpt><trkpt lat="43.7862664" lon="12.857205"><ele>381.0</ele><time>2026-04-09T08:42:33.702Z</time></trkpt><trkpt lat="43.7863672" lon="12.8571999"><ele>381.0</ele><time>2026-04-09T08:42:34.702Z</time></trkpt><trkpt lat="43.7864663" lon="12.8571392"><ele>381.0</ele><time>2026-04-09T08:42:35.702Z</time></trkpt><trkpt lat="43.7865554" lon="12.8570598"><ele>381.0</ele><time>2026-04-09T08:42:36.702Z</time></trkpt><trkpt lat="43.7866334" lon="12.8569983"><ele>381.0</ele><time>2026-04-09T08:42:37.703Z</time></trkpt><trkpt lat="43.7867075" lon="12.8569822"><ele>381.0</ele><time>2026-04-09T08:42:38.703Z</time></trkpt><trkpt lat="43.7867756" lon="12.8570189"><ele>381.0</ele><time>2026-04-09T08:42:39.703Z</time></trkpt><trkpt lat="43.7868289" lon="12.8571021"><ele>381.0</ele><time>2026-04-09T08:42:40.702Z</time></trkpt><trkpt lat="43.7868581" lon="12.8572252"><ele>381.0</ele><time>2026-04-09T08:42:41.702Z</time></trkpt><trkpt lat="43.7868682" lon="12.8573629"><ele>378.8</ele><time>2026-04-09T08:42:42.703Z</time></trkpt><trkpt lat="43.786888" lon="12.857497"><ele>376.6</ele><time>2026-04-09T08:42:43.702Z</time></trkpt><trkpt lat="43.7868974" lon="12.8576222"><ele>374.4</ele><time>2026-04-09T08:42:44.702Z</time></trkpt><trkpt lat="43.7868777" lon="12.8577437"><ele>372.2</ele><time>2026-04-09T08:42:45.702Z</time></trkpt><trkpt lat="43.7868369" lon="12.857858"><ele>370.0</ele><time>2026-04-09T08:42:46.702Z</time></trkpt><trkpt lat="43.7867819" lon="12.8579609"><ele>370.0</ele><time>2026-04-09T08:42:47.702Z</time></trkpt><trkpt lat="43.7867245" lon="12.8580493"><ele>370.0</ele><time>2026-04-09T08:42:48.702Z</time></trkpt><trkpt lat="43.7866665" lon="12.8581308"><ele>370.0</ele><time>2026-04-09T08:42:49.702Z</time></trkpt><trkpt lat="43.786586" lon="12.8581602"><ele>370.0</ele><time>2026-04-09T08:42:50.703Z</time></trkpt><trkpt lat="43.786502" lon="12.8581502"><ele>370.0</ele><time>2026-04-09T08:42:51.702Z</time></trkpt><trkpt lat="43.7864269" lon="12.8581098"><ele>370.0</ele><time>2026-04-09T08:42:52.702Z</time></trkpt><trkpt lat="43.7863618" lon="12.8580666"><ele>370.0</ele><time>2026-04-09T08:42:53.702Z</time></trkpt><trkpt lat="43.7862823" lon="12.8581401"><ele>370.0</ele><time>2026-04-09T08:42:55.702Z</time></trkpt><trkpt lat="43.7863224" lon="12.8582852"><ele>370.0</ele><time>2026-04-09T08:42:57.702Z</time></trkpt><trkpt lat="43.786398" lon="12.8583494"><ele>370.0</ele><time>2026-04-09T08:42:58.703Z</time></trkpt><trkpt lat="43.7864808" lon="12.8584302"><ele>370.0</ele><time>2026-04-09T08:42:59.702Z</time></trkpt><trkpt lat="43.7865499" lon="12.8585219"><ele>367.4</ele><time>2026-04-09T08:43:00.703Z</time></trkpt><trkpt lat="43.7866189" lon="12.8586128"><ele>364.8</ele><time>2026-04-09T08:43:01.702Z</time></trkpt><trkpt lat="43.7866817" lon="12.8587238"><ele>362.20000000000005</ele><time>2026-04-09T08:43:02.702Z</time></trkpt><trkpt lat="43.7867314" lon="12.858842"><ele>359.6</ele><time>2026-04-09T08:43:03.703Z</time></trkpt><trkpt lat="43.7867833" lon="12.8589693"><ele>357.0</ele><time>2026-04-09T08:43:04.702Z</time></trkpt><trkpt lat="43.7868362" lon="12.8590843"><ele>357.6</ele><time>2026-04-09T08:43:05.703Z</time></trkpt><trkpt lat="43.7868954" lon="12.8591799"><ele>358.20000000000005</ele><time>2026-04-09T08:43:06.703Z</time></trkpt><trkpt lat="43.7869655" lon="12.8592519"><ele>358.8</ele><time>2026-04-09T08:43:07.703Z</time></trkpt><trkpt lat="43.7870574" lon="12.8593036"><ele>359.4</ele><time>2026-04-09T08:43:08.702Z</time></trkpt><trkpt lat="43.7871525" lon="12.8593348"><ele>360.0</ele><time>2026-04-09T08:43:09.703Z</time></trkpt><trkpt lat="43.7872402" lon="12.8593618"><ele>360.0</ele><time>2026-04-09T08:43:10.702Z</time></trkpt><trkpt lat="43.7873223" lon="12.8593866"><ele>360.0</ele><time>2026-04-09T08:43:11.702Z</time></trkpt><trkpt lat="43.787401" lon="12.8594039"><ele>360.0</ele><time>2026-04-09T08:43:12.703Z</time></trkpt><trkpt lat="43.7875034" lon="12.8593474"><ele>360.0</ele><time>2026-04-09T08:43:14.702Z</time></trkpt><trkpt lat="43.7875398" lon="12.859184"><ele>360.0</ele><time>2026-04-09T08:43:16.703Z</time></trkpt><trkpt lat="43.787561" lon="12.859094"><ele>360.0</ele><time>2026-04-09T08:43:17.702Z</time></trkpt><trkpt lat="43.7875903" lon="12.8589936"><ele>360.0</ele><time>2026-04-09T08:43:18.702Z</time></trkpt><trkpt lat="43.7876073" lon="12.8588679"><ele>360.0</ele><time>2026-04-09T08:43:19.703Z</time></trkpt><trkpt lat="43.787629" lon="12.8587323"><ele>360.0</ele><time>2026-04-09T08:43:20.702Z</time></trkpt><trkpt lat="43.7876593" lon="12.8585944"><ele>360.0</ele><time>2026-04-09T08:43:21.703Z</time></trkpt><trkpt lat="43.787681" lon="12.8584547"><ele>359.3333333333333</ele><time>2026-04-09T08:43:22.703Z</time></trkpt><trkpt lat="43.7877067" lon="12.8583295"><ele>358.6666666666667</ele><time>2026-04-09T08:43:23.702Z</time></trkpt><trkpt lat="43.7877289" lon="12.8582091"><ele>358.0</ele><time>2026-04-09T08:43:24.703Z</time></trkpt><trkpt lat="43.7877456" lon="12.8580943"><ele>357.33333333333337</ele><time>2026-04-09T08:43:25.703Z</time></trkpt><trkpt lat="43.7877475" lon="12.8579904"><ele>356.6666666666667</ele><time>2026-04-09T08:43:26.702Z</time></trkpt><trkpt lat="43.7877582" lon="12.8578914"><ele>356.0</ele><time>2026-04-09T08:43:27.702Z</time></trkpt><trkpt lat="43.787756" lon="12.8577904"><ele>355.99999999999994</ele><time>2026-04-09T08:43:28.703Z</time></trkpt><trkpt lat="43.7877566" lon="12.8576889"><ele>356.0</ele><time>2026-04-09T08:43:29.702Z</time></trkpt><trkpt lat="43.7877541" lon="12.8575779"><ele>356.0</ele><time>2026-04-09T08:43:30.703Z</time></trkpt><trkpt lat="43.787751" lon="12.857478"><ele>356.0</ele><time>2026-04-09T08:43:31.702Z</time></trkpt><trkpt lat="43.7877488" lon="12.8573839"><ele>356.0</ele><time>2026-04-09T08:43:32.702Z</time></trkpt><trkpt lat="43.7877532" lon="12.8572902"><ele>355.99999999999994</ele><time>2026-04-09T08:43:33.702Z</time></trkpt><trkpt lat="43.7877499" lon="12.8571963"><ele>356.0</ele><time>2026-04-09T08:43:34.703Z</time></trkpt><trkpt lat="43.7877677" lon="12.8570977"><ele>354.5</ele><time>2026-04-09T08:43:35.702Z</time></trkpt><trkpt lat="43.7878117" lon="12.8570159"><ele>353.0</ele><time>2026-04-09T08:43:36.702Z</time></trkpt><trkpt lat="43.7878669" lon="12.8569514"><ele>351.5</ele><time>2026-04-09T08:43:37.702Z</time></trkpt><trkpt lat="43.7879769" lon="12.8569119"><ele>350.0</ele><time>2026-04-09T08:43:39.702Z</time></trkpt><trkpt lat="43.7878786" lon="12.8569255"><ele>348.5</ele><time>2026-04-09T08:43:45.702Z</time></trkpt><trkpt lat="43.7878004" lon="12.8569763"><ele>347.0</ele><time>2026-04-09T08:43:46.702Z</time></trkpt><trkpt lat="43.7877534" lon="12.8570704"><ele>347.0</ele><time>2026-04-09T08:43:47.703Z</time></trkpt><trkpt lat="43.7877397" lon="12.8571992"><ele>347.0</ele><time>2026-04-09T08:43:48.702Z</time></trkpt><trkpt lat="43.7877359" lon="12.8573792"><ele>347.0</ele><time>2026-04-09T08:43:49.702Z</time></trkpt><trkpt lat="43.7877298" lon="12.8575541"><ele>347.0</ele><time>2026-04-09T08:43:50.703Z</time></trkpt><trkpt lat="43.787742" lon="12.8577361"><ele>348.8</ele><time>2026-04-09T08:43:51.702Z</time></trkpt><trkpt lat="43.787739" lon="12.8579092"><ele>350.6</ele><time>2026-04-09T08:43:52.703Z</time></trkpt><trkpt lat="43.7877287" lon="12.8580589"><ele>352.40000000000003</ele><time>2026-04-09T08:43:53.702Z</time></trkpt><trkpt lat="43.7877112" lon="12.8581871"><ele>354.20000000000005</ele><time>2026-04-09T08:43:54.702Z</time></trkpt><trkpt lat="43.787692" lon="12.8583027"><ele>356.0</ele><time>2026-04-09T08:43:55.703Z</time></trkpt><trkpt lat="43.7876779" lon="12.8584129"><ele>356.6666666666667</ele><time>2026-04-09T08:43:56.703Z</time></trkpt><trkpt lat="43.787655" lon="12.858538"><ele>357.33333333333337</ele><time>2026-04-09T08:43:58.702Z</time></trkpt><trkpt lat="43.7876878" lon="12.8586439"><ele>358.0</ele><time>2026-04-09T08:44:01.702Z</time></trkpt><trkpt lat="43.787746" lon="12.8586072"><ele>358.6666666666667</ele><time>2026-04-09T08:44:09.702Z</time></trkpt><trkpt lat="43.7877133" lon="12.8585311"><ele>359.3333333333333</ele><time>2026-04-09T08:44:13.703Z</time></trkpt><trkpt lat="43.7876429" lon="12.8586484"><ele>360.0</ele><time>2026-04-09T08:44:16.703Z</time></trkpt><trkpt lat="43.7876256" lon="12.8587685"><ele>360.0</ele><time>2026-04-09T08:44:17.702Z</time></trkpt><trkpt lat="43.7876064" lon="12.858875"><ele>360.0</ele><time>2026-04-09T08:44:18.703Z</time></trkpt><trkpt lat="43.7875846" lon="12.8589861"><ele>360.0</ele><time>2026-04-09T08:44:19.702Z</time></trkpt><trkpt lat="43.7875658" lon="12.8590907"><ele>360.0</ele><time>2026-04-09T08:44:20.703Z</time></trkpt><trkpt lat="43.7875418" lon="12.8592022"><ele>360.0</ele><time>2026-04-09T08:44:22.703Z</time></trkpt><trkpt lat="43.7875927" lon="12.8592993"><ele>360.0</ele><time>2026-04-09T08:44:25.702Z</time></trkpt><trkpt lat="43.7876946" lon="12.8593794"><ele>360.8</ele><time>2026-04-09T08:44:27.703Z</time></trkpt><trkpt lat="43.7877783" lon="12.859428"><ele>361.6</ele><time>2026-04-09T08:44:28.703Z</time></trkpt><trkpt lat="43.787862" lon="12.8594827"><ele>362.4</ele><time>2026-04-09T08:44:29.702Z</time></trkpt><trkpt lat="43.7879441" lon="12.8595324"><ele>363.2</ele><time>2026-04-09T08:44:30.702Z</time></trkpt><trkpt lat="43.7880385" lon="12.8595943"><ele>364.0</ele><time>2026-04-09T08:44:31.702Z</time></trkpt><trkpt lat="43.7881253" lon="12.8596498"><ele>364.0</ele><time>2026-04-09T08:44:32.702Z</time></trkpt><trkpt lat="43.788215" lon="12.8597122"><ele>364.0</ele><time>2026-04-09T08:44:33.703Z</time></trkpt><trkpt lat="43.7882839" lon="12.8597728"><ele>364.0</ele><time>2026-04-09T08:44:34.702Z</time></trkpt><trkpt lat="43.7883542" lon="12.8598255"><ele>364.0</ele><time>2026-04-09T08:44:35.703Z</time></trkpt><trkpt lat="43.7884145" lon="12.8598774"><ele>364.0</ele><time>2026-04-09T08:44:36.703Z</time></trkpt><trkpt lat="43.7885088" lon="12.8598885"><ele>364.0</ele><time>2026-04-09T08:44:38.703Z</time></trkpt><trkpt lat="43.7886012" lon="12.859807"><ele>366.66666666666663</ele><time>2026-04-09T08:44:40.703Z</time></trkpt><trkpt lat="43.7886657" lon="12.8597685"><ele>369.3333333333333</ele><time>2026-04-09T08:44:41.703Z</time></trkpt><trkpt lat="43.7887431" lon="12.8597257"><ele>372.0</ele><time>2026-04-09T08:44:42.702Z</time></trkpt><trkpt lat="43.7888207" lon="12.8596921"><ele>374.6666666666667</ele><time>2026-04-09T08:44:43.702Z</time></trkpt><trkpt lat="43.7889019" lon="12.8596649"><ele>377.33333333333337</ele><time>2026-04-09T08:44:44.702Z</time></trkpt><trkpt lat="43.7889939" lon="12.8596321"><ele>380.0</ele><time>2026-04-09T08:44:45.702Z</time></trkpt><trkpt lat="43.789096" lon="12.859614"><ele>380.0</ele><time>2026-04-09T08:44:46.702Z</time></trkpt><trkpt lat="43.7891864" lon="12.85959"><ele>380.0</ele><time>2026-04-09T08:44:47.702Z</time></trkpt><trkpt lat="43.7892808" lon="12.8595745"><ele>380.0</ele><time>2026-04-09T08:44:48.702Z</time></trkpt><trkpt lat="43.7893838" lon="12.8595606"><ele>380.0</ele><time>2026-04-09T08:44:49.702Z</time></trkpt><trkpt lat="43.7895064" lon="12.8595599"><ele>380.0</ele><time>2026-04-09T08:44:50.702Z</time></trkpt><trkpt lat="43.7896144" lon="12.8595647"><ele>380.6</ele><time>2026-04-09T08:44:51.702Z</time></trkpt><trkpt lat="43.7897191" lon="12.8595613"><ele>381.2</ele><time>2026-04-09T08:44:52.703Z</time></trkpt><trkpt lat="43.7898142" lon="12.8595564"><ele>381.79999999999995</ele><time>2026-04-09T08:44:53.702Z</time></trkpt><trkpt lat="43.7899086" lon="12.8595547"><ele>382.4</ele><time>2026-04-09T08:44:54.702Z</time></trkpt><trkpt lat="43.7900055" lon="12.8595563"><ele>383.0</ele><time>2026-04-09T08:44:55.703Z</time></trkpt><trkpt lat="43.7901015" lon="12.859573"><ele>378.79999999999995</ele><time>2026-04-09T08:44:56.702Z</time></trkpt><trkpt lat="43.7901973" lon="12.8595961"><ele>374.6</ele><time>2026-04-09T08:44:57.702Z</time></trkpt><trkpt lat="43.7902806" lon="12.8596119"><ele>370.4</ele><time>2026-04-09T08:44:58.703Z</time></trkpt><trkpt lat="43.7903688" lon="12.859668"><ele>366.20000000000005</ele><time>2026-04-09T08:44:59.703Z</time></trkpt><trkpt lat="43.7904524" lon="12.8597155"><ele>362.0</ele><time>2026-04-09T08:45:00.702Z</time></trkpt><trkpt lat="43.790525" lon="12.8597668"><ele>362.0</ele><time>2026-04-09T08:45:01.703Z</time></trkpt><trkpt lat="43.7906025" lon="12.8598446"><ele>362.0</ele><time>2026-04-09T08:45:02.702Z</time></trkpt><trkpt lat="43.7906836" lon="12.85994"><ele>362.0</ele><time>2026-04-09T08:45:03.702Z</time></trkpt><trkpt lat="43.7907565" lon="12.8600251"><ele>362.0</ele><time>2026-04-09T08:45:04.702Z</time></trkpt><trkpt lat="43.7908373" lon="12.8601233"><ele>362.0</ele><time>2026-04-09T08:45:05.702Z</time></trkpt><trkpt lat="43.7909171" lon="12.8602135"><ele>358.6</ele><time>2026-04-09T08:45:06.702Z</time></trkpt><trkpt lat="43.7909959" lon="12.8603113"><ele>355.20000000000005</ele><time>2026-04-09T08:45:07.702Z</time></trkpt><trkpt lat="43.7910854" lon="12.8604093"><ele>351.8</ele><time>2026-04-09T08:45:08.702Z</time></trkpt><trkpt lat="43.7911597" lon="12.8605182"><ele>348.4</ele><time>2026-04-09T08:45:09.703Z</time></trkpt><trkpt lat="43.7912409" lon="12.8606139"><ele>345.0</ele><time>2026-04-09T08:45:10.702Z</time></trkpt><trkpt lat="43.7913214" lon="12.8607046"><ele>345.0</ele><time>2026-04-09T08:45:11.703Z</time></trkpt><trkpt lat="43.7914131" lon="12.8607866"><ele>345.0</ele><time>2026-04-09T08:45:12.702Z</time></trkpt><trkpt lat="43.791502" lon="12.8608671"><ele>345.0</ele><time>2026-04-09T08:45:13.703Z</time></trkpt><trkpt lat="43.7915973" lon="12.8609225"><ele>345.0</ele><time>2026-04-09T08:45:14.702Z</time></trkpt><trkpt lat="43.7917038" lon="12.8609715"><ele>345.0</ele><time>2026-04-09T08:45:15.703Z</time></trkpt><trkpt lat="43.7918091" lon="12.8610342"><ele>343.8</ele><time>2026-04-09T08:45:16.703Z</time></trkpt><trkpt lat="43.7919161" lon="12.8610929"><ele>342.6</ele><time>2026-04-09T08:45:17.702Z</time></trkpt><trkpt lat="43.7920089" lon="12.8611357"><ele>341.4</ele><time>2026-04-09T08:45:18.703Z</time></trkpt><trkpt lat="43.7921078" lon="12.8611857"><ele>340.2</ele><time>2026-04-09T08:45:19.702Z</time></trkpt><trkpt lat="43.7922049" lon="12.8612387"><ele>339.0</ele><time>2026-04-09T08:45:20.703Z</time></trkpt><trkpt lat="43.7923" lon="12.8613005"><ele>339.0</ele><time>2026-04-09T08:45:21.703Z</time></trkpt><trkpt lat="43.7923987" lon="12.8613596"><ele>339.0</ele><time>2026-04-09T08:45:22.703Z</time></trkpt><trkpt lat="43.7924876" lon="12.8614174"><ele>339.0</ele><time>2026-04-09T08:45:23.703Z</time></trkpt><trkpt lat="43.7925797" lon="12.8614833"><ele>339.0</ele><time>2026-04-09T08:45:24.702Z</time></trkpt><trkpt lat="43.7926667" lon="12.861553"><ele>339.0</ele><time>2026-04-09T08:45:25.702Z</time></trkpt><trkpt lat="43.7927465" lon="12.8616324"><ele>337.2</ele><time>2026-04-09T08:45:26.702Z</time></trkpt><trkpt lat="43.7928287" lon="12.8617099"><ele>335.4</ele><time>2026-04-09T08:45:27.702Z</time></trkpt><trkpt lat="43.7929013" lon="12.8617863"><ele>333.6</ele><time>2026-04-09T08:45:28.702Z</time></trkpt><trkpt lat="43.7929827" lon="12.8618659"><ele>331.8</ele><time>2026-04-09T08:45:29.703Z</time></trkpt><trkpt lat="43.7930591" lon="12.8619363"><ele>330.0</ele><time>2026-04-09T08:45:30.703Z</time></trkpt><trkpt lat="43.7931308" lon="12.8619956"><ele>329.3333333333333</ele><time>2026-04-09T08:45:31.703Z</time></trkpt><trkpt lat="43.7931992" lon="12.8620628"><ele>328.6666666666667</ele><time>2026-04-09T08:45:32.702Z</time></trkpt><trkpt lat="43.7932636" lon="12.8621209"><ele>328.0</ele><time>2026-04-09T08:45:33.702Z</time></trkpt><trkpt lat="43.793334" lon="12.8621954"><ele>327.33333333333337</ele><time>2026-04-09T08:45:34.703Z</time></trkpt><trkpt lat="43.7933957" lon="12.8622654"><ele>326.6666666666667</ele><time>2026-04-09T08:45:35.702Z</time></trkpt><trkpt lat="43.7934521" lon="12.8623563"><ele>326.0</ele><time>2026-04-09T08:45:36.702Z</time></trkpt><trkpt lat="43.7934828" lon="12.8624556"><ele>326.0</ele><time>2026-04-09T08:45:37.702Z</time></trkpt><trkpt lat="43.7934759" lon="12.862559"><ele>326.0</ele><time>2026-04-09T08:45:38.702Z</time></trkpt><trkpt lat="43.7934452" lon="12.8626539"><ele>326.0</ele><time>2026-04-09T08:45:39.703Z</time></trkpt><trkpt lat="43.7934363" lon="12.8627416"><ele>326.0</ele><time>2026-04-09T08:45:40.703Z</time></trkpt><trkpt lat="43.7935032" lon="12.8628884"><ele>326.0</ele><time>2026-04-09T08:45:42.702Z</time></trkpt><trkpt lat="43.7935679" lon="12.8629477"><ele>326.0</ele><time>2026-04-09T08:45:43.702Z</time></trkpt><trkpt lat="43.793656" lon="12.8630217"><ele>323.6</ele><time>2026-04-09T08:45:44.702Z</time></trkpt><trkpt lat="43.7937427" lon="12.8631035"><ele>321.20000000000005</ele><time>2026-04-09T08:45:45.703Z</time></trkpt><trkpt lat="43.7938311" lon="12.8631804"><ele>318.79999999999995</ele><time>2026-04-09T08:45:46.703Z</time></trkpt><trkpt lat="43.7939209" lon="12.863255"><ele>316.4</ele><time>2026-04-09T08:45:47.702Z</time></trkpt><trkpt lat="43.7940062" lon="12.8633321"><ele>314.0</ele><time>2026-04-09T08:45:48.702Z</time></trkpt><trkpt lat="43.7940872" lon="12.8634079"><ele>309.0</ele><time>2026-04-09T08:45:49.702Z</time></trkpt><trkpt lat="43.7941773" lon="12.8634904"><ele>304.0</ele><time>2026-04-09T08:45:50.703Z</time></trkpt><trkpt lat="43.7942617" lon="12.8635638"><ele>299.0</ele><time>2026-04-09T08:45:51.703Z</time></trkpt><trkpt lat="43.7943471" lon="12.863626"><ele>294.0</ele><time>2026-04-09T08:45:52.702Z</time></trkpt><trkpt lat="43.794427" lon="12.8636914"><ele>289.0</ele><time>2026-04-09T08:45:53.702Z</time></trkpt><trkpt lat="43.794512" lon="12.8637305"><ele>288.3333333333333</ele><time>2026-04-09T08:45:54.702Z</time></trkpt><trkpt lat="43.7945965" lon="12.8637428"><ele>287.66666666666663</ele><time>2026-04-09T08:45:55.702Z</time></trkpt><trkpt lat="43.7946808" lon="12.8637429"><ele>287.0</ele><time>2026-04-09T08:45:56.702Z</time></trkpt><trkpt lat="43.7947612" lon="12.8637247"><ele>286.3333333333333</ele><time>2026-04-09T08:45:57.703Z</time></trkpt><trkpt lat="43.7948358" lon="12.8637009"><ele>285.6666666666667</ele><time>2026-04-09T08:45:58.702Z</time></trkpt><trkpt lat="43.7949105" lon="12.8636706"><ele>285.0</ele><time>2026-04-09T08:45:59.703Z</time></trkpt><trkpt lat="43.7949763" lon="12.8636319"><ele>285.0</ele><time>2026-04-09T08:46:00.702Z</time></trkpt><trkpt lat="43.7950368" lon="12.8635814"><ele>285.0</ele><time>2026-04-09T08:46:01.703Z</time></trkpt><trkpt lat="43.7951337" lon="12.863482"><ele>285.0</ele><time>2026-04-09T08:46:03.703Z</time></trkpt><trkpt lat="43.7952138" lon="12.8633692"><ele>285.0</ele><time>2026-04-09T08:46:05.702Z</time></trkpt><trkpt lat="43.7952652" lon="12.8632435"><ele>285.0</ele><time>2026-04-09T08:46:07.702Z</time></trkpt><trkpt lat="43.7952757" lon="12.8630928"><ele>283.0</ele><time>2026-04-09T08:46:09.703Z</time></trkpt><trkpt lat="43.7952895" lon="12.8629633"><ele>281.0</ele><time>2026-04-09T08:46:11.702Z</time></trkpt><trkpt lat="43.7953608" lon="12.8629387"><ele>279.0</ele><time>2026-04-09T08:46:14.703Z</time></trkpt><trkpt lat="43.795427" lon="12.8630063"><ele>277.0</ele><time>2026-04-09T08:46:16.702Z</time></trkpt><trkpt lat="43.795474" lon="12.8630725"><ele>275.0</ele><time>2026-04-09T08:47:55.702Z</time></trkpt><trkpt lat="43.7954385" lon="12.8632054"><ele>273.0</ele><time>2026-04-09T08:47:58.702Z</time></trkpt><trkpt lat="43.7954193" lon="12.8633294"><ele>272.2</ele><time>2026-04-09T08:47:59.703Z</time></trkpt><trkpt lat="43.7954078" lon="12.863459"><ele>271.4</ele><time>2026-04-09T08:48:00.703Z</time></trkpt><trkpt lat="43.7953879" lon="12.8635995"><ele>270.59999999999997</ele><time>2026-04-09T08:48:01.703Z</time></trkpt><trkpt lat="43.7953573" lon="12.8637438"><ele>269.8</ele><time>2026-04-09T08:48:02.703Z</time></trkpt><trkpt lat="43.7953128" lon="12.8638732"><ele>269.0</ele><time>2026-04-09T08:48:03.702Z</time></trkpt><trkpt lat="43.7952535" lon="12.8639995"><ele>269.0</ele><time>2026-04-09T08:48:04.703Z</time></trkpt><trkpt lat="43.795186" lon="12.86411"><ele>269.0</ele><time>2026-04-09T08:48:05.703Z</time></trkpt><trkpt lat="43.7951194" lon="12.8642013"><ele>269.0</ele><time>2026-04-09T08:48:06.702Z</time></trkpt><trkpt lat="43.7950442" lon="12.864261"><ele>269.0</ele><time>2026-04-09T08:48:07.702Z</time></trkpt><trkpt lat="43.7949864" lon="12.8643137"><ele>269.0</ele><time>2026-04-09T08:48:08.702Z</time></trkpt><trkpt lat="43.7949768" lon="12.8644568"><ele>267.4</ele><time>2026-04-09T08:48:10.703Z</time></trkpt><trkpt lat="43.795067" lon="12.8645607"><ele>265.79999999999995</ele><time>2026-04-09T08:48:12.702Z</time></trkpt><trkpt lat="43.7951437" lon="12.8645958"><ele>264.20000000000005</ele><time>2026-04-09T08:48:13.703Z</time></trkpt><trkpt lat="43.7952424" lon="12.8646094"><ele>262.6</ele><time>2026-04-09T08:48:14.703Z</time></trkpt><trkpt lat="43.7953409" lon="12.8646194"><ele>261.0</ele><time>2026-04-09T08:48:15.702Z</time></trkpt><trkpt lat="43.7954389" lon="12.8646203"><ele>260.6666666666667</ele><time>2026-04-09T08:48:16.702Z</time></trkpt><trkpt lat="43.7955341" lon="12.8645882"><ele>260.3333333333333</ele><time>2026-04-09T08:48:17.703Z</time></trkpt><trkpt lat="43.7956215" lon="12.8645361"><ele>260.0</ele><time>2026-04-09T08:48:18.702Z</time></trkpt><trkpt lat="43.7956929" lon="12.8644689"><ele>259.66666666666663</ele><time>2026-04-09T08:48:19.702Z</time></trkpt><trkpt lat="43.7957646" lon="12.8643949"><ele>259.3333333333333</ele><time>2026-04-09T08:48:20.702Z</time></trkpt><trkpt lat="43.7958068" lon="12.8643112"><ele>259.0</ele><time>2026-04-09T08:48:21.703Z</time></trkpt><trkpt lat="43.7958253" lon="12.864213"><ele>261.0</ele><time>2026-04-09T08:48:22.702Z</time></trkpt><trkpt lat="43.7958254" lon="12.8640673"><ele>263.0</ele><time>2026-04-09T08:48:24.702Z</time></trkpt><trkpt lat="43.7958417" lon="12.8639566"><ele>265.0</ele><time>2026-04-09T08:48:26.702Z</time></trkpt><trkpt lat="43.7958629" lon="12.8638327"><ele>267.0</ele><time>2026-04-09T08:48:28.702Z</time></trkpt><trkpt lat="43.7958663" lon="12.8636799"><ele>269.0</ele><time>2026-04-09T08:48:30.702Z</time></trkpt><trkpt lat="43.7958909" lon="12.8635804"><ele>269.0</ele><time>2026-04-09T08:48:31.703Z</time></trkpt><trkpt lat="43.7959329" lon="12.8634855"><ele>269.0</ele><time>2026-04-09T08:48:32.702Z</time></trkpt><trkpt lat="43.795982" lon="12.8634106"><ele>269.0</ele><time>2026-04-09T08:48:33.702Z</time></trkpt><trkpt lat="43.7960388" lon="12.8633679"><ele>269.0</ele><time>2026-04-09T08:48:34.703Z</time></trkpt><trkpt lat="43.7961318" lon="12.863364"><ele>269.0</ele><time>2026-04-09T08:48:36.703Z</time></trkpt><trkpt lat="43.7962209" lon="12.8634794"><ele>269.0</ele><time>2026-04-09T08:48:38.702Z</time></trkpt><trkpt lat="43.7962655" lon="12.86357"><ele>266.0</ele><time>2026-04-09T08:48:39.703Z</time></trkpt><trkpt lat="43.796334" lon="12.8636699"><ele>263.0</ele><time>2026-04-09T08:48:40.702Z</time></trkpt><trkpt lat="43.7964008" lon="12.8637798"><ele>260.0</ele><time>2026-04-09T08:48:41.702Z</time></trkpt><trkpt lat="43.796472" lon="12.8638923"><ele>257.0</ele><time>2026-04-09T08:48:42.702Z</time></trkpt><trkpt lat="43.79655" lon="12.8640156"><ele>254.0</ele><time>2026-04-09T08:48:43.702Z</time></trkpt><trkpt lat="43.7966201" lon="12.8641337"><ele>254.0</ele><time>2026-04-09T08:48:44.702Z</time></trkpt><trkpt lat="43.7966961" lon="12.8642678"><ele>254.0</ele><time>2026-04-09T08:48:45.703Z</time></trkpt><trkpt lat="43.7967703" lon="12.8643953"><ele>254.0</ele><time>2026-04-09T08:48:46.702Z</time></trkpt><trkpt lat="43.7968331" lon="12.8645384"><ele>254.0</ele><time>2026-04-09T08:48:47.703Z</time></trkpt><trkpt lat="43.79689" lon="12.8646692"><ele>252.66666666666669</ele><time>2026-04-09T08:48:48.703Z</time></trkpt><trkpt lat="43.7969419" lon="12.8647935"><ele>251.33333333333334</ele><time>2026-04-09T08:48:49.702Z</time></trkpt><trkpt lat="43.7969874" lon="12.8649046"><ele>250.0</ele><time>2026-04-09T08:48:50.702Z</time></trkpt><trkpt lat="43.7970343" lon="12.8650121"><ele>248.66666666666669</ele><time>2026-04-09T08:48:51.703Z</time></trkpt><trkpt lat="43.7970764" lon="12.8651115"><ele>247.33333333333334</ele><time>2026-04-09T08:48:52.703Z</time></trkpt><trkpt lat="43.797119" lon="12.8651953"><ele>246.0</ele><time>2026-04-09T08:48:53.702Z</time></trkpt><trkpt lat="43.7971606" lon="12.8652721"><ele>246.0</ele><time>2026-04-09T08:48:54.702Z</time></trkpt><trkpt lat="43.7972481" lon="12.8653968"><ele>246.0</ele><time>2026-04-09T08:48:56.703Z</time></trkpt><trkpt lat="43.7973762" lon="12.8654883"><ele>246.0</ele><time>2026-04-09T08:48:58.702Z</time></trkpt><trkpt lat="43.7974488" lon="12.8655507"><ele>246.0</ele><time>2026-04-09T08:48:59.703Z</time></trkpt><trkpt lat="43.7975246" lon="12.86563"><ele>246.0</ele><time>2026-04-09T08:49:00.703Z</time></trkpt><trkpt lat="43.7976042" lon="12.8657139"><ele>246.00000000000003</ele><time>2026-04-09T08:49:01.702Z</time></trkpt><trkpt lat="43.7976838" lon="12.865803"><ele>246.00000000000003</ele><time>2026-04-09T08:49:02.702Z</time></trkpt><trkpt lat="43.7977516" lon="12.8658855"><ele>246.0</ele><time>2026-04-09T08:49:03.702Z</time></trkpt><trkpt lat="43.7978545" lon="12.8659323"><ele>246.0</ele><time>2026-04-09T08:49:04.702Z</time></trkpt><trkpt lat="43.7979599" lon="12.8659948"><ele>244.8</ele><time>2026-04-09T08:49:05.702Z</time></trkpt><trkpt lat="43.7980659" lon="12.8660469"><ele>243.60000000000002</ele><time>2026-04-09T08:49:06.703Z</time></trkpt><trkpt lat="43.7981663" lon="12.8661055"><ele>242.4</ele><time>2026-04-09T08:49:07.702Z</time></trkpt><trkpt lat="43.7982708" lon="12.8661594"><ele>241.2</ele><time>2026-04-09T08:49:08.702Z</time></trkpt><trkpt lat="43.7983748" lon="12.866223"><ele>240.0</ele><time>2026-04-09T08:49:09.702Z</time></trkpt><trkpt lat="43.7984761" lon="12.8662944"><ele>241.5</ele><time>2026-04-09T08:49:10.703Z</time></trkpt><trkpt lat="43.7985795" lon="12.866379"><ele>243.0</ele><time>2026-04-09T08:49:11.703Z</time></trkpt><trkpt lat="43.7986816" lon="12.8664718"><ele>244.5</ele><time>2026-04-09T08:49:12.703Z</time></trkpt><trkpt lat="43.7987708" lon="12.8665837"><ele>246.0</ele><time>2026-04-09T08:49:13.703Z</time></trkpt><trkpt lat="43.7988608" lon="12.8666949"><ele>244.0</ele><time>2026-04-09T08:49:14.702Z</time></trkpt><trkpt lat="43.798945" lon="12.8668187"><ele>242.0</ele><time>2026-04-09T08:49:15.702Z</time></trkpt><trkpt lat="43.7990283" lon="12.8669403"><ele>240.0</ele><time>2026-04-09T08:49:16.702Z</time></trkpt><trkpt lat="43.7991221" lon="12.8670621"><ele>238.0</ele><time>2026-04-09T08:49:17.703Z</time></trkpt><trkpt lat="43.799217" lon="12.8671775"><ele>238.0</ele><time>2026-04-09T08:49:18.703Z</time></trkpt><trkpt lat="43.7993157" lon="12.8672866"><ele>238.0</ele><time>2026-04-09T08:49:19.702Z</time></trkpt><trkpt lat="43.7994161" lon="12.8673673"><ele>238.0</ele><time>2026-04-09T08:49:20.703Z</time></trkpt><trkpt lat="43.7995323" lon="12.8674167"><ele>238.0</ele><time>2026-04-09T08:49:21.702Z</time></trkpt><trkpt lat="43.7996714" lon="12.8674301"><ele>237.25</ele><time>2026-04-09T08:49:22.703Z</time></trkpt><trkpt lat="43.7997985" lon="12.8674127"><ele>236.5</ele><time>2026-04-09T08:49:23.702Z</time></trkpt><trkpt lat="43.7999159" lon="12.8673978"><ele>235.75</ele><time>2026-04-09T08:49:24.702Z</time></trkpt><trkpt lat="43.800037" lon="12.8673746"><ele>235.0</ele><time>2026-04-09T08:49:25.703Z</time></trkpt><trkpt lat="43.8001539" lon="12.867336"><ele>234.4</ele><time>2026-04-09T08:49:26.702Z</time></trkpt><trkpt lat="43.8002618" lon="12.8672903"><ele>233.8</ele><time>2026-04-09T08:49:27.702Z</time></trkpt><trkpt lat="43.8003628" lon="12.8672417"><ele>233.2</ele><time>2026-04-09T08:49:28.702Z</time></trkpt><trkpt lat="43.8004589" lon="12.8671947"><ele>232.6</ele><time>2026-04-09T08:49:29.702Z</time></trkpt><trkpt lat="43.800549" lon="12.8671372"><ele>232.0</ele><time>2026-04-09T08:49:30.703Z</time></trkpt><trkpt lat="43.8006236" lon="12.8670709"><ele>231.99999999999997</ele><time>2026-04-09T08:49:31.702Z</time></trkpt><trkpt lat="43.8007029" lon="12.8670116"><ele>232.0</ele><time>2026-04-09T08:49:32.702Z</time></trkpt><trkpt lat="43.8007803" lon="12.8669425"><ele>232.0</ele><time>2026-04-09T08:49:33.702Z</time></trkpt><trkpt lat="43.8008516" lon="12.8668804"><ele>232.0</ele><time>2026-04-09T08:49:34.703Z</time></trkpt><trkpt lat="43.8009219" lon="12.8668111"><ele>231.99999999999997</ele><time>2026-04-09T08:49:35.702Z</time></trkpt><trkpt lat="43.8009965" lon="12.8667414"><ele>232.0</ele><time>2026-04-09T08:49:36.703Z</time></trkpt><trkpt lat="43.8010783" lon="12.8666715"><ele>232.33333333333331</ele><time>2026-04-09T08:49:37.703Z</time></trkpt><trkpt lat="43.8011567" lon="12.8666041"><ele>232.66666666666666</ele><time>2026-04-09T08:49:38.702Z</time></trkpt><trkpt lat="43.80123" lon="12.8665361"><ele>233.0</ele><time>2026-04-09T08:49:39.703Z</time></trkpt><trkpt lat="43.8013002" lon="12.8664805"><ele>233.33333333333331</ele><time>2026-04-09T08:49:40.702Z</time></trkpt><trkpt lat="43.8013791" lon="12.8664339"><ele>233.66666666666666</ele><time>2026-04-09T08:49:41.702Z</time></trkpt><trkpt lat="43.8014516" lon="12.8663792"><ele>234.0</ele><time>2026-04-09T08:49:42.702Z</time></trkpt><trkpt lat="43.8015248" lon="12.8663315"><ele>234.0</ele><time>2026-04-09T08:49:43.702Z</time></trkpt><trkpt lat="43.8015925" lon="12.8662855"><ele>234.00000000000003</ele><time>2026-04-09T08:49:44.702Z</time></trkpt><trkpt lat="43.8016616" lon="12.8662521"><ele>234.0</ele><time>2026-04-09T08:49:45.702Z</time></trkpt><trkpt lat="43.8017302" lon="12.8662041"><ele>234.0</ele><time>2026-04-09T08:49:46.702Z</time></trkpt><trkpt lat="43.8017893" lon="12.8661716"><ele>234.00000000000003</ele><time>2026-04-09T08:49:47.703Z</time></trkpt><trkpt lat="43.8018273" lon="12.8660765"><ele>234.0</ele><time>2026-04-09T08:49:49.702Z</time></trkpt><trkpt lat="43.8017608" lon="12.866024"><ele>234.0</ele><time>2026-04-09T08:49:51.703Z</time></trkpt><trkpt lat="43.8016534" lon="12.8660772"><ele>234.0</ele><time>2026-04-09T08:49:53.702Z</time></trkpt><trkpt lat="43.8015566" lon="12.866133"><ele>233.99999999999997</ele><time>2026-04-09T08:49:55.703Z</time></trkpt><trkpt lat="43.8015149" lon="12.8662067"><ele>233.99999999999997</ele><time>2026-04-09T08:49:57.703Z</time></trkpt><trkpt lat="43.8014813" lon="12.8662811"><ele>234.0</ele><time>2026-04-09T08:50:00.702Z</time></trkpt><trkpt lat="43.801399" lon="12.866366"><ele>234.0</ele><time>2026-04-09T08:50:02.702Z</time></trkpt><trkpt lat="43.8012931" lon="12.8664281"><ele>234.0</ele><time>2026-04-09T08:50:03.702Z</time></trkpt><trkpt lat="43.8012087" lon="12.8664986"><ele>233.99999999999997</ele><time>2026-04-09T08:50:04.702Z</time></trkpt><trkpt lat="43.8011289" lon="12.8665753"><ele>233.99999999999997</ele><time>2026-04-09T08:50:05.703Z</time></trkpt><trkpt lat="43.8010317" lon="12.8666568"><ele>234.0</ele><time>2026-04-09T08:50:06.702Z</time></trkpt><trkpt lat="43.8009284" lon="12.8667527"><ele>234.0</ele><time>2026-04-09T08:50:07.703Z</time></trkpt><trkpt lat="43.8008229" lon="12.866848"><ele>233.5</ele><time>2026-04-09T08:50:08.702Z</time></trkpt><trkpt lat="43.8007308" lon="12.8669322"><ele>233.0</ele><time>2026-04-09T08:50:09.703Z</time></trkpt><trkpt lat="43.8006277" lon="12.8670149"><ele>232.5</ele><time>2026-04-09T08:50:10.702Z</time></trkpt><trkpt lat="43.8005209" lon="12.8670936"><ele>232.0</ele><time>2026-04-09T08:50:11.703Z</time></trkpt><trkpt lat="43.8004055" lon="12.8671617"><ele>232.0</ele><time>2026-04-09T08:50:12.702Z</time></trkpt><trkpt lat="43.8002907" lon="12.8672228"><ele>232.0</ele><time>2026-04-09T08:50:13.702Z</time></trkpt><trkpt lat="43.8001703" lon="12.867271"><ele>232.0</ele><time>2026-04-09T08:50:14.703Z</time></trkpt><trkpt lat="43.8000522" lon="12.8673061"><ele>232.0</ele><time>2026-04-09T08:50:15.702Z</time></trkpt><trkpt lat="43.7999326" lon="12.8673286"><ele>232.6</ele><time>2026-04-09T08:50:16.702Z</time></trkpt><trkpt lat="43.7998236" lon="12.8673467"><ele>233.2</ele><time>2026-04-09T08:50:17.703Z</time></trkpt><trkpt lat="43.7997194" lon="12.8673546"><ele>233.8</ele><time>2026-04-09T08:50:18.702Z</time></trkpt><trkpt lat="43.7996144" lon="12.8673599"><ele>234.4</ele><time>2026-04-09T08:50:19.702Z</time></trkpt><trkpt lat="43.7995087" lon="12.8673242"><ele>235.0</ele><time>2026-04-09T08:50:20.702Z</time></trkpt><trkpt lat="43.7994169" lon="12.8672706"><ele>235.0</ele><time>2026-04-09T08:50:21.702Z</time></trkpt><trkpt lat="43.7993355" lon="12.8671932"><ele>235.0</ele><time>2026-04-09T08:50:22.703Z</time></trkpt><trkpt lat="43.7992547" lon="12.867112"><ele>235.0</ele><time>2026-04-09T08:50:23.702Z</time></trkpt><trkpt lat="43.7991674" lon="12.8670133"><ele>235.0</ele><time>2026-04-09T08:50:24.702Z</time></trkpt><trkpt lat="43.7990821" lon="12.8669095"><ele>235.0</ele><time>2026-04-09T08:50:25.702Z</time></trkpt><trkpt lat="43.798992" lon="12.866794"><ele>237.75</ele><time>2026-04-09T08:50:26.702Z</time></trkpt><trkpt lat="43.7989015" lon="12.8666695"><ele>240.5</ele><time>2026-04-09T08:50:27.703Z</time></trkpt><trkpt lat="43.7988094" lon="12.8665496"><ele>243.25</ele><time>2026-04-09T08:50:28.703Z</time></trkpt><trkpt lat="43.7987071" lon="12.86645"><ele>246.0</ele><time>2026-04-09T08:50:29.703Z</time></trkpt><trkpt lat="43.7986085" lon="12.866354"><ele>244.5</ele><time>2026-04-09T08:50:30.702Z</time></trkpt><trkpt lat="43.7984959" lon="12.8662677"><ele>243.0</ele><time>2026-04-09T08:50:31.702Z</time></trkpt><trkpt lat="43.7983794" lon="12.8661906"><ele>241.5</ele><time>2026-04-09T08:50:32.703Z</time></trkpt><trkpt lat="43.7982585" lon="12.8661232"><ele>240.0</ele><time>2026-04-09T08:50:33.703Z</time></trkpt><trkpt lat="43.7981397" lon="12.8660626"><ele>240.0</ele><time>2026-04-09T08:50:34.703Z</time></trkpt><trkpt lat="43.7980182" lon="12.8660115"><ele>240.0</ele><time>2026-04-09T08:50:35.702Z</time></trkpt><trkpt lat="43.7979023" lon="12.8659371"><ele>240.0</ele><time>2026-04-09T08:50:36.702Z</time></trkpt><trkpt lat="43.7977913" lon="12.8658571"><ele>240.0</ele><time>2026-04-09T08:50:37.702Z</time></trkpt><trkpt lat="43.7977158" lon="12.8657587"><ele>241.0</ele><time>2026-04-09T08:50:38.702Z</time></trkpt><trkpt lat="43.7976262" lon="12.8656783"><ele>242.0</ele><time>2026-04-09T08:50:39.702Z</time></trkpt><trkpt lat="43.7975497" lon="12.865588"><ele>243.0</ele><time>2026-04-09T08:50:40.703Z</time></trkpt><trkpt lat="43.7974791" lon="12.8655132"><ele>244.0</ele><time>2026-04-09T08:50:41.703Z</time></trkpt><trkpt lat="43.7974163" lon="12.8654387"><ele>245.0</ele><time>2026-04-09T08:50:42.702Z</time></trkpt><trkpt lat="43.7973645" lon="12.8653802"><ele>246.0</ele><time>2026-04-09T08:50:43.702Z</time></trkpt><trkpt lat="43.7972561" lon="12.8653814"><ele>246.0</ele><time>2026-04-09T08:50:45.703Z</time></trkpt><trkpt lat="43.7971712" lon="12.8655235"><ele>246.0</ele><time>2026-04-09T08:50:47.703Z</time></trkpt><trkpt lat="43.7971165" lon="12.8655856"><ele>246.0</ele><time>2026-04-09T08:50:48.702Z</time></trkpt><trkpt lat="43.7970467" lon="12.8656398"><ele>246.0</ele><time>2026-04-09T08:50:49.702Z</time></trkpt><trkpt lat="43.7969755" lon="12.8656814"><ele>246.0</ele><time>2026-04-09T08:50:50.703Z</time></trkpt><trkpt lat="43.7969173" lon="12.8657271"><ele>246.0</ele><time>2026-04-09T08:50:51.703Z</time></trkpt><trkpt lat="43.7968569" lon="12.8657644"><ele>246.0</ele><time>2026-04-09T08:50:52.703Z</time></trkpt><trkpt lat="43.7967666" lon="12.8658114"><ele>246.0</ele><time>2026-04-09T08:50:54.703Z</time></trkpt><trkpt lat="43.7967234" lon="12.8658938"><ele>246.0</ele><time>2026-04-09T08:50:57.703Z</time></trkpt><trkpt lat="43.7967871" lon="12.8659014"><ele>246.0</ele><time>2026-04-09T08:51:07.702Z</time></trkpt><trkpt lat="43.7968468" lon="12.8658223"><ele>246.0</ele><time>2026-04-09T08:51:12.703Z</time></trkpt><trkpt lat="43.7969314" lon="12.8657517"><ele>246.0</ele><time>2026-04-09T08:51:13.703Z</time></trkpt><trkpt lat="43.7970137" lon="12.8656961"><ele>246.0</ele><time>2026-04-09T08:51:14.703Z</time></trkpt><trkpt lat="43.797084" lon="12.8656388"><ele>246.0</ele><time>2026-04-09T08:51:15.703Z</time></trkpt><trkpt lat="43.7971448" lon="12.8655879"><ele>246.0</ele><time>2026-04-09T08:51:16.702Z</time></trkpt><trkpt lat="43.7972244" lon="12.8655146"><ele>246.0</ele><time>2026-04-09T08:51:18.702Z</time></trkpt><trkpt lat="43.7972962" lon="12.8654997"><ele>246.0</ele><time>2026-04-09T08:51:21.702Z</time></trkpt><trkpt lat="43.7973694" lon="12.8655671"><ele>246.0</ele><time>2026-04-09T08:51:23.703Z</time></trkpt><trkpt lat="43.7974496" lon="12.8656507"><ele>246.0</ele><time>2026-04-09T08:51:25.702Z</time></trkpt><trkpt lat="43.7975219" lon="12.8657615"><ele>246.00000000000003</ele><time>2026-04-09T08:51:27.702Z</time></trkpt><trkpt lat="43.7975626" lon="12.8659352"><ele>246.00000000000003</ele><time>2026-04-09T08:51:29.702Z</time></trkpt><trkpt lat="43.7975814" lon="12.8660332"><ele>246.0</ele><time>2026-04-09T08:51:30.703Z</time></trkpt><trkpt lat="43.7976107" lon="12.8661248"><ele>246.0</ele><time>2026-04-09T08:51:31.702Z</time></trkpt><trkpt lat="43.7976494" lon="12.8662175"><ele>244.8</ele><time>2026-04-09T08:51:32.702Z</time></trkpt><trkpt lat="43.7977043" lon="12.8663156"><ele>243.60000000000002</ele><time>2026-04-09T08:51:33.703Z</time></trkpt><trkpt lat="43.7977504" lon="12.8664186"><ele>242.4</ele><time>2026-04-09T08:51:34.702Z</time></trkpt><trkpt lat="43.7978003" lon="12.8665185"><ele>241.2</ele><time>2026-04-09T08:51:35.702Z</time></trkpt><trkpt lat="43.7978611" lon="12.8666199"><ele>240.0</ele><time>2026-04-09T08:51:36.703Z</time></trkpt><trkpt lat="43.7979252" lon="12.8667376"><ele>237.2</ele><time>2026-04-09T08:51:37.702Z</time></trkpt><trkpt lat="43.7979874" lon="12.8668629"><ele>234.4</ele><time>2026-04-09T08:51:38.703Z</time></trkpt><trkpt lat="43.7980511" lon="12.8669906"><ele>231.60000000000002</ele><time>2026-04-09T08:51:39.703Z</time></trkpt><trkpt lat="43.7981119" lon="12.8671179"><ele>228.8</ele><time>2026-04-09T08:51:40.702Z</time></trkpt><trkpt lat="43.7981691" lon="12.8672331"><ele>226.0</ele><time>2026-04-09T08:51:41.703Z</time></trkpt><trkpt lat="43.7982289" lon="12.8673543"><ele>226.0</ele><time>2026-04-09T08:51:42.702Z</time></trkpt><trkpt lat="43.7982797" lon="12.867475"><ele>226.00000000000003</ele><time>2026-04-09T08:51:43.702Z</time></trkpt><trkpt lat="43.7983321" lon="12.8675966"><ele>226.00000000000003</ele><time>2026-04-09T08:51:44.703Z</time></trkpt><trkpt lat="43.7983845" lon="12.8677078"><ele>226.0</ele><time>2026-04-09T08:51:45.702Z</time></trkpt><trkpt lat="43.7984302" lon="12.8678125"><ele>226.0</ele><time>2026-04-09T08:51:46.702Z</time></trkpt><trkpt lat="43.7984773" lon="12.8679127"><ele>224.8</ele><time>2026-04-09T08:51:47.702Z</time></trkpt><trkpt lat="43.7985324" lon="12.867999"><ele>223.60000000000002</ele><time>2026-04-09T08:51:48.703Z</time></trkpt><trkpt lat="43.7986041" lon="12.8680697"><ele>222.4</ele><time>2026-04-09T08:51:49.702Z</time></trkpt><trkpt lat="43.7986884" lon="12.8681332"><ele>221.2</ele><time>2026-04-09T08:51:50.702Z</time></trkpt><trkpt lat="43.7987733" lon="12.8681987"><ele>220.0</ele><time>2026-04-09T08:51:51.703Z</time></trkpt><trkpt lat="43.798857" lon="12.868273"><ele>220.0</ele><time>2026-04-09T08:51:52.702Z</time></trkpt><trkpt lat="43.7989414" lon="12.8683495"><ele>220.0</ele><time>2026-04-09T08:51:53.702Z</time></trkpt><trkpt lat="43.7990282" lon="12.8684374"><ele>220.0</ele><time>2026-04-09T08:51:54.702Z</time></trkpt><trkpt lat="43.7991116" lon="12.868522"><ele>220.0</ele><time>2026-04-09T08:51:55.702Z</time></trkpt><trkpt lat="43.7991936" lon="12.8685997"><ele>220.0</ele><time>2026-04-09T08:51:56.702Z</time></trkpt><trkpt lat="43.7992658" lon="12.8686697"><ele>216.66666666666666</ele><time>2026-04-09T08:51:57.703Z</time></trkpt><trkpt lat="43.7993301" lon="12.8687407"><ele>213.33333333333331</ele><time>2026-04-09T08:51:58.703Z</time></trkpt><trkpt lat="43.7993888" lon="12.868803"><ele>210.0</ele><time>2026-04-09T08:51:59.703Z</time></trkpt><trkpt lat="43.7994542" lon="12.86887"><ele>206.66666666666669</ele><time>2026-04-09T08:52:00.702Z</time></trkpt><trkpt lat="43.7995185" lon="12.8689438"><ele>203.33333333333334</ele><time>2026-04-09T08:52:01.703Z</time></trkpt><trkpt lat="43.7995842" lon="12.8690148"><ele>200.0</ele><time>2026-04-09T08:52:02.702Z</time></trkpt><trkpt lat="43.7996522" lon="12.8690758"><ele>200.0</ele><time>2026-04-09T08:52:03.702Z</time></trkpt><trkpt lat="43.799723" lon="12.8691265"><ele>200.0</ele><time>2026-04-09T08:52:04.702Z</time></trkpt><trkpt lat="43.799805" lon="12.8691677"><ele>200.0</ele><time>2026-04-09T08:52:05.702Z</time></trkpt><trkpt lat="43.7999082" lon="12.8691732"><ele>200.0</ele><time>2026-04-09T08:52:06.702Z</time></trkpt><trkpt lat="43.8000146" lon="12.8691748"><ele>200.0</ele><time>2026-04-09T08:52:07.702Z</time></trkpt><trkpt lat="43.800115" lon="12.8691751"><ele>199.66666666666669</ele><time>2026-04-09T08:52:08.703Z</time></trkpt><trkpt lat="43.8002073" lon="12.8691778"><ele>199.33333333333334</ele><time>2026-04-09T08:52:09.703Z</time></trkpt><trkpt lat="43.8002973" lon="12.8691819"><ele>199.0</ele><time>2026-04-09T08:52:10.702Z</time></trkpt><trkpt lat="43.8003885" lon="12.8691945"><ele>198.66666666666669</ele><time>2026-04-09T08:52:11.703Z</time></trkpt><trkpt lat="43.8004708" lon="12.8692134"><ele>198.33333333333334</ele><time>2026-04-09T08:52:12.703Z</time></trkpt><trkpt lat="43.8005422" lon="12.8692381"><ele>198.0</ele><time>2026-04-09T08:52:13.702Z</time></trkpt><trkpt lat="43.8006073" lon="12.869275"><ele>194.5</ele><time>2026-04-09T08:52:14.703Z</time></trkpt><trkpt lat="43.8006764" lon="12.8693115"><ele>191.0</ele><time>2026-04-09T08:52:15.702Z</time></trkpt><trkpt lat="43.8007448" lon="12.8693683"><ele>187.5</ele><time>2026-04-09T08:52:16.702Z</time></trkpt><trkpt lat="43.8008113" lon="12.8694396"><ele>184.0</ele><time>2026-04-09T08:52:17.703Z</time></trkpt><trkpt lat="43.8008809" lon="12.8695142"><ele>180.5</ele><time>2026-04-09T08:52:18.702Z</time></trkpt><trkpt lat="43.8009499" lon="12.8695703"><ele>177.0</ele><time>2026-04-09T08:52:19.703Z</time></trkpt><trkpt lat="43.8010187" lon="12.8696165"><ele>177.0</ele><time>2026-04-09T08:52:20.702Z</time></trkpt><trkpt lat="43.8010913" lon="12.8696502"><ele>177.0</ele><time>2026-04-09T08:52:21.702Z</time></trkpt><trkpt lat="43.8011689" lon="12.8696782"><ele>177.0</ele><time>2026-04-09T08:52:22.703Z</time></trkpt><trkpt lat="43.8012517" lon="12.8697122"><ele>177.0</ele><time>2026-04-09T08:52:23.703Z</time></trkpt><trkpt lat="43.8013312" lon="12.8697458"><ele>177.0</ele><time>2026-04-09T08:52:24.702Z</time></trkpt><trkpt lat="43.8014063" lon="12.8697687"><ele>177.0</ele><time>2026-04-09T08:52:25.703Z</time></trkpt><trkpt lat="43.8014822" lon="12.8698014"><ele>177.0</ele><time>2026-04-09T08:52:26.702Z</time></trkpt><trkpt lat="43.8015533" lon="12.8698451"><ele>177.0</ele><time>2026-04-09T08:52:27.703Z</time></trkpt><trkpt lat="43.8016131" lon="12.8698979"><ele>177.0</ele><time>2026-04-09T08:52:28.702Z</time></trkpt><trkpt lat="43.8016733" lon="12.8699555"><ele>177.0</ele><time>2026-04-09T08:52:29.702Z</time></trkpt><trkpt lat="43.8017265" lon="12.8700113"><ele>177.0</ele><time>2026-04-09T08:52:30.702Z</time></trkpt><trkpt lat="43.8017832" lon="12.8700641"><ele>177.0</ele><time>2026-04-09T08:52:31.702Z</time></trkpt><trkpt lat="43.8018521" lon="12.8701181"><ele>177.0</ele><time>2026-04-09T08:52:32.703Z</time></trkpt><trkpt lat="43.801921" lon="12.8701619"><ele>174.71428571428572</ele><time>2026-04-09T08:52:33.702Z</time></trkpt><trkpt lat="43.8019884" lon="12.8702096"><ele>172.42857142857142</ele><time>2026-04-09T08:52:34.703Z</time></trkpt><trkpt lat="43.8020516" lon="12.8702668"><ele>170.14285714285714</ele><time>2026-04-09T08:52:35.703Z</time></trkpt><trkpt lat="43.8021111" lon="12.8703324"><ele>167.85714285714286</ele><time>2026-04-09T08:52:36.703Z</time></trkpt><trkpt lat="43.8021603" lon="12.8704088"><ele>165.57142857142856</ele><time>2026-04-09T08:52:37.702Z</time></trkpt><trkpt lat="43.8022055" lon="12.8704853"><ele>163.28571428571428</ele><time>2026-04-09T08:52:38.702Z</time></trkpt><trkpt lat="43.8022573" lon="12.8705633"><ele>161.0</ele><time>2026-04-09T08:52:39.703Z</time></trkpt><trkpt lat="43.8023064" lon="12.870646"><ele>161.0</ele><time>2026-04-09T08:52:40.703Z</time></trkpt><trkpt lat="43.8023576" lon="12.8707179"><ele>161.0</ele><time>2026-04-09T08:52:41.702Z</time></trkpt><trkpt lat="43.8024092" lon="12.870793"><ele>161.0</ele><time>2026-04-09T08:52:42.703Z</time></trkpt><trkpt lat="43.8024638" lon="12.870862"><ele>161.0</ele><time>2026-04-09T08:52:43.702Z</time></trkpt><trkpt lat="43.8025274" lon="12.8709092"><ele>161.0</ele><time>2026-04-09T08:52:44.702Z</time></trkpt><trkpt lat="43.8026006" lon="12.8709415"><ele>161.0</ele><time>2026-04-09T08:52:45.702Z</time></trkpt><trkpt lat="43.8026754" lon="12.8709712"><ele>161.0</ele><time>2026-04-09T08:52:46.703Z</time></trkpt><trkpt lat="43.8027412" lon="12.8710151"><ele>158.16666666666666</ele><time>2026-04-09T08:52:47.702Z</time></trkpt><trkpt lat="43.8028068" lon="12.871073"><ele>155.33333333333331</ele><time>2026-04-09T08:52:48.702Z</time></trkpt><trkpt lat="43.8028753" lon="12.871128"><ele>152.5</ele><time>2026-04-09T08:52:49.703Z</time></trkpt><trkpt lat="43.8029512" lon="12.8711638"><ele>149.66666666666666</ele><time>2026-04-09T08:52:50.702Z</time></trkpt><trkpt lat="43.8030363" lon="12.8711876"><ele>146.83333333333334</ele><time>2026-04-09T08:52:51.703Z</time></trkpt><trkpt lat="43.8031117" lon="12.8711961"><ele>144.0</ele><time>2026-04-09T08:52:52.702Z</time></trkpt><trkpt lat="43.8031841" lon="12.8711914"><ele>144.0</ele><time>2026-04-09T08:52:53.702Z</time></trkpt><trkpt lat="43.8032481" lon="12.8711593"><ele>144.0</ele><time>2026-04-09T08:52:54.702Z</time></trkpt><trkpt lat="43.8033037" lon="12.8711031"><ele>144.0</ele><time>2026-04-09T08:52:55.703Z</time></trkpt><trkpt lat="43.8033517" lon="12.871036"><ele>144.0</ele><time>2026-04-09T08:52:56.702Z</time></trkpt><trkpt lat="43.8034109" lon="12.8709698"><ele>144.0</ele><time>2026-04-09T08:52:57.702Z</time></trkpt><trkpt lat="43.8034878" lon="12.8709277"><ele>144.0</ele><time>2026-04-09T08:52:58.702Z</time></trkpt><trkpt lat="43.8035761" lon="12.8709198"><ele>144.33333333333334</ele><time>2026-04-09T08:52:59.702Z</time></trkpt><trkpt lat="43.8036672" lon="12.8709369"><ele>144.66666666666666</ele><time>2026-04-09T08:53:00.703Z</time></trkpt><trkpt lat="43.8037595" lon="12.8709825"><ele>145.0</ele><time>2026-04-09T08:53:01.702Z</time></trkpt><trkpt lat="43.8038384" lon="12.8710444"><ele>145.33333333333331</ele><time>2026-04-09T08:53:02.702Z</time></trkpt><trkpt lat="43.803905" lon="12.8711104"><ele>145.66666666666666</ele><time>2026-04-09T08:53:03.702Z</time></trkpt><trkpt lat="43.8039648" lon="12.8711861"><ele>146.0</ele><time>2026-04-09T08:53:04.703Z</time></trkpt><trkpt lat="43.8040254" lon="12.8712718"><ele>146.0</ele><time>2026-04-09T08:53:05.702Z</time></trkpt><trkpt lat="43.8040801" lon="12.8713623"><ele>146.0</ele><time>2026-04-09T08:53:06.702Z</time></trkpt><trkpt lat="43.8041301" lon="12.8714468"><ele>146.0</ele><time>2026-04-09T08:53:07.703Z</time></trkpt><trkpt lat="43.804176" lon="12.871524"><ele>146.0</ele><time>2026-04-09T08:53:08.702Z</time></trkpt><trkpt lat="43.8042216" lon="12.8715923"><ele>146.0</ele><time>2026-04-09T08:53:09.703Z</time></trkpt><trkpt lat="43.8042746" lon="12.8716574"><ele>146.0</ele><time>2026-04-09T08:53:10.702Z</time></trkpt><trkpt lat="43.8043288" lon="12.8717245"><ele>146.0</ele><time>2026-04-09T08:53:11.702Z</time></trkpt><trkpt lat="43.8043796" lon="12.8717949"><ele>144.42857142857142</ele><time>2026-04-09T08:53:12.702Z</time></trkpt><trkpt lat="43.8044318" lon="12.8718579"><ele>142.85714285714286</ele><time>2026-04-09T08:53:13.702Z</time></trkpt><trkpt lat="43.8044875" lon="12.8719227"><ele>141.28571428571428</ele><time>2026-04-09T08:53:14.703Z</time></trkpt><trkpt lat="43.8045468" lon="12.8719866"><ele>139.71428571428572</ele><time>2026-04-09T08:53:15.703Z</time></trkpt><trkpt lat="43.8046061" lon="12.8720591"><ele>138.14285714285714</ele><time>2026-04-09T08:53:16.703Z</time></trkpt><trkpt lat="43.8046536" lon="12.8721339"><ele>136.57142857142856</ele><time>2026-04-09T08:53:17.702Z</time></trkpt><trkpt lat="43.8046973" lon="12.8722095"><ele>135.0</ele><time>2026-04-09T08:53:18.703Z</time></trkpt><trkpt lat="43.8047403" lon="12.8722823"><ele>135.0</ele><time>2026-04-09T08:53:19.702Z</time></trkpt><trkpt lat="43.8047817" lon="12.872355"><ele>135.0</ele><time>2026-04-09T08:53:20.702Z</time></trkpt><trkpt lat="43.8048596" lon="12.8724846"><ele>135.0</ele><time>2026-04-09T08:53:22.703Z</time></trkpt><trkpt lat="43.8049379" lon="12.8726112"><ele>135.0</ele><time>2026-04-09T08:53:24.703Z</time></trkpt><trkpt lat="43.8050307" lon="12.8727341"><ele>135.0</ele><time>2026-04-09T08:53:26.702Z</time></trkpt><trkpt lat="43.8050829" lon="12.8727907"><ele>131.8</ele><time>2026-04-09T08:53:27.703Z</time></trkpt><trkpt lat="43.8051647" lon="12.8728841"><ele>128.6</ele><time>2026-04-09T08:53:29.702Z</time></trkpt><trkpt lat="43.8052483" lon="12.8729752"><ele>125.4</ele><time>2026-04-09T08:53:31.702Z</time></trkpt><trkpt lat="43.8053311" lon="12.8730832"><ele>122.2</ele><time>2026-04-09T08:53:33.703Z</time></trkpt><trkpt lat="43.8053879" lon="12.8731451"><ele>119.0</ele><time>2026-04-09T08:53:34.702Z</time></trkpt><trkpt lat="43.8054489" lon="12.8732082"><ele>119.0</ele><time>2026-04-09T08:53:35.702Z</time></trkpt><trkpt lat="43.8055237" lon="12.8732746"><ele>119.0</ele><time>2026-04-09T08:53:36.702Z</time></trkpt><trkpt lat="43.805604" lon="12.8733362"><ele>119.0</ele><time>2026-04-09T08:53:37.703Z</time></trkpt><trkpt lat="43.8056805" lon="12.8733958"><ele>119.0</ele><time>2026-04-09T08:53:38.702Z</time></trkpt><trkpt lat="43.8057578" lon="12.8734607"><ele>119.0</ele><time>2026-04-09T08:53:39.702Z</time></trkpt><trkpt lat="43.805837" lon="12.8735245"><ele>117.49999999999999</ele><time>2026-04-09T08:53:40.702Z</time></trkpt><trkpt lat="43.8059231" lon="12.8735938"><ele>116.0</ele><time>2026-04-09T08:53:41.702Z</time></trkpt><trkpt lat="43.8060069" lon="12.8736607"><ele>114.5</ele><time>2026-04-09T08:53:42.702Z</time></trkpt><trkpt lat="43.8060838" lon="12.8737233"><ele>113.0</ele><time>2026-04-09T08:53:43.702Z</time></trkpt><trkpt lat="43.8061534" lon="12.873781"><ele>111.49999999999999</ele><time>2026-04-09T08:53:44.702Z</time></trkpt><trkpt lat="43.8062115" lon="12.8738463"><ele>110.0</ele><time>2026-04-09T08:53:45.702Z</time></trkpt><trkpt lat="43.8062607" lon="12.873938"><ele>109.2</ele><time>2026-04-09T08:53:46.702Z</time></trkpt><trkpt lat="43.8063132" lon="12.8740569"><ele>108.4</ele><time>2026-04-09T08:53:47.702Z</time></trkpt><trkpt lat="43.806367" lon="12.8741807"><ele>107.6</ele><time>2026-04-09T08:53:48.703Z</time></trkpt><trkpt lat="43.8064205" lon="12.8743028"><ele>106.8</ele><time>2026-04-09T08:53:49.702Z</time></trkpt><trkpt lat="43.8064725" lon="12.8744225"><ele>106.0</ele><time>2026-04-09T08:53:50.703Z</time></trkpt><trkpt lat="43.8065245" lon="12.8745538"><ele>105.0</ele><time>2026-04-09T08:53:51.702Z</time></trkpt><trkpt lat="43.8065827" lon="12.8746911"><ele>104.0</ele><time>2026-04-09T08:53:52.702Z</time></trkpt><trkpt lat="43.8066405" lon="12.8748268"><ele>103.0</ele><time>2026-04-09T08:53:53.703Z</time></trkpt><trkpt lat="43.8066948" lon="12.8749615"><ele>102.0</ele><time>2026-04-09T08:53:54.702Z</time></trkpt><trkpt lat="43.8067483" lon="12.8750929"><ele>101.0</ele><time>2026-04-09T08:53:55.702Z</time></trkpt><trkpt lat="43.8068055" lon="12.8752312"><ele>98.0</ele><time>2026-04-09T08:53:56.703Z</time></trkpt><trkpt lat="43.8068662" lon="12.8753764"><ele>95.0</ele><time>2026-04-09T08:53:57.703Z</time></trkpt><trkpt lat="43.8069237" lon="12.8755185"><ele>92.0</ele><time>2026-04-09T08:53:58.702Z</time></trkpt><trkpt lat="43.8069764" lon="12.8756459"><ele>89.0</ele><time>2026-04-09T08:53:59.702Z</time></trkpt><trkpt lat="43.8070271" lon="12.8757769"><ele>89.0</ele><time>2026-04-09T08:54:00.702Z</time></trkpt><trkpt lat="43.8070797" lon="12.8759173"><ele>89.0</ele><time>2026-04-09T08:54:01.702Z</time></trkpt><trkpt lat="43.8071331" lon="12.8760499"><ele>89.0</ele><time>2026-04-09T08:54:02.702Z</time></trkpt><trkpt lat="43.8071846" lon="12.8761692"><ele>89.0</ele><time>2026-04-09T08:54:03.702Z</time></trkpt><trkpt lat="43.8072341" lon="12.8762959"><ele>89.0</ele><time>2026-04-09T08:54:04.702Z</time></trkpt><trkpt lat="43.8072913" lon="12.87644"><ele>88.4</ele><time>2026-04-09T08:54:05.702Z</time></trkpt><trkpt lat="43.8073545" lon="12.8765875"><ele>87.80000000000001</ele><time>2026-04-09T08:54:06.702Z</time></trkpt><trkpt lat="43.8074099" lon="12.8767209"><ele>87.19999999999999</ele><time>2026-04-09T08:54:07.703Z</time></trkpt><trkpt lat="43.8074625" lon="12.8768493"><ele>86.6</ele><time>2026-04-09T08:54:08.702Z</time></trkpt><trkpt lat="43.8075116" lon="12.8769738"><ele>86.0</ele><time>2026-04-09T08:54:09.703Z</time></trkpt><trkpt lat="43.8075623" lon="12.8770932"><ele>85.0</ele><time>2026-04-09T08:54:10.702Z</time></trkpt><trkpt lat="43.8076075" lon="12.8772077"><ele>84.0</ele><time>2026-04-09T08:54:11.702Z</time></trkpt><trkpt lat="43.8076505" lon="12.8773179"><ele>83.0</ele><time>2026-04-09T08:54:12.702Z</time></trkpt><trkpt lat="43.8076947" lon="12.8774244"><ele>82.0</ele><time>2026-04-09T08:54:13.703Z</time></trkpt><trkpt lat="43.8077494" lon="12.8775296"><ele>81.0</ele><time>2026-04-09T08:54:14.702Z</time></trkpt><trkpt lat="43.8078191" lon="12.8776453"><ele>79.5</ele><time>2026-04-09T08:54:15.702Z</time></trkpt><trkpt lat="43.8079042" lon="12.8777593"><ele>78.0</ele><time>2026-04-09T08:54:16.702Z</time></trkpt><trkpt lat="43.8079989" lon="12.877862"><ele>76.5</ele><time>2026-04-09T08:54:17.703Z</time></trkpt><trkpt lat="43.8081049" lon="12.8779578"><ele>75.0</ele><time>2026-04-09T08:54:18.702Z</time></trkpt><trkpt lat="43.8082151" lon="12.8780508"><ele>75.0</ele><time>2026-04-09T08:54:19.703Z</time></trkpt><trkpt lat="43.8083168" lon="12.8781362"><ele>75.0</ele><time>2026-04-09T08:54:20.702Z</time></trkpt><trkpt lat="43.8084163" lon="12.8782178"><ele>75.0</ele><time>2026-04-09T08:54:21.703Z</time></trkpt><trkpt lat="43.8085272" lon="12.8783024"><ele>75.0</ele><time>2026-04-09T08:54:22.703Z</time></trkpt><trkpt lat="43.8086397" lon="12.8783847"><ele>74.25</ele><time>2026-04-09T08:54:23.703Z</time></trkpt><trkpt lat="43.8087557" lon="12.8784582"><ele>73.5</ele><time>2026-04-09T08:54:24.703Z</time></trkpt><trkpt lat="43.8088711" lon="12.8785283"><ele>72.75</ele><time>2026-04-09T08:54:25.703Z</time></trkpt><trkpt lat="43.8089985" lon="12.8785982"><ele>72.0</ele><time>2026-04-09T08:54:26.702Z</time></trkpt><trkpt lat="43.8091358" lon="12.8786722"><ele>72.0</ele><time>2026-04-09T08:54:27.702Z</time></trkpt><trkpt lat="43.8092721" lon="12.8787611"><ele>72.0</ele><time>2026-04-09T08:54:28.702Z</time></trkpt><trkpt lat="43.8093894" lon="12.8788471"><ele>72.0</ele><time>2026-04-09T08:54:29.702Z</time></trkpt><trkpt lat="43.8094967" lon="12.8789299"><ele>72.0</ele><time>2026-04-09T08:54:30.703Z</time></trkpt><trkpt lat="43.8096011" lon="12.8790178"><ele>72.5</ele><time>2026-04-09T08:54:31.702Z</time></trkpt><trkpt lat="43.809696" lon="12.8791044"><ele>73.0</ele><time>2026-04-09T08:54:32.702Z</time></trkpt><trkpt lat="43.8097875" lon="12.8791982"><ele>73.5</ele><time>2026-04-09T08:54:33.703Z</time></trkpt><trkpt lat="43.8098784" lon="12.8792966"><ele>74.0</ele><time>2026-04-09T08:54:34.703Z</time></trkpt><trkpt lat="43.8099707" lon="12.8793987"><ele>73.5</ele><time>2026-04-09T08:54:35.703Z</time></trkpt><trkpt lat="43.8100628" lon="12.8794976"><ele>73.0</ele><time>2026-04-09T08:54:36.702Z</time></trkpt><trkpt lat="43.8101516" lon="12.879597"><ele>72.5</ele><time>2026-04-09T08:54:37.703Z</time></trkpt><trkpt lat="43.8102402" lon="12.8796962"><ele>72.0</ele><time>2026-04-09T08:54:38.703Z</time></trkpt><trkpt lat="43.8103294" lon="12.879796"><ele>72.0</ele><time>2026-04-09T08:54:39.703Z</time></trkpt><trkpt lat="43.8104224" lon="12.8798958"><ele>72.0</ele><time>2026-04-09T08:54:40.703Z</time></trkpt><trkpt lat="43.8105195" lon="12.8799959"><ele>72.0</ele><time>2026-04-09T08:54:41.703Z</time></trkpt><trkpt lat="43.8106128" lon="12.8800958"><ele>72.0</ele><time>2026-04-09T08:54:42.702Z</time></trkpt><trkpt lat="43.8107088" lon="12.8801927"><ele>71.4</ele><time>2026-04-09T08:54:43.702Z</time></trkpt><trkpt lat="43.8108108" lon="12.8802848"><ele>70.80000000000001</ele><time>2026-04-09T08:54:44.703Z</time></trkpt><trkpt lat="43.8109077" lon="12.8803756"><ele>70.2</ele><time>2026-04-09T08:54:45.703Z</time></trkpt><trkpt lat="43.8109996" lon="12.8804608"><ele>69.60000000000001</ele><time>2026-04-09T08:54:46.703Z</time></trkpt><trkpt lat="43.8110813" lon="12.8805347"><ele>69.0</ele><time>2026-04-09T08:54:47.702Z</time></trkpt><trkpt lat="43.811149" lon="12.880595"><ele>69.0</ele><time>2026-04-09T08:54:48.702Z</time></trkpt><trkpt lat="43.8112452" lon="12.8806771"><ele>69.0</ele><time>2026-04-09T08:54:50.702Z</time></trkpt><trkpt lat="43.8113287" lon="12.8807193"><ele>69.0</ele><time>2026-04-09T08:54:53.702Z</time></trkpt><trkpt lat="43.8113963" lon="12.8807355"><ele>69.0</ele><time>2026-04-09T08:54:54.702Z</time></trkpt><trkpt lat="43.811495" lon="12.8807539"><ele>69.0</ele><time>2026-04-09T08:54:55.702Z</time></trkpt><trkpt lat="43.8116005" lon="12.8807702"><ele>69.0</ele><time>2026-04-09T08:54:56.702Z</time></trkpt><trkpt lat="43.8117118" lon="12.8807921"><ele>69.0</ele><time>2026-04-09T08:54:57.703Z</time></trkpt><trkpt lat="43.8118454" lon="12.8808137"><ele>69.0</ele><time>2026-04-09T08:54:58.702Z</time></trkpt><trkpt lat="43.8119893" lon="12.88083"><ele>69.0</ele><time>2026-04-09T08:54:59.702Z</time></trkpt><trkpt lat="43.8121248" lon="12.8808425"><ele>68.5</ele><time>2026-04-09T08:55:00.703Z</time></trkpt><trkpt lat="43.8122421" lon="12.8808568"><ele>68.0</ele><time>2026-04-09T08:55:01.702Z</time></trkpt><trkpt lat="43.8123591" lon="12.880877"><ele>67.5</ele><time>2026-04-09T08:55:02.703Z</time></trkpt><trkpt lat="43.8124794" lon="12.8809009"><ele>67.0</ele><time>2026-04-09T08:55:03.703Z</time></trkpt><trkpt lat="43.8125952" lon="12.8809213"><ele>66.6</ele><time>2026-04-09T08:55:04.703Z</time></trkpt><trkpt lat="43.8127017" lon="12.8809374"><ele>66.2</ele><time>2026-04-09T08:55:05.703Z</time></trkpt><trkpt lat="43.8128073" lon="12.8809555"><ele>65.8</ele><time>2026-04-09T08:55:06.702Z</time></trkpt><trkpt lat="43.8129154" lon="12.8809743"><ele>65.4</ele><time>2026-04-09T08:55:07.702Z</time></trkpt><trkpt lat="43.8130288" lon="12.8809985"><ele>65.0</ele><time>2026-04-09T08:55:08.703Z</time></trkpt><trkpt lat="43.8131445" lon="12.8810218"><ele>65.0</ele><time>2026-04-09T08:55:09.702Z</time></trkpt><trkpt lat="43.8132528" lon="12.8810459"><ele>65.0</ele><time>2026-04-09T08:55:10.702Z</time></trkpt><trkpt lat="43.8133612" lon="12.881072"><ele>65.0</ele><time>2026-04-09T08:55:11.702Z</time></trkpt><trkpt lat="43.8134726" lon="12.8810978"><ele>65.0</ele><time>2026-04-09T08:55:12.702Z</time></trkpt><trkpt lat="43.8135861" lon="12.8811236"><ele>65.0</ele><time>2026-04-09T08:55:13.703Z</time></trkpt><trkpt lat="43.8137027" lon="12.8811619"><ele>64.75</ele><time>2026-04-09T08:55:14.703Z</time></trkpt><trkpt lat="43.813818" lon="12.8812083"><ele>64.5</ele><time>2026-04-09T08:55:15.703Z</time></trkpt><trkpt lat="43.813934" lon="12.8812538"><ele>64.25</ele><time>2026-04-09T08:55:16.702Z</time></trkpt><trkpt lat="43.8140557" lon="12.8812964"><ele>64.0</ele><time>2026-04-09T08:55:17.703Z</time></trkpt><trkpt lat="43.8141824" lon="12.8813368"><ele>64.0</ele><time>2026-04-09T08:55:18.702Z</time></trkpt><trkpt lat="43.814311" lon="12.8813811"><ele>64.0</ele><time>2026-04-09T08:55:19.703Z</time></trkpt><trkpt lat="43.8144406" lon="12.881426"><ele>64.0</ele><time>2026-04-09T08:55:20.702Z</time></trkpt><trkpt lat="43.8145717" lon="12.8814659"><ele>64.0</ele><time>2026-04-09T08:55:21.703Z</time></trkpt><trkpt lat="43.814704" lon="12.8815049"><ele>63.5</ele><time>2026-04-09T08:55:22.702Z</time></trkpt><trkpt lat="43.8148387" lon="12.8815348"><ele>63.0</ele><time>2026-04-09T08:55:23.702Z</time></trkpt><trkpt lat="43.8149769" lon="12.8815666"><ele>62.5</ele><time>2026-04-09T08:55:24.703Z</time></trkpt><trkpt lat="43.8151268" lon="12.8815978"><ele>62.0</ele><time>2026-04-09T08:55:25.702Z</time></trkpt><trkpt lat="43.815297" lon="12.881629"><ele>62.0</ele><time>2026-04-09T08:55:26.702Z</time></trkpt><trkpt lat="43.8154745" lon="12.8816636"><ele>62.0</ele><time>2026-04-09T08:55:27.702Z</time></trkpt><trkpt lat="43.8156324" lon="12.8816958"><ele>62.0</ele><time>2026-04-09T08:55:28.703Z</time></trkpt><trkpt lat="43.8157742" lon="12.8817306"><ele>62.0</ele><time>2026-04-09T08:55:29.702Z</time></trkpt><trkpt lat="43.8159113" lon="12.8817608"><ele>62.0</ele><time>2026-04-09T08:55:30.703Z</time></trkpt><trkpt lat="43.8160445" lon="12.881795"><ele>62.0</ele><time>2026-04-09T08:55:31.703Z</time></trkpt><trkpt lat="43.8161707" lon="12.8818377"><ele>62.0</ele><time>2026-04-09T08:55:32.702Z</time></trkpt><trkpt lat="43.8162916" lon="12.8818802"><ele>61.75</ele><time>2026-04-09T08:55:33.703Z</time></trkpt><trkpt lat="43.8164078" lon="12.8819265"><ele>61.5</ele><time>2026-04-09T08:55:34.702Z</time></trkpt><trkpt lat="43.8165248" lon="12.881987"><ele>61.25</ele><time>2026-04-09T08:55:35.703Z</time></trkpt><trkpt lat="43.8166453" lon="12.8820639"><ele>61.0</ele><time>2026-04-09T08:55:36.703Z</time></trkpt><trkpt lat="43.8167642" lon="12.8821475"><ele>60.75</ele><time>2026-04-09T08:55:37.702Z</time></trkpt><trkpt lat="43.8168926" lon="12.8822374"><ele>60.5</ele><time>2026-04-09T08:55:38.703Z</time></trkpt><trkpt lat="43.8170274" lon="12.8823275"><ele>60.25</ele><time>2026-04-09T08:55:39.702Z</time></trkpt><trkpt lat="43.817164" lon="12.8824265"><ele>60.0</ele><time>2026-04-09T08:55:40.703Z</time></trkpt><trkpt lat="43.8172902" lon="12.8825217"><ele>59.75</ele><time>2026-04-09T08:55:41.702Z</time></trkpt><trkpt lat="43.8174032" lon="12.8826009"><ele>59.5</ele><time>2026-04-09T08:55:42.702Z</time></trkpt><trkpt lat="43.8175195" lon="12.8826724"><ele>59.25</ele><time>2026-04-09T08:55:43.703Z</time></trkpt><trkpt lat="43.8176487" lon="12.8827559"><ele>59.0</ele><time>2026-04-09T08:55:44.702Z</time></trkpt><trkpt lat="43.8177906" lon="12.8828591"><ele>59.0</ele><time>2026-04-09T08:55:45.702Z</time></trkpt><trkpt lat="43.8179258" lon="12.8829674"><ele>59.0</ele><time>2026-04-09T08:55:46.703Z</time></trkpt><trkpt lat="43.8180353" lon="12.8830597"><ele>59.0</ele><time>2026-04-09T08:55:47.702Z</time></trkpt><trkpt lat="43.8181311" lon="12.8831466"><ele>59.0</ele><time>2026-04-09T08:55:48.703Z</time></trkpt><trkpt lat="43.8182237" lon="12.8832417"><ele>59.0</ele><time>2026-04-09T08:55:49.703Z</time></trkpt><trkpt lat="43.818324" lon="12.883362"><ele>59.0</ele><time>2026-04-09T08:55:50.702Z</time></trkpt><trkpt lat="43.818436" lon="12.883518"><ele>59.0</ele><time>2026-04-09T08:55:51.702Z</time></trkpt><trkpt lat="43.8185524" lon="12.8837031"><ele>58.66666666666667</ele><time>2026-04-09T08:55:52.703Z</time></trkpt><trkpt lat="43.8186766" lon="12.8839017"><ele>58.33333333333333</ele><time>2026-04-09T08:55:53.703Z</time></trkpt><trkpt lat="43.8187919" lon="12.8840865"><ele>58.0</ele><time>2026-04-09T08:55:54.702Z</time></trkpt><trkpt lat="43.8188851" lon="12.8842366"><ele>57.83333333333333</ele><time>2026-04-09T08:55:55.703Z</time></trkpt><trkpt lat="43.8189645" lon="12.8843596"><ele>57.666666666666664</ele><time>2026-04-09T08:55:56.702Z</time></trkpt><trkpt lat="43.8190299" lon="12.8844657"><ele>57.5</ele><time>2026-04-09T08:55:57.703Z</time></trkpt><trkpt lat="43.8190781" lon="12.8845427"><ele>57.33333333333333</ele><time>2026-04-09T08:55:58.702Z</time></trkpt><trkpt lat="43.8191286" lon="12.8846178"><ele>57.166666666666664</ele><time>2026-04-09T08:56:00.702Z</time></trkpt><trkpt lat="43.8191942" lon="12.8845858"><ele>57.0</ele><time>2026-04-09T08:56:03.703Z</time></trkpt><trkpt lat="43.8192115" lon="12.8844475"><ele>57.0</ele><time>2026-04-09T08:56:05.702Z</time></trkpt><trkpt lat="43.8192048" lon="12.8843189"><ele>57.0</ele><time>2026-04-09T08:56:06.702Z</time></trkpt><trkpt lat="43.8191954" lon="12.8841811"><ele>57.0</ele><time>2026-04-09T08:56:07.702Z</time></trkpt><trkpt lat="43.8191968" lon="12.8840635"><ele>57.0</ele><time>2026-04-09T08:56:08.702Z</time></trkpt><trkpt lat="43.819204" lon="12.8839654"><ele>57.0</ele><time>2026-04-09T08:56:09.702Z</time></trkpt><trkpt lat="43.8192522" lon="12.8838146"><ele>58.0</ele><time>2026-04-09T08:56:11.702Z</time></trkpt><trkpt lat="43.8193179" lon="12.8837194"><ele>59.0</ele><time>2026-04-09T08:56:13.702Z</time></trkpt><trkpt lat="43.8194234" lon="12.8835801"><ele>60.0</ele><time>2026-04-09T08:56:15.702Z</time></trkpt><trkpt lat="43.8195032" lon="12.8834861"><ele>61.0</ele><time>2026-04-09T08:56:16.702Z</time></trkpt><trkpt lat="43.8195902" lon="12.8833822"><ele>62.199999999999996</ele><time>2026-04-09T08:56:17.702Z</time></trkpt><trkpt lat="43.8196789" lon="12.8832732"><ele>63.39999999999999</ele><time>2026-04-09T08:56:18.702Z</time></trkpt><trkpt lat="43.8197615" lon="12.8831628"><ele>64.6</ele><time>2026-04-09T08:56:19.702Z</time></trkpt><trkpt lat="43.8198389" lon="12.8830594"><ele>65.8</ele><time>2026-04-09T08:56:20.702Z</time></trkpt><trkpt lat="43.8199182" lon="12.8829596"><ele>67.0</ele><time>2026-04-09T08:56:21.702Z</time></trkpt><trkpt lat="43.8199937" lon="12.882867"><ele>67.0</ele><time>2026-04-09T08:56:22.703Z</time></trkpt><trkpt lat="43.8200606" lon="12.8827826"><ele>67.0</ele><time>2026-04-09T08:56:23.702Z</time></trkpt><trkpt lat="43.8201148" lon="12.8826805"><ele>67.0</ele><time>2026-04-09T08:56:24.702Z</time></trkpt><trkpt lat="43.8201575" lon="12.8825639"><ele>67.0</ele><time>2026-04-09T08:56:25.703Z</time></trkpt><trkpt lat="43.8201968" lon="12.8824392"><ele>67.0</ele><time>2026-04-09T08:56:26.702Z</time></trkpt><trkpt lat="43.8202425" lon="12.8823125"><ele>68.4</ele><time>2026-04-09T08:56:27.703Z</time></trkpt><trkpt lat="43.8203001" lon="12.8822014"><ele>69.80000000000001</ele><time>2026-04-09T08:56:28.703Z</time></trkpt><trkpt lat="43.8203724" lon="12.8821061"><ele>71.2</ele><time>2026-04-09T08:56:29.703Z</time></trkpt><trkpt lat="43.8204601" lon="12.8820332"><ele>72.60000000000001</ele><time>2026-04-09T08:56:30.702Z</time></trkpt><trkpt lat="43.8205579" lon="12.8819848"><ele>74.0</ele><time>2026-04-09T08:56:31.703Z</time></trkpt><trkpt lat="43.820662" lon="12.8819504"><ele>74.0</ele><time>2026-04-09T08:56:32.702Z</time></trkpt><trkpt lat="43.8207644" lon="12.8819139"><ele>74.0</ele><time>2026-04-09T08:56:33.703Z</time></trkpt><trkpt lat="43.8208613" lon="12.8818705"><ele>74.0</ele><time>2026-04-09T08:56:34.703Z</time></trkpt><trkpt lat="43.820957" lon="12.8818205"><ele>74.0</ele><time>2026-04-09T08:56:35.703Z</time></trkpt><trkpt lat="43.8210544" lon="12.8817689"><ele>74.0</ele><time>2026-04-09T08:56:36.702Z</time></trkpt><trkpt lat="43.8211538" lon="12.881715"><ele>76.4</ele><time>2026-04-09T08:56:37.702Z</time></trkpt><trkpt lat="43.821251" lon="12.8816522"><ele>78.80000000000001</ele><time>2026-04-09T08:56:38.702Z</time></trkpt><trkpt lat="43.8213497" lon="12.8815889"><ele>81.19999999999999</ele><time>2026-04-09T08:56:39.703Z</time></trkpt><trkpt lat="43.8214456" lon="12.8815265"><ele>83.6</ele><time>2026-04-09T08:56:40.702Z</time></trkpt><trkpt lat="43.8215408" lon="12.8814622"><ele>86.0</ele><time>2026-04-09T08:56:41.702Z</time></trkpt><trkpt lat="43.8216342" lon="12.8813857"><ele>86.0</ele><time>2026-04-09T08:56:42.703Z</time></trkpt><trkpt lat="43.8217205" lon="12.8813161"><ele>86.0</ele><time>2026-04-09T08:56:43.702Z</time></trkpt><trkpt lat="43.821802" lon="12.8812579"><ele>86.0</ele><time>2026-04-09T08:56:44.703Z</time></trkpt><trkpt lat="43.8218936" lon="12.8812192"><ele>86.0</ele><time>2026-04-09T08:56:45.702Z</time></trkpt><trkpt lat="43.8219923" lon="12.8811945"><ele>86.0</ele><time>2026-04-09T08:56:46.702Z</time></trkpt><trkpt lat="43.8220827" lon="12.8811622"><ele>86.6</ele><time>2026-04-09T08:56:47.702Z</time></trkpt><trkpt lat="43.822162" lon="12.8811207"><ele>87.19999999999999</ele><time>2026-04-09T08:56:48.702Z</time></trkpt><trkpt lat="43.8222478" lon="12.8810666"><ele>87.80000000000001</ele><time>2026-04-09T08:56:49.702Z</time></trkpt><trkpt lat="43.8223402" lon="12.8809991"><ele>88.4</ele><time>2026-04-09T08:56:50.703Z</time></trkpt><trkpt lat="43.8224329" lon="12.8809086"><ele>89.0</ele><time>2026-04-09T08:56:51.702Z</time></trkpt><trkpt lat="43.8225237" lon="12.8808097"><ele>89.0</ele><time>2026-04-09T08:56:52.702Z</time></trkpt><trkpt lat="43.8226119" lon="12.8807191"><ele>89.0</ele><time>2026-04-09T08:56:53.702Z</time></trkpt><trkpt lat="43.8227031" lon="12.8806207"><ele>89.0</ele><time>2026-04-09T08:56:54.702Z</time></trkpt><trkpt lat="43.822796" lon="12.8805274"><ele>89.0</ele><time>2026-04-09T08:56:55.702Z</time></trkpt><trkpt lat="43.8228891" lon="12.8804456"><ele>90.0</ele><time>2026-04-09T08:56:56.702Z</time></trkpt><trkpt lat="43.822982" lon="12.880362"><ele>91.0</ele><time>2026-04-09T08:56:57.702Z</time></trkpt><trkpt lat="43.8230735" lon="12.880268"><ele>92.0</ele><time>2026-04-09T08:56:58.702Z</time></trkpt><trkpt lat="43.8231707" lon="12.8801734"><ele>93.0</ele><time>2026-04-09T08:56:59.703Z</time></trkpt><trkpt lat="43.8232725" lon="12.8800835"><ele>93.60000000000001</ele><time>2026-04-09T08:57:00.702Z</time></trkpt><trkpt lat="43.8233716" lon="12.8800002"><ele>94.2</ele><time>2026-04-09T08:57:01.702Z</time></trkpt><trkpt lat="43.8234654" lon="12.8799181"><ele>94.8</ele><time>2026-04-09T08:57:02.702Z</time></trkpt><trkpt lat="43.8235612" lon="12.8798609"><ele>95.4</ele><time>2026-04-09T08:57:03.702Z</time></trkpt><trkpt lat="43.82366" lon="12.8798158"><ele>96.0</ele><time>2026-04-09T08:57:04.703Z</time></trkpt><trkpt lat="43.8237529" lon="12.8797762"><ele>96.0</ele><time>2026-04-09T08:57:05.702Z</time></trkpt><trkpt lat="43.8238422" lon="12.8797393"><ele>96.0</ele><time>2026-04-09T08:57:06.702Z</time></trkpt><trkpt lat="43.8239331" lon="12.8797134"><ele>96.0</ele><time>2026-04-09T08:57:07.702Z</time></trkpt><trkpt lat="43.8240266" lon="12.8796788"><ele>96.0</ele><time>2026-04-09T08:57:08.703Z</time></trkpt><trkpt lat="43.8241231" lon="12.8796232"><ele>96.0</ele><time>2026-04-09T08:57:09.702Z</time></trkpt><trkpt lat="43.8242198" lon="12.8795452"><ele>97.0</ele><time>2026-04-09T08:57:10.703Z</time></trkpt><trkpt lat="43.8243181" lon="12.8794606"><ele>98.0</ele><time>2026-04-09T08:57:11.702Z</time></trkpt><trkpt lat="43.8244159" lon="12.879372"><ele>99.0</ele><time>2026-04-09T08:57:12.703Z</time></trkpt><trkpt lat="43.8245192" lon="12.8792788"><ele>100.0</ele><time>2026-04-09T08:57:13.702Z</time></trkpt><trkpt lat="43.8246289" lon="12.8791711"><ele>100.0</ele><time>2026-04-09T08:57:14.702Z</time></trkpt><trkpt lat="43.8247353" lon="12.879068"><ele>100.0</ele><time>2026-04-09T08:57:15.703Z</time></trkpt><trkpt lat="43.8248342" lon="12.8789702"><ele>100.0</ele><time>2026-04-09T08:57:16.702Z</time></trkpt><trkpt lat="43.8249348" lon="12.8788728"><ele>100.0</ele><time>2026-04-09T08:57:17.703Z</time></trkpt><trkpt lat="43.8250371" lon="12.8787787"><ele>100.0</ele><time>2026-04-09T08:57:18.703Z</time></trkpt><trkpt lat="43.8251411" lon="12.8786802"><ele>100.0</ele><time>2026-04-09T08:57:19.703Z</time></trkpt><trkpt lat="43.8252477" lon="12.8785812"><ele>100.0</ele><time>2026-04-09T08:57:20.703Z</time></trkpt><trkpt lat="43.8253589" lon="12.8784871"><ele>100.0</ele><time>2026-04-09T08:57:21.703Z</time></trkpt><trkpt lat="43.825478" lon="12.8783885"><ele>101.0</ele><time>2026-04-09T08:57:22.703Z</time></trkpt><trkpt lat="43.8255973" lon="12.8782855"><ele>102.0</ele><time>2026-04-09T08:57:23.703Z</time></trkpt><trkpt lat="43.8257155" lon="12.8781873"><ele>103.0</ele><time>2026-04-09T08:57:24.702Z</time></trkpt><trkpt lat="43.8258381" lon="12.8780846"><ele>104.0</ele><time>2026-04-09T08:57:25.703Z</time></trkpt><trkpt lat="43.8259876" lon="12.8779586"><ele>104.0</ele><time>2026-04-09T08:57:26.702Z</time></trkpt><trkpt lat="43.8261477" lon="12.8778172"><ele>104.0</ele><time>2026-04-09T08:57:27.702Z</time></trkpt><trkpt lat="43.8262897" lon="12.8776937"><ele>104.0</ele><time>2026-04-09T08:57:28.703Z</time></trkpt><trkpt lat="43.8264097" lon="12.8775933"><ele>105.80000000000001</ele><time>2026-04-09T08:57:29.703Z</time></trkpt><trkpt lat="43.826512" lon="12.877503"><ele>107.60000000000001</ele><time>2026-04-09T08:57:30.703Z</time></trkpt><trkpt lat="43.8266053" lon="12.8774189"><ele>109.4</ele><time>2026-04-09T08:57:31.702Z</time></trkpt><trkpt lat="43.826694" lon="12.8773377"><ele>111.2</ele><time>2026-04-09T08:57:32.702Z</time></trkpt><trkpt lat="43.8267707" lon="12.8772689"><ele>113.0</ele><time>2026-04-09T08:57:33.702Z</time></trkpt><trkpt lat="43.8268388" lon="12.877205"><ele>113.16666666666666</ele><time>2026-04-09T08:57:34.703Z</time></trkpt><trkpt lat="43.826905" lon="12.8771421"><ele>113.33333333333333</ele><time>2026-04-09T08:57:35.702Z</time></trkpt><trkpt lat="43.8269766" lon="12.8770706"><ele>113.5</ele><time>2026-04-09T08:57:36.702Z</time></trkpt><trkpt lat="43.8270509" lon="12.877"><ele>113.66666666666666</ele><time>2026-04-09T08:57:37.702Z</time></trkpt><trkpt lat="43.8271238" lon="12.8769324"><ele>113.83333333333333</ele><time>2026-04-09T08:57:38.703Z</time></trkpt><trkpt lat="43.8272065" lon="12.8768642"><ele>114.0</ele><time>2026-04-09T08:57:39.703Z</time></trkpt><trkpt lat="43.8272882" lon="12.8767947"><ele>115.5</ele><time>2026-04-09T08:57:40.702Z</time></trkpt><trkpt lat="43.8273602" lon="12.8767341"><ele>117.0</ele><time>2026-04-09T08:57:41.703Z</time></trkpt><trkpt lat="43.8274163" lon="12.876687"><ele>118.5</ele><time>2026-04-09T08:57:42.702Z</time></trkpt><trkpt lat="43.8274738" lon="12.8766268"><ele>120.0</ele><time>2026-04-09T08:57:44.702Z</time></trkpt><trkpt lat="43.8274663" lon="12.8765027"><ele>121.5</ele><time>2026-04-09T08:57:47.703Z</time></trkpt><trkpt lat="43.827448" lon="12.8763507"><ele>123.0</ele><time>2026-04-09T08:57:49.703Z</time></trkpt><trkpt lat="43.8274302" lon="12.8762641"><ele>123.0</ele><time>2026-04-09T08:57:50.703Z</time></trkpt><trkpt lat="43.8274087" lon="12.8761735"><ele>123.0</ele><time>2026-04-09T08:57:51.702Z</time></trkpt><trkpt lat="43.8273939" lon="12.8760726"><ele>123.0</ele><time>2026-04-09T08:57:52.702Z</time></trkpt><trkpt lat="43.8273882" lon="12.8759618"><ele>123.0</ele><time>2026-04-09T08:57:53.702Z</time></trkpt><trkpt lat="43.8273911" lon="12.8758447"><ele>123.0</ele><time>2026-04-09T08:57:54.702Z</time></trkpt><trkpt lat="43.8274002" lon="12.8757359"><ele>123.0</ele><time>2026-04-09T08:57:55.702Z</time></trkpt><trkpt lat="43.8274137" lon="12.8756332"><ele>123.0</ele><time>2026-04-09T08:57:56.703Z</time></trkpt><trkpt lat="43.827429" lon="12.875521"><ele>123.0</ele><time>2026-04-09T08:57:57.702Z</time></trkpt><trkpt lat="43.8274466" lon="12.8754032"><ele>123.0</ele><time>2026-04-09T08:57:58.703Z</time></trkpt><trkpt lat="43.8274605" lon="12.8752875"><ele>123.0</ele><time>2026-04-09T08:57:59.703Z</time></trkpt><trkpt lat="43.8274682" lon="12.8751698"><ele>123.0</ele><time>2026-04-09T08:58:00.703Z</time></trkpt><trkpt lat="43.8274762" lon="12.875044"><ele>123.0</ele><time>2026-04-09T08:58:01.703Z</time></trkpt><trkpt lat="43.8274822" lon="12.8749094"><ele>122.4</ele><time>2026-04-09T08:58:02.703Z</time></trkpt><trkpt lat="43.8274888" lon="12.8747818"><ele>121.80000000000001</ele><time>2026-04-09T08:58:03.703Z</time></trkpt><trkpt lat="43.8274899" lon="12.8746528"><ele>121.2</ele><time>2026-04-09T08:58:04.703Z</time></trkpt><trkpt lat="43.8274915" lon="12.8745225"><ele>120.6</ele><time>2026-04-09T08:58:05.702Z</time></trkpt><trkpt lat="43.8274913" lon="12.8743954"><ele>120.0</ele><time>2026-04-09T08:58:06.703Z</time></trkpt><trkpt lat="43.8274922" lon="12.8742715"><ele>120.0</ele><time>2026-04-09T08:58:07.702Z</time></trkpt><trkpt lat="43.8274943" lon="12.8741504"><ele>120.0</ele><time>2026-04-09T08:58:08.702Z</time></trkpt><trkpt lat="43.8274962" lon="12.8740349"><ele>120.0</ele><time>2026-04-09T08:58:09.703Z</time></trkpt><trkpt lat="43.8274959" lon="12.8739236"><ele>120.0</ele><time>2026-04-09T08:58:10.702Z</time></trkpt><trkpt lat="43.8274898" lon="12.8738144"><ele>120.0</ele><time>2026-04-09T08:58:11.702Z</time></trkpt><trkpt lat="43.8274835" lon="12.8737059"><ele>120.0</ele><time>2026-04-09T08:58:12.702Z</time></trkpt><trkpt lat="43.8274666" lon="12.8735919"><ele>120.0</ele><time>2026-04-09T08:58:13.703Z</time></trkpt><trkpt lat="43.8274457" lon="12.8734762"><ele>120.0</ele><time>2026-04-09T08:58:14.703Z</time></trkpt><trkpt lat="43.8274268" lon="12.873366"><ele>120.0</ele><time>2026-04-09T08:58:15.702Z</time></trkpt><trkpt lat="43.8274075" lon="12.873262"><ele>120.0</ele><time>2026-04-09T08:58:16.702Z</time></trkpt><trkpt lat="43.8273861" lon="12.8731601"><ele>120.0</ele><time>2026-04-09T08:58:17.702Z</time></trkpt><trkpt lat="43.8273603" lon="12.8730573"><ele>120.0</ele><time>2026-04-09T08:58:18.702Z</time></trkpt><trkpt lat="43.8273379" lon="12.8729544"><ele>121.0</ele><time>2026-04-09T08:58:19.702Z</time></trkpt><trkpt lat="43.827318" lon="12.8728424"><ele>122.0</ele><time>2026-04-09T08:58:20.703Z</time></trkpt><trkpt lat="43.8272935" lon="12.8727201"><ele>123.0</ele><time>2026-04-09T08:58:21.703Z</time></trkpt><trkpt lat="43.8272665" lon="12.8725929"><ele>124.0</ele><time>2026-04-09T08:58:22.703Z</time></trkpt><trkpt lat="43.827234" lon="12.8724657"><ele>125.0</ele><time>2026-04-09T08:58:23.702Z</time></trkpt><trkpt lat="43.8271886" lon="12.8723342"><ele>125.0</ele><time>2026-04-09T08:58:24.702Z</time></trkpt><trkpt lat="43.827139" lon="12.8722043"><ele>125.0</ele><time>2026-04-09T08:58:25.702Z</time></trkpt><trkpt lat="43.8270868" lon="12.8720794"><ele>125.0</ele><time>2026-04-09T08:58:26.703Z</time></trkpt><trkpt lat="43.8270358" lon="12.8719664"><ele>125.0</ele><time>2026-04-09T08:58:27.702Z</time></trkpt><trkpt lat="43.8269844" lon="12.8718669"><ele>125.0</ele><time>2026-04-09T08:58:28.702Z</time></trkpt><trkpt lat="43.8269343" lon="12.8717789"><ele>124.33333333333333</ele><time>2026-04-09T08:58:29.702Z</time></trkpt><trkpt lat="43.8268885" lon="12.8717028"><ele>123.66666666666666</ele><time>2026-04-09T08:58:30.702Z</time></trkpt><trkpt lat="43.8268445" lon="12.8716388"><ele>123.0</ele><time>2026-04-09T08:58:31.703Z</time></trkpt><trkpt lat="43.8267931" lon="12.8715745"><ele>122.33333333333334</ele><time>2026-04-09T08:58:32.703Z</time></trkpt><trkpt lat="43.8267301" lon="12.8715107"><ele>121.66666666666667</ele><time>2026-04-09T08:58:33.703Z</time></trkpt><trkpt lat="43.8266604" lon="12.8714448"><ele>121.0</ele><time>2026-04-09T08:58:34.702Z</time></trkpt><trkpt lat="43.8265835" lon="12.8713811"><ele>120.8</ele><time>2026-04-09T08:58:35.703Z</time></trkpt><trkpt lat="43.8265025" lon="12.8713146"><ele>120.6</ele><time>2026-04-09T08:58:36.703Z</time></trkpt><trkpt lat="43.8264204" lon="12.8712469"><ele>120.4</ele><time>2026-04-09T08:58:37.702Z</time></trkpt><trkpt lat="43.8263321" lon="12.8711788"><ele>120.2</ele><time>2026-04-09T08:58:38.703Z</time></trkpt><trkpt lat="43.8262426" lon="12.8711077"><ele>120.0</ele><time>2026-04-09T08:58:39.703Z</time></trkpt><trkpt lat="43.8261585" lon="12.8710341"><ele>120.0</ele><time>2026-04-09T08:58:40.702Z</time></trkpt><trkpt lat="43.826086" lon="12.8709673"><ele>120.0</ele><time>2026-04-09T08:58:41.702Z</time></trkpt><trkpt lat="43.8260218" lon="12.8709026"><ele>120.0</ele><time>2026-04-09T08:58:42.703Z</time></trkpt><trkpt lat="43.8259619" lon="12.8708485"><ele>120.0</ele><time>2026-04-09T08:58:43.703Z</time></trkpt><trkpt lat="43.8259071" lon="12.8708023"><ele>120.0</ele><time>2026-04-09T08:58:44.703Z</time></trkpt><trkpt lat="43.8258014" lon="12.8707134"><ele>120.0</ele><time>2026-04-09T08:58:46.703Z</time></trkpt><trkpt lat="43.8257393" lon="12.8706571"><ele>120.33333333333333</ele><time>2026-04-09T08:58:47.703Z</time></trkpt><trkpt lat="43.8256772" lon="12.8705864"><ele>120.66666666666666</ele><time>2026-04-09T08:58:48.703Z</time></trkpt><trkpt lat="43.8256079" lon="12.870515"><ele>121.0</ele><time>2026-04-09T08:58:49.702Z</time></trkpt><trkpt lat="43.8255379" lon="12.8704411"><ele>121.33333333333333</ele><time>2026-04-09T08:58:50.702Z</time></trkpt><trkpt lat="43.8254671" lon="12.87036"><ele>121.66666666666666</ele><time>2026-04-09T08:58:51.702Z</time></trkpt><trkpt lat="43.8253922" lon="12.8702727"><ele>122.0</ele><time>2026-04-09T08:58:52.702Z</time></trkpt><trkpt lat="43.8253211" lon="12.8701888"><ele>121.6</ele><time>2026-04-09T08:58:53.703Z</time></trkpt><trkpt lat="43.8252488" lon="12.8701072"><ele>121.19999999999999</ele><time>2026-04-09T08:58:54.702Z</time></trkpt><trkpt lat="43.8251682" lon="12.870028"><ele>120.8</ele><time>2026-04-09T08:58:55.703Z</time></trkpt><trkpt lat="43.825084" lon="12.8699516"><ele>120.4</ele><time>2026-04-09T08:58:56.703Z</time></trkpt><trkpt lat="43.8249939" lon="12.8698806"><ele>120.0</ele><time>2026-04-09T08:58:57.702Z</time></trkpt><trkpt lat="43.8249029" lon="12.8698147"><ele>120.0</ele><time>2026-04-09T08:58:58.702Z</time></trkpt><trkpt lat="43.8248097" lon="12.869753"><ele>120.0</ele><time>2026-04-09T08:58:59.703Z</time></trkpt><trkpt lat="43.8247161" lon="12.8696942"><ele>120.0</ele><time>2026-04-09T08:59:00.703Z</time></trkpt><trkpt lat="43.824613" lon="12.8696395"><ele>120.0</ele><time>2026-04-09T08:59:01.702Z</time></trkpt><trkpt lat="43.8244917" lon="12.8695806"><ele>120.0</ele><time>2026-04-09T08:59:02.702Z</time></trkpt><trkpt lat="43.8243695" lon="12.8695161"><ele>119.8</ele><time>2026-04-09T08:59:03.702Z</time></trkpt><trkpt lat="43.8242627" lon="12.8694632"><ele>119.6</ele><time>2026-04-09T08:59:04.702Z</time></trkpt><trkpt lat="43.8241671" lon="12.8694191"><ele>119.4</ele><time>2026-04-09T08:59:05.702Z</time></trkpt><trkpt lat="43.8240755" lon="12.8693721"><ele>119.2</ele><time>2026-04-09T08:59:06.702Z</time></trkpt><trkpt lat="43.8239876" lon="12.8693247"><ele>119.0</ele><time>2026-04-09T08:59:07.702Z</time></trkpt><trkpt lat="43.8238998" lon="12.8692794"><ele>119.99999999999999</ele><time>2026-04-09T08:59:08.702Z</time></trkpt><trkpt lat="43.8238236" lon="12.8692353"><ele>121.0</ele><time>2026-04-09T08:59:09.702Z</time></trkpt><trkpt lat="43.8237501" lon="12.86919"><ele>122.0</ele><time>2026-04-09T08:59:10.702Z</time></trkpt><trkpt lat="43.8236763" lon="12.8691477"><ele>123.0</ele><time>2026-04-09T08:59:11.703Z</time></trkpt><trkpt lat="43.823601" lon="12.8691045"><ele>123.99999999999999</ele><time>2026-04-09T08:59:12.702Z</time></trkpt><trkpt lat="43.8235314" lon="12.8690676"><ele>125.0</ele><time>2026-04-09T08:59:13.703Z</time></trkpt><trkpt lat="43.8234692" lon="12.8690374"><ele>125.0</ele><time>2026-04-09T08:59:14.703Z</time></trkpt><trkpt lat="43.8233671" lon="12.8689919"><ele>125.0</ele><time>2026-04-09T08:59:16.702Z</time></trkpt><trkpt lat="43.82327" lon="12.8689314"><ele>125.0</ele><time>2026-04-09T08:59:18.702Z</time></trkpt><trkpt lat="43.8231729" lon="12.868877"><ele>125.0</ele><time>2026-04-09T08:59:20.703Z</time></trkpt><trkpt lat="43.8230915" lon="12.868839"><ele>125.0</ele><time>2026-04-09T08:59:22.703Z</time></trkpt><trkpt lat="43.823031" lon="12.8688055"><ele>125.0</ele><time>2026-04-09T08:59:24.702Z</time></trkpt><trkpt lat="43.8230011" lon="12.8687262"><ele>125.0</ele><time>2026-04-09T09:00:01.703Z</time></trkpt><trkpt lat="43.8230882" lon="12.8687274"><ele>125.0</ele><time>2026-04-09T09:00:03.703Z</time></trkpt><trkpt lat="43.8232262" lon="12.8687931"><ele>125.0</ele><time>2026-04-09T09:00:05.703Z</time></trkpt><trkpt lat="43.8233134" lon="12.8688206"><ele>125.0</ele><time>2026-04-09T09:00:06.702Z</time></trkpt><trkpt lat="43.8234027" lon="12.8688433"><ele>125.25</ele><time>2026-04-09T09:00:07.702Z</time></trkpt><trkpt lat="43.8235295" lon="12.8688562"><ele>125.5</ele><time>2026-04-09T09:00:08.702Z</time></trkpt><trkpt lat="43.8236836" lon="12.8688713"><ele>125.75</ele><time>2026-04-09T09:00:09.703Z</time></trkpt><trkpt lat="43.8238189" lon="12.8688786"><ele>126.0</ele><time>2026-04-09T09:00:10.703Z</time></trkpt><trkpt lat="43.8239671" lon="12.8688917"><ele>126.0</ele><time>2026-04-09T09:00:11.702Z</time></trkpt><trkpt lat="43.824115" lon="12.8688972"><ele>126.0</ele><time>2026-04-09T09:00:12.703Z</time></trkpt><trkpt lat="43.8242694" lon="12.8689035"><ele>126.0</ele><time>2026-04-09T09:00:13.703Z</time></trkpt><trkpt lat="43.8244253" lon="12.8689028"><ele>125.66666666666666</ele><time>2026-04-09T09:00:14.702Z</time></trkpt><trkpt lat="43.8245814" lon="12.8689173"><ele>125.33333333333333</ele><time>2026-04-09T09:00:15.703Z</time></trkpt><trkpt lat="43.8247338" lon="12.8689326"><ele>125.0</ele><time>2026-04-09T09:00:16.702Z</time></trkpt><trkpt lat="43.8248831" lon="12.8689387"><ele>125.0</ele><time>2026-04-09T09:00:17.703Z</time></trkpt><trkpt lat="43.8250315" lon="12.8689448"><ele>125.0</ele><time>2026-04-09T09:00:18.702Z</time></trkpt><trkpt lat="43.825182" lon="12.8689506"><ele>125.0</ele><time>2026-04-09T09:00:19.703Z</time></trkpt><trkpt lat="43.8253291" lon="12.8689549"><ele>125.0</ele><time>2026-04-09T09:00:20.702Z</time></trkpt><trkpt lat="43.8254698" lon="12.8689645"><ele>124.5</ele><time>2026-04-09T09:00:21.702Z</time></trkpt><trkpt lat="43.8256061" lon="12.8689658"><ele>124.0</ele><time>2026-04-09T09:00:22.702Z</time></trkpt><trkpt lat="43.825738" lon="12.8689749"><ele>123.5</ele><time>2026-04-09T09:00:23.703Z</time></trkpt><trkpt lat="43.8258588" lon="12.8689797"><ele>123.0</ele><time>2026-04-09T09:00:24.703Z</time></trkpt><trkpt lat="43.8259834" lon="12.8689831"><ele>120.75</ele><time>2026-04-09T09:00:25.702Z</time></trkpt><trkpt lat="43.8261054" lon="12.8689844"><ele>118.5</ele><time>2026-04-09T09:00:26.702Z</time></trkpt><trkpt lat="43.8262285" lon="12.8689884"><ele>116.25</ele><time>2026-04-09T09:00:27.702Z</time></trkpt><trkpt lat="43.826355" lon="12.8689922"><ele>114.0</ele><time>2026-04-09T09:00:28.702Z</time></trkpt><trkpt lat="43.8264852" lon="12.8689942"><ele>114.0</ele><time>2026-04-09T09:00:29.703Z</time></trkpt><trkpt lat="43.8266158" lon="12.868997"><ele>114.0</ele><time>2026-04-09T09:00:30.703Z</time></trkpt><trkpt lat="43.8267507" lon="12.8689985"><ele>114.0</ele><time>2026-04-09T09:00:31.702Z</time></trkpt><trkpt lat="43.8268919" lon="12.8690064"><ele>114.0</ele><time>2026-04-09T09:00:32.703Z</time></trkpt><trkpt lat="43.8270373" lon="12.8690058"><ele>112.25</ele><time>2026-04-09T09:00:33.703Z</time></trkpt><trkpt lat="43.8271847" lon="12.8690069"><ele>110.5</ele><time>2026-04-09T09:00:34.702Z</time></trkpt><trkpt lat="43.8273332" lon="12.8690131"><ele>108.75</ele><time>2026-04-09T09:00:35.702Z</time></trkpt><trkpt lat="43.827484" lon="12.8690228"><ele>107.0</ele><time>2026-04-09T09:00:36.702Z</time></trkpt><trkpt lat="43.8276315" lon="12.8690331"><ele>105.0</ele><time>2026-04-09T09:00:37.702Z</time></trkpt><trkpt lat="43.8277749" lon="12.8690423"><ele>103.0</ele><time>2026-04-09T09:00:38.703Z</time></trkpt><trkpt lat="43.8279115" lon="12.8690432"><ele>101.0</ele><time>2026-04-09T09:00:39.702Z</time></trkpt><trkpt lat="43.8280491" lon="12.8690506"><ele>99.0</ele><time>2026-04-09T09:00:40.703Z</time></trkpt><trkpt lat="43.8281803" lon="12.8690553"><ele>99.0</ele><time>2026-04-09T09:00:41.703Z</time></trkpt><trkpt lat="43.8283228" lon="12.8690659"><ele>99.0</ele><time>2026-04-09T09:00:42.702Z</time></trkpt><trkpt lat="43.8284666" lon="12.8690725"><ele>99.0</ele><time>2026-04-09T09:00:43.702Z</time></trkpt><trkpt lat="43.8286157" lon="12.8690789"><ele>99.0</ele><time>2026-04-09T09:00:44.703Z</time></trkpt><trkpt lat="43.8287745" lon="12.8690829"><ele>96.33333333333333</ele><time>2026-04-09T09:00:45.703Z</time></trkpt><trkpt lat="43.8289303" lon="12.8690864"><ele>93.66666666666666</ele><time>2026-04-09T09:00:46.702Z</time></trkpt><trkpt lat="43.8290942" lon="12.8690916"><ele>91.0</ele><time>2026-04-09T09:00:47.703Z</time></trkpt><trkpt lat="43.8292595" lon="12.8690958"><ele>89.66666666666666</ele><time>2026-04-09T09:00:48.703Z</time></trkpt><trkpt lat="43.8294227" lon="12.8691022"><ele>88.33333333333333</ele><time>2026-04-09T09:00:49.702Z</time></trkpt><trkpt lat="43.8295874" lon="12.8691138"><ele>87.0</ele><time>2026-04-09T09:00:50.702Z</time></trkpt><trkpt lat="43.8297475" lon="12.8691113"><ele>87.0</ele><time>2026-04-09T09:00:51.703Z</time></trkpt><trkpt lat="43.8299018" lon="12.8691209"><ele>87.0</ele><time>2026-04-09T09:00:52.702Z</time></trkpt><trkpt lat="43.8300532" lon="12.8691291"><ele>87.0</ele><time>2026-04-09T09:00:53.703Z</time></trkpt><trkpt lat="43.8301975" lon="12.8691342"><ele>85.0</ele><time>2026-04-09T09:00:54.702Z</time></trkpt><trkpt lat="43.8303387" lon="12.8691355"><ele>83.0</ele><time>2026-04-09T09:00:55.703Z</time></trkpt><trkpt lat="43.8304788" lon="12.8691438"><ele>81.0</ele><time>2026-04-09T09:00:56.702Z</time></trkpt><trkpt lat="43.8306148" lon="12.86915"><ele>79.0</ele><time>2026-04-09T09:00:57.703Z</time></trkpt><trkpt lat="43.8307465" lon="12.8691628"><ele>79.0</ele><time>2026-04-09T09:00:58.703Z</time></trkpt><trkpt lat="43.830871" lon="12.8691639"><ele>79.0</ele><time>2026-04-09T09:00:59.702Z</time></trkpt><trkpt lat="43.8309939" lon="12.8691648"><ele>79.0</ele><time>2026-04-09T09:01:00.703Z</time></trkpt><trkpt lat="43.8311177" lon="12.8691766"><ele>79.0</ele><time>2026-04-09T09:01:01.702Z</time></trkpt><trkpt lat="43.8312552" lon="12.8692168"><ele>78.0</ele><time>2026-04-09T09:01:02.703Z</time></trkpt><trkpt lat="43.8313799" lon="12.869264"><ele>77.0</ele><time>2026-04-09T09:01:03.702Z</time></trkpt><trkpt lat="43.8314992" lon="12.8693241"><ele>76.0</ele><time>2026-04-09T09:01:04.702Z</time></trkpt><trkpt lat="43.8316155" lon="12.8694099"><ele>75.0</ele><time>2026-04-09T09:01:05.703Z</time></trkpt><trkpt lat="43.8317148" lon="12.8695071"><ele>75.0</ele><time>2026-04-09T09:01:06.702Z</time></trkpt><trkpt lat="43.8318029" lon="12.869614"><ele>75.0</ele><time>2026-04-09T09:01:07.702Z</time></trkpt><trkpt lat="43.8318818" lon="12.8697215"><ele>75.0</ele><time>2026-04-09T09:01:08.703Z</time></trkpt><trkpt lat="43.8319338" lon="12.8698191"><ele>75.0</ele><time>2026-04-09T09:01:09.703Z</time></trkpt><trkpt lat="43.8319734" lon="12.8699026"><ele>75.0</ele><time>2026-04-09T09:01:10.702Z</time></trkpt><trkpt lat="43.8320716" lon="12.8699579"><ele>74.2</ele><time>2026-04-09T09:01:12.702Z</time></trkpt><trkpt lat="43.8322105" lon="12.8699231"><ele>73.4</ele><time>2026-04-09T09:01:14.703Z</time></trkpt><trkpt lat="43.8322997" lon="12.8698933"><ele>72.6</ele><time>2026-04-09T09:01:15.702Z</time></trkpt><trkpt lat="43.832396" lon="12.8698603"><ele>71.8</ele><time>2026-04-09T09:01:16.703Z</time></trkpt><trkpt lat="43.8325052" lon="12.8698233"><ele>71.0</ele><time>2026-04-09T09:01:17.703Z</time></trkpt><trkpt lat="43.8326132" lon="12.8697909"><ele>70.6</ele><time>2026-04-09T09:01:18.702Z</time></trkpt><trkpt lat="43.832723" lon="12.8697541"><ele>70.19999999999999</ele><time>2026-04-09T09:01:19.702Z</time></trkpt><trkpt lat="43.8328307" lon="12.8697263"><ele>69.80000000000001</ele><time>2026-04-09T09:01:20.703Z</time></trkpt><trkpt lat="43.8329303" lon="12.8696951"><ele>69.4</ele><time>2026-04-09T09:01:21.702Z</time></trkpt><trkpt lat="43.8330262" lon="12.8696652"><ele>69.0</ele><time>2026-04-09T09:01:22.702Z</time></trkpt><trkpt lat="43.8331224" lon="12.8696279"><ele>69.0</ele><time>2026-04-09T09:01:23.703Z</time></trkpt><trkpt lat="43.833212" lon="12.8695709"><ele>69.0</ele><time>2026-04-09T09:01:24.702Z</time></trkpt><trkpt lat="43.8332982" lon="12.8694931"><ele>69.0</ele><time>2026-04-09T09:01:25.702Z</time></trkpt><trkpt lat="43.8333751" lon="12.869385"><ele>69.0</ele><time>2026-04-09T09:01:26.702Z</time></trkpt><trkpt lat="43.8334224" lon="12.8692439"><ele>69.0</ele><time>2026-04-09T09:01:27.702Z</time></trkpt><trkpt lat="43.8334556" lon="12.8690808"><ele>68.0</ele><time>2026-04-09T09:01:28.702Z</time></trkpt><trkpt lat="43.8334744" lon="12.8689092"><ele>67.0</ele><time>2026-04-09T09:01:29.702Z</time></trkpt><trkpt lat="43.8334948" lon="12.8687299"><ele>66.0</ele><time>2026-04-09T09:01:30.702Z</time></trkpt><trkpt lat="43.8335194" lon="12.8685411"><ele>65.0</ele><time>2026-04-09T09:01:31.702Z</time></trkpt><trkpt lat="43.8335404" lon="12.868342"><ele>64.0</ele><time>2026-04-09T09:01:32.702Z</time></trkpt><trkpt lat="43.8335667" lon="12.8681359"><ele>63.0</ele><time>2026-04-09T09:01:33.703Z</time></trkpt><trkpt lat="43.8335823" lon="12.8679323"><ele>62.0</ele><time>2026-04-09T09:01:34.703Z</time></trkpt><trkpt lat="43.8336017" lon="12.8677364"><ele>61.0</ele><time>2026-04-09T09:01:35.703Z</time></trkpt><trkpt lat="43.8336205" lon="12.8675461"><ele>60.75</ele><time>2026-04-09T09:01:36.703Z</time></trkpt><trkpt lat="43.8336421" lon="12.8673455"><ele>60.5</ele><time>2026-04-09T09:01:37.702Z</time></trkpt><trkpt lat="43.8336698" lon="12.8671488"><ele>60.25</ele><time>2026-04-09T09:01:38.703Z</time></trkpt><trkpt lat="43.8336963" lon="12.8669451"><ele>60.0</ele><time>2026-04-09T09:01:39.702Z</time></trkpt><trkpt lat="43.8337249" lon="12.8667433"><ele>60.0</ele><time>2026-04-09T09:01:40.702Z</time></trkpt><trkpt lat="43.8337533" lon="12.8665413"><ele>60.0</ele><time>2026-04-09T09:01:41.703Z</time></trkpt><trkpt lat="43.8337698" lon="12.8663355"><ele>60.0</ele><time>2026-04-09T09:01:42.702Z</time></trkpt><trkpt lat="43.8337995" lon="12.866138"><ele>60.0</ele><time>2026-04-09T09:01:43.702Z</time></trkpt><trkpt lat="43.8338181" lon="12.8659336"><ele>60.25</ele><time>2026-04-09T09:01:44.702Z</time></trkpt><trkpt lat="43.8338337" lon="12.8657358"><ele>60.5</ele><time>2026-04-09T09:01:45.703Z</time></trkpt><trkpt lat="43.8338453" lon="12.8655384"><ele>60.75</ele><time>2026-04-09T09:01:46.703Z</time></trkpt><trkpt lat="43.8338591" lon="12.8653457"><ele>61.0</ele><time>2026-04-09T09:01:47.703Z</time></trkpt><trkpt lat="43.8338744" lon="12.8651561"><ele>61.25</ele><time>2026-04-09T09:01:48.703Z</time></trkpt><trkpt lat="43.8338835" lon="12.864987"><ele>61.5</ele><time>2026-04-09T09:01:49.703Z</time></trkpt><trkpt lat="43.8338951" lon="12.8648337"><ele>61.75</ele><time>2026-04-09T09:01:50.702Z</time></trkpt><trkpt lat="43.8339125" lon="12.864674"><ele>62.0</ele><time>2026-04-09T09:01:51.702Z</time></trkpt><trkpt lat="43.8339259" lon="12.8645203"><ele>62.00000000000001</ele><time>2026-04-09T09:01:52.702Z</time></trkpt><trkpt lat="43.8339342" lon="12.8643846"><ele>62.0</ele><time>2026-04-09T09:01:53.702Z</time></trkpt><trkpt lat="43.8339503" lon="12.8642702"><ele>62.0</ele><time>2026-04-09T09:01:54.702Z</time></trkpt><trkpt lat="43.8339877" lon="12.8641947"><ele>62.0</ele><time>2026-04-09T09:01:55.703Z</time></trkpt><trkpt lat="43.8340481" lon="12.8641387"><ele>62.00000000000001</ele><time>2026-04-09T09:01:56.702Z</time></trkpt><trkpt lat="43.8341222" lon="12.8640895"><ele>62.0</ele><time>2026-04-09T09:01:57.702Z</time></trkpt><trkpt lat="43.8342135" lon="12.864052"><ele>63.25</ele><time>2026-04-09T09:01:58.702Z</time></trkpt><trkpt lat="43.8343145" lon="12.8640234"><ele>64.5</ele><time>2026-04-09T09:01:59.703Z</time></trkpt><trkpt lat="43.8344202" lon="12.8639855"><ele>65.75</ele><time>2026-04-09T09:02:00.702Z</time></trkpt><trkpt lat="43.8345324" lon="12.8639487"><ele>67.0</ele><time>2026-04-09T09:02:01.703Z</time></trkpt><trkpt lat="43.8346557" lon="12.8639065"><ele>67.0</ele><time>2026-04-09T09:02:02.702Z</time></trkpt><trkpt lat="43.8347849" lon="12.8638681"><ele>67.0</ele><time>2026-04-09T09:02:03.703Z</time></trkpt><trkpt lat="43.8349124" lon="12.86383"><ele>67.0</ele><time>2026-04-09T09:02:04.703Z</time></trkpt><trkpt lat="43.8350384" lon="12.8637871"><ele>67.0</ele><time>2026-04-09T09:02:05.702Z</time></trkpt><trkpt lat="43.8351661" lon="12.8637497"><ele>69.0</ele><time>2026-04-09T09:02:06.702Z</time></trkpt><trkpt lat="43.8352982" lon="12.8637189"><ele>71.0</ele><time>2026-04-09T09:02:07.702Z</time></trkpt><trkpt lat="43.8354276" lon="12.8636852"><ele>73.0</ele><time>2026-04-09T09:02:08.702Z</time></trkpt><trkpt lat="43.8355525" lon="12.8636623"><ele>75.0</ele><time>2026-04-09T09:02:09.702Z</time></trkpt><trkpt lat="43.8356803" lon="12.863636"><ele>75.0</ele><time>2026-04-09T09:02:10.702Z</time></trkpt><trkpt lat="43.8358071" lon="12.8636121"><ele>75.0</ele><time>2026-04-09T09:02:11.702Z</time></trkpt><trkpt lat="43.8359335" lon="12.8635881"><ele>75.0</ele><time>2026-04-09T09:02:12.702Z</time></trkpt><trkpt lat="43.8360607" lon="12.8635619"><ele>75.0</ele><time>2026-04-09T09:02:13.703Z</time></trkpt><trkpt lat="43.8361829" lon="12.8635384"><ele>76.5</ele><time>2026-04-09T09:02:14.702Z</time></trkpt><trkpt lat="43.8362872" lon="12.8635312"><ele>78.0</ele><time>2026-04-09T09:02:15.703Z</time></trkpt><trkpt lat="43.8363876" lon="12.8635323"><ele>79.5</ele><time>2026-04-09T09:02:16.702Z</time></trkpt><trkpt lat="43.8364516" lon="12.8635854"><ele>81.0</ele><time>2026-04-09T09:02:17.703Z</time></trkpt><trkpt lat="43.8364865" lon="12.8636779"><ele>82.5</ele><time>2026-04-09T09:02:18.702Z</time></trkpt><trkpt lat="43.8365088" lon="12.8637692"><ele>84.0</ele><time>2026-04-09T09:02:19.703Z</time></trkpt><trkpt lat="43.8365027" lon="12.8638706"><ele>84.0</ele><time>2026-04-09T09:02:20.703Z</time></trkpt><trkpt lat="43.83648" lon="12.8640009"><ele>84.0</ele><time>2026-04-09T09:02:21.702Z</time></trkpt><trkpt lat="43.8364627" lon="12.8641622"><ele>84.0</ele><time>2026-04-09T09:02:22.703Z</time></trkpt><trkpt lat="43.8364482" lon="12.8643213"><ele>84.0</ele><time>2026-04-09T09:02:23.702Z</time></trkpt><trkpt lat="43.8364364" lon="12.8644742"><ele>84.0</ele><time>2026-04-09T09:02:24.703Z</time></trkpt><trkpt lat="43.8364309" lon="12.8646394"><ele>85.75</ele><time>2026-04-09T09:02:25.702Z</time></trkpt><trkpt lat="43.8364171" lon="12.8648097"><ele>87.5</ele><time>2026-04-09T09:02:26.703Z</time></trkpt><trkpt lat="43.8364024" lon="12.8649746"><ele>89.25</ele><time>2026-04-09T09:02:27.702Z</time></trkpt><trkpt lat="43.8363812" lon="12.8651291"><ele>91.0</ele><time>2026-04-09T09:02:28.703Z</time></trkpt><trkpt lat="43.8363575" lon="12.8652793"><ele>92.8</ele><time>2026-04-09T09:02:29.703Z</time></trkpt><trkpt lat="43.8363339" lon="12.8654223"><ele>94.6</ele><time>2026-04-09T09:02:30.703Z</time></trkpt><trkpt lat="43.8363202" lon="12.865551"><ele>96.4</ele><time>2026-04-09T09:02:31.703Z</time></trkpt><trkpt lat="43.8363256" lon="12.8656739"><ele>98.2</ele><time>2026-04-09T09:02:32.702Z</time></trkpt><trkpt lat="43.8363471" lon="12.8657874"><ele>100.0</ele><time>2026-04-09T09:02:33.703Z</time></trkpt><trkpt lat="43.8363942" lon="12.8658757"><ele>100.0</ele><time>2026-04-09T09:02:34.702Z</time></trkpt><trkpt lat="43.8364547" lon="12.8659297"><ele>100.0</ele><time>2026-04-09T09:02:35.703Z</time></trkpt><trkpt lat="43.836531" lon="12.8659451"><ele>100.0</ele><time>2026-04-09T09:02:36.702Z</time></trkpt><trkpt lat="43.83662" lon="12.8659324"><ele>100.0</ele><time>2026-04-09T09:02:37.702Z</time></trkpt><trkpt lat="43.8367236" lon="12.8659107"><ele>100.0</ele><time>2026-04-09T09:02:38.703Z</time></trkpt><trkpt lat="43.8368327" lon="12.8658863"><ele>101.6</ele><time>2026-04-09T09:02:39.703Z</time></trkpt><trkpt lat="43.8369335" lon="12.8658634"><ele>103.2</ele><time>2026-04-09T09:02:40.703Z</time></trkpt><trkpt lat="43.8370297" lon="12.8658365"><ele>104.80000000000001</ele><time>2026-04-09T09:02:41.702Z</time></trkpt><trkpt lat="43.8371285" lon="12.8658085"><ele>106.4</ele><time>2026-04-09T09:02:42.703Z</time></trkpt><trkpt lat="43.8372259" lon="12.8657828"><ele>108.0</ele><time>2026-04-09T09:02:43.702Z</time></trkpt><trkpt lat="43.8373192" lon="12.8657632"><ele>108.0</ele><time>2026-04-09T09:02:44.702Z</time></trkpt><trkpt lat="43.8374168" lon="12.8657503"><ele>108.00000000000001</ele><time>2026-04-09T09:02:45.702Z</time></trkpt><trkpt lat="43.8375179" lon="12.8657236"><ele>108.00000000000001</ele><time>2026-04-09T09:02:46.703Z</time></trkpt><trkpt lat="43.8376195" lon="12.8656888"><ele>108.0</ele><time>2026-04-09T09:02:47.702Z</time></trkpt><trkpt lat="43.8377214" lon="12.8656536"><ele>108.0</ele><time>2026-04-09T09:02:48.702Z</time></trkpt><trkpt lat="43.8378272" lon="12.8656091"><ele>108.2</ele><time>2026-04-09T09:02:49.703Z</time></trkpt><trkpt lat="43.8379341" lon="12.8655647"><ele>108.4</ele><time>2026-04-09T09:02:50.703Z</time></trkpt><trkpt lat="43.8380382" lon="12.8655224"><ele>108.60000000000001</ele><time>2026-04-09T09:02:51.703Z</time></trkpt><trkpt lat="43.8381454" lon="12.8654812"><ele>108.80000000000001</ele><time>2026-04-09T09:02:52.703Z</time></trkpt><trkpt lat="43.8382495" lon="12.8654379"><ele>109.0</ele><time>2026-04-09T09:02:53.702Z</time></trkpt><trkpt lat="43.8383538" lon="12.8653963"><ele>109.0</ele><time>2026-04-09T09:02:54.703Z</time></trkpt><trkpt lat="43.8384574" lon="12.8653513"><ele>109.0</ele><time>2026-04-09T09:02:55.702Z</time></trkpt><trkpt lat="43.8385629" lon="12.8653029"><ele>109.0</ele><time>2026-04-09T09:02:56.703Z</time></trkpt><trkpt lat="43.8386659" lon="12.8652332"><ele>109.0</ele><time>2026-04-09T09:02:57.703Z</time></trkpt><trkpt lat="43.8387623" lon="12.8651486"><ele>109.0</ele><time>2026-04-09T09:02:58.703Z</time></trkpt><trkpt lat="43.8388563" lon="12.8650703"><ele>110.0</ele><time>2026-04-09T09:02:59.703Z</time></trkpt><trkpt lat="43.8389505" lon="12.8649997"><ele>111.0</ele><time>2026-04-09T09:03:00.702Z</time></trkpt><trkpt lat="43.8390398" lon="12.8649269"><ele>112.0</ele><time>2026-04-09T09:03:01.702Z</time></trkpt><trkpt lat="43.8391242" lon="12.8648511"><ele>113.0</ele><time>2026-04-09T09:03:02.703Z</time></trkpt><trkpt lat="43.8392128" lon="12.8647851"><ele>114.0</ele><time>2026-04-09T09:03:03.702Z</time></trkpt><trkpt lat="43.8393031" lon="12.8647243"><ele>114.2</ele><time>2026-04-09T09:03:04.703Z</time></trkpt><trkpt lat="43.8393922" lon="12.8646719"><ele>114.4</ele><time>2026-04-09T09:03:05.702Z</time></trkpt><trkpt lat="43.8394817" lon="12.8646255"><ele>114.6</ele><time>2026-04-09T09:03:06.702Z</time></trkpt><trkpt lat="43.8395756" lon="12.8645834"><ele>114.8</ele><time>2026-04-09T09:03:07.703Z</time></trkpt><trkpt lat="43.8396741" lon="12.8645417"><ele>115.0</ele><time>2026-04-09T09:03:08.702Z</time></trkpt><trkpt lat="43.8397752" lon="12.864501"><ele>115.0</ele><time>2026-04-09T09:03:09.702Z</time></trkpt><trkpt lat="43.8398782" lon="12.864453"><ele>115.0</ele><time>2026-04-09T09:03:10.703Z</time></trkpt><trkpt lat="43.8399843" lon="12.8644"><ele>115.0</ele><time>2026-04-09T09:03:11.702Z</time></trkpt><trkpt lat="43.8400965" lon="12.8643561"><ele>115.0</ele><time>2026-04-09T09:03:12.702Z</time></trkpt><trkpt lat="43.8402042" lon="12.8643151"><ele>114.0</ele><time>2026-04-09T09:03:13.703Z</time></trkpt><trkpt lat="43.8403079" lon="12.8642679"><ele>113.0</ele><time>2026-04-09T09:03:14.702Z</time></trkpt><trkpt lat="43.8404028" lon="12.8642251"><ele>112.0</ele><time>2026-04-09T09:03:15.702Z</time></trkpt><trkpt lat="43.8404909" lon="12.8641757"><ele>111.0</ele><time>2026-04-09T09:03:16.703Z</time></trkpt><trkpt lat="43.8405768" lon="12.8641018"><ele>110.0</ele><time>2026-04-09T09:03:17.702Z</time></trkpt><trkpt lat="43.8406539" lon="12.8639902"><ele>110.0</ele><time>2026-04-09T09:03:18.703Z</time></trkpt><trkpt lat="43.8407219" lon="12.8638529"><ele>110.0</ele><time>2026-04-09T09:03:19.702Z</time></trkpt><trkpt lat="43.8407735" lon="12.8636999"><ele>110.0</ele><time>2026-04-09T09:03:20.702Z</time></trkpt><trkpt lat="43.8408197" lon="12.8635457"><ele>110.0</ele><time>2026-04-09T09:03:21.702Z</time></trkpt><trkpt lat="43.8408622" lon="12.8634044"><ele>112.0</ele><time>2026-04-09T09:03:22.703Z</time></trkpt><trkpt lat="43.8408852" lon="12.8632583"><ele>114.0</ele><time>2026-04-09T09:03:23.703Z</time></trkpt><trkpt lat="43.8408786" lon="12.8631107"><ele>116.0</ele><time>2026-04-09T09:03:24.702Z</time></trkpt><trkpt lat="43.8408444" lon="12.8629503"><ele>118.0</ele><time>2026-04-09T09:03:25.702Z</time></trkpt><trkpt lat="43.8407956" lon="12.8627699"><ele>119.5</ele><time>2026-04-09T09:03:26.702Z</time></trkpt><trkpt lat="43.8407513" lon="12.8625898"><ele>121.0</ele><time>2026-04-09T09:03:27.703Z</time></trkpt><trkpt lat="43.8407085" lon="12.8623955"><ele>122.5</ele><time>2026-04-09T09:03:28.702Z</time></trkpt><trkpt lat="43.8406647" lon="12.8621904"><ele>124.0</ele><time>2026-04-09T09:03:29.703Z</time></trkpt><trkpt lat="43.8406182" lon="12.861988"><ele>126.0</ele><time>2026-04-09T09:03:30.702Z</time></trkpt><trkpt lat="43.8405726" lon="12.8617816"><ele>128.0</ele><time>2026-04-09T09:03:31.703Z</time></trkpt><trkpt lat="43.8405257" lon="12.8615676"><ele>130.0</ele><time>2026-04-09T09:03:32.703Z</time></trkpt><trkpt lat="43.8404854" lon="12.8613761"><ele>130.0</ele><time>2026-04-09T09:03:33.702Z</time></trkpt><trkpt lat="43.840452" lon="12.8612156"><ele>130.0</ele><time>2026-04-09T09:03:34.702Z</time></trkpt><trkpt lat="43.8404232" lon="12.8610723"><ele>130.0</ele><time>2026-04-09T09:03:35.702Z</time></trkpt><trkpt lat="43.8403992" lon="12.8609501"><ele>130.0</ele><time>2026-04-09T09:03:36.702Z</time></trkpt><trkpt lat="43.8403863" lon="12.8608478"><ele>130.0</ele><time>2026-04-09T09:03:37.703Z</time></trkpt><trkpt lat="43.8403828" lon="12.86076"><ele>130.8</ele><time>2026-04-09T09:03:38.703Z</time></trkpt><trkpt lat="43.8404372" lon="12.8606133"><ele>131.6</ele><time>2026-04-09T09:03:40.702Z</time></trkpt><trkpt lat="43.8405093" lon="12.8605625"><ele>132.4</ele><time>2026-04-09T09:03:41.703Z</time></trkpt><trkpt lat="43.8406028" lon="12.8605398"><ele>133.2</ele><time>2026-04-09T09:03:42.703Z</time></trkpt><trkpt lat="43.8407109" lon="12.8605229"><ele>134.0</ele><time>2026-04-09T09:03:43.703Z</time></trkpt><trkpt lat="43.8408178" lon="12.8605024"><ele>134.0</ele><time>2026-04-09T09:03:44.702Z</time></trkpt><trkpt lat="43.8409322" lon="12.8604856"><ele>134.0</ele><time>2026-04-09T09:03:45.702Z</time></trkpt><trkpt lat="43.8410581" lon="12.8604852"><ele>134.0</ele><time>2026-04-09T09:03:46.703Z</time></trkpt><trkpt lat="43.8412065" lon="12.8604932"><ele>134.0</ele><time>2026-04-09T09:03:47.703Z</time></trkpt><trkpt lat="43.8413563" lon="12.8605012"><ele>135.0</ele><time>2026-04-09T09:03:48.702Z</time></trkpt><trkpt lat="43.841492" lon="12.8605136"><ele>136.0</ele><time>2026-04-09T09:03:49.702Z</time></trkpt><trkpt lat="43.8416274" lon="12.8605258"><ele>137.0</ele><time>2026-04-09T09:03:50.703Z</time></trkpt><trkpt lat="43.841765" lon="12.8605347"><ele>138.0</ele><time>2026-04-09T09:03:51.703Z</time></trkpt><trkpt lat="43.8419037" lon="12.8605352"><ele>138.25</ele><time>2026-04-09T09:03:52.703Z</time></trkpt><trkpt lat="43.8420405" lon="12.8605203"><ele>138.5</ele><time>2026-04-09T09:03:53.703Z</time></trkpt><trkpt lat="43.8421778" lon="12.860494"><ele>138.75</ele><time>2026-04-09T09:03:54.703Z</time></trkpt><trkpt lat="43.8423117" lon="12.8604607"><ele>139.0</ele><time>2026-04-09T09:03:55.702Z</time></trkpt><trkpt lat="43.842445" lon="12.8604256"><ele>139.0</ele><time>2026-04-09T09:03:56.703Z</time></trkpt><trkpt lat="43.8425702" lon="12.8603802"><ele>139.0</ele><time>2026-04-09T09:03:57.702Z</time></trkpt><trkpt lat="43.8426884" lon="12.8603318"><ele>139.0</ele><time>2026-04-09T09:03:58.702Z</time></trkpt><trkpt lat="43.8427911" lon="12.8602819"><ele>139.0</ele><time>2026-04-09T09:03:59.703Z</time></trkpt><trkpt lat="43.8428759" lon="12.8602227"><ele>139.8</ele><time>2026-04-09T09:04:00.702Z</time></trkpt><trkpt lat="43.8429447" lon="12.8601429"><ele>140.60000000000002</ele><time>2026-04-09T09:04:01.703Z</time></trkpt><trkpt lat="43.8429998" lon="12.8600342"><ele>141.4</ele><time>2026-04-09T09:04:02.703Z</time></trkpt><trkpt lat="43.8430501" lon="12.859914"><ele>142.20000000000002</ele><time>2026-04-09T09:04:03.703Z</time></trkpt><trkpt lat="43.8431007" lon="12.8597916"><ele>143.0</ele><time>2026-04-09T09:04:04.702Z</time></trkpt><trkpt lat="43.8431517" lon="12.8596728"><ele>143.0</ele><time>2026-04-09T09:04:05.703Z</time></trkpt><trkpt lat="43.8431947" lon="12.8595777"><ele>143.0</ele><time>2026-04-09T09:04:06.702Z</time></trkpt><trkpt lat="43.8432396" lon="12.8595043"><ele>143.0</ele><time>2026-04-09T09:04:07.702Z</time></trkpt><trkpt lat="43.8433044" lon="12.8594508"><ele>143.0</ele><time>2026-04-09T09:04:08.703Z</time></trkpt><trkpt lat="43.8433819" lon="12.8594276"><ele>143.0</ele><time>2026-04-09T09:04:09.702Z</time></trkpt><trkpt lat="43.8434668" lon="12.8594281"><ele>143.0</ele><time>2026-04-09T09:04:10.703Z</time></trkpt><trkpt lat="43.8435567" lon="12.8594341"><ele>143.0</ele><time>2026-04-09T09:04:11.703Z</time></trkpt><trkpt lat="43.8436563" lon="12.8594377"><ele>143.0</ele><time>2026-04-09T09:04:12.703Z</time></trkpt><trkpt lat="43.8437587" lon="12.8594426"><ele>143.0</ele><time>2026-04-09T09:04:13.702Z</time></trkpt><trkpt lat="43.843864" lon="12.8594473"><ele>143.0</ele><time>2026-04-09T09:04:14.702Z</time></trkpt><trkpt lat="43.8439756" lon="12.8594579"><ele>143.0</ele><time>2026-04-09T09:04:15.702Z</time></trkpt><trkpt lat="43.8440916" lon="12.8594732"><ele>143.0</ele><time>2026-04-09T09:04:16.702Z</time></trkpt><trkpt lat="43.8441992" lon="12.859478"><ele>143.0</ele><time>2026-04-09T09:04:17.702Z</time></trkpt><trkpt lat="43.8443119" lon="12.8594635"><ele>143.0</ele><time>2026-04-09T09:04:18.702Z</time></trkpt><trkpt lat="43.8444349" lon="12.8594064"><ele>143.0</ele><time>2026-04-09T09:04:19.703Z</time></trkpt><trkpt lat="43.8445554" lon="12.8593253"><ele>143.25</ele><time>2026-04-09T09:04:20.703Z</time></trkpt><trkpt lat="43.84467" lon="12.8592428"><ele>143.5</ele><time>2026-04-09T09:04:21.702Z</time></trkpt><trkpt lat="43.8447909" lon="12.8591641"><ele>143.75</ele><time>2026-04-09T09:04:22.703Z</time></trkpt><trkpt lat="43.8449107" lon="12.8590887"><ele>144.0</ele><time>2026-04-09T09:04:23.702Z</time></trkpt><trkpt lat="43.8450285" lon="12.8590105"><ele>142.5</ele><time>2026-04-09T09:04:24.702Z</time></trkpt><trkpt lat="43.8451498" lon="12.8589281"><ele>141.0</ele><time>2026-04-09T09:04:25.702Z</time></trkpt><trkpt lat="43.8452661" lon="12.8588435"><ele>139.5</ele><time>2026-04-09T09:04:26.702Z</time></trkpt><trkpt lat="43.8453874" lon="12.8587647"><ele>138.0</ele><time>2026-04-09T09:04:27.703Z</time></trkpt><trkpt lat="43.8455137" lon="12.8586841"><ele>138.0</ele><time>2026-04-09T09:04:28.702Z</time></trkpt><trkpt lat="43.8456428" lon="12.858595"><ele>138.0</ele><time>2026-04-09T09:04:29.703Z</time></trkpt><trkpt lat="43.8457752" lon="12.858503"><ele>138.0</ele><time>2026-04-09T09:04:30.702Z</time></trkpt><trkpt lat="43.8459089" lon="12.8584107"><ele>138.0</ele><time>2026-04-09T09:04:31.702Z</time></trkpt><trkpt lat="43.8460415" lon="12.8583204"><ele>139.33333333333334</ele><time>2026-04-09T09:04:32.703Z</time></trkpt><trkpt lat="43.8461749" lon="12.8582242"><ele>140.66666666666669</ele><time>2026-04-09T09:04:33.703Z</time></trkpt><trkpt lat="43.8463156" lon="12.8581249"><ele>142.0</ele><time>2026-04-09T09:04:34.703Z</time></trkpt><trkpt lat="43.8464567" lon="12.8580213"><ele>142.0</ele><time>2026-04-09T09:04:35.702Z</time></trkpt><trkpt lat="43.8466014" lon="12.8579189"><ele>142.0</ele><time>2026-04-09T09:04:36.702Z</time></trkpt><trkpt lat="43.8467481" lon="12.8578172"><ele>142.0</ele><time>2026-04-09T09:04:37.702Z</time></trkpt><trkpt lat="43.846899" lon="12.857712"><ele>143.33333333333334</ele><time>2026-04-09T09:04:38.703Z</time></trkpt><trkpt lat="43.8470542" lon="12.8576081"><ele>144.66666666666666</ele><time>2026-04-09T09:04:39.703Z</time></trkpt><trkpt lat="43.8472103" lon="12.8575004"><ele>146.0</ele><time>2026-04-09T09:04:40.702Z</time></trkpt><trkpt lat="43.8473688" lon="12.85739"><ele>146.0</ele><time>2026-04-09T09:04:41.703Z</time></trkpt><trkpt lat="43.8475292" lon="12.8572796"><ele>146.0</ele><time>2026-04-09T09:04:42.703Z</time></trkpt><trkpt lat="43.8476863" lon="12.85717"><ele>146.0</ele><time>2026-04-09T09:04:43.703Z</time></trkpt><trkpt lat="43.8478363" lon="12.8570695"><ele>146.0</ele><time>2026-04-09T09:04:44.702Z</time></trkpt><trkpt lat="43.8479754" lon="12.8569768"><ele>146.0</ele><time>2026-04-09T09:04:45.702Z</time></trkpt><trkpt lat="43.8481119" lon="12.8568887"><ele>146.0</ele><time>2026-04-09T09:04:46.703Z</time></trkpt><trkpt lat="43.8482459" lon="12.8567948"><ele>147.25</ele><time>2026-04-09T09:04:47.703Z</time></trkpt><trkpt lat="43.8483762" lon="12.8567013"><ele>148.5</ele><time>2026-04-09T09:04:48.702Z</time></trkpt><trkpt lat="43.8484997" lon="12.8566102"><ele>149.75</ele><time>2026-04-09T09:04:49.702Z</time></trkpt><trkpt lat="43.848625" lon="12.8565273"><ele>151.0</ele><time>2026-04-09T09:04:50.703Z</time></trkpt><trkpt lat="43.8487507" lon="12.8564475"><ele>152.0</ele><time>2026-04-09T09:04:51.703Z</time></trkpt><trkpt lat="43.8488796" lon="12.8563752"><ele>153.0</ele><time>2026-04-09T09:04:52.702Z</time></trkpt><trkpt lat="43.8490118" lon="12.8563155"><ele>154.0</ele><time>2026-04-09T09:04:53.702Z</time></trkpt><trkpt lat="43.8491439" lon="12.8562683"><ele>155.0</ele><time>2026-04-09T09:04:54.702Z</time></trkpt><trkpt lat="43.8492784" lon="12.8562333"><ele>156.0</ele><time>2026-04-09T09:04:55.702Z</time></trkpt><trkpt lat="43.8494094" lon="12.8562055"><ele>157.0</ele><time>2026-04-09T09:04:56.702Z</time></trkpt><trkpt lat="43.8495387" lon="12.8561711"><ele>158.0</ele><time>2026-04-09T09:04:57.702Z</time></trkpt><trkpt lat="43.8496644" lon="12.8561236"><ele>159.0</ele><time>2026-04-09T09:04:58.703Z</time></trkpt><trkpt lat="43.8497927" lon="12.8560653"><ele>159.0</ele><time>2026-04-09T09:04:59.702Z</time></trkpt><trkpt lat="43.8499221" lon="12.856001"><ele>159.0</ele><time>2026-04-09T09:05:00.702Z</time></trkpt><trkpt lat="43.8500491" lon="12.8559315"><ele>159.0</ele><time>2026-04-09T09:05:01.702Z</time></trkpt><trkpt lat="43.8501755" lon="12.8558698"><ele>159.0</ele><time>2026-04-09T09:05:02.703Z</time></trkpt><trkpt lat="43.8502998" lon="12.8558156"><ele>162.2</ele><time>2026-04-09T09:05:03.702Z</time></trkpt><trkpt lat="43.8504177" lon="12.8557629"><ele>165.4</ele><time>2026-04-09T09:05:04.703Z</time></trkpt><trkpt lat="43.8505268" lon="12.8557232"><ele>168.6</ele><time>2026-04-09T09:05:05.702Z</time></trkpt><trkpt lat="43.850625" lon="12.8556971"><ele>171.8</ele><time>2026-04-09T09:05:06.703Z</time></trkpt><trkpt lat="43.8507112" lon="12.8556768"><ele>175.0</ele><time>2026-04-09T09:05:07.703Z</time></trkpt><trkpt lat="43.8507833" lon="12.8556608"><ele>175.0</ele><time>2026-04-09T09:05:08.702Z</time></trkpt><trkpt lat="43.8508552" lon="12.8556444"><ele>175.0</ele><time>2026-04-09T09:05:10.702Z</time></trkpt><trkpt lat="43.850918" lon="12.8556579"><ele>175.0</ele><time>2026-04-09T09:05:14.702Z</time></trkpt><trkpt lat="43.8509907" lon="12.8557132"><ele>175.0</ele><time>2026-04-09T09:05:15.702Z</time></trkpt><trkpt lat="43.8510773" lon="12.8557857"><ele>175.0</ele><time>2026-04-09T09:05:16.702Z</time></trkpt><trkpt lat="43.8511643" lon="12.8558642"><ele>175.0</ele><time>2026-04-09T09:05:17.703Z</time></trkpt><trkpt lat="43.8512622" lon="12.8559439"><ele>175.2</ele><time>2026-04-09T09:05:18.702Z</time></trkpt><trkpt lat="43.8513656" lon="12.8560302"><ele>175.4</ele><time>2026-04-09T09:05:19.702Z</time></trkpt><trkpt lat="43.851453" lon="12.8561048"><ele>175.60000000000002</ele><time>2026-04-09T09:05:20.702Z</time></trkpt><trkpt lat="43.8515284" lon="12.8561721"><ele>175.8</ele><time>2026-04-09T09:05:21.703Z</time></trkpt><trkpt lat="43.8516004" lon="12.8562262"><ele>176.0</ele><time>2026-04-09T09:05:22.703Z</time></trkpt><trkpt lat="43.8516642" lon="12.8562795"><ele>176.0</ele><time>2026-04-09T09:05:23.703Z</time></trkpt><trkpt lat="43.8517266" lon="12.8563302"><ele>176.0</ele><time>2026-04-09T09:05:24.703Z</time></trkpt><trkpt lat="43.8518022" lon="12.8563856"><ele>176.0</ele><time>2026-04-09T09:05:25.703Z</time></trkpt><trkpt lat="43.8518882" lon="12.8564306"><ele>176.0</ele><time>2026-04-09T09:05:26.703Z</time></trkpt><trkpt lat="43.8519894" lon="12.8564751"><ele>176.0</ele><time>2026-04-09T09:05:27.702Z</time></trkpt><trkpt lat="43.852113" lon="12.8565122"><ele>175.25</ele><time>2026-04-09T09:05:28.702Z</time></trkpt><trkpt lat="43.8522296" lon="12.8565421"><ele>174.5</ele><time>2026-04-09T09:05:29.702Z</time></trkpt><trkpt lat="43.852346" lon="12.8565634"><ele>173.75</ele><time>2026-04-09T09:05:30.702Z</time></trkpt><trkpt lat="43.8524595" lon="12.8565856"><ele>173.0</ele><time>2026-04-09T09:05:31.703Z</time></trkpt><trkpt lat="43.8525753" lon="12.8566113"><ele>172.0</ele><time>2026-04-09T09:05:32.703Z</time></trkpt><trkpt lat="43.8526901" lon="12.8566328"><ele>171.0</ele><time>2026-04-09T09:05:33.702Z</time></trkpt><trkpt lat="43.8528059" lon="12.8566502"><ele>170.0</ele><time>2026-04-09T09:05:34.702Z</time></trkpt><trkpt lat="43.8529189" lon="12.8566733"><ele>169.0</ele><time>2026-04-09T09:05:35.702Z</time></trkpt><trkpt lat="43.8530307" lon="12.8567124"><ele>169.0</ele><time>2026-04-09T09:05:36.703Z</time></trkpt><trkpt lat="43.8531253" lon="12.8567543"><ele>169.0</ele><time>2026-04-09T09:05:37.702Z</time></trkpt><trkpt lat="43.8532204" lon="12.856804"><ele>169.0</ele><time>2026-04-09T09:05:38.702Z</time></trkpt><trkpt lat="43.8533195" lon="12.8568697"><ele>169.0</ele><time>2026-04-09T09:05:39.702Z</time></trkpt><trkpt lat="43.8534189" lon="12.8569533"><ele>169.0</ele><time>2026-04-09T09:05:40.702Z</time></trkpt><trkpt lat="43.8535099" lon="12.8570238"><ele>167.66666666666669</ele><time>2026-04-09T09:05:41.703Z</time></trkpt><trkpt lat="43.8535916" lon="12.8570883"><ele>166.33333333333334</ele><time>2026-04-09T09:05:42.702Z</time></trkpt><trkpt lat="43.8536674" lon="12.8571487"><ele>165.0</ele><time>2026-04-09T09:05:43.703Z</time></trkpt><trkpt lat="43.853749" lon="12.8572106"><ele>163.66666666666666</ele><time>2026-04-09T09:05:44.702Z</time></trkpt><trkpt lat="43.8538294" lon="12.8572667"><ele>162.33333333333331</ele><time>2026-04-09T09:05:45.702Z</time></trkpt><trkpt lat="43.8539035" lon="12.8573199"><ele>161.0</ele><time>2026-04-09T09:05:46.702Z</time></trkpt><trkpt lat="43.8539774" lon="12.8573759"><ele>161.0</ele><time>2026-04-09T09:05:47.702Z</time></trkpt><trkpt lat="43.854047" lon="12.8574334"><ele>161.0</ele><time>2026-04-09T09:05:48.702Z</time></trkpt><trkpt lat="43.8541033" lon="12.8574874"><ele>161.0</ele><time>2026-04-09T09:05:49.702Z</time></trkpt><trkpt lat="43.8541833" lon="12.8575768"><ele>161.0</ele><time>2026-04-09T09:05:51.702Z</time></trkpt><trkpt lat="43.8542542" lon="12.8576724"><ele>161.0</ele><time>2026-04-09T09:05:56.703Z</time></trkpt><trkpt lat="43.8543007" lon="12.85776"><ele>161.0</ele><time>2026-04-09T09:05:57.702Z</time></trkpt><trkpt lat="43.8543435" lon="12.8578626"><ele>161.20000000000002</ele><time>2026-04-09T09:05:58.702Z</time></trkpt><trkpt lat="43.8543885" lon="12.8579744"><ele>161.4</ele><time>2026-04-09T09:05:59.702Z</time></trkpt><trkpt lat="43.8544358" lon="12.8580954"><ele>161.6</ele><time>2026-04-09T09:06:00.703Z</time></trkpt><trkpt lat="43.8544962" lon="12.8582421"><ele>161.8</ele><time>2026-04-09T09:06:01.703Z</time></trkpt><trkpt lat="43.8545515" lon="12.8583909"><ele>162.0</ele><time>2026-04-09T09:06:02.702Z</time></trkpt><trkpt lat="43.8546074" lon="12.8585414"><ele>162.0</ele><time>2026-04-09T09:06:03.702Z</time></trkpt><trkpt lat="43.8546703" lon="12.8587008"><ele>162.0</ele><time>2026-04-09T09:06:04.703Z</time></trkpt><trkpt lat="43.8547382" lon="12.8588617"><ele>162.0</ele><time>2026-04-09T09:06:05.703Z</time></trkpt><trkpt lat="43.8548029" lon="12.8590076"><ele>162.0</ele><time>2026-04-09T09:06:06.703Z</time></trkpt><trkpt lat="43.8548719" lon="12.8591535"><ele>161.5</ele><time>2026-04-09T09:06:07.702Z</time></trkpt><trkpt lat="43.854938" lon="12.8592934"><ele>161.0</ele><time>2026-04-09T09:06:08.703Z</time></trkpt><trkpt lat="43.8550022" lon="12.8594229"><ele>160.5</ele><time>2026-04-09T09:06:09.703Z</time></trkpt><trkpt lat="43.8550691" lon="12.8595599"><ele>160.0</ele><time>2026-04-09T09:06:10.702Z</time></trkpt><trkpt lat="43.8551219" lon="12.8596794"><ele>160.8</ele><time>2026-04-09T09:06:11.702Z</time></trkpt><trkpt lat="43.8551705" lon="12.8597889"><ele>161.6</ele><time>2026-04-09T09:06:12.702Z</time></trkpt><trkpt lat="43.855213" lon="12.8598912"><ele>162.39999999999998</ele><time>2026-04-09T09:06:13.702Z</time></trkpt><trkpt lat="43.8552467" lon="12.8599712"><ele>163.2</ele><time>2026-04-09T09:06:14.702Z</time></trkpt><trkpt lat="43.8553431" lon="12.8600339"><ele>164.0</ele><time>2026-04-09T09:06:16.703Z</time></trkpt><trkpt lat="43.8554552" lon="12.8600125"><ele>164.0</ele><time>2026-04-09T09:06:18.703Z</time></trkpt><trkpt lat="43.8555208" lon="12.8599898"><ele>164.0</ele><time>2026-04-09T09:06:19.702Z</time></trkpt><trkpt lat="43.8556086" lon="12.8599726"><ele>164.0</ele><time>2026-04-09T09:06:20.702Z</time></trkpt><trkpt lat="43.8556992" lon="12.8599492"><ele>164.0</ele><time>2026-04-09T09:06:21.703Z</time></trkpt><trkpt lat="43.8557724" lon="12.8599204"><ele>164.0</ele><time>2026-04-09T09:06:22.702Z</time></trkpt><trkpt lat="43.8558409" lon="12.8599056"><ele>164.0</ele><time>2026-04-09T09:06:23.702Z</time></trkpt><trkpt lat="43.8559146" lon="12.8598843"><ele>163.0</ele><time>2026-04-09T09:06:24.703Z</time></trkpt><trkpt lat="43.8559914" lon="12.859873"><ele>162.0</ele><time>2026-04-09T09:06:25.702Z</time></trkpt><trkpt lat="43.8560835" lon="12.859893"><ele>161.0</ele><time>2026-04-09T09:06:26.702Z</time></trkpt><trkpt lat="43.8561709" lon="12.8599086"><ele>160.0</ele><time>2026-04-09T09:06:27.702Z</time></trkpt><trkpt lat="43.856266" lon="12.8599781"><ele>159.0</ele><time>2026-04-09T09:06:28.702Z</time></trkpt><trkpt lat="43.8563756" lon="12.860052"><ele>157.25</ele><time>2026-04-09T09:06:29.702Z</time></trkpt><trkpt lat="43.8564943" lon="12.8601312"><ele>155.5</ele><time>2026-04-09T09:06:30.702Z</time></trkpt><trkpt lat="43.8566188" lon="12.8602137"><ele>153.75</ele><time>2026-04-09T09:06:31.702Z</time></trkpt><trkpt lat="43.8567402" lon="12.8602964"><ele>152.0</ele><time>2026-04-09T09:06:32.702Z</time></trkpt><trkpt lat="43.8568691" lon="12.8603748"><ele>152.0</ele><time>2026-04-09T09:06:33.703Z</time></trkpt><trkpt lat="43.8569965" lon="12.8604588"><ele>152.0</ele><time>2026-04-09T09:06:34.703Z</time></trkpt><trkpt lat="43.8571111" lon="12.8605311"><ele>152.0</ele><time>2026-04-09T09:06:35.702Z</time></trkpt><trkpt lat="43.8572237" lon="12.8606035"><ele>152.0</ele><time>2026-04-09T09:06:36.703Z</time></trkpt><trkpt lat="43.8573361" lon="12.8606812"><ele>152.0</ele><time>2026-04-09T09:06:37.703Z</time></trkpt><trkpt lat="43.8574465" lon="12.860752"><ele>152.0</ele><time>2026-04-09T09:06:38.703Z</time></trkpt><trkpt lat="43.8575568" lon="12.8608167"><ele>152.0</ele><time>2026-04-09T09:06:39.702Z</time></trkpt><trkpt lat="43.8576581" lon="12.8608938"><ele>152.0</ele><time>2026-04-09T09:06:40.702Z</time></trkpt><trkpt lat="43.8577584" lon="12.8609964"><ele>150.25</ele><time>2026-04-09T09:06:41.703Z</time></trkpt><trkpt lat="43.8578476" lon="12.8611124"><ele>148.5</ele><time>2026-04-09T09:06:42.703Z</time></trkpt><trkpt lat="43.8579396" lon="12.861231"><ele>146.75</ele><time>2026-04-09T09:06:43.702Z</time></trkpt><trkpt lat="43.8580275" lon="12.8613472"><ele>145.0</ele><time>2026-04-09T09:06:44.702Z</time></trkpt><trkpt lat="43.858112" lon="12.861471"><ele>145.0</ele><time>2026-04-09T09:06:45.702Z</time></trkpt><trkpt lat="43.8581944" lon="12.8615957"><ele>145.0</ele><time>2026-04-09T09:06:46.703Z</time></trkpt><trkpt lat="43.8582801" lon="12.8617203"><ele>145.0</ele><time>2026-04-09T09:06:47.703Z</time></trkpt><trkpt lat="43.8583712" lon="12.8618427"><ele>145.0</ele><time>2026-04-09T09:06:48.702Z</time></trkpt><trkpt lat="43.8584539" lon="12.8619668"><ele>145.25</ele><time>2026-04-09T09:06:49.702Z</time></trkpt><trkpt lat="43.8585395" lon="12.8620957"><ele>145.5</ele><time>2026-04-09T09:06:50.703Z</time></trkpt><trkpt lat="43.8586204" lon="12.8622094"><ele>145.75</ele><time>2026-04-09T09:06:51.702Z</time></trkpt><trkpt lat="43.8587053" lon="12.8623199"><ele>146.0</ele><time>2026-04-09T09:06:52.702Z</time></trkpt><trkpt lat="43.858802" lon="12.8624185"><ele>146.0</ele><time>2026-04-09T09:06:53.702Z</time></trkpt><trkpt lat="43.8588978" lon="12.8625381"><ele>146.0</ele><time>2026-04-09T09:06:54.702Z</time></trkpt><trkpt lat="43.8589869" lon="12.8626534"><ele>146.0</ele><time>2026-04-09T09:06:55.703Z</time></trkpt><trkpt lat="43.8590753" lon="12.8627731"><ele>146.0</ele><time>2026-04-09T09:06:56.702Z</time></trkpt><trkpt lat="43.8591529" lon="12.8628987"><ele>144.25</ele><time>2026-04-09T09:06:57.702Z</time></trkpt><trkpt lat="43.8592413" lon="12.8630274"><ele>142.5</ele><time>2026-04-09T09:06:58.702Z</time></trkpt><trkpt lat="43.8593295" lon="12.8631624"><ele>140.75</ele><time>2026-04-09T09:06:59.703Z</time></trkpt><trkpt lat="43.8594246" lon="12.8633005"><ele>139.0</ele><time>2026-04-09T09:07:00.702Z</time></trkpt><trkpt lat="43.8595194" lon="12.8634256"><ele>139.0</ele><time>2026-04-09T09:07:01.703Z</time></trkpt><trkpt lat="43.8596069" lon="12.8635375"><ele>139.0</ele><time>2026-04-09T09:07:02.703Z</time></trkpt><trkpt lat="43.8596954" lon="12.8636407"><ele>139.0</ele><time>2026-04-09T09:07:03.702Z</time></trkpt><trkpt lat="43.8597854" lon="12.8637449"><ele>139.0</ele><time>2026-04-09T09:07:04.703Z</time></trkpt><trkpt lat="43.8598987" lon="12.863845"><ele>139.0</ele><time>2026-04-09T09:07:05.702Z</time></trkpt><trkpt lat="43.8600044" lon="12.8639433"><ele>139.0</ele><time>2026-04-09T09:07:06.703Z</time></trkpt><trkpt lat="43.8601272" lon="12.8640429"><ele>139.0</ele><time>2026-04-09T09:07:07.702Z</time></trkpt><trkpt lat="43.8602394" lon="12.8641393"><ele>139.0</ele><time>2026-04-09T09:07:08.702Z</time></trkpt><trkpt lat="43.8603509" lon="12.8642347"><ele>138.25</ele><time>2026-04-09T09:07:09.703Z</time></trkpt><trkpt lat="43.8604574" lon="12.8643324"><ele>137.5</ele><time>2026-04-09T09:07:10.703Z</time></trkpt><trkpt lat="43.860557" lon="12.8644246"><ele>136.75</ele><time>2026-04-09T09:07:11.703Z</time></trkpt><trkpt lat="43.860655" lon="12.8645199"><ele>136.0</ele><time>2026-04-09T09:07:12.703Z</time></trkpt><trkpt lat="43.8607392" lon="12.8646093"><ele>136.0</ele><time>2026-04-09T09:07:13.702Z</time></trkpt><trkpt lat="43.8608353" lon="12.8646971"><ele>136.0</ele><time>2026-04-09T09:07:14.702Z</time></trkpt><trkpt lat="43.8609239" lon="12.8647893"><ele>136.0</ele><time>2026-04-09T09:07:15.702Z</time></trkpt><trkpt lat="43.8610161" lon="12.8648764"><ele>136.0</ele><time>2026-04-09T09:07:16.703Z</time></trkpt><trkpt lat="43.8611022" lon="12.864961"><ele>136.0</ele><time>2026-04-09T09:07:17.702Z</time></trkpt><trkpt lat="43.8611887" lon="12.8650504"><ele>135.0</ele><time>2026-04-09T09:07:18.703Z</time></trkpt><trkpt lat="43.8612735" lon="12.8651347"><ele>134.0</ele><time>2026-04-09T09:07:19.702Z</time></trkpt><trkpt lat="43.8613536" lon="12.8652177"><ele>133.0</ele><time>2026-04-09T09:07:20.702Z</time></trkpt><trkpt lat="43.8614357" lon="12.8652944"><ele>132.0</ele><time>2026-04-09T09:07:21.702Z</time></trkpt><trkpt lat="43.8615117" lon="12.8653738"><ele>131.0</ele><time>2026-04-09T09:07:22.703Z</time></trkpt><trkpt lat="43.8615904" lon="12.8654533"><ele>131.0</ele><time>2026-04-09T09:07:23.702Z</time></trkpt><trkpt lat="43.8616721" lon="12.8655408"><ele>131.0</ele><time>2026-04-09T09:07:24.703Z</time></trkpt><trkpt lat="43.8617611" lon="12.8656329"><ele>131.0</ele><time>2026-04-09T09:07:25.703Z</time></trkpt><trkpt lat="43.8618548" lon="12.8657216"><ele>131.0</ele><time>2026-04-09T09:07:26.702Z</time></trkpt><trkpt lat="43.8619477" lon="12.8658151"><ele>131.0</ele><time>2026-04-09T09:07:27.703Z</time></trkpt><trkpt lat="43.8620503" lon="12.8659228"><ele>131.0</ele><time>2026-04-09T09:07:28.702Z</time></trkpt><trkpt lat="43.8621567" lon="12.8660289"><ele>131.0</ele><time>2026-04-09T09:07:29.703Z</time></trkpt><trkpt lat="43.8622708" lon="12.8661425"><ele>131.0</ele><time>2026-04-09T09:07:30.703Z</time></trkpt><trkpt lat="43.8623838" lon="12.8662593"><ele>131.0</ele><time>2026-04-09T09:07:31.703Z</time></trkpt><trkpt lat="43.862496" lon="12.8663665"><ele>131.0</ele><time>2026-04-09T09:07:32.703Z</time></trkpt><trkpt lat="43.8625907" lon="12.8664595"><ele>131.0</ele><time>2026-04-09T09:07:33.702Z</time></trkpt><trkpt lat="43.8626746" lon="12.8665496"><ele>131.0</ele><time>2026-04-09T09:07:34.702Z</time></trkpt><trkpt lat="43.8627612" lon="12.8666446"><ele>131.0</ele><time>2026-04-09T09:07:35.703Z</time></trkpt><trkpt lat="43.8628383" lon="12.8667352"><ele>131.0</ele><time>2026-04-09T09:07:36.703Z</time></trkpt><trkpt lat="43.8629064" lon="12.8668374"><ele>132.0</ele><time>2026-04-09T09:07:37.702Z</time></trkpt><trkpt lat="43.8629839" lon="12.8669343"><ele>133.0</ele><time>2026-04-09T09:07:38.703Z</time></trkpt><trkpt lat="43.8630679" lon="12.8670328"><ele>134.0</ele><time>2026-04-09T09:07:39.703Z</time></trkpt><trkpt lat="43.8631611" lon="12.867136"><ele>135.0</ele><time>2026-04-09T09:07:40.703Z</time></trkpt><trkpt lat="43.8632557" lon="12.8672468"><ele>135.0</ele><time>2026-04-09T09:07:41.703Z</time></trkpt><trkpt lat="43.863349" lon="12.867352"><ele>135.0</ele><time>2026-04-09T09:07:42.702Z</time></trkpt><trkpt lat="43.863439" lon="12.8674644"><ele>135.0</ele><time>2026-04-09T09:07:43.703Z</time></trkpt><trkpt lat="43.8635068" lon="12.8675733"><ele>135.0</ele><time>2026-04-09T09:07:44.702Z</time></trkpt><trkpt lat="43.8635905" lon="12.867677"><ele>135.4</ele><time>2026-04-09T09:07:45.703Z</time></trkpt><trkpt lat="43.8636703" lon="12.8677697"><ele>135.8</ele><time>2026-04-09T09:07:46.703Z</time></trkpt><trkpt lat="43.8637438" lon="12.8678569"><ele>136.2</ele><time>2026-04-09T09:07:47.703Z</time></trkpt><trkpt lat="43.8638093" lon="12.8679502"><ele>136.6</ele><time>2026-04-09T09:07:48.702Z</time></trkpt><trkpt lat="43.8638628" lon="12.8680443"><ele>137.0</ele><time>2026-04-09T09:07:49.702Z</time></trkpt><trkpt lat="43.8639187" lon="12.8681292"><ele>137.0</ele><time>2026-04-09T09:07:50.702Z</time></trkpt><trkpt lat="43.8639484" lon="12.8682607"><ele>137.0</ele><time>2026-04-09T09:07:51.702Z</time></trkpt><trkpt lat="43.8639907" lon="12.8683805"><ele>137.0</ele><time>2026-04-09T09:07:52.702Z</time></trkpt><trkpt lat="43.8640362" lon="12.8685018"><ele>137.0</ele><time>2026-04-09T09:07:53.702Z</time></trkpt><trkpt lat="43.8640977" lon="12.8686244"><ele>137.0</ele><time>2026-04-09T09:07:54.703Z</time></trkpt><trkpt lat="43.8641654" lon="12.8687399"><ele>135.0</ele><time>2026-04-09T09:07:55.703Z</time></trkpt><trkpt lat="43.8642417" lon="12.8688397"><ele>133.0</ele><time>2026-04-09T09:07:56.702Z</time></trkpt><trkpt lat="43.8643197" lon="12.8689363"><ele>131.0</ele><time>2026-04-09T09:07:57.703Z</time></trkpt><trkpt lat="43.8644048" lon="12.8690234"><ele>129.0</ele><time>2026-04-09T09:07:58.703Z</time></trkpt><trkpt lat="43.8644917" lon="12.8690967"><ele>127.0</ele><time>2026-04-09T09:07:59.703Z</time></trkpt><trkpt lat="43.864594" lon="12.8691754"><ele>127.0</ele><time>2026-04-09T09:08:00.703Z</time></trkpt><trkpt lat="43.8646974" lon="12.8692434"><ele>127.0</ele><time>2026-04-09T09:08:01.702Z</time></trkpt><trkpt lat="43.8648046" lon="12.8693097"><ele>127.0</ele><time>2026-04-09T09:08:02.703Z</time></trkpt><trkpt lat="43.8649124" lon="12.8693728"><ele>127.0</ele><time>2026-04-09T09:08:03.702Z</time></trkpt><trkpt lat="43.8650131" lon="12.8694393"><ele>125.0</ele><time>2026-04-09T09:08:04.702Z</time></trkpt><trkpt lat="43.8651134" lon="12.8695061"><ele>123.0</ele><time>2026-04-09T09:08:05.702Z</time></trkpt><trkpt lat="43.8652161" lon="12.8695896"><ele>121.0</ele><time>2026-04-09T09:08:06.702Z</time></trkpt><trkpt lat="43.8653181" lon="12.8696815"><ele>119.0</ele><time>2026-04-09T09:08:07.703Z</time></trkpt><trkpt lat="43.8654173" lon="12.8697681"><ele>119.0</ele><time>2026-04-09T09:08:08.703Z</time></trkpt><trkpt lat="43.8655193" lon="12.8698596"><ele>119.0</ele><time>2026-04-09T09:08:09.703Z</time></trkpt><trkpt lat="43.8656196" lon="12.869946"><ele>119.0</ele><time>2026-04-09T09:08:10.702Z</time></trkpt><trkpt lat="43.8657269" lon="12.8700173"><ele>119.0</ele><time>2026-04-09T09:08:11.702Z</time></trkpt><trkpt lat="43.8658308" lon="12.8700771"><ele>120.0</ele><time>2026-04-09T09:08:12.702Z</time></trkpt><trkpt lat="43.8659257" lon="12.8701327"><ele>121.0</ele><time>2026-04-09T09:08:13.702Z</time></trkpt><trkpt lat="43.8660102" lon="12.870203"><ele>122.0</ele><time>2026-04-09T09:08:14.703Z</time></trkpt><trkpt lat="43.8660892" lon="12.8702758"><ele>123.0</ele><time>2026-04-09T09:08:15.702Z</time></trkpt><trkpt lat="43.8661646" lon="12.8703626"><ele>124.0</ele><time>2026-04-09T09:08:16.702Z</time></trkpt><trkpt lat="43.8662358" lon="12.8704497"><ele>121.2</ele><time>2026-04-09T09:08:17.702Z</time></trkpt><trkpt lat="43.8663042" lon="12.8705327"><ele>118.4</ele><time>2026-04-09T09:08:18.702Z</time></trkpt><trkpt lat="43.8663697" lon="12.8706198"><ele>115.6</ele><time>2026-04-09T09:08:19.702Z</time></trkpt><trkpt lat="43.8664262" lon="12.8707199"><ele>112.8</ele><time>2026-04-09T09:08:20.702Z</time></trkpt><trkpt lat="43.8664788" lon="12.8708315"><ele>110.0</ele><time>2026-04-09T09:08:21.702Z</time></trkpt><trkpt lat="43.8665199" lon="12.8709368"><ele>110.6</ele><time>2026-04-09T09:08:22.702Z</time></trkpt><trkpt lat="43.8665692" lon="12.871039"><ele>111.2</ele><time>2026-04-09T09:08:23.702Z</time></trkpt><trkpt lat="43.8666319" lon="12.8711394"><ele>111.80000000000001</ele><time>2026-04-09T09:08:24.702Z</time></trkpt><trkpt lat="43.8667076" lon="12.8712482"><ele>112.4</ele><time>2026-04-09T09:08:25.702Z</time></trkpt><trkpt lat="43.866807" lon="12.8713396"><ele>113.0</ele><time>2026-04-09T09:08:26.702Z</time></trkpt><trkpt lat="43.8669085" lon="12.8714217"><ele>111.0</ele><time>2026-04-09T09:08:27.703Z</time></trkpt><trkpt lat="43.8670246" lon="12.871497"><ele>109.0</ele><time>2026-04-09T09:08:28.702Z</time></trkpt><trkpt lat="43.8671343" lon="12.8715739"><ele>107.0</ele><time>2026-04-09T09:08:29.703Z</time></trkpt><trkpt lat="43.8672403" lon="12.8716428"><ele>105.0</ele><time>2026-04-09T09:08:30.703Z</time></trkpt><trkpt lat="43.8673471" lon="12.8716993"><ele>105.0</ele><time>2026-04-09T09:08:31.703Z</time></trkpt><trkpt lat="43.8674557" lon="12.8717573"><ele>105.0</ele><time>2026-04-09T09:08:32.702Z</time></trkpt><trkpt lat="43.8675697" lon="12.8717857"><ele>105.0</ele><time>2026-04-09T09:08:33.703Z</time></trkpt><trkpt lat="43.8676757" lon="12.8718166"><ele>105.0</ele><time>2026-04-09T09:08:34.703Z</time></trkpt><trkpt lat="43.8677864" lon="12.8718655"><ele>103.5</ele><time>2026-04-09T09:08:35.702Z</time></trkpt><trkpt lat="43.8678915" lon="12.8719257"><ele>102.0</ele><time>2026-04-09T09:08:36.702Z</time></trkpt><trkpt lat="43.8679973" lon="12.8719892"><ele>100.5</ele><time>2026-04-09T09:08:37.702Z</time></trkpt><trkpt lat="43.8681034" lon="12.8720554"><ele>99.0</ele><time>2026-04-09T09:08:38.702Z</time></trkpt><trkpt lat="43.8682229" lon="12.8721037"><ele>99.0</ele><time>2026-04-09T09:08:39.702Z</time></trkpt><trkpt lat="43.8683438" lon="12.8721487"><ele>99.0</ele><time>2026-04-09T09:08:40.702Z</time></trkpt><trkpt lat="43.8684663" lon="12.8721741"><ele>99.0</ele><time>2026-04-09T09:08:41.702Z</time></trkpt><trkpt lat="43.8685908" lon="12.8721951"><ele>99.0</ele><time>2026-04-09T09:08:42.702Z</time></trkpt><trkpt lat="43.8687203" lon="12.8722127"><ele>98.5</ele><time>2026-04-09T09:08:43.703Z</time></trkpt><trkpt lat="43.8688446" lon="12.8722255"><ele>98.0</ele><time>2026-04-09T09:08:44.702Z</time></trkpt><trkpt lat="43.8689758" lon="12.8722389"><ele>97.5</ele><time>2026-04-09T09:08:45.702Z</time></trkpt><trkpt lat="43.8691039" lon="12.8722498"><ele>97.0</ele><time>2026-04-09T09:08:46.703Z</time></trkpt><trkpt lat="43.8692203" lon="12.8722571"><ele>98.0</ele><time>2026-04-09T09:08:47.702Z</time></trkpt><trkpt lat="43.8693325" lon="12.8722438"><ele>99.0</ele><time>2026-04-09T09:08:48.702Z</time></trkpt><trkpt lat="43.8694365" lon="12.8722295"><ele>100.0</ele><time>2026-04-09T09:08:49.702Z</time></trkpt><trkpt lat="43.8695315" lon="12.8722171"><ele>101.0</ele><time>2026-04-09T09:08:50.702Z</time></trkpt><trkpt lat="43.8696265" lon="12.8722001"><ele>102.0</ele><time>2026-04-09T09:08:51.702Z</time></trkpt><trkpt lat="43.8697169" lon="12.8721835"><ele>102.0</ele><time>2026-04-09T09:08:52.703Z</time></trkpt><trkpt lat="43.8697906" lon="12.8721709"><ele>102.0</ele><time>2026-04-09T09:08:53.703Z</time></trkpt><trkpt lat="43.86986" lon="12.8721585"><ele>102.0</ele><time>2026-04-09T09:08:54.703Z</time></trkpt><trkpt lat="43.869963" lon="12.8720849"><ele>102.0</ele><time>2026-04-09T09:08:56.703Z</time></trkpt><trkpt lat="43.8700402" lon="12.871979"><ele>102.0</ele><time>2026-04-09T09:08:58.702Z</time></trkpt><trkpt lat="43.8701036" lon="12.871852"><ele>102.6</ele><time>2026-04-09T09:09:00.702Z</time></trkpt><trkpt lat="43.8701287" lon="12.8717588"><ele>103.19999999999999</ele><time>2026-04-09T09:09:01.702Z</time></trkpt><trkpt lat="43.8701629" lon="12.8716666"><ele>103.8</ele><time>2026-04-09T09:09:02.702Z</time></trkpt><trkpt lat="43.8701948" lon="12.8715766"><ele>104.4</ele><time>2026-04-09T09:09:03.702Z</time></trkpt><trkpt lat="43.8702346" lon="12.871414"><ele>105.0</ele><time>2026-04-09T09:09:05.702Z</time></trkpt><trkpt lat="43.8702791" lon="12.8712668"><ele>105.0</ele><time>2026-04-09T09:09:07.703Z</time></trkpt><trkpt lat="43.8703101" lon="12.8711751"><ele>105.0</ele><time>2026-04-09T09:09:09.703Z</time></trkpt><trkpt lat="43.8702669" lon="12.8713026"><ele>105.0</ele><time>2026-04-09T09:09:21.703Z</time></trkpt><trkpt lat="43.8702318" lon="12.871414"><ele>105.0</ele><time>2026-04-09T09:09:22.702Z</time></trkpt><trkpt lat="43.8702068" lon="12.8715213"><ele>105.0</ele><time>2026-04-09T09:09:23.702Z</time></trkpt><trkpt lat="43.8701644" lon="12.8716205"><ele>105.0</ele><time>2026-04-09T09:09:24.702Z</time></trkpt><trkpt lat="43.8701466" lon="12.8717139"><ele>104.4</ele><time>2026-04-09T09:09:25.702Z</time></trkpt><trkpt lat="43.8700971" lon="12.8718663"><ele>103.8</ele><time>2026-04-09T09:09:27.703Z</time></trkpt><trkpt lat="43.8701298" lon="12.8719487"><ele>103.19999999999999</ele><time>2026-04-09T09:09:31.703Z</time></trkpt><trkpt lat="43.8702187" lon="12.8719471"><ele>102.6</ele><time>2026-04-09T09:09:33.703Z</time></trkpt><trkpt lat="43.8703189" lon="12.8719313"><ele>102.0</ele><time>2026-04-09T09:09:34.702Z</time></trkpt><trkpt lat="43.8703933" lon="12.8719274"><ele>102.85714285714286</ele><time>2026-04-09T09:09:35.703Z</time></trkpt><trkpt lat="43.8704642" lon="12.8719315"><ele>103.71428571428572</ele><time>2026-04-09T09:09:36.703Z</time></trkpt><trkpt lat="43.8705345" lon="12.8719427"><ele>104.57142857142857</ele><time>2026-04-09T09:09:37.703Z</time></trkpt><trkpt lat="43.8706069" lon="12.8719618"><ele>105.42857142857143</ele><time>2026-04-09T09:09:38.702Z</time></trkpt><trkpt lat="43.8706727" lon="12.8719775"><ele>106.28571428571428</ele><time>2026-04-09T09:09:39.702Z</time></trkpt><trkpt lat="43.8707359" lon="12.8720036"><ele>107.14285714285714</ele><time>2026-04-09T09:09:40.702Z</time></trkpt><trkpt lat="43.8708059" lon="12.8720324"><ele>108.0</ele><time>2026-04-09T09:09:41.702Z</time></trkpt><trkpt lat="43.8708772" lon="12.8720606"><ele>108.0</ele><time>2026-04-09T09:09:42.702Z</time></trkpt><trkpt lat="43.8709402" lon="12.8720947"><ele>108.00000000000001</ele><time>2026-04-09T09:09:43.702Z</time></trkpt><trkpt lat="43.8710438" lon="12.8721432"><ele>108.00000000000001</ele><time>2026-04-09T09:09:45.703Z</time></trkpt><trkpt lat="43.871113" lon="12.8721093"><ele>108.0</ele><time>2026-04-09T09:09:48.703Z</time></trkpt><trkpt lat="43.8709989" lon="12.8720642"><ele>108.0</ele><time>2026-04-09T09:09:55.702Z</time></trkpt><trkpt lat="43.8709128" lon="12.8720291"><ele>108.0</ele><time>2026-04-09T09:09:56.702Z</time></trkpt><trkpt lat="43.8708173" lon="12.8719851"><ele>108.00000000000001</ele><time>2026-04-09T09:09:57.702Z</time></trkpt><trkpt lat="43.870718" lon="12.8719522"><ele>108.00000000000001</ele><time>2026-04-09T09:09:58.702Z</time></trkpt><trkpt lat="43.8706255" lon="12.8719223"><ele>108.0</ele><time>2026-04-09T09:09:59.702Z</time></trkpt><trkpt lat="43.8705412" lon="12.8719012"><ele>108.0</ele><time>2026-04-09T09:10:00.702Z</time></trkpt><trkpt lat="43.8704576" lon="12.8718922"><ele>108.0</ele><time>2026-04-09T09:10:01.703Z</time></trkpt><trkpt lat="43.8703682" lon="12.871893"><ele>108.0</ele><time>2026-04-09T09:10:02.702Z</time></trkpt><trkpt lat="43.8702931" lon="12.8719044"><ele>108.0</ele><time>2026-04-09T09:10:03.703Z</time></trkpt><trkpt lat="43.8702313" lon="12.8719283"><ele>108.0</ele><time>2026-04-09T09:10:04.702Z</time></trkpt><trkpt lat="43.8701343" lon="12.8719412"><ele>108.0</ele><time>2026-04-09T09:10:06.702Z</time></trkpt><trkpt lat="43.8700531" lon="12.8719664"><ele>108.0</ele><time>2026-04-09T09:10:09.703Z</time></trkpt><trkpt lat="43.8700112" lon="12.8720325"><ele>108.0</ele><time>2026-04-09T09:10:11.702Z</time></trkpt><trkpt lat="43.8700334" lon="12.8721264"><ele>108.0</ele><time>2026-04-09T09:10:13.703Z</time></trkpt><trkpt lat="43.8701018" lon="12.8722651"><ele>108.0</ele><time>2026-04-09T09:10:15.703Z</time></trkpt><trkpt lat="43.8701435" lon="12.8723435"><ele>108.0</ele><time>2026-04-09T09:10:16.702Z</time></trkpt><trkpt lat="43.8701868" lon="12.8724254"><ele>108.0</ele><time>2026-04-09T09:10:17.703Z</time></trkpt><trkpt lat="43.8702361" lon="12.8725086"><ele>108.0</ele><time>2026-04-09T09:10:18.702Z</time></trkpt><trkpt lat="43.8702882" lon="12.8726056"><ele>108.2</ele><time>2026-04-09T09:10:19.703Z</time></trkpt><trkpt lat="43.8703408" lon="12.8727075"><ele>108.4</ele><time>2026-04-09T09:10:20.702Z</time></trkpt><trkpt lat="43.8703951" lon="12.8728077"><ele>108.60000000000001</ele><time>2026-04-09T09:10:21.702Z</time></trkpt><trkpt lat="43.8704531" lon="12.8729157"><ele>108.80000000000001</ele><time>2026-04-09T09:10:22.702Z</time></trkpt><trkpt lat="43.8705126" lon="12.87303"><ele>109.0</ele><time>2026-04-09T09:10:23.702Z</time></trkpt><trkpt lat="43.8705738" lon="12.873146"><ele>109.0</ele><time>2026-04-09T09:10:24.702Z</time></trkpt><trkpt lat="43.8706362" lon="12.873264"><ele>109.0</ele><time>2026-04-09T09:10:25.702Z</time></trkpt><trkpt lat="43.8706955" lon="12.8733798"><ele>109.0</ele><time>2026-04-09T09:10:26.702Z</time></trkpt><trkpt lat="43.8707581" lon="12.8734963"><ele>109.0</ele><time>2026-04-09T09:10:27.703Z</time></trkpt><trkpt lat="43.8708205" lon="12.8736168"><ele>109.0</ele><time>2026-04-09T09:10:28.702Z</time></trkpt><trkpt lat="43.8708782" lon="12.8737299"><ele>109.6</ele><time>2026-04-09T09:10:29.703Z</time></trkpt><trkpt lat="43.8709369" lon="12.8738414"><ele>110.2</ele><time>2026-04-09T09:10:30.702Z</time></trkpt><trkpt lat="43.8709917" lon="12.8739498"><ele>110.79999999999998</ele><time>2026-04-09T09:10:31.702Z</time></trkpt><trkpt lat="43.8710473" lon="12.8740575"><ele>111.39999999999999</ele><time>2026-04-09T09:10:32.702Z</time></trkpt><trkpt lat="43.8711003" lon="12.874164"><ele>112.0</ele><time>2026-04-09T09:10:33.702Z</time></trkpt><trkpt lat="43.8711559" lon="12.874274"><ele>115.19999999999999</ele><time>2026-04-09T09:10:34.702Z</time></trkpt><trkpt lat="43.8712083" lon="12.8743764"><ele>118.39999999999999</ele><time>2026-04-09T09:10:35.703Z</time></trkpt><trkpt lat="43.8712621" lon="12.8744787"><ele>121.60000000000001</ele><time>2026-04-09T09:10:36.703Z</time></trkpt><trkpt lat="43.8713145" lon="12.8745805"><ele>124.80000000000001</ele><time>2026-04-09T09:10:37.702Z</time></trkpt><trkpt lat="43.871366" lon="12.8746764"><ele>128.0</ele><time>2026-04-09T09:10:38.703Z</time></trkpt><trkpt lat="43.8714203" lon="12.8747795"><ele>127.99999999999999</ele><time>2026-04-09T09:10:39.703Z</time></trkpt><trkpt lat="43.8714779" lon="12.8748766"><ele>128.0</ele><time>2026-04-09T09:10:40.703Z</time></trkpt><trkpt lat="43.8715273" lon="12.874969"><ele>128.0</ele><time>2026-04-09T09:10:41.702Z</time></trkpt><trkpt lat="43.8715704" lon="12.8750579"><ele>128.0</ele><time>2026-04-09T09:10:42.703Z</time></trkpt><trkpt lat="43.8716179" lon="12.875144"><ele>127.99999999999999</ele><time>2026-04-09T09:10:43.702Z</time></trkpt><trkpt lat="43.8716692" lon="12.8752394"><ele>128.0</ele><time>2026-04-09T09:10:44.702Z</time></trkpt><trkpt lat="43.8717197" lon="12.8753402"><ele>129.5</ele><time>2026-04-09T09:10:45.702Z</time></trkpt><trkpt lat="43.8717643" lon="12.8754384"><ele>131.0</ele><time>2026-04-09T09:10:46.703Z</time></trkpt><trkpt lat="43.8718094" lon="12.8755262"><ele>132.5</ele><time>2026-04-09T09:10:47.702Z</time></trkpt><trkpt lat="43.8718552" lon="12.8756119"><ele>134.0</ele><time>2026-04-09T09:10:48.703Z</time></trkpt><trkpt lat="43.8718975" lon="12.8757051"><ele>135.5</ele><time>2026-04-09T09:10:49.702Z</time></trkpt><trkpt lat="43.8719348" lon="12.875793"><ele>137.0</ele><time>2026-04-09T09:10:50.702Z</time></trkpt><trkpt lat="43.8719694" lon="12.8758732"><ele>140.0</ele><time>2026-04-09T09:10:51.702Z</time></trkpt><trkpt lat="43.872008" lon="12.8759512"><ele>143.0</ele><time>2026-04-09T09:10:52.702Z</time></trkpt><trkpt lat="43.8720495" lon="12.8760274"><ele>146.0</ele><time>2026-04-09T09:10:53.702Z</time></trkpt><trkpt lat="43.8720943" lon="12.8761131"><ele>149.0</ele><time>2026-04-09T09:10:54.702Z</time></trkpt><trkpt lat="43.872139" lon="12.8761999"><ele>152.0</ele><time>2026-04-09T09:10:55.703Z</time></trkpt><trkpt lat="43.8721854" lon="12.8762808"><ele>155.0</ele><time>2026-04-09T09:10:56.702Z</time></trkpt><trkpt lat="43.8722536" lon="12.8763992"><ele>155.0</ele><time>2026-04-09T09:10:58.702Z</time></trkpt><trkpt lat="43.8723133" lon="12.8765193"><ele>155.0</ele><time>2026-04-09T09:11:00.703Z</time></trkpt><trkpt lat="43.8723715" lon="12.876633"><ele>155.0</ele><time>2026-04-09T09:11:02.702Z</time></trkpt><trkpt lat="43.8724201" lon="12.8767393"><ele>155.0</ele><time>2026-04-09T09:11:04.702Z</time></trkpt><trkpt lat="43.8724837" lon="12.8768669"><ele>155.0</ele><time>2026-04-09T09:11:06.702Z</time></trkpt><trkpt lat="43.8725252" lon="12.8769345"><ele>157.4</ele><time>2026-04-09T09:11:07.702Z</time></trkpt><trkpt lat="43.8725679" lon="12.8770012"><ele>159.8</ele><time>2026-04-09T09:11:08.702Z</time></trkpt><trkpt lat="43.8726345" lon="12.8771444"><ele>162.2</ele><time>2026-04-09T09:11:10.703Z</time></trkpt><trkpt lat="43.8726991" lon="12.8772635"><ele>164.6</ele><time>2026-04-09T09:11:12.702Z</time></trkpt><trkpt lat="43.872766" lon="12.8773353"><ele>167.0</ele><time>2026-04-09T09:11:14.702Z</time></trkpt><trkpt lat="43.8728597" lon="12.877373"><ele>168.8</ele><time>2026-04-09T09:11:16.702Z</time></trkpt><trkpt lat="43.8729455" lon="12.8774018"><ele>170.6</ele><time>2026-04-09T09:11:18.703Z</time></trkpt><trkpt lat="43.8730233" lon="12.877449"><ele>172.4</ele><time>2026-04-09T09:11:20.702Z</time></trkpt><trkpt lat="43.8730999" lon="12.8775451"><ele>174.20000000000002</ele><time>2026-04-09T09:11:22.702Z</time></trkpt><trkpt lat="43.8731836" lon="12.8776403"><ele>176.0</ele><time>2026-04-09T09:11:24.702Z</time></trkpt><trkpt lat="43.8732678" lon="12.8777549"><ele>176.83333333333331</ele><time>2026-04-09T09:11:26.702Z</time></trkpt><trkpt lat="43.8733168" lon="12.8778118"><ele>177.66666666666666</ele><time>2026-04-09T09:11:27.702Z</time></trkpt><trkpt lat="43.8734039" lon="12.8778692"><ele>178.5</ele><time>2026-04-09T09:11:29.703Z</time></trkpt><trkpt lat="43.8734516" lon="12.8779279"><ele>179.33333333333334</ele><time>2026-04-09T09:11:34.702Z</time></trkpt><trkpt lat="43.8735444" lon="12.8778982"><ele>180.16666666666669</ele><time>2026-04-09T09:11:38.659Z</time></trkpt><trkpt lat="43.8736449" lon="12.8778143"><ele>181.0</ele><time>2026-04-09T09:11:39.702Z</time></trkpt><trkpt lat="43.8737198" lon="12.8777572"><ele>181.0</ele><time>2026-04-09T09:11:40.702Z</time></trkpt><trkpt lat="43.8737836" lon="12.8776996"><ele>181.0</ele><time>2026-04-09T09:11:41.703Z</time></trkpt><trkpt lat="43.8738377" lon="12.8776533"><ele>181.0</ele><time>2026-04-09T09:11:42.703Z</time></trkpt><trkpt lat="43.8739268" lon="12.8775973"><ele>181.0</ele><time>2026-04-09T09:11:44.702Z</time></trkpt><trkpt lat="43.874013" lon="12.8776773"><ele>181.0</ele><time>2026-04-09T09:11:46.703Z</time></trkpt><trkpt lat="43.8740622" lon="12.8777366"><ele>181.0</ele><time>2026-04-09T09:11:47.702Z</time></trkpt><trkpt lat="43.8741858" lon="12.877829"><ele>181.0</ele><time>2026-04-09T09:11:49.703Z</time></trkpt><trkpt lat="43.874266" lon="12.8778652"><ele>181.0</ele><time>2026-04-09T09:11:50.703Z</time></trkpt><trkpt lat="43.8743364" lon="12.8778988"><ele>181.0</ele><time>2026-04-09T09:11:51.702Z</time></trkpt><trkpt lat="43.8744079" lon="12.8779271"><ele>181.0</ele><time>2026-04-09T09:11:52.702Z</time></trkpt><trkpt lat="43.8744728" lon="12.8779535"><ele>181.0</ele><time>2026-04-09T09:11:53.702Z</time></trkpt><trkpt lat="43.8746001" lon="12.8780153"><ele>181.0</ele><time>2026-04-09T09:11:55.702Z</time></trkpt><trkpt lat="43.8746989" lon="12.8781048"><ele>178.83333333333334</ele><time>2026-04-09T09:11:57.703Z</time></trkpt><trkpt lat="43.8747433" lon="12.878177"><ele>176.66666666666669</ele><time>2026-04-09T09:11:58.703Z</time></trkpt><trkpt lat="43.8747948" lon="12.8782495"><ele>174.5</ele><time>2026-04-09T09:11:59.702Z</time></trkpt><trkpt lat="43.8748394" lon="12.8783296"><ele>172.33333333333334</ele><time>2026-04-09T09:12:00.703Z</time></trkpt><trkpt lat="43.8749369" lon="12.8784768"><ele>170.16666666666666</ele><time>2026-04-09T09:12:02.702Z</time></trkpt><trkpt lat="43.8749797" lon="12.8785535"><ele>168.0</ele><time>2026-04-09T09:12:03.702Z</time></trkpt><trkpt lat="43.8750263" lon="12.8786206"><ele>164.4</ele><time>2026-04-09T09:12:04.703Z</time></trkpt><trkpt lat="43.8750774" lon="12.8786852"><ele>160.8</ele><time>2026-04-09T09:12:05.702Z</time></trkpt><trkpt lat="43.8751846" lon="12.8787147"><ele>157.2</ele><time>2026-04-09T09:12:07.702Z</time></trkpt><trkpt lat="43.8753088" lon="12.8786873"><ele>153.6</ele><time>2026-04-09T09:12:09.702Z</time></trkpt><trkpt lat="43.8754275" lon="12.8786888"><ele>150.0</ele><time>2026-04-09T09:12:11.703Z</time></trkpt><trkpt lat="43.8754905" lon="12.8786812"><ele>148.33333333333334</ele><time>2026-04-09T09:12:12.702Z</time></trkpt><trkpt lat="43.8755554" lon="12.8786699"><ele>146.66666666666666</ele><time>2026-04-09T09:12:13.702Z</time></trkpt><trkpt lat="43.8756181" lon="12.8786595"><ele>145.0</ele><time>2026-04-09T09:12:14.702Z</time></trkpt><trkpt lat="43.8756841" lon="12.8786737"><ele>143.33333333333331</ele><time>2026-04-09T09:12:15.702Z</time></trkpt><trkpt lat="43.8758131" lon="12.8786648"><ele>141.66666666666666</ele><time>2026-04-09T09:12:17.702Z</time></trkpt><trkpt lat="43.8759297" lon="12.8786913"><ele>140.0</ele><time>2026-04-09T09:12:19.703Z</time></trkpt><trkpt lat="43.8760255" lon="12.878688"><ele>137.33333333333331</ele><time>2026-04-09T09:12:21.703Z</time></trkpt><trkpt lat="43.876092" lon="12.8786391"><ele>134.66666666666666</ele><time>2026-04-09T09:12:24.702Z</time></trkpt><trkpt lat="43.876169" lon="12.8786274"><ele>132.0</ele><time>2026-04-09T09:12:27.703Z</time></trkpt><trkpt lat="43.876274" lon="12.8786336"><ele>129.33333333333334</ele><time>2026-04-09T09:12:29.702Z</time></trkpt><trkpt lat="43.8763854" lon="12.8786938"><ele>126.66666666666667</ele><time>2026-04-09T09:12:31.703Z</time></trkpt><trkpt lat="43.8764408" lon="12.8787446"><ele>124.0</ele><time>2026-04-09T09:12:32.702Z</time></trkpt><trkpt lat="43.8765071" lon="12.8788064"><ele>124.00000000000001</ele><time>2026-04-09T09:12:33.703Z</time></trkpt><trkpt lat="43.8765701" lon="12.8788465"><ele>124.0</ele><time>2026-04-09T09:12:34.702Z</time></trkpt><trkpt lat="43.8766388" lon="12.8788818"><ele>124.0</ele><time>2026-04-09T09:12:35.702Z</time></trkpt><trkpt lat="43.8767021" lon="12.8789237"><ele>124.0</ele><time>2026-04-09T09:12:36.702Z</time></trkpt><trkpt lat="43.8767748" lon="12.8789491"><ele>124.00000000000001</ele><time>2026-04-09T09:12:37.702Z</time></trkpt><trkpt lat="43.8768468" lon="12.8789982"><ele>124.0</ele><time>2026-04-09T09:12:38.703Z</time></trkpt><trkpt lat="43.8769537" lon="12.8790538"><ele>121.4</ele><time>2026-04-09T09:12:40.703Z</time></trkpt><trkpt lat="43.8770449" lon="12.8790902"><ele>118.80000000000001</ele><time>2026-04-09T09:12:42.702Z</time></trkpt><trkpt lat="43.8771236" lon="12.8791163"><ele>116.19999999999999</ele><time>2026-04-09T09:12:44.702Z</time></trkpt><trkpt lat="43.8772051" lon="12.8791504"><ele>113.6</ele><time>2026-04-09T09:12:57.703Z</time></trkpt><trkpt lat="43.8773119" lon="12.8791474"><ele>111.0</ele><time>2026-04-09T09:12:59.702Z</time></trkpt><trkpt lat="43.8773937" lon="12.8791547"><ele>111.0</ele><time>2026-04-09T09:13:00.703Z</time></trkpt><trkpt lat="43.87747" lon="12.8791593"><ele>111.0</ele><time>2026-04-09T09:13:01.702Z</time></trkpt><trkpt lat="43.8775572" lon="12.8791566"><ele>111.0</ele><time>2026-04-09T09:13:02.702Z</time></trkpt><trkpt lat="43.8776451" lon="12.8791461"><ele>111.0</ele><time>2026-04-09T09:13:03.703Z</time></trkpt><trkpt lat="43.8777354" lon="12.8791278"><ele>111.0</ele><time>2026-04-09T09:13:04.702Z</time></trkpt><trkpt lat="43.8778258" lon="12.8791142"><ele>111.0</ele><time>2026-04-09T09:13:05.702Z</time></trkpt><trkpt lat="43.8779191" lon="12.8790991"><ele>110.83333333333333</ele><time>2026-04-09T09:13:06.702Z</time></trkpt><trkpt lat="43.8780155" lon="12.8790833"><ele>110.66666666666666</ele><time>2026-04-09T09:13:07.703Z</time></trkpt><trkpt lat="43.8781009" lon="12.8790688"><ele>110.5</ele><time>2026-04-09T09:13:08.703Z</time></trkpt><trkpt lat="43.8781898" lon="12.8790664"><ele>110.33333333333333</ele><time>2026-04-09T09:13:09.703Z</time></trkpt><trkpt lat="43.8782652" lon="12.8790569"><ele>110.16666666666666</ele><time>2026-04-09T09:13:10.703Z</time></trkpt><trkpt lat="43.8783324" lon="12.8790526"><ele>110.0</ele><time>2026-04-09T09:13:11.702Z</time></trkpt><trkpt lat="43.8784497" lon="12.8790732"><ele>110.0</ele><time>2026-04-09T09:13:13.703Z</time></trkpt><trkpt lat="43.8785162" lon="12.8790987"><ele>110.0</ele><time>2026-04-09T09:13:14.702Z</time></trkpt><trkpt lat="43.8785893" lon="12.8791694"><ele>110.0</ele><time>2026-04-09T09:13:15.702Z</time></trkpt><trkpt lat="43.8786602" lon="12.8792495"><ele>110.0</ele><time>2026-04-09T09:13:16.702Z</time></trkpt><trkpt lat="43.8787192" lon="12.8793598"><ele>110.0</ele><time>2026-04-09T09:13:17.702Z</time></trkpt><trkpt lat="43.878787" lon="12.8794862"><ele>110.0</ele><time>2026-04-09T09:13:18.703Z</time></trkpt><trkpt lat="43.8788465" lon="12.8796147"><ele>110.0</ele><time>2026-04-09T09:13:19.702Z</time></trkpt><trkpt lat="43.8789058" lon="12.879729"><ele>110.0</ele><time>2026-04-09T09:13:20.703Z</time></trkpt><trkpt lat="43.8789607" lon="12.8798493"><ele>110.0</ele><time>2026-04-09T09:13:21.703Z</time></trkpt><trkpt lat="43.8790148" lon="12.879963"><ele>110.0</ele><time>2026-04-09T09:13:22.703Z</time></trkpt><trkpt lat="43.8790608" lon="12.8800901"><ele>110.6</ele><time>2026-04-09T09:13:23.703Z</time></trkpt><trkpt lat="43.8791008" lon="12.8802246"><ele>111.2</ele><time>2026-04-09T09:13:24.702Z</time></trkpt><trkpt lat="43.8791345" lon="12.8803626"><ele>111.80000000000001</ele><time>2026-04-09T09:13:25.703Z</time></trkpt><trkpt lat="43.879172" lon="12.8805035"><ele>112.4</ele><time>2026-04-09T09:13:26.702Z</time></trkpt><trkpt lat="43.8792166" lon="12.8806428"><ele>113.0</ele><time>2026-04-09T09:13:27.702Z</time></trkpt><trkpt lat="43.8792596" lon="12.8807798"><ele>112.80000000000001</ele><time>2026-04-09T09:13:28.703Z</time></trkpt><trkpt lat="43.8793163" lon="12.8809124"><ele>112.60000000000001</ele><time>2026-04-09T09:13:29.703Z</time></trkpt><trkpt lat="43.8793842" lon="12.8810378"><ele>112.39999999999999</ele><time>2026-04-09T09:13:30.702Z</time></trkpt><trkpt lat="43.8794616" lon="12.881144"><ele>112.19999999999999</ele><time>2026-04-09T09:13:31.703Z</time></trkpt><trkpt lat="43.8795484" lon="12.8812502"><ele>112.0</ele><time>2026-04-09T09:13:32.702Z</time></trkpt><trkpt lat="43.8796391" lon="12.8813543"><ele>113.8</ele><time>2026-04-09T09:13:33.703Z</time></trkpt><trkpt lat="43.8797231" lon="12.8814526"><ele>115.6</ele><time>2026-04-09T09:13:34.703Z</time></trkpt><trkpt lat="43.879814" lon="12.8815441"><ele>117.39999999999999</ele><time>2026-04-09T09:13:35.702Z</time></trkpt><trkpt lat="43.8798925" lon="12.8816423"><ele>119.19999999999999</ele><time>2026-04-09T09:13:36.702Z</time></trkpt><trkpt lat="43.8799713" lon="12.881744"><ele>121.0</ele><time>2026-04-09T09:13:37.703Z</time></trkpt><trkpt lat="43.8800575" lon="12.881843"><ele>121.4</ele><time>2026-04-09T09:13:38.703Z</time></trkpt><trkpt lat="43.8801366" lon="12.8819435"><ele>121.8</ele><time>2026-04-09T09:13:39.702Z</time></trkpt><trkpt lat="43.8802131" lon="12.8820437"><ele>122.20000000000002</ele><time>2026-04-09T09:13:40.703Z</time></trkpt><trkpt lat="43.8802861" lon="12.882155"><ele>122.60000000000001</ele><time>2026-04-09T09:13:41.703Z</time></trkpt><trkpt lat="43.8803538" lon="12.8822637"><ele>123.0</ele><time>2026-04-09T09:13:42.702Z</time></trkpt><trkpt lat="43.8804207" lon="12.8823802"><ele>123.0</ele><time>2026-04-09T09:13:43.703Z</time></trkpt><trkpt lat="43.8804868" lon="12.8824886"><ele>123.00000000000001</ele><time>2026-04-09T09:13:44.702Z</time></trkpt><trkpt lat="43.8805278" lon="12.8826119"><ele>123.00000000000001</ele><time>2026-04-09T09:13:45.703Z</time></trkpt><trkpt lat="43.8805772" lon="12.8827439"><ele>123.0</ele><time>2026-04-09T09:13:46.703Z</time></trkpt><trkpt lat="43.8806038" lon="12.8828883"><ele>123.0</ele><time>2026-04-09T09:13:47.703Z</time></trkpt><trkpt lat="43.8806446" lon="12.883038"><ele>122.75</ele><time>2026-04-09T09:13:48.702Z</time></trkpt><trkpt lat="43.8806772" lon="12.8831965"><ele>122.5</ele><time>2026-04-09T09:13:49.702Z</time></trkpt><trkpt lat="43.8807105" lon="12.8833614"><ele>122.25</ele><time>2026-04-09T09:13:50.702Z</time></trkpt><trkpt lat="43.8807432" lon="12.8835192"><ele>122.0</ele><time>2026-04-09T09:13:51.703Z</time></trkpt><trkpt lat="43.8807723" lon="12.8836552"><ele>121.0</ele><time>2026-04-09T09:13:52.702Z</time></trkpt><trkpt lat="43.8807975" lon="12.8837897"><ele>119.99999999999999</ele><time>2026-04-09T09:13:53.702Z</time></trkpt><trkpt lat="43.8808201" lon="12.8839127"><ele>118.99999999999999</ele><time>2026-04-09T09:13:54.703Z</time></trkpt><trkpt lat="43.8808386" lon="12.8840409"><ele>118.0</ele><time>2026-04-09T09:13:55.702Z</time></trkpt><trkpt lat="43.8808582" lon="12.8841527"><ele>117.0</ele><time>2026-04-09T09:13:56.702Z</time></trkpt><trkpt lat="43.8808791" lon="12.8842678"><ele>116.16666666666667</ele><time>2026-04-09T09:13:57.703Z</time></trkpt><trkpt lat="43.8808909" lon="12.8843833"><ele>115.33333333333334</ele><time>2026-04-09T09:13:58.702Z</time></trkpt><trkpt lat="43.8808906" lon="12.8845012"><ele>114.5</ele><time>2026-04-09T09:13:59.702Z</time></trkpt><trkpt lat="43.8808847" lon="12.8846281"><ele>113.66666666666667</ele><time>2026-04-09T09:14:00.703Z</time></trkpt><trkpt lat="43.8808659" lon="12.8847424"><ele>112.83333333333334</ele><time>2026-04-09T09:14:01.703Z</time></trkpt><trkpt lat="43.8808414" lon="12.8848538"><ele>112.0</ele><time>2026-04-09T09:14:02.702Z</time></trkpt><trkpt lat="43.8808178" lon="12.8849683"><ele>112.00000000000001</ele><time>2026-04-09T09:14:03.703Z</time></trkpt><trkpt lat="43.8807893" lon="12.885071"><ele>112.0</ele><time>2026-04-09T09:14:04.703Z</time></trkpt><trkpt lat="43.8807609" lon="12.8851705"><ele>112.0</ele><time>2026-04-09T09:14:05.702Z</time></trkpt><trkpt lat="43.8807343" lon="12.8852633"><ele>112.0</ele><time>2026-04-09T09:14:06.703Z</time></trkpt><trkpt lat="43.8807146" lon="12.8853517"><ele>112.00000000000001</ele><time>2026-04-09T09:14:07.703Z</time></trkpt><trkpt lat="43.8807" lon="12.8854369"><ele>112.0</ele><time>2026-04-09T09:14:08.703Z</time></trkpt><trkpt lat="43.8806778" lon="12.8856091"><ele>112.14285714285714</ele><time>2026-04-09T09:14:10.702Z</time></trkpt><trkpt lat="43.8806701" lon="12.8857084"><ele>112.28571428571428</ele><time>2026-04-09T09:14:11.703Z</time></trkpt><trkpt lat="43.8806621" lon="12.8858054"><ele>112.42857142857143</ele><time>2026-04-09T09:14:12.702Z</time></trkpt><trkpt lat="43.8806532" lon="12.8859077"><ele>112.57142857142857</ele><time>2026-04-09T09:14:13.703Z</time></trkpt><trkpt lat="43.8806495" lon="12.8860064"><ele>112.71428571428571</ele><time>2026-04-09T09:14:14.703Z</time></trkpt><trkpt lat="43.8806465" lon="12.886105"><ele>112.85714285714286</ele><time>2026-04-09T09:14:15.703Z</time></trkpt><trkpt lat="43.8806434" lon="12.8862041"><ele>113.0</ele><time>2026-04-09T09:14:16.702Z</time></trkpt><trkpt lat="43.8806327" lon="12.886311"><ele>112.66666666666666</ele><time>2026-04-09T09:14:17.702Z</time></trkpt><trkpt lat="43.8806251" lon="12.8864263"><ele>112.33333333333333</ele><time>2026-04-09T09:14:18.703Z</time></trkpt><trkpt lat="43.8806161" lon="12.8865453"><ele>112.0</ele><time>2026-04-09T09:14:19.702Z</time></trkpt><trkpt lat="43.8806154" lon="12.8866591"><ele>111.66666666666666</ele><time>2026-04-09T09:14:20.703Z</time></trkpt><trkpt lat="43.8806072" lon="12.8867828"><ele>111.33333333333333</ele><time>2026-04-09T09:14:21.702Z</time></trkpt><trkpt lat="43.8805975" lon="12.8869062"><ele>111.0</ele><time>2026-04-09T09:14:22.702Z</time></trkpt><trkpt lat="43.8805944" lon="12.8870326"><ele>111.0</ele><time>2026-04-09T09:14:23.702Z</time></trkpt><trkpt lat="43.8805926" lon="12.8871657"><ele>111.0</ele><time>2026-04-09T09:14:24.703Z</time></trkpt><trkpt lat="43.8805943" lon="12.8873013"><ele>111.0</ele><time>2026-04-09T09:14:25.703Z</time></trkpt><trkpt lat="43.8805981" lon="12.8874384"><ele>111.0</ele><time>2026-04-09T09:14:26.703Z</time></trkpt><trkpt lat="43.8806063" lon="12.8875827"><ele>111.0</ele><time>2026-04-09T09:14:27.703Z</time></trkpt><trkpt lat="43.8806151" lon="12.8877193"><ele>111.4</ele><time>2026-04-09T09:14:28.702Z</time></trkpt><trkpt lat="43.8806428" lon="12.8878498"><ele>111.8</ele><time>2026-04-09T09:14:29.702Z</time></trkpt><trkpt lat="43.8806775" lon="12.8879835"><ele>112.20000000000002</ele><time>2026-04-09T09:14:30.703Z</time></trkpt><trkpt lat="43.8807144" lon="12.8881162"><ele>112.60000000000001</ele><time>2026-04-09T09:14:31.702Z</time></trkpt><trkpt lat="43.8807333" lon="12.888242"><ele>113.0</ele><time>2026-04-09T09:14:32.703Z</time></trkpt><trkpt lat="43.8807575" lon="12.8883847"><ele>113.0</ele><time>2026-04-09T09:14:33.703Z</time></trkpt><trkpt lat="43.8807742" lon="12.8885128"><ele>113.00000000000001</ele><time>2026-04-09T09:14:34.703Z</time></trkpt><trkpt lat="43.880798" lon="12.8886493"><ele>113.00000000000001</ele><time>2026-04-09T09:14:35.703Z</time></trkpt><trkpt lat="43.8808156" lon="12.888783"><ele>113.0</ele><time>2026-04-09T09:14:36.703Z</time></trkpt><trkpt lat="43.8808428" lon="12.8889097"><ele>113.0</ele><time>2026-04-09T09:14:37.702Z</time></trkpt><trkpt lat="43.8808799" lon="12.8890289"><ele>113.0</ele><time>2026-04-09T09:14:38.702Z</time></trkpt><trkpt lat="43.8809257" lon="12.8891542"><ele>113.00000000000001</ele><time>2026-04-09T09:14:39.702Z</time></trkpt><trkpt lat="43.8810002" lon="12.8892877"><ele>113.00000000000001</ele><time>2026-04-09T09:14:40.702Z</time></trkpt><trkpt lat="43.8810619" lon="12.8894126"><ele>113.0</ele><time>2026-04-09T09:14:41.703Z</time></trkpt><trkpt lat="43.8811209" lon="12.8895392"><ele>113.0</ele><time>2026-04-09T09:14:42.702Z</time></trkpt><trkpt lat="43.8811803" lon="12.8896714"><ele>110.75</ele><time>2026-04-09T09:14:43.702Z</time></trkpt><trkpt lat="43.8812522" lon="12.8898052"><ele>108.5</ele><time>2026-04-09T09:14:44.702Z</time></trkpt><trkpt lat="43.8813239" lon="12.8899374"><ele>106.25</ele><time>2026-04-09T09:14:45.702Z</time></trkpt><trkpt lat="43.881408" lon="12.8900512"><ele>104.0</ele><time>2026-04-09T09:14:46.702Z</time></trkpt><trkpt lat="43.8814932" lon="12.8901654"><ele>104.0</ele><time>2026-04-09T09:14:47.703Z</time></trkpt><trkpt lat="43.8815773" lon="12.8902751"><ele>104.0</ele><time>2026-04-09T09:14:48.703Z</time></trkpt><trkpt lat="43.8816605" lon="12.8903713"><ele>104.0</ele><time>2026-04-09T09:14:49.702Z</time></trkpt><trkpt lat="43.8817503" lon="12.8904616"><ele>104.0</ele><time>2026-04-09T09:14:50.703Z</time></trkpt><trkpt lat="43.8818374" lon="12.890561"><ele>104.0</ele><time>2026-04-09T09:14:51.702Z</time></trkpt><trkpt lat="43.8819254" lon="12.8906451"><ele>101.80000000000001</ele><time>2026-04-09T09:14:52.703Z</time></trkpt><trkpt lat="43.8820137" lon="12.8907321"><ele>99.60000000000001</ele><time>2026-04-09T09:14:53.703Z</time></trkpt><trkpt lat="43.8821094" lon="12.8908343"><ele>97.4</ele><time>2026-04-09T09:14:54.702Z</time></trkpt><trkpt lat="43.8821921" lon="12.8909222"><ele>95.2</ele><time>2026-04-09T09:14:55.703Z</time></trkpt><trkpt lat="43.8822798" lon="12.8909976"><ele>93.0</ele><time>2026-04-09T09:14:56.702Z</time></trkpt><trkpt lat="43.8823756" lon="12.8910599"><ele>91.75</ele><time>2026-04-09T09:14:57.702Z</time></trkpt><trkpt lat="43.8824914" lon="12.891096"><ele>90.5</ele><time>2026-04-09T09:14:58.702Z</time></trkpt><trkpt lat="43.8826011" lon="12.8911441"><ele>89.25</ele><time>2026-04-09T09:14:59.703Z</time></trkpt><trkpt lat="43.8827223" lon="12.8911897"><ele>88.0</ele><time>2026-04-09T09:15:00.702Z</time></trkpt><trkpt lat="43.8828288" lon="12.8912366"><ele>88.0</ele><time>2026-04-09T09:15:01.702Z</time></trkpt><trkpt lat="43.8829415" lon="12.8912924"><ele>88.0</ele><time>2026-04-09T09:15:02.702Z</time></trkpt><trkpt lat="43.8830398" lon="12.8913566"><ele>88.0</ele><time>2026-04-09T09:15:03.702Z</time></trkpt><trkpt lat="43.8831405" lon="12.8914382"><ele>88.0</ele><time>2026-04-09T09:15:04.702Z</time></trkpt><trkpt lat="43.8832364" lon="12.8915272"><ele>88.0</ele><time>2026-04-09T09:15:05.703Z</time></trkpt><trkpt lat="43.8833197" lon="12.8916249"><ele>88.0</ele><time>2026-04-09T09:15:06.703Z</time></trkpt><trkpt lat="43.8833983" lon="12.8917257"><ele>88.0</ele><time>2026-04-09T09:15:07.702Z</time></trkpt><trkpt lat="43.8834748" lon="12.891822"><ele>88.0</ele><time>2026-04-09T09:15:08.702Z</time></trkpt><trkpt lat="43.8835513" lon="12.8919187"><ele>88.0</ele><time>2026-04-09T09:15:09.703Z</time></trkpt><trkpt lat="43.8836258" lon="12.8920254"><ele>88.33333333333333</ele><time>2026-04-09T09:15:10.702Z</time></trkpt><trkpt lat="43.8836929" lon="12.8921364"><ele>88.66666666666666</ele><time>2026-04-09T09:15:11.703Z</time></trkpt><trkpt lat="43.8837365" lon="12.8922355"><ele>89.0</ele><time>2026-04-09T09:15:12.703Z</time></trkpt><trkpt lat="43.8837632" lon="12.8923461"><ele>89.33333333333333</ele><time>2026-04-09T09:15:14.702Z</time></trkpt><trkpt lat="43.883789" lon="12.8924336"><ele>89.66666666666667</ele><time>2026-04-09T09:15:17.703Z</time></trkpt><trkpt lat="43.8838776" lon="12.8924667"><ele>90.0</ele><time>2026-04-09T09:15:25.702Z</time></trkpt><trkpt lat="43.8839738" lon="12.8925944"><ele>90.0</ele><time>2026-04-09T09:15:27.702Z</time></trkpt><trkpt lat="43.884026" lon="12.8926546"><ele>90.0</ele><time>2026-04-09T09:15:28.702Z</time></trkpt><trkpt lat="43.8840799" lon="12.8927068"><ele>90.0</ele><time>2026-04-09T09:15:29.702Z</time></trkpt><trkpt lat="43.8841424" lon="12.8927578"><ele>90.0</ele><time>2026-04-09T09:15:30.703Z</time></trkpt><trkpt lat="43.8841945" lon="12.8928128"><ele>90.0</ele><time>2026-04-09T09:15:31.702Z</time></trkpt><trkpt lat="43.884245" lon="12.8928683"><ele>90.0</ele><time>2026-04-09T09:15:32.703Z</time></trkpt><trkpt lat="43.8842952" lon="12.8929313"><ele>90.0</ele><time>2026-04-09T09:15:33.702Z</time></trkpt><trkpt lat="43.8843408" lon="12.8929991"><ele>92.83333333333333</ele><time>2026-04-09T09:15:34.702Z</time></trkpt><trkpt lat="43.8843917" lon="12.8930628"><ele>95.66666666666666</ele><time>2026-04-09T09:15:35.703Z</time></trkpt><trkpt lat="43.8844423" lon="12.8931255"><ele>98.5</ele><time>2026-04-09T09:15:36.703Z</time></trkpt><trkpt lat="43.8845072" lon="12.8931811"><ele>101.33333333333333</ele><time>2026-04-09T09:15:37.702Z</time></trkpt><trkpt lat="43.8845627" lon="12.89325"><ele>104.16666666666666</ele><time>2026-04-09T09:15:38.702Z</time></trkpt><trkpt lat="43.8846183" lon="12.8933183"><ele>107.0</ele><time>2026-04-09T09:15:39.702Z</time></trkpt><trkpt lat="43.8846899" lon="12.8934177"><ele>107.0</ele><time>2026-04-09T09:15:41.702Z</time></trkpt><trkpt lat="43.8847259" lon="12.8934933"><ele>106.99999999999999</ele><time>2026-04-09T09:15:44.703Z</time></trkpt><trkpt lat="43.8846769" lon="12.8933894"><ele>106.99999999999999</ele><time>2026-04-09T09:15:52.702Z</time></trkpt><trkpt lat="43.8845925" lon="12.8932879"><ele>107.0</ele><time>2026-04-09T09:15:54.702Z</time></trkpt><trkpt lat="43.8845462" lon="12.8932257"><ele>107.0</ele><time>2026-04-09T09:15:55.703Z</time></trkpt><trkpt lat="43.8844589" lon="12.8931128"><ele>106.99999999999999</ele><time>2026-04-09T09:15:57.702Z</time></trkpt><trkpt lat="43.8843708" lon="12.8929956"><ele>107.0</ele><time>2026-04-09T09:15:59.703Z</time></trkpt><trkpt lat="43.8843142" lon="12.8929319"><ele>107.0</ele><time>2026-04-09T09:16:00.702Z</time></trkpt><trkpt lat="43.8842632" lon="12.8928721"><ele>107.0</ele><time>2026-04-09T09:16:01.703Z</time></trkpt><trkpt lat="43.8842101" lon="12.8928199"><ele>106.99999999999999</ele><time>2026-04-09T09:16:02.703Z</time></trkpt><trkpt lat="43.8841547" lon="12.8927695"><ele>107.0</ele><time>2026-04-09T09:16:03.702Z</time></trkpt><trkpt lat="43.8840519" lon="12.8926705"><ele>103.6</ele><time>2026-04-09T09:16:05.703Z</time></trkpt><trkpt lat="43.8840046" lon="12.8926107"><ele>100.19999999999999</ele><time>2026-04-09T09:16:06.703Z</time></trkpt><trkpt lat="43.8839283" lon="12.8924949"><ele>96.8</ele><time>2026-04-09T09:16:08.703Z</time></trkpt><trkpt lat="43.8838458" lon="12.8923762"><ele>93.4</ele><time>2026-04-09T09:16:10.703Z</time></trkpt><trkpt lat="43.8837996" lon="12.8922945"><ele>90.0</ele><time>2026-04-09T09:16:11.702Z</time></trkpt><trkpt lat="43.8837423" lon="12.8921925"><ele>90.0</ele><time>2026-04-09T09:16:12.702Z</time></trkpt><trkpt lat="43.8836798" lon="12.8920751"><ele>90.0</ele><time>2026-04-09T09:16:13.702Z</time></trkpt><trkpt lat="43.8836076" lon="12.8919557"><ele>90.0</ele><time>2026-04-09T09:16:14.702Z</time></trkpt><trkpt lat="43.8835255" lon="12.8918371"><ele>90.0</ele><time>2026-04-09T09:16:15.702Z</time></trkpt><trkpt lat="43.8834317" lon="12.8917159"><ele>89.6</ele><time>2026-04-09T09:16:16.702Z</time></trkpt><trkpt lat="43.8833419" lon="12.8916099"><ele>89.2</ele><time>2026-04-09T09:16:17.703Z</time></trkpt><trkpt lat="43.8832691" lon="12.8915189"><ele>88.80000000000001</ele><time>2026-04-09T09:16:18.703Z</time></trkpt><trkpt lat="43.8831967" lon="12.8914523"><ele>88.4</ele><time>2026-04-09T09:16:19.703Z</time></trkpt><trkpt lat="43.8831371" lon="12.8914083"><ele>88.0</ele><time>2026-04-09T09:16:20.703Z</time></trkpt><trkpt lat="43.8830749" lon="12.89132"><ele>88.0</ele><time>2026-04-09T09:16:22.702Z</time></trkpt><trkpt lat="43.883114" lon="12.8911882"><ele>88.0</ele><time>2026-04-09T09:16:25.703Z</time></trkpt><trkpt lat="43.8831952" lon="12.8910615"><ele>88.0</ele><time>2026-04-09T09:16:27.702Z</time></trkpt><trkpt lat="43.8832736" lon="12.890947"><ele>88.0</ele><time>2026-04-09T09:16:29.702Z</time></trkpt><trkpt lat="43.8833311" lon="12.8908429"><ele>88.0</ele><time>2026-04-09T09:16:31.702Z</time></trkpt><trkpt lat="43.8833859" lon="12.8907256"><ele>90.80000000000001</ele><time>2026-04-09T09:16:33.703Z</time></trkpt><trkpt lat="43.8834483" lon="12.890613"><ele>93.6</ele><time>2026-04-09T09:16:35.702Z</time></trkpt><trkpt lat="43.8835086" lon="12.8905085"><ele>96.4</ele><time>2026-04-09T09:16:37.702Z</time></trkpt><trkpt lat="43.8835678" lon="12.8903905"><ele>99.19999999999999</ele><time>2026-04-09T09:16:39.702Z</time></trkpt><trkpt lat="43.8836185" lon="12.8902658"><ele>102.0</ele><time>2026-04-09T09:16:46.702Z</time></trkpt><trkpt lat="43.8836802" lon="12.8901429"><ele>101.0</ele><time>2026-04-09T09:16:48.702Z</time></trkpt><trkpt lat="43.8837538" lon="12.8900177"><ele>100.0</ele><time>2026-04-09T09:16:50.703Z</time></trkpt><trkpt lat="43.8838344" lon="12.8899056"><ele>99.0</ele><time>2026-04-09T09:16:52.702Z</time></trkpt><trkpt lat="43.8839332" lon="12.8897889"><ele>98.0</ele><time>2026-04-09T09:16:54.703Z</time></trkpt><trkpt lat="43.8839897" lon="12.8897287"><ele>97.0</ele><time>2026-04-09T09:16:55.702Z</time></trkpt><trkpt lat="43.8840455" lon="12.8896743"><ele>97.0</ele><time>2026-04-09T09:16:56.702Z</time></trkpt><trkpt lat="43.8841461" lon="12.8895862"><ele>97.0</ele><time>2026-04-09T09:16:58.702Z</time></trkpt><trkpt lat="43.8842595" lon="12.8894961"><ele>97.0</ele><time>2026-04-09T09:17:00.702Z</time></trkpt><trkpt lat="43.8843191" lon="12.8894538"><ele>97.0</ele><time>2026-04-09T09:17:01.702Z</time></trkpt><trkpt lat="43.8844246" lon="12.8893908"><ele>97.0</ele><time>2026-04-09T09:17:03.703Z</time></trkpt><trkpt lat="43.8845255" lon="12.8893326"><ele>98.0</ele><time>2026-04-09T09:17:05.703Z</time></trkpt><trkpt lat="43.884625" lon="12.8892869"><ele>99.0</ele><time>2026-04-09T09:17:07.702Z</time></trkpt><trkpt lat="43.8847187" lon="12.8892393"><ele>100.0</ele><time>2026-04-09T09:17:09.703Z</time></trkpt><trkpt lat="43.8848157" lon="12.8891823"><ele>101.0</ele><time>2026-04-09T09:17:11.702Z</time></trkpt><trkpt lat="43.8849298" lon="12.8891422"><ele>102.0</ele><time>2026-04-09T09:17:13.703Z</time></trkpt><trkpt lat="43.8850398" lon="12.8891102"><ele>96.8</ele><time>2026-04-09T09:17:15.702Z</time></trkpt><trkpt lat="43.8851487" lon="12.8890771"><ele>91.6</ele><time>2026-04-09T09:17:17.702Z</time></trkpt><trkpt lat="43.8852574" lon="12.88903"><ele>86.39999999999999</ele><time>2026-04-09T09:17:19.702Z</time></trkpt><trkpt lat="43.8853571" lon="12.8889271"><ele>81.19999999999999</ele><time>2026-04-09T09:17:21.703Z</time></trkpt><trkpt lat="43.8854077" lon="12.888858"><ele>76.0</ele><time>2026-04-09T09:17:22.703Z</time></trkpt><trkpt lat="43.8854529" lon="12.8887863"><ele>76.0</ele><time>2026-04-09T09:17:23.703Z</time></trkpt><trkpt lat="43.8854928" lon="12.8887164"><ele>76.0</ele><time>2026-04-09T09:17:24.703Z</time></trkpt><trkpt lat="43.8855322" lon="12.8886436"><ele>76.0</ele><time>2026-04-09T09:17:25.702Z</time></trkpt><trkpt lat="43.8855988" lon="12.8885139"><ele>76.0</ele><time>2026-04-09T09:17:27.703Z</time></trkpt><trkpt lat="43.8856647" lon="12.8883915"><ele>76.0</ele><time>2026-04-09T09:17:29.702Z</time></trkpt><trkpt lat="43.8857184" lon="12.8882764"><ele>74.8</ele><time>2026-04-09T09:17:31.702Z</time></trkpt><trkpt lat="43.8857693" lon="12.8881847"><ele>73.6</ele><time>2026-04-09T09:17:33.702Z</time></trkpt><trkpt lat="43.885817" lon="12.8880885"><ele>72.4</ele><time>2026-04-09T09:17:35.702Z</time></trkpt><trkpt lat="43.8858695" lon="12.8879797"><ele>71.2</ele><time>2026-04-09T09:17:37.702Z</time></trkpt><trkpt lat="43.885924" lon="12.8878477"><ele>70.0</ele><time>2026-04-09T09:17:39.702Z</time></trkpt><trkpt lat="43.885968" lon="12.887741"><ele>70.0</ele><time>2026-04-09T09:17:41.702Z</time></trkpt><trkpt lat="43.8860327" lon="12.8877258"><ele>70.0</ele><time>2026-04-09T09:17:44.643Z</time></trkpt><trkpt lat="43.886038" lon="12.8876164"><ele>70.0</ele><time>2026-04-09T09:17:47.702Z</time></trkpt><trkpt lat="43.885974" lon="12.887723"><ele>70.0</ele><time>2026-04-09T09:17:50.702Z</time></trkpt><trkpt lat="43.8859386" lon="12.8878017"><ele>70.0</ele><time>2026-04-09T09:17:51.702Z</time></trkpt><trkpt lat="43.8858637" lon="12.8879317"><ele>70.0</ele><time>2026-04-09T09:17:53.703Z</time></trkpt><trkpt lat="43.8857996" lon="12.8880799"><ele>70.0</ele><time>2026-04-09T09:17:55.702Z</time></trkpt><trkpt lat="43.8857661" lon="12.8881585"><ele>70.0</ele><time>2026-04-09T09:17:56.702Z</time></trkpt><trkpt lat="43.8857303" lon="12.8882335"><ele>70.0</ele><time>2026-04-09T09:17:57.703Z</time></trkpt><trkpt lat="43.8856929" lon="12.8883038"><ele>70.0</ele><time>2026-04-09T09:17:58.702Z</time></trkpt><trkpt lat="43.8856553" lon="12.8883753"><ele>70.0</ele><time>2026-04-09T09:17:59.703Z</time></trkpt><trkpt lat="43.8856245" lon="12.8884582"><ele>70.0</ele><time>2026-04-09T09:18:00.702Z</time></trkpt><trkpt lat="43.8855879" lon="12.8885375"><ele>70.0</ele><time>2026-04-09T09:18:01.702Z</time></trkpt><trkpt lat="43.8855511" lon="12.8886109"><ele>71.2</ele><time>2026-04-09T09:18:02.702Z</time></trkpt><trkpt lat="43.8855142" lon="12.8886853"><ele>72.4</ele><time>2026-04-09T09:18:03.702Z</time></trkpt><trkpt lat="43.8854769" lon="12.8887564"><ele>73.6</ele><time>2026-04-09T09:18:04.702Z</time></trkpt><trkpt lat="43.8854008" lon="12.8888838"><ele>74.8</ele><time>2026-04-09T09:18:06.702Z</time></trkpt><trkpt lat="43.8853085" lon="12.8889843"><ele>76.0</ele><time>2026-04-09T09:18:08.702Z</time></trkpt><trkpt lat="43.8852079" lon="12.8890458"><ele>76.0</ele><time>2026-04-09T09:18:10.702Z</time></trkpt><trkpt lat="43.8850973" lon="12.8890777"><ele>76.0</ele><time>2026-04-09T09:18:12.703Z</time></trkpt><trkpt lat="43.8849855" lon="12.8891089"><ele>76.0</ele><time>2026-04-09T09:18:14.702Z</time></trkpt><trkpt lat="43.8848833" lon="12.889141"><ele>76.0</ele><time>2026-04-09T09:18:16.703Z</time></trkpt><trkpt lat="43.8847775" lon="12.8891825"><ele>76.0</ele><time>2026-04-09T09:18:18.703Z</time></trkpt><trkpt lat="43.8846714" lon="12.8892263"><ele>80.19999999999999</ele><time>2026-04-09T09:18:20.703Z</time></trkpt><trkpt lat="43.8845683" lon="12.8892711"><ele>84.39999999999999</ele><time>2026-04-09T09:18:22.702Z</time></trkpt><trkpt lat="43.8844643" lon="12.8893359"><ele>88.6</ele><time>2026-04-09T09:18:24.703Z</time></trkpt><trkpt lat="43.8843507" lon="12.8894094"><ele>92.8</ele><time>2026-04-09T09:18:26.702Z</time></trkpt><trkpt lat="43.8842891" lon="12.8894513"><ele>97.0</ele><time>2026-04-09T09:18:27.703Z</time></trkpt><trkpt lat="43.8842328" lon="12.889493"><ele>97.0</ele><time>2026-04-09T09:18:28.702Z</time></trkpt><trkpt lat="43.8841248" lon="12.889569"><ele>97.0</ele><time>2026-04-09T09:18:30.703Z</time></trkpt><trkpt lat="43.8840169" lon="12.8896758"><ele>97.0</ele><time>2026-04-09T09:18:32.703Z</time></trkpt><trkpt lat="43.8839638" lon="12.8897336"><ele>97.0</ele><time>2026-04-09T09:18:33.702Z</time></trkpt><trkpt lat="43.883865" lon="12.8898376"><ele>97.0</ele><time>2026-04-09T09:18:35.703Z</time></trkpt><trkpt lat="43.8837856" lon="12.8899471"><ele>97.00000000000001</ele><time>2026-04-09T09:18:37.702Z</time></trkpt><trkpt lat="43.8837294" lon="12.890026"><ele>97.0</ele><time>2026-04-09T09:18:39.703Z</time></trkpt><trkpt lat="43.8836766" lon="12.8900876"><ele>97.0</ele><time>2026-04-09T09:18:41.702Z</time></trkpt><trkpt lat="43.883626" lon="12.8901888"><ele>97.0</ele><time>2026-04-09T09:18:44.703Z</time></trkpt><trkpt lat="43.8835983" lon="12.8902676"><ele>97.00000000000001</ele><time>2026-04-09T09:18:48.703Z</time></trkpt><trkpt lat="43.8835376" lon="12.8904124"><ele>97.0</ele><time>2026-04-09T09:20:00.702Z</time></trkpt><trkpt lat="43.8834717" lon="12.890493"><ele>96.0</ele><time>2026-04-09T09:20:01.702Z</time></trkpt><trkpt lat="43.8834049" lon="12.8906291"><ele>95.0</ele><time>2026-04-09T09:20:03.703Z</time></trkpt><trkpt lat="43.883347" lon="12.8907577"><ele>94.0</ele><time>2026-04-09T09:20:05.703Z</time></trkpt><trkpt lat="43.8832742" lon="12.8908876"><ele>93.0</ele><time>2026-04-09T09:20:07.703Z</time></trkpt><trkpt lat="43.8831987" lon="12.8909812"><ele>92.0</ele><time>2026-04-09T09:20:09.702Z</time></trkpt><trkpt lat="43.883141" lon="12.8910818"><ele>91.19999999999999</ele><time>2026-04-09T09:20:11.703Z</time></trkpt><trkpt lat="43.8830844" lon="12.8911687"><ele>90.4</ele><time>2026-04-09T09:20:13.702Z</time></trkpt><trkpt lat="43.8830359" lon="12.8912457"><ele>89.6</ele><time>2026-04-09T09:20:16.702Z</time></trkpt><trkpt lat="43.8830568" lon="12.891347"><ele>88.80000000000001</ele><time>2026-04-09T09:20:32.703Z</time></trkpt><trkpt lat="43.8831469" lon="12.8914213"><ele>88.0</ele><time>2026-04-09T09:20:34.702Z</time></trkpt><trkpt lat="43.8832479" lon="12.8915299"><ele>88.0</ele><time>2026-04-09T09:20:36.703Z</time></trkpt><trkpt lat="43.8833054" lon="12.8915901"><ele>88.0</ele><time>2026-04-09T09:20:37.703Z</time></trkpt><trkpt lat="43.8833707" lon="12.8916633"><ele>88.0</ele><time>2026-04-09T09:20:38.703Z</time></trkpt><trkpt lat="43.8834304" lon="12.8917431"><ele>88.0</ele><time>2026-04-09T09:20:39.703Z</time></trkpt><trkpt lat="43.8834863" lon="12.8918163"><ele>88.0</ele><time>2026-04-09T09:20:40.703Z</time></trkpt><trkpt lat="43.8835594" lon="12.8918964"><ele>88.0</ele><time>2026-04-09T09:20:41.703Z</time></trkpt><trkpt lat="43.8836136" lon="12.8919676"><ele>88.4</ele><time>2026-04-09T09:20:42.702Z</time></trkpt><trkpt lat="43.8836574" lon="12.8920329"><ele>88.80000000000001</ele><time>2026-04-09T09:20:43.703Z</time></trkpt><trkpt lat="43.883721" lon="12.8921651"><ele>89.2</ele><time>2026-04-09T09:20:45.703Z</time></trkpt><trkpt lat="43.8837613" lon="12.892274"><ele>89.6</ele><time>2026-04-09T09:20:47.703Z</time></trkpt><trkpt lat="43.8837628" lon="12.8923991"><ele>90.0</ele><time>2026-04-09T09:20:50.703Z</time></trkpt><trkpt lat="43.8837004" lon="12.8925337"><ele>90.0</ele><time>2026-04-09T09:20:52.703Z</time></trkpt><trkpt lat="43.8836434" lon="12.892619"><ele>90.0</ele><time>2026-04-09T09:20:53.703Z</time></trkpt><trkpt lat="43.8835859" lon="12.8926966"><ele>90.0</ele><time>2026-04-09T09:20:54.702Z</time></trkpt><trkpt lat="43.8835187" lon="12.8927888"><ele>90.0</ele><time>2026-04-09T09:20:55.703Z</time></trkpt><trkpt lat="43.8834427" lon="12.8928703"><ele>90.0</ele><time>2026-04-09T09:20:56.703Z</time></trkpt><trkpt lat="43.8833699" lon="12.8929518"><ele>90.0</ele><time>2026-04-09T09:20:57.703Z</time></trkpt><trkpt lat="43.8832961" lon="12.8930256"><ele>86.6</ele><time>2026-04-09T09:20:58.702Z</time></trkpt><trkpt lat="43.8832079" lon="12.893093"><ele>83.2</ele><time>2026-04-09T09:20:59.702Z</time></trkpt><trkpt lat="43.8831262" lon="12.8931721"><ele>79.8</ele><time>2026-04-09T09:21:00.702Z</time></trkpt><trkpt lat="43.8830541" lon="12.8932414"><ele>76.4</ele><time>2026-04-09T09:21:01.702Z</time></trkpt><trkpt lat="43.8829735" lon="12.8933242"><ele>73.0</ele><time>2026-04-09T09:21:02.702Z</time></trkpt><trkpt lat="43.8828966" lon="12.893406"><ele>72.33333333333333</ele><time>2026-04-09T09:21:03.702Z</time></trkpt><trkpt lat="43.8828196" lon="12.8934741"><ele>71.66666666666666</ele><time>2026-04-09T09:21:04.702Z</time></trkpt><trkpt lat="43.8827459" lon="12.8935423"><ele>71.0</ele><time>2026-04-09T09:21:05.703Z</time></trkpt><trkpt lat="43.8826697" lon="12.8936047"><ele>70.33333333333333</ele><time>2026-04-09T09:21:06.703Z</time></trkpt><trkpt lat="43.8825915" lon="12.8936603"><ele>69.66666666666667</ele><time>2026-04-09T09:21:07.702Z</time></trkpt><trkpt lat="43.8825173" lon="12.8937196"><ele>69.0</ele><time>2026-04-09T09:21:08.702Z</time></trkpt><trkpt lat="43.8824454" lon="12.893777"><ele>69.0</ele><time>2026-04-09T09:21:09.702Z</time></trkpt><trkpt lat="43.8823747" lon="12.8938396"><ele>69.0</ele><time>2026-04-09T09:21:10.702Z</time></trkpt><trkpt lat="43.8822909" lon="12.8939057"><ele>69.0</ele><time>2026-04-09T09:21:11.702Z</time></trkpt><trkpt lat="43.8822085" lon="12.893969"><ele>69.0</ele><time>2026-04-09T09:21:12.703Z</time></trkpt><trkpt lat="43.8821233" lon="12.8940173"><ele>69.0</ele><time>2026-04-09T09:21:13.702Z</time></trkpt><trkpt lat="43.8820262" lon="12.8940858"><ele>69.0</ele><time>2026-04-09T09:21:14.702Z</time></trkpt><trkpt lat="43.8819302" lon="12.894154"><ele>69.0</ele><time>2026-04-09T09:21:15.702Z</time></trkpt><trkpt lat="43.8818323" lon="12.8942313"><ele>69.0</ele><time>2026-04-09T09:21:16.702Z</time></trkpt><trkpt lat="43.8817542" lon="12.8943113"><ele>69.0</ele><time>2026-04-09T09:21:17.702Z</time></trkpt><trkpt lat="43.8816682" lon="12.8943819"><ele>69.0</ele><time>2026-04-09T09:21:18.703Z</time></trkpt><trkpt lat="43.8815888" lon="12.8944539"><ele>67.60000000000001</ele><time>2026-04-09T09:21:19.703Z</time></trkpt><trkpt lat="43.8815005" lon="12.8945196"><ele>66.2</ele><time>2026-04-09T09:21:20.702Z</time></trkpt><trkpt lat="43.881412" lon="12.8945865"><ele>64.80000000000001</ele><time>2026-04-09T09:21:21.702Z</time></trkpt><trkpt lat="43.8813245" lon="12.894653"><ele>63.400000000000006</ele><time>2026-04-09T09:21:22.703Z</time></trkpt><trkpt lat="43.8812407" lon="12.8947269"><ele>62.0</ele><time>2026-04-09T09:21:23.703Z</time></trkpt><trkpt lat="43.8811548" lon="12.8948005"><ele>62.0</ele><time>2026-04-09T09:21:24.702Z</time></trkpt><trkpt lat="43.8810729" lon="12.8948704"><ele>62.0</ele><time>2026-04-09T09:21:25.702Z</time></trkpt><trkpt lat="43.8809945" lon="12.8949499"><ele>62.0</ele><time>2026-04-09T09:21:26.703Z</time></trkpt><trkpt lat="43.8809159" lon="12.8950102"><ele>62.0</ele><time>2026-04-09T09:21:27.703Z</time></trkpt><trkpt lat="43.8808398" lon="12.8950747"><ele>62.0</ele><time>2026-04-09T09:21:28.703Z</time></trkpt><trkpt lat="43.8807686" lon="12.8951307"><ele>61.16666666666667</ele><time>2026-04-09T09:21:29.703Z</time></trkpt><trkpt lat="43.8807026" lon="12.8951973"><ele>60.333333333333336</ele><time>2026-04-09T09:21:30.703Z</time></trkpt><trkpt lat="43.8806397" lon="12.8952689"><ele>59.5</ele><time>2026-04-09T09:21:31.703Z</time></trkpt><trkpt lat="43.880568" lon="12.8953319"><ele>58.66666666666667</ele><time>2026-04-09T09:21:32.702Z</time></trkpt><trkpt lat="43.8804998" lon="12.8953991"><ele>57.833333333333336</ele><time>2026-04-09T09:21:33.703Z</time></trkpt><trkpt lat="43.8804346" lon="12.8954651"><ele>57.0</ele><time>2026-04-09T09:21:34.702Z</time></trkpt><trkpt lat="43.8803703" lon="12.8955327"><ele>57.0</ele><time>2026-04-09T09:21:35.702Z</time></trkpt><trkpt lat="43.8803058" lon="12.895601"><ele>57.0</ele><time>2026-04-09T09:21:36.702Z</time></trkpt><trkpt lat="43.8802447" lon="12.8956695"><ele>57.0</ele><time>2026-04-09T09:21:37.703Z</time></trkpt><trkpt lat="43.8801787" lon="12.8957426"><ele>57.0</ele><time>2026-04-09T09:21:38.703Z</time></trkpt><trkpt lat="43.8801143" lon="12.8958159"><ele>57.0</ele><time>2026-04-09T09:21:39.702Z</time></trkpt><trkpt lat="43.8800348" lon="12.895895"><ele>57.0</ele><time>2026-04-09T09:21:40.702Z</time></trkpt><trkpt lat="43.8799459" lon="12.8959797"><ele>54.8</ele><time>2026-04-09T09:21:41.703Z</time></trkpt><trkpt lat="43.8798559" lon="12.8960632"><ele>52.6</ele><time>2026-04-09T09:21:42.703Z</time></trkpt><trkpt lat="43.8797688" lon="12.8961468"><ele>50.4</ele><time>2026-04-09T09:21:43.703Z</time></trkpt><trkpt lat="43.879681" lon="12.8962288"><ele>48.199999999999996</ele><time>2026-04-09T09:21:44.703Z</time></trkpt><trkpt lat="43.8795909" lon="12.8963348"><ele>46.0</ele><time>2026-04-09T09:21:45.703Z</time></trkpt><trkpt lat="43.8795176" lon="12.8964422"><ele>46.0</ele><time>2026-04-09T09:21:46.702Z</time></trkpt><trkpt lat="43.8794495" lon="12.8965432"><ele>46.0</ele><time>2026-04-09T09:21:47.703Z</time></trkpt><trkpt lat="43.8793869" lon="12.8966373"><ele>46.0</ele><time>2026-04-09T09:21:48.702Z</time></trkpt><trkpt lat="43.8793384" lon="12.8967242"><ele>46.0</ele><time>2026-04-09T09:21:49.702Z</time></trkpt><trkpt lat="43.8792732" lon="12.896837"><ele>46.0</ele><time>2026-04-09T09:21:51.703Z</time></trkpt><trkpt lat="43.8791688" lon="12.8968369"><ele>43.16666666666667</ele><time>2026-04-09T09:21:54.703Z</time></trkpt><trkpt lat="43.8791098" lon="12.8967912"><ele>40.333333333333336</ele><time>2026-04-09T09:21:55.702Z</time></trkpt><trkpt lat="43.8790447" lon="12.8967173"><ele>37.5</ele><time>2026-04-09T09:21:56.702Z</time></trkpt><trkpt lat="43.8789513" lon="12.8966601"><ele>34.666666666666664</ele><time>2026-04-09T09:21:57.703Z</time></trkpt><trkpt lat="43.8788715" lon="12.8966197"><ele>31.833333333333332</ele><time>2026-04-09T09:21:58.702Z</time></trkpt><trkpt lat="43.8787748" lon="12.89658"><ele>29.0</ele><time>2026-04-09T09:21:59.702Z</time></trkpt><trkpt lat="43.8786784" lon="12.8965336"><ele>28.999999999999996</ele><time>2026-04-09T09:22:00.703Z</time></trkpt><trkpt lat="43.878598" lon="12.8964928"><ele>29.0</ele><time>2026-04-09T09:22:01.703Z</time></trkpt><trkpt lat="43.8785196" lon="12.8964636"><ele>29.0</ele><time>2026-04-09T09:22:02.703Z</time></trkpt><trkpt lat="43.8784515" lon="12.8964368"><ele>29.0</ele><time>2026-04-09T09:22:03.702Z</time></trkpt><trkpt lat="43.8783352" lon="12.896387"><ele>28.999999999999996</ele><time>2026-04-09T09:22:05.702Z</time></trkpt><trkpt lat="43.8782651" lon="12.8963244"><ele>29.0</ele><time>2026-04-09T09:22:06.702Z</time></trkpt><trkpt lat="43.8781826" lon="12.8962498"><ele>28.5</ele><time>2026-04-09T09:22:07.703Z</time></trkpt><trkpt lat="43.878095" lon="12.8961382"><ele>28.0</ele><time>2026-04-09T09:22:08.702Z</time></trkpt><trkpt lat="43.8779917" lon="12.8960309"><ele>27.5</ele><time>2026-04-09T09:22:09.703Z</time></trkpt><trkpt lat="43.8778928" lon="12.8959165"><ele>27.0</ele><time>2026-04-09T09:22:10.703Z</time></trkpt><trkpt lat="43.8777843" lon="12.8957987"><ele>28.0</ele><time>2026-04-09T09:22:11.702Z</time></trkpt><trkpt lat="43.8776779" lon="12.8956733"><ele>29.0</ele><time>2026-04-09T09:22:12.703Z</time></trkpt><trkpt lat="43.8775713" lon="12.8955412"><ele>30.0</ele><time>2026-04-09T09:22:13.703Z</time></trkpt><trkpt lat="43.8774577" lon="12.8954118"><ele>31.0</ele><time>2026-04-09T09:22:14.703Z</time></trkpt><trkpt lat="43.877349" lon="12.8952807"><ele>31.0</ele><time>2026-04-09T09:22:15.703Z</time></trkpt><trkpt lat="43.8772354" lon="12.8951543"><ele>31.0</ele><time>2026-04-09T09:22:16.703Z</time></trkpt><trkpt lat="43.8771207" lon="12.8950292"><ele>31.0</ele><time>2026-04-09T09:22:17.703Z</time></trkpt><trkpt lat="43.877007" lon="12.8948887"><ele>31.0</ele><time>2026-04-09T09:22:18.703Z</time></trkpt><trkpt lat="43.8768908" lon="12.8947474"><ele>30.333333333333336</ele><time>2026-04-09T09:22:19.702Z</time></trkpt><trkpt lat="43.8767746" lon="12.894605"><ele>29.666666666666664</ele><time>2026-04-09T09:22:20.702Z</time></trkpt><trkpt lat="43.8766592" lon="12.8944632"><ele>29.0</ele><time>2026-04-09T09:22:21.703Z</time></trkpt><trkpt lat="43.8765475" lon="12.8943257"><ele>30.75</ele><time>2026-04-09T09:22:22.703Z</time></trkpt><trkpt lat="43.8764274" lon="12.8941876"><ele>32.5</ele><time>2026-04-09T09:22:23.703Z</time></trkpt><trkpt lat="43.8763096" lon="12.8940587"><ele>34.25</ele><time>2026-04-09T09:22:24.702Z</time></trkpt><trkpt lat="43.8761946" lon="12.8939437"><ele>36.0</ele><time>2026-04-09T09:22:25.703Z</time></trkpt><trkpt lat="43.8760856" lon="12.8938274"><ele>36.0</ele><time>2026-04-09T09:22:26.702Z</time></trkpt><trkpt lat="43.8759806" lon="12.893717"><ele>36.0</ele><time>2026-04-09T09:22:27.702Z</time></trkpt><trkpt lat="43.8758774" lon="12.8936089"><ele>36.0</ele><time>2026-04-09T09:22:28.702Z</time></trkpt><trkpt lat="43.8757733" lon="12.8935011"><ele>36.0</ele><time>2026-04-09T09:22:29.702Z</time></trkpt><trkpt lat="43.8756665" lon="12.893395"><ele>35.25</ele><time>2026-04-09T09:22:30.702Z</time></trkpt><trkpt lat="43.8755686" lon="12.8932965"><ele>34.5</ele><time>2026-04-09T09:22:31.703Z</time></trkpt><trkpt lat="43.8754774" lon="12.8932012"><ele>33.75</ele><time>2026-04-09T09:22:32.702Z</time></trkpt><trkpt lat="43.8753812" lon="12.8930971"><ele>33.0</ele><time>2026-04-09T09:22:33.702Z</time></trkpt><trkpt lat="43.8752793" lon="12.8929956"><ele>33.0</ele><time>2026-04-09T09:22:34.703Z</time></trkpt><trkpt lat="43.8751754" lon="12.8928889"><ele>33.0</ele><time>2026-04-09T09:22:35.702Z</time></trkpt><trkpt lat="43.8750746" lon="12.8927819"><ele>33.0</ele><time>2026-04-09T09:22:36.702Z</time></trkpt><trkpt lat="43.8749799" lon="12.8926929"><ele>33.0</ele><time>2026-04-09T09:22:37.702Z</time></trkpt><trkpt lat="43.8749098" lon="12.892621"><ele>32.833333333333336</ele><time>2026-04-09T09:22:38.702Z</time></trkpt><trkpt lat="43.8748595" lon="12.8925217"><ele>32.666666666666664</ele><time>2026-04-09T09:22:40.703Z</time></trkpt><trkpt lat="43.8749481" lon="12.8924416"><ele>32.5</ele><time>2026-04-09T09:22:43.703Z</time></trkpt><trkpt lat="43.8750107" lon="12.8924097"><ele>32.33333333333333</ele><time>2026-04-09T09:22:44.703Z</time></trkpt><trkpt lat="43.8750989" lon="12.8923695"><ele>32.166666666666664</ele><time>2026-04-09T09:22:45.703Z</time></trkpt><trkpt lat="43.8751767" lon="12.8923309"><ele>32.0</ele><time>2026-04-09T09:22:46.702Z</time></trkpt><trkpt lat="43.875244" lon="12.8922928"><ele>32.666666666666664</ele><time>2026-04-09T09:22:47.703Z</time></trkpt><trkpt lat="43.8752993" lon="12.8922416"><ele>33.33333333333333</ele><time>2026-04-09T09:22:48.703Z</time></trkpt><trkpt lat="43.8753397" lon="12.8921628"><ele>34.0</ele><time>2026-04-09T09:22:49.703Z</time></trkpt><trkpt lat="43.8753477" lon="12.8920661"><ele>34.666666666666664</ele><time>2026-04-09T09:22:50.702Z</time></trkpt><trkpt lat="43.8753376" lon="12.8919555"><ele>35.333333333333336</ele><time>2026-04-09T09:22:51.703Z</time></trkpt><trkpt lat="43.8753164" lon="12.8918067"><ele>36.0</ele><time>2026-04-09T09:22:52.702Z</time></trkpt><trkpt lat="43.8753095" lon="12.8916431"><ele>36.75</ele><time>2026-04-09T09:22:53.702Z</time></trkpt><trkpt lat="43.8753182" lon="12.8914836"><ele>37.5</ele><time>2026-04-09T09:22:54.703Z</time></trkpt><trkpt lat="43.8753336" lon="12.8913206"><ele>38.25</ele><time>2026-04-09T09:22:55.702Z</time></trkpt><trkpt lat="43.875348" lon="12.8911504"><ele>39.0</ele><time>2026-04-09T09:22:56.702Z</time></trkpt><trkpt lat="43.8753691" lon="12.8909879"><ele>39.75</ele><time>2026-04-09T09:22:57.702Z</time></trkpt><trkpt lat="43.8753885" lon="12.8908164"><ele>40.5</ele><time>2026-04-09T09:22:58.702Z</time></trkpt><trkpt lat="43.8754167" lon="12.8906546"><ele>41.25</ele><time>2026-04-09T09:22:59.702Z</time></trkpt><trkpt lat="43.8754471" lon="12.8904938"><ele>42.0</ele><time>2026-04-09T09:23:00.702Z</time></trkpt><trkpt lat="43.8754745" lon="12.8903395"><ele>42.0</ele><time>2026-04-09T09:23:01.702Z</time></trkpt><trkpt lat="43.8755114" lon="12.8901856"><ele>42.0</ele><time>2026-04-09T09:23:02.702Z</time></trkpt><trkpt lat="43.8755499" lon="12.8900334"><ele>42.0</ele><time>2026-04-09T09:23:03.702Z</time></trkpt><trkpt lat="43.8755944" lon="12.8898896"><ele>42.0</ele><time>2026-04-09T09:23:04.702Z</time></trkpt><trkpt lat="43.8756526" lon="12.8897459"><ele>42.0</ele><time>2026-04-09T09:23:05.703Z</time></trkpt><trkpt lat="43.8757156" lon="12.8896145"><ele>42.0</ele><time>2026-04-09T09:23:06.703Z</time></trkpt><trkpt lat="43.8757814" lon="12.8894941"><ele>42.0</ele><time>2026-04-09T09:23:07.702Z</time></trkpt><trkpt lat="43.8758522" lon="12.8893736"><ele>42.0</ele><time>2026-04-09T09:23:08.703Z</time></trkpt><trkpt lat="43.8759332" lon="12.8892623"><ele>42.0</ele><time>2026-04-09T09:23:09.703Z</time></trkpt><trkpt lat="43.8760188" lon="12.8891483"><ele>43.0</ele><time>2026-04-09T09:23:10.702Z</time></trkpt><trkpt lat="43.8761071" lon="12.8890457"><ele>44.0</ele><time>2026-04-09T09:23:11.702Z</time></trkpt><trkpt lat="43.8762021" lon="12.8889465"><ele>45.0</ele><time>2026-04-09T09:23:12.703Z</time></trkpt><trkpt lat="43.8762953" lon="12.8888462"><ele>46.0</ele><time>2026-04-09T09:23:13.703Z</time></trkpt><trkpt lat="43.8763772" lon="12.888759"><ele>46.0</ele><time>2026-04-09T09:23:14.703Z</time></trkpt><trkpt lat="43.8764443" lon="12.8886835"><ele>46.0</ele><time>2026-04-09T09:23:15.702Z</time></trkpt><trkpt lat="43.8765142" lon="12.8886148"><ele>46.0</ele><time>2026-04-09T09:23:16.702Z</time></trkpt><trkpt lat="43.8765894" lon="12.8885483"><ele>46.0</ele><time>2026-04-09T09:23:17.702Z</time></trkpt><trkpt lat="43.8766706" lon="12.8884747"><ele>46.0</ele><time>2026-04-09T09:23:18.702Z</time></trkpt><trkpt lat="43.8767562" lon="12.8884096"><ele>47.4</ele><time>2026-04-09T09:23:19.703Z</time></trkpt><trkpt lat="43.8768436" lon="12.8883488"><ele>48.8</ele><time>2026-04-09T09:23:20.703Z</time></trkpt><trkpt lat="43.8769347" lon="12.8882812"><ele>50.199999999999996</ele><time>2026-04-09T09:23:21.703Z</time></trkpt><trkpt lat="43.8770152" lon="12.8882122"><ele>51.599999999999994</ele><time>2026-04-09T09:23:22.702Z</time></trkpt><trkpt lat="43.8770937" lon="12.8881442"><ele>53.0</ele><time>2026-04-09T09:23:23.702Z</time></trkpt><trkpt lat="43.877168" lon="12.8880784"><ele>53.00000000000001</ele><time>2026-04-09T09:23:24.703Z</time></trkpt><trkpt lat="43.8772284" lon="12.8880061"><ele>53.0</ele><time>2026-04-09T09:23:25.703Z</time></trkpt><trkpt lat="43.8772798" lon="12.8879234"><ele>53.0</ele><time>2026-04-09T09:23:26.702Z</time></trkpt><trkpt lat="43.8773184" lon="12.8878302"><ele>53.0</ele><time>2026-04-09T09:23:27.703Z</time></trkpt><trkpt lat="43.8773364" lon="12.8877133"><ele>53.00000000000001</ele><time>2026-04-09T09:23:28.703Z</time></trkpt><trkpt lat="43.8773389" lon="12.8875921"><ele>53.0</ele><time>2026-04-09T09:23:29.702Z</time></trkpt><trkpt lat="43.8773428" lon="12.8874794"><ele>54.333333333333336</ele><time>2026-04-09T09:23:30.703Z</time></trkpt><trkpt lat="43.8773491" lon="12.8873723"><ele>55.66666666666667</ele><time>2026-04-09T09:23:31.702Z</time></trkpt><trkpt lat="43.8773542" lon="12.8872671"><ele>57.0</ele><time>2026-04-09T09:23:32.702Z</time></trkpt><trkpt lat="43.8773703" lon="12.8871664"><ele>58.33333333333333</ele><time>2026-04-09T09:23:33.702Z</time></trkpt><trkpt lat="43.8773974" lon="12.8870691"><ele>59.666666666666664</ele><time>2026-04-09T09:23:34.702Z</time></trkpt><trkpt lat="43.8774346" lon="12.8869694"><ele>61.0</ele><time>2026-04-09T09:23:35.702Z</time></trkpt><trkpt lat="43.8774716" lon="12.8868668"><ele>60.99999999999999</ele><time>2026-04-09T09:23:36.703Z</time></trkpt><trkpt lat="43.8775098" lon="12.8867701"><ele>61.0</ele><time>2026-04-09T09:23:37.703Z</time></trkpt><trkpt lat="43.8775528" lon="12.8866702"><ele>61.0</ele><time>2026-04-09T09:23:38.702Z</time></trkpt><trkpt lat="43.8776031" lon="12.8865842"><ele>61.0</ele><time>2026-04-09T09:23:39.702Z</time></trkpt><trkpt lat="43.8776543" lon="12.8865174"><ele>60.99999999999999</ele><time>2026-04-09T09:23:40.703Z</time></trkpt><trkpt lat="43.8777447" lon="12.8864453"><ele>61.0</ele><time>2026-04-09T09:23:42.703Z</time></trkpt><trkpt lat="43.8778043" lon="12.8863941"><ele>64.0</ele><time>2026-04-09T09:23:44.703Z</time></trkpt><trkpt lat="43.8778868" lon="12.8863248"><ele>67.0</ele><time>2026-04-09T09:23:53.702Z</time></trkpt><trkpt lat="43.8779826" lon="12.8862526"><ele>70.0</ele><time>2026-04-09T09:23:55.702Z</time></trkpt><trkpt lat="43.8780911" lon="12.886215"><ele>73.0</ele><time>2026-04-09T09:23:57.702Z</time></trkpt><trkpt lat="43.878206" lon="12.8862086"><ele>76.0</ele><time>2026-04-09T09:23:59.702Z</time></trkpt><trkpt lat="43.8782695" lon="12.8861959"><ele>76.0</ele><time>2026-04-09T09:24:00.702Z</time></trkpt><trkpt lat="43.8783356" lon="12.8861695"><ele>76.0</ele><time>2026-04-09T09:24:01.703Z</time></trkpt><trkpt lat="43.8784029" lon="12.8861418"><ele>76.0</ele><time>2026-04-09T09:24:02.702Z</time></trkpt><trkpt lat="43.8784734" lon="12.8861161"><ele>76.0</ele><time>2026-04-09T09:24:03.703Z</time></trkpt><trkpt lat="43.8785389" lon="12.8860862"><ele>76.0</ele><time>2026-04-09T09:24:04.703Z</time></trkpt><trkpt lat="43.8786092" lon="12.8860698"><ele>76.0</ele><time>2026-04-09T09:24:05.703Z</time></trkpt><trkpt lat="43.87868" lon="12.8860588"><ele>76.0</ele><time>2026-04-09T09:24:06.703Z</time></trkpt><trkpt lat="43.8787513" lon="12.8860547"><ele>77.71428571428571</ele><time>2026-04-09T09:24:07.702Z</time></trkpt><trkpt lat="43.8788226" lon="12.886052"><ele>79.42857142857143</ele><time>2026-04-09T09:24:08.702Z</time></trkpt><trkpt lat="43.8788932" lon="12.8860484"><ele>81.14285714285714</ele><time>2026-04-09T09:24:09.702Z</time></trkpt><trkpt lat="43.8789641" lon="12.8860433"><ele>82.85714285714286</ele><time>2026-04-09T09:24:10.702Z</time></trkpt><trkpt lat="43.8790337" lon="12.8860388"><ele>84.57142857142857</ele><time>2026-04-09T09:24:11.702Z</time></trkpt><trkpt lat="43.8791021" lon="12.8860345"><ele>86.28571428571429</ele><time>2026-04-09T09:24:12.702Z</time></trkpt><trkpt lat="43.8791682" lon="12.8860362"><ele>88.0</ele><time>2026-04-09T09:24:13.703Z</time></trkpt><trkpt lat="43.8792372" lon="12.8860391"><ele>90.57142857142857</ele><time>2026-04-09T09:24:14.703Z</time></trkpt><trkpt lat="43.8793033" lon="12.8860419"><ele>93.14285714285714</ele><time>2026-04-09T09:24:15.702Z</time></trkpt><trkpt lat="43.8793741" lon="12.8860496"><ele>95.71428571428572</ele><time>2026-04-09T09:24:16.703Z</time></trkpt><trkpt lat="43.879446" lon="12.8860578"><ele>98.28571428571428</ele><time>2026-04-09T09:24:17.702Z</time></trkpt><trkpt lat="43.8795176" lon="12.8860627"><ele>100.85714285714285</ele><time>2026-04-09T09:24:18.702Z</time></trkpt><trkpt lat="43.879585" lon="12.8860676"><ele>103.42857142857143</ele><time>2026-04-09T09:24:19.702Z</time></trkpt><trkpt lat="43.8796531" lon="12.8860704"><ele>106.0</ele><time>2026-04-09T09:24:20.702Z</time></trkpt><trkpt lat="43.8797226" lon="12.8860763"><ele>106.0</ele><time>2026-04-09T09:24:21.702Z</time></trkpt><trkpt lat="43.879787" lon="12.8860823"><ele>106.0</ele><time>2026-04-09T09:24:22.702Z</time></trkpt><trkpt lat="43.8798514" lon="12.8860865"><ele>106.0</ele><time>2026-04-09T09:24:23.702Z</time></trkpt><trkpt lat="43.8799167" lon="12.886096"><ele>106.0</ele><time>2026-04-09T09:24:24.703Z</time></trkpt><trkpt lat="43.879983" lon="12.8861074"><ele>106.0</ele><time>2026-04-09T09:24:25.703Z</time></trkpt><trkpt lat="43.8800476" lon="12.8861252"><ele>106.0</ele><time>2026-04-09T09:24:26.702Z</time></trkpt><trkpt lat="43.8801079" lon="12.8861539"><ele>106.0</ele><time>2026-04-09T09:24:27.702Z</time></trkpt><trkpt lat="43.880222" lon="12.8862083"><ele>106.8</ele><time>2026-04-09T09:24:29.703Z</time></trkpt><trkpt lat="43.8803208" lon="12.8862423"><ele>107.6</ele><time>2026-04-09T09:24:31.703Z</time></trkpt><trkpt lat="43.8804145" lon="12.8862623"><ele>108.4</ele><time>2026-04-09T09:24:33.702Z</time></trkpt><trkpt lat="43.8804998" lon="12.8862407"><ele>109.2</ele><time>2026-04-09T09:24:35.703Z</time></trkpt><trkpt lat="43.880575" lon="12.8862403"><ele>110.0</ele><time>2026-04-09T09:24:38.703Z</time></trkpt><trkpt lat="43.880616" lon="12.8863538"><ele>109.99999999999999</ele><time>2026-04-09T09:24:41.703Z</time></trkpt><trkpt lat="43.8806187" lon="12.8864458"><ele>110.0</ele><time>2026-04-09T09:24:42.702Z</time></trkpt><trkpt lat="43.8806071" lon="12.8865511"><ele>110.0</ele><time>2026-04-09T09:24:43.702Z</time></trkpt><trkpt lat="43.8805919" lon="12.8866804"><ele>110.0</ele><time>2026-04-09T09:24:44.703Z</time></trkpt><trkpt lat="43.8805856" lon="12.8868145"><ele>109.99999999999999</ele><time>2026-04-09T09:24:45.703Z</time></trkpt><trkpt lat="43.8805906" lon="12.8869474"><ele>110.0</ele><time>2026-04-09T09:24:46.703Z</time></trkpt><trkpt lat="43.8805873" lon="12.8870854"><ele>110.2</ele><time>2026-04-09T09:24:47.703Z</time></trkpt><trkpt lat="43.8805847" lon="12.8872199"><ele>110.4</ele><time>2026-04-09T09:24:48.702Z</time></trkpt><trkpt lat="43.8805866" lon="12.8873591"><ele>110.6</ele><time>2026-04-09T09:24:49.703Z</time></trkpt><trkpt lat="43.8805914" lon="12.8874884"><ele>110.8</ele><time>2026-04-09T09:24:50.702Z</time></trkpt><trkpt lat="43.8805964" lon="12.8876159"><ele>111.0</ele><time>2026-04-09T09:24:51.702Z</time></trkpt><trkpt lat="43.8806059" lon="12.8877459"><ele>111.4</ele><time>2026-04-09T09:24:52.703Z</time></trkpt><trkpt lat="43.8806268" lon="12.8878731"><ele>111.8</ele><time>2026-04-09T09:24:53.702Z</time></trkpt><trkpt lat="43.8806511" lon="12.8880061"><ele>112.20000000000002</ele><time>2026-04-09T09:24:54.703Z</time></trkpt><trkpt lat="43.8806785" lon="12.8881368"><ele>112.60000000000001</ele><time>2026-04-09T09:24:55.703Z</time></trkpt><trkpt lat="43.8807001" lon="12.8882636"><ele>113.0</ele><time>2026-04-09T09:24:56.702Z</time></trkpt><trkpt lat="43.8807237" lon="12.8883912"><ele>113.0</ele><time>2026-04-09T09:24:57.702Z</time></trkpt><trkpt lat="43.8807485" lon="12.8885275"><ele>113.00000000000001</ele><time>2026-04-09T09:24:58.702Z</time></trkpt><trkpt lat="43.880773" lon="12.8886688"><ele>113.00000000000001</ele><time>2026-04-09T09:24:59.703Z</time></trkpt><trkpt lat="43.8808025" lon="12.8888073"><ele>113.0</ele><time>2026-04-09T09:25:00.702Z</time></trkpt><trkpt lat="43.8808354" lon="12.8889448"><ele>113.0</ele><time>2026-04-09T09:25:01.702Z</time></trkpt><trkpt lat="43.8808813" lon="12.8890752"><ele>110.2</ele><time>2026-04-09T09:25:02.702Z</time></trkpt><trkpt lat="43.8809391" lon="12.8892079"><ele>107.4</ele><time>2026-04-09T09:25:03.702Z</time></trkpt><trkpt lat="43.881" lon="12.889331"><ele>104.60000000000001</ele><time>2026-04-09T09:25:04.703Z</time></trkpt><trkpt lat="43.8810595" lon="12.8894563"><ele>101.80000000000001</ele><time>2026-04-09T09:25:05.702Z</time></trkpt><trkpt lat="43.8811194" lon="12.8895809"><ele>99.0</ele><time>2026-04-09T09:25:06.703Z</time></trkpt><trkpt lat="43.8811801" lon="12.8897016"><ele>99.0</ele><time>2026-04-09T09:25:07.703Z</time></trkpt><trkpt lat="43.8812431" lon="12.8898193"><ele>99.0</ele><time>2026-04-09T09:25:08.702Z</time></trkpt><trkpt lat="43.8813124" lon="12.8899335"><ele>99.0</ele><time>2026-04-09T09:25:09.702Z</time></trkpt><trkpt lat="43.8813833" lon="12.8900459"><ele>99.0</ele><time>2026-04-09T09:25:10.703Z</time></trkpt><trkpt lat="43.8814638" lon="12.8901471"><ele>99.0</ele><time>2026-04-09T09:25:11.703Z</time></trkpt><trkpt lat="43.8815484" lon="12.8902412"><ele>100.0</ele><time>2026-04-09T09:25:12.702Z</time></trkpt><trkpt lat="43.8816309" lon="12.8903476"><ele>101.0</ele><time>2026-04-09T09:25:13.703Z</time></trkpt><trkpt lat="43.8817151" lon="12.8904564"><ele>102.0</ele><time>2026-04-09T09:25:14.703Z</time></trkpt><trkpt lat="43.8818027" lon="12.8905437"><ele>103.0</ele><time>2026-04-09T09:25:15.702Z</time></trkpt><trkpt lat="43.8818882" lon="12.8906312"><ele>104.0</ele><time>2026-04-09T09:25:16.702Z</time></trkpt><trkpt lat="43.8819748" lon="12.8907221"><ele>101.80000000000001</ele><time>2026-04-09T09:25:17.703Z</time></trkpt><trkpt lat="43.8820546" lon="12.8908061"><ele>99.60000000000001</ele><time>2026-04-09T09:25:18.702Z</time></trkpt><trkpt lat="43.8821352" lon="12.890894"><ele>97.4</ele><time>2026-04-09T09:25:19.702Z</time></trkpt><trkpt lat="43.8822162" lon="12.8909792"><ele>95.2</ele><time>2026-04-09T09:25:20.703Z</time></trkpt><trkpt lat="43.8823073" lon="12.8910462"><ele>93.0</ele><time>2026-04-09T09:25:21.702Z</time></trkpt><trkpt lat="43.882407" lon="12.8910918"><ele>92.0</ele><time>2026-04-09T09:25:22.702Z</time></trkpt><trkpt lat="43.8825027" lon="12.8911264"><ele>91.0</ele><time>2026-04-09T09:25:23.702Z</time></trkpt><trkpt lat="43.8825984" lon="12.8911667"><ele>90.0</ele><time>2026-04-09T09:25:24.702Z</time></trkpt><trkpt lat="43.8826933" lon="12.8912007"><ele>89.0</ele><time>2026-04-09T09:25:25.702Z</time></trkpt><trkpt lat="43.8827862" lon="12.8912335"><ele>88.0</ele><time>2026-04-09T09:25:26.702Z</time></trkpt><trkpt lat="43.8828644" lon="12.8912679"><ele>88.0</ele><time>2026-04-09T09:25:27.702Z</time></trkpt><trkpt lat="43.8829608" lon="12.891313"><ele>88.0</ele><time>2026-04-09T09:25:29.703Z</time></trkpt><trkpt lat="43.8830262" lon="12.891249"><ele>88.0</ele><time>2026-04-09T09:25:32.703Z</time></trkpt><trkpt lat="43.883086" lon="12.8911409"><ele>88.0</ele><time>2026-04-09T09:25:34.702Z</time></trkpt><trkpt lat="43.8831747" lon="12.8910189"><ele>88.0</ele><time>2026-04-09T09:25:36.702Z</time></trkpt><trkpt lat="43.8832547" lon="12.8909184"><ele>88.0</ele><time>2026-04-09T09:25:38.702Z</time></trkpt><trkpt lat="43.8833203" lon="12.8908157"><ele>88.0</ele><time>2026-04-09T09:25:40.702Z</time></trkpt><trkpt lat="43.8833592" lon="12.8907445"><ele>88.0</ele><time>2026-04-09T09:26:03.702Z</time></trkpt><trkpt lat="43.883292" lon="12.8908525"><ele>88.0</ele><time>2026-04-09T09:26:15.702Z</time></trkpt><trkpt lat="43.8832092" lon="12.8909489"><ele>88.0</ele><time>2026-04-09T09:26:17.702Z</time></trkpt><trkpt lat="43.8831355" lon="12.8910538"><ele>88.0</ele><time>2026-04-09T09:26:19.702Z</time></trkpt><trkpt lat="43.8830713" lon="12.8911487"><ele>88.0</ele><time>2026-04-09T09:26:21.702Z</time></trkpt><trkpt lat="43.8830285" lon="12.8912155"><ele>88.0</ele><time>2026-04-09T09:26:23.703Z</time></trkpt><trkpt lat="43.8829689" lon="12.8912772"><ele>88.0</ele><time>2026-04-09T09:26:27.703Z</time></trkpt><trkpt lat="43.882858" lon="12.891243"><ele>88.0</ele><time>2026-04-09T09:26:29.702Z</time></trkpt><trkpt lat="43.8827727" lon="12.8912103"><ele>88.0</ele><time>2026-04-09T09:26:30.702Z</time></trkpt><trkpt lat="43.8826856" lon="12.8911748"><ele>87.80000000000001</ele><time>2026-04-09T09:26:31.703Z</time></trkpt><trkpt lat="43.8825964" lon="12.891143"><ele>87.6</ele><time>2026-04-09T09:26:32.702Z</time></trkpt><trkpt lat="43.8825024" lon="12.891109"><ele>87.4</ele><time>2026-04-09T09:26:33.703Z</time></trkpt><trkpt lat="43.8824081" lon="12.8910648"><ele>87.19999999999999</ele><time>2026-04-09T09:26:34.703Z</time></trkpt><trkpt lat="43.8823162" lon="12.8910117"><ele>87.0</ele><time>2026-04-09T09:26:35.703Z</time></trkpt><trkpt lat="43.8822325" lon="12.8909478"><ele>88.5</ele><time>2026-04-09T09:26:36.702Z</time></trkpt><trkpt lat="43.8821477" lon="12.8908686"><ele>90.0</ele><time>2026-04-09T09:26:37.703Z</time></trkpt><trkpt lat="43.8820583" lon="12.8907769"><ele>91.5</ele><time>2026-04-09T09:26:38.703Z</time></trkpt><trkpt lat="43.8819619" lon="12.8906707"><ele>93.0</ele><time>2026-04-09T09:26:39.703Z</time></trkpt><trkpt lat="43.8818391" lon="12.8905559"><ele>94.5</ele><time>2026-04-09T09:26:40.702Z</time></trkpt><trkpt lat="43.8817061" lon="12.8904236"><ele>96.0</ele><time>2026-04-09T09:26:41.702Z</time></trkpt><trkpt lat="43.8815929" lon="12.8902937"><ele>97.5</ele><time>2026-04-09T09:26:42.702Z</time></trkpt><trkpt lat="43.8814899" lon="12.8901704"><ele>99.0</ele><time>2026-04-09T09:26:43.702Z</time></trkpt><trkpt lat="43.8813867" lon="12.8900465"><ele>99.0</ele><time>2026-04-09T09:26:44.702Z</time></trkpt><trkpt lat="43.8812932" lon="12.8899066"><ele>99.0</ele><time>2026-04-09T09:26:45.703Z</time></trkpt><trkpt lat="43.8812126" lon="12.889753"><ele>99.0</ele><time>2026-04-09T09:26:46.703Z</time></trkpt><trkpt lat="43.8811429" lon="12.889608"><ele>99.0</ele><time>2026-04-09T09:26:47.702Z</time></trkpt><trkpt lat="43.8810763" lon="12.8894785"><ele>99.0</ele><time>2026-04-09T09:26:48.703Z</time></trkpt><trkpt lat="43.8810207" lon="12.8893663"><ele>99.0</ele><time>2026-04-09T09:26:49.703Z</time></trkpt><trkpt lat="43.8809655" lon="12.8892573"><ele>99.0</ele><time>2026-04-09T09:26:50.703Z</time></trkpt><trkpt lat="43.880914" lon="12.8891483"><ele>99.0</ele><time>2026-04-09T09:26:51.702Z</time></trkpt><trkpt lat="43.8808624" lon="12.8890402"><ele>99.0</ele><time>2026-04-09T09:26:52.702Z</time></trkpt><trkpt lat="43.8808187" lon="12.8889252"><ele>101.80000000000001</ele><time>2026-04-09T09:26:53.703Z</time></trkpt><trkpt lat="43.8807988" lon="12.888797"><ele>104.60000000000001</ele><time>2026-04-09T09:26:54.702Z</time></trkpt><trkpt lat="43.8807851" lon="12.8886752"><ele>107.4</ele><time>2026-04-09T09:26:55.702Z</time></trkpt><trkpt lat="43.8807645" lon="12.8885465"><ele>110.2</ele><time>2026-04-09T09:26:56.703Z</time></trkpt><trkpt lat="43.8807464" lon="12.8884131"><ele>113.0</ele><time>2026-04-09T09:26:57.702Z</time></trkpt><trkpt lat="43.8807268" lon="12.888275"><ele>113.0</ele><time>2026-04-09T09:26:58.703Z</time></trkpt><trkpt lat="43.8806996" lon="12.8881377"><ele>113.00000000000001</ele><time>2026-04-09T09:26:59.703Z</time></trkpt><trkpt lat="43.8806715" lon="12.8880054"><ele>113.00000000000001</ele><time>2026-04-09T09:27:00.702Z</time></trkpt><trkpt lat="43.8806469" lon="12.8878711"><ele>113.0</ele><time>2026-04-09T09:27:01.703Z</time></trkpt><trkpt lat="43.8806266" lon="12.8877274"><ele>113.0</ele><time>2026-04-09T09:27:02.702Z</time></trkpt><trkpt lat="43.8806128" lon="12.8875766"><ele>112.5</ele><time>2026-04-09T09:27:03.702Z</time></trkpt><trkpt lat="43.8806047" lon="12.8874201"><ele>112.0</ele><time>2026-04-09T09:27:04.703Z</time></trkpt><trkpt lat="43.8806029" lon="12.8872664"><ele>111.5</ele><time>2026-04-09T09:27:05.702Z</time></trkpt><trkpt lat="43.8806035" lon="12.8871088"><ele>111.0</ele><time>2026-04-09T09:27:06.703Z</time></trkpt><trkpt lat="43.8806106" lon="12.88695"><ele>111.0</ele><time>2026-04-09T09:27:07.702Z</time></trkpt><trkpt lat="43.8806151" lon="12.8867816"><ele>111.0</ele><time>2026-04-09T09:27:08.702Z</time></trkpt><trkpt lat="43.8806239" lon="12.8866294"><ele>111.0</ele><time>2026-04-09T09:27:09.702Z</time></trkpt><trkpt lat="43.8806332" lon="12.8864816"><ele>111.0</ele><time>2026-04-09T09:27:10.703Z</time></trkpt><trkpt lat="43.8806417" lon="12.8863297"><ele>111.0</ele><time>2026-04-09T09:27:11.702Z</time></trkpt><trkpt lat="43.8806468" lon="12.8861725"><ele>110.8</ele><time>2026-04-09T09:27:12.702Z</time></trkpt><trkpt lat="43.8806562" lon="12.8860197"><ele>110.6</ele><time>2026-04-09T09:27:13.703Z</time></trkpt><trkpt lat="43.8806667" lon="12.8858716"><ele>110.4</ele><time>2026-04-09T09:27:14.702Z</time></trkpt><trkpt lat="43.8806786" lon="12.8857334"><ele>110.2</ele><time>2026-04-09T09:27:15.703Z</time></trkpt><trkpt lat="43.8806895" lon="12.8856022"><ele>110.0</ele><time>2026-04-09T09:27:16.703Z</time></trkpt><trkpt lat="43.8807048" lon="12.8854644"><ele>110.4</ele><time>2026-04-09T09:27:17.703Z</time></trkpt><trkpt lat="43.8807278" lon="12.8853297"><ele>110.8</ele><time>2026-04-09T09:27:18.703Z</time></trkpt><trkpt lat="43.8807647" lon="12.885202"><ele>111.19999999999999</ele><time>2026-04-09T09:27:19.702Z</time></trkpt><trkpt lat="43.8807991" lon="12.8850812"><ele>111.6</ele><time>2026-04-09T09:27:20.702Z</time></trkpt><trkpt lat="43.8808321" lon="12.8849673"><ele>112.0</ele><time>2026-04-09T09:27:21.702Z</time></trkpt><trkpt lat="43.8808603" lon="12.8848623"><ele>112.00000000000001</ele><time>2026-04-09T09:27:22.702Z</time></trkpt><trkpt lat="43.88088" lon="12.884763"><ele>112.0</ele><time>2026-04-09T09:27:23.702Z</time></trkpt><trkpt lat="43.8809105" lon="12.884629"><ele>112.0</ele><time>2026-04-09T09:27:25.703Z</time></trkpt><trkpt lat="43.8809768" lon="12.884576"><ele>112.0</ele><time>2026-04-09T09:27:28.702Z</time></trkpt><trkpt lat="43.8809265" lon="12.8845027"><ele>112.00000000000001</ele><time>2026-04-09T09:27:31.702Z</time></trkpt><trkpt lat="43.8808886" lon="12.8843481"><ele>112.0</ele><time>2026-04-09T09:27:33.702Z</time></trkpt><trkpt lat="43.8808739" lon="12.8842171"><ele>113.25</ele><time>2026-04-09T09:27:34.702Z</time></trkpt><trkpt lat="43.8808493" lon="12.8840588"><ele>114.5</ele><time>2026-04-09T09:27:35.703Z</time></trkpt><trkpt lat="43.8808251" lon="12.8838857"><ele>115.75</ele><time>2026-04-09T09:27:36.703Z</time></trkpt><trkpt lat="43.8807988" lon="12.883726"><ele>117.0</ele><time>2026-04-09T09:27:37.702Z</time></trkpt><trkpt lat="43.8807686" lon="12.8835663"><ele>118.25</ele><time>2026-04-09T09:27:38.703Z</time></trkpt><trkpt lat="43.8807376" lon="12.8834058"><ele>119.5</ele><time>2026-04-09T09:27:39.702Z</time></trkpt><trkpt lat="43.8807052" lon="12.8832471"><ele>120.75</ele><time>2026-04-09T09:27:40.702Z</time></trkpt><trkpt lat="43.8806659" lon="12.8830935"><ele>122.0</ele><time>2026-04-09T09:27:41.702Z</time></trkpt><trkpt lat="43.8806358" lon="12.8829565"><ele>121.99999999999999</ele><time>2026-04-09T09:27:42.702Z</time></trkpt><trkpt lat="43.8806123" lon="12.8828371"><ele>122.0</ele><time>2026-04-09T09:27:43.703Z</time></trkpt><trkpt lat="43.8805802" lon="12.882711"><ele>122.0</ele><time>2026-04-09T09:27:44.702Z</time></trkpt><trkpt lat="43.8805504" lon="12.8826075"><ele>122.0</ele><time>2026-04-09T09:27:45.703Z</time></trkpt><trkpt lat="43.8805034" lon="12.8825009"><ele>121.99999999999999</ele><time>2026-04-09T09:27:46.703Z</time></trkpt><trkpt lat="43.8804558" lon="12.8823989"><ele>122.0</ele><time>2026-04-09T09:27:47.703Z</time></trkpt><trkpt lat="43.8803974" lon="12.8822935"><ele>122.16666666666666</ele><time>2026-04-09T09:27:48.702Z</time></trkpt><trkpt lat="43.8803448" lon="12.882203"><ele>122.33333333333333</ele><time>2026-04-09T09:27:49.702Z</time></trkpt><trkpt lat="43.8802921" lon="12.8821182"><ele>122.5</ele><time>2026-04-09T09:27:50.703Z</time></trkpt><trkpt lat="43.8802327" lon="12.8820318"><ele>122.66666666666666</ele><time>2026-04-09T09:27:51.702Z</time></trkpt><trkpt lat="43.8801683" lon="12.8819409"><ele>122.83333333333333</ele><time>2026-04-09T09:27:52.702Z</time></trkpt><trkpt lat="43.8800946" lon="12.8818453"><ele>123.0</ele><time>2026-04-09T09:27:53.703Z</time></trkpt><trkpt lat="43.8800166" lon="12.8817596"><ele>122.5</ele><time>2026-04-09T09:27:54.702Z</time></trkpt><trkpt lat="43.87993" lon="12.88165"><ele>122.0</ele><time>2026-04-09T09:27:55.702Z</time></trkpt><trkpt lat="43.8798237" lon="12.8815302"><ele>121.5</ele><time>2026-04-09T09:27:56.702Z</time></trkpt><trkpt lat="43.8797292" lon="12.8814315"><ele>121.0</ele><time>2026-04-09T09:27:57.702Z</time></trkpt><trkpt lat="43.879643" lon="12.8813355"><ele>121.0</ele><time>2026-04-09T09:27:58.702Z</time></trkpt><trkpt lat="43.8795562" lon="12.881243"><ele>121.0</ele><time>2026-04-09T09:27:59.702Z</time></trkpt><trkpt lat="43.8794805" lon="12.88114"><ele>121.0</ele><time>2026-04-09T09:28:00.702Z</time></trkpt><trkpt lat="43.8794048" lon="12.8810226"><ele>121.0</ele><time>2026-04-09T09:28:01.702Z</time></trkpt><trkpt lat="43.8793333" lon="12.8808792"><ele>119.0</ele><time>2026-04-09T09:28:02.703Z</time></trkpt><trkpt lat="43.8792673" lon="12.8807313"><ele>117.0</ele><time>2026-04-09T09:28:03.702Z</time></trkpt><trkpt lat="43.8792188" lon="12.8805825"><ele>115.0</ele><time>2026-04-09T09:28:04.702Z</time></trkpt><trkpt lat="43.8791751" lon="12.8804225"><ele>113.0</ele><time>2026-04-09T09:28:05.703Z</time></trkpt><trkpt lat="43.8791401" lon="12.8802659"><ele>112.25</ele><time>2026-04-09T09:28:06.702Z</time></trkpt><trkpt lat="43.879094" lon="12.8800979"><ele>111.5</ele><time>2026-04-09T09:28:07.703Z</time></trkpt><trkpt lat="43.8790348" lon="12.8799531"><ele>110.75</ele><time>2026-04-09T09:28:08.703Z</time></trkpt><trkpt lat="43.8789738" lon="12.8798217"><ele>110.0</ele><time>2026-04-09T09:28:09.702Z</time></trkpt><trkpt lat="43.8789198" lon="12.8797016"><ele>109.99999999999999</ele><time>2026-04-09T09:28:10.703Z</time></trkpt><trkpt lat="43.8788635" lon="12.8795836"><ele>110.0</ele><time>2026-04-09T09:28:11.702Z</time></trkpt><trkpt lat="43.8788169" lon="12.8794746"><ele>110.0</ele><time>2026-04-09T09:28:12.702Z</time></trkpt><trkpt lat="43.8787721" lon="12.8793766"><ele>110.0</ele><time>2026-04-09T09:28:13.702Z</time></trkpt><trkpt lat="43.8787234" lon="12.8792764"><ele>109.99999999999999</ele><time>2026-04-09T09:28:14.703Z</time></trkpt><trkpt lat="43.8786673" lon="12.8792079"><ele>110.0</ele><time>2026-04-09T09:28:15.703Z</time></trkpt><trkpt lat="43.8786064" lon="12.8791586"><ele>109.99999999999999</ele><time>2026-04-09T09:28:16.702Z</time></trkpt><trkpt lat="43.8785478" lon="12.8791161"><ele>110.0</ele><time>2026-04-09T09:28:17.702Z</time></trkpt><trkpt lat="43.8784995" lon="12.8790583"><ele>110.0</ele><time>2026-04-09T09:28:18.702Z</time></trkpt><trkpt lat="43.8784572" lon="12.8789672"><ele>110.0</ele><time>2026-04-09T09:28:19.703Z</time></trkpt><trkpt lat="43.87842" lon="12.8788583"><ele>109.99999999999999</ele><time>2026-04-09T09:28:20.703Z</time></trkpt><trkpt lat="43.8783907" lon="12.8787386"><ele>110.0</ele><time>2026-04-09T09:28:21.702Z</time></trkpt><trkpt lat="43.8783684" lon="12.8786234"><ele>109.99999999999999</ele><time>2026-04-09T09:28:22.703Z</time></trkpt><trkpt lat="43.8783595" lon="12.878504"><ele>110.0</ele><time>2026-04-09T09:28:23.703Z</time></trkpt><trkpt lat="43.8783683" lon="12.8783949"><ele>110.0</ele><time>2026-04-09T09:28:24.703Z</time></trkpt><trkpt lat="43.8783892" lon="12.8782927"><ele>110.0</ele><time>2026-04-09T09:28:25.703Z</time></trkpt><trkpt lat="43.8784338" lon="12.8782021"><ele>109.99999999999999</ele><time>2026-04-09T09:28:26.703Z</time></trkpt><trkpt lat="43.8784878" lon="12.8781224"><ele>110.0</ele><time>2026-04-09T09:28:27.703Z</time></trkpt><trkpt lat="43.8785558" lon="12.8780648"><ele>108.2</ele><time>2026-04-09T09:28:28.703Z</time></trkpt><trkpt lat="43.8786284" lon="12.8779957"><ele>106.4</ele><time>2026-04-09T09:28:29.703Z</time></trkpt><trkpt lat="43.8787033" lon="12.877924"><ele>104.6</ele><time>2026-04-09T09:28:30.702Z</time></trkpt><trkpt lat="43.8787799" lon="12.8778522"><ele>102.8</ele><time>2026-04-09T09:28:31.703Z</time></trkpt><trkpt lat="43.878852" lon="12.8777761"><ele>101.0</ele><time>2026-04-09T09:28:32.702Z</time></trkpt><trkpt lat="43.8789244" lon="12.8777036"><ele>101.0</ele><time>2026-04-09T09:28:33.702Z</time></trkpt><trkpt lat="43.8789985" lon="12.8776387"><ele>101.0</ele><time>2026-04-09T09:28:34.703Z</time></trkpt><trkpt lat="43.8790734" lon="12.8775889"><ele>101.0</ele><time>2026-04-09T09:28:35.702Z</time></trkpt><trkpt lat="43.8791565" lon="12.8775278"><ele>101.0</ele><time>2026-04-09T09:28:36.702Z</time></trkpt><trkpt lat="43.8792378" lon="12.8774571"><ele>101.0</ele><time>2026-04-09T09:28:37.702Z</time></trkpt><trkpt lat="43.8793065" lon="12.8773666"><ele>95.2</ele><time>2026-04-09T09:28:38.703Z</time></trkpt><trkpt lat="43.8793716" lon="12.8772679"><ele>89.39999999999999</ele><time>2026-04-09T09:28:39.703Z</time></trkpt><trkpt lat="43.8794343" lon="12.8771631"><ele>83.6</ele><time>2026-04-09T09:28:40.702Z</time></trkpt><trkpt lat="43.8794938" lon="12.8770526"><ele>77.8</ele><time>2026-04-09T09:28:41.703Z</time></trkpt><trkpt lat="43.8795569" lon="12.8769437"><ele>72.0</ele><time>2026-04-09T09:28:42.702Z</time></trkpt><trkpt lat="43.8796198" lon="12.8768397"><ele>71.2</ele><time>2026-04-09T09:28:43.702Z</time></trkpt><trkpt lat="43.8796849" lon="12.8767295"><ele>70.4</ele><time>2026-04-09T09:28:44.702Z</time></trkpt><trkpt lat="43.8797452" lon="12.8766164"><ele>69.6</ele><time>2026-04-09T09:28:45.702Z</time></trkpt><trkpt lat="43.8798063" lon="12.8765057"><ele>68.8</ele><time>2026-04-09T09:28:46.702Z</time></trkpt><trkpt lat="43.8798512" lon="12.8763947"><ele>68.0</ele><time>2026-04-09T09:28:47.703Z</time></trkpt><trkpt lat="43.8799044" lon="12.8762829"><ele>68.0</ele><time>2026-04-09T09:28:48.702Z</time></trkpt><trkpt lat="43.8799413" lon="12.8761499"><ele>68.0</ele><time>2026-04-09T09:28:49.703Z</time></trkpt><trkpt lat="43.8799812" lon="12.8760182"><ele>68.0</ele><time>2026-04-09T09:28:50.702Z</time></trkpt><trkpt lat="43.880023" lon="12.8758777"><ele>68.0</ele><time>2026-04-09T09:28:51.702Z</time></trkpt><trkpt lat="43.8800721" lon="12.8757365"><ele>68.0</ele><time>2026-04-09T09:28:52.703Z</time></trkpt><trkpt lat="43.8801081" lon="12.8756097"><ele>62.75</ele><time>2026-04-09T09:28:53.703Z</time></trkpt><trkpt lat="43.8801717" lon="12.8754789"><ele>57.5</ele><time>2026-04-09T09:28:54.702Z</time></trkpt><trkpt lat="43.8802456" lon="12.8753593"><ele>52.25</ele><time>2026-04-09T09:28:55.703Z</time></trkpt><trkpt lat="43.8803265" lon="12.8752452"><ele>47.0</ele><time>2026-04-09T09:28:56.702Z</time></trkpt><trkpt lat="43.8804114" lon="12.8751463"><ele>46.25</ele><time>2026-04-09T09:28:57.703Z</time></trkpt><trkpt lat="43.8805041" lon="12.8750415"><ele>45.5</ele><time>2026-04-09T09:28:58.702Z</time></trkpt><trkpt lat="43.8806003" lon="12.8749342"><ele>44.75</ele><time>2026-04-09T09:28:59.703Z</time></trkpt><trkpt lat="43.8806868" lon="12.8748315"><ele>44.0</ele><time>2026-04-09T09:29:00.702Z</time></trkpt><trkpt lat="43.8807722" lon="12.8747206"><ele>44.0</ele><time>2026-04-09T09:29:01.703Z</time></trkpt><trkpt lat="43.8808581" lon="12.8746268"><ele>44.0</ele><time>2026-04-09T09:29:02.702Z</time></trkpt><trkpt lat="43.8809292" lon="12.8745269"><ele>44.0</ele><time>2026-04-09T09:29:03.703Z</time></trkpt><trkpt lat="43.8809911" lon="12.8744515"><ele>44.0</ele><time>2026-04-09T09:29:04.703Z</time></trkpt><trkpt lat="43.8810395" lon="12.8743745"><ele>44.0</ele><time>2026-04-09T09:29:05.702Z</time></trkpt><trkpt lat="43.8810913" lon="12.874285"><ele>44.0</ele><time>2026-04-09T09:29:06.703Z</time></trkpt><trkpt lat="43.8811415" lon="12.8741941"><ele>41.400000000000006</ele><time>2026-04-09T09:29:07.702Z</time></trkpt><trkpt lat="43.8811976" lon="12.8740872"><ele>38.800000000000004</ele><time>2026-04-09T09:29:08.703Z</time></trkpt><trkpt lat="43.8812673" lon="12.8739859"><ele>36.2</ele><time>2026-04-09T09:29:09.702Z</time></trkpt><trkpt lat="43.8813358" lon="12.8738801"><ele>33.6</ele><time>2026-04-09T09:29:10.702Z</time></trkpt><trkpt lat="43.8814107" lon="12.8737706"><ele>31.0</ele><time>2026-04-09T09:29:11.703Z</time></trkpt><trkpt lat="43.8814826" lon="12.8736725"><ele>31.0</ele><time>2026-04-09T09:29:12.703Z</time></trkpt><trkpt lat="43.8815534" lon="12.8735792"><ele>31.0</ele><time>2026-04-09T09:29:13.703Z</time></trkpt><trkpt lat="43.8816167" lon="12.8734837"><ele>31.0</ele><time>2026-04-09T09:29:14.703Z</time></trkpt><trkpt lat="43.8816791" lon="12.8733938"><ele>31.0</ele><time>2026-04-09T09:29:15.703Z</time></trkpt><trkpt lat="43.881754" lon="12.8733063"><ele>31.0</ele><time>2026-04-09T09:29:16.702Z</time></trkpt><trkpt lat="43.8818211" lon="12.8732129"><ele>29.4</ele><time>2026-04-09T09:29:17.702Z</time></trkpt><trkpt lat="43.8818915" lon="12.8731211"><ele>27.8</ele><time>2026-04-09T09:29:18.7Z</time></trkpt><trkpt lat="43.8819532" lon="12.8730275"><ele>26.2</ele><time>2026-04-09T09:29:19.703Z</time></trkpt><trkpt lat="43.882023" lon="12.8729323"><ele>24.599999999999998</ele><time>2026-04-09T09:29:20.703Z</time></trkpt><trkpt lat="43.8820892" lon="12.8728386"><ele>23.0</ele><time>2026-04-09T09:29:21.703Z</time></trkpt><trkpt lat="43.882164" lon="12.8727309"><ele>23.0</ele><time>2026-04-09T09:29:22.702Z</time></trkpt><trkpt lat="43.8822406" lon="12.8726364"><ele>23.0</ele><time>2026-04-09T09:29:23.702Z</time></trkpt><trkpt lat="43.8823161" lon="12.8725435"><ele>23.0</ele><time>2026-04-09T09:29:24.702Z</time></trkpt><trkpt lat="43.8824034" lon="12.8724556"><ele>23.0</ele><time>2026-04-09T09:29:25.702Z</time></trkpt><trkpt lat="43.8824855" lon="12.8723724"><ele>23.0</ele><time>2026-04-09T09:29:26.702Z</time></trkpt><trkpt lat="43.882569" lon="12.8722765"><ele>23.0</ele><time>2026-04-09T09:29:27.703Z</time></trkpt><trkpt lat="43.8826392" lon="12.8721956"><ele>23.0</ele><time>2026-04-09T09:29:28.703Z</time></trkpt><trkpt lat="43.882712" lon="12.8721058"><ele>23.0</ele><time>2026-04-09T09:29:29.703Z</time></trkpt><trkpt lat="43.8827769" lon="12.8720265"><ele>23.0</ele><time>2026-04-09T09:29:30.703Z</time></trkpt><trkpt lat="43.8828421" lon="12.8719441"><ele>23.0</ele><time>2026-04-09T09:29:31.702Z</time></trkpt><trkpt lat="43.882918" lon="12.8718655"><ele>23.0</ele><time>2026-04-09T09:29:32.703Z</time></trkpt><trkpt lat="43.8829915" lon="12.8717874"><ele>23.0</ele><time>2026-04-09T09:29:33.703Z</time></trkpt><trkpt lat="43.8830641" lon="12.871723"><ele>23.0</ele><time>2026-04-09T09:29:34.703Z</time></trkpt><trkpt lat="43.8831305" lon="12.8716723"><ele>23.0</ele><time>2026-04-09T09:29:35.702Z</time></trkpt><trkpt lat="43.8832336" lon="12.8716365"><ele>23.0</ele><time>2026-04-09T09:29:37.703Z</time></trkpt><trkpt lat="43.8833184" lon="12.8716026"><ele>23.0</ele><time>2026-04-09T09:30:03.702Z</time></trkpt><trkpt lat="43.8833803" lon="12.8715504"><ele>23.0</ele><time>2026-04-09T09:30:13.702Z</time></trkpt><trkpt lat="43.8833666" lon="12.8713697"><ele>23.0</ele><time>2026-04-09T09:30:15.702Z</time></trkpt><trkpt lat="43.883346" lon="12.8712557"><ele>23.0</ele><time>2026-04-09T09:30:16.703Z</time></trkpt><trkpt lat="43.8833275" lon="12.8711467"><ele>23.0</ele><time>2026-04-09T09:30:17.702Z</time></trkpt><trkpt lat="43.883305" lon="12.8710368"><ele>23.0</ele><time>2026-04-09T09:30:18.702Z</time></trkpt><trkpt lat="43.8832816" lon="12.8709138"><ele>22.666666666666668</ele><time>2026-04-09T09:30:19.702Z</time></trkpt><trkpt lat="43.8832557" lon="12.8707928"><ele>22.333333333333336</ele><time>2026-04-09T09:30:20.702Z</time></trkpt><trkpt lat="43.8832363" lon="12.8706845"><ele>22.0</ele><time>2026-04-09T09:30:21.702Z</time></trkpt><trkpt lat="43.8832106" lon="12.8705761"><ele>21.666666666666668</ele><time>2026-04-09T09:30:22.702Z</time></trkpt><trkpt lat="43.8831893" lon="12.8704603"><ele>21.333333333333332</ele><time>2026-04-09T09:30:23.702Z</time></trkpt><trkpt lat="43.8831611" lon="12.8703662"><ele>21.0</ele><time>2026-04-09T09:30:24.702Z</time></trkpt><trkpt lat="43.8831419" lon="12.8702592"><ele>21.0</ele><time>2026-04-09T09:30:25.702Z</time></trkpt><trkpt lat="43.8831182" lon="12.8701592"><ele>21.0</ele><time>2026-04-09T09:30:26.703Z</time></trkpt><trkpt lat="43.8830846" lon="12.8700444"><ele>21.0</ele><time>2026-04-09T09:30:27.702Z</time></trkpt><trkpt lat="43.883056" lon="12.8699289"><ele>21.0</ele><time>2026-04-09T09:30:28.703Z</time></trkpt><trkpt lat="43.8830185" lon="12.8698111"><ele>21.0</ele><time>2026-04-09T09:30:29.703Z</time></trkpt><trkpt lat="43.8829803" lon="12.8696857"><ele>21.0</ele><time>2026-04-09T09:30:30.702Z</time></trkpt><trkpt lat="43.8829426" lon="12.869556"><ele>21.0</ele><time>2026-04-09T09:30:31.702Z</time></trkpt><trkpt lat="43.8829086" lon="12.8694215"><ele>21.0</ele><time>2026-04-09T09:30:32.703Z</time></trkpt><trkpt lat="43.8828679" lon="12.8692928"><ele>21.0</ele><time>2026-04-09T09:30:33.702Z</time></trkpt><trkpt lat="43.8828371" lon="12.869168"><ele>21.0</ele><time>2026-04-09T09:30:34.703Z</time></trkpt><trkpt lat="43.882807" lon="12.8690484"><ele>21.0</ele><time>2026-04-09T09:30:35.702Z</time></trkpt><trkpt lat="43.8827821" lon="12.8689312"><ele>21.0</ele><time>2026-04-09T09:30:36.702Z</time></trkpt><trkpt lat="43.8827522" lon="12.8688134"><ele>21.0</ele><time>2026-04-09T09:30:37.703Z</time></trkpt><trkpt lat="43.8827248" lon="12.8687023"><ele>21.0</ele><time>2026-04-09T09:30:38.702Z</time></trkpt><trkpt lat="43.8826997" lon="12.8685809"><ele>21.0</ele><time>2026-04-09T09:30:39.703Z</time></trkpt><trkpt lat="43.8826722" lon="12.8684586"><ele>21.0</ele><time>2026-04-09T09:30:40.702Z</time></trkpt><trkpt lat="43.8826435" lon="12.8683293"><ele>21.0</ele><time>2026-04-09T09:30:41.702Z</time></trkpt><trkpt lat="43.8826148" lon="12.8682067"><ele>21.0</ele><time>2026-04-09T09:30:42.702Z</time></trkpt><trkpt lat="43.8825926" lon="12.8680828"><ele>21.0</ele><time>2026-04-09T09:30:43.703Z</time></trkpt><trkpt lat="43.8825641" lon="12.8679574"><ele>21.0</ele><time>2026-04-09T09:30:44.703Z</time></trkpt><trkpt lat="43.8825427" lon="12.8678401"><ele>21.0</ele><time>2026-04-09T09:30:45.702Z</time></trkpt><trkpt lat="43.8825228" lon="12.8677182"><ele>21.8</ele><time>2026-04-09T09:30:46.702Z</time></trkpt><trkpt lat="43.8824962" lon="12.8675959"><ele>22.6</ele><time>2026-04-09T09:30:47.702Z</time></trkpt><trkpt lat="43.8824733" lon="12.8674707"><ele>23.4</ele><time>2026-04-09T09:30:48.703Z</time></trkpt><trkpt lat="43.8824484" lon="12.8673359"><ele>24.2</ele><time>2026-04-09T09:30:49.703Z</time></trkpt><trkpt lat="43.8824203" lon="12.8672054"><ele>25.0</ele><time>2026-04-09T09:30:50.702Z</time></trkpt><trkpt lat="43.8823846" lon="12.8670817"><ele>25.0</ele><time>2026-04-09T09:30:51.703Z</time></trkpt><trkpt lat="43.8823464" lon="12.8669529"><ele>25.0</ele><time>2026-04-09T09:30:52.702Z</time></trkpt><trkpt lat="43.8823128" lon="12.8668214"><ele>25.0</ele><time>2026-04-09T09:30:53.703Z</time></trkpt><trkpt lat="43.8822699" lon="12.8666975"><ele>25.0</ele><time>2026-04-09T09:30:54.702Z</time></trkpt><trkpt lat="43.8822295" lon="12.8665775"><ele>25.0</ele><time>2026-04-09T09:30:55.703Z</time></trkpt><trkpt lat="43.8821917" lon="12.8664816"><ele>24.500000000000004</ele><time>2026-04-09T09:30:56.703Z</time></trkpt><trkpt lat="43.882157" lon="12.8663939"><ele>24.0</ele><time>2026-04-09T09:30:57.702Z</time></trkpt><trkpt lat="43.8821213" lon="12.8662687"><ele>23.5</ele><time>2026-04-09T09:30:59.702Z</time></trkpt><trkpt lat="43.8820881" lon="12.8661713"><ele>23.0</ele><time>2026-04-09T09:31:01.703Z</time></trkpt><trkpt lat="43.8820345" lon="12.866093"><ele>22.5</ele><time>2026-04-09T09:32:01.702Z</time></trkpt><trkpt lat="43.8819735" lon="12.865982"><ele>22.0</ele><time>2026-04-09T09:32:03.702Z</time></trkpt><trkpt lat="43.8819335" lon="12.8658768"><ele>22.0</ele><time>2026-04-09T09:32:05.702Z</time></trkpt><trkpt lat="43.8818907" lon="12.8657779"><ele>22.0</ele><time>2026-04-09T09:32:07.702Z</time></trkpt><trkpt lat="43.8818375" lon="12.8656984"><ele>22.0</ele><time>2026-04-09T09:32:23.703Z</time></trkpt><trkpt lat="43.8817425" lon="12.8655345"><ele>22.0</ele><time>2026-04-09T09:32:25.703Z</time></trkpt><trkpt lat="43.8816894" lon="12.8654458"><ele>22.0</ele><time>2026-04-09T09:32:26.703Z</time></trkpt><trkpt lat="43.8816319" lon="12.8653588"><ele>22.42857142857143</ele><time>2026-04-09T09:32:27.703Z</time></trkpt><trkpt lat="43.881581" lon="12.8652746"><ele>22.857142857142858</ele><time>2026-04-09T09:32:28.702Z</time></trkpt><trkpt lat="43.881519" lon="12.8651997"><ele>23.285714285714285</ele><time>2026-04-09T09:32:29.703Z</time></trkpt><trkpt lat="43.8814718" lon="12.8651221"><ele>23.714285714285715</ele><time>2026-04-09T09:32:30.703Z</time></trkpt><trkpt lat="43.8814243" lon="12.8650434"><ele>24.142857142857142</ele><time>2026-04-09T09:32:31.702Z</time></trkpt><trkpt lat="43.8813766" lon="12.8649722"><ele>24.571428571428573</ele><time>2026-04-09T09:32:32.703Z</time></trkpt><trkpt lat="43.8813337" lon="12.8649059"><ele>25.0</ele><time>2026-04-09T09:32:33.703Z</time></trkpt><trkpt lat="43.8812827" lon="12.8648447"><ele>25.000000000000004</ele><time>2026-04-09T09:32:34.703Z</time></trkpt><trkpt lat="43.8812318" lon="12.8647877"><ele>25.0</ele><time>2026-04-09T09:32:35.702Z</time></trkpt><trkpt lat="43.8811794" lon="12.8647248"><ele>25.0</ele><time>2026-04-09T09:32:36.703Z</time></trkpt><trkpt lat="43.8811213" lon="12.8646644"><ele>25.0</ele><time>2026-04-09T09:32:37.703Z</time></trkpt><trkpt lat="43.8810603" lon="12.8646081"><ele>25.000000000000004</ele><time>2026-04-09T09:32:38.703Z</time></trkpt><trkpt lat="43.8809957" lon="12.8645439"><ele>25.0</ele><time>2026-04-09T09:32:39.703Z</time></trkpt><trkpt lat="43.8809224" lon="12.8644709"><ele>25.4</ele><time>2026-04-09T09:32:40.702Z</time></trkpt><trkpt lat="43.8808486" lon="12.8644067"><ele>25.8</ele><time>2026-04-09T09:32:41.702Z</time></trkpt><trkpt lat="43.880773" lon="12.8643405"><ele>26.200000000000003</ele><time>2026-04-09T09:32:42.702Z</time></trkpt><trkpt lat="43.880692" lon="12.8642852"><ele>26.6</ele><time>2026-04-09T09:32:43.703Z</time></trkpt><trkpt lat="43.880607" lon="12.8642309"><ele>27.0</ele><time>2026-04-09T09:32:44.702Z</time></trkpt><trkpt lat="43.880515" lon="12.8641873"><ele>27.0</ele><time>2026-04-09T09:32:45.703Z</time></trkpt><trkpt lat="43.8804277" lon="12.8641435"><ele>27.000000000000004</ele><time>2026-04-09T09:32:46.702Z</time></trkpt><trkpt lat="43.8803573" lon="12.8641019"><ele>27.000000000000004</ele><time>2026-04-09T09:32:47.703Z</time></trkpt><trkpt lat="43.8802771" lon="12.8640447"><ele>27.0</ele><time>2026-04-09T09:32:49.702Z</time></trkpt><trkpt lat="43.8802175" lon="12.8640103"><ele>27.0</ele><time>2026-04-09T09:33:14.702Z</time></trkpt><trkpt lat="43.8800748" lon="12.8639816"><ele>27.8</ele><time>2026-04-09T09:33:16.703Z</time></trkpt><trkpt lat="43.8799859" lon="12.8639523"><ele>28.6</ele><time>2026-04-09T09:33:17.702Z</time></trkpt><trkpt lat="43.8798957" lon="12.8639262"><ele>29.400000000000002</ele><time>2026-04-09T09:33:18.703Z</time></trkpt><trkpt lat="43.8798044" lon="12.8638938"><ele>30.200000000000003</ele><time>2026-04-09T09:33:19.703Z</time></trkpt><trkpt lat="43.8797092" lon="12.8638638"><ele>31.0</ele><time>2026-04-09T09:33:20.702Z</time></trkpt><trkpt lat="43.8796116" lon="12.86383"><ele>31.0</ele><time>2026-04-09T09:33:21.703Z</time></trkpt><trkpt lat="43.8795143" lon="12.8637932"><ele>31.0</ele><time>2026-04-09T09:33:22.703Z</time></trkpt><trkpt lat="43.8794169" lon="12.8637495"><ele>31.0</ele><time>2026-04-09T09:33:23.702Z</time></trkpt><trkpt lat="43.8793145" lon="12.863704"><ele>31.0</ele><time>2026-04-09T09:33:24.702Z</time></trkpt><trkpt lat="43.8792047" lon="12.8636452"><ele>31.0</ele><time>2026-04-09T09:33:25.703Z</time></trkpt><trkpt lat="43.8790849" lon="12.8635814"><ele>30.5</ele><time>2026-04-09T09:33:26.703Z</time></trkpt><trkpt lat="43.8789779" lon="12.8635197"><ele>30.0</ele><time>2026-04-09T09:33:27.703Z</time></trkpt><trkpt lat="43.8788669" lon="12.8634509"><ele>29.5</ele><time>2026-04-09T09:33:28.702Z</time></trkpt><trkpt lat="43.8787679" lon="12.8633816"><ele>29.0</ele><time>2026-04-09T09:33:29.702Z</time></trkpt><trkpt lat="43.8786746" lon="12.8633115"><ele>29.25</ele><time>2026-04-09T09:33:30.702Z</time></trkpt><trkpt lat="43.878582" lon="12.8632358"><ele>29.5</ele><time>2026-04-09T09:33:31.703Z</time></trkpt><trkpt lat="43.8784858" lon="12.8631532"><ele>29.75</ele><time>2026-04-09T09:33:32.702Z</time></trkpt><trkpt lat="43.8783842" lon="12.8630638"><ele>30.0</ele><time>2026-04-09T09:33:33.702Z</time></trkpt><trkpt lat="43.8782899" lon="12.8629711"><ele>30.0</ele><time>2026-04-09T09:33:34.702Z</time></trkpt><trkpt lat="43.8781875" lon="12.8628742"><ele>30.0</ele><time>2026-04-09T09:33:35.702Z</time></trkpt><trkpt lat="43.8780833" lon="12.8627625"><ele>30.0</ele><time>2026-04-09T09:33:36.702Z</time></trkpt><trkpt lat="43.877977" lon="12.8626485"><ele>30.0</ele><time>2026-04-09T09:33:37.702Z</time></trkpt><trkpt lat="43.877868" lon="12.8625265"><ele>30.0</ele><time>2026-04-09T09:33:38.703Z</time></trkpt><trkpt lat="43.8777598" lon="12.8623803"><ele>30.0</ele><time>2026-04-09T09:33:39.702Z</time></trkpt><trkpt lat="43.8776526" lon="12.8622256"><ele>30.0</ele><time>2026-04-09T09:33:40.702Z</time></trkpt><trkpt lat="43.8775471" lon="12.8620734"><ele>30.0</ele><time>2026-04-09T09:33:41.702Z</time></trkpt><trkpt lat="43.8774381" lon="12.8619256"><ele>30.0</ele><time>2026-04-09T09:33:42.702Z</time></trkpt><trkpt lat="43.8773429" lon="12.8617724"><ele>30.0</ele><time>2026-04-09T09:33:43.703Z</time></trkpt><trkpt lat="43.8772443" lon="12.8616225"><ele>30.0</ele><time>2026-04-09T09:33:44.703Z</time></trkpt><trkpt lat="43.8771445" lon="12.8614718"><ele>29.75</ele><time>2026-04-09T09:33:45.702Z</time></trkpt><trkpt lat="43.8770558" lon="12.8613225"><ele>29.5</ele><time>2026-04-09T09:33:46.703Z</time></trkpt><trkpt lat="43.8769626" lon="12.8611765"><ele>29.25</ele><time>2026-04-09T09:33:47.703Z</time></trkpt><trkpt lat="43.8768619" lon="12.8610316"><ele>29.0</ele><time>2026-04-09T09:33:48.702Z</time></trkpt><trkpt lat="43.8767645" lon="12.8608834"><ele>29.0</ele><time>2026-04-09T09:33:49.703Z</time></trkpt><trkpt lat="43.8766641" lon="12.8607518"><ele>29.0</ele><time>2026-04-09T09:33:50.703Z</time></trkpt><trkpt lat="43.8765421" lon="12.8606106"><ele>29.0</ele><time>2026-04-09T09:33:51.702Z</time></trkpt><trkpt lat="43.876441" lon="12.8604862"><ele>29.0</ele><time>2026-04-09T09:33:52.703Z</time></trkpt><trkpt lat="43.8763403" lon="12.860379"><ele>29.0</ele><time>2026-04-09T09:33:53.702Z</time></trkpt><trkpt lat="43.8762431" lon="12.8602694"><ele>29.0</ele><time>2026-04-09T09:33:54.703Z</time></trkpt><trkpt lat="43.8761447" lon="12.8601594"><ele>29.0</ele><time>2026-04-09T09:33:55.702Z</time></trkpt><trkpt lat="43.8760444" lon="12.8600511"><ele>29.0</ele><time>2026-04-09T09:33:56.702Z</time></trkpt><trkpt lat="43.8759398" lon="12.8599381"><ele>30.0</ele><time>2026-04-09T09:33:57.702Z</time></trkpt><trkpt lat="43.8758352" lon="12.8598214"><ele>31.0</ele><time>2026-04-09T09:33:58.703Z</time></trkpt><trkpt lat="43.8757259" lon="12.8597148"><ele>32.0</ele><time>2026-04-09T09:33:59.703Z</time></trkpt><trkpt lat="43.8756182" lon="12.8596122"><ele>33.0</ele><time>2026-04-09T09:34:00.702Z</time></trkpt><trkpt lat="43.8755153" lon="12.8595141"><ele>33.0</ele><time>2026-04-09T09:34:01.702Z</time></trkpt><trkpt lat="43.8754109" lon="12.8594106"><ele>33.0</ele><time>2026-04-09T09:34:02.702Z</time></trkpt><trkpt lat="43.8752998" lon="12.8593165"><ele>33.0</ele><time>2026-04-09T09:34:03.702Z</time></trkpt><trkpt lat="43.8751885" lon="12.8592195"><ele>33.0</ele><time>2026-04-09T09:34:04.703Z</time></trkpt><trkpt lat="43.8750898" lon="12.8591248"><ele>33.199999999999996</ele><time>2026-04-09T09:34:05.702Z</time></trkpt><trkpt lat="43.8750004" lon="12.8590389"><ele>33.4</ele><time>2026-04-09T09:34:06.703Z</time></trkpt><trkpt lat="43.8749214" lon="12.8589543"><ele>33.599999999999994</ele><time>2026-04-09T09:34:07.702Z</time></trkpt><trkpt lat="43.8748362" lon="12.8588628"><ele>33.8</ele><time>2026-04-09T09:34:08.703Z</time></trkpt><trkpt lat="43.8747487" lon="12.8587599"><ele>34.0</ele><time>2026-04-09T09:34:09.703Z</time></trkpt><trkpt lat="43.8746595" lon="12.858655"><ele>34.0</ele><time>2026-04-09T09:34:10.702Z</time></trkpt><trkpt lat="43.8745785" lon="12.858549"><ele>34.0</ele><time>2026-04-09T09:34:11.703Z</time></trkpt><trkpt lat="43.8744967" lon="12.8584456"><ele>34.0</ele><time>2026-04-09T09:34:12.702Z</time></trkpt><trkpt lat="43.8744085" lon="12.8583458"><ele>34.0</ele><time>2026-04-09T09:34:13.703Z</time></trkpt><trkpt lat="43.8743282" lon="12.85825"><ele>34.0</ele><time>2026-04-09T09:34:14.703Z</time></trkpt><trkpt lat="43.8742517" lon="12.8581668"><ele>33.0</ele><time>2026-04-09T09:34:15.703Z</time></trkpt><trkpt lat="43.8741933" lon="12.8580923"><ele>32.0</ele><time>2026-04-09T09:34:16.703Z</time></trkpt><trkpt lat="43.8740968" lon="12.8580249"><ele>31.0</ele><time>2026-04-09T09:34:18.703Z</time></trkpt><trkpt lat="43.8740163" lon="12.8580833"><ele>30.0</ele><time>2026-04-09T09:34:20.703Z</time></trkpt><trkpt lat="43.8739378" lon="12.8581966"><ele>29.0</ele><time>2026-04-09T09:34:22.702Z</time></trkpt><trkpt lat="43.873872" lon="12.8582848"><ele>28.999999999999996</ele><time>2026-04-09T09:34:24.702Z</time></trkpt><trkpt lat="43.8739324" lon="12.8581848"><ele>29.0</ele><time>2026-04-09T09:36:11.702Z</time></trkpt><trkpt lat="43.8740029" lon="12.8580695"><ele>29.0</ele><time>2026-04-09T09:36:13.702Z</time></trkpt><trkpt lat="43.8740518" lon="12.8580027"><ele>29.0</ele><time>2026-04-09T09:36:15.703Z</time></trkpt><trkpt lat="43.87412" lon="12.858038"><ele>28.999999999999996</ele><time>2026-04-09T09:36:21.702Z</time></trkpt><trkpt lat="43.8741771" lon="12.858086"><ele>29.0</ele><time>2026-04-09T09:36:22.702Z</time></trkpt><trkpt lat="43.8742607" lon="12.8581928"><ele>29.2</ele><time>2026-04-09T09:36:23.703Z</time></trkpt><trkpt lat="43.8743299" lon="12.8582843"><ele>29.4</ele><time>2026-04-09T09:36:24.703Z</time></trkpt><trkpt lat="43.8744067" lon="12.8583776"><ele>29.6</ele><time>2026-04-09T09:36:25.702Z</time></trkpt><trkpt lat="43.8744837" lon="12.8584725"><ele>29.8</ele><time>2026-04-09T09:36:26.702Z</time></trkpt><trkpt lat="43.8745619" lon="12.8585692"><ele>30.0</ele><time>2026-04-09T09:36:27.703Z</time></trkpt><trkpt lat="43.8746483" lon="12.8586727"><ele>30.8</ele><time>2026-04-09T09:36:28.703Z</time></trkpt><trkpt lat="43.8747334" lon="12.8587736"><ele>31.6</ele><time>2026-04-09T09:36:29.703Z</time></trkpt><trkpt lat="43.8748143" lon="12.8588646"><ele>32.4</ele><time>2026-04-09T09:36:30.703Z</time></trkpt><trkpt lat="43.8749038" lon="12.8589557"><ele>33.2</ele><time>2026-04-09T09:36:31.702Z</time></trkpt><trkpt lat="43.8749902" lon="12.8590437"><ele>34.0</ele><time>2026-04-09T09:36:32.702Z</time></trkpt><trkpt lat="43.8750799" lon="12.8591318"><ele>33.8</ele><time>2026-04-09T09:36:33.702Z</time></trkpt><trkpt lat="43.8751682" lon="12.8592107"><ele>33.599999999999994</ele><time>2026-04-09T09:36:34.702Z</time></trkpt><trkpt lat="43.8752484" lon="12.8593057"><ele>33.4</ele><time>2026-04-09T09:36:35.702Z</time></trkpt><trkpt lat="43.8753334" lon="12.8593834"><ele>33.199999999999996</ele><time>2026-04-09T09:36:36.703Z</time></trkpt><trkpt lat="43.8754173" lon="12.8594628"><ele>33.0</ele><time>2026-04-09T09:36:37.703Z</time></trkpt><trkpt lat="43.8755047" lon="12.8595523"><ele>33.0</ele><time>2026-04-09T09:36:38.702Z</time></trkpt><trkpt lat="43.8755856" lon="12.8596458"><ele>33.0</ele><time>2026-04-09T09:36:39.703Z</time></trkpt><trkpt lat="43.8756685" lon="12.8597347"><ele>33.0</ele><time>2026-04-09T09:36:40.703Z</time></trkpt><trkpt lat="43.8757549" lon="12.85983"><ele>33.0</ele><time>2026-04-09T09:36:41.702Z</time></trkpt><trkpt lat="43.875854" lon="12.8599216"><ele>33.0</ele><time>2026-04-09T09:36:42.702Z</time></trkpt><trkpt lat="43.8759526" lon="12.8600179"><ele>32.0</ele><time>2026-04-09T09:36:43.702Z</time></trkpt><trkpt lat="43.8760509" lon="12.8601121"><ele>31.0</ele><time>2026-04-09T09:36:44.702Z</time></trkpt><trkpt lat="43.8761486" lon="12.8602117"><ele>30.0</ele><time>2026-04-09T09:36:45.703Z</time></trkpt><trkpt lat="43.8762524" lon="12.8603159"><ele>29.0</ele><time>2026-04-09T09:36:46.702Z</time></trkpt><trkpt lat="43.8763524" lon="12.8604409"><ele>29.0</ele><time>2026-04-09T09:36:47.702Z</time></trkpt><trkpt lat="43.8764461" lon="12.8605373"><ele>29.0</ele><time>2026-04-09T09:36:48.703Z</time></trkpt><trkpt lat="43.876541" lon="12.8606543"><ele>29.0</ele><time>2026-04-09T09:36:49.702Z</time></trkpt><trkpt lat="43.8766322" lon="12.8607729"><ele>29.0</ele><time>2026-04-09T09:36:50.702Z</time></trkpt><trkpt lat="43.876722" lon="12.8608969"><ele>28.25</ele><time>2026-04-09T09:36:51.703Z</time></trkpt><trkpt lat="43.8768088" lon="12.8610147"><ele>27.5</ele><time>2026-04-09T09:36:52.702Z</time></trkpt><trkpt lat="43.8768955" lon="12.8611505"><ele>26.75</ele><time>2026-04-09T09:36:53.703Z</time></trkpt><trkpt lat="43.8769854" lon="12.8612765"><ele>26.0</ele><time>2026-04-09T09:36:54.702Z</time></trkpt><trkpt lat="43.8770724" lon="12.8614071"><ele>26.0</ele><time>2026-04-09T09:36:55.702Z</time></trkpt><trkpt lat="43.8771586" lon="12.8615421"><ele>26.0</ele><time>2026-04-09T09:36:56.703Z</time></trkpt><trkpt lat="43.8772451" lon="12.8616763"><ele>26.0</ele><time>2026-04-09T09:36:57.703Z</time></trkpt><trkpt lat="43.8773195" lon="12.8617923"><ele>26.0</ele><time>2026-04-09T09:36:58.702Z</time></trkpt><trkpt lat="43.8773923" lon="12.8619061"><ele>26.200000000000003</ele><time>2026-04-09T09:36:59.703Z</time></trkpt><trkpt lat="43.8774579" lon="12.8620152"><ele>26.400000000000002</ele><time>2026-04-09T09:37:00.703Z</time></trkpt><trkpt lat="43.8775362" lon="12.862124"><ele>26.6</ele><time>2026-04-09T09:37:01.703Z</time></trkpt><trkpt lat="43.8776134" lon="12.8622356"><ele>26.8</ele><time>2026-04-09T09:37:02.703Z</time></trkpt><trkpt lat="43.8776889" lon="12.862346"><ele>27.0</ele><time>2026-04-09T09:37:03.703Z</time></trkpt><trkpt lat="43.8777618" lon="12.8624369"><ele>27.0</ele><time>2026-04-09T09:37:04.703Z</time></trkpt><trkpt lat="43.8778311" lon="12.8625216"><ele>27.000000000000004</ele><time>2026-04-09T09:37:05.703Z</time></trkpt><trkpt lat="43.8778898" lon="12.8626087"><ele>27.000000000000004</ele><time>2026-04-09T09:37:06.703Z</time></trkpt><trkpt lat="43.877949" lon="12.8626798"><ele>27.0</ele><time>2026-04-09T09:37:07.702Z</time></trkpt><trkpt lat="43.8780214" lon="12.8627625"><ele>27.0</ele><time>2026-04-09T09:37:08.703Z</time></trkpt><trkpt lat="43.8781066" lon="12.8628579"><ele>27.0</ele><time>2026-04-09T09:37:09.702Z</time></trkpt><trkpt lat="43.8781982" lon="12.8629519"><ele>27.0</ele><time>2026-04-09T09:37:10.703Z</time></trkpt><trkpt lat="43.8782896" lon="12.863053"><ele>27.0</ele><time>2026-04-09T09:37:11.703Z</time></trkpt><trkpt lat="43.8783818" lon="12.8631481"><ele>27.0</ele><time>2026-04-09T09:37:12.703Z</time></trkpt><trkpt lat="43.8785118" lon="12.8632491"><ele>27.0</ele><time>2026-04-09T09:37:13.703Z</time></trkpt><trkpt lat="43.8786207" lon="12.8633453"><ele>27.0</ele><time>2026-04-09T09:37:14.702Z</time></trkpt><trkpt lat="43.8787378" lon="12.8634205"><ele>27.0</ele><time>2026-04-09T09:37:15.702Z</time></trkpt><trkpt lat="43.8788494" lon="12.8635045"><ele>27.0</ele><time>2026-04-09T09:37:16.703Z</time></trkpt><trkpt lat="43.8789625" lon="12.8635785"><ele>27.5</ele><time>2026-04-09T09:37:17.703Z</time></trkpt><trkpt lat="43.8790798" lon="12.8636529"><ele>28.0</ele><time>2026-04-09T09:37:18.702Z</time></trkpt><trkpt lat="43.8792" lon="12.8637175"><ele>28.5</ele><time>2026-04-09T09:37:19.703Z</time></trkpt><trkpt lat="43.8793302" lon="12.8637841"><ele>29.0</ele><time>2026-04-09T09:37:20.702Z</time></trkpt><trkpt lat="43.8794703" lon="12.8638377"><ele>29.5</ele><time>2026-04-09T09:37:21.702Z</time></trkpt><trkpt lat="43.8796099" lon="12.8638883"><ele>30.0</ele><time>2026-04-09T09:37:22.702Z</time></trkpt><trkpt lat="43.8797543" lon="12.8639382"><ele>30.5</ele><time>2026-04-09T09:37:23.702Z</time></trkpt><trkpt lat="43.879896" lon="12.8639818"><ele>31.0</ele><time>2026-04-09T09:37:24.703Z</time></trkpt><trkpt lat="43.880046" lon="12.8640208"><ele>29.666666666666668</ele><time>2026-04-09T09:37:25.702Z</time></trkpt><trkpt lat="43.8801976" lon="12.8640732"><ele>28.333333333333336</ele><time>2026-04-09T09:37:26.702Z</time></trkpt><trkpt lat="43.8803566" lon="12.8641374"><ele>27.0</ele><time>2026-04-09T09:37:27.703Z</time></trkpt><trkpt lat="43.8804996" lon="12.8642084"><ele>26.5</ele><time>2026-04-09T09:37:28.702Z</time></trkpt><trkpt lat="43.8806295" lon="12.8642939"><ele>26.0</ele><time>2026-04-09T09:37:29.702Z</time></trkpt><trkpt lat="43.8807546" lon="12.8643908"><ele>25.5</ele><time>2026-04-09T09:37:30.702Z</time></trkpt><trkpt lat="43.8808651" lon="12.8644804"><ele>25.0</ele><time>2026-04-09T09:37:31.703Z</time></trkpt><trkpt lat="43.880956" lon="12.8645644"><ele>25.0</ele><time>2026-04-09T09:37:32.702Z</time></trkpt><trkpt lat="43.8810523" lon="12.8646479"><ele>25.0</ele><time>2026-04-09T09:37:33.703Z</time></trkpt><trkpt lat="43.8811332" lon="12.8647353"><ele>25.0</ele><time>2026-04-09T09:37:34.702Z</time></trkpt><trkpt lat="43.881216" lon="12.8648271"><ele>25.0</ele><time>2026-04-09T09:37:35.703Z</time></trkpt><trkpt lat="43.8812947" lon="12.864918"><ele>25.0</ele><time>2026-04-09T09:37:36.702Z</time></trkpt><trkpt lat="43.8813675" lon="12.865009"><ele>25.0</ele><time>2026-04-09T09:37:37.702Z</time></trkpt><trkpt lat="43.8814409" lon="12.8650964"><ele>25.0</ele><time>2026-04-09T09:37:38.702Z</time></trkpt><trkpt lat="43.8815089" lon="12.8651838"><ele>25.0</ele><time>2026-04-09T09:37:39.703Z</time></trkpt><trkpt lat="43.8815764" lon="12.8652819"><ele>25.0</ele><time>2026-04-09T09:37:40.702Z</time></trkpt><trkpt lat="43.8816364" lon="12.8653822"><ele>25.0</ele><time>2026-04-09T09:37:41.702Z</time></trkpt><trkpt lat="43.8816933" lon="12.865476"><ele>24.500000000000004</ele><time>2026-04-09T09:37:42.703Z</time></trkpt><trkpt lat="43.8817528" lon="12.8655674"><ele>24.0</ele><time>2026-04-09T09:37:43.702Z</time></trkpt><trkpt lat="43.8817965" lon="12.8656592"><ele>23.5</ele><time>2026-04-09T09:37:44.702Z</time></trkpt><trkpt lat="43.8818465" lon="12.8657615"><ele>23.0</ele><time>2026-04-09T09:37:45.702Z</time></trkpt><trkpt lat="43.8818936" lon="12.8658719"><ele>22.5</ele><time>2026-04-09T09:37:46.702Z</time></trkpt><trkpt lat="43.881947" lon="12.8659872"><ele>22.0</ele><time>2026-04-09T09:37:47.703Z</time></trkpt><trkpt lat="43.881999" lon="12.8661082"><ele>22.0</ele><time>2026-04-09T09:37:48.703Z</time></trkpt><trkpt lat="43.882049" lon="12.866244"><ele>22.0</ele><time>2026-04-09T09:37:49.702Z</time></trkpt><trkpt lat="43.8820985" lon="12.8663777"><ele>22.0</ele><time>2026-04-09T09:37:50.703Z</time></trkpt><trkpt lat="43.8821546" lon="12.8665188"><ele>22.0</ele><time>2026-04-09T09:37:51.702Z</time></trkpt><trkpt lat="43.8822095" lon="12.8666577"><ele>22.0</ele><time>2026-04-09T09:37:52.702Z</time></trkpt><trkpt lat="43.8822585" lon="12.8668053"><ele>22.75</ele><time>2026-04-09T09:37:53.702Z</time></trkpt><trkpt lat="43.8823093" lon="12.8669522"><ele>23.5</ele><time>2026-04-09T09:37:54.702Z</time></trkpt><trkpt lat="43.8823552" lon="12.8671121"><ele>24.25</ele><time>2026-04-09T09:37:55.702Z</time></trkpt><trkpt lat="43.8823972" lon="12.8672734"><ele>25.0</ele><time>2026-04-09T09:37:56.702Z</time></trkpt><trkpt lat="43.8824287" lon="12.867441"><ele>25.0</ele><time>2026-04-09T09:37:57.702Z</time></trkpt><trkpt lat="43.8824647" lon="12.8676"><ele>25.0</ele><time>2026-04-09T09:37:58.702Z</time></trkpt><trkpt lat="43.882493" lon="12.867762"><ele>25.0</ele><time>2026-04-09T09:37:59.702Z</time></trkpt><trkpt lat="43.8825266" lon="12.867914"><ele>25.0</ele><time>2026-04-09T09:38:00.702Z</time></trkpt><trkpt lat="43.8825617" lon="12.8680617"><ele>24.0</ele><time>2026-04-09T09:38:01.702Z</time></trkpt><trkpt lat="43.8825988" lon="12.8682253"><ele>23.0</ele><time>2026-04-09T09:38:02.703Z</time></trkpt><trkpt lat="43.882629" lon="12.8683702"><ele>22.0</ele><time>2026-04-09T09:38:03.702Z</time></trkpt><trkpt lat="43.8826648" lon="12.8685204"><ele>21.0</ele><time>2026-04-09T09:38:04.703Z</time></trkpt><trkpt lat="43.8826985" lon="12.8686623"><ele>21.0</ele><time>2026-04-09T09:38:05.702Z</time></trkpt><trkpt lat="43.8827374" lon="12.868808"><ele>21.0</ele><time>2026-04-09T09:38:06.702Z</time></trkpt><trkpt lat="43.8827713" lon="12.8689592"><ele>21.0</ele><time>2026-04-09T09:38:07.702Z</time></trkpt><trkpt lat="43.8828177" lon="12.8691049"><ele>21.0</ele><time>2026-04-09T09:38:08.703Z</time></trkpt><trkpt lat="43.8828566" lon="12.8692389"><ele>21.0</ele><time>2026-04-09T09:38:09.702Z</time></trkpt><trkpt lat="43.8828893" lon="12.8693639"><ele>20.8</ele><time>2026-04-09T09:38:10.703Z</time></trkpt><trkpt lat="43.8829219" lon="12.8694807"><ele>20.6</ele><time>2026-04-09T09:38:11.703Z</time></trkpt><trkpt lat="43.8829545" lon="12.8696126"><ele>20.4</ele><time>2026-04-09T09:38:12.702Z</time></trkpt><trkpt lat="43.882985" lon="12.8697351"><ele>20.2</ele><time>2026-04-09T09:38:13.702Z</time></trkpt><trkpt lat="43.8830189" lon="12.869863"><ele>20.0</ele><time>2026-04-09T09:38:14.702Z</time></trkpt><trkpt lat="43.8830556" lon="12.869995"><ele>20.2</ele><time>2026-04-09T09:38:15.702Z</time></trkpt><trkpt lat="43.8830932" lon="12.870134"><ele>20.4</ele><time>2026-04-09T09:38:16.702Z</time></trkpt><trkpt lat="43.8831225" lon="12.8702675"><ele>20.6</ele><time>2026-04-09T09:38:17.702Z</time></trkpt><trkpt lat="43.8831507" lon="12.8704027"><ele>20.8</ele><time>2026-04-09T09:38:18.703Z</time></trkpt><trkpt lat="43.8831798" lon="12.8705477"><ele>21.0</ele><time>2026-04-09T09:38:19.703Z</time></trkpt><trkpt lat="43.8832052" lon="12.8706877"><ele>21.0</ele><time>2026-04-09T09:38:20.702Z</time></trkpt><trkpt lat="43.8832346" lon="12.870833"><ele>21.0</ele><time>2026-04-09T09:38:21.702Z</time></trkpt><trkpt lat="43.8832643" lon="12.8709696"><ele>21.0</ele><time>2026-04-09T09:38:22.702Z</time></trkpt><trkpt lat="43.8832888" lon="12.8711001"><ele>21.0</ele><time>2026-04-09T09:38:23.702Z</time></trkpt><trkpt lat="43.8833183" lon="12.8712115"><ele>21.0</ele><time>2026-04-09T09:38:24.702Z</time></trkpt><trkpt lat="43.8833394" lon="12.8713147"><ele>21.4</ele><time>2026-04-09T09:38:25.702Z</time></trkpt><trkpt lat="43.8833723" lon="12.8714534"><ele>21.8</ele><time>2026-04-09T09:38:27.703Z</time></trkpt><trkpt lat="43.883364" lon="12.8715897"><ele>22.2</ele><time>2026-04-09T09:38:30.703Z</time></trkpt><trkpt lat="43.8833857" lon="12.8717712"><ele>22.599999999999998</ele><time>2026-04-09T09:38:32.703Z</time></trkpt><trkpt lat="43.8833979" lon="12.8718793"><ele>23.0</ele><time>2026-04-09T09:38:33.703Z</time></trkpt><trkpt lat="43.8834143" lon="12.8720016"><ele>23.0</ele><time>2026-04-09T09:38:34.702Z</time></trkpt><trkpt lat="43.8834371" lon="12.8721265"><ele>23.0</ele><time>2026-04-09T09:38:35.703Z</time></trkpt><trkpt lat="43.8834639" lon="12.8722449"><ele>23.0</ele><time>2026-04-09T09:38:36.702Z</time></trkpt><trkpt lat="43.8834908" lon="12.8723841"><ele>23.0</ele><time>2026-04-09T09:38:37.703Z</time></trkpt><trkpt lat="43.8835146" lon="12.8725345"><ele>23.0</ele><time>2026-04-09T09:38:38.702Z</time></trkpt><trkpt lat="43.8835384" lon="12.8726708"><ele>23.0</ele><time>2026-04-09T09:38:39.702Z</time></trkpt><trkpt lat="43.8835604" lon="12.8728175"><ele>23.0</ele><time>2026-04-09T09:38:40.702Z</time></trkpt><trkpt lat="43.883587" lon="12.8729641"><ele>23.0</ele><time>2026-04-09T09:38:41.703Z</time></trkpt><trkpt lat="43.8836161" lon="12.8731091"><ele>23.0</ele><time>2026-04-09T09:38:42.702Z</time></trkpt><trkpt lat="43.8836363" lon="12.8732592"><ele>23.0</ele><time>2026-04-09T09:38:43.702Z</time></trkpt><trkpt lat="43.8836645" lon="12.8733874"><ele>23.0</ele><time>2026-04-09T09:38:44.702Z</time></trkpt><trkpt lat="43.8836916" lon="12.8735192"><ele>23.0</ele><time>2026-04-09T09:38:45.703Z</time></trkpt><trkpt lat="43.8837132" lon="12.873645"><ele>23.0</ele><time>2026-04-09T09:38:46.702Z</time></trkpt><trkpt lat="43.8837417" lon="12.8737742"><ele>23.0</ele><time>2026-04-09T09:38:47.703Z</time></trkpt><trkpt lat="43.8837554" lon="12.8739224"><ele>23.0</ele><time>2026-04-09T09:38:48.703Z</time></trkpt><trkpt lat="43.8837783" lon="12.8740619"><ele>23.0</ele><time>2026-04-09T09:38:49.703Z</time></trkpt><trkpt lat="43.8837976" lon="12.8742007"><ele>23.0</ele><time>2026-04-09T09:38:50.702Z</time></trkpt><trkpt lat="43.8838176" lon="12.8743385"><ele>23.0</ele><time>2026-04-09T09:38:51.702Z</time></trkpt><trkpt lat="43.8838344" lon="12.8744563"><ele>23.0</ele><time>2026-04-09T09:38:52.702Z</time></trkpt><trkpt lat="43.8838452" lon="12.8745684"><ele>23.0</ele><time>2026-04-09T09:38:53.702Z</time></trkpt><trkpt lat="43.883857" lon="12.874677"><ele>22.833333333333336</ele><time>2026-04-09T09:38:54.702Z</time></trkpt><trkpt lat="43.8838663" lon="12.8747823"><ele>22.666666666666668</ele><time>2026-04-09T09:38:55.703Z</time></trkpt><trkpt lat="43.883875" lon="12.874873"><ele>22.5</ele><time>2026-04-09T09:38:56.702Z</time></trkpt><trkpt lat="43.8838687" lon="12.8750113"><ele>22.333333333333332</ele><time>2026-04-09T09:38:58.702Z</time></trkpt><trkpt lat="43.8838701" lon="12.8750997"><ele>22.166666666666664</ele><time>2026-04-09T09:40:08.703Z</time></trkpt><trkpt lat="43.8838993" lon="12.8752018"><ele>22.0</ele><time>2026-04-09T09:40:10.703Z</time></trkpt><trkpt lat="43.8839297" lon="12.8754083"><ele>22.0</ele><time>2026-04-09T09:40:12.703Z</time></trkpt><trkpt lat="43.8839474" lon="12.8755065"><ele>22.0</ele><time>2026-04-09T09:40:13.702Z</time></trkpt><trkpt lat="43.8839696" lon="12.8756181"><ele>22.0</ele><time>2026-04-09T09:40:14.702Z</time></trkpt><trkpt lat="43.8839885" lon="12.8757355"><ele>22.0</ele><time>2026-04-09T09:40:15.703Z</time></trkpt><trkpt lat="43.884013" lon="12.8758522"><ele>22.0</ele><time>2026-04-09T09:40:16.703Z</time></trkpt><trkpt lat="43.8840443" lon="12.8759703"><ele>22.0</ele><time>2026-04-09T09:40:17.702Z</time></trkpt><trkpt lat="43.8840909" lon="12.8761039"><ele>22.25</ele><time>2026-04-09T09:40:18.703Z</time></trkpt><trkpt lat="43.8841424" lon="12.8762451"><ele>22.5</ele><time>2026-04-09T09:40:19.702Z</time></trkpt><trkpt lat="43.884203" lon="12.8763751"><ele>22.75</ele><time>2026-04-09T09:40:20.703Z</time></trkpt><trkpt lat="43.8842763" lon="12.8764971"><ele>23.0</ele><time>2026-04-09T09:40:21.703Z</time></trkpt><trkpt lat="43.8843487" lon="12.876617"><ele>22.799999999999997</ele><time>2026-04-09T09:40:22.702Z</time></trkpt><trkpt lat="43.8844317" lon="12.8767479"><ele>22.6</ele><time>2026-04-09T09:40:23.702Z</time></trkpt><trkpt lat="43.8844906" lon="12.8768841"><ele>22.4</ele><time>2026-04-09T09:40:24.703Z</time></trkpt><trkpt lat="43.8845606" lon="12.8769984"><ele>22.200000000000003</ele><time>2026-04-09T09:40:25.703Z</time></trkpt><trkpt lat="43.8846139" lon="12.8771019"><ele>22.0</ele><time>2026-04-09T09:40:26.702Z</time></trkpt><trkpt lat="43.884668" lon="12.8772031"><ele>22.0</ele><time>2026-04-09T09:40:27.702Z</time></trkpt><trkpt lat="43.8847187" lon="12.8772762"><ele>22.0</ele><time>2026-04-09T09:40:28.703Z</time></trkpt><trkpt lat="43.8847755" lon="12.8773403"><ele>22.0</ele><time>2026-04-09T09:40:29.702Z</time></trkpt><trkpt lat="43.8848309" lon="12.8774081"><ele>22.0</ele><time>2026-04-09T09:40:30.703Z</time></trkpt><trkpt lat="43.8848846" lon="12.8774901"><ele>22.0</ele><time>2026-04-09T09:40:31.703Z</time></trkpt><trkpt lat="43.8849449" lon="12.8775758"><ele>22.0</ele><time>2026-04-09T09:40:32.703Z</time></trkpt><trkpt lat="43.8850079" lon="12.8776559"><ele>21.8</ele><time>2026-04-09T09:40:33.702Z</time></trkpt><trkpt lat="43.8850675" lon="12.8777416"><ele>21.6</ele><time>2026-04-09T09:40:34.703Z</time></trkpt><trkpt lat="43.8851284" lon="12.8778308"><ele>21.400000000000002</ele><time>2026-04-09T09:40:35.702Z</time></trkpt><trkpt lat="43.8851954" lon="12.8779257"><ele>21.200000000000003</ele><time>2026-04-09T09:40:36.702Z</time></trkpt><trkpt lat="43.8852643" lon="12.8780319"><ele>21.0</ele><time>2026-04-09T09:40:37.703Z</time></trkpt><trkpt lat="43.8853305" lon="12.878144"><ele>21.0</ele><time>2026-04-09T09:40:38.702Z</time></trkpt><trkpt lat="43.8854003" lon="12.8782574"><ele>21.0</ele><time>2026-04-09T09:40:39.703Z</time></trkpt><trkpt lat="43.8854781" lon="12.8783818"><ele>21.0</ele><time>2026-04-09T09:40:40.702Z</time></trkpt><trkpt lat="43.8855506" lon="12.8785007"><ele>21.0</ele><time>2026-04-09T09:40:41.703Z</time></trkpt><trkpt lat="43.8856163" lon="12.8786096"><ele>21.0</ele><time>2026-04-09T09:40:42.703Z</time></trkpt><trkpt lat="43.8856672" lon="12.8786945"><ele>21.0</ele><time>2026-04-09T09:40:43.703Z</time></trkpt><trkpt lat="43.8857161" lon="12.8787651"><ele>21.0</ele><time>2026-04-09T09:40:44.702Z</time></trkpt><trkpt lat="43.8857777" lon="12.8789105"><ele>21.0</ele><time>2026-04-09T09:40:46.702Z</time></trkpt><trkpt lat="43.8857962" lon="12.8790028"><ele>21.0</ele><time>2026-04-09T09:40:47.703Z</time></trkpt><trkpt lat="43.8858341" lon="12.8790938"><ele>21.0</ele><time>2026-04-09T09:40:48.703Z</time></trkpt><trkpt lat="43.8858889" lon="12.8791678"><ele>21.0</ele><time>2026-04-09T09:40:49.702Z</time></trkpt><trkpt lat="43.8859579" lon="12.8792304"><ele>20.2</ele><time>2026-04-09T09:40:50.702Z</time></trkpt><trkpt lat="43.886028" lon="12.8793181"><ele>19.400000000000002</ele><time>2026-04-09T09:40:51.703Z</time></trkpt><trkpt lat="43.8860926" lon="12.8794112"><ele>18.6</ele><time>2026-04-09T09:40:52.702Z</time></trkpt><trkpt lat="43.8861533" lon="12.8795067"><ele>17.8</ele><time>2026-04-09T09:40:53.702Z</time></trkpt><trkpt lat="43.8862226" lon="12.8796026"><ele>17.0</ele><time>2026-04-09T09:40:54.703Z</time></trkpt><trkpt lat="43.8863016" lon="12.8797044"><ele>17.0</ele><time>2026-04-09T09:40:55.703Z</time></trkpt><trkpt lat="43.8863772" lon="12.8798026"><ele>17.0</ele><time>2026-04-09T09:40:56.702Z</time></trkpt><trkpt lat="43.8864585" lon="12.8799042"><ele>17.0</ele><time>2026-04-09T09:40:57.702Z</time></trkpt><trkpt lat="43.8865473" lon="12.8800122"><ele>17.0</ele><time>2026-04-09T09:40:58.702Z</time></trkpt><trkpt lat="43.8866321" lon="12.8801205"><ele>17.0</ele><time>2026-04-09T09:40:59.702Z</time></trkpt><trkpt lat="43.8867226" lon="12.8802343"><ele>17.25</ele><time>2026-04-09T09:41:00.703Z</time></trkpt><trkpt lat="43.8868155" lon="12.8803459"><ele>17.5</ele><time>2026-04-09T09:41:01.702Z</time></trkpt><trkpt lat="43.8869117" lon="12.880458"><ele>17.75</ele><time>2026-04-09T09:41:02.702Z</time></trkpt><trkpt lat="43.8870019" lon="12.8805701"><ele>18.0</ele><time>2026-04-09T09:41:03.702Z</time></trkpt><trkpt lat="43.8870969" lon="12.8806828"><ele>18.0</ele><time>2026-04-09T09:41:04.702Z</time></trkpt><trkpt lat="43.8871872" lon="12.880791"><ele>18.0</ele><time>2026-04-09T09:41:05.703Z</time></trkpt><trkpt lat="43.8872823" lon="12.8808982"><ele>18.0</ele><time>2026-04-09T09:41:06.702Z</time></trkpt><trkpt lat="43.8873783" lon="12.8810183"><ele>18.0</ele><time>2026-04-09T09:41:07.702Z</time></trkpt><trkpt lat="43.8874607" lon="12.8811291"><ele>18.0</ele><time>2026-04-09T09:41:08.703Z</time></trkpt><trkpt lat="43.8875449" lon="12.8812305"><ele>18.0</ele><time>2026-04-09T09:41:09.702Z</time></trkpt><trkpt lat="43.8876309" lon="12.8813369"><ele>18.0</ele><time>2026-04-09T09:41:10.702Z</time></trkpt><trkpt lat="43.8877154" lon="12.8814429"><ele>18.0</ele><time>2026-04-09T09:41:11.703Z</time></trkpt><trkpt lat="43.8878038" lon="12.8815507"><ele>18.0</ele><time>2026-04-09T09:41:12.702Z</time></trkpt><trkpt lat="43.8878885" lon="12.8816554"><ele>18.0</ele><time>2026-04-09T09:41:13.703Z</time></trkpt><trkpt lat="43.8879755" lon="12.8817687"><ele>18.0</ele><time>2026-04-09T09:41:14.702Z</time></trkpt><trkpt lat="43.8880664" lon="12.881878"><ele>18.0</ele><time>2026-04-09T09:41:15.703Z</time></trkpt><trkpt lat="43.888158" lon="12.8819875"><ele>18.0</ele><time>2026-04-09T09:41:16.703Z</time></trkpt><trkpt lat="43.8882512" lon="12.8820983"><ele>18.0</ele><time>2026-04-09T09:41:17.702Z</time></trkpt><trkpt lat="43.8883345" lon="12.8822098"><ele>18.0</ele><time>2026-04-09T09:41:18.702Z</time></trkpt><trkpt lat="43.8884244" lon="12.8823291"><ele>18.0</ele><time>2026-04-09T09:41:19.702Z</time></trkpt><trkpt lat="43.8885188" lon="12.8824434"><ele>17.5</ele><time>2026-04-09T09:41:20.703Z</time></trkpt><trkpt lat="43.8886136" lon="12.8825489"><ele>17.0</ele><time>2026-04-09T09:41:21.703Z</time></trkpt><trkpt lat="43.888709" lon="12.882662"><ele>16.5</ele><time>2026-04-09T09:41:22.702Z</time></trkpt><trkpt lat="43.8888079" lon="12.8827692"><ele>16.0</ele><time>2026-04-09T09:41:23.703Z</time></trkpt><trkpt lat="43.8889025" lon="12.8828788"><ele>15.75</ele><time>2026-04-09T09:41:24.703Z</time></trkpt><trkpt lat="43.8889907" lon="12.8829879"><ele>15.5</ele><time>2026-04-09T09:41:25.703Z</time></trkpt><trkpt lat="43.8890821" lon="12.8830968"><ele>15.25</ele><time>2026-04-09T09:41:26.702Z</time></trkpt><trkpt lat="43.8891736" lon="12.8831983"><ele>15.0</ele><time>2026-04-09T09:41:27.703Z</time></trkpt><trkpt lat="43.8892603" lon="12.8833043"><ele>15.0</ele><time>2026-04-09T09:41:28.703Z</time></trkpt><trkpt lat="43.8893419" lon="12.8834062"><ele>15.0</ele><time>2026-04-09T09:41:29.702Z</time></trkpt><trkpt lat="43.8894199" lon="12.8835022"><ele>15.0</ele><time>2026-04-09T09:41:30.702Z</time></trkpt><trkpt lat="43.8894939" lon="12.8835998"><ele>15.0</ele><time>2026-04-09T09:41:31.702Z</time></trkpt><trkpt lat="43.8895593" lon="12.8836864"><ele>15.0</ele><time>2026-04-09T09:41:32.702Z</time></trkpt><trkpt lat="43.8896237" lon="12.883775"><ele>14.833333333333334</ele><time>2026-04-09T09:41:33.703Z</time></trkpt><trkpt lat="43.8896748" lon="12.8838507"><ele>14.666666666666668</ele><time>2026-04-09T09:41:34.702Z</time></trkpt><trkpt lat="43.8897217" lon="12.8839142"><ele>14.5</ele><time>2026-04-09T09:41:35.702Z</time></trkpt><trkpt lat="43.8897916" lon="12.8840118"><ele>14.333333333333334</ele><time>2026-04-09T09:41:37.703Z</time></trkpt><trkpt lat="43.8898283" lon="12.8840961"><ele>14.166666666666668</ele><time>2026-04-09T09:41:43.702Z</time></trkpt><trkpt lat="43.8898444" lon="12.8841905"><ele>14.0</ele><time>2026-04-09T09:41:44.702Z</time></trkpt><trkpt lat="43.8898519" lon="12.8843065"><ele>14.0</ele><time>2026-04-09T09:41:45.702Z</time></trkpt><trkpt lat="43.88986" lon="12.8844407"><ele>13.999999999999998</ele><time>2026-04-09T09:41:46.702Z</time></trkpt><trkpt lat="43.8898568" lon="12.8845752"><ele>13.999999999999998</ele><time>2026-04-09T09:41:47.702Z</time></trkpt><trkpt lat="43.8898508" lon="12.8847161"><ele>14.0</ele><time>2026-04-09T09:41:48.703Z</time></trkpt><trkpt lat="43.8898388" lon="12.8848571"><ele>14.0</ele><time>2026-04-09T09:41:49.702Z</time></trkpt><trkpt lat="43.8898269" lon="12.8850014"><ele>14.0</ele><time>2026-04-09T09:41:50.702Z</time></trkpt><trkpt lat="43.8898203" lon="12.8851632"><ele>14.0</ele><time>2026-04-09T09:41:51.702Z</time></trkpt><trkpt lat="43.8898202" lon="12.8853282"><ele>14.0</ele><time>2026-04-09T09:41:52.703Z</time></trkpt><trkpt lat="43.8898334" lon="12.8854963"><ele>14.0</ele><time>2026-04-09T09:41:53.702Z</time></trkpt><trkpt lat="43.8898605" lon="12.8856584"><ele>14.0</ele><time>2026-04-09T09:41:54.703Z</time></trkpt><trkpt lat="43.8898934" lon="12.885822"><ele>14.0</ele><time>2026-04-09T09:41:55.702Z</time></trkpt><trkpt lat="43.8899359" lon="12.8859866"><ele>14.0</ele><time>2026-04-09T09:41:56.702Z</time></trkpt><trkpt lat="43.8899872" lon="12.8861436"><ele>14.0</ele><time>2026-04-09T09:41:57.702Z</time></trkpt><trkpt lat="43.8900477" lon="12.8862975"><ele>13.75</ele><time>2026-04-09T09:41:58.703Z</time></trkpt><trkpt lat="43.8901153" lon="12.8864456"><ele>13.5</ele><time>2026-04-09T09:41:59.702Z</time></trkpt><trkpt lat="43.8901903" lon="12.8865935"><ele>13.25</ele><time>2026-04-09T09:42:00.702Z</time></trkpt><trkpt lat="43.8902712" lon="12.8867333"><ele>13.0</ele><time>2026-04-09T09:42:01.703Z</time></trkpt><trkpt lat="43.8903507" lon="12.8868665"><ele>13.0</ele><time>2026-04-09T09:42:02.702Z</time></trkpt><trkpt lat="43.8904363" lon="12.886988"><ele>13.0</ele><time>2026-04-09T09:42:03.702Z</time></trkpt><trkpt lat="43.8905205" lon="12.8871131"><ele>13.0</ele><time>2026-04-09T09:42:04.703Z</time></trkpt><trkpt lat="43.8906022" lon="12.8872307"><ele>13.0</ele><time>2026-04-09T09:42:05.703Z</time></trkpt><trkpt lat="43.8906897" lon="12.8873176"><ele>13.0</ele><time>2026-04-09T09:42:06.703Z</time></trkpt><trkpt lat="43.8907593" lon="12.8874381"><ele>13.0</ele><time>2026-04-09T09:42:07.703Z</time></trkpt><trkpt lat="43.8908406" lon="12.8875371"><ele>13.0</ele><time>2026-04-09T09:42:08.702Z</time></trkpt><trkpt lat="43.8909123" lon="12.8876323"><ele>13.0</ele><time>2026-04-09T09:42:09.702Z</time></trkpt><trkpt lat="43.8909774" lon="12.8877198"><ele>13.0</ele><time>2026-04-09T09:42:10.702Z</time></trkpt><trkpt lat="43.8910384" lon="12.8878154"><ele>12.833333333333332</ele><time>2026-04-09T09:42:11.703Z</time></trkpt><trkpt lat="43.8910917" lon="12.8878943"><ele>12.666666666666666</ele><time>2026-04-09T09:42:12.703Z</time></trkpt><trkpt lat="43.8911355" lon="12.8879655"><ele>12.5</ele><time>2026-04-09T09:42:13.703Z</time></trkpt><trkpt lat="43.8911772" lon="12.8880757"><ele>12.333333333333332</ele><time>2026-04-09T09:42:15.703Z</time></trkpt><trkpt lat="43.8912021" lon="12.8881777"><ele>12.166666666666666</ele><time>2026-04-09T09:42:18.703Z</time></trkpt><trkpt lat="43.8912151" lon="12.8883211"><ele>12.0</ele><time>2026-04-09T09:42:20.703Z</time></trkpt><trkpt lat="43.8912443" lon="12.8885059"><ele>12.333333333333334</ele><time>2026-04-09T09:42:22.703Z</time></trkpt><trkpt lat="43.8912733" lon="12.8886012"><ele>12.666666666666668</ele><time>2026-04-09T09:42:23.703Z</time></trkpt><trkpt lat="43.891327" lon="12.888701"><ele>13.0</ele><time>2026-04-09T09:42:24.703Z</time></trkpt><trkpt lat="43.8913871" lon="12.8887792"><ele>13.333333333333334</ele><time>2026-04-09T09:42:25.703Z</time></trkpt><trkpt lat="43.8914657" lon="12.8888298"><ele>13.666666666666668</ele><time>2026-04-09T09:42:26.703Z</time></trkpt><trkpt lat="43.8915557" lon="12.8888505"><ele>14.0</ele><time>2026-04-09T09:42:27.702Z</time></trkpt><trkpt lat="43.8916515" lon="12.8888408"><ele>14.0</ele><time>2026-04-09T09:42:28.703Z</time></trkpt><trkpt lat="43.8917341" lon="12.8887867"><ele>13.999999999999998</ele><time>2026-04-09T09:42:29.702Z</time></trkpt><trkpt lat="43.8917907" lon="12.8887014"><ele>13.999999999999998</ele><time>2026-04-09T09:42:30.702Z</time></trkpt><trkpt lat="43.8918345" lon="12.8885915"><ele>14.0</ele><time>2026-04-09T09:42:31.702Z</time></trkpt><trkpt lat="43.8918476" lon="12.8884571"><ele>14.0</ele><time>2026-04-09T09:42:32.702Z</time></trkpt><trkpt lat="43.8918395" lon="12.8883146"><ele>13.75</ele><time>2026-04-09T09:42:33.703Z</time></trkpt><trkpt lat="43.8918035" lon="12.8881743"><ele>13.5</ele><time>2026-04-09T09:42:34.703Z</time></trkpt><trkpt lat="43.8917636" lon="12.8880157"><ele>13.25</ele><time>2026-04-09T09:42:35.703Z</time></trkpt><trkpt lat="43.891755" lon="12.8878617"><ele>13.0</ele><time>2026-04-09T09:42:36.703Z</time></trkpt><trkpt lat="43.891757" lon="12.8877017"><ele>12.5</ele><time>2026-04-09T09:42:37.702Z</time></trkpt><trkpt lat="43.8917889" lon="12.8875321"><ele>12.0</ele><time>2026-04-09T09:42:38.703Z</time></trkpt><trkpt lat="43.891835" lon="12.8873621"><ele>11.5</ele><time>2026-04-09T09:42:39.703Z</time></trkpt><trkpt lat="43.8918811" lon="12.8871794"><ele>11.0</ele><time>2026-04-09T09:42:40.702Z</time></trkpt><trkpt lat="43.8919342" lon="12.8869957"><ele>11.0</ele><time>2026-04-09T09:42:41.703Z</time></trkpt><trkpt lat="43.8919849" lon="12.8868293"><ele>11.0</ele><time>2026-04-09T09:42:42.702Z</time></trkpt><trkpt lat="43.8920347" lon="12.8866576"><ele>11.0</ele><time>2026-04-09T09:42:43.703Z</time></trkpt><trkpt lat="43.8920904" lon="12.886485"><ele>11.0</ele><time>2026-04-09T09:42:44.703Z</time></trkpt><trkpt lat="43.892154" lon="12.8863189"><ele>11.5</ele><time>2026-04-09T09:42:45.702Z</time></trkpt><trkpt lat="43.8922187" lon="12.8861479"><ele>12.0</ele><time>2026-04-09T09:42:46.702Z</time></trkpt><trkpt lat="43.8922903" lon="12.885978"><ele>12.5</ele><time>2026-04-09T09:42:47.702Z</time></trkpt><trkpt lat="43.8923717" lon="12.8858093"><ele>13.0</ele><time>2026-04-09T09:42:48.703Z</time></trkpt><trkpt lat="43.8924464" lon="12.8856462"><ele>13.0</ele><time>2026-04-09T09:42:49.703Z</time></trkpt><trkpt lat="43.892518" lon="12.8854931"><ele>13.0</ele><time>2026-04-09T09:42:50.702Z</time></trkpt><trkpt lat="43.8925887" lon="12.885355"><ele>13.0</ele><time>2026-04-09T09:42:51.703Z</time></trkpt><trkpt lat="43.8926569" lon="12.8852334"><ele>13.0</ele><time>2026-04-09T09:42:52.703Z</time></trkpt><trkpt lat="43.8927232" lon="12.8851276"><ele>12.499999999999998</ele><time>2026-04-09T09:42:53.703Z</time></trkpt><trkpt lat="43.8927868" lon="12.8850381"><ele>12.0</ele><time>2026-04-09T09:42:54.702Z</time></trkpt><trkpt lat="43.8928455" lon="12.8849721"><ele>11.5</ele><time>2026-04-09T09:42:55.703Z</time></trkpt><trkpt lat="43.8929184" lon="12.8848948"><ele>11.0</ele><time>2026-04-09T09:42:57.702Z</time></trkpt><trkpt lat="43.8929766" lon="12.8848601"><ele>10.5</ele><time>2026-04-09T09:43:04.702Z</time></trkpt><trkpt lat="43.8930673" lon="12.884835"><ele>10.0</ele><time>2026-04-09T09:43:06.703Z</time></trkpt><trkpt lat="43.8931388" lon="12.8848279"><ele>10.0</ele><time>2026-04-09T09:43:07.703Z</time></trkpt><trkpt lat="43.8932136" lon="12.8848107"><ele>10.0</ele><time>2026-04-09T09:43:08.702Z</time></trkpt><trkpt lat="43.8932874" lon="12.8847754"><ele>10.0</ele><time>2026-04-09T09:43:09.703Z</time></trkpt><trkpt lat="43.8933573" lon="12.884728"><ele>10.0</ele><time>2026-04-09T09:43:10.702Z</time></trkpt><trkpt lat="43.8934168" lon="12.8846469"><ele>10.0</ele><time>2026-04-09T09:43:11.703Z</time></trkpt><trkpt lat="43.8934529" lon="12.8845347"><ele>10.0</ele><time>2026-04-09T09:43:12.703Z</time></trkpt><trkpt lat="43.8934774" lon="12.8844009"><ele>10.0</ele><time>2026-04-09T09:43:13.703Z</time></trkpt><trkpt lat="43.8935005" lon="12.8842685"><ele>10.0</ele><time>2026-04-09T09:43:14.703Z</time></trkpt><trkpt lat="43.8935371" lon="12.8841268"><ele>10.0</ele><time>2026-04-09T09:43:15.703Z</time></trkpt><trkpt lat="43.893596" lon="12.8839945"><ele>10.0</ele><time>2026-04-09T09:43:16.703Z</time></trkpt><trkpt lat="43.8936758" lon="12.8838763"><ele>10.0</ele><time>2026-04-09T09:43:17.702Z</time></trkpt><trkpt lat="43.8937676" lon="12.8837646"><ele>10.0</ele><time>2026-04-09T09:43:18.703Z</time></trkpt><trkpt lat="43.8938718" lon="12.883658"><ele>10.0</ele><time>2026-04-09T09:43:19.703Z</time></trkpt><trkpt lat="43.8939735" lon="12.8835547"><ele>10.0</ele><time>2026-04-09T09:43:20.703Z</time></trkpt><trkpt lat="43.8940867" lon="12.8834334"><ele>10.0</ele><time>2026-04-09T09:43:21.703Z</time></trkpt><trkpt lat="43.8942082" lon="12.8833064"><ele>8.666666666666668</ele><time>2026-04-09T09:43:22.703Z</time></trkpt><trkpt lat="43.8943412" lon="12.8831907"><ele>7.333333333333334</ele><time>2026-04-09T09:43:23.702Z</time></trkpt><trkpt lat="43.8944587" lon="12.8830691"><ele>6.0</ele><time>2026-04-09T09:43:24.702Z</time></trkpt><trkpt lat="43.8945796" lon="12.8829499"><ele>6.0</ele><time>2026-04-09T09:43:25.703Z</time></trkpt><trkpt lat="43.8946973" lon="12.882833"><ele>6.0</ele><time>2026-04-09T09:43:26.703Z</time></trkpt><trkpt lat="43.894825" lon="12.8827187"><ele>6.0</ele><time>2026-04-09T09:43:27.702Z</time></trkpt><trkpt lat="43.8949472" lon="12.8825944"><ele>6.0</ele><time>2026-04-09T09:43:28.702Z</time></trkpt><trkpt lat="43.8950704" lon="12.8824649"><ele>6.333333333333334</ele><time>2026-04-09T09:43:29.702Z</time></trkpt><trkpt lat="43.8951978" lon="12.8823355"><ele>6.666666666666667</ele><time>2026-04-09T09:43:30.703Z</time></trkpt><trkpt lat="43.8953272" lon="12.8822048"><ele>7.0</ele><time>2026-04-09T09:43:31.702Z</time></trkpt><trkpt lat="43.8954577" lon="12.8820755"><ele>7.0</ele><time>2026-04-09T09:43:32.702Z</time></trkpt><trkpt lat="43.8955897" lon="12.8819448"><ele>7.0</ele><time>2026-04-09T09:43:33.702Z</time></trkpt><trkpt lat="43.8957225" lon="12.8818106"><ele>7.0</ele><time>2026-04-09T09:43:34.703Z</time></trkpt><trkpt lat="43.8958551" lon="12.8816734"><ele>7.333333333333334</ele><time>2026-04-09T09:43:35.702Z</time></trkpt><trkpt lat="43.8959913" lon="12.8815357"><ele>7.666666666666666</ele><time>2026-04-09T09:43:36.703Z</time></trkpt><trkpt lat="43.8961333" lon="12.8814009"><ele>8.0</ele><time>2026-04-09T09:43:37.702Z</time></trkpt><trkpt lat="43.8962767" lon="12.8812551"><ele>8.0</ele><time>2026-04-09T09:43:38.702Z</time></trkpt><trkpt lat="43.896423" lon="12.8811041"><ele>8.0</ele><time>2026-04-09T09:43:39.702Z</time></trkpt><trkpt lat="43.8965772" lon="12.8809477"><ele>8.0</ele><time>2026-04-09T09:43:40.703Z</time></trkpt><trkpt lat="43.8967236" lon="12.8807982"><ele>8.666666666666666</ele><time>2026-04-09T09:43:41.703Z</time></trkpt><trkpt lat="43.8968746" lon="12.8806483"><ele>9.333333333333334</ele><time>2026-04-09T09:43:42.702Z</time></trkpt><trkpt lat="43.8970205" lon="12.8805021"><ele>10.0</ele><time>2026-04-09T09:43:43.702Z</time></trkpt><trkpt lat="43.897168" lon="12.8803509"><ele>10.0</ele><time>2026-04-09T09:43:44.703Z</time></trkpt><trkpt lat="43.8973176" lon="12.8802049"><ele>10.0</ele><time>2026-04-09T09:43:45.702Z</time></trkpt><trkpt lat="43.8974622" lon="12.8800514"><ele>10.0</ele><time>2026-04-09T09:43:46.702Z</time></trkpt><trkpt lat="43.8976106" lon="12.8799028"><ele>11.333333333333334</ele><time>2026-04-09T09:43:47.703Z</time></trkpt><trkpt lat="43.8977571" lon="12.8797566"><ele>12.666666666666668</ele><time>2026-04-09T09:43:48.703Z</time></trkpt><trkpt lat="43.8979047" lon="12.8796096"><ele>14.0</ele><time>2026-04-09T09:43:49.702Z</time></trkpt><trkpt lat="43.8980524" lon="12.8794652"><ele>14.0</ele><time>2026-04-09T09:43:50.702Z</time></trkpt><trkpt lat="43.8981987" lon="12.8793238"><ele>14.0</ele><time>2026-04-09T09:43:51.703Z</time></trkpt><trkpt lat="43.8983441" lon="12.8791791"><ele>14.0</ele><time>2026-04-09T09:43:52.703Z</time></trkpt><trkpt lat="43.8984848" lon="12.8790305"><ele>12.666666666666668</ele><time>2026-04-09T09:43:53.703Z</time></trkpt><trkpt lat="43.8986252" lon="12.8788811"><ele>11.333333333333334</ele><time>2026-04-09T09:43:54.702Z</time></trkpt><trkpt lat="43.8987631" lon="12.8787297"><ele>10.0</ele><time>2026-04-09T09:43:55.703Z</time></trkpt><trkpt lat="43.8988961" lon="12.8785699"><ele>9.333333333333334</ele><time>2026-04-09T09:43:56.703Z</time></trkpt><trkpt lat="43.8990274" lon="12.8784067"><ele>8.666666666666666</ele><time>2026-04-09T09:43:57.703Z</time></trkpt><trkpt lat="43.8991595" lon="12.8782471"><ele>8.0</ele><time>2026-04-09T09:43:58.703Z</time></trkpt><trkpt lat="43.8992928" lon="12.8780799"><ele>7.333333333333333</ele><time>2026-04-09T09:43:59.702Z</time></trkpt><trkpt lat="43.8994266" lon="12.8779074"><ele>6.666666666666666</ele><time>2026-04-09T09:44:00.702Z</time></trkpt><trkpt lat="43.8995625" lon="12.877726"><ele>6.0</ele><time>2026-04-09T09:44:01.702Z</time></trkpt><trkpt lat="43.8996931" lon="12.8775397"><ele>5.333333333333333</ele><time>2026-04-09T09:44:02.703Z</time></trkpt><trkpt lat="43.8998188" lon="12.8773517"><ele>4.666666666666666</ele><time>2026-04-09T09:44:03.702Z</time></trkpt><trkpt lat="43.8999403" lon="12.8771612"><ele>4.0</ele><time>2026-04-09T09:44:04.702Z</time></trkpt><trkpt lat="43.9000598" lon="12.876968"><ele>5.333333333333333</ele><time>2026-04-09T09:44:05.702Z</time></trkpt><trkpt lat="43.9001771" lon="12.8767775"><ele>6.666666666666666</ele><time>2026-04-09T09:44:06.702Z</time></trkpt><trkpt lat="43.9002916" lon="12.8765887"><ele>8.0</ele><time>2026-04-09T09:44:07.703Z</time></trkpt><trkpt lat="43.9004042" lon="12.8764043"><ele>8.0</ele><time>2026-04-09T09:44:08.702Z</time></trkpt><trkpt lat="43.9005125" lon="12.8762208"><ele>8.0</ele><time>2026-04-09T09:44:09.702Z</time></trkpt><trkpt lat="43.900621" lon="12.8760426"><ele>8.0</ele><time>2026-04-09T09:44:10.702Z</time></trkpt><trkpt lat="43.9007264" lon="12.8758667"><ele>7.333333333333333</ele><time>2026-04-09T09:44:11.703Z</time></trkpt><trkpt lat="43.9008333" lon="12.8756949"><ele>6.666666666666666</ele><time>2026-04-09T09:44:12.703Z</time></trkpt><trkpt lat="43.9009396" lon="12.875525"><ele>6.0</ele><time>2026-04-09T09:44:13.703Z</time></trkpt><trkpt lat="43.9010438" lon="12.8753612"><ele>6.333333333333334</ele><time>2026-04-09T09:44:14.702Z</time></trkpt><trkpt lat="43.9011495" lon="12.8751984"><ele>6.666666666666667</ele><time>2026-04-09T09:44:15.703Z</time></trkpt><trkpt lat="43.9012571" lon="12.8750359"><ele>7.0</ele><time>2026-04-09T09:44:16.703Z</time></trkpt><trkpt lat="43.9013653" lon="12.8748708"><ele>7.0</ele><time>2026-04-09T09:44:17.703Z</time></trkpt><trkpt lat="43.901478" lon="12.874707"><ele>7.0</ele><time>2026-04-09T09:44:18.703Z</time></trkpt><trkpt lat="43.901597" lon="12.8745434"><ele>7.0</ele><time>2026-04-09T09:44:19.702Z</time></trkpt><trkpt lat="43.9017199" lon="12.8743843"><ele>7.333333333333334</ele><time>2026-04-09T09:44:20.702Z</time></trkpt><trkpt lat="43.9018432" lon="12.8742328"><ele>7.666666666666666</ele><time>2026-04-09T09:44:21.703Z</time></trkpt><trkpt lat="43.9019678" lon="12.8740861"><ele>8.0</ele><time>2026-04-09T09:44:22.702Z</time></trkpt><trkpt lat="43.9020948" lon="12.8739455"><ele>8.0</ele><time>2026-04-09T09:44:23.702Z</time></trkpt><trkpt lat="43.9022211" lon="12.8738031"><ele>8.0</ele><time>2026-04-09T09:44:24.703Z</time></trkpt><trkpt lat="43.9023479" lon="12.8736673"><ele>8.0</ele><time>2026-04-09T09:44:25.702Z</time></trkpt><trkpt lat="43.9024778" lon="12.8735363"><ele>7.333333333333333</ele><time>2026-04-09T09:44:26.702Z</time></trkpt><trkpt lat="43.9026079" lon="12.8734075"><ele>6.666666666666666</ele><time>2026-04-09T09:44:27.702Z</time></trkpt><trkpt lat="43.902741" lon="12.8732825"><ele>6.0</ele><time>2026-04-09T09:44:28.703Z</time></trkpt><trkpt lat="43.9028791" lon="12.8731604"><ele>6.0</ele><time>2026-04-09T09:44:29.703Z</time></trkpt><trkpt lat="43.9030148" lon="12.8730341"><ele>6.0</ele><time>2026-04-09T09:44:30.702Z</time></trkpt><trkpt lat="43.9031553" lon="12.8729107"><ele>6.0</ele><time>2026-04-09T09:44:31.702Z</time></trkpt><trkpt lat="43.9032952" lon="12.8727877"><ele>6.0</ele><time>2026-04-09T09:44:32.703Z</time></trkpt><trkpt lat="43.903435" lon="12.8726643"><ele>6.0</ele><time>2026-04-09T09:44:33.702Z</time></trkpt><trkpt lat="43.9035758" lon="12.8725386"><ele>6.0</ele><time>2026-04-09T09:44:34.702Z</time></trkpt><trkpt lat="43.9037152" lon="12.8724182"><ele>6.0</ele><time>2026-04-09T09:44:35.702Z</time></trkpt><trkpt lat="43.903855" lon="12.8722974"><ele>6.0</ele><time>2026-04-09T09:44:36.703Z</time></trkpt><trkpt lat="43.9039967" lon="12.8721787"><ele>6.0</ele><time>2026-04-09T09:44:37.702Z</time></trkpt><trkpt lat="43.9041348" lon="12.8720583"><ele>5.333333333333333</ele><time>2026-04-09T09:44:38.702Z</time></trkpt><trkpt lat="43.9042725" lon="12.8719409"><ele>4.666666666666666</ele><time>2026-04-09T09:44:39.702Z</time></trkpt><trkpt lat="43.9044054" lon="12.8718248"><ele>4.0</ele><time>2026-04-09T09:44:40.703Z</time></trkpt><trkpt lat="43.9045391" lon="12.8717136"><ele>4.0</ele><time>2026-04-09T09:44:41.703Z</time></trkpt><trkpt lat="43.9046734" lon="12.8715983"><ele>4.0</ele><time>2026-04-09T09:44:42.703Z</time></trkpt><trkpt lat="43.9048075" lon="12.8714824"><ele>4.0</ele><time>2026-04-09T09:44:43.702Z</time></trkpt><trkpt lat="43.9049422" lon="12.8713705"><ele>4.0</ele><time>2026-04-09T09:44:44.702Z</time></trkpt><trkpt lat="43.905077" lon="12.8712567"><ele>4.0</ele><time>2026-04-09T09:44:45.702Z</time></trkpt><trkpt lat="43.9052094" lon="12.8711439"><ele>4.0</ele><time>2026-04-09T09:44:46.703Z</time></trkpt><trkpt lat="43.9053348" lon="12.8710349"><ele>4.75</ele><time>2026-04-09T09:44:47.702Z</time></trkpt><trkpt lat="43.9054542" lon="12.8709314"><ele>5.5</ele><time>2026-04-09T09:44:48.703Z</time></trkpt><trkpt lat="43.9055684" lon="12.8708309"><ele>6.25</ele><time>2026-04-09T09:44:49.703Z</time></trkpt><trkpt lat="43.9056756" lon="12.8707359"><ele>7.0</ele><time>2026-04-09T09:44:50.703Z</time></trkpt><trkpt lat="43.905779" lon="12.8706449"><ele>7.0</ele><time>2026-04-09T09:44:51.703Z</time></trkpt><trkpt lat="43.9058801" lon="12.8705582"><ele>6.999999999999999</ele><time>2026-04-09T09:44:52.703Z</time></trkpt><trkpt lat="43.9059698" lon="12.8704845"><ele>6.999999999999999</ele><time>2026-04-09T09:44:53.702Z</time></trkpt><trkpt lat="43.9060421" lon="12.8704368"><ele>7.0</ele><time>2026-04-09T09:44:54.703Z</time></trkpt><trkpt lat="43.9061236" lon="12.8704045"><ele>7.0</ele><time>2026-04-09T09:44:56.702Z</time></trkpt><trkpt lat="43.9062033" lon="12.8703942"><ele>6.3999999999999995</ele><time>2026-04-09T09:45:00.703Z</time></trkpt><trkpt lat="43.9062897" lon="12.8703914"><ele>5.799999999999999</ele><time>2026-04-09T09:45:02.702Z</time></trkpt><trkpt lat="43.9064221" lon="12.870425"><ele>5.2</ele><time>2026-04-09T09:45:04.702Z</time></trkpt><trkpt lat="43.9065004" lon="12.8704273"><ele>4.6</ele><time>2026-04-09T09:45:05.702Z</time></trkpt><trkpt lat="43.9065828" lon="12.870407"><ele>4.0</ele><time>2026-04-09T09:45:06.702Z</time></trkpt><trkpt lat="43.9066589" lon="12.8703597"><ele>4.0</ele><time>2026-04-09T09:45:07.702Z</time></trkpt><trkpt lat="43.9067241" lon="12.8702822"><ele>4.0</ele><time>2026-04-09T09:45:08.702Z</time></trkpt><trkpt lat="43.9067783" lon="12.8701749"><ele>4.0</ele><time>2026-04-09T09:45:09.702Z</time></trkpt><trkpt lat="43.9068141" lon="12.8700573"><ele>4.0</ele><time>2026-04-09T09:45:10.702Z</time></trkpt><trkpt lat="43.9068492" lon="12.8699213"><ele>4.0</ele><time>2026-04-09T09:45:11.702Z</time></trkpt><trkpt lat="43.9069043" lon="12.8697829"><ele>5.4</ele><time>2026-04-09T09:45:12.702Z</time></trkpt><trkpt lat="43.9069779" lon="12.8696716"><ele>6.800000000000001</ele><time>2026-04-09T09:45:13.702Z</time></trkpt><trkpt lat="43.9070702" lon="12.8695975"><ele>8.200000000000001</ele><time>2026-04-09T09:45:14.703Z</time></trkpt><trkpt lat="43.9071772" lon="12.869548"><ele>9.600000000000001</ele><time>2026-04-09T09:45:15.703Z</time></trkpt><trkpt lat="43.9072875" lon="12.8694973"><ele>11.0</ele><time>2026-04-09T09:45:16.702Z</time></trkpt><trkpt lat="43.9073985" lon="12.8694429"><ele>11.0</ele><time>2026-04-09T09:45:17.703Z</time></trkpt><trkpt lat="43.9075117" lon="12.8693834"><ele>11.0</ele><time>2026-04-09T09:45:18.702Z</time></trkpt><trkpt lat="43.9076256" lon="12.8693182"><ele>11.0</ele><time>2026-04-09T09:45:19.702Z</time></trkpt><trkpt lat="43.9077393" lon="12.8692431"><ele>11.0</ele><time>2026-04-09T09:45:20.702Z</time></trkpt><trkpt lat="43.9078557" lon="12.8691781"><ele>11.600000000000001</ele><time>2026-04-09T09:45:21.703Z</time></trkpt><trkpt lat="43.9079654" lon="12.8691119"><ele>12.2</ele><time>2026-04-09T09:45:22.702Z</time></trkpt><trkpt lat="43.908055" lon="12.8690663"><ele>12.799999999999999</ele><time>2026-04-09T09:45:23.702Z</time></trkpt><trkpt lat="43.9081335" lon="12.8690274"><ele>13.399999999999999</ele><time>2026-04-09T09:45:24.702Z</time></trkpt><trkpt lat="43.9082078" lon="12.8689975"><ele>14.0</ele><time>2026-04-09T09:45:25.703Z</time></trkpt><trkpt lat="43.9083219" lon="12.8689879"><ele>14.166666666666668</ele><time>2026-04-09T09:45:27.703Z</time></trkpt><trkpt lat="43.9084277" lon="12.8690169"><ele>14.333333333333334</ele><time>2026-04-09T09:45:29.702Z</time></trkpt><trkpt lat="43.9084976" lon="12.8690631"><ele>14.5</ele><time>2026-04-09T09:45:30.702Z</time></trkpt><trkpt lat="43.9085578" lon="12.8691146"><ele>14.666666666666668</ele><time>2026-04-09T09:45:31.702Z</time></trkpt><trkpt lat="43.9086135" lon="12.8691875"><ele>14.833333333333334</ele><time>2026-04-09T09:45:32.703Z</time></trkpt><trkpt lat="43.9086607" lon="12.8692757"><ele>15.0</ele><time>2026-04-09T09:45:33.702Z</time></trkpt><trkpt lat="43.908701" lon="12.8693809"><ele>15.0</ele><time>2026-04-09T09:45:34.703Z</time></trkpt><trkpt lat="43.9087426" lon="12.8694945"><ele>15.0</ele><time>2026-04-09T09:45:35.702Z</time></trkpt><trkpt lat="43.9087874" lon="12.8696196"><ele>15.0</ele><time>2026-04-09T09:45:36.702Z</time></trkpt><trkpt lat="43.9088319" lon="12.8697542"><ele>15.0</ele><time>2026-04-09T09:45:37.702Z</time></trkpt><trkpt lat="43.9088798" lon="12.8698871"><ele>15.0</ele><time>2026-04-09T09:45:38.702Z</time></trkpt><trkpt lat="43.9089247" lon="12.8700314"><ele>15.5</ele><time>2026-04-09T09:45:39.702Z</time></trkpt><trkpt lat="43.9089743" lon="12.8701892"><ele>16.0</ele><time>2026-04-09T09:45:40.703Z</time></trkpt><trkpt lat="43.9090235" lon="12.8703346"><ele>16.5</ele><time>2026-04-09T09:45:41.703Z</time></trkpt><trkpt lat="43.9090722" lon="12.870495"><ele>17.0</ele><time>2026-04-09T09:45:42.702Z</time></trkpt><trkpt lat="43.9091233" lon="12.870661"><ele>17.0</ele><time>2026-04-09T09:45:43.702Z</time></trkpt><trkpt lat="43.9091732" lon="12.8708267"><ele>17.0</ele><time>2026-04-09T09:45:44.702Z</time></trkpt><trkpt lat="43.9092265" lon="12.870998"><ele>17.0</ele><time>2026-04-09T09:45:45.702Z</time></trkpt><trkpt lat="43.9092777" lon="12.8711595"><ele>17.0</ele><time>2026-04-09T09:45:46.703Z</time></trkpt><trkpt lat="43.909338" lon="12.8713216"><ele>16.25</ele><time>2026-04-09T09:45:47.703Z</time></trkpt><trkpt lat="43.909409" lon="12.8714626"><ele>15.5</ele><time>2026-04-09T09:45:48.702Z</time></trkpt><trkpt lat="43.9094927" lon="12.8715874"><ele>14.75</ele><time>2026-04-09T09:45:49.702Z</time></trkpt><trkpt lat="43.9095694" lon="12.8716967"><ele>14.0</ele><time>2026-04-09T09:45:50.703Z</time></trkpt><trkpt lat="43.9096498" lon="12.871804"><ele>14.0</ele><time>2026-04-09T09:45:51.703Z</time></trkpt><trkpt lat="43.9097248" lon="12.8719227"><ele>14.0</ele><time>2026-04-09T09:45:52.702Z</time></trkpt><trkpt lat="43.9097976" lon="12.8720711"><ele>14.0</ele><time>2026-04-09T09:45:53.702Z</time></trkpt><trkpt lat="43.9098549" lon="12.8722508"><ele>14.0</ele><time>2026-04-09T09:45:54.703Z</time></trkpt><trkpt lat="43.9098898" lon="12.8724533"><ele>13.75</ele><time>2026-04-09T09:45:55.703Z</time></trkpt><trkpt lat="43.909912" lon="12.8726482"><ele>13.5</ele><time>2026-04-09T09:45:56.702Z</time></trkpt><trkpt lat="43.9099306" lon="12.8728293"><ele>13.25</ele><time>2026-04-09T09:45:57.703Z</time></trkpt><trkpt lat="43.9099468" lon="12.873006"><ele>13.0</ele><time>2026-04-09T09:45:58.702Z</time></trkpt><trkpt lat="43.9099669" lon="12.8731927"><ele>13.0</ele><time>2026-04-09T09:45:59.702Z</time></trkpt><trkpt lat="43.909978" lon="12.8733832"><ele>13.0</ele><time>2026-04-09T09:46:00.703Z</time></trkpt><trkpt lat="43.9099974" lon="12.8735612"><ele>13.0</ele><time>2026-04-09T09:46:01.702Z</time></trkpt><trkpt lat="43.9100105" lon="12.8737355"><ele>13.0</ele><time>2026-04-09T09:46:02.702Z</time></trkpt><trkpt lat="43.9100247" lon="12.873915"><ele>13.25</ele><time>2026-04-09T09:46:03.702Z</time></trkpt><trkpt lat="43.9100371" lon="12.8740854"><ele>13.5</ele><time>2026-04-09T09:46:04.703Z</time></trkpt><trkpt lat="43.9100459" lon="12.8742466"><ele>13.75</ele><time>2026-04-09T09:46:05.702Z</time></trkpt><trkpt lat="43.9100633" lon="12.874418"><ele>14.0</ele><time>2026-04-09T09:46:06.703Z</time></trkpt><trkpt lat="43.9100857" lon="12.8745941"><ele>14.0</ele><time>2026-04-09T09:46:07.703Z</time></trkpt><trkpt lat="43.9101093" lon="12.8747562"><ele>13.999999999999998</ele><time>2026-04-09T09:46:08.702Z</time></trkpt><trkpt lat="43.9101444" lon="12.8749067"><ele>13.999999999999998</ele><time>2026-04-09T09:46:09.703Z</time></trkpt><trkpt lat="43.9101889" lon="12.8750404"><ele>14.0</ele><time>2026-04-09T09:46:10.702Z</time></trkpt><trkpt lat="43.910247" lon="12.8751438"><ele>14.0</ele><time>2026-04-09T09:46:11.703Z</time></trkpt><trkpt lat="43.9103091" lon="12.8752626"><ele>14.166666666666668</ele><time>2026-04-09T09:46:12.702Z</time></trkpt><trkpt lat="43.910365" lon="12.8753746"><ele>14.333333333333334</ele><time>2026-04-09T09:46:13.702Z</time></trkpt><trkpt lat="43.9104134" lon="12.8754714"><ele>14.5</ele><time>2026-04-09T09:46:14.702Z</time></trkpt><trkpt lat="43.9104539" lon="12.8755533"><ele>14.666666666666668</ele><time>2026-04-09T09:46:15.703Z</time></trkpt><trkpt lat="43.9104988" lon="12.8756186"><ele>14.833333333333334</ele><time>2026-04-09T09:46:16.702Z</time></trkpt><trkpt lat="43.9106047" lon="12.8756394"><ele>15.0</ele><time>2026-04-09T09:46:18.702Z</time></trkpt><trkpt lat="43.9106885" lon="12.875498"><ele>15.0</ele><time>2026-04-09T09:46:20.702Z</time></trkpt><trkpt lat="43.9107227" lon="12.8753859"><ele>15.0</ele><time>2026-04-09T09:46:21.703Z</time></trkpt><trkpt lat="43.9107636" lon="12.875257"><ele>15.0</ele><time>2026-04-09T09:46:22.702Z</time></trkpt><trkpt lat="43.9108044" lon="12.8750803"><ele>15.0</ele><time>2026-04-09T09:46:23.702Z</time></trkpt><trkpt lat="43.9108441" lon="12.8749166"><ele>15.0</ele><time>2026-04-09T09:46:24.702Z</time></trkpt><trkpt lat="43.9108861" lon="12.8747399"><ele>17.0</ele><time>2026-04-09T09:46:25.702Z</time></trkpt><trkpt lat="43.9109276" lon="12.8745599"><ele>19.0</ele><time>2026-04-09T09:46:26.703Z</time></trkpt><trkpt lat="43.9109811" lon="12.8743718"><ele>21.0</ele><time>2026-04-09T09:46:27.703Z</time></trkpt><trkpt lat="43.9110342" lon="12.8741901"><ele>23.0</ele><time>2026-04-09T09:46:28.703Z</time></trkpt><trkpt lat="43.9111019" lon="12.8740135"><ele>23.0</ele><time>2026-04-09T09:46:29.703Z</time></trkpt><trkpt lat="43.9111752" lon="12.8738431"><ele>23.0</ele><time>2026-04-09T09:46:30.702Z</time></trkpt><trkpt lat="43.9112625" lon="12.8736857"><ele>23.0</ele><time>2026-04-09T09:46:31.702Z</time></trkpt><trkpt lat="43.9113521" lon="12.8735333"><ele>23.0</ele><time>2026-04-09T09:46:32.702Z</time></trkpt><trkpt lat="43.9114427" lon="12.8733841"><ele>22.25</ele><time>2026-04-09T09:46:33.702Z</time></trkpt><trkpt lat="43.9115322" lon="12.8732341"><ele>21.5</ele><time>2026-04-09T09:46:34.703Z</time></trkpt><trkpt lat="43.9116166" lon="12.8730791"><ele>20.75</ele><time>2026-04-09T09:46:35.702Z</time></trkpt><trkpt lat="43.9117015" lon="12.8729298"><ele>20.0</ele><time>2026-04-09T09:46:36.702Z</time></trkpt><trkpt lat="43.9117853" lon="12.8727803"><ele>22.0</ele><time>2026-04-09T09:46:37.702Z</time></trkpt><trkpt lat="43.9118604" lon="12.8726335"><ele>24.0</ele><time>2026-04-09T09:46:38.702Z</time></trkpt><trkpt lat="43.9119268" lon="12.8724955"><ele>26.0</ele><time>2026-04-09T09:46:39.702Z</time></trkpt><trkpt lat="43.9119897" lon="12.8723657"><ele>28.0</ele><time>2026-04-09T09:46:40.702Z</time></trkpt><trkpt lat="43.912054" lon="12.8722389"><ele>28.0</ele><time>2026-04-09T09:46:41.702Z</time></trkpt><trkpt lat="43.9121216" lon="12.8721185"><ele>27.999999999999996</ele><time>2026-04-09T09:46:42.703Z</time></trkpt><trkpt lat="43.912186" lon="12.8719922"><ele>27.999999999999996</ele><time>2026-04-09T09:46:43.703Z</time></trkpt><trkpt lat="43.9122508" lon="12.8718633"><ele>28.0</ele><time>2026-04-09T09:46:44.703Z</time></trkpt><trkpt lat="43.9123138" lon="12.8717454"><ele>28.0</ele><time>2026-04-09T09:46:45.703Z</time></trkpt><trkpt lat="43.9123714" lon="12.87164"><ele>27.666666666666668</ele><time>2026-04-09T09:46:46.703Z</time></trkpt><trkpt lat="43.9124237" lon="12.8715367"><ele>27.333333333333336</ele><time>2026-04-09T09:46:47.702Z</time></trkpt><trkpt lat="43.9124694" lon="12.8714452"><ele>27.0</ele><time>2026-04-09T09:46:48.702Z</time></trkpt><trkpt lat="43.9125187" lon="12.8713497"><ele>26.666666666666664</ele><time>2026-04-09T09:46:49.702Z</time></trkpt><trkpt lat="43.9125722" lon="12.8712495"><ele>26.333333333333332</ele><time>2026-04-09T09:46:50.702Z</time></trkpt><trkpt lat="43.9126313" lon="12.8711469"><ele>26.0</ele><time>2026-04-09T09:46:51.703Z</time></trkpt><trkpt lat="43.9126891" lon="12.8710286"><ele>28.6</ele><time>2026-04-09T09:46:52.702Z</time></trkpt><trkpt lat="43.9127482" lon="12.8709145"><ele>31.200000000000003</ele><time>2026-04-09T09:46:53.703Z</time></trkpt><trkpt lat="43.9128059" lon="12.8707927"><ele>33.8</ele><time>2026-04-09T09:46:54.703Z</time></trkpt><trkpt lat="43.9128629" lon="12.8706641"><ele>36.4</ele><time>2026-04-09T09:46:55.702Z</time></trkpt><trkpt lat="43.9129129" lon="12.8705452"><ele>39.0</ele><time>2026-04-09T09:46:56.703Z</time></trkpt><trkpt lat="43.9129616" lon="12.8704363"><ele>39.0</ele><time>2026-04-09T09:46:57.702Z</time></trkpt><trkpt lat="43.9130057" lon="12.8703306"><ele>39.0</ele><time>2026-04-09T09:46:58.702Z</time></trkpt><trkpt lat="43.9130455" lon="12.8702347"><ele>39.0</ele><time>2026-04-09T09:46:59.702Z</time></trkpt><trkpt lat="43.9130833" lon="12.8701413"><ele>39.0</ele><time>2026-04-09T09:47:00.702Z</time></trkpt><trkpt lat="43.9131164" lon="12.8700407"><ele>39.0</ele><time>2026-04-09T09:47:01.703Z</time></trkpt><trkpt lat="43.913152" lon="12.8699342"><ele>39.0</ele><time>2026-04-09T09:47:02.702Z</time></trkpt><trkpt lat="43.913184" lon="12.8698334"><ele>37.5</ele><time>2026-04-09T09:47:03.703Z</time></trkpt><trkpt lat="43.9132293" lon="12.8697152"><ele>36.0</ele><time>2026-04-09T09:47:04.702Z</time></trkpt><trkpt lat="43.9133049" lon="12.8695675"><ele>34.5</ele><time>2026-04-09T09:47:05.703Z</time></trkpt><trkpt lat="43.9134015" lon="12.8694006"><ele>33.0</ele><time>2026-04-09T09:47:06.703Z</time></trkpt><trkpt lat="43.9134803" lon="12.8692455"><ele>32.75</ele><time>2026-04-09T09:47:07.702Z</time></trkpt><trkpt lat="43.91356" lon="12.8690896"><ele>32.5</ele><time>2026-04-09T09:47:08.703Z</time></trkpt><trkpt lat="43.9136319" lon="12.8689482"><ele>32.25</ele><time>2026-04-09T09:47:09.703Z</time></trkpt><trkpt lat="43.9136985" lon="12.8688002"><ele>32.0</ele><time>2026-04-09T09:47:10.703Z</time></trkpt><trkpt lat="43.9137654" lon="12.8686494"><ele>32.0</ele><time>2026-04-09T09:47:11.702Z</time></trkpt><trkpt lat="43.9138309" lon="12.8684966"><ele>32.0</ele><time>2026-04-09T09:47:12.703Z</time></trkpt><trkpt lat="43.913901" lon="12.868349"><ele>32.0</ele><time>2026-04-09T09:47:13.702Z</time></trkpt><trkpt lat="43.9139787" lon="12.8681876"><ele>32.0</ele><time>2026-04-09T09:47:14.702Z</time></trkpt><trkpt lat="43.9140542" lon="12.868025"><ele>32.666666666666664</ele><time>2026-04-09T09:47:15.703Z</time></trkpt><trkpt lat="43.9141373" lon="12.8678521"><ele>33.333333333333336</ele><time>2026-04-09T09:47:16.702Z</time></trkpt><trkpt lat="43.9142332" lon="12.867661"><ele>34.0</ele><time>2026-04-09T09:47:17.703Z</time></trkpt><trkpt lat="43.914323" lon="12.8674656"><ele>34.0</ele><time>2026-04-09T09:47:18.702Z</time></trkpt><trkpt lat="43.9144063" lon="12.8672636"><ele>34.0</ele><time>2026-04-09T09:47:19.702Z</time></trkpt><trkpt lat="43.9144875" lon="12.8670745"><ele>34.0</ele><time>2026-04-09T09:47:20.702Z</time></trkpt><trkpt lat="43.9145638" lon="12.8668978"><ele>33.25</ele><time>2026-04-09T09:47:21.703Z</time></trkpt><trkpt lat="43.914638" lon="12.8667374"><ele>32.5</ele><time>2026-04-09T09:47:22.702Z</time></trkpt><trkpt lat="43.9147071" lon="12.8665791"><ele>31.75</ele><time>2026-04-09T09:47:23.703Z</time></trkpt><trkpt lat="43.9147767" lon="12.8664193"><ele>31.0</ele><time>2026-04-09T09:47:24.702Z</time></trkpt><trkpt lat="43.9148463" lon="12.8662629"><ele>31.0</ele><time>2026-04-09T09:47:25.702Z</time></trkpt><trkpt lat="43.9149183" lon="12.8661126"><ele>31.0</ele><time>2026-04-09T09:47:26.703Z</time></trkpt><trkpt lat="43.9149854" lon="12.8659618"><ele>31.0</ele><time>2026-04-09T09:47:27.702Z</time></trkpt><trkpt lat="43.9150565" lon="12.8658064"><ele>31.0</ele><time>2026-04-09T09:47:28.702Z</time></trkpt><trkpt lat="43.9151293" lon="12.8656575"><ele>31.5</ele><time>2026-04-09T09:47:29.703Z</time></trkpt><trkpt lat="43.9151964" lon="12.8655082"><ele>32.0</ele><time>2026-04-09T09:47:30.702Z</time></trkpt><trkpt lat="43.9152671" lon="12.8653597"><ele>32.5</ele><time>2026-04-09T09:47:31.703Z</time></trkpt><trkpt lat="43.915337" lon="12.8652121"><ele>33.0</ele><time>2026-04-09T09:47:32.703Z</time></trkpt><trkpt lat="43.9154103" lon="12.8650749"><ele>33.0</ele><time>2026-04-09T09:47:33.702Z</time></trkpt><trkpt lat="43.9154769" lon="12.8649384"><ele>33.0</ele><time>2026-04-09T09:47:34.702Z</time></trkpt><trkpt lat="43.9155504" lon="12.8648173"><ele>33.0</ele><time>2026-04-09T09:47:35.703Z</time></trkpt><trkpt lat="43.9156272" lon="12.8646984"><ele>33.0</ele><time>2026-04-09T09:47:36.702Z</time></trkpt><trkpt lat="43.9157107" lon="12.8645723"><ele>33.0</ele><time>2026-04-09T09:47:37.703Z</time></trkpt><trkpt lat="43.9157961" lon="12.8644597"><ele>33.0</ele><time>2026-04-09T09:47:38.703Z</time></trkpt><trkpt lat="43.9158837" lon="12.864349"><ele>33.0</ele><time>2026-04-09T09:47:39.702Z</time></trkpt><trkpt lat="43.9159722" lon="12.8642436"><ele>33.0</ele><time>2026-04-09T09:47:40.702Z</time></trkpt><trkpt lat="43.9160571" lon="12.8641367"><ele>33.5</ele><time>2026-04-09T09:47:41.702Z</time></trkpt><trkpt lat="43.9161507" lon="12.864027"><ele>34.0</ele><time>2026-04-09T09:47:42.703Z</time></trkpt><trkpt lat="43.9162422" lon="12.8639254"><ele>34.5</ele><time>2026-04-09T09:47:43.703Z</time></trkpt><trkpt lat="43.9163338" lon="12.8638159"><ele>35.0</ele><time>2026-04-09T09:47:44.703Z</time></trkpt><trkpt lat="43.9164199" lon="12.8636941"><ele>35.0</ele><time>2026-04-09T09:47:45.702Z</time></trkpt><trkpt lat="43.9165008" lon="12.8635763"><ele>35.0</ele><time>2026-04-09T09:47:46.703Z</time></trkpt><trkpt lat="43.9165787" lon="12.8634605"><ele>35.0</ele><time>2026-04-09T09:47:47.702Z</time></trkpt><trkpt lat="43.9166458" lon="12.8633449"><ele>35.0</ele><time>2026-04-09T09:47:48.702Z</time></trkpt><trkpt lat="43.9167159" lon="12.8632349"><ele>35.0</ele><time>2026-04-09T09:47:49.702Z</time></trkpt><trkpt lat="43.9167803" lon="12.8631268"><ele>35.0</ele><time>2026-04-09T09:47:50.702Z</time></trkpt><trkpt lat="43.9168449" lon="12.8630226"><ele>35.0</ele><time>2026-04-09T09:47:51.702Z</time></trkpt><trkpt lat="43.9169111" lon="12.8629215"><ele>35.0</ele><time>2026-04-09T09:47:52.702Z</time></trkpt><trkpt lat="43.9169757" lon="12.8628237"><ele>35.0</ele><time>2026-04-09T09:47:53.703Z</time></trkpt><trkpt lat="43.9170418" lon="12.8627181"><ele>35.0</ele><time>2026-04-09T09:47:54.702Z</time></trkpt><trkpt lat="43.9171032" lon="12.8626221"><ele>34.5</ele><time>2026-04-09T09:47:55.702Z</time></trkpt><trkpt lat="43.9171609" lon="12.8625359"><ele>34.0</ele><time>2026-04-09T09:47:56.703Z</time></trkpt><trkpt lat="43.9172143" lon="12.8624508"><ele>33.5</ele><time>2026-04-09T09:47:57.702Z</time></trkpt><trkpt lat="43.9172702" lon="12.8623702"><ele>33.0</ele><time>2026-04-09T09:47:58.702Z</time></trkpt><trkpt lat="43.9173265" lon="12.8622828"><ele>32.5</ele><time>2026-04-09T09:47:59.703Z</time></trkpt><trkpt lat="43.9173932" lon="12.8621787"><ele>32.0</ele><time>2026-04-09T09:48:00.703Z</time></trkpt><trkpt lat="43.9174728" lon="12.8620696"><ele>32.0</ele><time>2026-04-09T09:48:01.702Z</time></trkpt><trkpt lat="43.9175551" lon="12.8619462"><ele>32.0</ele><time>2026-04-09T09:48:02.703Z</time></trkpt><trkpt lat="43.9176512" lon="12.8618366"><ele>32.0</ele><time>2026-04-09T09:48:03.703Z</time></trkpt><trkpt lat="43.917754" lon="12.861729"><ele>32.0</ele><time>2026-04-09T09:48:04.702Z</time></trkpt><trkpt lat="43.9178516" lon="12.8616205"><ele>33.5</ele><time>2026-04-09T09:48:05.702Z</time></trkpt><trkpt lat="43.9179464" lon="12.8615185"><ele>35.0</ele><time>2026-04-09T09:48:06.703Z</time></trkpt><trkpt lat="43.9180325" lon="12.8614161"><ele>36.5</ele><time>2026-04-09T09:48:07.703Z</time></trkpt><trkpt lat="43.9181158" lon="12.8613098"><ele>38.0</ele><time>2026-04-09T09:48:08.702Z</time></trkpt><trkpt lat="43.9181941" lon="12.8612165"><ele>38.0</ele><time>2026-04-09T09:48:09.702Z</time></trkpt><trkpt lat="43.9182697" lon="12.8611274"><ele>38.0</ele><time>2026-04-09T09:48:10.703Z</time></trkpt><trkpt lat="43.9183463" lon="12.8610501"><ele>38.0</ele><time>2026-04-09T09:48:11.702Z</time></trkpt><trkpt lat="43.918412" lon="12.8609641"><ele>38.0</ele><time>2026-04-09T09:48:12.702Z</time></trkpt><trkpt lat="43.9184831" lon="12.8608807"><ele>38.0</ele><time>2026-04-09T09:48:13.702Z</time></trkpt><trkpt lat="43.9185575" lon="12.8607962"><ele>38.4</ele><time>2026-04-09T09:48:14.702Z</time></trkpt><trkpt lat="43.9186387" lon="12.86071"><ele>38.8</ele><time>2026-04-09T09:48:15.702Z</time></trkpt><trkpt lat="43.9187212" lon="12.8606195"><ele>39.2</ele><time>2026-04-09T09:48:16.702Z</time></trkpt><trkpt lat="43.9188095" lon="12.8605261"><ele>39.6</ele><time>2026-04-09T09:48:17.702Z</time></trkpt><trkpt lat="43.9188986" lon="12.8604245"><ele>40.0</ele><time>2026-04-09T09:48:18.702Z</time></trkpt><trkpt lat="43.9189921" lon="12.8603212"><ele>40.0</ele><time>2026-04-09T09:48:19.702Z</time></trkpt><trkpt lat="43.9190743" lon="12.8602202"><ele>40.0</ele><time>2026-04-09T09:48:20.702Z</time></trkpt><trkpt lat="43.9191664" lon="12.8601252"><ele>40.0</ele><time>2026-04-09T09:48:21.702Z</time></trkpt><trkpt lat="43.9192571" lon="12.8600233"><ele>40.0</ele><time>2026-04-09T09:48:22.702Z</time></trkpt><trkpt lat="43.9193331" lon="12.8599232"><ele>40.0</ele><time>2026-04-09T09:48:23.703Z</time></trkpt><trkpt lat="43.9194043" lon="12.8598265"><ele>39.6</ele><time>2026-04-09T09:48:24.703Z</time></trkpt><trkpt lat="43.9194867" lon="12.8597365"><ele>39.2</ele><time>2026-04-09T09:48:25.702Z</time></trkpt><trkpt lat="43.9195698" lon="12.8596447"><ele>38.8</ele><time>2026-04-09T09:48:26.702Z</time></trkpt><trkpt lat="43.9196534" lon="12.8595555"><ele>38.4</ele><time>2026-04-09T09:48:27.703Z</time></trkpt><trkpt lat="43.919745" lon="12.8594637"><ele>38.0</ele><time>2026-04-09T09:48:28.702Z</time></trkpt><trkpt lat="43.9198372" lon="12.8593719"><ele>38.0</ele><time>2026-04-09T09:48:29.703Z</time></trkpt><trkpt lat="43.9199304" lon="12.8592764"><ele>38.0</ele><time>2026-04-09T09:48:30.702Z</time></trkpt><trkpt lat="43.9200239" lon="12.8591823"><ele>38.0</ele><time>2026-04-09T09:48:31.702Z</time></trkpt><trkpt lat="43.9201139" lon="12.8590886"><ele>38.0</ele><time>2026-04-09T09:48:32.702Z</time></trkpt><trkpt lat="43.9201963" lon="12.859013"><ele>38.0</ele><time>2026-04-09T09:48:33.702Z</time></trkpt><trkpt lat="43.9202711" lon="12.8589342"><ele>38.0</ele><time>2026-04-09T09:48:34.702Z</time></trkpt><trkpt lat="43.9203448" lon="12.8588689"><ele>38.0</ele><time>2026-04-09T09:48:35.703Z</time></trkpt><trkpt lat="43.9204275" lon="12.8587968"><ele>38.0</ele><time>2026-04-09T09:48:36.703Z</time></trkpt><trkpt lat="43.9205114" lon="12.8587208"><ele>38.0</ele><time>2026-04-09T09:48:37.703Z</time></trkpt><trkpt lat="43.920602" lon="12.858644"><ele>38.0</ele><time>2026-04-09T09:48:38.703Z</time></trkpt><trkpt lat="43.9206925" lon="12.8585533"><ele>38.0</ele><time>2026-04-09T09:48:39.702Z</time></trkpt><trkpt lat="43.920786" lon="12.8584678"><ele>38.0</ele><time>2026-04-09T09:48:40.703Z</time></trkpt><trkpt lat="43.9208795" lon="12.858375"><ele>38.0</ele><time>2026-04-09T09:48:41.702Z</time></trkpt><trkpt lat="43.9209754" lon="12.858283"><ele>38.0</ele><time>2026-04-09T09:48:42.703Z</time></trkpt><trkpt lat="43.9210743" lon="12.8581854"><ele>38.0</ele><time>2026-04-09T09:48:43.702Z</time></trkpt><trkpt lat="43.9211738" lon="12.8580897"><ele>38.0</ele><time>2026-04-09T09:48:44.702Z</time></trkpt><trkpt lat="43.9212695" lon="12.8579959"><ele>38.0</ele><time>2026-04-09T09:48:45.702Z</time></trkpt><trkpt lat="43.9213743" lon="12.8578992"><ele>38.0</ele><time>2026-04-09T09:48:46.703Z</time></trkpt><trkpt lat="43.9214797" lon="12.8578018"><ele>38.0</ele><time>2026-04-09T09:48:47.702Z</time></trkpt><trkpt lat="43.921585" lon="12.8576988"><ele>38.0</ele><time>2026-04-09T09:48:48.702Z</time></trkpt><trkpt lat="43.9216911" lon="12.8575962"><ele>38.0</ele><time>2026-04-09T09:48:49.702Z</time></trkpt><trkpt lat="43.9218016" lon="12.8574957"><ele>38.0</ele><time>2026-04-09T09:48:50.702Z</time></trkpt><trkpt lat="43.9219134" lon="12.8573956"><ele>36.5</ele><time>2026-04-09T09:48:51.702Z</time></trkpt><trkpt lat="43.9220273" lon="12.8572894"><ele>35.0</ele><time>2026-04-09T09:48:52.703Z</time></trkpt><trkpt lat="43.9221433" lon="12.8571769"><ele>33.5</ele><time>2026-04-09T09:48:53.702Z</time></trkpt><trkpt lat="43.922264" lon="12.857067"><ele>32.0</ele><time>2026-04-09T09:48:54.703Z</time></trkpt><trkpt lat="43.9223849" lon="12.8569598"><ele>32.0</ele><time>2026-04-09T09:48:55.702Z</time></trkpt><trkpt lat="43.9225038" lon="12.856852"><ele>32.0</ele><time>2026-04-09T09:48:56.703Z</time></trkpt><trkpt lat="43.922624" lon="12.8567359"><ele>32.0</ele><time>2026-04-09T09:48:57.702Z</time></trkpt><trkpt lat="43.9227471" lon="12.8566207"><ele>32.0</ele><time>2026-04-09T09:48:58.702Z</time></trkpt><trkpt lat="43.9228655" lon="12.8565081"><ele>32.0</ele><time>2026-04-09T09:48:59.703Z</time></trkpt><trkpt lat="43.922986" lon="12.8563961"><ele>32.0</ele><time>2026-04-09T09:49:00.702Z</time></trkpt><trkpt lat="43.9231008" lon="12.8562821"><ele>32.0</ele><time>2026-04-09T09:49:01.702Z</time></trkpt><trkpt lat="43.9232216" lon="12.8561689"><ele>32.0</ele><time>2026-04-09T09:49:02.703Z</time></trkpt><trkpt lat="43.923342" lon="12.8560602"><ele>32.5</ele><time>2026-04-09T09:49:03.703Z</time></trkpt><trkpt lat="43.9234572" lon="12.8559395"><ele>33.0</ele><time>2026-04-09T09:49:04.702Z</time></trkpt><trkpt lat="43.9235808" lon="12.8558258"><ele>33.5</ele><time>2026-04-09T09:49:05.702Z</time></trkpt><trkpt lat="43.9237065" lon="12.8557157"><ele>34.0</ele><time>2026-04-09T09:49:06.703Z</time></trkpt><trkpt lat="43.9238305" lon="12.8555997"><ele>34.0</ele><time>2026-04-09T09:49:07.702Z</time></trkpt><trkpt lat="43.9239564" lon="12.8554806"><ele>34.0</ele><time>2026-04-09T09:49:08.702Z</time></trkpt><trkpt lat="43.9240863" lon="12.8553609"><ele>34.0</ele><time>2026-04-09T09:49:09.702Z</time></trkpt><trkpt lat="43.9242242" lon="12.8552458"><ele>33.0</ele><time>2026-04-09T09:49:10.703Z</time></trkpt><trkpt lat="43.9243565" lon="12.8551251"><ele>32.0</ele><time>2026-04-09T09:49:11.703Z</time></trkpt><trkpt lat="43.9244925" lon="12.8550054"><ele>31.0</ele><time>2026-04-09T09:49:12.703Z</time></trkpt><trkpt lat="43.9246289" lon="12.8548842"><ele>31.0</ele><time>2026-04-09T09:49:13.702Z</time></trkpt><trkpt lat="43.9247615" lon="12.8547652"><ele>31.0</ele><time>2026-04-09T09:49:14.702Z</time></trkpt><trkpt lat="43.9248993" lon="12.8546401"><ele>31.0</ele><time>2026-04-09T09:49:15.702Z</time></trkpt><trkpt lat="43.9250389" lon="12.8545195"><ele>32.0</ele><time>2026-04-09T09:49:16.702Z</time></trkpt><trkpt lat="43.9251776" lon="12.8543981"><ele>33.0</ele><time>2026-04-09T09:49:17.702Z</time></trkpt><trkpt lat="43.9253162" lon="12.8542731"><ele>34.0</ele><time>2026-04-09T09:49:18.702Z</time></trkpt><trkpt lat="43.9254531" lon="12.8541549"><ele>34.0</ele><time>2026-04-09T09:49:19.703Z</time></trkpt><trkpt lat="43.9255898" lon="12.8540309"><ele>34.0</ele><time>2026-04-09T09:49:20.702Z</time></trkpt><trkpt lat="43.9257312" lon="12.8539099"><ele>34.0</ele><time>2026-04-09T09:49:21.702Z</time></trkpt><trkpt lat="43.9258683" lon="12.8537878"><ele>33.0</ele><time>2026-04-09T09:49:22.702Z</time></trkpt><trkpt lat="43.9260041" lon="12.8536655"><ele>32.0</ele><time>2026-04-09T09:49:23.702Z</time></trkpt><trkpt lat="43.9261448" lon="12.8535342"><ele>31.0</ele><time>2026-04-09T09:49:24.702Z</time></trkpt><trkpt lat="43.9262911" lon="12.8533981"><ele>31.0</ele><time>2026-04-09T09:49:25.703Z</time></trkpt><trkpt lat="43.9264446" lon="12.8532613"><ele>31.0</ele><time>2026-04-09T09:49:26.702Z</time></trkpt><trkpt lat="43.9265965" lon="12.8531343"><ele>31.0</ele><time>2026-04-09T09:49:27.702Z</time></trkpt><trkpt lat="43.9267442" lon="12.8529989"><ele>32.0</ele><time>2026-04-09T09:49:28.703Z</time></trkpt><trkpt lat="43.9268858" lon="12.8528503"><ele>33.0</ele><time>2026-04-09T09:49:29.703Z</time></trkpt><trkpt lat="43.9270224" lon="12.8527041"><ele>34.0</ele><time>2026-04-09T09:49:30.702Z</time></trkpt><trkpt lat="43.9271539" lon="12.852565"><ele>34.0</ele><time>2026-04-09T09:49:31.702Z</time></trkpt><trkpt lat="43.9272751" lon="12.8524332"><ele>34.0</ele><time>2026-04-09T09:49:32.703Z</time></trkpt><trkpt lat="43.9273764" lon="12.8523192"><ele>34.0</ele><time>2026-04-09T09:49:33.703Z</time></trkpt><trkpt lat="43.9274736" lon="12.8522106"><ele>34.0</ele><time>2026-04-09T09:49:34.703Z</time></trkpt><trkpt lat="43.9275654" lon="12.8521048"><ele>34.5</ele><time>2026-04-09T09:49:35.702Z</time></trkpt><trkpt lat="43.9276659" lon="12.8519894"><ele>35.0</ele><time>2026-04-09T09:49:36.702Z</time></trkpt><trkpt lat="43.9277666" lon="12.8518643"><ele>35.5</ele><time>2026-04-09T09:49:37.702Z</time></trkpt><trkpt lat="43.9278701" lon="12.8517398"><ele>36.0</ele><time>2026-04-09T09:49:38.703Z</time></trkpt><trkpt lat="43.927972" lon="12.851615"><ele>36.0</ele><time>2026-04-09T09:49:39.702Z</time></trkpt><trkpt lat="43.9280771" lon="12.8514958"><ele>36.0</ele><time>2026-04-09T09:49:40.702Z</time></trkpt><trkpt lat="43.9281789" lon="12.8513769"><ele>36.0</ele><time>2026-04-09T09:49:41.703Z</time></trkpt><trkpt lat="43.9282779" lon="12.8512617"><ele>36.0</ele><time>2026-04-09T09:49:42.702Z</time></trkpt><trkpt lat="43.9283759" lon="12.8511574"><ele>35.833333333333336</ele><time>2026-04-09T09:49:43.702Z</time></trkpt><trkpt lat="43.9284666" lon="12.8510705"><ele>35.666666666666664</ele><time>2026-04-09T09:49:44.702Z</time></trkpt><trkpt lat="43.9285444" lon="12.8510018"><ele>35.5</ele><time>2026-04-09T09:49:45.703Z</time></trkpt><trkpt lat="43.928608" lon="12.8509502"><ele>35.33333333333333</ele><time>2026-04-09T09:49:46.703Z</time></trkpt><trkpt lat="43.9286935" lon="12.8508649"><ele>35.166666666666664</ele><time>2026-04-09T09:49:48.702Z</time></trkpt><trkpt lat="43.9287097" lon="12.8507796"><ele>35.0</ele><time>2026-04-09T09:50:07.702Z</time></trkpt><trkpt lat="43.9286107" lon="12.8508139"><ele>35.0</ele><time>2026-04-09T09:50:09.702Z</time></trkpt><trkpt lat="43.9285414" lon="12.8508988"><ele>35.0</ele><time>2026-04-09T09:50:10.703Z</time></trkpt><trkpt lat="43.9284647" lon="12.8510004"><ele>35.0</ele><time>2026-04-09T09:50:11.703Z</time></trkpt><trkpt lat="43.9283743" lon="12.8511087"><ele>35.0</ele><time>2026-04-09T09:50:12.703Z</time></trkpt><trkpt lat="43.9282717" lon="12.8512361"><ele>35.33333333333333</ele><time>2026-04-09T09:50:13.703Z</time></trkpt><trkpt lat="43.9281618" lon="12.8513707"><ele>35.666666666666664</ele><time>2026-04-09T09:50:14.702Z</time></trkpt><trkpt lat="43.9280509" lon="12.8515098"><ele>36.0</ele><time>2026-04-09T09:50:15.702Z</time></trkpt><trkpt lat="43.9279304" lon="12.8516495"><ele>36.0</ele><time>2026-04-09T09:50:16.702Z</time></trkpt><trkpt lat="43.9278115" lon="12.8517893"><ele>36.0</ele><time>2026-04-09T09:50:17.702Z</time></trkpt><trkpt lat="43.9276965" lon="12.8519237"><ele>36.0</ele><time>2026-04-09T09:50:18.702Z</time></trkpt><trkpt lat="43.9275851" lon="12.8520559"><ele>35.5</ele><time>2026-04-09T09:50:19.702Z</time></trkpt><trkpt lat="43.9274675" lon="12.8521841"><ele>35.0</ele><time>2026-04-09T09:50:20.702Z</time></trkpt><trkpt lat="43.9273526" lon="12.8523055"><ele>34.5</ele><time>2026-04-09T09:50:21.702Z</time></trkpt><trkpt lat="43.927246" lon="12.8524128"><ele>34.0</ele><time>2026-04-09T09:50:22.702Z</time></trkpt><trkpt lat="43.927148" lon="12.8525128"><ele>34.0</ele><time>2026-04-09T09:50:23.703Z</time></trkpt><trkpt lat="43.9270468" lon="12.8526253"><ele>34.0</ele><time>2026-04-09T09:50:24.702Z</time></trkpt><trkpt lat="43.9269512" lon="12.852729"><ele>34.0</ele><time>2026-04-09T09:50:25.703Z</time></trkpt><trkpt lat="43.9268688" lon="12.8528219"><ele>34.0</ele><time>2026-04-09T09:50:26.702Z</time></trkpt><trkpt lat="43.9267932" lon="12.8529003"><ele>34.0</ele><time>2026-04-09T09:50:27.703Z</time></trkpt><trkpt lat="43.9267276" lon="12.8529663"><ele>34.0</ele><time>2026-04-09T09:50:28.702Z</time></trkpt><trkpt lat="43.9266747" lon="12.8530344"><ele>34.0</ele><time>2026-04-09T09:50:29.702Z</time></trkpt><trkpt lat="43.9266527" lon="12.8531588"><ele>34.0</ele><time>2026-04-09T09:50:31.703Z</time></trkpt><trkpt lat="43.9267386" lon="12.8531899"><ele>34.0</ele><time>2026-04-09T09:50:33.703Z</time></trkpt><trkpt lat="43.9268074" lon="12.8531583"><ele>34.0</ele><time>2026-04-09T09:50:34.702Z</time></trkpt><trkpt lat="43.9268888" lon="12.8531139"><ele>34.0</ele><time>2026-04-09T09:50:35.702Z</time></trkpt><trkpt lat="43.9269888" lon="12.8530725"><ele>34.0</ele><time>2026-04-09T09:50:36.702Z</time></trkpt><trkpt lat="43.9270984" lon="12.8530242"><ele>34.0</ele><time>2026-04-09T09:50:37.703Z</time></trkpt><trkpt lat="43.9272252" lon="12.8529657"><ele>34.0</ele><time>2026-04-09T09:50:38.703Z</time></trkpt><trkpt lat="43.9273687" lon="12.8528943"><ele>34.0</ele><time>2026-04-09T09:50:39.703Z</time></trkpt><trkpt lat="43.9275097" lon="12.8528308"><ele>34.0</ele><time>2026-04-09T09:50:40.703Z</time></trkpt><trkpt lat="43.9276541" lon="12.8527697"><ele>34.0</ele><time>2026-04-09T09:50:41.702Z</time></trkpt><trkpt lat="43.9278003" lon="12.8527074"><ele>34.66666666666667</ele><time>2026-04-09T09:50:42.702Z</time></trkpt><trkpt lat="43.9279494" lon="12.8526471"><ele>35.333333333333336</ele><time>2026-04-09T09:50:43.702Z</time></trkpt><trkpt lat="43.9281105" lon="12.8525982"><ele>36.0</ele><time>2026-04-09T09:50:44.703Z</time></trkpt><trkpt lat="43.9282754" lon="12.8525541"><ele>40.0</ele><time>2026-04-09T09:50:45.703Z</time></trkpt><trkpt lat="43.9284308" lon="12.8525203"><ele>44.0</ele><time>2026-04-09T09:50:46.702Z</time></trkpt><trkpt lat="43.9285876" lon="12.8524898"><ele>48.0</ele><time>2026-04-09T09:50:47.702Z</time></trkpt><trkpt lat="43.92874" lon="12.8524681"><ele>48.0</ele><time>2026-04-09T09:50:48.703Z</time></trkpt><trkpt lat="43.9288993" lon="12.8524681"><ele>48.0</ele><time>2026-04-09T09:50:49.703Z</time></trkpt><trkpt lat="43.9290401" lon="12.8524712"><ele>48.0</ele><time>2026-04-09T09:50:50.702Z</time></trkpt><trkpt lat="43.9291581" lon="12.8524887"><ele>48.0</ele><time>2026-04-09T09:50:51.702Z</time></trkpt><trkpt lat="43.9292749" lon="12.8525184"><ele>50.33333333333333</ele><time>2026-04-09T09:50:52.703Z</time></trkpt><trkpt lat="43.9293884" lon="12.8526054"><ele>52.666666666666664</ele><time>2026-04-09T09:50:53.702Z</time></trkpt><trkpt lat="43.9295096" lon="12.8527466"><ele>55.0</ele><time>2026-04-09T09:50:54.702Z</time></trkpt><trkpt lat="43.9296252" lon="12.8529205"><ele>55.33333333333333</ele><time>2026-04-09T09:50:55.702Z</time></trkpt><trkpt lat="43.9297532" lon="12.8531137"><ele>55.66666666666667</ele><time>2026-04-09T09:50:56.702Z</time></trkpt><trkpt lat="43.9298939" lon="12.8533089"><ele>56.0</ele><time>2026-04-09T09:50:57.702Z</time></trkpt><trkpt lat="43.9300152" lon="12.8534995"><ele>58.75</ele><time>2026-04-09T09:50:58.702Z</time></trkpt><trkpt lat="43.9301249" lon="12.8536577"><ele>61.5</ele><time>2026-04-09T09:50:59.702Z</time></trkpt><trkpt lat="43.9302277" lon="12.8538002"><ele>64.25</ele><time>2026-04-09T09:51:00.702Z</time></trkpt><trkpt lat="43.9303364" lon="12.8539246"><ele>67.0</ele><time>2026-04-09T09:51:01.702Z</time></trkpt><trkpt lat="43.9304681" lon="12.8540244"><ele>67.0</ele><time>2026-04-09T09:51:02.703Z</time></trkpt><trkpt lat="43.9306134" lon="12.8541132"><ele>67.0</ele><time>2026-04-09T09:51:03.703Z</time></trkpt><trkpt lat="43.9307383" lon="12.8542314"><ele>67.0</ele><time>2026-04-09T09:51:04.702Z</time></trkpt><trkpt lat="43.9308567" lon="12.8543951"><ele>70.0</ele><time>2026-04-09T09:51:05.702Z</time></trkpt><trkpt lat="43.9309716" lon="12.8545812"><ele>73.0</ele><time>2026-04-09T09:51:06.702Z</time></trkpt><trkpt lat="43.9310955" lon="12.854765"><ele>76.0</ele><time>2026-04-09T09:51:07.703Z</time></trkpt><trkpt lat="43.9312003" lon="12.8549534"><ele>72.0</ele><time>2026-04-09T09:51:08.702Z</time></trkpt><trkpt lat="43.9313142" lon="12.8551302"><ele>68.0</ele><time>2026-04-09T09:51:09.702Z</time></trkpt><trkpt lat="43.9314202" lon="12.8552935"><ele>64.0</ele><time>2026-04-09T09:51:10.702Z</time></trkpt><trkpt lat="43.9315314" lon="12.8554536"><ele>64.0</ele><time>2026-04-09T09:51:11.702Z</time></trkpt><trkpt lat="43.9316508" lon="12.855607"><ele>64.0</ele><time>2026-04-09T09:51:12.703Z</time></trkpt><trkpt lat="43.9317676" lon="12.8557516"><ele>64.0</ele><time>2026-04-09T09:51:13.702Z</time></trkpt><trkpt lat="43.9318866" lon="12.855885"><ele>64.33333333333333</ele><time>2026-04-09T09:51:14.703Z</time></trkpt><trkpt lat="43.9320207" lon="12.8559893"><ele>64.66666666666667</ele><time>2026-04-09T09:51:15.702Z</time></trkpt><trkpt lat="43.9321743" lon="12.8560711"><ele>65.0</ele><time>2026-04-09T09:51:16.703Z</time></trkpt><trkpt lat="43.932334" lon="12.8561387"><ele>65.0</ele><time>2026-04-09T09:51:17.702Z</time></trkpt><trkpt lat="43.9324937" lon="12.8562065"><ele>65.0</ele><time>2026-04-09T09:51:18.702Z</time></trkpt><trkpt lat="43.932645" lon="12.856292"><ele>65.0</ele><time>2026-04-09T09:51:19.703Z</time></trkpt><trkpt lat="43.9327671" lon="12.8564326"><ele>68.33333333333334</ele><time>2026-04-09T09:51:20.703Z</time></trkpt><trkpt lat="43.9328839" lon="12.8565901"><ele>71.66666666666667</ele><time>2026-04-09T09:51:21.702Z</time></trkpt><trkpt lat="43.9329993" lon="12.8567402"><ele>75.0</ele><time>2026-04-09T09:51:22.702Z</time></trkpt><trkpt lat="43.9331323" lon="12.8568755"><ele>75.0</ele><time>2026-04-09T09:51:23.702Z</time></trkpt><trkpt lat="43.9332654" lon="12.8569964"><ele>75.0</ele><time>2026-04-09T09:51:24.702Z</time></trkpt><trkpt lat="43.9334336" lon="12.8570845"><ele>75.0</ele><time>2026-04-09T09:51:25.702Z</time></trkpt><trkpt lat="43.9335869" lon="12.8571664"><ele>79.0</ele><time>2026-04-09T09:51:26.703Z</time></trkpt><trkpt lat="43.9337026" lon="12.8572808"><ele>83.0</ele><time>2026-04-09T09:51:27.703Z</time></trkpt><trkpt lat="43.9338201" lon="12.8574332"><ele>87.0</ele><time>2026-04-09T09:51:28.703Z</time></trkpt><trkpt lat="43.9339159" lon="12.8576362"><ele>87.0</ele><time>2026-04-09T09:51:29.702Z</time></trkpt><trkpt lat="43.9340144" lon="12.8578562"><ele>87.0</ele><time>2026-04-09T09:51:30.702Z</time></trkpt><trkpt lat="43.9341131" lon="12.858106"><ele>87.0</ele><time>2026-04-09T09:51:31.703Z</time></trkpt><trkpt lat="43.9342289" lon="12.8583563"><ele>92.5</ele><time>2026-04-09T09:51:32.702Z</time></trkpt><trkpt lat="43.9343561" lon="12.8586216"><ele>98.0</ele><time>2026-04-09T09:51:33.702Z</time></trkpt><trkpt lat="43.934486" lon="12.858879"><ele>98.0</ele><time>2026-04-09T09:51:34.702Z</time></trkpt><trkpt lat="43.934609" lon="12.8591106"><ele>98.0</ele><time>2026-04-09T09:51:35.703Z</time></trkpt><trkpt lat="43.9347206" lon="12.8593206"><ele>98.0</ele><time>2026-04-09T09:51:36.703Z</time></trkpt><trkpt lat="43.9348246" lon="12.859503"><ele>97.0</ele><time>2026-04-09T09:51:37.702Z</time></trkpt><trkpt lat="43.9349168" lon="12.859669"><ele>96.0</ele><time>2026-04-09T09:51:38.703Z</time></trkpt><trkpt lat="43.9349953" lon="12.8598226"><ele>95.0</ele><time>2026-04-09T09:51:39.703Z</time></trkpt><trkpt lat="43.9350724" lon="12.8599608"><ele>94.0</ele><time>2026-04-09T09:51:40.702Z</time></trkpt><trkpt lat="43.9351353" lon="12.8600818"><ele>95.4</ele><time>2026-04-09T09:51:41.702Z</time></trkpt><trkpt lat="43.9351901" lon="12.8601883"><ele>96.80000000000001</ele><time>2026-04-09T09:51:42.702Z</time></trkpt><trkpt lat="43.9352368" lon="12.8602784"><ele>98.19999999999999</ele><time>2026-04-09T09:51:43.703Z</time></trkpt><trkpt lat="43.93529" lon="12.860358"><ele>99.6</ele><time>2026-04-09T09:51:45.703Z</time></trkpt><trkpt lat="43.9353443" lon="12.8602982"><ele>101.0</ele><time>2026-04-09T09:51:51.702Z</time></trkpt><trkpt lat="43.935347" lon="12.8600974"><ele>101.4</ele><time>2026-04-09T09:51:53.702Z</time></trkpt><trkpt lat="43.9353442" lon="12.8599734"><ele>101.8</ele><time>2026-04-09T09:51:54.703Z</time></trkpt><trkpt lat="43.9353424" lon="12.8598514"><ele>102.2</ele><time>2026-04-09T09:51:55.702Z</time></trkpt><trkpt lat="43.9353336" lon="12.85972"><ele>102.60000000000001</ele><time>2026-04-09T09:51:56.702Z</time></trkpt><trkpt lat="43.9352941" lon="12.8595875"><ele>103.0</ele><time>2026-04-09T09:51:57.702Z</time></trkpt><trkpt lat="43.9352504" lon="12.8594495"><ele>103.0</ele><time>2026-04-09T09:51:58.702Z</time></trkpt><trkpt lat="43.9351971" lon="12.8593281"><ele>103.0</ele><time>2026-04-09T09:51:59.702Z</time></trkpt><trkpt lat="43.9351471" lon="12.859204"><ele>103.0</ele><time>2026-04-09T09:52:00.702Z</time></trkpt><trkpt lat="43.9351054" lon="12.8590903"><ele>103.0</ele><time>2026-04-09T09:52:01.702Z</time></trkpt><trkpt lat="43.9350754" lon="12.8589942"><ele>103.0</ele><time>2026-04-09T09:52:02.702Z</time></trkpt><trkpt lat="43.9350211" lon="12.8588613"><ele>103.66666666666667</ele><time>2026-04-09T09:52:04.703Z</time></trkpt><trkpt lat="43.9349855" lon="12.8587627"><ele>104.33333333333334</ele><time>2026-04-09T09:52:06.702Z</time></trkpt><trkpt lat="43.9349433" lon="12.8586872"><ele>105.0</ele><time>2026-04-09T09:52:08.702Z</time></trkpt><trkpt lat="43.9348983" lon="12.8585859"><ele>105.66666666666666</ele><time>2026-04-09T09:52:10.702Z</time></trkpt><trkpt lat="43.9348551" lon="12.8584987"><ele>106.33333333333333</ele><time>2026-04-09T09:52:12.703Z</time></trkpt><trkpt lat="43.934804" lon="12.8584205"><ele>107.0</ele><time>2026-04-09T09:52:14.702Z</time></trkpt><trkpt lat="43.9347388" lon="12.858327"><ele>106.99999999999999</ele><time>2026-04-09T09:52:16.702Z</time></trkpt><trkpt lat="43.9346898" lon="12.8582395"><ele>107.0</ele><time>2026-04-09T09:52:18.702Z</time></trkpt><trkpt lat="43.9346493" lon="12.8581563"><ele>107.0</ele><time>2026-04-09T09:52:20.702Z</time></trkpt><trkpt lat="43.9346229" lon="12.8580417"><ele>107.0</ele><time>2026-04-09T09:52:22.703Z</time></trkpt><trkpt lat="43.9346169" lon="12.8579212"><ele>106.99999999999999</ele><time>2026-04-09T09:52:24.703Z</time></trkpt><trkpt lat="43.9346385" lon="12.8578032"><ele>107.0</ele><time>2026-04-09T09:52:27.719Z</time></trkpt><trkpt lat="43.9346208" lon="12.8576725"><ele>107.99999999999999</ele><time>2026-04-09T09:52:29.73Z</time></trkpt><trkpt lat="43.9346337" lon="12.857556"><ele>109.0</ele><time>2026-04-09T09:52:31.703Z</time></trkpt><trkpt lat="43.9346407" lon="12.8574396"><ele>110.0</ele><time>2026-04-09T09:52:33.703Z</time></trkpt><trkpt lat="43.9346173" lon="12.857333"><ele>111.0</ele><time>2026-04-09T09:52:35.702Z</time></trkpt><trkpt lat="43.9345778" lon="12.8572283"><ele>111.99999999999999</ele><time>2026-04-09T09:52:37.702Z</time></trkpt><trkpt lat="43.9345161" lon="12.8571169"><ele>113.0</ele><time>2026-04-09T09:52:39.702Z</time></trkpt><trkpt lat="43.9344275" lon="12.8570033"><ele>113.0</ele><time>2026-04-09T09:52:41.703Z</time></trkpt><trkpt lat="43.9343196" lon="12.856881"><ele>113.00000000000001</ele><time>2026-04-09T09:52:43.703Z</time></trkpt><trkpt lat="43.9342593" lon="12.8568027"><ele>113.00000000000001</ele><time>2026-04-09T09:52:44.703Z</time></trkpt><trkpt lat="43.9341997" lon="12.8567395"><ele>113.0</ele><time>2026-04-09T09:52:45.703Z</time></trkpt><trkpt lat="43.9341513" lon="12.856681"><ele>113.0</ele><time>2026-04-09T09:52:46.703Z</time></trkpt><trkpt lat="43.93406" lon="12.856567"><ele>111.80000000000001</ele><time>2026-04-09T09:52:48.702Z</time></trkpt><trkpt lat="43.9339742" lon="12.8564531"><ele>110.60000000000001</ele><time>2026-04-09T09:52:50.702Z</time></trkpt><trkpt lat="43.933882" lon="12.8563293"><ele>109.39999999999999</ele><time>2026-04-09T09:52:52.702Z</time></trkpt><trkpt lat="43.9338292" lon="12.8562542"><ele>108.19999999999999</ele><time>2026-04-09T09:52:53.702Z</time></trkpt><trkpt lat="43.9337865" lon="12.8561612"><ele>107.0</ele><time>2026-04-09T09:52:54.702Z</time></trkpt><trkpt lat="43.9337478" lon="12.8560603"><ele>107.0</ele><time>2026-04-09T09:52:55.702Z</time></trkpt><trkpt lat="43.9337089" lon="12.8559598"><ele>106.99999999999999</ele><time>2026-04-09T09:52:56.703Z</time></trkpt><trkpt lat="43.9336659" lon="12.8558433"><ele>106.99999999999999</ele><time>2026-04-09T09:52:57.702Z</time></trkpt><trkpt lat="43.9336208" lon="12.8557182"><ele>107.0</ele><time>2026-04-09T09:52:58.702Z</time></trkpt><trkpt lat="43.9335783" lon="12.8555949"><ele>107.0</ele><time>2026-04-09T09:52:59.703Z</time></trkpt><trkpt lat="43.9335433" lon="12.8554913"><ele>108.66666666666666</ele><time>2026-04-09T09:53:00.702Z</time></trkpt><trkpt lat="43.9335125" lon="12.8554023"><ele>110.33333333333333</ele><time>2026-04-09T09:53:01.703Z</time></trkpt><trkpt lat="43.9335084" lon="12.8553113"><ele>112.0</ele><time>2026-04-09T09:53:02.703Z</time></trkpt><trkpt lat="43.9335474" lon="12.855217"><ele>113.66666666666666</ele><time>2026-04-09T09:53:03.703Z</time></trkpt><trkpt lat="43.9336232" lon="12.8551612"><ele>115.33333333333333</ele><time>2026-04-09T09:53:04.703Z</time></trkpt><trkpt lat="43.9337304" lon="12.855155"><ele>117.0</ele><time>2026-04-09T09:53:05.702Z</time></trkpt><trkpt lat="43.9338477" lon="12.855144"><ele>116.25</ele><time>2026-04-09T09:53:06.703Z</time></trkpt><trkpt lat="43.9339594" lon="12.8551063"><ele>115.5</ele><time>2026-04-09T09:53:07.703Z</time></trkpt><trkpt lat="43.934068" lon="12.8550645"><ele>114.75</ele><time>2026-04-09T09:53:08.702Z</time></trkpt><trkpt lat="43.9341711" lon="12.8550069"><ele>114.0</ele><time>2026-04-09T09:53:09.702Z</time></trkpt><trkpt lat="43.9342735" lon="12.8549187"><ele>115.75</ele><time>2026-04-09T09:53:10.702Z</time></trkpt><trkpt lat="43.9343692" lon="12.8548227"><ele>117.5</ele><time>2026-04-09T09:53:11.703Z</time></trkpt><trkpt lat="43.9344679" lon="12.8547088"><ele>119.25</ele><time>2026-04-09T09:53:12.702Z</time></trkpt><trkpt lat="43.9345675" lon="12.8545947"><ele>121.0</ele><time>2026-04-09T09:53:13.703Z</time></trkpt><trkpt lat="43.9346624" lon="12.8544814"><ele>121.0</ele><time>2026-04-09T09:53:14.702Z</time></trkpt><trkpt lat="43.934764" lon="12.8543669"><ele>121.0</ele><time>2026-04-09T09:53:15.702Z</time></trkpt><trkpt lat="43.9348588" lon="12.854252"><ele>121.0</ele><time>2026-04-09T09:53:16.703Z</time></trkpt><trkpt lat="43.9349536" lon="12.8541438"><ele>121.0</ele><time>2026-04-09T09:53:17.703Z</time></trkpt><trkpt lat="43.9350453" lon="12.8540376"><ele>121.75</ele><time>2026-04-09T09:53:18.702Z</time></trkpt><trkpt lat="43.9351418" lon="12.8539299"><ele>122.5</ele><time>2026-04-09T09:53:19.702Z</time></trkpt><trkpt lat="43.9352387" lon="12.8538206"><ele>123.25</ele><time>2026-04-09T09:53:20.702Z</time></trkpt><trkpt lat="43.9353333" lon="12.8536984"><ele>124.0</ele><time>2026-04-09T09:53:21.703Z</time></trkpt><trkpt lat="43.935413" lon="12.8535534"><ele>123.25</ele><time>2026-04-09T09:53:22.703Z</time></trkpt><trkpt lat="43.9354909" lon="12.8533917"><ele>122.5</ele><time>2026-04-09T09:53:23.703Z</time></trkpt><trkpt lat="43.9355471" lon="12.8532291"><ele>121.75</ele><time>2026-04-09T09:53:24.702Z</time></trkpt><trkpt lat="43.9356015" lon="12.8530844"><ele>121.0</ele><time>2026-04-09T09:53:25.702Z</time></trkpt><trkpt lat="43.9356572" lon="12.8529389"><ele>121.0</ele><time>2026-04-09T09:53:26.702Z</time></trkpt><trkpt lat="43.9357125" lon="12.8527973"><ele>121.0</ele><time>2026-04-09T09:53:27.703Z</time></trkpt><trkpt lat="43.9357738" lon="12.8526663"><ele>121.0</ele><time>2026-04-09T09:53:28.703Z</time></trkpt><trkpt lat="43.935841" lon="12.8525385"><ele>121.0</ele><time>2026-04-09T09:53:29.702Z</time></trkpt><trkpt lat="43.9359139" lon="12.8524074"><ele>121.0</ele><time>2026-04-09T09:53:30.702Z</time></trkpt><trkpt lat="43.9359799" lon="12.8522902"><ele>121.0</ele><time>2026-04-09T09:53:31.703Z</time></trkpt><trkpt lat="43.9360511" lon="12.8521815"><ele>121.0</ele><time>2026-04-09T09:53:32.702Z</time></trkpt><trkpt lat="43.9361298" lon="12.8520953"><ele>121.0</ele><time>2026-04-09T09:53:33.703Z</time></trkpt><trkpt lat="43.9362252" lon="12.852021"><ele>121.0</ele><time>2026-04-09T09:53:34.703Z</time></trkpt><trkpt lat="43.9363255" lon="12.8519631"><ele>121.0</ele><time>2026-04-09T09:53:35.702Z</time></trkpt><trkpt lat="43.9364279" lon="12.8519252"><ele>121.0</ele><time>2026-04-09T09:53:36.703Z</time></trkpt><trkpt lat="43.9365208" lon="12.851937"><ele>121.0</ele><time>2026-04-09T09:53:37.703Z</time></trkpt><trkpt lat="43.936615" lon="12.85203"><ele>121.0</ele><time>2026-04-09T09:53:38.703Z</time></trkpt><trkpt lat="43.936704" lon="12.8521378"><ele>121.0</ele><time>2026-04-09T09:53:39.702Z</time></trkpt><trkpt lat="43.9367953" lon="12.8522491"><ele>118.0</ele><time>2026-04-09T09:53:40.703Z</time></trkpt><trkpt lat="43.9368822" lon="12.8523601"><ele>115.0</ele><time>2026-04-09T09:53:41.703Z</time></trkpt><trkpt lat="43.9369754" lon="12.8524575"><ele>112.0</ele><time>2026-04-09T09:53:42.702Z</time></trkpt><trkpt lat="43.9370817" lon="12.8525395"><ele>109.0</ele><time>2026-04-09T09:53:43.703Z</time></trkpt><trkpt lat="43.9371896" lon="12.8526026"><ele>108.25</ele><time>2026-04-09T09:53:44.703Z</time></trkpt><trkpt lat="43.937298" lon="12.8526596"><ele>107.5</ele><time>2026-04-09T09:53:45.702Z</time></trkpt><trkpt lat="43.9374025" lon="12.8527069"><ele>106.75</ele><time>2026-04-09T09:53:46.703Z</time></trkpt><trkpt lat="43.9375145" lon="12.8527584"><ele>106.0</ele><time>2026-04-09T09:53:47.702Z</time></trkpt><trkpt lat="43.9376251" lon="12.8528034"><ele>106.0</ele><time>2026-04-09T09:53:48.702Z</time></trkpt><trkpt lat="43.937733" lon="12.8528773"><ele>106.0</ele><time>2026-04-09T09:53:49.702Z</time></trkpt><trkpt lat="43.9378382" lon="12.852947"><ele>106.0</ele><time>2026-04-09T09:53:50.703Z</time></trkpt><trkpt lat="43.9379165" lon="12.8530488"><ele>106.0</ele><time>2026-04-09T09:53:51.703Z</time></trkpt><trkpt lat="43.9380079" lon="12.8531406"><ele>106.0</ele><time>2026-04-09T09:53:52.702Z</time></trkpt><trkpt lat="43.9380975" lon="12.8532269"><ele>106.0</ele><time>2026-04-09T09:53:53.703Z</time></trkpt><trkpt lat="43.9381915" lon="12.8533003"><ele>106.0</ele><time>2026-04-09T09:53:54.702Z</time></trkpt><trkpt lat="43.9382918" lon="12.8533687"><ele>106.0</ele><time>2026-04-09T09:53:55.702Z</time></trkpt><trkpt lat="43.9384051" lon="12.8534397"><ele>103.5</ele><time>2026-04-09T09:53:56.702Z</time></trkpt><trkpt lat="43.9385161" lon="12.8535097"><ele>101.0</ele><time>2026-04-09T09:53:57.703Z</time></trkpt><trkpt lat="43.9386253" lon="12.8535745"><ele>98.5</ele><time>2026-04-09T09:53:58.703Z</time></trkpt><trkpt lat="43.938736" lon="12.8536315"><ele>96.0</ele><time>2026-04-09T09:53:59.702Z</time></trkpt><trkpt lat="43.9388422" lon="12.8536815"><ele>96.0</ele><time>2026-04-09T09:54:00.702Z</time></trkpt><trkpt lat="43.9389512" lon="12.8536845"><ele>96.0</ele><time>2026-04-09T09:54:01.703Z</time></trkpt><trkpt lat="43.9390484" lon="12.8536623"><ele>96.0</ele><time>2026-04-09T09:54:02.702Z</time></trkpt><trkpt lat="43.9391533" lon="12.8536392"><ele>96.0</ele><time>2026-04-09T09:54:03.703Z</time></trkpt><trkpt lat="43.9392304" lon="12.8535147"><ele>96.0</ele><time>2026-04-09T09:54:04.702Z</time></trkpt><trkpt lat="43.9392662" lon="12.8533253"><ele>92.5</ele><time>2026-04-09T09:54:05.703Z</time></trkpt><trkpt lat="43.9393049" lon="12.8531383"><ele>89.0</ele><time>2026-04-09T09:54:06.703Z</time></trkpt><trkpt lat="43.9393521" lon="12.8529568"><ele>85.5</ele><time>2026-04-09T09:54:07.702Z</time></trkpt><trkpt lat="43.9393931" lon="12.8527569"><ele>82.0</ele><time>2026-04-09T09:54:08.702Z</time></trkpt><trkpt lat="43.9394206" lon="12.852553"><ele>82.0</ele><time>2026-04-09T09:54:09.703Z</time></trkpt><trkpt lat="43.9394533" lon="12.8523469"><ele>82.0</ele><time>2026-04-09T09:54:10.703Z</time></trkpt><trkpt lat="43.9394751" lon="12.8521312"><ele>82.0</ele><time>2026-04-09T09:54:11.702Z</time></trkpt><trkpt lat="43.9394981" lon="12.8519252"><ele>88.0</ele><time>2026-04-09T09:54:12.702Z</time></trkpt><trkpt lat="43.9395098" lon="12.8517199"><ele>94.0</ele><time>2026-04-09T09:54:13.702Z</time></trkpt><trkpt lat="43.9395076" lon="12.8515058"><ele>100.0</ele><time>2026-04-09T09:54:14.702Z</time></trkpt><trkpt lat="43.9394916" lon="12.8512935"><ele>100.0</ele><time>2026-04-09T09:54:15.703Z</time></trkpt><trkpt lat="43.9394776" lon="12.8510826"><ele>100.0</ele><time>2026-04-09T09:54:16.702Z</time></trkpt><trkpt lat="43.9394463" lon="12.8508693"><ele>100.0</ele><time>2026-04-09T09:54:17.702Z</time></trkpt><trkpt lat="43.9394227" lon="12.8506585"><ele>105.0</ele><time>2026-04-09T09:54:18.702Z</time></trkpt><trkpt lat="43.9393883" lon="12.8504427"><ele>110.0</ele><time>2026-04-09T09:54:19.703Z</time></trkpt><trkpt lat="43.9393598" lon="12.8502411"><ele>115.0</ele><time>2026-04-09T09:54:20.702Z</time></trkpt><trkpt lat="43.9393309" lon="12.8500326"><ele>116.0</ele><time>2026-04-09T09:54:21.703Z</time></trkpt><trkpt lat="43.9392986" lon="12.8498272"><ele>117.0</ele><time>2026-04-09T09:54:22.702Z</time></trkpt><trkpt lat="43.9392675" lon="12.8496167"><ele>118.0</ele><time>2026-04-09T09:54:23.702Z</time></trkpt><trkpt lat="43.9392479" lon="12.8494152"><ele>116.5</ele><time>2026-04-09T09:54:24.702Z</time></trkpt><trkpt lat="43.9392221" lon="12.8492115"><ele>115.0</ele><time>2026-04-09T09:54:25.702Z</time></trkpt><trkpt lat="43.9391814" lon="12.8490246"><ele>113.5</ele><time>2026-04-09T09:54:26.702Z</time></trkpt><trkpt lat="43.9391284" lon="12.8488515"><ele>112.0</ele><time>2026-04-09T09:54:27.703Z</time></trkpt><trkpt lat="43.9390719" lon="12.848674"><ele>109.5</ele><time>2026-04-09T09:54:28.702Z</time></trkpt><trkpt lat="43.9390184" lon="12.8485013"><ele>107.0</ele><time>2026-04-09T09:54:29.702Z</time></trkpt><trkpt lat="43.9389632" lon="12.8483339"><ele>104.5</ele><time>2026-04-09T09:54:30.702Z</time></trkpt><trkpt lat="43.9389106" lon="12.8481912"><ele>102.0</ele><time>2026-04-09T09:54:31.702Z</time></trkpt><trkpt lat="43.9388488" lon="12.8480557"><ele>102.0</ele><time>2026-04-09T09:54:32.703Z</time></trkpt><trkpt lat="43.9388108" lon="12.8479238"><ele>102.0</ele><time>2026-04-09T09:54:33.702Z</time></trkpt><trkpt lat="43.9388073" lon="12.8477954"><ele>102.0</ele><time>2026-04-09T09:54:34.703Z</time></trkpt><trkpt lat="43.9388451" lon="12.847697"><ele>102.0</ele><time>2026-04-09T09:54:35.702Z</time></trkpt><trkpt lat="43.9389073" lon="12.8476188"><ele>102.0</ele><time>2026-04-09T09:54:36.702Z</time></trkpt><trkpt lat="43.9389779" lon="12.8475749"><ele>102.0</ele><time>2026-04-09T09:54:37.702Z</time></trkpt><trkpt lat="43.93906" lon="12.8475943"><ele>102.0</ele><time>2026-04-09T09:54:38.703Z</time></trkpt><trkpt lat="43.939157" lon="12.8477533"><ele>102.0</ele><time>2026-04-09T09:54:39.702Z</time></trkpt><trkpt lat="43.9392643" lon="12.8477853"><ele>102.0</ele><time>2026-04-09T09:54:40.703Z</time></trkpt><trkpt lat="43.9393904" lon="12.847826"><ele>102.0</ele><time>2026-04-09T09:54:41.703Z</time></trkpt><trkpt lat="43.9395171" lon="12.8478564"><ele>102.25</ele><time>2026-04-09T09:54:42.702Z</time></trkpt><trkpt lat="43.9396413" lon="12.8478804"><ele>102.5</ele><time>2026-04-09T09:54:43.702Z</time></trkpt><trkpt lat="43.9397637" lon="12.847894"><ele>102.75</ele><time>2026-04-09T09:54:44.702Z</time></trkpt><trkpt lat="43.9398864" lon="12.8478942"><ele>103.0</ele><time>2026-04-09T09:54:45.702Z</time></trkpt><trkpt lat="43.9400113" lon="12.8478735"><ele>102.25</ele><time>2026-04-09T09:54:46.703Z</time></trkpt><trkpt lat="43.9401263" lon="12.8478602"><ele>101.5</ele><time>2026-04-09T09:54:47.703Z</time></trkpt><trkpt lat="43.9402402" lon="12.8478643"><ele>100.75</ele><time>2026-04-09T09:54:48.703Z</time></trkpt><trkpt lat="43.9403574" lon="12.8478941"><ele>100.0</ele><time>2026-04-09T09:54:49.702Z</time></trkpt><trkpt lat="43.9404713" lon="12.8479645"><ele>100.0</ele><time>2026-04-09T09:54:50.703Z</time></trkpt><trkpt lat="43.9405811" lon="12.8480224"><ele>100.0</ele><time>2026-04-09T09:54:51.702Z</time></trkpt><trkpt lat="43.9406907" lon="12.8480911"><ele>100.0</ele><time>2026-04-09T09:54:52.702Z</time></trkpt><trkpt lat="43.9407957" lon="12.8481713"><ele>100.0</ele><time>2026-04-09T09:54:53.702Z</time></trkpt><trkpt lat="43.9409155" lon="12.8482306"><ele>97.0</ele><time>2026-04-09T09:54:54.702Z</time></trkpt><trkpt lat="43.941051" lon="12.8482634"><ele>94.0</ele><time>2026-04-09T09:54:55.702Z</time></trkpt><trkpt lat="43.9411755" lon="12.848248"><ele>91.0</ele><time>2026-04-09T09:54:56.703Z</time></trkpt><trkpt lat="43.9413065" lon="12.8482433"><ele>88.0</ele><time>2026-04-09T09:54:57.703Z</time></trkpt><trkpt lat="43.9414323" lon="12.8482068"><ele>88.0</ele><time>2026-04-09T09:54:58.703Z</time></trkpt><trkpt lat="43.941555" lon="12.8481542"><ele>88.0</ele><time>2026-04-09T09:54:59.702Z</time></trkpt><trkpt lat="43.9416726" lon="12.8480644"><ele>88.0</ele><time>2026-04-09T09:55:00.703Z</time></trkpt><trkpt lat="43.9417767" lon="12.8479438"><ele>88.0</ele><time>2026-04-09T09:55:01.703Z</time></trkpt><trkpt lat="43.9418624" lon="12.8477927"><ele>81.5</ele><time>2026-04-09T09:55:02.703Z</time></trkpt><trkpt lat="43.9419301" lon="12.8476254"><ele>75.0</ele><time>2026-04-09T09:55:03.702Z</time></trkpt><trkpt lat="43.9419843" lon="12.8474424"><ele>68.5</ele><time>2026-04-09T09:55:04.702Z</time></trkpt><trkpt lat="43.942016" lon="12.8472557"><ele>62.0</ele><time>2026-04-09T09:55:05.703Z</time></trkpt><trkpt lat="43.9420151" lon="12.8470574"><ele>62.0</ele><time>2026-04-09T09:55:06.702Z</time></trkpt><trkpt lat="43.9419846" lon="12.8468612"><ele>62.0</ele><time>2026-04-09T09:55:07.703Z</time></trkpt><trkpt lat="43.9419393" lon="12.8466714"><ele>62.0</ele><time>2026-04-09T09:55:08.703Z</time></trkpt><trkpt lat="43.9418903" lon="12.8464918"><ele>62.0</ele><time>2026-04-09T09:55:09.703Z</time></trkpt><trkpt lat="43.9418315" lon="12.8463132"><ele>67.75</ele><time>2026-04-09T09:55:10.703Z</time></trkpt><trkpt lat="43.9417765" lon="12.8461509"><ele>73.5</ele><time>2026-04-09T09:55:11.703Z</time></trkpt><trkpt lat="43.9417228" lon="12.8459856"><ele>79.25</ele><time>2026-04-09T09:55:12.703Z</time></trkpt><trkpt lat="43.9416657" lon="12.8458206"><ele>85.0</ele><time>2026-04-09T09:55:13.702Z</time></trkpt><trkpt lat="43.9416114" lon="12.8456572"><ele>89.25</ele><time>2026-04-09T09:55:14.702Z</time></trkpt><trkpt lat="43.9415556" lon="12.8454846"><ele>93.5</ele><time>2026-04-09T09:55:15.703Z</time></trkpt><trkpt lat="43.9415112" lon="12.8452954"><ele>97.75</ele><time>2026-04-09T09:55:16.703Z</time></trkpt><trkpt lat="43.9414655" lon="12.8451099"><ele>102.0</ele><time>2026-04-09T09:55:17.703Z</time></trkpt><trkpt lat="43.9414319" lon="12.8449191"><ele>104.75</ele><time>2026-04-09T09:55:18.703Z</time></trkpt><trkpt lat="43.9414106" lon="12.844709"><ele>107.5</ele><time>2026-04-09T09:55:19.702Z</time></trkpt><trkpt lat="43.9413962" lon="12.8445236"><ele>110.25</ele><time>2026-04-09T09:55:20.702Z</time></trkpt><trkpt lat="43.9413858" lon="12.8443453"><ele>113.0</ele><time>2026-04-09T09:55:21.703Z</time></trkpt><trkpt lat="43.9413479" lon="12.8441866"><ele>115.0</ele><time>2026-04-09T09:55:22.703Z</time></trkpt><trkpt lat="43.9412878" lon="12.8440731"><ele>117.0</ele><time>2026-04-09T09:55:23.703Z</time></trkpt><trkpt lat="43.9412007" lon="12.8439846"><ele>119.0</ele><time>2026-04-09T09:55:24.702Z</time></trkpt><trkpt lat="43.9410801" lon="12.8439542"><ele>121.0</ele><time>2026-04-09T09:55:25.702Z</time></trkpt><trkpt lat="43.9409461" lon="12.8439444"><ele>117.75</ele><time>2026-04-09T09:55:26.702Z</time></trkpt><trkpt lat="43.9408101" lon="12.8439015"><ele>114.5</ele><time>2026-04-09T09:55:27.703Z</time></trkpt><trkpt lat="43.9406678" lon="12.8438291"><ele>111.25</ele><time>2026-04-09T09:55:28.703Z</time></trkpt><trkpt lat="43.9405377" lon="12.8437585"><ele>108.0</ele><time>2026-04-09T09:55:29.703Z</time></trkpt><trkpt lat="43.9404186" lon="12.8436864"><ele>108.0</ele><time>2026-04-09T09:55:30.703Z</time></trkpt><trkpt lat="43.9403093" lon="12.843612"><ele>108.0</ele><time>2026-04-09T09:55:31.703Z</time></trkpt><trkpt lat="43.9402155" lon="12.8434981"><ele>108.0</ele><time>2026-04-09T09:55:32.703Z</time></trkpt><trkpt lat="43.9401379" lon="12.8433724"><ele>108.0</ele><time>2026-04-09T09:55:33.702Z</time></trkpt><trkpt lat="43.9400605" lon="12.8432366"><ele>110.25</ele><time>2026-04-09T09:55:34.703Z</time></trkpt><trkpt lat="43.939988" lon="12.843098"><ele>112.5</ele><time>2026-04-09T09:55:35.702Z</time></trkpt><trkpt lat="43.9399135" lon="12.8429468"><ele>114.75</ele><time>2026-04-09T09:55:36.702Z</time></trkpt><trkpt lat="43.9398411" lon="12.8428048"><ele>117.0</ele><time>2026-04-09T09:55:37.702Z</time></trkpt><trkpt lat="43.939769" lon="12.8426624"><ele>120.0</ele><time>2026-04-09T09:55:38.702Z</time></trkpt><trkpt lat="43.9397092" lon="12.8425198"><ele>123.0</ele><time>2026-04-09T09:55:39.702Z</time></trkpt><trkpt lat="43.93966" lon="12.8423765"><ele>126.0</ele><time>2026-04-09T09:55:40.702Z</time></trkpt><trkpt lat="43.9396402" lon="12.8422266"><ele>129.0</ele><time>2026-04-09T09:55:41.702Z</time></trkpt><trkpt lat="43.9396454" lon="12.8420697"><ele>129.0</ele><time>2026-04-09T09:55:42.702Z</time></trkpt><trkpt lat="43.939683" lon="12.8419243"><ele>129.0</ele><time>2026-04-09T09:55:43.703Z</time></trkpt><trkpt lat="43.9397364" lon="12.8417675"><ele>129.0</ele><time>2026-04-09T09:55:44.703Z</time></trkpt><trkpt lat="43.9397783" lon="12.8416031"><ele>129.0</ele><time>2026-04-09T09:55:45.703Z</time></trkpt><trkpt lat="43.9398301" lon="12.8414397"><ele>129.0</ele><time>2026-04-09T09:55:46.702Z</time></trkpt><trkpt lat="43.9398841" lon="12.8412742"><ele>129.0</ele><time>2026-04-09T09:55:47.703Z</time></trkpt><trkpt lat="43.9399349" lon="12.841106"><ele>129.0</ele><time>2026-04-09T09:55:48.703Z</time></trkpt><trkpt lat="43.9399662" lon="12.8409281"><ele>129.0</ele><time>2026-04-09T09:55:49.702Z</time></trkpt><trkpt lat="43.9399726" lon="12.8407418"><ele>129.25</ele><time>2026-04-09T09:55:50.702Z</time></trkpt><trkpt lat="43.9399609" lon="12.8405577"><ele>129.5</ele><time>2026-04-09T09:55:51.702Z</time></trkpt><trkpt lat="43.9399492" lon="12.8403842"><ele>129.75</ele><time>2026-04-09T09:55:52.702Z</time></trkpt><trkpt lat="43.9399411" lon="12.8402272"><ele>130.0</ele><time>2026-04-09T09:55:53.702Z</time></trkpt><trkpt lat="43.939941" lon="12.8400779"><ele>130.4</ele><time>2026-04-09T09:55:54.702Z</time></trkpt><trkpt lat="43.9399536" lon="12.8399356"><ele>130.8</ele><time>2026-04-09T09:55:55.703Z</time></trkpt><trkpt lat="43.9399696" lon="12.8397932"><ele>131.2</ele><time>2026-04-09T09:55:56.702Z</time></trkpt><trkpt lat="43.9400552" lon="12.8396941"><ele>131.6</ele><time>2026-04-09T09:55:57.702Z</time></trkpt><trkpt lat="43.9401298" lon="12.8395864"><ele>132.0</ele><time>2026-04-09T09:55:58.703Z</time></trkpt><trkpt lat="43.9402179" lon="12.8394923"><ele>132.5</ele><time>2026-04-09T09:55:59.702Z</time></trkpt><trkpt lat="43.9403234" lon="12.8394332"><ele>133.0</ele><time>2026-04-09T09:56:00.702Z</time></trkpt><trkpt lat="43.9404223" lon="12.8393494"><ele>133.5</ele><time>2026-04-09T09:56:01.702Z</time></trkpt><trkpt lat="43.9405262" lon="12.8392645"><ele>134.0</ele><time>2026-04-09T09:56:02.703Z</time></trkpt><trkpt lat="43.9406201" lon="12.8391844"><ele>134.0</ele><time>2026-04-09T09:56:03.702Z</time></trkpt><trkpt lat="43.940711" lon="12.8391248"><ele>134.0</ele><time>2026-04-09T09:56:04.702Z</time></trkpt><trkpt lat="43.9407935" lon="12.8390641"><ele>134.0</ele><time>2026-04-09T09:56:05.702Z</time></trkpt><trkpt lat="43.9408708" lon="12.839012"><ele>134.0</ele><time>2026-04-09T09:56:06.703Z</time></trkpt><trkpt lat="43.9409484" lon="12.8389731"><ele>134.0</ele><time>2026-04-09T09:56:07.703Z</time></trkpt><trkpt lat="43.9410323" lon="12.8389441"><ele>134.0</ele><time>2026-04-09T09:56:08.702Z</time></trkpt><trkpt lat="43.9411213" lon="12.8390406"><ele>132.6</ele><time>2026-04-09T09:56:09.703Z</time></trkpt><trkpt lat="43.941196" lon="12.8391391"><ele>131.2</ele><time>2026-04-09T09:56:10.703Z</time></trkpt><trkpt lat="43.9412693" lon="12.8392607"><ele>129.79999999999998</ele><time>2026-04-09T09:56:11.702Z</time></trkpt><trkpt lat="43.9413389" lon="12.8393684"><ele>128.4</ele><time>2026-04-09T09:56:12.703Z</time></trkpt><trkpt lat="43.9414017" lon="12.8394734"><ele>127.0</ele><time>2026-04-09T09:56:13.703Z</time></trkpt><trkpt lat="43.9414697" lon="12.839579"><ele>130.0</ele><time>2026-04-09T09:56:14.703Z</time></trkpt><trkpt lat="43.9415537" lon="12.8396621"><ele>133.0</ele><time>2026-04-09T09:56:15.703Z</time></trkpt><trkpt lat="43.941654" lon="12.8397011"><ele>136.0</ele><time>2026-04-09T09:56:16.702Z</time></trkpt><trkpt lat="43.941751" lon="12.8396893"><ele>139.0</ele><time>2026-04-09T09:56:17.702Z</time></trkpt><trkpt lat="43.9418518" lon="12.8396325"><ele>142.0</ele><time>2026-04-09T09:56:18.703Z</time></trkpt><trkpt lat="43.9419461" lon="12.8395597"><ele>142.2</ele><time>2026-04-09T09:56:19.703Z</time></trkpt><trkpt lat="43.942037" lon="12.8394855"><ele>142.39999999999998</ele><time>2026-04-09T09:56:20.703Z</time></trkpt><trkpt lat="43.9421298" lon="12.8394213"><ele>142.60000000000002</ele><time>2026-04-09T09:56:21.702Z</time></trkpt><trkpt lat="43.942216" lon="12.8393595"><ele>142.8</ele><time>2026-04-09T09:56:22.703Z</time></trkpt><trkpt lat="43.9423038" lon="12.8392935"><ele>143.0</ele><time>2026-04-09T09:56:23.703Z</time></trkpt><trkpt lat="43.9423833" lon="12.8392398"><ele>140.8</ele><time>2026-04-09T09:56:24.703Z</time></trkpt><trkpt lat="43.9424583" lon="12.8391881"><ele>138.60000000000002</ele><time>2026-04-09T09:56:25.703Z</time></trkpt><trkpt lat="43.9425353" lon="12.8391472"><ele>136.39999999999998</ele><time>2026-04-09T09:56:26.702Z</time></trkpt><trkpt lat="43.9426312" lon="12.8391628"><ele>134.2</ele><time>2026-04-09T09:56:27.703Z</time></trkpt><trkpt lat="43.9427009" lon="12.8392504"><ele>132.0</ele><time>2026-04-09T09:56:28.702Z</time></trkpt><trkpt lat="43.9427586" lon="12.839368"><ele>132.0</ele><time>2026-04-09T09:56:29.703Z</time></trkpt><trkpt lat="43.9428102" lon="12.8394897"><ele>132.0</ele><time>2026-04-09T09:56:30.703Z</time></trkpt><trkpt lat="43.9428518" lon="12.839603"><ele>132.0</ele><time>2026-04-09T09:56:31.703Z</time></trkpt><trkpt lat="43.9429031" lon="12.8397086"><ele>132.0</ele><time>2026-04-09T09:56:32.702Z</time></trkpt><trkpt lat="43.9429606" lon="12.8398079"><ele>132.0</ele><time>2026-04-09T09:56:33.703Z</time></trkpt><trkpt lat="43.9430213" lon="12.8399017"><ele>132.0</ele><time>2026-04-09T09:56:34.703Z</time></trkpt><trkpt lat="43.9430841" lon="12.8399809"><ele>132.0</ele><time>2026-04-09T09:56:35.702Z</time></trkpt><trkpt lat="43.9431487" lon="12.840043"><ele>132.0</ele><time>2026-04-09T09:56:36.703Z</time></trkpt><trkpt lat="43.9432345" lon="12.8400774"><ele>132.0</ele><time>2026-04-09T09:56:37.702Z</time></trkpt><trkpt lat="43.9433267" lon="12.8400797"><ele>132.0</ele><time>2026-04-09T09:56:38.702Z</time></trkpt><trkpt lat="43.9434305" lon="12.8400287"><ele>132.5</ele><time>2026-04-09T09:56:39.703Z</time></trkpt><trkpt lat="43.94353" lon="12.8399506"><ele>133.0</ele><time>2026-04-09T09:56:40.703Z</time></trkpt><trkpt lat="43.9436144" lon="12.8398507"><ele>133.5</ele><time>2026-04-09T09:56:41.703Z</time></trkpt><trkpt lat="43.9436897" lon="12.8397295"><ele>134.0</ele><time>2026-04-09T09:56:42.703Z</time></trkpt><trkpt lat="43.9437578" lon="12.839599"><ele>134.0</ele><time>2026-04-09T09:56:43.703Z</time></trkpt><trkpt lat="43.9438134" lon="12.8394738"><ele>134.0</ele><time>2026-04-09T09:56:44.702Z</time></trkpt><trkpt lat="43.9438735" lon="12.8393469"><ele>134.0</ele><time>2026-04-09T09:56:45.702Z</time></trkpt><trkpt lat="43.9439358" lon="12.8392193"><ele>134.0</ele><time>2026-04-09T09:56:46.702Z</time></trkpt><trkpt lat="43.9440027" lon="12.8390877"><ele>134.0</ele><time>2026-04-09T09:56:47.703Z</time></trkpt><trkpt lat="43.944063" lon="12.8389663"><ele>133.33333333333331</ele><time>2026-04-09T09:56:48.703Z</time></trkpt><trkpt lat="43.9441169" lon="12.838852"><ele>132.66666666666666</ele><time>2026-04-09T09:56:49.703Z</time></trkpt><trkpt lat="43.9441678" lon="12.8387307"><ele>132.0</ele><time>2026-04-09T09:56:50.703Z</time></trkpt><trkpt lat="43.9442086" lon="12.8386534"><ele>131.33333333333334</ele><time>2026-04-09T09:56:51.702Z</time></trkpt><trkpt lat="43.9442844" lon="12.8385641"><ele>130.66666666666669</ele><time>2026-04-09T09:56:53.702Z</time></trkpt><trkpt lat="43.9443497" lon="12.8385612"><ele>130.0</ele><time>2026-04-09T09:56:55.702Z</time></trkpt><trkpt lat="43.9444425" lon="12.838525"><ele>130.16666666666669</ele><time>2026-04-09T09:58:27.702Z</time></trkpt><trkpt lat="43.9444983" lon="12.8384368"><ele>130.33333333333334</ele><time>2026-04-09T09:58:29.702Z</time></trkpt><trkpt lat="43.9444242" lon="12.8385273"><ele>130.5</ele><time>2026-04-09T09:58:38.702Z</time></trkpt><trkpt lat="43.9443517" lon="12.8385597"><ele>130.66666666666666</ele><time>2026-04-09T09:58:40.703Z</time></trkpt><trkpt lat="43.9442978" lon="12.8385047"><ele>130.83333333333331</ele><time>2026-04-09T09:58:46.717Z</time></trkpt><trkpt lat="43.9443582" lon="12.8383737"><ele>131.0</ele><time>2026-04-09T09:58:51.702Z</time></trkpt><trkpt lat="43.9444013" lon="12.8382705"><ele>131.0</ele><time>2026-04-09T09:58:52.702Z</time></trkpt><trkpt lat="43.944442" lon="12.8381423"><ele>131.0</ele><time>2026-04-09T09:58:53.703Z</time></trkpt><trkpt lat="43.9444759" lon="12.8380167"><ele>131.0</ele><time>2026-04-09T09:58:54.703Z</time></trkpt><trkpt lat="43.9445121" lon="12.8378763"><ele>131.0</ele><time>2026-04-09T09:58:55.702Z</time></trkpt><trkpt lat="43.9445449" lon="12.8377425"><ele>131.0</ele><time>2026-04-09T09:58:56.702Z</time></trkpt><trkpt lat="43.9445696" lon="12.8376207"><ele>132.0</ele><time>2026-04-09T09:58:57.703Z</time></trkpt><trkpt lat="43.9446011" lon="12.837468"><ele>133.0</ele><time>2026-04-09T09:58:58.702Z</time></trkpt><trkpt lat="43.9446389" lon="12.8373113"><ele>134.0</ele><time>2026-04-09T09:58:59.702Z</time></trkpt><trkpt lat="43.9446775" lon="12.8371645"><ele>135.0</ele><time>2026-04-09T09:59:00.702Z</time></trkpt><trkpt lat="43.9447092" lon="12.8370269"><ele>135.0</ele><time>2026-04-09T09:59:01.703Z</time></trkpt><trkpt lat="43.9447371" lon="12.836888"><ele>135.0</ele><time>2026-04-09T09:59:02.702Z</time></trkpt><trkpt lat="43.9447667" lon="12.8367541"><ele>135.0</ele><time>2026-04-09T09:59:03.703Z</time></trkpt><trkpt lat="43.9448062" lon="12.8366204"><ele>135.0</ele><time>2026-04-09T09:59:04.702Z</time></trkpt><trkpt lat="43.9448379" lon="12.8364821"><ele>135.0</ele><time>2026-04-09T09:59:05.702Z</time></trkpt><trkpt lat="43.9448718" lon="12.8363413"><ele>135.0</ele><time>2026-04-09T09:59:06.703Z</time></trkpt><trkpt lat="43.9449008" lon="12.8362"><ele>135.0</ele><time>2026-04-09T09:59:07.703Z</time></trkpt><trkpt lat="43.9449323" lon="12.8360624"><ele>135.0</ele><time>2026-04-09T09:59:08.702Z</time></trkpt><trkpt lat="43.9449738" lon="12.835931"><ele>135.0</ele><time>2026-04-09T09:59:09.702Z</time></trkpt><trkpt lat="43.9450193" lon="12.8358032"><ele>135.0</ele><time>2026-04-09T09:59:10.702Z</time></trkpt><trkpt lat="43.9450712" lon="12.8356609"><ele>131.5</ele><time>2026-04-09T09:59:11.703Z</time></trkpt><trkpt lat="43.9451235" lon="12.835521"><ele>128.0</ele><time>2026-04-09T09:59:12.703Z</time></trkpt><trkpt lat="43.9451793" lon="12.8353865"><ele>124.5</ele><time>2026-04-09T09:59:13.702Z</time></trkpt><trkpt lat="43.9452269" lon="12.8352399"><ele>121.0</ele><time>2026-04-09T09:59:14.702Z</time></trkpt><trkpt lat="43.9452832" lon="12.8350903"><ele>121.0</ele><time>2026-04-09T09:59:15.702Z</time></trkpt><trkpt lat="43.9453402" lon="12.8349534"><ele>121.0</ele><time>2026-04-09T09:59:16.702Z</time></trkpt><trkpt lat="43.9454092" lon="12.8348171"><ele>121.0</ele><time>2026-04-09T09:59:17.703Z</time></trkpt><trkpt lat="43.9454769" lon="12.8346953"><ele>121.0</ele><time>2026-04-09T09:59:18.703Z</time></trkpt><trkpt lat="43.945536" lon="12.834565"><ele>121.0</ele><time>2026-04-09T09:59:19.702Z</time></trkpt><trkpt lat="43.9455808" lon="12.8344115"><ele>121.0</ele><time>2026-04-09T09:59:20.703Z</time></trkpt><trkpt lat="43.9456103" lon="12.8342488"><ele>121.0</ele><time>2026-04-09T09:59:21.702Z</time></trkpt><trkpt lat="43.9456272" lon="12.8340844"><ele>121.0</ele><time>2026-04-09T09:59:22.703Z</time></trkpt><trkpt lat="43.945654" lon="12.8339368"><ele>123.19999999999999</ele><time>2026-04-09T09:59:23.702Z</time></trkpt><trkpt lat="43.9457027" lon="12.8338099"><ele>125.39999999999999</ele><time>2026-04-09T09:59:24.703Z</time></trkpt><trkpt lat="43.9457785" lon="12.8337094"><ele>127.6</ele><time>2026-04-09T09:59:25.703Z</time></trkpt><trkpt lat="43.9458735" lon="12.8336285"><ele>129.79999999999998</ele><time>2026-04-09T09:59:26.702Z</time></trkpt><trkpt lat="43.9459714" lon="12.8335489"><ele>132.0</ele><time>2026-04-09T09:59:27.703Z</time></trkpt><trkpt lat="43.946069" lon="12.8334699"><ele>132.0</ele><time>2026-04-09T09:59:28.702Z</time></trkpt><trkpt lat="43.9461683" lon="12.8334043"><ele>132.0</ele><time>2026-04-09T09:59:29.702Z</time></trkpt><trkpt lat="43.9462598" lon="12.8333461"><ele>132.0</ele><time>2026-04-09T09:59:30.703Z</time></trkpt><trkpt lat="43.9463354" lon="12.8332935"><ele>132.0</ele><time>2026-04-09T09:59:31.702Z</time></trkpt><trkpt lat="43.946398" lon="12.8332472"><ele>132.0</ele><time>2026-04-09T09:59:32.703Z</time></trkpt><trkpt lat="43.9464898" lon="12.8332278"><ele>132.0</ele><time>2026-04-09T09:59:34.703Z</time></trkpt><trkpt lat="43.9465546" lon="12.8332148"><ele>132.0</ele><time>2026-04-09T10:02:05.702Z</time></trkpt><trkpt lat="43.9465891" lon="12.8331407"><ele>132.0</ele><time>2026-04-09T10:02:23.702Z</time></trkpt><trkpt lat="43.9466315" lon="12.8330571"><ele>132.0</ele><time>2026-04-09T10:02:24.703Z</time></trkpt><trkpt lat="43.9467073" lon="12.8329794"><ele>132.0</ele><time>2026-04-09T10:02:25.702Z</time></trkpt><trkpt lat="43.9467769" lon="12.8328823"><ele>132.0</ele><time>2026-04-09T10:02:26.702Z</time></trkpt><trkpt lat="43.9468208" lon="12.8327813"><ele>127.75</ele><time>2026-04-09T10:02:27.702Z</time></trkpt><trkpt lat="43.9468434" lon="12.8326645"><ele>123.5</ele><time>2026-04-09T10:02:28.703Z</time></trkpt><trkpt lat="43.9468155" lon="12.832505"><ele>119.25</ele><time>2026-04-09T10:02:29.702Z</time></trkpt><trkpt lat="43.9467889" lon="12.8323237"><ele>115.0</ele><time>2026-04-09T10:02:30.702Z</time></trkpt><trkpt lat="43.9467753" lon="12.8321644"><ele>115.0</ele><time>2026-04-09T10:02:31.702Z</time></trkpt><trkpt lat="43.9467726" lon="12.8319946"><ele>115.0</ele><time>2026-04-09T10:02:32.703Z</time></trkpt><trkpt lat="43.9467729" lon="12.8318632"><ele>115.0</ele><time>2026-04-09T10:02:33.702Z</time></trkpt><trkpt lat="43.9467687" lon="12.8317188"><ele>115.0</ele><time>2026-04-09T10:02:34.703Z</time></trkpt><trkpt lat="43.9467455" lon="12.8315943"><ele>115.0</ele><time>2026-04-09T10:02:35.702Z</time></trkpt><trkpt lat="43.946706" lon="12.8314753"><ele>117.0</ele><time>2026-04-09T10:02:36.702Z</time></trkpt><trkpt lat="43.9466746" lon="12.8313745"><ele>119.0</ele><time>2026-04-09T10:02:37.703Z</time></trkpt><trkpt lat="43.9466618" lon="12.8312686"><ele>121.0</ele><time>2026-04-09T10:02:38.703Z</time></trkpt><trkpt lat="43.9466544" lon="12.8311583"><ele>123.0</ele><time>2026-04-09T10:02:39.702Z</time></trkpt><trkpt lat="43.9467461" lon="12.831032"><ele>125.0</ele><time>2026-04-09T10:02:41.703Z</time></trkpt><trkpt lat="43.9468504" lon="12.8310183"><ele>125.0</ele><time>2026-04-09T10:02:42.703Z</time></trkpt><trkpt lat="43.9469403" lon="12.8309938"><ele>125.0</ele><time>2026-04-09T10:02:43.702Z</time></trkpt><trkpt lat="43.9470171" lon="12.830931"><ele>125.0</ele><time>2026-04-09T10:02:44.703Z</time></trkpt><trkpt lat="43.9471119" lon="12.8308557"><ele>125.0</ele><time>2026-04-09T10:02:45.703Z</time></trkpt><trkpt lat="43.9472288" lon="12.8307728"><ele>125.0</ele><time>2026-04-09T10:02:46.702Z</time></trkpt><trkpt lat="43.9473365" lon="12.830708"><ele>122.5</ele><time>2026-04-09T10:02:47.702Z</time></trkpt><trkpt lat="43.9474374" lon="12.8306423"><ele>120.0</ele><time>2026-04-09T10:02:48.702Z</time></trkpt><trkpt lat="43.9475253" lon="12.830541"><ele>117.5</ele><time>2026-04-09T10:02:49.703Z</time></trkpt><trkpt lat="43.9476084" lon="12.8303931"><ele>115.0</ele><time>2026-04-09T10:02:50.702Z</time></trkpt><trkpt lat="43.9476897" lon="12.8302075"><ele>120.25</ele><time>2026-04-09T10:02:51.702Z</time></trkpt><trkpt lat="43.9477785" lon="12.8300523"><ele>125.5</ele><time>2026-04-09T10:02:52.703Z</time></trkpt><trkpt lat="43.94787" lon="12.8299194"><ele>130.75</ele><time>2026-04-09T10:02:53.703Z</time></trkpt><trkpt lat="43.9479443" lon="12.8298194"><ele>136.0</ele><time>2026-04-09T10:02:54.703Z</time></trkpt><trkpt lat="43.9480049" lon="12.8297482"><ele>136.0</ele><time>2026-04-09T10:02:55.702Z</time></trkpt><trkpt lat="43.9480718" lon="12.8296807"><ele>136.0</ele><time>2026-04-09T10:02:57.702Z</time></trkpt><trkpt lat="43.9480907" lon="12.8295937"><ele>136.0</ele><time>2026-04-09T10:05:29.702Z</time></trkpt><trkpt lat="43.9480858" lon="12.8294787"><ele>136.0</ele><time>2026-04-09T10:07:35.703Z</time></trkpt><trkpt lat="43.9480801" lon="12.8293138"><ele>136.0</ele><time>2026-04-09T10:07:37.702Z</time></trkpt><trkpt lat="43.9481163" lon="12.8291534"><ele>139.4</ele><time>2026-04-09T10:07:39.703Z</time></trkpt><trkpt lat="43.9481413" lon="12.8290662"><ele>142.8</ele><time>2026-04-09T10:07:40.702Z</time></trkpt><trkpt lat="43.9481604" lon="12.8289659"><ele>146.20000000000002</ele><time>2026-04-09T10:07:41.702Z</time></trkpt><trkpt lat="43.9481645" lon="12.8288363"><ele>149.6</ele><time>2026-04-09T10:07:42.703Z</time></trkpt><trkpt lat="43.9481619" lon="12.8286745"><ele>153.0</ele><time>2026-04-09T10:07:43.703Z</time></trkpt><trkpt lat="43.94815" lon="12.8285355"><ele>153.0</ele><time>2026-04-09T10:07:44.702Z</time></trkpt><trkpt lat="43.9481249" lon="12.82839"><ele>153.0</ele><time>2026-04-09T10:07:45.703Z</time></trkpt><trkpt lat="43.9481031" lon="12.8282539"><ele>153.0</ele><time>2026-04-09T10:07:46.702Z</time></trkpt><trkpt lat="43.9480821" lon="12.828128"><ele>153.0</ele><time>2026-04-09T10:07:47.702Z</time></trkpt><trkpt lat="43.9480535" lon="12.8280013"><ele>153.0</ele><time>2026-04-09T10:07:48.702Z</time></trkpt><trkpt lat="43.9480302" lon="12.8278733"><ele>153.0</ele><time>2026-04-09T10:07:49.702Z</time></trkpt><trkpt lat="43.9480098" lon="12.8277462"><ele>153.0</ele><time>2026-04-09T10:07:50.703Z</time></trkpt><trkpt lat="43.9479806" lon="12.8275924"><ele>153.0</ele><time>2026-04-09T10:07:51.703Z</time></trkpt><trkpt lat="43.9479496" lon="12.8274366"><ele>153.0</ele><time>2026-04-09T10:07:52.702Z</time></trkpt><trkpt lat="43.9479218" lon="12.8272903"><ele>153.0</ele><time>2026-04-09T10:07:53.703Z</time></trkpt><trkpt lat="43.9478911" lon="12.827158"><ele>153.0</ele><time>2026-04-09T10:07:54.702Z</time></trkpt><trkpt lat="43.9478584" lon="12.8270304"><ele>153.0</ele><time>2026-04-09T10:07:55.702Z</time></trkpt><trkpt lat="43.9478217" lon="12.8269193"><ele>153.0</ele><time>2026-04-09T10:07:56.703Z</time></trkpt><trkpt lat="43.9477832" lon="12.8268021"><ele>153.0</ele><time>2026-04-09T10:07:57.702Z</time></trkpt><trkpt lat="43.9477328" lon="12.8266852"><ele>153.0</ele><time>2026-04-09T10:07:58.702Z</time></trkpt><trkpt lat="43.9476609" lon="12.8265607"><ele>153.0</ele><time>2026-04-09T10:07:59.702Z</time></trkpt><trkpt lat="43.9475777" lon="12.8264313"><ele>153.0</ele><time>2026-04-09T10:08:00.703Z</time></trkpt><trkpt lat="43.9474781" lon="12.8263032"><ele>153.0</ele><time>2026-04-09T10:08:01.702Z</time></trkpt><trkpt lat="43.9473669" lon="12.8261795"><ele>153.0</ele><time>2026-04-09T10:08:02.703Z</time></trkpt><trkpt lat="43.9472528" lon="12.8260503"><ele>156.5</ele><time>2026-04-09T10:08:03.702Z</time></trkpt><trkpt lat="43.9471439" lon="12.8259329"><ele>160.0</ele><time>2026-04-09T10:08:04.703Z</time></trkpt><trkpt lat="43.94703" lon="12.8258237"><ele>163.5</ele><time>2026-04-09T10:08:05.703Z</time></trkpt><trkpt lat="43.946916" lon="12.8257222"><ele>167.0</ele><time>2026-04-09T10:08:06.702Z</time></trkpt><trkpt lat="43.9468052" lon="12.8256322"><ele>166.39999999999998</ele><time>2026-04-09T10:08:07.702Z</time></trkpt><trkpt lat="43.946707" lon="12.8255438"><ele>165.79999999999998</ele><time>2026-04-09T10:08:08.703Z</time></trkpt><trkpt lat="43.9466141" lon="12.8254552"><ele>165.2</ele><time>2026-04-09T10:08:09.703Z</time></trkpt><trkpt lat="43.946535" lon="12.8253531"><ele>164.6</ele><time>2026-04-09T10:08:10.702Z</time></trkpt><trkpt lat="43.9464719" lon="12.8252443"><ele>164.0</ele><time>2026-04-09T10:08:11.702Z</time></trkpt><trkpt lat="43.9464508" lon="12.8251306"><ele>164.0</ele><time>2026-04-09T10:08:12.703Z</time></trkpt><trkpt lat="43.9464679" lon="12.8250053"><ele>164.0</ele><time>2026-04-09T10:08:13.703Z</time></trkpt><trkpt lat="43.946512" lon="12.8248865"><ele>164.0</ele><time>2026-04-09T10:08:14.702Z</time></trkpt><trkpt lat="43.9465702" lon="12.8247563"><ele>164.0</ele><time>2026-04-09T10:08:15.703Z</time></trkpt><trkpt lat="43.9466488" lon="12.8246338"><ele>164.0</ele><time>2026-04-09T10:08:16.702Z</time></trkpt><trkpt lat="43.9467233" lon="12.8244997"><ele>166.5</ele><time>2026-04-09T10:08:17.702Z</time></trkpt><trkpt lat="43.9467946" lon="12.8243295"><ele>169.0</ele><time>2026-04-09T10:08:18.703Z</time></trkpt><trkpt lat="43.9468529" lon="12.8241712"><ele>171.5</ele><time>2026-04-09T10:08:19.702Z</time></trkpt><trkpt lat="43.9468898" lon="12.8240005"><ele>174.0</ele><time>2026-04-09T10:08:20.703Z</time></trkpt><trkpt lat="43.946935" lon="12.8238662"><ele>174.0</ele><time>2026-04-09T10:08:21.703Z</time></trkpt><trkpt lat="43.9470092" lon="12.8237637"><ele>174.0</ele><time>2026-04-09T10:08:22.703Z</time></trkpt><trkpt lat="43.947099" lon="12.8237151"><ele>174.0</ele><time>2026-04-09T10:08:23.702Z</time></trkpt><trkpt lat="43.9471961" lon="12.8236986"><ele>174.0</ele><time>2026-04-09T10:08:24.703Z</time></trkpt><trkpt lat="43.9473028" lon="12.8237182"><ele>174.0</ele><time>2026-04-09T10:08:25.702Z</time></trkpt><trkpt lat="43.9474199" lon="12.8237471"><ele>174.0</ele><time>2026-04-09T10:08:26.703Z</time></trkpt><trkpt lat="43.9475416" lon="12.8237811"><ele>174.0</ele><time>2026-04-09T10:08:27.702Z</time></trkpt><trkpt lat="43.9476762" lon="12.8238154"><ele>174.0</ele><time>2026-04-09T10:08:28.702Z</time></trkpt><trkpt lat="43.9478035" lon="12.8238354"><ele>174.0</ele><time>2026-04-09T10:08:29.703Z</time></trkpt><trkpt lat="43.9479313" lon="12.8238498"><ele>174.39999999999998</ele><time>2026-04-09T10:08:30.703Z</time></trkpt><trkpt lat="43.9480584" lon="12.8238737"><ele>174.8</ele><time>2026-04-09T10:08:31.702Z</time></trkpt><trkpt lat="43.9481721" lon="12.8238796"><ele>175.2</ele><time>2026-04-09T10:08:32.702Z</time></trkpt><trkpt lat="43.9482745" lon="12.8238843"><ele>175.60000000000002</ele><time>2026-04-09T10:08:33.702Z</time></trkpt><trkpt lat="43.948375" lon="12.8238672"><ele>176.0</ele><time>2026-04-09T10:08:34.703Z</time></trkpt><trkpt lat="43.9484636" lon="12.8238386"><ele>175.16666666666666</ele><time>2026-04-09T10:08:35.702Z</time></trkpt><trkpt lat="43.9485509" lon="12.8237985"><ele>174.33333333333331</ele><time>2026-04-09T10:08:36.703Z</time></trkpt><trkpt lat="43.948618" lon="12.8237622"><ele>173.5</ele><time>2026-04-09T10:08:37.702Z</time></trkpt><trkpt lat="43.9486637" lon="12.8237018"><ele>172.66666666666666</ele><time>2026-04-09T10:08:38.703Z</time></trkpt><trkpt lat="43.9487058" lon="12.8236352"><ele>171.83333333333334</ele><time>2026-04-09T10:08:39.702Z</time></trkpt><trkpt lat="43.9487375" lon="12.8235346"><ele>171.0</ele><time>2026-04-09T10:08:40.702Z</time></trkpt><trkpt lat="43.9487676" lon="12.8234319"><ele>171.0</ele><time>2026-04-09T10:08:41.702Z</time></trkpt><trkpt lat="43.948788" lon="12.8233298"><ele>171.0</ele><time>2026-04-09T10:08:42.702Z</time></trkpt><trkpt lat="43.9488072" lon="12.8232091"><ele>171.0</ele><time>2026-04-09T10:08:43.703Z</time></trkpt><trkpt lat="43.9488237" lon="12.8230965"><ele>171.0</ele><time>2026-04-09T10:08:44.703Z</time></trkpt><trkpt lat="43.9488403" lon="12.8229778"><ele>171.0</ele><time>2026-04-09T10:08:45.702Z</time></trkpt><trkpt lat="43.9488602" lon="12.8228642"><ele>171.0</ele><time>2026-04-09T10:08:46.702Z</time></trkpt><trkpt lat="43.9488872" lon="12.8227388"><ele>171.33333333333334</ele><time>2026-04-09T10:08:47.702Z</time></trkpt><trkpt lat="43.9489226" lon="12.8226347"><ele>171.66666666666666</ele><time>2026-04-09T10:08:48.703Z</time></trkpt><trkpt lat="43.9489761" lon="12.8225175"><ele>172.0</ele><time>2026-04-09T10:08:49.703Z</time></trkpt><trkpt lat="43.9490255" lon="12.8224074"><ele>172.33333333333331</ele><time>2026-04-09T10:08:50.702Z</time></trkpt><trkpt lat="43.949064" lon="12.82231"><ele>172.66666666666666</ele><time>2026-04-09T10:08:51.703Z</time></trkpt><trkpt lat="43.9491118" lon="12.8222206"><ele>173.0</ele><time>2026-04-09T10:08:52.703Z</time></trkpt><trkpt lat="43.9491698" lon="12.8221591"><ele>172.2</ele><time>2026-04-09T10:08:53.703Z</time></trkpt><trkpt lat="43.9492557" lon="12.8221466"><ele>171.4</ele><time>2026-04-09T10:08:54.702Z</time></trkpt><trkpt lat="43.9493388" lon="12.8221627"><ele>170.6</ele><time>2026-04-09T10:08:55.702Z</time></trkpt><trkpt lat="43.949443" lon="12.8221992"><ele>169.79999999999998</ele><time>2026-04-09T10:08:56.703Z</time></trkpt><trkpt lat="43.9495506" lon="12.8222215"><ele>169.0</ele><time>2026-04-09T10:08:57.703Z</time></trkpt><trkpt lat="43.9496571" lon="12.822242"><ele>169.0</ele><time>2026-04-09T10:08:58.702Z</time></trkpt><trkpt lat="43.9497535" lon="12.8222617"><ele>169.0</ele><time>2026-04-09T10:08:59.702Z</time></trkpt><trkpt lat="43.9498514" lon="12.822283"><ele>169.0</ele><time>2026-04-09T10:09:00.702Z</time></trkpt><trkpt lat="43.9499456" lon="12.8223002"><ele>169.0</ele><time>2026-04-09T10:09:01.703Z</time></trkpt><trkpt lat="43.9500439" lon="12.8223289"><ele>169.0</ele><time>2026-04-09T10:09:02.703Z</time></trkpt><trkpt lat="43.9501434" lon="12.8223504"><ele>168.16666666666669</ele><time>2026-04-09T10:09:03.703Z</time></trkpt><trkpt lat="43.9502332" lon="12.8223765"><ele>167.33333333333334</ele><time>2026-04-09T10:09:04.702Z</time></trkpt><trkpt lat="43.9503219" lon="12.8224007"><ele>166.5</ele><time>2026-04-09T10:09:05.702Z</time></trkpt><trkpt lat="43.9503995" lon="12.822421"><ele>165.66666666666666</ele><time>2026-04-09T10:09:06.702Z</time></trkpt><trkpt lat="43.9504701" lon="12.8224337"><ele>164.83333333333331</ele><time>2026-04-09T10:09:07.703Z</time></trkpt><trkpt lat="43.9505391" lon="12.8224598"><ele>164.0</ele><time>2026-04-09T10:09:08.702Z</time></trkpt><trkpt lat="43.950648" lon="12.8224311"><ele>164.0</ele><time>2026-04-09T10:09:10.703Z</time></trkpt><trkpt lat="43.9507401" lon="12.8223318"><ele>164.0</ele><time>2026-04-09T10:09:12.702Z</time></trkpt><trkpt lat="43.9508252" lon="12.822238"><ele>164.0</ele><time>2026-04-09T10:09:14.703Z</time></trkpt><trkpt lat="43.9509061" lon="12.822151"><ele>164.0</ele><time>2026-04-09T10:09:16.703Z</time></trkpt><trkpt lat="43.9509594" lon="12.8220635"><ele>164.0</ele><time>2026-04-09T10:09:18.702Z</time></trkpt><trkpt lat="43.9509877" lon="12.8219618"><ele>164.66666666666666</ele><time>2026-04-09T10:09:21.702Z</time></trkpt><trkpt lat="43.9509847" lon="12.8218489"><ele>165.33333333333331</ele><time>2026-04-09T10:09:24.703Z</time></trkpt><trkpt lat="43.9509874" lon="12.8217613"><ele>166.0</ele><time>2026-04-09T10:09:26.703Z</time></trkpt><trkpt lat="43.9509912" lon="12.8216258"><ele>166.66666666666666</ele><time>2026-04-09T10:09:29.703Z</time></trkpt><trkpt lat="43.9509967" lon="12.821537"><ele>167.33333333333334</ele><time>2026-04-09T10:09:32.662Z</time></trkpt><trkpt lat="43.9510228" lon="12.8214265"><ele>168.0</ele><time>2026-04-09T10:09:35.816Z</time></trkpt><trkpt lat="43.9510641" lon="12.8213408"><ele>168.0</ele><time>2026-04-09T10:09:38.702Z</time></trkpt><trkpt lat="43.9510466" lon="12.8214302"><ele>168.0</ele><time>2026-04-09T10:09:53.722Z</time></trkpt><trkpt lat="43.9509833" lon="12.8214602"><ele>168.0</ele><time>2026-04-09T10:10:01.702Z</time></trkpt></trkseg></trk></gpx>